<?xml version="1.0" encoding="UTF-8"?><gpx xmlns="http://www.topografix.com/GPX/1/1" version="1.1" creator="iOrient"><trk><name>Большая прогулка. Вокруг Казанки</name><trkseg><trkpt lat="55.8201370" lon="49.1653020"><time>2021-08-14T06:20:44</time></trkpt><trkpt lat="55.8201380" lon="49.1653180"><time>2021-08-14T06:20:45</time></trkpt><trkpt lat="55.8201310" lon="49.1653350"><time>2021-08-14T06:20:46</time></trkpt><trkpt lat="55.8201250" lon="49.1653530"><time>2021-08-14T06:20:47</time></trkpt><trkpt lat="55.8201180" lon="49.1653700"><time>2021-08-14T06:20:48</time></trkpt><trkpt lat="55.8201110" lon="49.1653870"><time>2021-08-14T06:20:49</time></trkpt><trkpt lat="55.8201010" lon="49.1654350"><time>2021-08-14T06:20:50</time></trkpt><trkpt lat="55.8200940" lon="49.1654460"><time>2021-08-14T06:20:51</time></trkpt><trkpt lat="55.8200830" lon="49.1654780"><time>2021-08-14T06:20:52</time></trkpt><trkpt lat="55.8200790" lon="49.1654950"><time>2021-08-14T06:20:53</time></trkpt><trkpt lat="55.8200750" lon="49.1655110"><time>2021-08-14T06:20:54</time></trkpt><trkpt lat="55.8200730" lon="49.1655660"><time>2021-08-14T06:20:55</time></trkpt><trkpt lat="55.8200710" lon="49.1655760"><time>2021-08-14T06:20:56</time></trkpt><trkpt lat="55.8200680" lon="49.1656010"><time>2021-08-14T06:20:57</time></trkpt><trkpt lat="55.8200600" lon="49.1656240"><time>2021-08-14T06:20:58</time></trkpt><trkpt lat="55.8200440" lon="49.1656700"><time>2021-08-14T06:20:59</time></trkpt><trkpt lat="55.8200430" lon="49.1656830"><time>2021-08-14T06:21:00</time></trkpt><trkpt lat="55.8200410" lon="49.1656910"><time>2021-08-14T06:21:01</time></trkpt><trkpt lat="55.8200310" lon="49.1657370"><time>2021-08-14T06:21:02</time></trkpt><trkpt lat="55.8200290" lon="49.1657600"><time>2021-08-14T06:21:03</time></trkpt><trkpt lat="55.8200310" lon="49.1657870"><time>2021-08-14T06:21:04</time></trkpt><trkpt lat="55.8200230" lon="49.1658450"><time>2021-08-14T06:21:05</time></trkpt><trkpt lat="55.8200230" lon="49.1658570"><time>2021-08-14T06:21:06</time></trkpt><trkpt lat="55.8200230" lon="49.1658770"><time>2021-08-14T06:21:07</time></trkpt><trkpt lat="55.8200240" lon="49.1658990"><time>2021-08-14T06:21:08</time></trkpt><trkpt lat="55.8200240" lon="49.1659200"><time>2021-08-14T06:21:09</time></trkpt><trkpt lat="55.8200230" lon="49.1659580"><time>2021-08-14T06:21:10</time></trkpt><trkpt lat="55.8200240" lon="49.1659730"><time>2021-08-14T06:21:11</time></trkpt><trkpt lat="55.8200240" lon="49.1659870"><time>2021-08-14T06:21:12</time></trkpt><trkpt lat="55.8200250" lon="49.1660030"><time>2021-08-14T06:21:13</time></trkpt><trkpt lat="55.8200210" lon="49.1660230"><time>2021-08-14T06:21:14</time></trkpt><trkpt lat="55.8200160" lon="49.1660430"><time>2021-08-14T06:21:15</time></trkpt><trkpt lat="55.8200000" lon="49.1660450"><time>2021-08-14T06:21:16</time></trkpt><trkpt lat="55.8199910" lon="49.1660340"><time>2021-08-14T06:21:17</time></trkpt><trkpt lat="55.8199830" lon="49.1660420"><time>2021-08-14T06:21:18</time></trkpt><trkpt lat="55.8199800" lon="49.1660330"><time>2021-08-14T06:21:19</time></trkpt><trkpt lat="55.8199820" lon="49.1660350"><time>2021-08-14T06:21:20</time></trkpt><trkpt lat="55.8199820" lon="49.1660320"><time>2021-08-14T06:21:21</time></trkpt><trkpt lat="55.8199820" lon="49.1660300"><time>2021-08-14T06:21:22</time></trkpt><trkpt lat="55.8199820" lon="49.1660280"><time>2021-08-14T06:21:23</time></trkpt><trkpt lat="55.8199830" lon="49.1660330"><time>2021-08-14T06:21:24</time></trkpt><trkpt lat="55.8199880" lon="49.1660240"><time>2021-08-14T06:21:25</time></trkpt><trkpt lat="55.8199890" lon="49.1660240"><time>2021-08-14T06:21:26</time></trkpt><trkpt lat="55.8199890" lon="49.1660220"><time>2021-08-14T06:21:27</time></trkpt><trkpt lat="55.8199890" lon="49.1660170"><time>2021-08-14T06:21:28</time></trkpt><trkpt lat="55.8199900" lon="49.1660260"><time>2021-08-14T06:21:29</time></trkpt><trkpt lat="55.8199920" lon="49.1660280"><time>2021-08-14T06:21:30</time></trkpt><trkpt lat="55.8199880" lon="49.1660290"><time>2021-08-14T06:21:31</time></trkpt><trkpt lat="55.8199860" lon="49.1660200"><time>2021-08-14T06:21:32</time></trkpt><trkpt lat="55.8199760" lon="49.1659840"><time>2021-08-14T06:21:33</time></trkpt><trkpt lat="55.8199680" lon="49.1659610"><time>2021-08-14T06:21:34</time></trkpt><trkpt lat="55.8199640" lon="49.1659440"><time>2021-08-14T06:21:35</time></trkpt><trkpt lat="55.8199580" lon="49.1659290"><time>2021-08-14T06:21:36</time></trkpt><trkpt lat="55.8199510" lon="49.1659030"><time>2021-08-14T06:21:37</time></trkpt><trkpt lat="55.8199480" lon="49.1658730"><time>2021-08-14T06:21:38</time></trkpt><trkpt lat="55.8199400" lon="49.1658480"><time>2021-08-14T06:21:39</time></trkpt><trkpt lat="55.8199410" lon="49.1658180"><time>2021-08-14T06:21:40</time></trkpt><trkpt lat="55.8199410" lon="49.1657870"><time>2021-08-14T06:21:41</time></trkpt><trkpt lat="55.8199400" lon="49.1657540"><time>2021-08-14T06:21:42</time></trkpt><trkpt lat="55.8199490" lon="49.1657180"><time>2021-08-14T06:21:43</time></trkpt><trkpt lat="55.8199490" lon="49.1656960"><time>2021-08-14T06:21:44</time></trkpt><trkpt lat="55.8199550" lon="49.1656730"><time>2021-08-14T06:21:45</time></trkpt><trkpt lat="55.8199570" lon="49.1656330"><time>2021-08-14T06:21:46</time></trkpt><trkpt lat="55.8199660" lon="49.1655830"><time>2021-08-14T06:21:47</time></trkpt><trkpt lat="55.8199690" lon="49.1655660"><time>2021-08-14T06:21:48</time></trkpt><trkpt lat="55.8199760" lon="49.1655420"><time>2021-08-14T06:21:49</time></trkpt><trkpt lat="55.8199830" lon="49.1655140"><time>2021-08-14T06:21:50</time></trkpt><trkpt lat="55.8199900" lon="49.1654890"><time>2021-08-14T06:21:51</time></trkpt><trkpt lat="55.8199940" lon="49.1654600"><time>2021-08-14T06:21:52</time></trkpt><trkpt lat="55.8200010" lon="49.1654300"><time>2021-08-14T06:21:53</time></trkpt><trkpt lat="55.8200080" lon="49.1654010"><time>2021-08-14T06:21:54</time></trkpt><trkpt lat="55.8200130" lon="49.1653750"><time>2021-08-14T06:21:55</time></trkpt><trkpt lat="55.8200190" lon="49.1653480"><time>2021-08-14T06:21:56</time></trkpt><trkpt lat="55.8200250" lon="49.1653220"><time>2021-08-14T06:21:57</time></trkpt><trkpt lat="55.8200280" lon="49.1652920"><time>2021-08-14T06:21:58</time></trkpt><trkpt lat="55.8200340" lon="49.1652660"><time>2021-08-14T06:21:59</time></trkpt><trkpt lat="55.8200430" lon="49.1652410"><time>2021-08-14T06:22:00</time></trkpt><trkpt lat="55.8200480" lon="49.1652110"><time>2021-08-14T06:22:01</time></trkpt><trkpt lat="55.8200560" lon="49.1651850"><time>2021-08-14T06:22:02</time></trkpt><trkpt lat="55.8200640" lon="49.1651630"><time>2021-08-14T06:22:03</time></trkpt><trkpt lat="55.8200690" lon="49.1651360"><time>2021-08-14T06:22:04</time></trkpt><trkpt lat="55.8200800" lon="49.1651070"><time>2021-08-14T06:22:05</time></trkpt><trkpt lat="55.8200850" lon="49.1650910"><time>2021-08-14T06:22:06</time></trkpt><trkpt lat="55.8200910" lon="49.1650750"><time>2021-08-14T06:22:07</time></trkpt><trkpt lat="55.8200940" lon="49.1650590"><time>2021-08-14T06:22:08</time></trkpt><trkpt lat="55.8201000" lon="49.1650260"><time>2021-08-14T06:22:09</time></trkpt><trkpt lat="55.8201030" lon="49.1650090"><time>2021-08-14T06:22:10</time></trkpt><trkpt lat="55.8201150" lon="49.1649800"><time>2021-08-14T06:22:11</time></trkpt><trkpt lat="55.8201120" lon="49.1649560"><time>2021-08-14T06:22:12</time></trkpt><trkpt lat="55.8201120" lon="49.1649240"><time>2021-08-14T06:22:13</time></trkpt><trkpt lat="55.8200930" lon="49.1648900"><time>2021-08-14T06:22:14</time></trkpt><trkpt lat="55.8200850" lon="49.1648780"><time>2021-08-14T06:22:15</time></trkpt><trkpt lat="55.8200570" lon="49.1648630"><time>2021-08-14T06:22:16</time></trkpt><trkpt lat="55.8200480" lon="49.1648620"><time>2021-08-14T06:22:17</time></trkpt><trkpt lat="55.8200350" lon="49.1648410"><time>2021-08-14T06:22:18</time></trkpt><trkpt lat="55.8200210" lon="49.1648220"><time>2021-08-14T06:22:19</time></trkpt><trkpt lat="55.8200060" lon="49.1648130"><time>2021-08-14T06:22:20</time></trkpt><trkpt lat="55.8199920" lon="49.1647940"><time>2021-08-14T06:22:21</time></trkpt><trkpt lat="55.8199760" lon="49.1647690"><time>2021-08-14T06:22:22</time></trkpt><trkpt lat="55.8199640" lon="49.1647660"><time>2021-08-14T06:22:23</time></trkpt><trkpt lat="55.8199410" lon="49.1647360"><time>2021-08-14T06:22:24</time></trkpt><trkpt lat="55.8199350" lon="49.1647250"><time>2021-08-14T06:22:25</time></trkpt><trkpt lat="55.8199200" lon="49.1647120"><time>2021-08-14T06:22:26</time></trkpt><trkpt lat="55.8199070" lon="49.1646900"><time>2021-08-14T06:22:27</time></trkpt><trkpt lat="55.8198930" lon="49.1646750"><time>2021-08-14T06:22:28</time></trkpt><trkpt lat="55.8198760" lon="49.1646640"><time>2021-08-14T06:22:29</time></trkpt><trkpt lat="55.8198530" lon="49.1646390"><time>2021-08-14T06:22:30</time></trkpt><trkpt lat="55.8198430" lon="49.1646290"><time>2021-08-14T06:22:31</time></trkpt><trkpt lat="55.8198330" lon="49.1646170"><time>2021-08-14T06:22:32</time></trkpt><trkpt lat="55.8198170" lon="49.1645910"><time>2021-08-14T06:22:33</time></trkpt><trkpt lat="55.8198050" lon="49.1645720"><time>2021-08-14T06:22:34</time></trkpt><trkpt lat="55.8197910" lon="49.1645550"><time>2021-08-14T06:22:35</time></trkpt><trkpt lat="55.8197760" lon="49.1645360"><time>2021-08-14T06:22:36</time></trkpt><trkpt lat="55.8197630" lon="49.1645130"><time>2021-08-14T06:22:37</time></trkpt><trkpt lat="55.8197490" lon="49.1644940"><time>2021-08-14T06:22:38</time></trkpt><trkpt lat="55.8197350" lon="49.1644750"><time>2021-08-14T06:22:39</time></trkpt><trkpt lat="55.8197200" lon="49.1644600"><time>2021-08-14T06:22:40</time></trkpt><trkpt lat="55.8197060" lon="49.1644420"><time>2021-08-14T06:22:41</time></trkpt><trkpt lat="55.8196850" lon="49.1644110"><time>2021-08-14T06:22:42</time></trkpt><trkpt lat="55.8196770" lon="49.1644010"><time>2021-08-14T06:22:43</time></trkpt><trkpt lat="55.8196560" lon="49.1643650"><time>2021-08-14T06:22:44</time></trkpt><trkpt lat="55.8196490" lon="49.1643540"><time>2021-08-14T06:22:45</time></trkpt><trkpt lat="55.8196270" lon="49.1643210"><time>2021-08-14T06:22:46</time></trkpt><trkpt lat="55.8196200" lon="49.1643110"><time>2021-08-14T06:22:47</time></trkpt><trkpt lat="55.8196060" lon="49.1642890"><time>2021-08-14T06:22:48</time></trkpt><trkpt lat="55.8195930" lon="49.1642690"><time>2021-08-14T06:22:49</time></trkpt><trkpt lat="55.8195800" lon="49.1642550"><time>2021-08-14T06:22:50</time></trkpt><trkpt lat="55.8195660" lon="49.1642380"><time>2021-08-14T06:22:51</time></trkpt><trkpt lat="55.8195520" lon="49.1642230"><time>2021-08-14T06:22:52</time></trkpt><trkpt lat="55.8195350" lon="49.1642040"><time>2021-08-14T06:22:53</time></trkpt><trkpt lat="55.8195130" lon="49.1641710"><time>2021-08-14T06:22:54</time></trkpt><trkpt lat="55.8195050" lon="49.1641600"><time>2021-08-14T06:22:55</time></trkpt><trkpt lat="55.8194830" lon="49.1641250"><time>2021-08-14T06:22:56</time></trkpt><trkpt lat="55.8194760" lon="49.1641120"><time>2021-08-14T06:22:57</time></trkpt><trkpt lat="55.8194620" lon="49.1640930"><time>2021-08-14T06:22:58</time></trkpt><trkpt lat="55.8194490" lon="49.1640750"><time>2021-08-14T06:22:59</time></trkpt><trkpt lat="55.8194280" lon="49.1640450"><time>2021-08-14T06:23:00</time></trkpt><trkpt lat="55.8194200" lon="49.1640350"><time>2021-08-14T06:23:01</time></trkpt><trkpt lat="55.8194060" lon="49.1640130"><time>2021-08-14T06:23:02</time></trkpt><trkpt lat="55.8193930" lon="49.1639920"><time>2021-08-14T06:23:03</time></trkpt><trkpt lat="55.8193820" lon="49.1639730"><time>2021-08-14T06:23:04</time></trkpt><trkpt lat="55.8193690" lon="49.1639540"><time>2021-08-14T06:23:05</time></trkpt><trkpt lat="55.8193560" lon="49.1639350"><time>2021-08-14T06:23:06</time></trkpt><trkpt lat="55.8193420" lon="49.1639190"><time>2021-08-14T06:23:07</time></trkpt><trkpt lat="55.8193280" lon="49.1639050"><time>2021-08-14T06:23:08</time></trkpt><trkpt lat="55.8193150" lon="49.1638830"><time>2021-08-14T06:23:09</time></trkpt><trkpt lat="55.8193020" lon="49.1638630"><time>2021-08-14T06:23:10</time></trkpt><trkpt lat="55.8192910" lon="49.1638440"><time>2021-08-14T06:23:11</time></trkpt><trkpt lat="55.8192820" lon="49.1638250"><time>2021-08-14T06:23:12</time></trkpt><trkpt lat="55.8192710" lon="49.1638070"><time>2021-08-14T06:23:13</time></trkpt><trkpt lat="55.8192590" lon="49.1637900"><time>2021-08-14T06:23:14</time></trkpt><trkpt lat="55.8192490" lon="49.1637680"><time>2021-08-14T06:23:15</time></trkpt><trkpt lat="55.8192370" lon="49.1637480"><time>2021-08-14T06:23:16</time></trkpt><trkpt lat="55.8192230" lon="49.1637330"><time>2021-08-14T06:23:17</time></trkpt><trkpt lat="55.8192100" lon="49.1637150"><time>2021-08-14T06:23:18</time></trkpt><trkpt lat="55.8192010" lon="49.1636830"><time>2021-08-14T06:23:19</time></trkpt><trkpt lat="55.8191930" lon="49.1636620"><time>2021-08-14T06:23:20</time></trkpt><trkpt lat="55.8191810" lon="49.1636370"><time>2021-08-14T06:23:21</time></trkpt><trkpt lat="55.8191710" lon="49.1636160"><time>2021-08-14T06:23:22</time></trkpt><trkpt lat="55.8191660" lon="49.1635900"><time>2021-08-14T06:23:23</time></trkpt><trkpt lat="55.8191570" lon="49.1635600"><time>2021-08-14T06:23:24</time></trkpt><trkpt lat="55.8191460" lon="49.1635420"><time>2021-08-14T06:23:25</time></trkpt><trkpt lat="55.8191380" lon="49.1635180"><time>2021-08-14T06:23:26</time></trkpt><trkpt lat="55.8191290" lon="49.1634940"><time>2021-08-14T06:23:27</time></trkpt><trkpt lat="55.8191180" lon="49.1634720"><time>2021-08-14T06:23:28</time></trkpt><trkpt lat="55.8191100" lon="49.1634490"><time>2021-08-14T06:23:29</time></trkpt><trkpt lat="55.8191010" lon="49.1634220"><time>2021-08-14T06:23:30</time></trkpt><trkpt lat="55.8190920" lon="49.1634030"><time>2021-08-14T06:23:31</time></trkpt><trkpt lat="55.8190830" lon="49.1633700"><time>2021-08-14T06:23:32</time></trkpt><trkpt lat="55.8190690" lon="49.1633610"><time>2021-08-14T06:23:33</time></trkpt><trkpt lat="55.8190440" lon="49.1633210"><time>2021-08-14T06:23:34</time></trkpt><trkpt lat="55.8190400" lon="49.1633070"><time>2021-08-14T06:23:35</time></trkpt><trkpt lat="55.8190220" lon="49.1632620"><time>2021-08-14T06:23:36</time></trkpt><trkpt lat="55.8190170" lon="49.1632450"><time>2021-08-14T06:23:37</time></trkpt><trkpt lat="55.8190040" lon="49.1631910"><time>2021-08-14T06:23:38</time></trkpt><trkpt lat="55.8189990" lon="49.1631740"><time>2021-08-14T06:23:39</time></trkpt><trkpt lat="55.8189810" lon="49.1631240"><time>2021-08-14T06:23:40</time></trkpt><trkpt lat="55.8189730" lon="49.1631100"><time>2021-08-14T06:23:41</time></trkpt><trkpt lat="55.8189570" lon="49.1630540"><time>2021-08-14T06:23:42</time></trkpt><trkpt lat="55.8189520" lon="49.1630350"><time>2021-08-14T06:23:43</time></trkpt><trkpt lat="55.8189350" lon="49.1629940"><time>2021-08-14T06:23:44</time></trkpt><trkpt lat="55.8189200" lon="49.1629390"><time>2021-08-14T06:23:45</time></trkpt><trkpt lat="55.8189020" lon="49.1628850"><time>2021-08-14T06:23:46</time></trkpt><trkpt lat="55.8188910" lon="49.1628370"><time>2021-08-14T06:23:47</time></trkpt><trkpt lat="55.8188750" lon="49.1627850"><time>2021-08-14T06:23:48</time></trkpt><trkpt lat="55.8188590" lon="49.1627410"><time>2021-08-14T06:23:49</time></trkpt><trkpt lat="55.8188420" lon="49.1626920"><time>2021-08-14T06:23:50</time></trkpt><trkpt lat="55.8188280" lon="49.1626340"><time>2021-08-14T06:23:51</time></trkpt><trkpt lat="55.8188210" lon="49.1626110"><time>2021-08-14T06:23:52</time></trkpt><trkpt lat="55.8188130" lon="49.1625640"><time>2021-08-14T06:23:53</time></trkpt><trkpt lat="55.8188000" lon="49.1625170"><time>2021-08-14T06:23:54</time></trkpt><trkpt lat="55.8187860" lon="49.1624760"><time>2021-08-14T06:23:55</time></trkpt><trkpt lat="55.8187790" lon="49.1624250"><time>2021-08-14T06:23:56</time></trkpt><trkpt lat="55.8187650" lon="49.1623740"><time>2021-08-14T06:23:57</time></trkpt><trkpt lat="55.8187610" lon="49.1623200"><time>2021-08-14T06:23:58</time></trkpt><trkpt lat="55.8187450" lon="49.1622780"><time>2021-08-14T06:23:59</time></trkpt><trkpt lat="55.8187270" lon="49.1622130"><time>2021-08-14T06:24:00</time></trkpt><trkpt lat="55.8187210" lon="49.1621880"><time>2021-08-14T06:24:01</time></trkpt><trkpt lat="55.8187120" lon="49.1621420"><time>2021-08-14T06:24:02</time></trkpt><trkpt lat="55.8187060" lon="49.1620910"><time>2021-08-14T06:24:03</time></trkpt><trkpt lat="55.8187000" lon="49.1620400"><time>2021-08-14T06:24:04</time></trkpt><trkpt lat="55.8186910" lon="49.1619920"><time>2021-08-14T06:24:05</time></trkpt><trkpt lat="55.8186830" lon="49.1619420"><time>2021-08-14T06:24:06</time></trkpt><trkpt lat="55.8186810" lon="49.1618910"><time>2021-08-14T06:24:07</time></trkpt><trkpt lat="55.8186750" lon="49.1618420"><time>2021-08-14T06:24:08</time></trkpt><trkpt lat="55.8186680" lon="49.1617710"><time>2021-08-14T06:24:09</time></trkpt><trkpt lat="55.8186640" lon="49.1617470"><time>2021-08-14T06:24:10</time></trkpt><trkpt lat="55.8186570" lon="49.1616990"><time>2021-08-14T06:24:11</time></trkpt><trkpt lat="55.8186440" lon="49.1616390"><time>2021-08-14T06:24:12</time></trkpt><trkpt lat="55.8186400" lon="49.1616170"><time>2021-08-14T06:24:13</time></trkpt><trkpt lat="55.8186340" lon="49.1615450"><time>2021-08-14T06:24:14</time></trkpt><trkpt lat="55.8186330" lon="49.1615180"><time>2021-08-14T06:24:15</time></trkpt><trkpt lat="55.8186240" lon="49.1614680"><time>2021-08-14T06:24:16</time></trkpt><trkpt lat="55.8186230" lon="49.1614200"><time>2021-08-14T06:24:17</time></trkpt><trkpt lat="55.8186210" lon="49.1613540"><time>2021-08-14T06:24:18</time></trkpt><trkpt lat="55.8186210" lon="49.1613320"><time>2021-08-14T06:24:19</time></trkpt><trkpt lat="55.8186200" lon="49.1612610"><time>2021-08-14T06:24:20</time></trkpt><trkpt lat="55.8186200" lon="49.1612360"><time>2021-08-14T06:24:21</time></trkpt><trkpt lat="55.8186190" lon="49.1611680"><time>2021-08-14T06:24:22</time></trkpt><trkpt lat="55.8186170" lon="49.1611440"><time>2021-08-14T06:24:23</time></trkpt><trkpt lat="55.8186180" lon="49.1610930"><time>2021-08-14T06:24:24</time></trkpt><trkpt lat="55.8186180" lon="49.1610400"><time>2021-08-14T06:24:25</time></trkpt><trkpt lat="55.8186150" lon="49.1609850"><time>2021-08-14T06:24:26</time></trkpt><trkpt lat="55.8186140" lon="49.1609130"><time>2021-08-14T06:24:27</time></trkpt><trkpt lat="55.8186150" lon="49.1608860"><time>2021-08-14T06:24:28</time></trkpt><trkpt lat="55.8186170" lon="49.1608370"><time>2021-08-14T06:24:29</time></trkpt><trkpt lat="55.8186190" lon="49.1607830"><time>2021-08-14T06:24:30</time></trkpt><trkpt lat="55.8186200" lon="49.1607340"><time>2021-08-14T06:24:31</time></trkpt><trkpt lat="55.8186200" lon="49.1606850"><time>2021-08-14T06:24:32</time></trkpt><trkpt lat="55.8186190" lon="49.1606360"><time>2021-08-14T06:24:33</time></trkpt><trkpt lat="55.8186240" lon="49.1605820"><time>2021-08-14T06:24:34</time></trkpt><trkpt lat="55.8186200" lon="49.1605320"><time>2021-08-14T06:24:35</time></trkpt><trkpt lat="55.8186190" lon="49.1604830"><time>2021-08-14T06:24:36</time></trkpt><trkpt lat="55.8186170" lon="49.1604250"><time>2021-08-14T06:24:37</time></trkpt><trkpt lat="55.8186160" lon="49.1603550"><time>2021-08-14T06:24:38</time></trkpt><trkpt lat="55.8186150" lon="49.1603300"><time>2021-08-14T06:24:39</time></trkpt><trkpt lat="55.8186110" lon="49.1602690"><time>2021-08-14T06:24:40</time></trkpt><trkpt lat="55.8186090" lon="49.1602500"><time>2021-08-14T06:24:41</time></trkpt><trkpt lat="55.8186010" lon="49.1602040"><time>2021-08-14T06:24:42</time></trkpt><trkpt lat="55.8186090" lon="49.1601450"><time>2021-08-14T06:24:43</time></trkpt><trkpt lat="55.8186110" lon="49.1601220"><time>2021-08-14T06:24:44</time></trkpt><trkpt lat="55.8186090" lon="49.1600530"><time>2021-08-14T06:24:45</time></trkpt><trkpt lat="55.8186090" lon="49.1600290"><time>2021-08-14T06:24:46</time></trkpt><trkpt lat="55.8186100" lon="49.1599750"><time>2021-08-14T06:24:47</time></trkpt><trkpt lat="55.8186080" lon="49.1599590"><time>2021-08-14T06:24:48</time></trkpt><trkpt lat="55.8186110" lon="49.1599060"><time>2021-08-14T06:24:49</time></trkpt><trkpt lat="55.8186120" lon="49.1598890"><time>2021-08-14T06:24:50</time></trkpt><trkpt lat="55.8186160" lon="49.1598390"><time>2021-08-14T06:24:51</time></trkpt><trkpt lat="55.8186170" lon="49.1598230"><time>2021-08-14T06:24:52</time></trkpt><trkpt lat="55.8186140" lon="49.1597940"><time>2021-08-14T06:24:53</time></trkpt><trkpt lat="55.8186130" lon="49.1597660"><time>2021-08-14T06:24:54</time></trkpt><trkpt lat="55.8186120" lon="49.1597350"><time>2021-08-14T06:24:55</time></trkpt><trkpt lat="55.8186140" lon="49.1597040"><time>2021-08-14T06:24:56</time></trkpt><trkpt lat="55.8186150" lon="49.1596690"><time>2021-08-14T06:24:57</time></trkpt><trkpt lat="55.8186160" lon="49.1596560"><time>2021-08-14T06:24:58</time></trkpt><trkpt lat="55.8186170" lon="49.1596210"><time>2021-08-14T06:24:59</time></trkpt><trkpt lat="55.8186140" lon="49.1595980"><time>2021-08-14T06:25:00</time></trkpt><trkpt lat="55.8186130" lon="49.1595470"><time>2021-08-14T06:25:01</time></trkpt><trkpt lat="55.8186120" lon="49.1595270"><time>2021-08-14T06:25:02</time></trkpt><trkpt lat="55.8186130" lon="49.1594930"><time>2021-08-14T06:25:03</time></trkpt><trkpt lat="55.8186140" lon="49.1594710"><time>2021-08-14T06:25:04</time></trkpt><trkpt lat="55.8186140" lon="49.1594490"><time>2021-08-14T06:25:05</time></trkpt><trkpt lat="55.8186170" lon="49.1594280"><time>2021-08-14T06:25:06</time></trkpt><trkpt lat="55.8186190" lon="49.1593880"><time>2021-08-14T06:25:07</time></trkpt><trkpt lat="55.8186170" lon="49.1593690"><time>2021-08-14T06:25:08</time></trkpt><trkpt lat="55.8186170" lon="49.1593320"><time>2021-08-14T06:25:09</time></trkpt><trkpt lat="55.8186160" lon="49.1593140"><time>2021-08-14T06:25:10</time></trkpt><trkpt lat="55.8186130" lon="49.1592840"><time>2021-08-14T06:25:11</time></trkpt><trkpt lat="55.8186130" lon="49.1592540"><time>2021-08-14T06:25:12</time></trkpt><trkpt lat="55.8186120" lon="49.1592300"><time>2021-08-14T06:25:13</time></trkpt><trkpt lat="55.8186140" lon="49.1591920"><time>2021-08-14T06:25:14</time></trkpt><trkpt lat="55.8186160" lon="49.1591750"><time>2021-08-14T06:25:15</time></trkpt><trkpt lat="55.8186130" lon="49.1591430"><time>2021-08-14T06:25:16</time></trkpt><trkpt lat="55.8186110" lon="49.1591190"><time>2021-08-14T06:25:17</time></trkpt><trkpt lat="55.8186160" lon="49.1590860"><time>2021-08-14T06:25:18</time></trkpt><trkpt lat="55.8186150" lon="49.1590610"><time>2021-08-14T06:25:19</time></trkpt><trkpt lat="55.8186140" lon="49.1590240"><time>2021-08-14T06:25:20</time></trkpt><trkpt lat="55.8186120" lon="49.1590030"><time>2021-08-14T06:25:21</time></trkpt><trkpt lat="55.8186160" lon="49.1589710"><time>2021-08-14T06:25:22</time></trkpt><trkpt lat="55.8186170" lon="49.1589430"><time>2021-08-14T06:25:23</time></trkpt><trkpt lat="55.8186120" lon="49.1589000"><time>2021-08-14T06:25:24</time></trkpt><trkpt lat="55.8186130" lon="49.1588820"><time>2021-08-14T06:25:25</time></trkpt><trkpt lat="55.8186140" lon="49.1588410"><time>2021-08-14T06:25:26</time></trkpt><trkpt lat="55.8186120" lon="49.1588220"><time>2021-08-14T06:25:27</time></trkpt><trkpt lat="55.8186150" lon="49.1587810"><time>2021-08-14T06:25:28</time></trkpt><trkpt lat="55.8186140" lon="49.1587620"><time>2021-08-14T06:25:29</time></trkpt><trkpt lat="55.8186170" lon="49.1587250"><time>2021-08-14T06:25:30</time></trkpt><trkpt lat="55.8186170" lon="49.1587040"><time>2021-08-14T06:25:31</time></trkpt><trkpt lat="55.8186180" lon="49.1586670"><time>2021-08-14T06:25:32</time></trkpt><trkpt lat="55.8186180" lon="49.1586480"><time>2021-08-14T06:25:33</time></trkpt><trkpt lat="55.8186180" lon="49.1585950"><time>2021-08-14T06:25:34</time></trkpt><trkpt lat="55.8186180" lon="49.1585760"><time>2021-08-14T06:25:35</time></trkpt><trkpt lat="55.8186170" lon="49.1585440"><time>2021-08-14T06:25:36</time></trkpt><trkpt lat="55.8186170" lon="49.1585120"><time>2021-08-14T06:25:37</time></trkpt><trkpt lat="55.8186170" lon="49.1584800"><time>2021-08-14T06:25:38</time></trkpt><trkpt lat="55.8186120" lon="49.1584510"><time>2021-08-14T06:25:39</time></trkpt><trkpt lat="55.8186150" lon="49.1584180"><time>2021-08-14T06:25:40</time></trkpt><trkpt lat="55.8186120" lon="49.1583870"><time>2021-08-14T06:25:41</time></trkpt><trkpt lat="55.8186070" lon="49.1583590"><time>2021-08-14T06:25:42</time></trkpt><trkpt lat="55.8186050" lon="49.1583310"><time>2021-08-14T06:25:43</time></trkpt><trkpt lat="55.8186040" lon="49.1583030"><time>2021-08-14T06:25:44</time></trkpt><trkpt lat="55.8186040" lon="49.1582690"><time>2021-08-14T06:25:45</time></trkpt><trkpt lat="55.8186080" lon="49.1582210"><time>2021-08-14T06:25:46</time></trkpt><trkpt lat="55.8186100" lon="49.1582040"><time>2021-08-14T06:25:47</time></trkpt><trkpt lat="55.8186080" lon="49.1581720"><time>2021-08-14T06:25:48</time></trkpt><trkpt lat="55.8186120" lon="49.1581420"><time>2021-08-14T06:25:49</time></trkpt><trkpt lat="55.8186120" lon="49.1581120"><time>2021-08-14T06:25:50</time></trkpt><trkpt lat="55.8186140" lon="49.1580800"><time>2021-08-14T06:25:51</time></trkpt><trkpt lat="55.8186190" lon="49.1580490"><time>2021-08-14T06:25:52</time></trkpt><trkpt lat="55.8186150" lon="49.1580180"><time>2021-08-14T06:25:53</time></trkpt><trkpt lat="55.8186160" lon="49.1579880"><time>2021-08-14T06:25:54</time></trkpt><trkpt lat="55.8186120" lon="49.1579570"><time>2021-08-14T06:25:55</time></trkpt><trkpt lat="55.8186140" lon="49.1579280"><time>2021-08-14T06:25:56</time></trkpt><trkpt lat="55.8186100" lon="49.1578970"><time>2021-08-14T06:25:57</time></trkpt><trkpt lat="55.8186110" lon="49.1578660"><time>2021-08-14T06:25:58</time></trkpt><trkpt lat="55.8186130" lon="49.1578350"><time>2021-08-14T06:25:59</time></trkpt><trkpt lat="55.8186100" lon="49.1578070"><time>2021-08-14T06:26:00</time></trkpt><trkpt lat="55.8186130" lon="49.1577780"><time>2021-08-14T06:26:01</time></trkpt><trkpt lat="55.8186150" lon="49.1577480"><time>2021-08-14T06:26:02</time></trkpt><trkpt lat="55.8186140" lon="49.1577180"><time>2021-08-14T06:26:03</time></trkpt><trkpt lat="55.8186150" lon="49.1576880"><time>2021-08-14T06:26:04</time></trkpt><trkpt lat="55.8186160" lon="49.1576580"><time>2021-08-14T06:26:05</time></trkpt><trkpt lat="55.8186110" lon="49.1576290"><time>2021-08-14T06:26:06</time></trkpt><trkpt lat="55.8186140" lon="49.1575980"><time>2021-08-14T06:26:07</time></trkpt><trkpt lat="55.8186080" lon="49.1575690"><time>2021-08-14T06:26:08</time></trkpt><trkpt lat="55.8186160" lon="49.1575360"><time>2021-08-14T06:26:09</time></trkpt><trkpt lat="55.8186160" lon="49.1575070"><time>2021-08-14T06:26:10</time></trkpt><trkpt lat="55.8186130" lon="49.1574800"><time>2021-08-14T06:26:11</time></trkpt><trkpt lat="55.8186120" lon="49.1574500"><time>2021-08-14T06:26:12</time></trkpt><trkpt lat="55.8186140" lon="49.1574210"><time>2021-08-14T06:26:13</time></trkpt><trkpt lat="55.8186150" lon="49.1573920"><time>2021-08-14T06:26:14</time></trkpt><trkpt lat="55.8186110" lon="49.1573610"><time>2021-08-14T06:26:15</time></trkpt><trkpt lat="55.8186100" lon="49.1573330"><time>2021-08-14T06:26:16</time></trkpt><trkpt lat="55.8186160" lon="49.1573130"><time>2021-08-14T06:26:17</time></trkpt><trkpt lat="55.8186150" lon="49.1572820"><time>2021-08-14T06:26:18</time></trkpt><trkpt lat="55.8186180" lon="49.1572580"><time>2021-08-14T06:26:19</time></trkpt><trkpt lat="55.8186150" lon="49.1572360"><time>2021-08-14T06:26:20</time></trkpt><trkpt lat="55.8186230" lon="49.1572020"><time>2021-08-14T06:26:21</time></trkpt><trkpt lat="55.8186220" lon="49.1571690"><time>2021-08-14T06:26:22</time></trkpt><trkpt lat="55.8186230" lon="49.1571450"><time>2021-08-14T06:26:23</time></trkpt><trkpt lat="55.8186230" lon="49.1571170"><time>2021-08-14T06:26:24</time></trkpt><trkpt lat="55.8186220" lon="49.1570820"><time>2021-08-14T06:26:25</time></trkpt><trkpt lat="55.8186220" lon="49.1570600"><time>2021-08-14T06:26:26</time></trkpt><trkpt lat="55.8186230" lon="49.1570190"><time>2021-08-14T06:26:27</time></trkpt><trkpt lat="55.8186250" lon="49.1570090"><time>2021-08-14T06:26:28</time></trkpt><trkpt lat="55.8186230" lon="49.1569700"><time>2021-08-14T06:26:29</time></trkpt><trkpt lat="55.8186230" lon="49.1569350"><time>2021-08-14T06:26:30</time></trkpt><trkpt lat="55.8186230" lon="49.1569180"><time>2021-08-14T06:26:31</time></trkpt><trkpt lat="55.8186240" lon="49.1569010"><time>2021-08-14T06:26:32</time></trkpt><trkpt lat="55.8186220" lon="49.1568680"><time>2021-08-14T06:26:33</time></trkpt><trkpt lat="55.8186200" lon="49.1568480"><time>2021-08-14T06:26:34</time></trkpt><trkpt lat="55.8186200" lon="49.1568130"><time>2021-08-14T06:26:35</time></trkpt><trkpt lat="55.8186220" lon="49.1567840"><time>2021-08-14T06:26:36</time></trkpt><trkpt lat="55.8186220" lon="49.1567550"><time>2021-08-14T06:26:37</time></trkpt><trkpt lat="55.8186220" lon="49.1567270"><time>2021-08-14T06:26:38</time></trkpt><trkpt lat="55.8186230" lon="49.1566980"><time>2021-08-14T06:26:39</time></trkpt><trkpt lat="55.8186240" lon="49.1566650"><time>2021-08-14T06:26:40</time></trkpt><trkpt lat="55.8186180" lon="49.1566350"><time>2021-08-14T06:26:41</time></trkpt><trkpt lat="55.8186230" lon="49.1566050"><time>2021-08-14T06:26:42</time></trkpt><trkpt lat="55.8186250" lon="49.1565740"><time>2021-08-14T06:26:43</time></trkpt><trkpt lat="55.8186240" lon="49.1565420"><time>2021-08-14T06:26:44</time></trkpt><trkpt lat="55.8186200" lon="49.1565140"><time>2021-08-14T06:26:45</time></trkpt><trkpt lat="55.8186230" lon="49.1564840"><time>2021-08-14T06:26:46</time></trkpt><trkpt lat="55.8186230" lon="49.1564520"><time>2021-08-14T06:26:47</time></trkpt><trkpt lat="55.8186190" lon="49.1564230"><time>2021-08-14T06:26:48</time></trkpt><trkpt lat="55.8186250" lon="49.1563930"><time>2021-08-14T06:26:49</time></trkpt><trkpt lat="55.8186320" lon="49.1563690"><time>2021-08-14T06:26:50</time></trkpt><trkpt lat="55.8186320" lon="49.1563430"><time>2021-08-14T06:26:51</time></trkpt><trkpt lat="55.8186330" lon="49.1563140"><time>2021-08-14T06:26:52</time></trkpt><trkpt lat="55.8186360" lon="49.1562830"><time>2021-08-14T06:26:53</time></trkpt><trkpt lat="55.8186380" lon="49.1562580"><time>2021-08-14T06:26:54</time></trkpt><trkpt lat="55.8186400" lon="49.1562300"><time>2021-08-14T06:26:55</time></trkpt><trkpt lat="55.8186450" lon="49.1562060"><time>2021-08-14T06:26:56</time></trkpt><trkpt lat="55.8186460" lon="49.1561790"><time>2021-08-14T06:26:57</time></trkpt><trkpt lat="55.8186520" lon="49.1561530"><time>2021-08-14T06:26:58</time></trkpt><trkpt lat="55.8186540" lon="49.1561260"><time>2021-08-14T06:26:59</time></trkpt><trkpt lat="55.8186550" lon="49.1561030"><time>2021-08-14T06:27:00</time></trkpt><trkpt lat="55.8186580" lon="49.1560760"><time>2021-08-14T06:27:01</time></trkpt><trkpt lat="55.8186550" lon="49.1560520"><time>2021-08-14T06:27:02</time></trkpt><trkpt lat="55.8186630" lon="49.1560020"><time>2021-08-14T06:27:03</time></trkpt><trkpt lat="55.8186630" lon="49.1559870"><time>2021-08-14T06:27:04</time></trkpt><trkpt lat="55.8186660" lon="49.1559600"><time>2021-08-14T06:27:05</time></trkpt><trkpt lat="55.8186710" lon="49.1559340"><time>2021-08-14T06:27:06</time></trkpt><trkpt lat="55.8186750" lon="49.1558860"><time>2021-08-14T06:27:07</time></trkpt><trkpt lat="55.8186740" lon="49.1558690"><time>2021-08-14T06:27:08</time></trkpt><trkpt lat="55.8186760" lon="49.1558380"><time>2021-08-14T06:27:09</time></trkpt><trkpt lat="55.8186780" lon="49.1558070"><time>2021-08-14T06:27:10</time></trkpt><trkpt lat="55.8186800" lon="49.1557580"><time>2021-08-14T06:27:11</time></trkpt><trkpt lat="55.8186770" lon="49.1557400"><time>2021-08-14T06:27:12</time></trkpt><trkpt lat="55.8186880" lon="49.1556930"><time>2021-08-14T06:27:13</time></trkpt><trkpt lat="55.8186890" lon="49.1556780"><time>2021-08-14T06:27:14</time></trkpt><trkpt lat="55.8186940" lon="49.1556480"><time>2021-08-14T06:27:15</time></trkpt><trkpt lat="55.8186980" lon="49.1556180"><time>2021-08-14T06:27:16</time></trkpt><trkpt lat="55.8186970" lon="49.1555670"><time>2021-08-14T06:27:17</time></trkpt><trkpt lat="55.8186990" lon="49.1555500"><time>2021-08-14T06:27:18</time></trkpt><trkpt lat="55.8187010" lon="49.1555220"><time>2021-08-14T06:27:19</time></trkpt><trkpt lat="55.8187060" lon="49.1554910"><time>2021-08-14T06:27:20</time></trkpt><trkpt lat="55.8187090" lon="49.1554420"><time>2021-08-14T06:27:21</time></trkpt><trkpt lat="55.8187090" lon="49.1554260"><time>2021-08-14T06:27:22</time></trkpt><trkpt lat="55.8187140" lon="49.1553940"><time>2021-08-14T06:27:23</time></trkpt><trkpt lat="55.8187140" lon="49.1553670"><time>2021-08-14T06:27:24</time></trkpt><trkpt lat="55.8187250" lon="49.1553210"><time>2021-08-14T06:27:25</time></trkpt><trkpt lat="55.8187230" lon="49.1553030"><time>2021-08-14T06:27:26</time></trkpt><trkpt lat="55.8187250" lon="49.1552540"><time>2021-08-14T06:27:27</time></trkpt><trkpt lat="55.8187270" lon="49.1552380"><time>2021-08-14T06:27:28</time></trkpt><trkpt lat="55.8187270" lon="49.1552090"><time>2021-08-14T06:27:29</time></trkpt><trkpt lat="55.8187310" lon="49.1551770"><time>2021-08-14T06:27:30</time></trkpt><trkpt lat="55.8187300" lon="49.1551230"><time>2021-08-14T06:27:31</time></trkpt><trkpt lat="55.8187290" lon="49.1551060"><time>2021-08-14T06:27:32</time></trkpt><trkpt lat="55.8187360" lon="49.1550770"><time>2021-08-14T06:27:33</time></trkpt><trkpt lat="55.8187440" lon="49.1550530"><time>2021-08-14T06:27:34</time></trkpt><trkpt lat="55.8187440" lon="49.1550020"><time>2021-08-14T06:27:35</time></trkpt><trkpt lat="55.8187430" lon="49.1549850"><time>2021-08-14T06:27:36</time></trkpt><trkpt lat="55.8187430" lon="49.1549510"><time>2021-08-14T06:27:37</time></trkpt><trkpt lat="55.8187500" lon="49.1549230"><time>2021-08-14T06:27:38</time></trkpt><trkpt lat="55.8187550" lon="49.1548960"><time>2021-08-14T06:27:39</time></trkpt><trkpt lat="55.8187560" lon="49.1548620"><time>2021-08-14T06:27:40</time></trkpt><trkpt lat="55.8187580" lon="49.1548310"><time>2021-08-14T06:27:41</time></trkpt><trkpt lat="55.8187630" lon="49.1548010"><time>2021-08-14T06:27:42</time></trkpt><trkpt lat="55.8187720" lon="49.1547760"><time>2021-08-14T06:27:43</time></trkpt><trkpt lat="55.8187720" lon="49.1547470"><time>2021-08-14T06:27:44</time></trkpt><trkpt lat="55.8187800" lon="49.1547010"><time>2021-08-14T06:27:45</time></trkpt><trkpt lat="55.8187820" lon="49.1546830"><time>2021-08-14T06:27:46</time></trkpt><trkpt lat="55.8187850" lon="49.1546480"><time>2021-08-14T06:27:47</time></trkpt><trkpt lat="55.8187890" lon="49.1546250"><time>2021-08-14T06:27:48</time></trkpt><trkpt lat="55.8187920" lon="49.1546000"><time>2021-08-14T06:27:49</time></trkpt><trkpt lat="55.8187950" lon="49.1545730"><time>2021-08-14T06:27:50</time></trkpt><trkpt lat="55.8187970" lon="49.1545190"><time>2021-08-14T06:27:51</time></trkpt><trkpt lat="55.8187970" lon="49.1545010"><time>2021-08-14T06:27:52</time></trkpt><trkpt lat="55.8187990" lon="49.1544710"><time>2021-08-14T06:27:53</time></trkpt><trkpt lat="55.8188040" lon="49.1544460"><time>2021-08-14T06:27:54</time></trkpt><trkpt lat="55.8188100" lon="49.1544190"><time>2021-08-14T06:27:55</time></trkpt><trkpt lat="55.8188080" lon="49.1543830"><time>2021-08-14T06:27:56</time></trkpt><trkpt lat="55.8188130" lon="49.1543350"><time>2021-08-14T06:27:57</time></trkpt><trkpt lat="55.8188140" lon="49.1543190"><time>2021-08-14T06:27:58</time></trkpt><trkpt lat="55.8188180" lon="49.1542710"><time>2021-08-14T06:27:59</time></trkpt><trkpt lat="55.8188170" lon="49.1542530"><time>2021-08-14T06:28:00</time></trkpt><trkpt lat="55.8188240" lon="49.1542240"><time>2021-08-14T06:28:01</time></trkpt><trkpt lat="55.8188290" lon="49.1541940"><time>2021-08-14T06:28:02</time></trkpt><trkpt lat="55.8188330" lon="49.1541640"><time>2021-08-14T06:28:03</time></trkpt><trkpt lat="55.8188290" lon="49.1541310"><time>2021-08-14T06:28:04</time></trkpt><trkpt lat="55.8188330" lon="49.1541010"><time>2021-08-14T06:28:05</time></trkpt><trkpt lat="55.8188430" lon="49.1540790"><time>2021-08-14T06:28:06</time></trkpt><trkpt lat="55.8188410" lon="49.1540560"><time>2021-08-14T06:28:07</time></trkpt><trkpt lat="55.8188400" lon="49.1540250"><time>2021-08-14T06:28:08</time></trkpt><trkpt lat="55.8188450" lon="49.1539740"><time>2021-08-14T06:28:09</time></trkpt><trkpt lat="55.8188460" lon="49.1539580"><time>2021-08-14T06:28:10</time></trkpt><trkpt lat="55.8188540" lon="49.1539320"><time>2021-08-14T06:28:11</time></trkpt><trkpt lat="55.8188590" lon="49.1539110"><time>2021-08-14T06:28:12</time></trkpt><trkpt lat="55.8188640" lon="49.1538860"><time>2021-08-14T06:28:13</time></trkpt><trkpt lat="55.8188660" lon="49.1538560"><time>2021-08-14T06:28:14</time></trkpt><trkpt lat="55.8188680" lon="49.1538260"><time>2021-08-14T06:28:15</time></trkpt><trkpt lat="55.8188720" lon="49.1537960"><time>2021-08-14T06:28:16</time></trkpt><trkpt lat="55.8188770" lon="49.1537690"><time>2021-08-14T06:28:17</time></trkpt><trkpt lat="55.8188780" lon="49.1537360"><time>2021-08-14T06:28:18</time></trkpt><trkpt lat="55.8188840" lon="49.1536990"><time>2021-08-14T06:28:19</time></trkpt><trkpt lat="55.8188840" lon="49.1536790"><time>2021-08-14T06:28:20</time></trkpt><trkpt lat="55.8188850" lon="49.1536600"><time>2021-08-14T06:28:21</time></trkpt><trkpt lat="55.8188930" lon="49.1536140"><time>2021-08-14T06:28:22</time></trkpt><trkpt lat="55.8188950" lon="49.1535970"><time>2021-08-14T06:28:23</time></trkpt><trkpt lat="55.8189020" lon="49.1535750"><time>2021-08-14T06:28:24</time></trkpt><trkpt lat="55.8189060" lon="49.1535470"><time>2021-08-14T06:28:25</time></trkpt><trkpt lat="55.8189070" lon="49.1535270"><time>2021-08-14T06:28:26</time></trkpt><trkpt lat="55.8189100" lon="49.1534930"><time>2021-08-14T06:28:27</time></trkpt><trkpt lat="55.8189150" lon="49.1534600"><time>2021-08-14T06:28:28</time></trkpt><trkpt lat="55.8189240" lon="49.1534340"><time>2021-08-14T06:28:29</time></trkpt><trkpt lat="55.8189240" lon="49.1534060"><time>2021-08-14T06:28:30</time></trkpt><trkpt lat="55.8189290" lon="49.1533800"><time>2021-08-14T06:28:31</time></trkpt><trkpt lat="55.8189280" lon="49.1533550"><time>2021-08-14T06:28:32</time></trkpt><trkpt lat="55.8189350" lon="49.1533190"><time>2021-08-14T06:28:33</time></trkpt><trkpt lat="55.8189410" lon="49.1532910"><time>2021-08-14T06:28:34</time></trkpt><trkpt lat="55.8189430" lon="49.1532620"><time>2021-08-14T06:28:35</time></trkpt><trkpt lat="55.8189460" lon="49.1532370"><time>2021-08-14T06:28:36</time></trkpt><trkpt lat="55.8189470" lon="49.1532110"><time>2021-08-14T06:28:37</time></trkpt><trkpt lat="55.8189520" lon="49.1531850"><time>2021-08-14T06:28:38</time></trkpt><trkpt lat="55.8189550" lon="49.1531500"><time>2021-08-14T06:28:39</time></trkpt><trkpt lat="55.8189600" lon="49.1531220"><time>2021-08-14T06:28:40</time></trkpt><trkpt lat="55.8189640" lon="49.1530900"><time>2021-08-14T06:28:41</time></trkpt><trkpt lat="55.8189700" lon="49.1530640"><time>2021-08-14T06:28:42</time></trkpt><trkpt lat="55.8189750" lon="49.1530390"><time>2021-08-14T06:28:43</time></trkpt><trkpt lat="55.8189770" lon="49.1529840"><time>2021-08-14T06:28:44</time></trkpt><trkpt lat="55.8189760" lon="49.1529680"><time>2021-08-14T06:28:45</time></trkpt><trkpt lat="55.8189710" lon="49.1529170"><time>2021-08-14T06:28:46</time></trkpt><trkpt lat="55.8189730" lon="49.1529010"><time>2021-08-14T06:28:47</time></trkpt><trkpt lat="55.8189760" lon="49.1528680"><time>2021-08-14T06:28:48</time></trkpt><trkpt lat="55.8189770" lon="49.1528390"><time>2021-08-14T06:28:49</time></trkpt><trkpt lat="55.8189830" lon="49.1528080"><time>2021-08-14T06:28:50</time></trkpt><trkpt lat="55.8189870" lon="49.1527870"><time>2021-08-14T06:28:51</time></trkpt><trkpt lat="55.8189870" lon="49.1527580"><time>2021-08-14T06:28:52</time></trkpt><trkpt lat="55.8189930" lon="49.1527330"><time>2021-08-14T06:28:53</time></trkpt><trkpt lat="55.8190080" lon="49.1527050"><time>2021-08-14T06:28:54</time></trkpt><trkpt lat="55.8190150" lon="49.1526870"><time>2021-08-14T06:28:55</time></trkpt><trkpt lat="55.8190130" lon="49.1526360"><time>2021-08-14T06:28:56</time></trkpt><trkpt lat="55.8190130" lon="49.1526200"><time>2021-08-14T06:28:57</time></trkpt><trkpt lat="55.8190190" lon="49.1525970"><time>2021-08-14T06:28:58</time></trkpt><trkpt lat="55.8190290" lon="49.1525720"><time>2021-08-14T06:28:59</time></trkpt><trkpt lat="55.8190320" lon="49.1525430"><time>2021-08-14T06:29:00</time></trkpt><trkpt lat="55.8190330" lon="49.1525140"><time>2021-08-14T06:29:01</time></trkpt><trkpt lat="55.8190320" lon="49.1524810"><time>2021-08-14T06:29:02</time></trkpt><trkpt lat="55.8190380" lon="49.1524510"><time>2021-08-14T06:29:03</time></trkpt><trkpt lat="55.8190370" lon="49.1524180"><time>2021-08-14T06:29:04</time></trkpt><trkpt lat="55.8190370" lon="49.1523870"><time>2021-08-14T06:29:05</time></trkpt><trkpt lat="55.8190320" lon="49.1523370"><time>2021-08-14T06:29:06</time></trkpt><trkpt lat="55.8190290" lon="49.1523200"><time>2021-08-14T06:29:07</time></trkpt><trkpt lat="55.8190270" lon="49.1522680"><time>2021-08-14T06:29:08</time></trkpt><trkpt lat="55.8190270" lon="49.1522520"><time>2021-08-14T06:29:09</time></trkpt><trkpt lat="55.8190290" lon="49.1522240"><time>2021-08-14T06:29:10</time></trkpt><trkpt lat="55.8190210" lon="49.1521960"><time>2021-08-14T06:29:11</time></trkpt><trkpt lat="55.8190120" lon="49.1521500"><time>2021-08-14T06:29:12</time></trkpt><trkpt lat="55.8190070" lon="49.1521360"><time>2021-08-14T06:29:13</time></trkpt><trkpt lat="55.8190050" lon="49.1520870"><time>2021-08-14T06:29:14</time></trkpt><trkpt lat="55.8190050" lon="49.1520710"><time>2021-08-14T06:29:15</time></trkpt><trkpt lat="55.8190040" lon="49.1520410"><time>2021-08-14T06:29:16</time></trkpt><trkpt lat="55.8190000" lon="49.1520070"><time>2021-08-14T06:29:17</time></trkpt><trkpt lat="55.8189890" lon="49.1519780"><time>2021-08-14T06:29:18</time></trkpt><trkpt lat="55.8189860" lon="49.1519480"><time>2021-08-14T06:29:19</time></trkpt><trkpt lat="55.8189830" lon="49.1519000"><time>2021-08-14T06:29:20</time></trkpt><trkpt lat="55.8189790" lon="49.1518820"><time>2021-08-14T06:29:21</time></trkpt><trkpt lat="55.8189670" lon="49.1518340"><time>2021-08-14T06:29:22</time></trkpt><trkpt lat="55.8189630" lon="49.1518210"><time>2021-08-14T06:29:23</time></trkpt><trkpt lat="55.8189560" lon="49.1517740"><time>2021-08-14T06:29:24</time></trkpt><trkpt lat="55.8189580" lon="49.1517560"><time>2021-08-14T06:29:25</time></trkpt><trkpt lat="55.8189590" lon="49.1517230"><time>2021-08-14T06:29:26</time></trkpt><trkpt lat="55.8189500" lon="49.1516960"><time>2021-08-14T06:29:27</time></trkpt><trkpt lat="55.8189420" lon="49.1516720"><time>2021-08-14T06:29:28</time></trkpt><trkpt lat="55.8189370" lon="49.1516370"><time>2021-08-14T06:29:29</time></trkpt><trkpt lat="55.8189340" lon="49.1516060"><time>2021-08-14T06:29:30</time></trkpt><trkpt lat="55.8189260" lon="49.1515800"><time>2021-08-14T06:29:31</time></trkpt><trkpt lat="55.8189050" lon="49.1515400"><time>2021-08-14T06:29:32</time></trkpt><trkpt lat="55.8188950" lon="49.1515310"><time>2021-08-14T06:29:33</time></trkpt><trkpt lat="55.8188750" lon="49.1514970"><time>2021-08-14T06:29:34</time></trkpt><trkpt lat="55.8188700" lon="49.1514810"><time>2021-08-14T06:29:35</time></trkpt><trkpt lat="55.8188540" lon="49.1514420"><time>2021-08-14T06:29:36</time></trkpt><trkpt lat="55.8188490" lon="49.1514280"><time>2021-08-14T06:29:37</time></trkpt><trkpt lat="55.8188250" lon="49.1513960"><time>2021-08-14T06:29:38</time></trkpt><trkpt lat="55.8188180" lon="49.1513840"><time>2021-08-14T06:29:39</time></trkpt><trkpt lat="55.8188020" lon="49.1513430"><time>2021-08-14T06:29:40</time></trkpt><trkpt lat="55.8187970" lon="49.1513310"><time>2021-08-14T06:29:41</time></trkpt><trkpt lat="55.8187870" lon="49.1513050"><time>2021-08-14T06:29:42</time></trkpt><trkpt lat="55.8187710" lon="49.1512870"><time>2021-08-14T06:29:43</time></trkpt><trkpt lat="55.8187450" lon="49.1512600"><time>2021-08-14T06:29:44</time></trkpt><trkpt lat="55.8187360" lon="49.1512490"><time>2021-08-14T06:29:45</time></trkpt><trkpt lat="55.8187180" lon="49.1512070"><time>2021-08-14T06:29:46</time></trkpt><trkpt lat="55.8187120" lon="49.1511960"><time>2021-08-14T06:29:47</time></trkpt><trkpt lat="55.8186910" lon="49.1511700"><time>2021-08-14T06:29:48</time></trkpt><trkpt lat="55.8186810" lon="49.1511630"><time>2021-08-14T06:29:49</time></trkpt><trkpt lat="55.8186630" lon="49.1511250"><time>2021-08-14T06:29:50</time></trkpt><trkpt lat="55.8186580" lon="49.1511100"><time>2021-08-14T06:29:51</time></trkpt><trkpt lat="55.8186500" lon="49.1510820"><time>2021-08-14T06:29:52</time></trkpt><trkpt lat="55.8186380" lon="49.1510590"><time>2021-08-14T06:29:53</time></trkpt><trkpt lat="55.8186260" lon="49.1510390"><time>2021-08-14T06:29:54</time></trkpt><trkpt lat="55.8186110" lon="49.1510280"><time>2021-08-14T06:29:55</time></trkpt><trkpt lat="55.8185940" lon="49.1509810"><time>2021-08-14T06:29:56</time></trkpt><trkpt lat="55.8185900" lon="49.1509710"><time>2021-08-14T06:29:57</time></trkpt><trkpt lat="55.8185810" lon="49.1509500"><time>2021-08-14T06:29:58</time></trkpt><trkpt lat="55.8185650" lon="49.1509290"><time>2021-08-14T06:29:59</time></trkpt><trkpt lat="55.8185540" lon="49.1509090"><time>2021-08-14T06:30:00</time></trkpt><trkpt lat="55.8185410" lon="49.1508920"><time>2021-08-14T06:30:01</time></trkpt><trkpt lat="55.8185260" lon="49.1508840"><time>2021-08-14T06:30:02</time></trkpt><trkpt lat="55.8185120" lon="49.1508800"><time>2021-08-14T06:30:03</time></trkpt><trkpt lat="55.8184990" lon="49.1508870"><time>2021-08-14T06:30:04</time></trkpt><trkpt lat="55.8184880" lon="49.1508840"><time>2021-08-14T06:30:05</time></trkpt><trkpt lat="55.8184770" lon="49.1508890"><time>2021-08-14T06:30:06</time></trkpt><trkpt lat="55.8184740" lon="49.1508960"><time>2021-08-14T06:30:07</time></trkpt><trkpt lat="55.8184810" lon="49.1508970"><time>2021-08-14T06:30:08</time></trkpt><trkpt lat="55.8184800" lon="49.1509010"><time>2021-08-14T06:30:09</time></trkpt><trkpt lat="55.8184790" lon="49.1509050"><time>2021-08-14T06:30:10</time></trkpt><trkpt lat="55.8184790" lon="49.1508980"><time>2021-08-14T06:30:11</time></trkpt><trkpt lat="55.8184770" lon="49.1508770"><time>2021-08-14T06:30:12</time></trkpt><trkpt lat="55.8184780" lon="49.1508610"><time>2021-08-14T06:30:13</time></trkpt><trkpt lat="55.8184850" lon="49.1508550"><time>2021-08-14T06:30:14</time></trkpt><trkpt lat="55.8184990" lon="49.1508620"><time>2021-08-14T06:30:15</time></trkpt><trkpt lat="55.8185040" lon="49.1508690"><time>2021-08-14T06:30:16</time></trkpt><trkpt lat="55.8185000" lon="49.1508720"><time>2021-08-14T06:30:17</time></trkpt><trkpt lat="55.8185000" lon="49.1508700"><time>2021-08-14T06:30:18</time></trkpt><trkpt lat="55.8184990" lon="49.1508690"><time>2021-08-14T06:30:19</time></trkpt><trkpt lat="55.8184980" lon="49.1508670"><time>2021-08-14T06:30:20</time></trkpt><trkpt lat="55.8184980" lon="49.1508660"><time>2021-08-14T06:30:21</time></trkpt><trkpt lat="55.8184970" lon="49.1508640"><time>2021-08-14T06:30:22</time></trkpt><trkpt lat="55.8184960" lon="49.1508630"><time>2021-08-14T06:30:23</time></trkpt><trkpt lat="55.8184960" lon="49.1508610"><time>2021-08-14T06:30:24</time></trkpt><trkpt lat="55.8184950" lon="49.1508600"><time>2021-08-14T06:30:25</time></trkpt><trkpt lat="55.8184940" lon="49.1508580"><time>2021-08-14T06:30:26</time></trkpt><trkpt lat="55.8184940" lon="49.1508570"><time>2021-08-14T06:30:27</time></trkpt><trkpt lat="55.8184930" lon="49.1508550"><time>2021-08-14T06:30:28</time></trkpt><trkpt lat="55.8184920" lon="49.1508540"><time>2021-08-14T06:30:29</time></trkpt><trkpt lat="55.8184920" lon="49.1508520"><time>2021-08-14T06:30:30</time></trkpt><trkpt lat="55.8184910" lon="49.1508510"><time>2021-08-14T06:30:31</time></trkpt><trkpt lat="55.8184900" lon="49.1508490"><time>2021-08-14T06:30:32</time></trkpt><trkpt lat="55.8184900" lon="49.1508480"><time>2021-08-14T06:30:33</time></trkpt><trkpt lat="55.8184890" lon="49.1508460"><time>2021-08-14T06:30:34</time></trkpt><trkpt lat="55.8184880" lon="49.1508450"><time>2021-08-14T06:30:35</time></trkpt><trkpt lat="55.8184880" lon="49.1508430"><time>2021-08-14T06:30:36</time></trkpt><trkpt lat="55.8184870" lon="49.1508420"><time>2021-08-14T06:30:37</time></trkpt><trkpt lat="55.8184870" lon="49.1508400"><time>2021-08-14T06:30:38</time></trkpt><trkpt lat="55.8184860" lon="49.1508390"><time>2021-08-14T06:30:39</time></trkpt><trkpt lat="55.8184850" lon="49.1508370"><time>2021-08-14T06:30:40</time></trkpt><trkpt lat="55.8184850" lon="49.1508360"><time>2021-08-14T06:30:41</time></trkpt><trkpt lat="55.8184840" lon="49.1508340"><time>2021-08-14T06:30:42</time></trkpt><trkpt lat="55.8184830" lon="49.1508330"><time>2021-08-14T06:30:43</time></trkpt><trkpt lat="55.8184830" lon="49.1508310"><time>2021-08-14T06:30:44</time></trkpt><trkpt lat="55.8184820" lon="49.1508300"><time>2021-08-14T06:30:45</time></trkpt><trkpt lat="55.8184810" lon="49.1508280"><time>2021-08-14T06:30:46</time></trkpt><trkpt lat="55.8184810" lon="49.1508270"><time>2021-08-14T06:30:47</time></trkpt><trkpt lat="55.8184800" lon="49.1508250"><time>2021-08-14T06:30:48</time></trkpt><trkpt lat="55.8184790" lon="49.1508240"><time>2021-08-14T06:30:49</time></trkpt><trkpt lat="55.8184790" lon="49.1508220"><time>2021-08-14T06:30:50</time></trkpt><trkpt lat="55.8184780" lon="49.1508210"><time>2021-08-14T06:30:51</time></trkpt><trkpt lat="55.8184770" lon="49.1508190"><time>2021-08-14T06:30:52</time></trkpt><trkpt lat="55.8184770" lon="49.1508180"><time>2021-08-14T06:30:53</time></trkpt><trkpt lat="55.8184760" lon="49.1508160"><time>2021-08-14T06:30:54</time></trkpt><trkpt lat="55.8184750" lon="49.1508150"><time>2021-08-14T06:30:55</time></trkpt><trkpt lat="55.8184750" lon="49.1508130"><time>2021-08-14T06:30:56</time></trkpt><trkpt lat="55.8184740" lon="49.1508120"><time>2021-08-14T06:30:57</time></trkpt><trkpt lat="55.8184590" lon="49.1507840"><time>2021-08-14T06:30:58</time></trkpt><trkpt lat="55.8184550" lon="49.1507680"><time>2021-08-14T06:30:59</time></trkpt><trkpt lat="55.8184490" lon="49.1507510"><time>2021-08-14T06:31:00</time></trkpt><trkpt lat="55.8184410" lon="49.1507340"><time>2021-08-14T06:31:01</time></trkpt><trkpt lat="55.8184320" lon="49.1507170"><time>2021-08-14T06:31:02</time></trkpt><trkpt lat="55.8184210" lon="49.1507010"><time>2021-08-14T06:31:03</time></trkpt><trkpt lat="55.8184080" lon="49.1506710"><time>2021-08-14T06:31:04</time></trkpt><trkpt lat="55.8183840" lon="49.1506300"><time>2021-08-14T06:31:05</time></trkpt><trkpt lat="55.8183750" lon="49.1506180"><time>2021-08-14T06:31:06</time></trkpt><trkpt lat="55.8183610" lon="49.1505960"><time>2021-08-14T06:31:07</time></trkpt><trkpt lat="55.8183510" lon="49.1505740"><time>2021-08-14T06:31:08</time></trkpt><trkpt lat="55.8183400" lon="49.1505430"><time>2021-08-14T06:31:09</time></trkpt><trkpt lat="55.8183350" lon="49.1505300"><time>2021-08-14T06:31:10</time></trkpt><trkpt lat="55.8183310" lon="49.1505170"><time>2021-08-14T06:31:11</time></trkpt><trkpt lat="55.8183120" lon="49.1504830"><time>2021-08-14T06:31:12</time></trkpt><trkpt lat="55.8183020" lon="49.1504740"><time>2021-08-14T06:31:13</time></trkpt><trkpt lat="55.8182960" lon="49.1504460"><time>2021-08-14T06:31:14</time></trkpt><trkpt lat="55.8182910" lon="49.1504280"><time>2021-08-14T06:31:15</time></trkpt><trkpt lat="55.8182850" lon="49.1504110"><time>2021-08-14T06:31:16</time></trkpt><trkpt lat="55.8182690" lon="49.1503740"><time>2021-08-14T06:31:17</time></trkpt><trkpt lat="55.8182600" lon="49.1503600"><time>2021-08-14T06:31:18</time></trkpt><trkpt lat="55.8182490" lon="49.1503400"><time>2021-08-14T06:31:19</time></trkpt><trkpt lat="55.8182410" lon="49.1503250"><time>2021-08-14T06:31:20</time></trkpt><trkpt lat="55.8182330" lon="49.1503090"><time>2021-08-14T06:31:21</time></trkpt><trkpt lat="55.8182170" lon="49.1502820"><time>2021-08-14T06:31:22</time></trkpt><trkpt lat="55.8182140" lon="49.1502710"><time>2021-08-14T06:31:23</time></trkpt><trkpt lat="55.8182010" lon="49.1502520"><time>2021-08-14T06:31:24</time></trkpt><trkpt lat="55.8181900" lon="49.1502290"><time>2021-08-14T06:31:25</time></trkpt><trkpt lat="55.8181790" lon="49.1502030"><time>2021-08-14T06:31:26</time></trkpt><trkpt lat="55.8181660" lon="49.1501800"><time>2021-08-14T06:31:27</time></trkpt><trkpt lat="55.8181470" lon="49.1501470"><time>2021-08-14T06:31:28</time></trkpt><trkpt lat="55.8181390" lon="49.1501310"><time>2021-08-14T06:31:29</time></trkpt><trkpt lat="55.8181290" lon="49.1501120"><time>2021-08-14T06:31:30</time></trkpt><trkpt lat="55.8181170" lon="49.1500860"><time>2021-08-14T06:31:31</time></trkpt><trkpt lat="55.8180990" lon="49.1500530"><time>2021-08-14T06:31:32</time></trkpt><trkpt lat="55.8180910" lon="49.1500420"><time>2021-08-14T06:31:33</time></trkpt><trkpt lat="55.8180780" lon="49.1500180"><time>2021-08-14T06:31:34</time></trkpt><trkpt lat="55.8180700" lon="49.1499910"><time>2021-08-14T06:31:35</time></trkpt><trkpt lat="55.8180560" lon="49.1499700"><time>2021-08-14T06:31:36</time></trkpt><trkpt lat="55.8180400" lon="49.1499570"><time>2021-08-14T06:31:37</time></trkpt><trkpt lat="55.8180250" lon="49.1499390"><time>2021-08-14T06:31:38</time></trkpt><trkpt lat="55.8180130" lon="49.1499220"><time>2021-08-14T06:31:39</time></trkpt><trkpt lat="55.8179920" lon="49.1498940"><time>2021-08-14T06:31:40</time></trkpt><trkpt lat="55.8179810" lon="49.1498860"><time>2021-08-14T06:31:41</time></trkpt><trkpt lat="55.8179700" lon="49.1498680"><time>2021-08-14T06:31:42</time></trkpt><trkpt lat="55.8179550" lon="49.1498450"><time>2021-08-14T06:31:43</time></trkpt><trkpt lat="55.8179460" lon="49.1498210"><time>2021-08-14T06:31:44</time></trkpt><trkpt lat="55.8179370" lon="49.1497980"><time>2021-08-14T06:31:45</time></trkpt><trkpt lat="55.8179240" lon="49.1497770"><time>2021-08-14T06:31:46</time></trkpt><trkpt lat="55.8179100" lon="49.1497600"><time>2021-08-14T06:31:47</time></trkpt><trkpt lat="55.8178980" lon="49.1497490"><time>2021-08-14T06:31:48</time></trkpt><trkpt lat="55.8178810" lon="49.1497280"><time>2021-08-14T06:31:49</time></trkpt><trkpt lat="55.8178610" lon="49.1496930"><time>2021-08-14T06:31:50</time></trkpt><trkpt lat="55.8178570" lon="49.1496820"><time>2021-08-14T06:31:51</time></trkpt><trkpt lat="55.8178540" lon="49.1496720"><time>2021-08-14T06:31:52</time></trkpt><trkpt lat="55.8178430" lon="49.1496490"><time>2021-08-14T06:31:53</time></trkpt><trkpt lat="55.8178330" lon="49.1496350"><time>2021-08-14T06:31:54</time></trkpt><trkpt lat="55.8178200" lon="49.1496170"><time>2021-08-14T06:31:55</time></trkpt><trkpt lat="55.8178130" lon="49.1496020"><time>2021-08-14T06:31:56</time></trkpt><trkpt lat="55.8178010" lon="49.1495810"><time>2021-08-14T06:31:57</time></trkpt><trkpt lat="55.8177890" lon="49.1495620"><time>2021-08-14T06:31:58</time></trkpt><trkpt lat="55.8177770" lon="49.1495400"><time>2021-08-14T06:31:59</time></trkpt><trkpt lat="55.8177690" lon="49.1495170"><time>2021-08-14T06:32:00</time></trkpt><trkpt lat="55.8177550" lon="49.1494980"><time>2021-08-14T06:32:01</time></trkpt><trkpt lat="55.8177450" lon="49.1494850"><time>2021-08-14T06:32:02</time></trkpt><trkpt lat="55.8177310" lon="49.1494580"><time>2021-08-14T06:32:03</time></trkpt><trkpt lat="55.8177250" lon="49.1494470"><time>2021-08-14T06:32:04</time></trkpt><trkpt lat="55.8177190" lon="49.1494350"><time>2021-08-14T06:32:05</time></trkpt><trkpt lat="55.8177040" lon="49.1493960"><time>2021-08-14T06:32:06</time></trkpt><trkpt lat="55.8176980" lon="49.1493830"><time>2021-08-14T06:32:07</time></trkpt><trkpt lat="55.8176920" lon="49.1493700"><time>2021-08-14T06:32:08</time></trkpt><trkpt lat="55.8176760" lon="49.1493480"><time>2021-08-14T06:32:09</time></trkpt><trkpt lat="55.8176650" lon="49.1493300"><time>2021-08-14T06:32:10</time></trkpt><trkpt lat="55.8176520" lon="49.1493050"><time>2021-08-14T06:32:11</time></trkpt><trkpt lat="55.8176450" lon="49.1492940"><time>2021-08-14T06:32:12</time></trkpt><trkpt lat="55.8176340" lon="49.1492720"><time>2021-08-14T06:32:13</time></trkpt><trkpt lat="55.8176220" lon="49.1492500"><time>2021-08-14T06:32:14</time></trkpt><trkpt lat="55.8175980" lon="49.1492200"><time>2021-08-14T06:32:15</time></trkpt><trkpt lat="55.8175890" lon="49.1492090"><time>2021-08-14T06:32:16</time></trkpt><trkpt lat="55.8175730" lon="49.1491880"><time>2021-08-14T06:32:17</time></trkpt><trkpt lat="55.8175660" lon="49.1491770"><time>2021-08-14T06:32:18</time></trkpt><trkpt lat="55.8175600" lon="49.1491660"><time>2021-08-14T06:32:19</time></trkpt><trkpt lat="55.8175500" lon="49.1491480"><time>2021-08-14T06:32:20</time></trkpt><trkpt lat="55.8175340" lon="49.1491250"><time>2021-08-14T06:32:21</time></trkpt><trkpt lat="55.8175150" lon="49.1491040"><time>2021-08-14T06:32:22</time></trkpt><trkpt lat="55.8175110" lon="49.1490890"><time>2021-08-14T06:32:23</time></trkpt><trkpt lat="55.8174940" lon="49.1490690"><time>2021-08-14T06:32:24</time></trkpt><trkpt lat="55.8174880" lon="49.1490430"><time>2021-08-14T06:32:25</time></trkpt><trkpt lat="55.8174720" lon="49.1490190"><time>2021-08-14T06:32:26</time></trkpt><trkpt lat="55.8174680" lon="49.1490010"><time>2021-08-14T06:32:27</time></trkpt><trkpt lat="55.8174570" lon="49.1489770"><time>2021-08-14T06:32:28</time></trkpt><trkpt lat="55.8174480" lon="49.1489590"><time>2021-08-14T06:32:29</time></trkpt><trkpt lat="55.8174410" lon="49.1489450"><time>2021-08-14T06:32:30</time></trkpt><trkpt lat="55.8174280" lon="49.1489240"><time>2021-08-14T06:32:31</time></trkpt><trkpt lat="55.8174080" lon="49.1488900"><time>2021-08-14T06:32:32</time></trkpt><trkpt lat="55.8174010" lon="49.1488780"><time>2021-08-14T06:32:33</time></trkpt><trkpt lat="55.8173920" lon="49.1488630"><time>2021-08-14T06:32:34</time></trkpt><trkpt lat="55.8173750" lon="49.1488390"><time>2021-08-14T06:32:35</time></trkpt><trkpt lat="55.8173570" lon="49.1488040"><time>2021-08-14T06:32:36</time></trkpt><trkpt lat="55.8173510" lon="49.1487930"><time>2021-08-14T06:32:37</time></trkpt><trkpt lat="55.8173450" lon="49.1487810"><time>2021-08-14T06:32:38</time></trkpt><trkpt lat="55.8173290" lon="49.1487540"><time>2021-08-14T06:32:39</time></trkpt><trkpt lat="55.8173230" lon="49.1487430"><time>2021-08-14T06:32:40</time></trkpt><trkpt lat="55.8173010" lon="49.1487090"><time>2021-08-14T06:32:41</time></trkpt><trkpt lat="55.8172930" lon="49.1486980"><time>2021-08-14T06:32:42</time></trkpt><trkpt lat="55.8172870" lon="49.1486850"><time>2021-08-14T06:32:43</time></trkpt><trkpt lat="55.8172760" lon="49.1486690"><time>2021-08-14T06:32:44</time></trkpt><trkpt lat="55.8172710" lon="49.1486490"><time>2021-08-14T06:32:45</time></trkpt><trkpt lat="55.8172600" lon="49.1486270"><time>2021-08-14T06:32:46</time></trkpt><trkpt lat="55.8172450" lon="49.1486070"><time>2021-08-14T06:32:47</time></trkpt><trkpt lat="55.8172230" lon="49.1485780"><time>2021-08-14T06:32:48</time></trkpt><trkpt lat="55.8172140" lon="49.1485680"><time>2021-08-14T06:32:49</time></trkpt><trkpt lat="55.8172020" lon="49.1485530"><time>2021-08-14T06:32:50</time></trkpt><trkpt lat="55.8171910" lon="49.1485390"><time>2021-08-14T06:32:51</time></trkpt><trkpt lat="55.8171790" lon="49.1485190"><time>2021-08-14T06:32:52</time></trkpt><trkpt lat="55.8171670" lon="49.1485040"><time>2021-08-14T06:32:53</time></trkpt><trkpt lat="55.8171530" lon="49.1484710"><time>2021-08-14T06:32:54</time></trkpt><trkpt lat="55.8171470" lon="49.1484580"><time>2021-08-14T06:32:55</time></trkpt><trkpt lat="55.8171400" lon="49.1484440"><time>2021-08-14T06:32:56</time></trkpt><trkpt lat="55.8171130" lon="49.1484090"><time>2021-08-14T06:32:57</time></trkpt><trkpt lat="55.8171060" lon="49.1483990"><time>2021-08-14T06:32:58</time></trkpt><trkpt lat="55.8170890" lon="49.1483650"><time>2021-08-14T06:32:59</time></trkpt><trkpt lat="55.8170860" lon="49.1483530"><time>2021-08-14T06:33:00</time></trkpt><trkpt lat="55.8170820" lon="49.1483400"><time>2021-08-14T06:33:01</time></trkpt><trkpt lat="55.8170720" lon="49.1483200"><time>2021-08-14T06:33:02</time></trkpt><trkpt lat="55.8170590" lon="49.1483070"><time>2021-08-14T06:33:03</time></trkpt><trkpt lat="55.8170390" lon="49.1482820"><time>2021-08-14T06:33:04</time></trkpt><trkpt lat="55.8170380" lon="49.1482690"><time>2021-08-14T06:33:05</time></trkpt><trkpt lat="55.8170230" lon="49.1482560"><time>2021-08-14T06:33:06</time></trkpt><trkpt lat="55.8170110" lon="49.1482340"><time>2021-08-14T06:33:07</time></trkpt><trkpt lat="55.8170030" lon="49.1482190"><time>2021-08-14T06:33:08</time></trkpt><trkpt lat="55.8169920" lon="49.1481930"><time>2021-08-14T06:33:09</time></trkpt><trkpt lat="55.8169680" lon="49.1481610"><time>2021-08-14T06:33:10</time></trkpt><trkpt lat="55.8169610" lon="49.1481520"><time>2021-08-14T06:33:11</time></trkpt><trkpt lat="55.8169460" lon="49.1481240"><time>2021-08-14T06:33:12</time></trkpt><trkpt lat="55.8169390" lon="49.1481140"><time>2021-08-14T06:33:13</time></trkpt><trkpt lat="55.8169330" lon="49.1481030"><time>2021-08-14T06:33:14</time></trkpt><trkpt lat="55.8169160" lon="49.1480810"><time>2021-08-14T06:33:15</time></trkpt><trkpt lat="55.8169050" lon="49.1480700"><time>2021-08-14T06:33:16</time></trkpt><trkpt lat="55.8168870" lon="49.1480500"><time>2021-08-14T06:33:17</time></trkpt><trkpt lat="55.8168810" lon="49.1480270"><time>2021-08-14T06:33:18</time></trkpt><trkpt lat="55.8168720" lon="49.1480130"><time>2021-08-14T06:33:19</time></trkpt><trkpt lat="55.8168680" lon="49.1479980"><time>2021-08-14T06:33:20</time></trkpt><trkpt lat="55.8168560" lon="49.1479820"><time>2021-08-14T06:33:21</time></trkpt><trkpt lat="55.8168460" lon="49.1479770"><time>2021-08-14T06:33:22</time></trkpt><trkpt lat="55.8168440" lon="49.1479710"><time>2021-08-14T06:33:23</time></trkpt><trkpt lat="55.8168350" lon="49.1479610"><time>2021-08-14T06:33:24</time></trkpt><trkpt lat="55.8168300" lon="49.1479450"><time>2021-08-14T06:33:25</time></trkpt><trkpt lat="55.8168170" lon="49.1479250"><time>2021-08-14T06:33:26</time></trkpt><trkpt lat="55.8168020" lon="49.1479130"><time>2021-08-14T06:33:27</time></trkpt><trkpt lat="55.8167920" lon="49.1478890"><time>2021-08-14T06:33:28</time></trkpt><trkpt lat="55.8167770" lon="49.1478730"><time>2021-08-14T06:33:29</time></trkpt><trkpt lat="55.8167540" lon="49.1478490"><time>2021-08-14T06:33:30</time></trkpt><trkpt lat="55.8167440" lon="49.1478420"><time>2021-08-14T06:33:31</time></trkpt><trkpt lat="55.8167260" lon="49.1478430"><time>2021-08-14T06:33:32</time></trkpt><trkpt lat="55.8167100" lon="49.1478400"><time>2021-08-14T06:33:33</time></trkpt><trkpt lat="55.8166930" lon="49.1478290"><time>2021-08-14T06:33:34</time></trkpt><trkpt lat="55.8166880" lon="49.1478100"><time>2021-08-14T06:33:35</time></trkpt><trkpt lat="55.8166700" lon="49.1477700"><time>2021-08-14T06:33:36</time></trkpt><trkpt lat="55.8166610" lon="49.1477590"><time>2021-08-14T06:33:37</time></trkpt><trkpt lat="55.8166460" lon="49.1477440"><time>2021-08-14T06:33:38</time></trkpt><trkpt lat="55.8166370" lon="49.1477210"><time>2021-08-14T06:33:39</time></trkpt><trkpt lat="55.8166270" lon="49.1477010"><time>2021-08-14T06:33:40</time></trkpt><trkpt lat="55.8166160" lon="49.1476810"><time>2021-08-14T06:33:41</time></trkpt><trkpt lat="55.8166160" lon="49.1476540"><time>2021-08-14T06:33:42</time></trkpt><trkpt lat="55.8165980" lon="49.1476360"><time>2021-08-14T06:33:43</time></trkpt><trkpt lat="55.8165760" lon="49.1476020"><time>2021-08-14T06:33:44</time></trkpt><trkpt lat="55.8165660" lon="49.1475940"><time>2021-08-14T06:33:45</time></trkpt><trkpt lat="55.8165500" lon="49.1475760"><time>2021-08-14T06:33:46</time></trkpt><trkpt lat="55.8165390" lon="49.1475520"><time>2021-08-14T06:33:47</time></trkpt><trkpt lat="55.8165240" lon="49.1475300"><time>2021-08-14T06:33:48</time></trkpt><trkpt lat="55.8165170" lon="49.1475040"><time>2021-08-14T06:33:49</time></trkpt><trkpt lat="55.8165090" lon="49.1474750"><time>2021-08-14T06:33:50</time></trkpt><trkpt lat="55.8164970" lon="49.1474650"><time>2021-08-14T06:33:51</time></trkpt><trkpt lat="55.8164880" lon="49.1474440"><time>2021-08-14T06:33:52</time></trkpt><trkpt lat="55.8164770" lon="49.1474270"><time>2021-08-14T06:33:53</time></trkpt><trkpt lat="55.8164570" lon="49.1473740"><time>2021-08-14T06:33:54</time></trkpt><trkpt lat="55.8164330" lon="49.1473440"><time>2021-08-14T06:33:55</time></trkpt><trkpt lat="55.8164230" lon="49.1473230"><time>2021-08-14T06:33:56</time></trkpt><trkpt lat="55.8164120" lon="49.1472980"><time>2021-08-14T06:33:57</time></trkpt><trkpt lat="55.8164020" lon="49.1472710"><time>2021-08-14T06:33:58</time></trkpt><trkpt lat="55.8163820" lon="49.1472730"><time>2021-08-14T06:33:59</time></trkpt><trkpt lat="55.8163560" lon="49.1472440"><time>2021-08-14T06:34:00</time></trkpt><trkpt lat="55.8163410" lon="49.1472270"><time>2021-08-14T06:34:01</time></trkpt><trkpt lat="55.8163180" lon="49.1472010"><time>2021-08-14T06:34:02</time></trkpt><trkpt lat="55.8163080" lon="49.1471940"><time>2021-08-14T06:34:03</time></trkpt><trkpt lat="55.8162880" lon="49.1471860"><time>2021-08-14T06:34:04</time></trkpt><trkpt lat="55.8162810" lon="49.1471510"><time>2021-08-14T06:34:05</time></trkpt><trkpt lat="55.8162520" lon="49.1471170"><time>2021-08-14T06:34:06</time></trkpt><trkpt lat="55.8162440" lon="49.1471080"><time>2021-08-14T06:34:07</time></trkpt><trkpt lat="55.8162260" lon="49.1470840"><time>2021-08-14T06:34:08</time></trkpt><trkpt lat="55.8162200" lon="49.1470740"><time>2021-08-14T06:34:09</time></trkpt><trkpt lat="55.8162130" lon="49.1470650"><time>2021-08-14T06:34:10</time></trkpt><trkpt lat="55.8162040" lon="49.1470390"><time>2021-08-14T06:34:11</time></trkpt><trkpt lat="55.8161910" lon="49.1470160"><time>2021-08-14T06:34:12</time></trkpt><trkpt lat="55.8161790" lon="49.1470000"><time>2021-08-14T06:34:13</time></trkpt><trkpt lat="55.8161640" lon="49.1469890"><time>2021-08-14T06:34:14</time></trkpt><trkpt lat="55.8161420" lon="49.1469550"><time>2021-08-14T06:34:15</time></trkpt><trkpt lat="55.8161330" lon="49.1469440"><time>2021-08-14T06:34:16</time></trkpt><trkpt lat="55.8161210" lon="49.1469210"><time>2021-08-14T06:34:17</time></trkpt><trkpt lat="55.8161080" lon="49.1469040"><time>2021-08-14T06:34:18</time></trkpt><trkpt lat="55.8160960" lon="49.1468660"><time>2021-08-14T06:34:19</time></trkpt><trkpt lat="55.8160900" lon="49.1468460"><time>2021-08-14T06:34:20</time></trkpt><trkpt lat="55.8160850" lon="49.1468270"><time>2021-08-14T06:34:21</time></trkpt><trkpt lat="55.8160720" lon="49.1468050"><time>2021-08-14T06:34:22</time></trkpt><trkpt lat="55.8160620" lon="49.1467860"><time>2021-08-14T06:34:23</time></trkpt><trkpt lat="55.8160450" lon="49.1467600"><time>2021-08-14T06:34:24</time></trkpt><trkpt lat="55.8160360" lon="49.1467500"><time>2021-08-14T06:34:25</time></trkpt><trkpt lat="55.8160280" lon="49.1467400"><time>2021-08-14T06:34:26</time></trkpt><trkpt lat="55.8160070" lon="49.1466990"><time>2021-08-14T06:34:27</time></trkpt><trkpt lat="55.8159990" lon="49.1466890"><time>2021-08-14T06:34:28</time></trkpt><trkpt lat="55.8159860" lon="49.1466640"><time>2021-08-14T06:34:29</time></trkpt><trkpt lat="55.8159730" lon="49.1466550"><time>2021-08-14T06:34:30</time></trkpt><trkpt lat="55.8159450" lon="49.1466350"><time>2021-08-14T06:34:31</time></trkpt><trkpt lat="55.8159360" lon="49.1466250"><time>2021-08-14T06:34:32</time></trkpt><trkpt lat="55.8159210" lon="49.1466040"><time>2021-08-14T06:34:33</time></trkpt><trkpt lat="55.8159060" lon="49.1465910"><time>2021-08-14T06:34:34</time></trkpt><trkpt lat="55.8158910" lon="49.1465720"><time>2021-08-14T06:34:35</time></trkpt><trkpt lat="55.8158870" lon="49.1465400"><time>2021-08-14T06:34:36</time></trkpt><trkpt lat="55.8158880" lon="49.1465050"><time>2021-08-14T06:34:37</time></trkpt><trkpt lat="55.8158830" lon="49.1464880"><time>2021-08-14T06:34:38</time></trkpt><trkpt lat="55.8158610" lon="49.1464590"><time>2021-08-14T06:34:39</time></trkpt><trkpt lat="55.8158520" lon="49.1464510"><time>2021-08-14T06:34:40</time></trkpt><trkpt lat="55.8158260" lon="49.1464320"><time>2021-08-14T06:34:41</time></trkpt><trkpt lat="55.8158200" lon="49.1464220"><time>2021-08-14T06:34:42</time></trkpt><trkpt lat="55.8158100" lon="49.1464000"><time>2021-08-14T06:34:43</time></trkpt><trkpt lat="55.8157950" lon="49.1463770"><time>2021-08-14T06:34:44</time></trkpt><trkpt lat="55.8157890" lon="49.1463570"><time>2021-08-14T06:34:45</time></trkpt><trkpt lat="55.8157730" lon="49.1463430"><time>2021-08-14T06:34:46</time></trkpt><trkpt lat="55.8157440" lon="49.1463350"><time>2021-08-14T06:34:47</time></trkpt><trkpt lat="55.8157340" lon="49.1463360"><time>2021-08-14T06:34:48</time></trkpt><trkpt lat="55.8157050" lon="49.1463520"><time>2021-08-14T06:34:49</time></trkpt><trkpt lat="55.8156980" lon="49.1463560"><time>2021-08-14T06:34:50</time></trkpt><trkpt lat="55.8156850" lon="49.1463980"><time>2021-08-14T06:34:51</time></trkpt><trkpt lat="55.8156790" lon="49.1464120"><time>2021-08-14T06:34:52</time></trkpt><trkpt lat="55.8156540" lon="49.1464560"><time>2021-08-14T06:34:53</time></trkpt><trkpt lat="55.8156440" lon="49.1464680"><time>2021-08-14T06:34:54</time></trkpt><trkpt lat="55.8156200" lon="49.1465040"><time>2021-08-14T06:34:55</time></trkpt><trkpt lat="55.8156120" lon="49.1465150"><time>2021-08-14T06:34:56</time></trkpt><trkpt lat="55.8155980" lon="49.1465640"><time>2021-08-14T06:34:57</time></trkpt><trkpt lat="55.8155920" lon="49.1465800"><time>2021-08-14T06:34:58</time></trkpt><trkpt lat="55.8155660" lon="49.1466110"><time>2021-08-14T06:34:59</time></trkpt><trkpt lat="55.8155560" lon="49.1466220"><time>2021-08-14T06:35:00</time></trkpt><trkpt lat="55.8155380" lon="49.1466640"><time>2021-08-14T06:35:01</time></trkpt><trkpt lat="55.8155340" lon="49.1466760"><time>2021-08-14T06:35:02</time></trkpt><trkpt lat="55.8155170" lon="49.1467180"><time>2021-08-14T06:35:03</time></trkpt><trkpt lat="55.8155110" lon="49.1467330"><time>2021-08-14T06:35:04</time></trkpt><trkpt lat="55.8154850" lon="49.1467730"><time>2021-08-14T06:35:05</time></trkpt><trkpt lat="55.8154760" lon="49.1467840"><time>2021-08-14T06:35:06</time></trkpt><trkpt lat="55.8154620" lon="49.1467980"><time>2021-08-14T06:35:07</time></trkpt><trkpt lat="55.8154510" lon="49.1468170"><time>2021-08-14T06:35:08</time></trkpt><trkpt lat="55.8154320" lon="49.1468540"><time>2021-08-14T06:35:09</time></trkpt><trkpt lat="55.8154230" lon="49.1468650"><time>2021-08-14T06:35:10</time></trkpt><trkpt lat="55.8153960" lon="49.1468850"><time>2021-08-14T06:35:11</time></trkpt><trkpt lat="55.8153870" lon="49.1468890"><time>2021-08-14T06:35:12</time></trkpt><trkpt lat="55.8153700" lon="49.1468930"><time>2021-08-14T06:35:13</time></trkpt><trkpt lat="55.8153560" lon="49.1468920"><time>2021-08-14T06:35:14</time></trkpt><trkpt lat="55.8153320" lon="49.1468710"><time>2021-08-14T06:35:15</time></trkpt><trkpt lat="55.8153240" lon="49.1468580"><time>2021-08-14T06:35:16</time></trkpt><trkpt lat="55.8153100" lon="49.1468270"><time>2021-08-14T06:35:17</time></trkpt><trkpt lat="55.8152990" lon="49.1468150"><time>2021-08-14T06:35:18</time></trkpt><trkpt lat="55.8152900" lon="49.1468050"><time>2021-08-14T06:35:19</time></trkpt><trkpt lat="55.8152770" lon="49.1467820"><time>2021-08-14T06:35:20</time></trkpt><trkpt lat="55.8152590" lon="49.1467400"><time>2021-08-14T06:35:21</time></trkpt><trkpt lat="55.8152520" lon="49.1467290"><time>2021-08-14T06:35:22</time></trkpt><trkpt lat="55.8152430" lon="49.1467140"><time>2021-08-14T06:35:23</time></trkpt><trkpt lat="55.8152300" lon="49.1466980"><time>2021-08-14T06:35:24</time></trkpt><trkpt lat="55.8152190" lon="49.1466820"><time>2021-08-14T06:35:25</time></trkpt><trkpt lat="55.8152020" lon="49.1466680"><time>2021-08-14T06:35:26</time></trkpt><trkpt lat="55.8151890" lon="49.1466440"><time>2021-08-14T06:35:27</time></trkpt><trkpt lat="55.8151780" lon="49.1466240"><time>2021-08-14T06:35:28</time></trkpt><trkpt lat="55.8151700" lon="49.1466070"><time>2021-08-14T06:35:29</time></trkpt><trkpt lat="55.8151550" lon="49.1465960"><time>2021-08-14T06:35:30</time></trkpt><trkpt lat="55.8151330" lon="49.1465710"><time>2021-08-14T06:35:31</time></trkpt><trkpt lat="55.8151230" lon="49.1465640"><time>2021-08-14T06:35:32</time></trkpt><trkpt lat="55.8151120" lon="49.1465360"><time>2021-08-14T06:35:33</time></trkpt><trkpt lat="55.8151030" lon="49.1465120"><time>2021-08-14T06:35:34</time></trkpt><trkpt lat="55.8150940" lon="49.1464940"><time>2021-08-14T06:35:35</time></trkpt><trkpt lat="55.8150790" lon="49.1464850"><time>2021-08-14T06:35:36</time></trkpt><trkpt lat="55.8150630" lon="49.1464750"><time>2021-08-14T06:35:37</time></trkpt><trkpt lat="55.8150520" lon="49.1464520"><time>2021-08-14T06:35:38</time></trkpt><trkpt lat="55.8150400" lon="49.1464240"><time>2021-08-14T06:35:39</time></trkpt><trkpt lat="55.8150260" lon="49.1464070"><time>2021-08-14T06:35:40</time></trkpt><trkpt lat="55.8150100" lon="49.1463910"><time>2021-08-14T06:35:41</time></trkpt><trkpt lat="55.8149970" lon="49.1463740"><time>2021-08-14T06:35:42</time></trkpt><trkpt lat="55.8149810" lon="49.1463630"><time>2021-08-14T06:35:43</time></trkpt><trkpt lat="55.8149690" lon="49.1463370"><time>2021-08-14T06:35:44</time></trkpt><trkpt lat="55.8149560" lon="49.1463140"><time>2021-08-14T06:35:45</time></trkpt><trkpt lat="55.8149460" lon="49.1462900"><time>2021-08-14T06:35:46</time></trkpt><trkpt lat="55.8149340" lon="49.1462700"><time>2021-08-14T06:35:47</time></trkpt><trkpt lat="55.8149200" lon="49.1462560"><time>2021-08-14T06:35:48</time></trkpt><trkpt lat="55.8149050" lon="49.1462420"><time>2021-08-14T06:35:49</time></trkpt><trkpt lat="55.8148910" lon="49.1462220"><time>2021-08-14T06:35:50</time></trkpt><trkpt lat="55.8148680" lon="49.1461920"><time>2021-08-14T06:35:51</time></trkpt><trkpt lat="55.8148620" lon="49.1461800"><time>2021-08-14T06:35:52</time></trkpt><trkpt lat="55.8148460" lon="49.1461710"><time>2021-08-14T06:35:53</time></trkpt><trkpt lat="55.8148310" lon="49.1461620"><time>2021-08-14T06:35:54</time></trkpt><trkpt lat="55.8148180" lon="49.1461470"><time>2021-08-14T06:35:55</time></trkpt><trkpt lat="55.8148030" lon="49.1461330"><time>2021-08-14T06:35:56</time></trkpt><trkpt lat="55.8147900" lon="49.1461130"><time>2021-08-14T06:35:57</time></trkpt><trkpt lat="55.8147810" lon="49.1460860"><time>2021-08-14T06:35:58</time></trkpt><trkpt lat="55.8147670" lon="49.1460730"><time>2021-08-14T06:35:59</time></trkpt><trkpt lat="55.8147520" lon="49.1460610"><time>2021-08-14T06:36:00</time></trkpt><trkpt lat="55.8147300" lon="49.1460340"><time>2021-08-14T06:36:01</time></trkpt><trkpt lat="55.8147250" lon="49.1460190"><time>2021-08-14T06:36:02</time></trkpt><trkpt lat="55.8147160" lon="49.1459940"><time>2021-08-14T06:36:03</time></trkpt><trkpt lat="55.8147000" lon="49.1459840"><time>2021-08-14T06:36:04</time></trkpt><trkpt lat="55.8146860" lon="49.1459630"><time>2021-08-14T06:36:05</time></trkpt><trkpt lat="55.8146710" lon="49.1459450"><time>2021-08-14T06:36:06</time></trkpt><trkpt lat="55.8146600" lon="49.1459190"><time>2021-08-14T06:36:07</time></trkpt><trkpt lat="55.8146490" lon="49.1459000"><time>2021-08-14T06:36:08</time></trkpt><trkpt lat="55.8146360" lon="49.1458850"><time>2021-08-14T06:36:09</time></trkpt><trkpt lat="55.8146180" lon="49.1458710"><time>2021-08-14T06:36:10</time></trkpt><trkpt lat="55.8146000" lon="49.1458300"><time>2021-08-14T06:36:11</time></trkpt><trkpt lat="55.8145950" lon="49.1458130"><time>2021-08-14T06:36:12</time></trkpt><trkpt lat="55.8145770" lon="49.1457910"><time>2021-08-14T06:36:13</time></trkpt><trkpt lat="55.8145680" lon="49.1457830"><time>2021-08-14T06:36:14</time></trkpt><trkpt lat="55.8145580" lon="49.1457760"><time>2021-08-14T06:36:15</time></trkpt><trkpt lat="55.8145300" lon="49.1457380"><time>2021-08-14T06:36:16</time></trkpt><trkpt lat="55.8145210" lon="49.1457250"><time>2021-08-14T06:36:17</time></trkpt><trkpt lat="55.8145080" lon="49.1456980"><time>2021-08-14T06:36:18</time></trkpt><trkpt lat="55.8144950" lon="49.1456850"><time>2021-08-14T06:36:19</time></trkpt><trkpt lat="55.8144710" lon="49.1456620"><time>2021-08-14T06:36:20</time></trkpt><trkpt lat="55.8144620" lon="49.1456550"><time>2021-08-14T06:36:21</time></trkpt><trkpt lat="55.8144360" lon="49.1456170"><time>2021-08-14T06:36:22</time></trkpt><trkpt lat="55.8144290" lon="49.1456030"><time>2021-08-14T06:36:23</time></trkpt><trkpt lat="55.8144200" lon="49.1455800"><time>2021-08-14T06:36:24</time></trkpt><trkpt lat="55.8144040" lon="49.1455740"><time>2021-08-14T06:36:25</time></trkpt><trkpt lat="55.8143890" lon="49.1455600"><time>2021-08-14T06:36:26</time></trkpt><trkpt lat="55.8143770" lon="49.1455390"><time>2021-08-14T06:36:27</time></trkpt><trkpt lat="55.8143610" lon="49.1454830"><time>2021-08-14T06:36:28</time></trkpt><trkpt lat="55.8143570" lon="49.1454650"><time>2021-08-14T06:36:29</time></trkpt><trkpt lat="55.8143460" lon="49.1454570"><time>2021-08-14T06:36:30</time></trkpt><trkpt lat="55.8143270" lon="49.1454390"><time>2021-08-14T06:36:31</time></trkpt><trkpt lat="55.8143070" lon="49.1454070"><time>2021-08-14T06:36:32</time></trkpt><trkpt lat="55.8143000" lon="49.1453930"><time>2021-08-14T06:36:33</time></trkpt><trkpt lat="55.8142860" lon="49.1453710"><time>2021-08-14T06:36:34</time></trkpt><trkpt lat="55.8142730" lon="49.1453660"><time>2021-08-14T06:36:35</time></trkpt><trkpt lat="55.8142620" lon="49.1453610"><time>2021-08-14T06:36:36</time></trkpt><trkpt lat="55.8142440" lon="49.1453270"><time>2021-08-14T06:36:37</time></trkpt><trkpt lat="55.8142340" lon="49.1453130"><time>2021-08-14T06:36:38</time></trkpt><trkpt lat="55.8142270" lon="49.1452800"><time>2021-08-14T06:36:39</time></trkpt><trkpt lat="55.8142120" lon="49.1452580"><time>2021-08-14T06:36:40</time></trkpt><trkpt lat="55.8142000" lon="49.1452470"><time>2021-08-14T06:36:41</time></trkpt><trkpt lat="55.8141880" lon="49.1452290"><time>2021-08-14T06:36:42</time></trkpt><trkpt lat="55.8141720" lon="49.1452190"><time>2021-08-14T06:36:43</time></trkpt><trkpt lat="55.8141480" lon="49.1451900"><time>2021-08-14T06:36:44</time></trkpt><trkpt lat="55.8141400" lon="49.1451790"><time>2021-08-14T06:36:45</time></trkpt><trkpt lat="55.8141230" lon="49.1451770"><time>2021-08-14T06:36:46</time></trkpt><trkpt lat="55.8141120" lon="49.1451890"><time>2021-08-14T06:36:47</time></trkpt><trkpt lat="55.8140900" lon="49.1452090"><time>2021-08-14T06:36:48</time></trkpt><trkpt lat="55.8140800" lon="49.1452150"><time>2021-08-14T06:36:49</time></trkpt><trkpt lat="55.8140710" lon="49.1452220"><time>2021-08-14T06:36:50</time></trkpt><trkpt lat="55.8140520" lon="49.1452260"><time>2021-08-14T06:36:51</time></trkpt><trkpt lat="55.8140390" lon="49.1452280"><time>2021-08-14T06:36:52</time></trkpt><trkpt lat="55.8140230" lon="49.1452370"><time>2021-08-14T06:36:53</time></trkpt><trkpt lat="55.8140090" lon="49.1452470"><time>2021-08-14T06:36:54</time></trkpt><trkpt lat="55.8139770" lon="49.1452570"><time>2021-08-14T06:36:55</time></trkpt><trkpt lat="55.8139660" lon="49.1452600"><time>2021-08-14T06:36:56</time></trkpt><trkpt lat="55.8139540" lon="49.1452670"><time>2021-08-14T06:36:57</time></trkpt><trkpt lat="55.8139340" lon="49.1452540"><time>2021-08-14T06:36:58</time></trkpt><trkpt lat="55.8139190" lon="49.1452520"><time>2021-08-14T06:36:59</time></trkpt><trkpt lat="55.8139040" lon="49.1452630"><time>2021-08-14T06:37:00</time></trkpt><trkpt lat="55.8138860" lon="49.1452690"><time>2021-08-14T06:37:01</time></trkpt><trkpt lat="55.8138700" lon="49.1452740"><time>2021-08-14T06:37:02</time></trkpt><trkpt lat="55.8138350" lon="49.1452830"><time>2021-08-14T06:37:03</time></trkpt><trkpt lat="55.8138230" lon="49.1452820"><time>2021-08-14T06:37:04</time></trkpt><trkpt lat="55.8138040" lon="49.1452700"><time>2021-08-14T06:37:05</time></trkpt><trkpt lat="55.8137870" lon="49.1452800"><time>2021-08-14T06:37:06</time></trkpt><trkpt lat="55.8137640" lon="49.1453080"><time>2021-08-14T06:37:07</time></trkpt><trkpt lat="55.8137570" lon="49.1453160"><time>2021-08-14T06:37:08</time></trkpt><trkpt lat="55.8137400" lon="49.1453240"><time>2021-08-14T06:37:09</time></trkpt><trkpt lat="55.8137230" lon="49.1453380"><time>2021-08-14T06:37:10</time></trkpt><trkpt lat="55.8137100" lon="49.1453580"><time>2021-08-14T06:37:11</time></trkpt><trkpt lat="55.8136950" lon="49.1453630"><time>2021-08-14T06:37:12</time></trkpt><trkpt lat="55.8136830" lon="49.1453770"><time>2021-08-14T06:37:13</time></trkpt><trkpt lat="55.8136690" lon="49.1453890"><time>2021-08-14T06:37:14</time></trkpt><trkpt lat="55.8136570" lon="49.1454020"><time>2021-08-14T06:37:15</time></trkpt><trkpt lat="55.8136430" lon="49.1454150"><time>2021-08-14T06:37:16</time></trkpt><trkpt lat="55.8136320" lon="49.1454320"><time>2021-08-14T06:37:17</time></trkpt><trkpt lat="55.8136250" lon="49.1454580"><time>2021-08-14T06:37:18</time></trkpt><trkpt lat="55.8136120" lon="49.1454670"><time>2021-08-14T06:37:19</time></trkpt><trkpt lat="55.8136020" lon="49.1454850"><time>2021-08-14T06:37:20</time></trkpt><trkpt lat="55.8135840" lon="49.1455060"><time>2021-08-14T06:37:21</time></trkpt><trkpt lat="55.8135750" lon="49.1455160"><time>2021-08-14T06:37:22</time></trkpt><trkpt lat="55.8135670" lon="49.1455250"><time>2021-08-14T06:37:23</time></trkpt><trkpt lat="55.8135550" lon="49.1455420"><time>2021-08-14T06:37:24</time></trkpt><trkpt lat="55.8135420" lon="49.1455570"><time>2021-08-14T06:37:25</time></trkpt><trkpt lat="55.8135300" lon="49.1455750"><time>2021-08-14T06:37:26</time></trkpt><trkpt lat="55.8135160" lon="49.1455850"><time>2021-08-14T06:37:27</time></trkpt><trkpt lat="55.8135050" lon="49.1455990"><time>2021-08-14T06:37:28</time></trkpt><trkpt lat="55.8134910" lon="49.1456140"><time>2021-08-14T06:37:29</time></trkpt><trkpt lat="55.8134800" lon="49.1456380"><time>2021-08-14T06:37:30</time></trkpt><trkpt lat="55.8134700" lon="49.1456570"><time>2021-08-14T06:37:31</time></trkpt><trkpt lat="55.8134580" lon="49.1456750"><time>2021-08-14T06:37:32</time></trkpt><trkpt lat="55.8134490" lon="49.1456960"><time>2021-08-14T06:37:33</time></trkpt><trkpt lat="55.8134370" lon="49.1457110"><time>2021-08-14T06:37:34</time></trkpt><trkpt lat="55.8134250" lon="49.1457280"><time>2021-08-14T06:37:35</time></trkpt><trkpt lat="55.8134130" lon="49.1457440"><time>2021-08-14T06:37:36</time></trkpt><trkpt lat="55.8134020" lon="49.1457630"><time>2021-08-14T06:37:37</time></trkpt><trkpt lat="55.8133920" lon="49.1457830"><time>2021-08-14T06:37:38</time></trkpt><trkpt lat="55.8133810" lon="49.1457990"><time>2021-08-14T06:37:39</time></trkpt><trkpt lat="55.8133680" lon="49.1458170"><time>2021-08-14T06:37:40</time></trkpt><trkpt lat="55.8133570" lon="49.1458420"><time>2021-08-14T06:37:41</time></trkpt><trkpt lat="55.8133430" lon="49.1458530"><time>2021-08-14T06:37:42</time></trkpt><trkpt lat="55.8133250" lon="49.1458560"><time>2021-08-14T06:37:43</time></trkpt><trkpt lat="55.8133100" lon="49.1458560"><time>2021-08-14T06:37:44</time></trkpt><trkpt lat="55.8132960" lon="49.1458610"><time>2021-08-14T06:37:45</time></trkpt><trkpt lat="55.8132850" lon="49.1458800"><time>2021-08-14T06:37:46</time></trkpt><trkpt lat="55.8132730" lon="49.1458920"><time>2021-08-14T06:37:47</time></trkpt><trkpt lat="55.8132610" lon="49.1458920"><time>2021-08-14T06:37:48</time></trkpt><trkpt lat="55.8132520" lon="49.1458990"><time>2021-08-14T06:37:49</time></trkpt><trkpt lat="55.8132430" lon="49.1459040"><time>2021-08-14T06:37:50</time></trkpt><trkpt lat="55.8132230" lon="49.1458980"><time>2021-08-14T06:37:51</time></trkpt><trkpt lat="55.8132160" lon="49.1458870"><time>2021-08-14T06:37:52</time></trkpt><trkpt lat="55.8132080" lon="49.1458760"><time>2021-08-14T06:37:53</time></trkpt><trkpt lat="55.8131980" lon="49.1458490"><time>2021-08-14T06:37:54</time></trkpt><trkpt lat="55.8131940" lon="49.1458240"><time>2021-08-14T06:37:55</time></trkpt><trkpt lat="55.8131900" lon="49.1457970"><time>2021-08-14T06:37:56</time></trkpt><trkpt lat="55.8131870" lon="49.1457670"><time>2021-08-14T06:37:57</time></trkpt><trkpt lat="55.8131780" lon="49.1457470"><time>2021-08-14T06:37:58</time></trkpt><trkpt lat="55.8131650" lon="49.1457310"><time>2021-08-14T06:37:59</time></trkpt><trkpt lat="55.8131510" lon="49.1457190"><time>2021-08-14T06:38:00</time></trkpt><trkpt lat="55.8131410" lon="49.1456990"><time>2021-08-14T06:38:01</time></trkpt><trkpt lat="55.8131310" lon="49.1456770"><time>2021-08-14T06:38:02</time></trkpt><trkpt lat="55.8131220" lon="49.1456530"><time>2021-08-14T06:38:03</time></trkpt><trkpt lat="55.8131100" lon="49.1456330"><time>2021-08-14T06:38:04</time></trkpt><trkpt lat="55.8131000" lon="49.1456140"><time>2021-08-14T06:38:05</time></trkpt><trkpt lat="55.8130880" lon="49.1456000"><time>2021-08-14T06:38:06</time></trkpt><trkpt lat="55.8130760" lon="49.1455820"><time>2021-08-14T06:38:07</time></trkpt><trkpt lat="55.8130660" lon="49.1455610"><time>2021-08-14T06:38:08</time></trkpt><trkpt lat="55.8130570" lon="49.1455360"><time>2021-08-14T06:38:09</time></trkpt><trkpt lat="55.8130460" lon="49.1455150"><time>2021-08-14T06:38:10</time></trkpt><trkpt lat="55.8130340" lon="49.1454980"><time>2021-08-14T06:38:11</time></trkpt><trkpt lat="55.8130240" lon="49.1454770"><time>2021-08-14T06:38:12</time></trkpt><trkpt lat="55.8130120" lon="49.1454600"><time>2021-08-14T06:38:13</time></trkpt><trkpt lat="55.8130020" lon="49.1454380"><time>2021-08-14T06:38:14</time></trkpt><trkpt lat="55.8129870" lon="49.1454210"><time>2021-08-14T06:38:15</time></trkpt><trkpt lat="55.8129730" lon="49.1454020"><time>2021-08-14T06:38:16</time></trkpt><trkpt lat="55.8129610" lon="49.1453820"><time>2021-08-14T06:38:17</time></trkpt><trkpt lat="55.8129480" lon="49.1453660"><time>2021-08-14T06:38:18</time></trkpt><trkpt lat="55.8129370" lon="49.1453490"><time>2021-08-14T06:38:19</time></trkpt><trkpt lat="55.8129270" lon="49.1453300"><time>2021-08-14T06:38:20</time></trkpt><trkpt lat="55.8129120" lon="49.1453150"><time>2021-08-14T06:38:21</time></trkpt><trkpt lat="55.8129010" lon="49.1452970"><time>2021-08-14T06:38:22</time></trkpt><trkpt lat="55.8128920" lon="49.1452710"><time>2021-08-14T06:38:23</time></trkpt><trkpt lat="55.8128800" lon="49.1452580"><time>2021-08-14T06:38:24</time></trkpt><trkpt lat="55.8128680" lon="49.1452400"><time>2021-08-14T06:38:25</time></trkpt><trkpt lat="55.8128560" lon="49.1452260"><time>2021-08-14T06:38:26</time></trkpt><trkpt lat="55.8128390" lon="49.1452180"><time>2021-08-14T06:38:27</time></trkpt><trkpt lat="55.8128260" lon="49.1452020"><time>2021-08-14T06:38:28</time></trkpt><trkpt lat="55.8128150" lon="49.1451800"><time>2021-08-14T06:38:29</time></trkpt><trkpt lat="55.8128030" lon="49.1451610"><time>2021-08-14T06:38:30</time></trkpt><trkpt lat="55.8127900" lon="49.1451420"><time>2021-08-14T06:38:31</time></trkpt><trkpt lat="55.8127780" lon="49.1451250"><time>2021-08-14T06:38:32</time></trkpt><trkpt lat="55.8127640" lon="49.1451140"><time>2021-08-14T06:38:33</time></trkpt><trkpt lat="55.8127510" lon="49.1451040"><time>2021-08-14T06:38:34</time></trkpt><trkpt lat="55.8127380" lon="49.1450890"><time>2021-08-14T06:38:35</time></trkpt><trkpt lat="55.8127250" lon="49.1450690"><time>2021-08-14T06:38:36</time></trkpt><trkpt lat="55.8127120" lon="49.1450510"><time>2021-08-14T06:38:37</time></trkpt><trkpt lat="55.8127000" lon="49.1450290"><time>2021-08-14T06:38:38</time></trkpt><trkpt lat="55.8126860" lon="49.1450130"><time>2021-08-14T06:38:39</time></trkpt><trkpt lat="55.8126710" lon="49.1450010"><time>2021-08-14T06:38:40</time></trkpt><trkpt lat="55.8126550" lon="49.1450000"><time>2021-08-14T06:38:41</time></trkpt><trkpt lat="55.8126430" lon="49.1449820"><time>2021-08-14T06:38:42</time></trkpt><trkpt lat="55.8126300" lon="49.1449690"><time>2021-08-14T06:38:43</time></trkpt><trkpt lat="55.8126190" lon="49.1449450"><time>2021-08-14T06:38:44</time></trkpt><trkpt lat="55.8126080" lon="49.1449280"><time>2021-08-14T06:38:45</time></trkpt><trkpt lat="55.8125960" lon="49.1449090"><time>2021-08-14T06:38:46</time></trkpt><trkpt lat="55.8125860" lon="49.1448890"><time>2021-08-14T06:38:47</time></trkpt><trkpt lat="55.8125770" lon="49.1448660"><time>2021-08-14T06:38:48</time></trkpt><trkpt lat="55.8125630" lon="49.1448520"><time>2021-08-14T06:38:49</time></trkpt><trkpt lat="55.8125500" lon="49.1448400"><time>2021-08-14T06:38:50</time></trkpt><trkpt lat="55.8125370" lon="49.1448260"><time>2021-08-14T06:38:51</time></trkpt><trkpt lat="55.8125260" lon="49.1448070"><time>2021-08-14T06:38:52</time></trkpt><trkpt lat="55.8125120" lon="49.1447900"><time>2021-08-14T06:38:53</time></trkpt><trkpt lat="55.8124980" lon="49.1447720"><time>2021-08-14T06:38:54</time></trkpt><trkpt lat="55.8124820" lon="49.1447560"><time>2021-08-14T06:38:55</time></trkpt><trkpt lat="55.8124640" lon="49.1447530"><time>2021-08-14T06:38:56</time></trkpt><trkpt lat="55.8124490" lon="49.1447530"><time>2021-08-14T06:38:57</time></trkpt><trkpt lat="55.8124350" lon="49.1447540"><time>2021-08-14T06:38:58</time></trkpt><trkpt lat="55.8124210" lon="49.1447670"><time>2021-08-14T06:38:59</time></trkpt><trkpt lat="55.8123990" lon="49.1447970"><time>2021-08-14T06:39:00</time></trkpt><trkpt lat="55.8123900" lon="49.1448060"><time>2021-08-14T06:39:01</time></trkpt><trkpt lat="55.8123670" lon="49.1447790"><time>2021-08-14T06:39:02</time></trkpt><trkpt lat="55.8123520" lon="49.1447790"><time>2021-08-14T06:39:03</time></trkpt><trkpt lat="55.8123350" lon="49.1447650"><time>2021-08-14T06:39:04</time></trkpt><trkpt lat="55.8123230" lon="49.1447580"><time>2021-08-14T06:39:05</time></trkpt><trkpt lat="55.8123190" lon="49.1447560"><time>2021-08-14T06:39:06</time></trkpt><trkpt lat="55.8123070" lon="49.1447490"><time>2021-08-14T06:39:07</time></trkpt><trkpt lat="55.8122940" lon="49.1447340"><time>2021-08-14T06:39:08</time></trkpt><trkpt lat="55.8122810" lon="49.1447170"><time>2021-08-14T06:39:09</time></trkpt><trkpt lat="55.8122700" lon="49.1447000"><time>2021-08-14T06:39:10</time></trkpt><trkpt lat="55.8122600" lon="49.1446830"><time>2021-08-14T06:39:11</time></trkpt><trkpt lat="55.8122520" lon="49.1446610"><time>2021-08-14T06:39:12</time></trkpt><trkpt lat="55.8122420" lon="49.1446410"><time>2021-08-14T06:39:13</time></trkpt><trkpt lat="55.8122330" lon="49.1446200"><time>2021-08-14T06:39:14</time></trkpt><trkpt lat="55.8122220" lon="49.1446040"><time>2021-08-14T06:39:15</time></trkpt><trkpt lat="55.8122060" lon="49.1445810"><time>2021-08-14T06:39:16</time></trkpt><trkpt lat="55.8121990" lon="49.1445730"><time>2021-08-14T06:39:17</time></trkpt><trkpt lat="55.8121910" lon="49.1445660"><time>2021-08-14T06:39:18</time></trkpt><trkpt lat="55.8121780" lon="49.1445700"><time>2021-08-14T06:39:19</time></trkpt><trkpt lat="55.8121820" lon="49.1445890"><time>2021-08-14T06:39:20</time></trkpt><trkpt lat="55.8121900" lon="49.1445880"><time>2021-08-14T06:39:21</time></trkpt><trkpt lat="55.8121880" lon="49.1445880"><time>2021-08-14T06:39:22</time></trkpt><trkpt lat="55.8121860" lon="49.1445920"><time>2021-08-14T06:39:23</time></trkpt><trkpt lat="55.8121880" lon="49.1445930"><time>2021-08-14T06:39:24</time></trkpt><trkpt lat="55.8121880" lon="49.1445960"><time>2021-08-14T06:39:25</time></trkpt><trkpt lat="55.8121880" lon="49.1446080"><time>2021-08-14T06:39:26</time></trkpt><trkpt lat="55.8121890" lon="49.1446120"><time>2021-08-14T06:39:27</time></trkpt><trkpt lat="55.8121880" lon="49.1446130"><time>2021-08-14T06:39:28</time></trkpt><trkpt lat="55.8121910" lon="49.1446190"><time>2021-08-14T06:39:29</time></trkpt><trkpt lat="55.8121850" lon="49.1446270"><time>2021-08-14T06:39:30</time></trkpt><trkpt lat="55.8121820" lon="49.1446380"><time>2021-08-14T06:39:31</time></trkpt><trkpt lat="55.8121760" lon="49.1446620"><time>2021-08-14T06:39:32</time></trkpt><trkpt lat="55.8121750" lon="49.1446860"><time>2021-08-14T06:39:33</time></trkpt><trkpt lat="55.8121760" lon="49.1446960"><time>2021-08-14T06:39:34</time></trkpt><trkpt lat="55.8121750" lon="49.1446940"><time>2021-08-14T06:39:35</time></trkpt><trkpt lat="55.8121620" lon="49.1447070"><time>2021-08-14T06:39:36</time></trkpt><trkpt lat="55.8121600" lon="49.1447100"><time>2021-08-14T06:39:37</time></trkpt><trkpt lat="55.8121500" lon="49.1447100"><time>2021-08-14T06:39:38</time></trkpt><trkpt lat="55.8121400" lon="49.1447080"><time>2021-08-14T06:39:39</time></trkpt><trkpt lat="55.8121400" lon="49.1447180"><time>2021-08-14T06:39:40</time></trkpt><trkpt lat="55.8121460" lon="49.1447070"><time>2021-08-14T06:39:41</time></trkpt><trkpt lat="55.8121450" lon="49.1446940"><time>2021-08-14T06:39:42</time></trkpt><trkpt lat="55.8121440" lon="49.1446910"><time>2021-08-14T06:39:43</time></trkpt><trkpt lat="55.8121500" lon="49.1446940"><time>2021-08-14T06:39:44</time></trkpt><trkpt lat="55.8121480" lon="49.1446890"><time>2021-08-14T06:39:45</time></trkpt><trkpt lat="55.8121500" lon="49.1446870"><time>2021-08-14T06:39:46</time></trkpt><trkpt lat="55.8121480" lon="49.1446850"><time>2021-08-14T06:39:47</time></trkpt><trkpt lat="55.8121450" lon="49.1446870"><time>2021-08-14T06:39:48</time></trkpt><trkpt lat="55.8121500" lon="49.1446820"><time>2021-08-14T06:39:49</time></trkpt><trkpt lat="55.8121460" lon="49.1446850"><time>2021-08-14T06:39:50</time></trkpt><trkpt lat="55.8121430" lon="49.1446970"><time>2021-08-14T06:39:51</time></trkpt><trkpt lat="55.8121500" lon="49.1447090"><time>2021-08-14T06:39:52</time></trkpt><trkpt lat="55.8121570" lon="49.1447160"><time>2021-08-14T06:39:53</time></trkpt><trkpt lat="55.8121690" lon="49.1447190"><time>2021-08-14T06:39:54</time></trkpt><trkpt lat="55.8121910" lon="49.1447250"><time>2021-08-14T06:39:55</time></trkpt><trkpt lat="55.8121920" lon="49.1446900"><time>2021-08-14T06:39:56</time></trkpt><trkpt lat="55.8121910" lon="49.1446730"><time>2021-08-14T06:39:57</time></trkpt><trkpt lat="55.8121890" lon="49.1446560"><time>2021-08-14T06:39:58</time></trkpt><trkpt lat="55.8121930" lon="49.1446430"><time>2021-08-14T06:39:59</time></trkpt><trkpt lat="55.8122000" lon="49.1446340"><time>2021-08-14T06:40:00</time></trkpt><trkpt lat="55.8122050" lon="49.1446270"><time>2021-08-14T06:40:01</time></trkpt><trkpt lat="55.8122030" lon="49.1446070"><time>2021-08-14T06:40:02</time></trkpt><trkpt lat="55.8121850" lon="49.1445540"><time>2021-08-14T06:40:03</time></trkpt><trkpt lat="55.8121800" lon="49.1445370"><time>2021-08-14T06:40:04</time></trkpt><trkpt lat="55.8121540" lon="49.1444930"><time>2021-08-14T06:40:05</time></trkpt><trkpt lat="55.8121440" lon="49.1444790"><time>2021-08-14T06:40:06</time></trkpt><trkpt lat="55.8121350" lon="49.1444490"><time>2021-08-14T06:40:07</time></trkpt><trkpt lat="55.8121300" lon="49.1444350"><time>2021-08-14T06:40:08</time></trkpt><trkpt lat="55.8121250" lon="49.1444210"><time>2021-08-14T06:40:09</time></trkpt><trkpt lat="55.8121100" lon="49.1444020"><time>2021-08-14T06:40:10</time></trkpt><trkpt lat="55.8121020" lon="49.1443910"><time>2021-08-14T06:40:11</time></trkpt><trkpt lat="55.8120800" lon="49.1443520"><time>2021-08-14T06:40:12</time></trkpt><trkpt lat="55.8120730" lon="49.1443430"><time>2021-08-14T06:40:13</time></trkpt><trkpt lat="55.8120650" lon="49.1443170"><time>2021-08-14T06:40:14</time></trkpt><trkpt lat="55.8120530" lon="49.1442920"><time>2021-08-14T06:40:15</time></trkpt><trkpt lat="55.8120420" lon="49.1442760"><time>2021-08-14T06:40:16</time></trkpt><trkpt lat="55.8120310" lon="49.1442580"><time>2021-08-14T06:40:17</time></trkpt><trkpt lat="55.8120210" lon="49.1442380"><time>2021-08-14T06:40:18</time></trkpt><trkpt lat="55.8120080" lon="49.1442220"><time>2021-08-14T06:40:19</time></trkpt><trkpt lat="55.8119950" lon="49.1442060"><time>2021-08-14T06:40:20</time></trkpt><trkpt lat="55.8119830" lon="49.1441860"><time>2021-08-14T06:40:21</time></trkpt><trkpt lat="55.8119690" lon="49.1441660"><time>2021-08-14T06:40:22</time></trkpt><trkpt lat="55.8119590" lon="49.1441470"><time>2021-08-14T06:40:23</time></trkpt><trkpt lat="55.8119450" lon="49.1441320"><time>2021-08-14T06:40:24</time></trkpt><trkpt lat="55.8119300" lon="49.1441220"><time>2021-08-14T06:40:25</time></trkpt><trkpt lat="55.8119160" lon="49.1441060"><time>2021-08-14T06:40:26</time></trkpt><trkpt lat="55.8119000" lon="49.1441010"><time>2021-08-14T06:40:27</time></trkpt><trkpt lat="55.8118840" lon="49.1440910"><time>2021-08-14T06:40:28</time></trkpt><trkpt lat="55.8118700" lon="49.1440760"><time>2021-08-14T06:40:29</time></trkpt><trkpt lat="55.8118550" lon="49.1440680"><time>2021-08-14T06:40:30</time></trkpt><trkpt lat="55.8118400" lon="49.1440640"><time>2021-08-14T06:40:31</time></trkpt><trkpt lat="55.8118240" lon="49.1440600"><time>2021-08-14T06:40:32</time></trkpt><trkpt lat="55.8118090" lon="49.1440560"><time>2021-08-14T06:40:33</time></trkpt><trkpt lat="55.8117950" lon="49.1440490"><time>2021-08-14T06:40:34</time></trkpt><trkpt lat="55.8117810" lon="49.1440350"><time>2021-08-14T06:40:35</time></trkpt><trkpt lat="55.8117660" lon="49.1440220"><time>2021-08-14T06:40:36</time></trkpt><trkpt lat="55.8117530" lon="49.1440040"><time>2021-08-14T06:40:37</time></trkpt><trkpt lat="55.8117400" lon="49.1439840"><time>2021-08-14T06:40:38</time></trkpt><trkpt lat="55.8117230" lon="49.1439840"><time>2021-08-14T06:40:39</time></trkpt><trkpt lat="55.8117110" lon="49.1439760"><time>2021-08-14T06:40:40</time></trkpt><trkpt lat="55.8116980" lon="49.1439690"><time>2021-08-14T06:40:41</time></trkpt><trkpt lat="55.8116830" lon="49.1439610"><time>2021-08-14T06:40:42</time></trkpt><trkpt lat="55.8116700" lon="49.1439540"><time>2021-08-14T06:40:43</time></trkpt><trkpt lat="55.8116560" lon="49.1439400"><time>2021-08-14T06:40:44</time></trkpt><trkpt lat="55.8116440" lon="49.1439260"><time>2021-08-14T06:40:45</time></trkpt><trkpt lat="55.8116310" lon="49.1439170"><time>2021-08-14T06:40:46</time></trkpt><trkpt lat="55.8116170" lon="49.1439070"><time>2021-08-14T06:40:47</time></trkpt><trkpt lat="55.8115970" lon="49.1438850"><time>2021-08-14T06:40:48</time></trkpt><trkpt lat="55.8115880" lon="49.1438760"><time>2021-08-14T06:40:49</time></trkpt><trkpt lat="55.8115800" lon="49.1438680"><time>2021-08-14T06:40:50</time></trkpt><trkpt lat="55.8115650" lon="49.1438580"><time>2021-08-14T06:40:51</time></trkpt><trkpt lat="55.8115510" lon="49.1438470"><time>2021-08-14T06:40:52</time></trkpt><trkpt lat="55.8115390" lon="49.1438320"><time>2021-08-14T06:40:53</time></trkpt><trkpt lat="55.8115250" lon="49.1438180"><time>2021-08-14T06:40:54</time></trkpt><trkpt lat="55.8115100" lon="49.1438110"><time>2021-08-14T06:40:55</time></trkpt><trkpt lat="55.8114950" lon="49.1438040"><time>2021-08-14T06:40:56</time></trkpt><trkpt lat="55.8114820" lon="49.1437870"><time>2021-08-14T06:40:57</time></trkpt><trkpt lat="55.8114670" lon="49.1437780"><time>2021-08-14T06:40:58</time></trkpt><trkpt lat="55.8114530" lon="49.1437640"><time>2021-08-14T06:40:59</time></trkpt><trkpt lat="55.8114420" lon="49.1437510"><time>2021-08-14T06:41:00</time></trkpt><trkpt lat="55.8114270" lon="49.1437440"><time>2021-08-14T06:41:01</time></trkpt><trkpt lat="55.8114140" lon="49.1437320"><time>2021-08-14T06:41:02</time></trkpt><trkpt lat="55.8113990" lon="49.1437250"><time>2021-08-14T06:41:03</time></trkpt><trkpt lat="55.8113840" lon="49.1437110"><time>2021-08-14T06:41:04</time></trkpt><trkpt lat="55.8113700" lon="49.1436930"><time>2021-08-14T06:41:05</time></trkpt><trkpt lat="55.8113540" lon="49.1436820"><time>2021-08-14T06:41:06</time></trkpt><trkpt lat="55.8113390" lon="49.1436760"><time>2021-08-14T06:41:07</time></trkpt><trkpt lat="55.8113250" lon="49.1436590"><time>2021-08-14T06:41:08</time></trkpt><trkpt lat="55.8113110" lon="49.1436440"><time>2021-08-14T06:41:09</time></trkpt><trkpt lat="55.8112960" lon="49.1436300"><time>2021-08-14T06:41:10</time></trkpt><trkpt lat="55.8112810" lon="49.1436180"><time>2021-08-14T06:41:11</time></trkpt><trkpt lat="55.8112650" lon="49.1436130"><time>2021-08-14T06:41:12</time></trkpt><trkpt lat="55.8112500" lon="49.1436040"><time>2021-08-14T06:41:13</time></trkpt><trkpt lat="55.8112340" lon="49.1435980"><time>2021-08-14T06:41:14</time></trkpt><trkpt lat="55.8112190" lon="49.1435920"><time>2021-08-14T06:41:15</time></trkpt><trkpt lat="55.8112050" lon="49.1435720"><time>2021-08-14T06:41:16</time></trkpt><trkpt lat="55.8111930" lon="49.1435520"><time>2021-08-14T06:41:17</time></trkpt><trkpt lat="55.8111760" lon="49.1435500"><time>2021-08-14T06:41:18</time></trkpt><trkpt lat="55.8111530" lon="49.1435200"><time>2021-08-14T06:41:19</time></trkpt><trkpt lat="55.8111440" lon="49.1435100"><time>2021-08-14T06:41:20</time></trkpt><trkpt lat="55.8111200" lon="49.1434800"><time>2021-08-14T06:41:21</time></trkpt><trkpt lat="55.8111130" lon="49.1434720"><time>2021-08-14T06:41:22</time></trkpt><trkpt lat="55.8110980" lon="49.1434580"><time>2021-08-14T06:41:23</time></trkpt><trkpt lat="55.8110850" lon="49.1434460"><time>2021-08-14T06:41:24</time></trkpt><trkpt lat="55.8110680" lon="49.1434290"><time>2021-08-14T06:41:25</time></trkpt><trkpt lat="55.8110550" lon="49.1434150"><time>2021-08-14T06:41:26</time></trkpt><trkpt lat="55.8110300" lon="49.1433880"><time>2021-08-14T06:41:27</time></trkpt><trkpt lat="55.8110230" lon="49.1433780"><time>2021-08-14T06:41:28</time></trkpt><trkpt lat="55.8110110" lon="49.1433520"><time>2021-08-14T06:41:29</time></trkpt><trkpt lat="55.8109970" lon="49.1433460"><time>2021-08-14T06:41:30</time></trkpt><trkpt lat="55.8109790" lon="49.1433350"><time>2021-08-14T06:41:31</time></trkpt><trkpt lat="55.8109660" lon="49.1433210"><time>2021-08-14T06:41:32</time></trkpt><trkpt lat="55.8109490" lon="49.1433020"><time>2021-08-14T06:41:33</time></trkpt><trkpt lat="55.8109360" lon="49.1432870"><time>2021-08-14T06:41:34</time></trkpt><trkpt lat="55.8109280" lon="49.1432610"><time>2021-08-14T06:41:35</time></trkpt><trkpt lat="55.8109130" lon="49.1432470"><time>2021-08-14T06:41:36</time></trkpt><trkpt lat="55.8108990" lon="49.1432330"><time>2021-08-14T06:41:37</time></trkpt><trkpt lat="55.8108860" lon="49.1432190"><time>2021-08-14T06:41:38</time></trkpt><trkpt lat="55.8108700" lon="49.1432100"><time>2021-08-14T06:41:39</time></trkpt><trkpt lat="55.8108620" lon="49.1431830"><time>2021-08-14T06:41:40</time></trkpt><trkpt lat="55.8108470" lon="49.1431670"><time>2021-08-14T06:41:41</time></trkpt><trkpt lat="55.8108320" lon="49.1431510"><time>2021-08-14T06:41:42</time></trkpt><trkpt lat="55.8108210" lon="49.1431320"><time>2021-08-14T06:41:43</time></trkpt><trkpt lat="55.8108100" lon="49.1431110"><time>2021-08-14T06:41:44</time></trkpt><trkpt lat="55.8107970" lon="49.1430960"><time>2021-08-14T06:41:45</time></trkpt><trkpt lat="55.8107870" lon="49.1430800"><time>2021-08-14T06:41:46</time></trkpt><trkpt lat="55.8107750" lon="49.1430610"><time>2021-08-14T06:41:47</time></trkpt><trkpt lat="55.8107660" lon="49.1430370"><time>2021-08-14T06:41:48</time></trkpt><trkpt lat="55.8107530" lon="49.1430190"><time>2021-08-14T06:41:49</time></trkpt><trkpt lat="55.8107400" lon="49.1430020"><time>2021-08-14T06:41:50</time></trkpt><trkpt lat="55.8107280" lon="49.1429870"><time>2021-08-14T06:41:51</time></trkpt><trkpt lat="55.8107150" lon="49.1429720"><time>2021-08-14T06:41:52</time></trkpt><trkpt lat="55.8107010" lon="49.1429600"><time>2021-08-14T06:41:53</time></trkpt><trkpt lat="55.8106860" lon="49.1429450"><time>2021-08-14T06:41:54</time></trkpt><trkpt lat="55.8106760" lon="49.1429230"><time>2021-08-14T06:41:55</time></trkpt><trkpt lat="55.8106640" lon="49.1428970"><time>2021-08-14T06:41:56</time></trkpt><trkpt lat="55.8106530" lon="49.1428780"><time>2021-08-14T06:41:57</time></trkpt><trkpt lat="55.8106400" lon="49.1428580"><time>2021-08-14T06:41:58</time></trkpt><trkpt lat="55.8106300" lon="49.1428370"><time>2021-08-14T06:41:59</time></trkpt><trkpt lat="55.8106170" lon="49.1428190"><time>2021-08-14T06:42:00</time></trkpt><trkpt lat="55.8106050" lon="49.1428030"><time>2021-08-14T06:42:01</time></trkpt><trkpt lat="55.8105910" lon="49.1427910"><time>2021-08-14T06:42:02</time></trkpt><trkpt lat="55.8105800" lon="49.1427750"><time>2021-08-14T06:42:03</time></trkpt><trkpt lat="55.8105670" lon="49.1427580"><time>2021-08-14T06:42:04</time></trkpt><trkpt lat="55.8105580" lon="49.1427320"><time>2021-08-14T06:42:05</time></trkpt><trkpt lat="55.8105470" lon="49.1427130"><time>2021-08-14T06:42:06</time></trkpt><trkpt lat="55.8105380" lon="49.1426900"><time>2021-08-14T06:42:07</time></trkpt><trkpt lat="55.8105310" lon="49.1426640"><time>2021-08-14T06:42:08</time></trkpt><trkpt lat="55.8105220" lon="49.1426410"><time>2021-08-14T06:42:09</time></trkpt><trkpt lat="55.8105140" lon="49.1426200"><time>2021-08-14T06:42:10</time></trkpt><trkpt lat="55.8105080" lon="49.1425940"><time>2021-08-14T06:42:11</time></trkpt><trkpt lat="55.8104970" lon="49.1425780"><time>2021-08-14T06:42:12</time></trkpt><trkpt lat="55.8104830" lon="49.1425650"><time>2021-08-14T06:42:13</time></trkpt><trkpt lat="55.8104760" lon="49.1425440"><time>2021-08-14T06:42:14</time></trkpt><trkpt lat="55.8104620" lon="49.1425270"><time>2021-08-14T06:42:15</time></trkpt><trkpt lat="55.8104530" lon="49.1425020"><time>2021-08-14T06:42:16</time></trkpt><trkpt lat="55.8104430" lon="49.1424820"><time>2021-08-14T06:42:17</time></trkpt><trkpt lat="55.8104320" lon="49.1424610"><time>2021-08-14T06:42:18</time></trkpt><trkpt lat="55.8104210" lon="49.1424390"><time>2021-08-14T06:42:19</time></trkpt><trkpt lat="55.8104090" lon="49.1424190"><time>2021-08-14T06:42:20</time></trkpt><trkpt lat="55.8104000" lon="49.1423950"><time>2021-08-14T06:42:21</time></trkpt><trkpt lat="55.8103930" lon="49.1423700"><time>2021-08-14T06:42:22</time></trkpt><trkpt lat="55.8103840" lon="49.1423480"><time>2021-08-14T06:42:23</time></trkpt><trkpt lat="55.8103710" lon="49.1423310"><time>2021-08-14T06:42:24</time></trkpt><trkpt lat="55.8103570" lon="49.1423150"><time>2021-08-14T06:42:25</time></trkpt><trkpt lat="55.8103470" lon="49.1422930"><time>2021-08-14T06:42:26</time></trkpt><trkpt lat="55.8103340" lon="49.1422740"><time>2021-08-14T06:42:27</time></trkpt><trkpt lat="55.8103230" lon="49.1422530"><time>2021-08-14T06:42:28</time></trkpt><trkpt lat="55.8103120" lon="49.1422300"><time>2021-08-14T06:42:29</time></trkpt><trkpt lat="55.8103020" lon="49.1422090"><time>2021-08-14T06:42:30</time></trkpt><trkpt lat="55.8102910" lon="49.1421880"><time>2021-08-14T06:42:31</time></trkpt><trkpt lat="55.8102750" lon="49.1421760"><time>2021-08-14T06:42:32</time></trkpt><trkpt lat="55.8102620" lon="49.1421590"><time>2021-08-14T06:42:33</time></trkpt><trkpt lat="55.8102470" lon="49.1421420"><time>2021-08-14T06:42:34</time></trkpt><trkpt lat="55.8102400" lon="49.1421150"><time>2021-08-14T06:42:35</time></trkpt><trkpt lat="55.8102280" lon="49.1420970"><time>2021-08-14T06:42:36</time></trkpt><trkpt lat="55.8102120" lon="49.1420870"><time>2021-08-14T06:42:37</time></trkpt><trkpt lat="55.8102000" lon="49.1420690"><time>2021-08-14T06:42:38</time></trkpt><trkpt lat="55.8101870" lon="49.1420500"><time>2021-08-14T06:42:39</time></trkpt><trkpt lat="55.8101730" lon="49.1420290"><time>2021-08-14T06:42:40</time></trkpt><trkpt lat="55.8101610" lon="49.1420070"><time>2021-08-14T06:42:41</time></trkpt><trkpt lat="55.8101480" lon="49.1419890"><time>2021-08-14T06:42:42</time></trkpt><trkpt lat="55.8101350" lon="49.1419730"><time>2021-08-14T06:42:43</time></trkpt><trkpt lat="55.8101190" lon="49.1419620"><time>2021-08-14T06:42:44</time></trkpt><trkpt lat="55.8101080" lon="49.1419420"><time>2021-08-14T06:42:45</time></trkpt><trkpt lat="55.8100910" lon="49.1419300"><time>2021-08-14T06:42:46</time></trkpt><trkpt lat="55.8100780" lon="49.1419050"><time>2021-08-14T06:42:47</time></trkpt><trkpt lat="55.8100670" lon="49.1418820"><time>2021-08-14T06:42:48</time></trkpt><trkpt lat="55.8100560" lon="49.1418640"><time>2021-08-14T06:42:49</time></trkpt><trkpt lat="55.8100430" lon="49.1418470"><time>2021-08-14T06:42:50</time></trkpt><trkpt lat="55.8100280" lon="49.1418320"><time>2021-08-14T06:42:51</time></trkpt><trkpt lat="55.8100140" lon="49.1418160"><time>2021-08-14T06:42:52</time></trkpt><trkpt lat="55.8100030" lon="49.1417920"><time>2021-08-14T06:42:53</time></trkpt><trkpt lat="55.8099910" lon="49.1417680"><time>2021-08-14T06:42:54</time></trkpt><trkpt lat="55.8099770" lon="49.1417530"><time>2021-08-14T06:42:55</time></trkpt><trkpt lat="55.8099650" lon="49.1417340"><time>2021-08-14T06:42:56</time></trkpt><trkpt lat="55.8099520" lon="49.1417190"><time>2021-08-14T06:42:57</time></trkpt><trkpt lat="55.8099370" lon="49.1417070"><time>2021-08-14T06:42:58</time></trkpt><trkpt lat="55.8099260" lon="49.1416840"><time>2021-08-14T06:42:59</time></trkpt><trkpt lat="55.8099140" lon="49.1416600"><time>2021-08-14T06:43:00</time></trkpt><trkpt lat="55.8099020" lon="49.1416380"><time>2021-08-14T06:43:01</time></trkpt><trkpt lat="55.8098860" lon="49.1416260"><time>2021-08-14T06:43:02</time></trkpt><trkpt lat="55.8098730" lon="49.1416090"><time>2021-08-14T06:43:03</time></trkpt><trkpt lat="55.8098570" lon="49.1415970"><time>2021-08-14T06:43:04</time></trkpt><trkpt lat="55.8098440" lon="49.1415780"><time>2021-08-14T06:43:05</time></trkpt><trkpt lat="55.8098340" lon="49.1415500"><time>2021-08-14T06:43:06</time></trkpt><trkpt lat="55.8098230" lon="49.1415330"><time>2021-08-14T06:43:07</time></trkpt><trkpt lat="55.8098130" lon="49.1415100"><time>2021-08-14T06:43:08</time></trkpt><trkpt lat="55.8097970" lon="49.1415010"><time>2021-08-14T06:43:09</time></trkpt><trkpt lat="55.8097840" lon="49.1414780"><time>2021-08-14T06:43:10</time></trkpt><trkpt lat="55.8097690" lon="49.1414620"><time>2021-08-14T06:43:11</time></trkpt><trkpt lat="55.8097570" lon="49.1414370"><time>2021-08-14T06:43:12</time></trkpt><trkpt lat="55.8097430" lon="49.1414150"><time>2021-08-14T06:43:13</time></trkpt><trkpt lat="55.8097270" lon="49.1414010"><time>2021-08-14T06:43:14</time></trkpt><trkpt lat="55.8097120" lon="49.1413920"><time>2021-08-14T06:43:15</time></trkpt><trkpt lat="55.8096950" lon="49.1413850"><time>2021-08-14T06:43:16</time></trkpt><trkpt lat="55.8096800" lon="49.1413720"><time>2021-08-14T06:43:17</time></trkpt><trkpt lat="55.8096650" lon="49.1413590"><time>2021-08-14T06:43:18</time></trkpt><trkpt lat="55.8096550" lon="49.1413320"><time>2021-08-14T06:43:19</time></trkpt><trkpt lat="55.8096410" lon="49.1413170"><time>2021-08-14T06:43:20</time></trkpt><trkpt lat="55.8096250" lon="49.1413070"><time>2021-08-14T06:43:21</time></trkpt><trkpt lat="55.8096100" lon="49.1412950"><time>2021-08-14T06:43:22</time></trkpt><trkpt lat="55.8095940" lon="49.1412810"><time>2021-08-14T06:43:23</time></trkpt><trkpt lat="55.8095820" lon="49.1412650"><time>2021-08-14T06:43:24</time></trkpt><trkpt lat="55.8095690" lon="49.1412430"><time>2021-08-14T06:43:25</time></trkpt><trkpt lat="55.8095550" lon="49.1412320"><time>2021-08-14T06:43:26</time></trkpt><trkpt lat="55.8095390" lon="49.1412230"><time>2021-08-14T06:43:27</time></trkpt><trkpt lat="55.8095240" lon="49.1412150"><time>2021-08-14T06:43:28</time></trkpt><trkpt lat="55.8095060" lon="49.1412120"><time>2021-08-14T06:43:29</time></trkpt><trkpt lat="55.8094890" lon="49.1412030"><time>2021-08-14T06:43:30</time></trkpt><trkpt lat="55.8094730" lon="49.1411950"><time>2021-08-14T06:43:31</time></trkpt><trkpt lat="55.8094600" lon="49.1411730"><time>2021-08-14T06:43:32</time></trkpt><trkpt lat="55.8094450" lon="49.1411600"><time>2021-08-14T06:43:33</time></trkpt><trkpt lat="55.8094250" lon="49.1411630"><time>2021-08-14T06:43:34</time></trkpt><trkpt lat="55.8094110" lon="49.1411530"><time>2021-08-14T06:43:35</time></trkpt><trkpt lat="55.8093950" lon="49.1411430"><time>2021-08-14T06:43:36</time></trkpt><trkpt lat="55.8093800" lon="49.1411220"><time>2021-08-14T06:43:37</time></trkpt><trkpt lat="55.8093610" lon="49.1411220"><time>2021-08-14T06:43:38</time></trkpt><trkpt lat="55.8093470" lon="49.1411120"><time>2021-08-14T06:43:39</time></trkpt><trkpt lat="55.8093300" lon="49.1411130"><time>2021-08-14T06:43:40</time></trkpt><trkpt lat="55.8093120" lon="49.1411150"><time>2021-08-14T06:43:41</time></trkpt><trkpt lat="55.8092960" lon="49.1410980"><time>2021-08-14T06:43:42</time></trkpt><trkpt lat="55.8092790" lon="49.1410930"><time>2021-08-14T06:43:43</time></trkpt><trkpt lat="55.8092660" lon="49.1410790"><time>2021-08-14T06:43:44</time></trkpt><trkpt lat="55.8092390" lon="49.1410950"><time>2021-08-14T06:43:45</time></trkpt><trkpt lat="55.8092300" lon="49.1411010"><time>2021-08-14T06:43:46</time></trkpt><trkpt lat="55.8092140" lon="49.1411080"><time>2021-08-14T06:43:47</time></trkpt><trkpt lat="55.8091950" lon="49.1410990"><time>2021-08-14T06:43:48</time></trkpt><trkpt lat="55.8091780" lon="49.1411020"><time>2021-08-14T06:43:49</time></trkpt><trkpt lat="55.8091620" lon="49.1411020"><time>2021-08-14T06:43:50</time></trkpt><trkpt lat="55.8091460" lon="49.1411100"><time>2021-08-14T06:43:51</time></trkpt><trkpt lat="55.8091300" lon="49.1411280"><time>2021-08-14T06:43:52</time></trkpt><trkpt lat="55.8091120" lon="49.1411280"><time>2021-08-14T06:43:53</time></trkpt><trkpt lat="55.8090950" lon="49.1411300"><time>2021-08-14T06:43:54</time></trkpt><trkpt lat="55.8090800" lon="49.1411290"><time>2021-08-14T06:43:55</time></trkpt><trkpt lat="55.8090650" lon="49.1411370"><time>2021-08-14T06:43:56</time></trkpt><trkpt lat="55.8090480" lon="49.1411470"><time>2021-08-14T06:43:57</time></trkpt><trkpt lat="55.8090320" lon="49.1411640"><time>2021-08-14T06:43:58</time></trkpt><trkpt lat="55.8090130" lon="49.1411600"><time>2021-08-14T06:43:59</time></trkpt><trkpt lat="55.8089980" lon="49.1411600"><time>2021-08-14T06:44:00</time></trkpt><trkpt lat="55.8089820" lon="49.1411670"><time>2021-08-14T06:44:01</time></trkpt><trkpt lat="55.8089660" lon="49.1411790"><time>2021-08-14T06:44:02</time></trkpt><trkpt lat="55.8089410" lon="49.1412000"><time>2021-08-14T06:44:03</time></trkpt><trkpt lat="55.8089310" lon="49.1412020"><time>2021-08-14T06:44:04</time></trkpt><trkpt lat="55.8088990" lon="49.1411980"><time>2021-08-14T06:44:05</time></trkpt><trkpt lat="55.8088910" lon="49.1412030"><time>2021-08-14T06:44:06</time></trkpt><trkpt lat="55.8088640" lon="49.1412310"><time>2021-08-14T06:44:07</time></trkpt><trkpt lat="55.8088540" lon="49.1412380"><time>2021-08-14T06:44:08</time></trkpt><trkpt lat="55.8088250" lon="49.1412410"><time>2021-08-14T06:44:09</time></trkpt><trkpt lat="55.8088170" lon="49.1412410"><time>2021-08-14T06:44:10</time></trkpt><trkpt lat="55.8088020" lon="49.1412520"><time>2021-08-14T06:44:11</time></trkpt><trkpt lat="55.8087880" lon="49.1412620"><time>2021-08-14T06:44:12</time></trkpt><trkpt lat="55.8087600" lon="49.1412800"><time>2021-08-14T06:44:13</time></trkpt><trkpt lat="55.8087470" lon="49.1412840"><time>2021-08-14T06:44:14</time></trkpt><trkpt lat="55.8087300" lon="49.1412960"><time>2021-08-14T06:44:15</time></trkpt><trkpt lat="55.8087160" lon="49.1412900"><time>2021-08-14T06:44:16</time></trkpt><trkpt lat="55.8086900" lon="49.1413070"><time>2021-08-14T06:44:17</time></trkpt><trkpt lat="55.8086810" lon="49.1413130"><time>2021-08-14T06:44:18</time></trkpt><trkpt lat="55.8086550" lon="49.1413300"><time>2021-08-14T06:44:19</time></trkpt><trkpt lat="55.8086450" lon="49.1413310"><time>2021-08-14T06:44:20</time></trkpt><trkpt lat="55.8086280" lon="49.1413360"><time>2021-08-14T06:44:21</time></trkpt><trkpt lat="55.8086140" lon="49.1413400"><time>2021-08-14T06:44:22</time></trkpt><trkpt lat="55.8085890" lon="49.1413570"><time>2021-08-14T06:44:23</time></trkpt><trkpt lat="55.8085810" lon="49.1413680"><time>2021-08-14T06:44:24</time></trkpt><trkpt lat="55.8085550" lon="49.1413900"><time>2021-08-14T06:44:25</time></trkpt><trkpt lat="55.8085470" lon="49.1413970"><time>2021-08-14T06:44:26</time></trkpt><trkpt lat="55.8085310" lon="49.1414000"><time>2021-08-14T06:44:27</time></trkpt><trkpt lat="55.8085180" lon="49.1414100"><time>2021-08-14T06:44:28</time></trkpt><trkpt lat="55.8084960" lon="49.1414380"><time>2021-08-14T06:44:29</time></trkpt><trkpt lat="55.8084860" lon="49.1414490"><time>2021-08-14T06:44:30</time></trkpt><trkpt lat="55.8084720" lon="49.1414670"><time>2021-08-14T06:44:31</time></trkpt><trkpt lat="55.8084550" lon="49.1414770"><time>2021-08-14T06:44:32</time></trkpt><trkpt lat="55.8084350" lon="49.1414910"><time>2021-08-14T06:44:33</time></trkpt><trkpt lat="55.8084260" lon="49.1415000"><time>2021-08-14T06:44:34</time></trkpt><trkpt lat="55.8084180" lon="49.1415100"><time>2021-08-14T06:44:35</time></trkpt><trkpt lat="55.8083960" lon="49.1415490"><time>2021-08-14T06:44:36</time></trkpt><trkpt lat="55.8083900" lon="49.1415570"><time>2021-08-14T06:44:37</time></trkpt><trkpt lat="55.8083690" lon="49.1415640"><time>2021-08-14T06:44:38</time></trkpt><trkpt lat="55.8083560" lon="49.1415710"><time>2021-08-14T06:44:39</time></trkpt><trkpt lat="55.8083410" lon="49.1415820"><time>2021-08-14T06:44:40</time></trkpt><trkpt lat="55.8083290" lon="49.1416060"><time>2021-08-14T06:44:41</time></trkpt><trkpt lat="55.8083060" lon="49.1416290"><time>2021-08-14T06:44:42</time></trkpt><trkpt lat="55.8082950" lon="49.1416350"><time>2021-08-14T06:44:43</time></trkpt><trkpt lat="55.8082800" lon="49.1416470"><time>2021-08-14T06:44:44</time></trkpt><trkpt lat="55.8082650" lon="49.1416540"><time>2021-08-14T06:44:45</time></trkpt><trkpt lat="55.8082460" lon="49.1416770"><time>2021-08-14T06:44:46</time></trkpt><trkpt lat="55.8082380" lon="49.1416890"><time>2021-08-14T06:44:47</time></trkpt><trkpt lat="55.8082290" lon="49.1417000"><time>2021-08-14T06:44:48</time></trkpt><trkpt lat="55.8082010" lon="49.1417190"><time>2021-08-14T06:44:49</time></trkpt><trkpt lat="55.8081910" lon="49.1417220"><time>2021-08-14T06:44:50</time></trkpt><trkpt lat="55.8081720" lon="49.1417180"><time>2021-08-14T06:44:51</time></trkpt><trkpt lat="55.8081590" lon="49.1417130"><time>2021-08-14T06:44:52</time></trkpt><trkpt lat="55.8081380" lon="49.1417040"><time>2021-08-14T06:44:53</time></trkpt><trkpt lat="55.8081290" lon="49.1416960"><time>2021-08-14T06:44:54</time></trkpt><trkpt lat="55.8081200" lon="49.1416890"><time>2021-08-14T06:44:55</time></trkpt><trkpt lat="55.8081020" lon="49.1416660"><time>2021-08-14T06:44:56</time></trkpt><trkpt lat="55.8080950" lon="49.1416570"><time>2021-08-14T06:44:57</time></trkpt><trkpt lat="55.8080870" lon="49.1416490"><time>2021-08-14T06:44:58</time></trkpt><trkpt lat="55.8080750" lon="49.1416300"><time>2021-08-14T06:44:59</time></trkpt><trkpt lat="55.8080660" lon="49.1416120"><time>2021-08-14T06:45:00</time></trkpt><trkpt lat="55.8080560" lon="49.1415940"><time>2021-08-14T06:45:01</time></trkpt><trkpt lat="55.8080500" lon="49.1415690"><time>2021-08-14T06:45:02</time></trkpt><trkpt lat="55.8080390" lon="49.1415360"><time>2021-08-14T06:45:03</time></trkpt><trkpt lat="55.8080380" lon="49.1415200"><time>2021-08-14T06:45:04</time></trkpt><trkpt lat="55.8080360" lon="49.1415040"><time>2021-08-14T06:45:05</time></trkpt><trkpt lat="55.8080350" lon="49.1414820"><time>2021-08-14T06:45:06</time></trkpt><trkpt lat="55.8080430" lon="49.1414540"><time>2021-08-14T06:45:07</time></trkpt><trkpt lat="55.8080560" lon="49.1414330"><time>2021-08-14T06:45:08</time></trkpt><trkpt lat="55.8080690" lon="49.1414150"><time>2021-08-14T06:45:09</time></trkpt><trkpt lat="55.8080810" lon="49.1413960"><time>2021-08-14T06:45:10</time></trkpt><trkpt lat="55.8080920" lon="49.1413790"><time>2021-08-14T06:45:11</time></trkpt><trkpt lat="55.8080980" lon="49.1413570"><time>2021-08-14T06:45:12</time></trkpt><trkpt lat="55.8081000" lon="49.1413280"><time>2021-08-14T06:45:13</time></trkpt><trkpt lat="55.8080950" lon="49.1412980"><time>2021-08-14T06:45:14</time></trkpt><trkpt lat="55.8080840" lon="49.1412710"><time>2021-08-14T06:45:15</time></trkpt><trkpt lat="55.8080770" lon="49.1412440"><time>2021-08-14T06:45:16</time></trkpt><trkpt lat="55.8080760" lon="49.1412150"><time>2021-08-14T06:45:17</time></trkpt><trkpt lat="55.8080660" lon="49.1411970"><time>2021-08-14T06:45:18</time></trkpt><trkpt lat="55.8080550" lon="49.1411790"><time>2021-08-14T06:45:19</time></trkpt><trkpt lat="55.8080420" lon="49.1411620"><time>2021-08-14T06:45:20</time></trkpt><trkpt lat="55.8080310" lon="49.1411400"><time>2021-08-14T06:45:21</time></trkpt><trkpt lat="55.8080200" lon="49.1411180"><time>2021-08-14T06:45:22</time></trkpt><trkpt lat="55.8080060" lon="49.1411120"><time>2021-08-14T06:45:23</time></trkpt><trkpt lat="55.8079920" lon="49.1411030"><time>2021-08-14T06:45:24</time></trkpt><trkpt lat="55.8079880" lon="49.1410850"><time>2021-08-14T06:45:25</time></trkpt><trkpt lat="55.8079970" lon="49.1410610"><time>2021-08-14T06:45:26</time></trkpt><trkpt lat="55.8080190" lon="49.1410180"><time>2021-08-14T06:45:27</time></trkpt><trkpt lat="55.8080230" lon="49.1410020"><time>2021-08-14T06:45:28</time></trkpt><trkpt lat="55.8080410" lon="49.1409580"><time>2021-08-14T06:45:29</time></trkpt><trkpt lat="55.8080460" lon="49.1409480"><time>2021-08-14T06:45:30</time></trkpt><trkpt lat="55.8080500" lon="49.1409160"><time>2021-08-14T06:45:31</time></trkpt><trkpt lat="55.8080540" lon="49.1409000"><time>2021-08-14T06:45:32</time></trkpt><trkpt lat="55.8080580" lon="49.1408850"><time>2021-08-14T06:45:33</time></trkpt><trkpt lat="55.8080670" lon="49.1408610"><time>2021-08-14T06:45:34</time></trkpt><trkpt lat="55.8080750" lon="49.1408360"><time>2021-08-14T06:45:35</time></trkpt><trkpt lat="55.8080840" lon="49.1408120"><time>2021-08-14T06:45:36</time></trkpt><trkpt lat="55.8080880" lon="49.1407870"><time>2021-08-14T06:45:37</time></trkpt><trkpt lat="55.8080940" lon="49.1407610"><time>2021-08-14T06:45:38</time></trkpt><trkpt lat="55.8081070" lon="49.1407410"><time>2021-08-14T06:45:39</time></trkpt><trkpt lat="55.8081130" lon="49.1407130"><time>2021-08-14T06:45:40</time></trkpt><trkpt lat="55.8081210" lon="49.1406860"><time>2021-08-14T06:45:41</time></trkpt><trkpt lat="55.8081300" lon="49.1406640"><time>2021-08-14T06:45:42</time></trkpt><trkpt lat="55.8081330" lon="49.1406350"><time>2021-08-14T06:45:43</time></trkpt><trkpt lat="55.8081400" lon="49.1406110"><time>2021-08-14T06:45:44</time></trkpt><trkpt lat="55.8081490" lon="49.1405890"><time>2021-08-14T06:45:45</time></trkpt><trkpt lat="55.8081570" lon="49.1405650"><time>2021-08-14T06:45:46</time></trkpt><trkpt lat="55.8081640" lon="49.1405380"><time>2021-08-14T06:45:47</time></trkpt><trkpt lat="55.8081710" lon="49.1405100"><time>2021-08-14T06:45:48</time></trkpt><trkpt lat="55.8081830" lon="49.1404910"><time>2021-08-14T06:45:49</time></trkpt><trkpt lat="55.8081880" lon="49.1404660"><time>2021-08-14T06:45:50</time></trkpt><trkpt lat="55.8081960" lon="49.1404460"><time>2021-08-14T06:45:51</time></trkpt><trkpt lat="55.8082040" lon="49.1404190"><time>2021-08-14T06:45:52</time></trkpt><trkpt lat="55.8082090" lon="49.1403920"><time>2021-08-14T06:45:53</time></trkpt><trkpt lat="55.8082200" lon="49.1403700"><time>2021-08-14T06:45:54</time></trkpt><trkpt lat="55.8082270" lon="49.1403420"><time>2021-08-14T06:45:55</time></trkpt><trkpt lat="55.8082350" lon="49.1403160"><time>2021-08-14T06:45:56</time></trkpt><trkpt lat="55.8082400" lon="49.1402900"><time>2021-08-14T06:45:57</time></trkpt><trkpt lat="55.8082470" lon="49.1402660"><time>2021-08-14T06:45:58</time></trkpt><trkpt lat="55.8082500" lon="49.1402350"><time>2021-08-14T06:45:59</time></trkpt><trkpt lat="55.8082590" lon="49.1402090"><time>2021-08-14T06:46:00</time></trkpt><trkpt lat="55.8082680" lon="49.1401840"><time>2021-08-14T06:46:01</time></trkpt><trkpt lat="55.8082800" lon="49.1401620"><time>2021-08-14T06:46:02</time></trkpt><trkpt lat="55.8082860" lon="49.1401370"><time>2021-08-14T06:46:03</time></trkpt><trkpt lat="55.8082890" lon="49.1401080"><time>2021-08-14T06:46:04</time></trkpt><trkpt lat="55.8082960" lon="49.1400840"><time>2021-08-14T06:46:05</time></trkpt><trkpt lat="55.8083010" lon="49.1400560"><time>2021-08-14T06:46:06</time></trkpt><trkpt lat="55.8083120" lon="49.1400290"><time>2021-08-14T06:46:07</time></trkpt><trkpt lat="55.8083220" lon="49.1400030"><time>2021-08-14T06:46:08</time></trkpt><trkpt lat="55.8083300" lon="49.1399770"><time>2021-08-14T06:46:09</time></trkpt><trkpt lat="55.8083340" lon="49.1399500"><time>2021-08-14T06:46:10</time></trkpt><trkpt lat="55.8083350" lon="49.1399170"><time>2021-08-14T06:46:11</time></trkpt><trkpt lat="55.8083450" lon="49.1398910"><time>2021-08-14T06:46:12</time></trkpt><trkpt lat="55.8083540" lon="49.1398660"><time>2021-08-14T06:46:13</time></trkpt><trkpt lat="55.8083680" lon="49.1398440"><time>2021-08-14T06:46:14</time></trkpt><trkpt lat="55.8083790" lon="49.1398230"><time>2021-08-14T06:46:15</time></trkpt><trkpt lat="55.8083850" lon="49.1397980"><time>2021-08-14T06:46:16</time></trkpt><trkpt lat="55.8083900" lon="49.1397730"><time>2021-08-14T06:46:17</time></trkpt><trkpt lat="55.8083960" lon="49.1397450"><time>2021-08-14T06:46:18</time></trkpt><trkpt lat="55.8084010" lon="49.1397170"><time>2021-08-14T06:46:19</time></trkpt><trkpt lat="55.8084100" lon="49.1396900"><time>2021-08-14T06:46:20</time></trkpt><trkpt lat="55.8084190" lon="49.1396650"><time>2021-08-14T06:46:21</time></trkpt><trkpt lat="55.8084300" lon="49.1396430"><time>2021-08-14T06:46:22</time></trkpt><trkpt lat="55.8084360" lon="49.1396180"><time>2021-08-14T06:46:23</time></trkpt><trkpt lat="55.8084400" lon="49.1395910"><time>2021-08-14T06:46:24</time></trkpt><trkpt lat="55.8084460" lon="49.1395640"><time>2021-08-14T06:46:25</time></trkpt><trkpt lat="55.8084550" lon="49.1395400"><time>2021-08-14T06:46:26</time></trkpt><trkpt lat="55.8084640" lon="49.1395140"><time>2021-08-14T06:46:27</time></trkpt><trkpt lat="55.8084740" lon="49.1394910"><time>2021-08-14T06:46:28</time></trkpt><trkpt lat="55.8084830" lon="49.1394670"><time>2021-08-14T06:46:29</time></trkpt><trkpt lat="55.8084920" lon="49.1394440"><time>2021-08-14T06:46:30</time></trkpt><trkpt lat="55.8084990" lon="49.1394180"><time>2021-08-14T06:46:31</time></trkpt><trkpt lat="55.8085040" lon="49.1393900"><time>2021-08-14T06:46:32</time></trkpt><trkpt lat="55.8085110" lon="49.1393640"><time>2021-08-14T06:46:33</time></trkpt><trkpt lat="55.8085200" lon="49.1393400"><time>2021-08-14T06:46:34</time></trkpt><trkpt lat="55.8085310" lon="49.1393160"><time>2021-08-14T06:46:35</time></trkpt><trkpt lat="55.8085390" lon="49.1392930"><time>2021-08-14T06:46:36</time></trkpt><trkpt lat="55.8085480" lon="49.1392720"><time>2021-08-14T06:46:37</time></trkpt><trkpt lat="55.8085500" lon="49.1392410"><time>2021-08-14T06:46:38</time></trkpt><trkpt lat="55.8085550" lon="49.1392150"><time>2021-08-14T06:46:39</time></trkpt><trkpt lat="55.8085650" lon="49.1391920"><time>2021-08-14T06:46:40</time></trkpt><trkpt lat="55.8085760" lon="49.1391690"><time>2021-08-14T06:46:41</time></trkpt><trkpt lat="55.8085850" lon="49.1391450"><time>2021-08-14T06:46:42</time></trkpt><trkpt lat="55.8085940" lon="49.1391180"><time>2021-08-14T06:46:43</time></trkpt><trkpt lat="55.8086020" lon="49.1390970"><time>2021-08-14T06:46:44</time></trkpt><trkpt lat="55.8086080" lon="49.1390730"><time>2021-08-14T06:46:45</time></trkpt><trkpt lat="55.8086150" lon="49.1390470"><time>2021-08-14T06:46:46</time></trkpt><trkpt lat="55.8086220" lon="49.1390200"><time>2021-08-14T06:46:47</time></trkpt><trkpt lat="55.8086320" lon="49.1389960"><time>2021-08-14T06:46:48</time></trkpt><trkpt lat="55.8086430" lon="49.1389760"><time>2021-08-14T06:46:49</time></trkpt><trkpt lat="55.8086510" lon="49.1389500"><time>2021-08-14T06:46:50</time></trkpt><trkpt lat="55.8086580" lon="49.1389270"><time>2021-08-14T06:46:51</time></trkpt><trkpt lat="55.8086640" lon="49.1389020"><time>2021-08-14T06:46:52</time></trkpt><trkpt lat="55.8086720" lon="49.1388810"><time>2021-08-14T06:46:53</time></trkpt><trkpt lat="55.8086760" lon="49.1388530"><time>2021-08-14T06:46:54</time></trkpt><trkpt lat="55.8086870" lon="49.1388330"><time>2021-08-14T06:46:55</time></trkpt><trkpt lat="55.8086990" lon="49.1388140"><time>2021-08-14T06:46:56</time></trkpt><trkpt lat="55.8087060" lon="49.1387880"><time>2021-08-14T06:46:57</time></trkpt><trkpt lat="55.8087100" lon="49.1387600"><time>2021-08-14T06:46:58</time></trkpt><trkpt lat="55.8087190" lon="49.1387360"><time>2021-08-14T06:46:59</time></trkpt><trkpt lat="55.8087260" lon="49.1387120"><time>2021-08-14T06:47:00</time></trkpt><trkpt lat="55.8087330" lon="49.1386830"><time>2021-08-14T06:47:01</time></trkpt><trkpt lat="55.8087410" lon="49.1386570"><time>2021-08-14T06:47:02</time></trkpt><trkpt lat="55.8087470" lon="49.1386310"><time>2021-08-14T06:47:03</time></trkpt><trkpt lat="55.8087560" lon="49.1386080"><time>2021-08-14T06:47:04</time></trkpt><trkpt lat="55.8087630" lon="49.1385840"><time>2021-08-14T06:47:05</time></trkpt><trkpt lat="55.8087700" lon="49.1385590"><time>2021-08-14T06:47:06</time></trkpt><trkpt lat="55.8087800" lon="49.1385390"><time>2021-08-14T06:47:07</time></trkpt><trkpt lat="55.8087890" lon="49.1385150"><time>2021-08-14T06:47:08</time></trkpt><trkpt lat="55.8087990" lon="49.1384940"><time>2021-08-14T06:47:09</time></trkpt><trkpt lat="55.8088090" lon="49.1384740"><time>2021-08-14T06:47:10</time></trkpt><trkpt lat="55.8088220" lon="49.1384500"><time>2021-08-14T06:47:11</time></trkpt><trkpt lat="55.8088260" lon="49.1384180"><time>2021-08-14T06:47:12</time></trkpt><trkpt lat="55.8088310" lon="49.1383930"><time>2021-08-14T06:47:13</time></trkpt><trkpt lat="55.8088420" lon="49.1383690"><time>2021-08-14T06:47:14</time></trkpt><trkpt lat="55.8088490" lon="49.1383500"><time>2021-08-14T06:47:15</time></trkpt><trkpt lat="55.8088570" lon="49.1383310"><time>2021-08-14T06:47:16</time></trkpt><trkpt lat="55.8088620" lon="49.1383100"><time>2021-08-14T06:47:17</time></trkpt><trkpt lat="55.8088730" lon="49.1382900"><time>2021-08-14T06:47:18</time></trkpt><trkpt lat="55.8088800" lon="49.1382620"><time>2021-08-14T06:47:19</time></trkpt><trkpt lat="55.8088860" lon="49.1382480"><time>2021-08-14T06:47:20</time></trkpt><trkpt lat="55.8088910" lon="49.1382350"><time>2021-08-14T06:47:21</time></trkpt><trkpt lat="55.8088830" lon="49.1382120"><time>2021-08-14T06:47:22</time></trkpt><trkpt lat="55.8088720" lon="49.1382130"><time>2021-08-14T06:47:23</time></trkpt><trkpt lat="55.8088610" lon="49.1382130"><time>2021-08-14T06:47:24</time></trkpt><trkpt lat="55.8088500" lon="49.1382140"><time>2021-08-14T06:47:25</time></trkpt><trkpt lat="55.8088370" lon="49.1381990"><time>2021-08-14T06:47:26</time></trkpt><trkpt lat="55.8088230" lon="49.1381850"><time>2021-08-14T06:47:27</time></trkpt><trkpt lat="55.8088200" lon="49.1381800"><time>2021-08-14T06:47:28</time></trkpt><trkpt lat="55.8088080" lon="49.1381630"><time>2021-08-14T06:47:29</time></trkpt><trkpt lat="55.8088040" lon="49.1381550"><time>2021-08-14T06:47:30</time></trkpt><trkpt lat="55.8088020" lon="49.1381530"><time>2021-08-14T06:47:31</time></trkpt><trkpt lat="55.8087960" lon="49.1381550"><time>2021-08-14T06:47:32</time></trkpt><trkpt lat="55.8087940" lon="49.1381580"><time>2021-08-14T06:47:33</time></trkpt><trkpt lat="55.8087920" lon="49.1381610"><time>2021-08-14T06:47:34</time></trkpt><trkpt lat="55.8087890" lon="49.1381630"><time>2021-08-14T06:47:35</time></trkpt><trkpt lat="55.8087870" lon="49.1381660"><time>2021-08-14T06:47:36</time></trkpt><trkpt lat="55.8087850" lon="49.1381690"><time>2021-08-14T06:47:37</time></trkpt><trkpt lat="55.8087830" lon="49.1381720"><time>2021-08-14T06:47:38</time></trkpt><trkpt lat="55.8087810" lon="49.1381750"><time>2021-08-14T06:47:39</time></trkpt><trkpt lat="55.8087790" lon="49.1381780"><time>2021-08-14T06:47:40</time></trkpt><trkpt lat="55.8087770" lon="49.1381810"><time>2021-08-14T06:47:41</time></trkpt><trkpt lat="55.8087740" lon="49.1381830"><time>2021-08-14T06:47:42</time></trkpt><trkpt lat="55.8087720" lon="49.1381860"><time>2021-08-14T06:47:43</time></trkpt><trkpt lat="55.8087700" lon="49.1381890"><time>2021-08-14T06:47:44</time></trkpt><trkpt lat="55.8087680" lon="49.1381920"><time>2021-08-14T06:47:45</time></trkpt><trkpt lat="55.8087550" lon="49.1382350"><time>2021-08-14T06:47:46</time></trkpt><trkpt lat="55.8087540" lon="49.1382590"><time>2021-08-14T06:47:47</time></trkpt><trkpt lat="55.8087420" lon="49.1382810"><time>2021-08-14T06:47:48</time></trkpt><trkpt lat="55.8087310" lon="49.1383060"><time>2021-08-14T06:47:49</time></trkpt><trkpt lat="55.8087230" lon="49.1383380"><time>2021-08-14T06:47:50</time></trkpt><trkpt lat="55.8087140" lon="49.1383560"><time>2021-08-14T06:47:51</time></trkpt><trkpt lat="55.8087050" lon="49.1383800"><time>2021-08-14T06:47:52</time></trkpt><trkpt lat="55.8087030" lon="49.1384010"><time>2021-08-14T06:47:53</time></trkpt><trkpt lat="55.8086980" lon="49.1384060"><time>2021-08-14T06:47:54</time></trkpt><trkpt lat="55.8086970" lon="49.1384090"><time>2021-08-14T06:47:55</time></trkpt><trkpt lat="55.8086960" lon="49.1384120"><time>2021-08-14T06:47:56</time></trkpt><trkpt lat="55.8086960" lon="49.1384150"><time>2021-08-14T06:47:57</time></trkpt><trkpt lat="55.8086950" lon="49.1384180"><time>2021-08-14T06:47:58</time></trkpt><trkpt lat="55.8086940" lon="49.1384200"><time>2021-08-14T06:47:59</time></trkpt><trkpt lat="55.8086930" lon="49.1384230"><time>2021-08-14T06:48:00</time></trkpt><trkpt lat="55.8086920" lon="49.1384260"><time>2021-08-14T06:48:01</time></trkpt><trkpt lat="55.8086910" lon="49.1384290"><time>2021-08-14T06:48:02</time></trkpt><trkpt lat="55.8086910" lon="49.1384320"><time>2021-08-14T06:48:03</time></trkpt><trkpt lat="55.8086900" lon="49.1384350"><time>2021-08-14T06:48:04</time></trkpt><trkpt lat="55.8086890" lon="49.1384380"><time>2021-08-14T06:48:05</time></trkpt><trkpt lat="55.8086880" lon="49.1384410"><time>2021-08-14T06:48:06</time></trkpt><trkpt lat="55.8086870" lon="49.1384440"><time>2021-08-14T06:48:07</time></trkpt><trkpt lat="55.8086860" lon="49.1384470"><time>2021-08-14T06:48:08</time></trkpt><trkpt lat="55.8086850" lon="49.1384490"><time>2021-08-14T06:48:09</time></trkpt><trkpt lat="55.8086850" lon="49.1384520"><time>2021-08-14T06:48:10</time></trkpt><trkpt lat="55.8086840" lon="49.1384550"><time>2021-08-14T06:48:11</time></trkpt><trkpt lat="55.8086830" lon="49.1384580"><time>2021-08-14T06:48:12</time></trkpt><trkpt lat="55.8086820" lon="49.1384610"><time>2021-08-14T06:48:13</time></trkpt><trkpt lat="55.8086710" lon="49.1384940"><time>2021-08-14T06:48:14</time></trkpt><trkpt lat="55.8086680" lon="49.1385060"><time>2021-08-14T06:48:15</time></trkpt><trkpt lat="55.8086650" lon="49.1385190"><time>2021-08-14T06:48:16</time></trkpt><trkpt lat="55.8086480" lon="49.1385590"><time>2021-08-14T06:48:17</time></trkpt><trkpt lat="55.8086340" lon="49.1385940"><time>2021-08-14T06:48:18</time></trkpt><trkpt lat="55.8086290" lon="49.1386050"><time>2021-08-14T06:48:19</time></trkpt><trkpt lat="55.8086250" lon="49.1386150"><time>2021-08-14T06:48:20</time></trkpt><trkpt lat="55.8086070" lon="49.1386560"><time>2021-08-14T06:48:21</time></trkpt><trkpt lat="55.8086040" lon="49.1386730"><time>2021-08-14T06:48:22</time></trkpt><trkpt lat="55.8085900" lon="49.1387180"><time>2021-08-14T06:48:23</time></trkpt><trkpt lat="55.8085860" lon="49.1387320"><time>2021-08-14T06:48:24</time></trkpt><trkpt lat="55.8085790" lon="49.1387400"><time>2021-08-14T06:48:25</time></trkpt><trkpt lat="55.8085690" lon="49.1387700"><time>2021-08-14T06:48:26</time></trkpt><trkpt lat="55.8085540" lon="49.1388220"><time>2021-08-14T06:48:27</time></trkpt><trkpt lat="55.8085520" lon="49.1388360"><time>2021-08-14T06:48:28</time></trkpt><trkpt lat="55.8085360" lon="49.1388800"><time>2021-08-14T06:48:29</time></trkpt><trkpt lat="55.8085310" lon="49.1388900"><time>2021-08-14T06:48:30</time></trkpt><trkpt lat="55.8085250" lon="49.1389020"><time>2021-08-14T06:48:31</time></trkpt><trkpt lat="55.8085130" lon="49.1389370"><time>2021-08-14T06:48:32</time></trkpt><trkpt lat="55.8085010" lon="49.1389840"><time>2021-08-14T06:48:33</time></trkpt><trkpt lat="55.8084970" lon="49.1389990"><time>2021-08-14T06:48:34</time></trkpt><trkpt lat="55.8084880" lon="49.1390190"><time>2021-08-14T06:48:35</time></trkpt><trkpt lat="55.8084800" lon="49.1390360"><time>2021-08-14T06:48:36</time></trkpt><trkpt lat="55.8084690" lon="49.1390610"><time>2021-08-14T06:48:37</time></trkpt><trkpt lat="55.8084630" lon="49.1390930"><time>2021-08-14T06:48:38</time></trkpt><trkpt lat="55.8084450" lon="49.1391350"><time>2021-08-14T06:48:39</time></trkpt><trkpt lat="55.8084400" lon="49.1391470"><time>2021-08-14T06:48:40</time></trkpt><trkpt lat="55.8084340" lon="49.1391720"><time>2021-08-14T06:48:41</time></trkpt><trkpt lat="55.8084240" lon="49.1391930"><time>2021-08-14T06:48:42</time></trkpt><trkpt lat="55.8084130" lon="49.1392150"><time>2021-08-14T06:48:43</time></trkpt><trkpt lat="55.8084040" lon="49.1392460"><time>2021-08-14T06:48:44</time></trkpt><trkpt lat="55.8083950" lon="49.1392950"><time>2021-08-14T06:48:45</time></trkpt><trkpt lat="55.8083910" lon="49.1393080"><time>2021-08-14T06:48:46</time></trkpt><trkpt lat="55.8083810" lon="49.1393290"><time>2021-08-14T06:48:47</time></trkpt><trkpt lat="55.8083740" lon="49.1393500"><time>2021-08-14T06:48:48</time></trkpt><trkpt lat="55.8083660" lon="49.1393690"><time>2021-08-14T06:48:49</time></trkpt><trkpt lat="55.8083560" lon="49.1393990"><time>2021-08-14T06:48:50</time></trkpt><trkpt lat="55.8083440" lon="49.1394470"><time>2021-08-14T06:48:51</time></trkpt><trkpt lat="55.8083390" lon="49.1394570"><time>2021-08-14T06:48:52</time></trkpt><trkpt lat="55.8083310" lon="49.1394980"><time>2021-08-14T06:48:53</time></trkpt><trkpt lat="55.8083250" lon="49.1395130"><time>2021-08-14T06:48:54</time></trkpt><trkpt lat="55.8083190" lon="49.1395290"><time>2021-08-14T06:48:55</time></trkpt><trkpt lat="55.8083120" lon="49.1395810"><time>2021-08-14T06:48:56</time></trkpt><trkpt lat="55.8083070" lon="49.1395930"><time>2021-08-14T06:48:57</time></trkpt><trkpt lat="55.8083020" lon="49.1396170"><time>2021-08-14T06:48:58</time></trkpt><trkpt lat="55.8082960" lon="49.1396410"><time>2021-08-14T06:48:59</time></trkpt><trkpt lat="55.8082890" lon="49.1396690"><time>2021-08-14T06:49:00</time></trkpt><trkpt lat="55.8082780" lon="49.1396960"><time>2021-08-14T06:49:01</time></trkpt><trkpt lat="55.8082630" lon="49.1397390"><time>2021-08-14T06:49:02</time></trkpt><trkpt lat="55.8082590" lon="49.1397530"><time>2021-08-14T06:49:03</time></trkpt><trkpt lat="55.8082550" lon="49.1397800"><time>2021-08-14T06:49:04</time></trkpt><trkpt lat="55.8082490" lon="49.1398070"><time>2021-08-14T06:49:05</time></trkpt><trkpt lat="55.8082450" lon="49.1398320"><time>2021-08-14T06:49:06</time></trkpt><trkpt lat="55.8082360" lon="49.1398620"><time>2021-08-14T06:49:07</time></trkpt><trkpt lat="55.8082320" lon="49.1398950"><time>2021-08-14T06:49:08</time></trkpt><trkpt lat="55.8082210" lon="49.1399150"><time>2021-08-14T06:49:09</time></trkpt><trkpt lat="55.8082140" lon="49.1399370"><time>2021-08-14T06:49:10</time></trkpt><trkpt lat="55.8082110" lon="49.1399620"><time>2021-08-14T06:49:11</time></trkpt><trkpt lat="55.8081970" lon="49.1400030"><time>2021-08-14T06:49:12</time></trkpt><trkpt lat="55.8081920" lon="49.1400190"><time>2021-08-14T06:49:13</time></trkpt><trkpt lat="55.8081800" lon="49.1400480"><time>2021-08-14T06:49:14</time></trkpt><trkpt lat="55.8081760" lon="49.1400760"><time>2021-08-14T06:49:15</time></trkpt><trkpt lat="55.8081740" lon="49.1400990"><time>2021-08-14T06:49:16</time></trkpt><trkpt lat="55.8081660" lon="49.1401230"><time>2021-08-14T06:49:17</time></trkpt><trkpt lat="55.8081500" lon="49.1401690"><time>2021-08-14T06:49:18</time></trkpt><trkpt lat="55.8081450" lon="49.1401840"><time>2021-08-14T06:49:19</time></trkpt><trkpt lat="55.8081390" lon="49.1402110"><time>2021-08-14T06:49:20</time></trkpt><trkpt lat="55.8081350" lon="49.1402360"><time>2021-08-14T06:49:21</time></trkpt><trkpt lat="55.8081300" lon="49.1402680"><time>2021-08-14T06:49:22</time></trkpt><trkpt lat="55.8081200" lon="49.1402900"><time>2021-08-14T06:49:23</time></trkpt><trkpt lat="55.8081010" lon="49.1403310"><time>2021-08-14T06:49:24</time></trkpt><trkpt lat="55.8080980" lon="49.1403450"><time>2021-08-14T06:49:25</time></trkpt><trkpt lat="55.8080940" lon="49.1403710"><time>2021-08-14T06:49:26</time></trkpt><trkpt lat="55.8080900" lon="49.1403930"><time>2021-08-14T06:49:27</time></trkpt><trkpt lat="55.8080830" lon="49.1404390"><time>2021-08-14T06:49:28</time></trkpt><trkpt lat="55.8080800" lon="49.1404550"><time>2021-08-14T06:49:29</time></trkpt><trkpt lat="55.8080740" lon="49.1404850"><time>2021-08-14T06:49:30</time></trkpt><trkpt lat="55.8080610" lon="49.1405060"><time>2021-08-14T06:49:31</time></trkpt><trkpt lat="55.8080510" lon="49.1405240"><time>2021-08-14T06:49:32</time></trkpt><trkpt lat="55.8080450" lon="49.1405490"><time>2021-08-14T06:49:33</time></trkpt><trkpt lat="55.8080300" lon="49.1405940"><time>2021-08-14T06:49:34</time></trkpt><trkpt lat="55.8080230" lon="49.1406100"><time>2021-08-14T06:49:35</time></trkpt><trkpt lat="55.8080170" lon="49.1406370"><time>2021-08-14T06:49:36</time></trkpt><trkpt lat="55.8080120" lon="49.1406630"><time>2021-08-14T06:49:37</time></trkpt><trkpt lat="55.8080030" lon="49.1406950"><time>2021-08-14T06:49:38</time></trkpt><trkpt lat="55.8079990" lon="49.1407160"><time>2021-08-14T06:49:39</time></trkpt><trkpt lat="55.8079840" lon="49.1407620"><time>2021-08-14T06:49:40</time></trkpt><trkpt lat="55.8079800" lon="49.1407760"><time>2021-08-14T06:49:41</time></trkpt><trkpt lat="55.8079750" lon="49.1408030"><time>2021-08-14T06:49:42</time></trkpt><trkpt lat="55.8079680" lon="49.1408210"><time>2021-08-14T06:49:43</time></trkpt><trkpt lat="55.8079620" lon="49.1408460"><time>2021-08-14T06:49:44</time></trkpt><trkpt lat="55.8079510" lon="49.1408790"><time>2021-08-14T06:49:45</time></trkpt><trkpt lat="55.8079430" lon="49.1409100"><time>2021-08-14T06:49:46</time></trkpt><trkpt lat="55.8079390" lon="49.1409350"><time>2021-08-14T06:49:47</time></trkpt><trkpt lat="55.8079320" lon="49.1409600"><time>2021-08-14T06:49:48</time></trkpt><trkpt lat="55.8079240" lon="49.1409840"><time>2021-08-14T06:49:49</time></trkpt><trkpt lat="55.8079090" lon="49.1410270"><time>2021-08-14T06:49:50</time></trkpt><trkpt lat="55.8079030" lon="49.1410440"><time>2021-08-14T06:49:51</time></trkpt><trkpt lat="55.8078960" lon="49.1410720"><time>2021-08-14T06:49:52</time></trkpt><trkpt lat="55.8078890" lon="49.1410950"><time>2021-08-14T06:49:53</time></trkpt><trkpt lat="55.8078830" lon="49.1411210"><time>2021-08-14T06:49:54</time></trkpt><trkpt lat="55.8078760" lon="49.1411530"><time>2021-08-14T06:49:55</time></trkpt><trkpt lat="55.8078630" lon="49.1411990"><time>2021-08-14T06:49:56</time></trkpt><trkpt lat="55.8078580" lon="49.1412130"><time>2021-08-14T06:49:57</time></trkpt><trkpt lat="55.8078520" lon="49.1412340"><time>2021-08-14T06:49:58</time></trkpt><trkpt lat="55.8078440" lon="49.1412580"><time>2021-08-14T06:49:59</time></trkpt><trkpt lat="55.8078350" lon="49.1412820"><time>2021-08-14T06:50:00</time></trkpt><trkpt lat="55.8078240" lon="49.1413100"><time>2021-08-14T06:50:01</time></trkpt><trkpt lat="55.8078150" lon="49.1413380"><time>2021-08-14T06:50:02</time></trkpt><trkpt lat="55.8078070" lon="49.1413590"><time>2021-08-14T06:50:03</time></trkpt><trkpt lat="55.8078010" lon="49.1413890"><time>2021-08-14T06:50:04</time></trkpt><trkpt lat="55.8077930" lon="49.1414110"><time>2021-08-14T06:50:05</time></trkpt><trkpt lat="55.8077790" lon="49.1414520"><time>2021-08-14T06:50:06</time></trkpt><trkpt lat="55.8077750" lon="49.1414670"><time>2021-08-14T06:50:07</time></trkpt><trkpt lat="55.8077650" lon="49.1414930"><time>2021-08-14T06:50:08</time></trkpt><trkpt lat="55.8077620" lon="49.1415220"><time>2021-08-14T06:50:09</time></trkpt><trkpt lat="55.8077510" lon="49.1415420"><time>2021-08-14T06:50:10</time></trkpt><trkpt lat="55.8077380" lon="49.1415550"><time>2021-08-14T06:50:11</time></trkpt><trkpt lat="55.8077080" lon="49.1415780"><time>2021-08-14T06:50:12</time></trkpt><trkpt lat="55.8077010" lon="49.1415820"><time>2021-08-14T06:50:13</time></trkpt><trkpt lat="55.8076860" lon="49.1415910"><time>2021-08-14T06:50:14</time></trkpt><trkpt lat="55.8076690" lon="49.1416000"><time>2021-08-14T06:50:15</time></trkpt><trkpt lat="55.8076410" lon="49.1416080"><time>2021-08-14T06:50:16</time></trkpt><trkpt lat="55.8076300" lon="49.1416080"><time>2021-08-14T06:50:17</time></trkpt><trkpt lat="55.8076090" lon="49.1416000"><time>2021-08-14T06:50:18</time></trkpt><trkpt lat="55.8075950" lon="49.1416050"><time>2021-08-14T06:50:19</time></trkpt><trkpt lat="55.8075830" lon="49.1416080"><time>2021-08-14T06:50:20</time></trkpt><trkpt lat="55.8075640" lon="49.1415990"><time>2021-08-14T06:50:21</time></trkpt><trkpt lat="55.8075350" lon="49.1415700"><time>2021-08-14T06:50:22</time></trkpt><trkpt lat="55.8075270" lon="49.1415610"><time>2021-08-14T06:50:23</time></trkpt><trkpt lat="55.8075150" lon="49.1415630"><time>2021-08-14T06:50:24</time></trkpt><trkpt lat="55.8075010" lon="49.1415490"><time>2021-08-14T06:50:25</time></trkpt><trkpt lat="55.8074770" lon="49.1415280"><time>2021-08-14T06:50:26</time></trkpt><trkpt lat="55.8074660" lon="49.1415230"><time>2021-08-14T06:50:27</time></trkpt><trkpt lat="55.8074520" lon="49.1415070"><time>2021-08-14T06:50:28</time></trkpt><trkpt lat="55.8074370" lon="49.1414950"><time>2021-08-14T06:50:29</time></trkpt><trkpt lat="55.8074220" lon="49.1414880"><time>2021-08-14T06:50:30</time></trkpt><trkpt lat="55.8074100" lon="49.1414700"><time>2021-08-14T06:50:31</time></trkpt><trkpt lat="55.8073840" lon="49.1414450"><time>2021-08-14T06:50:32</time></trkpt><trkpt lat="55.8073770" lon="49.1414350"><time>2021-08-14T06:50:33</time></trkpt><trkpt lat="55.8073600" lon="49.1414280"><time>2021-08-14T06:50:34</time></trkpt><trkpt lat="55.8073480" lon="49.1414180"><time>2021-08-14T06:50:35</time></trkpt><trkpt lat="55.8073290" lon="49.1414160"><time>2021-08-14T06:50:36</time></trkpt><trkpt lat="55.8073140" lon="49.1414050"><time>2021-08-14T06:50:37</time></trkpt><trkpt lat="55.8072990" lon="49.1413900"><time>2021-08-14T06:50:38</time></trkpt><trkpt lat="55.8072840" lon="49.1413830"><time>2021-08-14T06:50:39</time></trkpt><trkpt lat="55.8072560" lon="49.1413610"><time>2021-08-14T06:50:40</time></trkpt><trkpt lat="55.8072440" lon="49.1413530"><time>2021-08-14T06:50:41</time></trkpt><trkpt lat="55.8072290" lon="49.1413370"><time>2021-08-14T06:50:42</time></trkpt><trkpt lat="55.8072160" lon="49.1413300"><time>2021-08-14T06:50:43</time></trkpt><trkpt lat="55.8072000" lon="49.1413100"><time>2021-08-14T06:50:44</time></trkpt><trkpt lat="55.8071930" lon="49.1412870"><time>2021-08-14T06:50:45</time></trkpt><trkpt lat="55.8071810" lon="49.1412730"><time>2021-08-14T06:50:46</time></trkpt><trkpt lat="55.8071670" lon="49.1412610"><time>2021-08-14T06:50:47</time></trkpt><trkpt lat="55.8071500" lon="49.1412540"><time>2021-08-14T06:50:48</time></trkpt><trkpt lat="55.8071360" lon="49.1412400"><time>2021-08-14T06:50:49</time></trkpt><trkpt lat="55.8071140" lon="49.1412290"><time>2021-08-14T06:50:50</time></trkpt><trkpt lat="55.8071040" lon="49.1412270"><time>2021-08-14T06:50:51</time></trkpt><trkpt lat="55.8070940" lon="49.1412240"><time>2021-08-14T06:50:52</time></trkpt><trkpt lat="55.8070820" lon="49.1412090"><time>2021-08-14T06:50:53</time></trkpt><trkpt lat="55.8070670" lon="49.1411870"><time>2021-08-14T06:50:54</time></trkpt><trkpt lat="55.8070530" lon="49.1411680"><time>2021-08-14T06:50:55</time></trkpt><trkpt lat="55.8070370" lon="49.1411550"><time>2021-08-14T06:50:56</time></trkpt><trkpt lat="55.8070170" lon="49.1411210"><time>2021-08-14T06:50:57</time></trkpt><trkpt lat="55.8070100" lon="49.1411100"><time>2021-08-14T06:50:58</time></trkpt><trkpt lat="55.8070020" lon="49.1410900"><time>2021-08-14T06:50:59</time></trkpt><trkpt lat="55.8069880" lon="49.1410740"><time>2021-08-14T06:51:00</time></trkpt><trkpt lat="55.8069790" lon="49.1410540"><time>2021-08-14T06:51:01</time></trkpt><trkpt lat="55.8069740" lon="49.1410420"><time>2021-08-14T06:51:02</time></trkpt><trkpt lat="55.8069720" lon="49.1410300"><time>2021-08-14T06:51:03</time></trkpt><trkpt lat="55.8069690" lon="49.1410020"><time>2021-08-14T06:51:04</time></trkpt><trkpt lat="55.8069730" lon="49.1409700"><time>2021-08-14T06:51:05</time></trkpt><trkpt lat="55.8069810" lon="49.1409350"><time>2021-08-14T06:51:06</time></trkpt><trkpt lat="55.8069740" lon="49.1409110"><time>2021-08-14T06:51:07</time></trkpt><trkpt lat="55.8069750" lon="49.1408900"><time>2021-08-14T06:51:08</time></trkpt><trkpt lat="55.8069780" lon="49.1408600"><time>2021-08-14T06:51:09</time></trkpt><trkpt lat="55.8069860" lon="49.1408320"><time>2021-08-14T06:51:10</time></trkpt><trkpt lat="55.8069950" lon="49.1408060"><time>2021-08-14T06:51:11</time></trkpt><trkpt lat="55.8069980" lon="49.1407800"><time>2021-08-14T06:51:12</time></trkpt><trkpt lat="55.8070060" lon="49.1407560"><time>2021-08-14T06:51:13</time></trkpt><trkpt lat="55.8070060" lon="49.1407270"><time>2021-08-14T06:51:14</time></trkpt><trkpt lat="55.8070120" lon="49.1406990"><time>2021-08-14T06:51:15</time></trkpt><trkpt lat="55.8070170" lon="49.1406720"><time>2021-08-14T06:51:16</time></trkpt><trkpt lat="55.8070220" lon="49.1406420"><time>2021-08-14T06:51:17</time></trkpt><trkpt lat="55.8070270" lon="49.1406140"><time>2021-08-14T06:51:18</time></trkpt><trkpt lat="55.8070280" lon="49.1405840"><time>2021-08-14T06:51:19</time></trkpt><trkpt lat="55.8070300" lon="49.1405510"><time>2021-08-14T06:51:20</time></trkpt><trkpt lat="55.8070370" lon="49.1405230"><time>2021-08-14T06:51:21</time></trkpt><trkpt lat="55.8070420" lon="49.1404920"><time>2021-08-14T06:51:22</time></trkpt><trkpt lat="55.8070460" lon="49.1404620"><time>2021-08-14T06:51:23</time></trkpt><trkpt lat="55.8070550" lon="49.1404410"><time>2021-08-14T06:51:24</time></trkpt><trkpt lat="55.8070660" lon="49.1404180"><time>2021-08-14T06:51:25</time></trkpt><trkpt lat="55.8070730" lon="49.1403900"><time>2021-08-14T06:51:26</time></trkpt><trkpt lat="55.8070810" lon="49.1403600"><time>2021-08-14T06:51:27</time></trkpt><trkpt lat="55.8070870" lon="49.1403350"><time>2021-08-14T06:51:28</time></trkpt><trkpt lat="55.8070940" lon="49.1403080"><time>2021-08-14T06:51:29</time></trkpt><trkpt lat="55.8070960" lon="49.1402770"><time>2021-08-14T06:51:30</time></trkpt><trkpt lat="55.8071000" lon="49.1402470"><time>2021-08-14T06:51:31</time></trkpt><trkpt lat="55.8071090" lon="49.1402200"><time>2021-08-14T06:51:32</time></trkpt><trkpt lat="55.8071160" lon="49.1401920"><time>2021-08-14T06:51:33</time></trkpt><trkpt lat="55.8071220" lon="49.1401690"><time>2021-08-14T06:51:34</time></trkpt><trkpt lat="55.8071270" lon="49.1401390"><time>2021-08-14T06:51:35</time></trkpt><trkpt lat="55.8071330" lon="49.1401180"><time>2021-08-14T06:51:36</time></trkpt><trkpt lat="55.8071390" lon="49.1400870"><time>2021-08-14T06:51:37</time></trkpt><trkpt lat="55.8071440" lon="49.1400590"><time>2021-08-14T06:51:38</time></trkpt><trkpt lat="55.8071560" lon="49.1400410"><time>2021-08-14T06:51:39</time></trkpt><trkpt lat="55.8071670" lon="49.1400190"><time>2021-08-14T06:51:40</time></trkpt><trkpt lat="55.8071740" lon="49.1399950"><time>2021-08-14T06:51:41</time></trkpt><trkpt lat="55.8071800" lon="49.1399640"><time>2021-08-14T06:51:42</time></trkpt><trkpt lat="55.8071870" lon="49.1399360"><time>2021-08-14T06:51:43</time></trkpt><trkpt lat="55.8071930" lon="49.1399070"><time>2021-08-14T06:51:44</time></trkpt><trkpt lat="55.8072020" lon="49.1398810"><time>2021-08-14T06:51:45</time></trkpt><trkpt lat="55.8072110" lon="49.1398600"><time>2021-08-14T06:51:46</time></trkpt><trkpt lat="55.8072160" lon="49.1398330"><time>2021-08-14T06:51:47</time></trkpt><trkpt lat="55.8072240" lon="49.1398010"><time>2021-08-14T06:51:48</time></trkpt><trkpt lat="55.8072280" lon="49.1397720"><time>2021-08-14T06:51:49</time></trkpt><trkpt lat="55.8072320" lon="49.1397460"><time>2021-08-14T06:51:50</time></trkpt><trkpt lat="55.8072450" lon="49.1397230"><time>2021-08-14T06:51:51</time></trkpt><trkpt lat="55.8072460" lon="49.1396940"><time>2021-08-14T06:51:52</time></trkpt><trkpt lat="55.8072550" lon="49.1396680"><time>2021-08-14T06:51:53</time></trkpt><trkpt lat="55.8072560" lon="49.1396370"><time>2021-08-14T06:51:54</time></trkpt><trkpt lat="55.8072600" lon="49.1396080"><time>2021-08-14T06:51:55</time></trkpt><trkpt lat="55.8072810" lon="49.1395700"><time>2021-08-14T06:51:56</time></trkpt><trkpt lat="55.8072870" lon="49.1395580"><time>2021-08-14T06:51:57</time></trkpt><trkpt lat="55.8072890" lon="49.1395370"><time>2021-08-14T06:51:58</time></trkpt><trkpt lat="55.8072970" lon="49.1395120"><time>2021-08-14T06:51:59</time></trkpt><trkpt lat="55.8072980" lon="49.1394870"><time>2021-08-14T06:52:00</time></trkpt><trkpt lat="55.8072990" lon="49.1394600"><time>2021-08-14T06:52:01</time></trkpt><trkpt lat="55.8073060" lon="49.1394340"><time>2021-08-14T06:52:02</time></trkpt><trkpt lat="55.8073210" lon="49.1394140"><time>2021-08-14T06:52:03</time></trkpt><trkpt lat="55.8073340" lon="49.1393930"><time>2021-08-14T06:52:04</time></trkpt><trkpt lat="55.8073410" lon="49.1393660"><time>2021-08-14T06:52:05</time></trkpt><trkpt lat="55.8073470" lon="49.1393400"><time>2021-08-14T06:52:06</time></trkpt><trkpt lat="55.8073510" lon="49.1393120"><time>2021-08-14T06:52:07</time></trkpt><trkpt lat="55.8073640" lon="49.1392690"><time>2021-08-14T06:52:08</time></trkpt><trkpt lat="55.8073710" lon="49.1392570"><time>2021-08-14T06:52:09</time></trkpt><trkpt lat="55.8073830" lon="49.1392350"><time>2021-08-14T06:52:10</time></trkpt><trkpt lat="55.8073920" lon="49.1392120"><time>2021-08-14T06:52:11</time></trkpt><trkpt lat="55.8073930" lon="49.1391790"><time>2021-08-14T06:52:12</time></trkpt><trkpt lat="55.8073960" lon="49.1391500"><time>2021-08-14T06:52:13</time></trkpt><trkpt lat="55.8074020" lon="49.1391240"><time>2021-08-14T06:52:14</time></trkpt><trkpt lat="55.8074090" lon="49.1390970"><time>2021-08-14T06:52:15</time></trkpt><trkpt lat="55.8074190" lon="49.1390720"><time>2021-08-14T06:52:16</time></trkpt><trkpt lat="55.8074280" lon="49.1390500"><time>2021-08-14T06:52:17</time></trkpt><trkpt lat="55.8074320" lon="49.1390270"><time>2021-08-14T06:52:18</time></trkpt><trkpt lat="55.8074370" lon="49.1389990"><time>2021-08-14T06:52:19</time></trkpt><trkpt lat="55.8074440" lon="49.1389720"><time>2021-08-14T06:52:20</time></trkpt><trkpt lat="55.8074540" lon="49.1389500"><time>2021-08-14T06:52:21</time></trkpt><trkpt lat="55.8074600" lon="49.1389220"><time>2021-08-14T06:52:22</time></trkpt><trkpt lat="55.8074700" lon="49.1388990"><time>2021-08-14T06:52:23</time></trkpt><trkpt lat="55.8074790" lon="49.1388750"><time>2021-08-14T06:52:24</time></trkpt><trkpt lat="55.8074850" lon="49.1388510"><time>2021-08-14T06:52:25</time></trkpt><trkpt lat="55.8074910" lon="49.1388270"><time>2021-08-14T06:52:26</time></trkpt><trkpt lat="55.8074990" lon="49.1388010"><time>2021-08-14T06:52:27</time></trkpt><trkpt lat="55.8075060" lon="49.1387750"><time>2021-08-14T06:52:28</time></trkpt><trkpt lat="55.8075180" lon="49.1387540"><time>2021-08-14T06:52:29</time></trkpt><trkpt lat="55.8075270" lon="49.1387310"><time>2021-08-14T06:52:30</time></trkpt><trkpt lat="55.8075370" lon="49.1387090"><time>2021-08-14T06:52:31</time></trkpt><trkpt lat="55.8075410" lon="49.1386820"><time>2021-08-14T06:52:32</time></trkpt><trkpt lat="55.8075500" lon="49.1386580"><time>2021-08-14T06:52:33</time></trkpt><trkpt lat="55.8075580" lon="49.1386330"><time>2021-08-14T06:52:34</time></trkpt><trkpt lat="55.8075620" lon="49.1386040"><time>2021-08-14T06:52:35</time></trkpt><trkpt lat="55.8075750" lon="49.1385860"><time>2021-08-14T06:52:36</time></trkpt><trkpt lat="55.8075800" lon="49.1385580"><time>2021-08-14T06:52:37</time></trkpt><trkpt lat="55.8075870" lon="49.1385340"><time>2021-08-14T06:52:38</time></trkpt><trkpt lat="55.8075970" lon="49.1385100"><time>2021-08-14T06:52:39</time></trkpt><trkpt lat="55.8076060" lon="49.1384870"><time>2021-08-14T06:52:40</time></trkpt><trkpt lat="55.8076100" lon="49.1384570"><time>2021-08-14T06:52:41</time></trkpt><trkpt lat="55.8076150" lon="49.1384300"><time>2021-08-14T06:52:42</time></trkpt><trkpt lat="55.8076260" lon="49.1384060"><time>2021-08-14T06:52:43</time></trkpt><trkpt lat="55.8076360" lon="49.1383840"><time>2021-08-14T06:52:44</time></trkpt><trkpt lat="55.8076480" lon="49.1383660"><time>2021-08-14T06:52:45</time></trkpt><trkpt lat="55.8076530" lon="49.1383370"><time>2021-08-14T06:52:46</time></trkpt><trkpt lat="55.8076600" lon="49.1383120"><time>2021-08-14T06:52:47</time></trkpt><trkpt lat="55.8076630" lon="49.1382810"><time>2021-08-14T06:52:48</time></trkpt><trkpt lat="55.8076720" lon="49.1382560"><time>2021-08-14T06:52:49</time></trkpt><trkpt lat="55.8076840" lon="49.1382370"><time>2021-08-14T06:52:50</time></trkpt><trkpt lat="55.8076850" lon="49.1382060"><time>2021-08-14T06:52:51</time></trkpt><trkpt lat="55.8076950" lon="49.1381840"><time>2021-08-14T06:52:52</time></trkpt><trkpt lat="55.8077050" lon="49.1381610"><time>2021-08-14T06:52:53</time></trkpt><trkpt lat="55.8077130" lon="49.1381390"><time>2021-08-14T06:52:54</time></trkpt><trkpt lat="55.8077170" lon="49.1381070"><time>2021-08-14T06:52:55</time></trkpt><trkpt lat="55.8077270" lon="49.1380800"><time>2021-08-14T06:52:56</time></trkpt><trkpt lat="55.8077380" lon="49.1380560"><time>2021-08-14T06:52:57</time></trkpt><trkpt lat="55.8077480" lon="49.1380370"><time>2021-08-14T06:52:58</time></trkpt><trkpt lat="55.8077570" lon="49.1380110"><time>2021-08-14T06:52:59</time></trkpt><trkpt lat="55.8077630" lon="49.1379850"><time>2021-08-14T06:53:00</time></trkpt><trkpt lat="55.8077740" lon="49.1379640"><time>2021-08-14T06:53:01</time></trkpt><trkpt lat="55.8077830" lon="49.1379380"><time>2021-08-14T06:53:02</time></trkpt><trkpt lat="55.8077970" lon="49.1379170"><time>2021-08-14T06:53:03</time></trkpt><trkpt lat="55.8078080" lon="49.1378900"><time>2021-08-14T06:53:04</time></trkpt><trkpt lat="55.8078150" lon="49.1378710"><time>2021-08-14T06:53:05</time></trkpt><trkpt lat="55.8078240" lon="49.1378480"><time>2021-08-14T06:53:06</time></trkpt><trkpt lat="55.8078330" lon="49.1378230"><time>2021-08-14T06:53:07</time></trkpt><trkpt lat="55.8078410" lon="49.1377970"><time>2021-08-14T06:53:08</time></trkpt><trkpt lat="55.8078540" lon="49.1377770"><time>2021-08-14T06:53:09</time></trkpt><trkpt lat="55.8078610" lon="49.1377510"><time>2021-08-14T06:53:10</time></trkpt><trkpt lat="55.8078680" lon="49.1377260"><time>2021-08-14T06:53:11</time></trkpt><trkpt lat="55.8078730" lon="49.1377000"><time>2021-08-14T06:53:12</time></trkpt><trkpt lat="55.8078840" lon="49.1376770"><time>2021-08-14T06:53:13</time></trkpt><trkpt lat="55.8078930" lon="49.1376510"><time>2021-08-14T06:53:14</time></trkpt><trkpt lat="55.8079070" lon="49.1376350"><time>2021-08-14T06:53:15</time></trkpt><trkpt lat="55.8079180" lon="49.1376150"><time>2021-08-14T06:53:16</time></trkpt><trkpt lat="55.8079270" lon="49.1375910"><time>2021-08-14T06:53:17</time></trkpt><trkpt lat="55.8079350" lon="49.1375670"><time>2021-08-14T06:53:18</time></trkpt><trkpt lat="55.8079460" lon="49.1375470"><time>2021-08-14T06:53:19</time></trkpt><trkpt lat="55.8079540" lon="49.1375200"><time>2021-08-14T06:53:20</time></trkpt><trkpt lat="55.8079660" lon="49.1375010"><time>2021-08-14T06:53:21</time></trkpt><trkpt lat="55.8079780" lon="49.1374820"><time>2021-08-14T06:53:22</time></trkpt><trkpt lat="55.8079880" lon="49.1374610"><time>2021-08-14T06:53:23</time></trkpt><trkpt lat="55.8079960" lon="49.1374350"><time>2021-08-14T06:53:24</time></trkpt><trkpt lat="55.8080010" lon="49.1374060"><time>2021-08-14T06:53:25</time></trkpt><trkpt lat="55.8080140" lon="49.1373870"><time>2021-08-14T06:53:26</time></trkpt><trkpt lat="55.8080250" lon="49.1373670"><time>2021-08-14T06:53:27</time></trkpt><trkpt lat="55.8080360" lon="49.1373440"><time>2021-08-14T06:53:28</time></trkpt><trkpt lat="55.8080460" lon="49.1373210"><time>2021-08-14T06:53:29</time></trkpt><trkpt lat="55.8080570" lon="49.1372990"><time>2021-08-14T06:53:30</time></trkpt><trkpt lat="55.8080640" lon="49.1372710"><time>2021-08-14T06:53:31</time></trkpt><trkpt lat="55.8080750" lon="49.1372460"><time>2021-08-14T06:53:32</time></trkpt><trkpt lat="55.8080870" lon="49.1372250"><time>2021-08-14T06:53:33</time></trkpt><trkpt lat="55.8081010" lon="49.1372060"><time>2021-08-14T06:53:34</time></trkpt><trkpt lat="55.8081120" lon="49.1371870"><time>2021-08-14T06:53:35</time></trkpt><trkpt lat="55.8081200" lon="49.1371620"><time>2021-08-14T06:53:36</time></trkpt><trkpt lat="55.8081320" lon="49.1371390"><time>2021-08-14T06:53:37</time></trkpt><trkpt lat="55.8081400" lon="49.1371140"><time>2021-08-14T06:53:38</time></trkpt><trkpt lat="55.8081500" lon="49.1370900"><time>2021-08-14T06:53:39</time></trkpt><trkpt lat="55.8081590" lon="49.1370660"><time>2021-08-14T06:53:40</time></trkpt><trkpt lat="55.8081740" lon="49.1370510"><time>2021-08-14T06:53:41</time></trkpt><trkpt lat="55.8081800" lon="49.1370220"><time>2021-08-14T06:53:42</time></trkpt><trkpt lat="55.8081890" lon="49.1369960"><time>2021-08-14T06:53:43</time></trkpt><trkpt lat="55.8081950" lon="49.1369710"><time>2021-08-14T06:53:44</time></trkpt><trkpt lat="55.8082070" lon="49.1369520"><time>2021-08-14T06:53:45</time></trkpt><trkpt lat="55.8082210" lon="49.1369330"><time>2021-08-14T06:53:46</time></trkpt><trkpt lat="55.8082350" lon="49.1369170"><time>2021-08-14T06:53:47</time></trkpt><trkpt lat="55.8082460" lon="49.1368950"><time>2021-08-14T06:53:48</time></trkpt><trkpt lat="55.8082550" lon="49.1368730"><time>2021-08-14T06:53:49</time></trkpt><trkpt lat="55.8082630" lon="49.1368500"><time>2021-08-14T06:53:50</time></trkpt><trkpt lat="55.8082740" lon="49.1368270"><time>2021-08-14T06:53:51</time></trkpt><trkpt lat="55.8082810" lon="49.1368010"><time>2021-08-14T06:53:52</time></trkpt><trkpt lat="55.8082950" lon="49.1367830"><time>2021-08-14T06:53:53</time></trkpt><trkpt lat="55.8083070" lon="49.1367650"><time>2021-08-14T06:53:54</time></trkpt><trkpt lat="55.8083190" lon="49.1367460"><time>2021-08-14T06:53:55</time></trkpt><trkpt lat="55.8083270" lon="49.1367210"><time>2021-08-14T06:53:56</time></trkpt><trkpt lat="55.8083380" lon="49.1367000"><time>2021-08-14T06:53:57</time></trkpt><trkpt lat="55.8083500" lon="49.1366810"><time>2021-08-14T06:53:58</time></trkpt><trkpt lat="55.8083660" lon="49.1366680"><time>2021-08-14T06:53:59</time></trkpt><trkpt lat="55.8083790" lon="49.1366510"><time>2021-08-14T06:54:00</time></trkpt><trkpt lat="55.8083890" lon="49.1366290"><time>2021-08-14T06:54:01</time></trkpt><trkpt lat="55.8084000" lon="49.1366100"><time>2021-08-14T06:54:02</time></trkpt><trkpt lat="55.8084100" lon="49.1365880"><time>2021-08-14T06:54:03</time></trkpt><trkpt lat="55.8084200" lon="49.1365640"><time>2021-08-14T06:54:04</time></trkpt><trkpt lat="55.8084330" lon="49.1365450"><time>2021-08-14T06:54:05</time></trkpt><trkpt lat="55.8084430" lon="49.1365220"><time>2021-08-14T06:54:06</time></trkpt><trkpt lat="55.8084570" lon="49.1365080"><time>2021-08-14T06:54:07</time></trkpt><trkpt lat="55.8084680" lon="49.1364860"><time>2021-08-14T06:54:08</time></trkpt><trkpt lat="55.8084770" lon="49.1364600"><time>2021-08-14T06:54:09</time></trkpt><trkpt lat="55.8084860" lon="49.1364360"><time>2021-08-14T06:54:10</time></trkpt><trkpt lat="55.8084970" lon="49.1364150"><time>2021-08-14T06:54:11</time></trkpt><trkpt lat="55.8085120" lon="49.1363990"><time>2021-08-14T06:54:12</time></trkpt><trkpt lat="55.8085210" lon="49.1363750"><time>2021-08-14T06:54:13</time></trkpt><trkpt lat="55.8085320" lon="49.1363550"><time>2021-08-14T06:54:14</time></trkpt><trkpt lat="55.8085440" lon="49.1363380"><time>2021-08-14T06:54:15</time></trkpt><trkpt lat="55.8085570" lon="49.1363180"><time>2021-08-14T06:54:16</time></trkpt><trkpt lat="55.8085670" lon="49.1362960"><time>2021-08-14T06:54:17</time></trkpt><trkpt lat="55.8085780" lon="49.1362740"><time>2021-08-14T06:54:18</time></trkpt><trkpt lat="55.8085890" lon="49.1362540"><time>2021-08-14T06:54:19</time></trkpt><trkpt lat="55.8085990" lon="49.1362300"><time>2021-08-14T06:54:20</time></trkpt><trkpt lat="55.8086130" lon="49.1362130"><time>2021-08-14T06:54:21</time></trkpt><trkpt lat="55.8086250" lon="49.1361940"><time>2021-08-14T06:54:22</time></trkpt><trkpt lat="55.8086360" lon="49.1361730"><time>2021-08-14T06:54:23</time></trkpt><trkpt lat="55.8086480" lon="49.1361500"><time>2021-08-14T06:54:24</time></trkpt><trkpt lat="55.8086610" lon="49.1361330"><time>2021-08-14T06:54:25</time></trkpt><trkpt lat="55.8086730" lon="49.1361150"><time>2021-08-14T06:54:26</time></trkpt><trkpt lat="55.8086830" lon="49.1360920"><time>2021-08-14T06:54:27</time></trkpt><trkpt lat="55.8086970" lon="49.1360750"><time>2021-08-14T06:54:28</time></trkpt><trkpt lat="55.8087060" lon="49.1360510"><time>2021-08-14T06:54:29</time></trkpt><trkpt lat="55.8087200" lon="49.1360330"><time>2021-08-14T06:54:30</time></trkpt><trkpt lat="55.8087320" lon="49.1360100"><time>2021-08-14T06:54:31</time></trkpt><trkpt lat="55.8087480" lon="49.1359960"><time>2021-08-14T06:54:32</time></trkpt><trkpt lat="55.8087610" lon="49.1359780"><time>2021-08-14T06:54:33</time></trkpt><trkpt lat="55.8087690" lon="49.1359510"><time>2021-08-14T06:54:34</time></trkpt><trkpt lat="55.8087810" lon="49.1359330"><time>2021-08-14T06:54:35</time></trkpt><trkpt lat="55.8087930" lon="49.1359150"><time>2021-08-14T06:54:36</time></trkpt><trkpt lat="55.8088070" lon="49.1358970"><time>2021-08-14T06:54:37</time></trkpt><trkpt lat="55.8088220" lon="49.1358830"><time>2021-08-14T06:54:38</time></trkpt><trkpt lat="55.8088350" lon="49.1358670"><time>2021-08-14T06:54:39</time></trkpt><trkpt lat="55.8088450" lon="49.1358450"><time>2021-08-14T06:54:40</time></trkpt><trkpt lat="55.8088560" lon="49.1358240"><time>2021-08-14T06:54:41</time></trkpt><trkpt lat="55.8088710" lon="49.1358050"><time>2021-08-14T06:54:42</time></trkpt><trkpt lat="55.8088830" lon="49.1357880"><time>2021-08-14T06:54:43</time></trkpt><trkpt lat="55.8089010" lon="49.1357810"><time>2021-08-14T06:54:44</time></trkpt><trkpt lat="55.8089120" lon="49.1357590"><time>2021-08-14T06:54:45</time></trkpt><trkpt lat="55.8089230" lon="49.1357370"><time>2021-08-14T06:54:46</time></trkpt><trkpt lat="55.8089370" lon="49.1357260"><time>2021-08-14T06:54:47</time></trkpt><trkpt lat="55.8089470" lon="49.1357010"><time>2021-08-14T06:54:48</time></trkpt><trkpt lat="55.8089590" lon="49.1356820"><time>2021-08-14T06:54:49</time></trkpt><trkpt lat="55.8089730" lon="49.1356640"><time>2021-08-14T06:54:50</time></trkpt><trkpt lat="55.8089840" lon="49.1356470"><time>2021-08-14T06:54:51</time></trkpt><trkpt lat="55.8089970" lon="49.1356350"><time>2021-08-14T06:54:52</time></trkpt><trkpt lat="55.8090100" lon="49.1356180"><time>2021-08-14T06:54:53</time></trkpt><trkpt lat="55.8090220" lon="49.1355960"><time>2021-08-14T06:54:54</time></trkpt><trkpt lat="55.8090340" lon="49.1355720"><time>2021-08-14T06:54:55</time></trkpt><trkpt lat="55.8090470" lon="49.1355540"><time>2021-08-14T06:54:56</time></trkpt><trkpt lat="55.8090640" lon="49.1355450"><time>2021-08-14T06:54:57</time></trkpt><trkpt lat="55.8090760" lon="49.1355290"><time>2021-08-14T06:54:58</time></trkpt><trkpt lat="55.8090880" lon="49.1355090"><time>2021-08-14T06:54:59</time></trkpt><trkpt lat="55.8090990" lon="49.1354900"><time>2021-08-14T06:55:00</time></trkpt><trkpt lat="55.8091120" lon="49.1354710"><time>2021-08-14T06:55:01</time></trkpt><trkpt lat="55.8091270" lon="49.1354570"><time>2021-08-14T06:55:02</time></trkpt><trkpt lat="55.8091400" lon="49.1354360"><time>2021-08-14T06:55:03</time></trkpt><trkpt lat="55.8091530" lon="49.1354210"><time>2021-08-14T06:55:04</time></trkpt><trkpt lat="55.8091690" lon="49.1354130"><time>2021-08-14T06:55:05</time></trkpt><trkpt lat="55.8091780" lon="49.1353870"><time>2021-08-14T06:55:06</time></trkpt><trkpt lat="55.8091910" lon="49.1353720"><time>2021-08-14T06:55:07</time></trkpt><trkpt lat="55.8092060" lon="49.1353580"><time>2021-08-14T06:55:08</time></trkpt><trkpt lat="55.8092210" lon="49.1353450"><time>2021-08-14T06:55:09</time></trkpt><trkpt lat="55.8092330" lon="49.1353260"><time>2021-08-14T06:55:10</time></trkpt><trkpt lat="55.8092470" lon="49.1353130"><time>2021-08-14T06:55:11</time></trkpt><trkpt lat="55.8092590" lon="49.1352930"><time>2021-08-14T06:55:12</time></trkpt><trkpt lat="55.8092710" lon="49.1352770"><time>2021-08-14T06:55:13</time></trkpt><trkpt lat="55.8092850" lon="49.1352610"><time>2021-08-14T06:55:14</time></trkpt><trkpt lat="55.8093000" lon="49.1352460"><time>2021-08-14T06:55:15</time></trkpt><trkpt lat="55.8093110" lon="49.1352250"><time>2021-08-14T06:55:16</time></trkpt><trkpt lat="55.8093240" lon="49.1352100"><time>2021-08-14T06:55:17</time></trkpt><trkpt lat="55.8093370" lon="49.1351930"><time>2021-08-14T06:55:18</time></trkpt><trkpt lat="55.8093510" lon="49.1351770"><time>2021-08-14T06:55:19</time></trkpt><trkpt lat="55.8093640" lon="49.1351590"><time>2021-08-14T06:55:20</time></trkpt><trkpt lat="55.8093800" lon="49.1351520"><time>2021-08-14T06:55:21</time></trkpt><trkpt lat="55.8093910" lon="49.1351290"><time>2021-08-14T06:55:22</time></trkpt><trkpt lat="55.8094040" lon="49.1351130"><time>2021-08-14T06:55:23</time></trkpt><trkpt lat="55.8094150" lon="49.1350930"><time>2021-08-14T06:55:24</time></trkpt><trkpt lat="55.8094260" lon="49.1350760"><time>2021-08-14T06:55:25</time></trkpt><trkpt lat="55.8094430" lon="49.1350640"><time>2021-08-14T06:55:26</time></trkpt><trkpt lat="55.8094600" lon="49.1350520"><time>2021-08-14T06:55:27</time></trkpt><trkpt lat="55.8094740" lon="49.1350380"><time>2021-08-14T06:55:28</time></trkpt><trkpt lat="55.8094890" lon="49.1350230"><time>2021-08-14T06:55:29</time></trkpt><trkpt lat="55.8095020" lon="49.1350050"><time>2021-08-14T06:55:30</time></trkpt><trkpt lat="55.8095120" lon="49.1349830"><time>2021-08-14T06:55:31</time></trkpt><trkpt lat="55.8095270" lon="49.1349680"><time>2021-08-14T06:55:32</time></trkpt><trkpt lat="55.8095410" lon="49.1349550"><time>2021-08-14T06:55:33</time></trkpt><trkpt lat="55.8095530" lon="49.1349350"><time>2021-08-14T06:55:34</time></trkpt><trkpt lat="55.8095660" lon="49.1349200"><time>2021-08-14T06:55:35</time></trkpt><trkpt lat="55.8095780" lon="49.1349020"><time>2021-08-14T06:55:36</time></trkpt><trkpt lat="55.8095920" lon="49.1348880"><time>2021-08-14T06:55:37</time></trkpt><trkpt lat="55.8096070" lon="49.1348760"><time>2021-08-14T06:55:38</time></trkpt><trkpt lat="55.8096210" lon="49.1348640"><time>2021-08-14T06:55:39</time></trkpt><trkpt lat="55.8096370" lon="49.1348480"><time>2021-08-14T06:55:40</time></trkpt><trkpt lat="55.8096520" lon="49.1348340"><time>2021-08-14T06:55:41</time></trkpt><trkpt lat="55.8096650" lon="49.1348170"><time>2021-08-14T06:55:42</time></trkpt><trkpt lat="55.8096780" lon="49.1348000"><time>2021-08-14T06:55:43</time></trkpt><trkpt lat="55.8096910" lon="49.1347850"><time>2021-08-14T06:55:44</time></trkpt><trkpt lat="55.8097060" lon="49.1347700"><time>2021-08-14T06:55:45</time></trkpt><trkpt lat="55.8097210" lon="49.1347520"><time>2021-08-14T06:55:46</time></trkpt><trkpt lat="55.8097350" lon="49.1347400"><time>2021-08-14T06:55:47</time></trkpt><trkpt lat="55.8097490" lon="49.1347290"><time>2021-08-14T06:55:48</time></trkpt><trkpt lat="55.8097610" lon="49.1347090"><time>2021-08-14T06:55:49</time></trkpt><trkpt lat="55.8097770" lon="49.1346970"><time>2021-08-14T06:55:50</time></trkpt><trkpt lat="55.8097920" lon="49.1346840"><time>2021-08-14T06:55:51</time></trkpt><trkpt lat="55.8098080" lon="49.1346720"><time>2021-08-14T06:55:52</time></trkpt><trkpt lat="55.8098210" lon="49.1346570"><time>2021-08-14T06:55:53</time></trkpt><trkpt lat="55.8098350" lon="49.1346460"><time>2021-08-14T06:55:54</time></trkpt><trkpt lat="55.8098460" lon="49.1346250"><time>2021-08-14T06:55:55</time></trkpt><trkpt lat="55.8098610" lon="49.1346130"><time>2021-08-14T06:55:56</time></trkpt><trkpt lat="55.8098770" lon="49.1346000"><time>2021-08-14T06:55:57</time></trkpt><trkpt lat="55.8098930" lon="49.1345870"><time>2021-08-14T06:55:58</time></trkpt><trkpt lat="55.8099070" lon="49.1345770"><time>2021-08-14T06:55:59</time></trkpt><trkpt lat="55.8099220" lon="49.1345640"><time>2021-08-14T06:56:00</time></trkpt><trkpt lat="55.8099360" lon="49.1345490"><time>2021-08-14T06:56:01</time></trkpt><trkpt lat="55.8099500" lon="49.1345340"><time>2021-08-14T06:56:02</time></trkpt><trkpt lat="55.8099670" lon="49.1345250"><time>2021-08-14T06:56:03</time></trkpt><trkpt lat="55.8099810" lon="49.1345100"><time>2021-08-14T06:56:04</time></trkpt><trkpt lat="55.8099950" lon="49.1344950"><time>2021-08-14T06:56:05</time></trkpt><trkpt lat="55.8100050" lon="49.1344740"><time>2021-08-14T06:56:06</time></trkpt><trkpt lat="55.8100200" lon="49.1344630"><time>2021-08-14T06:56:07</time></trkpt><trkpt lat="55.8100340" lon="49.1344450"><time>2021-08-14T06:56:08</time></trkpt><trkpt lat="55.8100510" lon="49.1344360"><time>2021-08-14T06:56:09</time></trkpt><trkpt lat="55.8100670" lon="49.1344260"><time>2021-08-14T06:56:10</time></trkpt><trkpt lat="55.8100830" lon="49.1344090"><time>2021-08-14T06:56:11</time></trkpt><trkpt lat="55.8100970" lon="49.1343930"><time>2021-08-14T06:56:12</time></trkpt><trkpt lat="55.8101100" lon="49.1343750"><time>2021-08-14T06:56:13</time></trkpt><trkpt lat="55.8101250" lon="49.1343610"><time>2021-08-14T06:56:14</time></trkpt><trkpt lat="55.8101390" lon="49.1343460"><time>2021-08-14T06:56:15</time></trkpt><trkpt lat="55.8101520" lon="49.1343280"><time>2021-08-14T06:56:16</time></trkpt><trkpt lat="55.8101680" lon="49.1343170"><time>2021-08-14T06:56:17</time></trkpt><trkpt lat="55.8101840" lon="49.1343070"><time>2021-08-14T06:56:18</time></trkpt><trkpt lat="55.8101990" lon="49.1342970"><time>2021-08-14T06:56:19</time></trkpt><trkpt lat="55.8102140" lon="49.1342830"><time>2021-08-14T06:56:20</time></trkpt><trkpt lat="55.8102300" lon="49.1342710"><time>2021-08-14T06:56:21</time></trkpt><trkpt lat="55.8102440" lon="49.1342530"><time>2021-08-14T06:56:22</time></trkpt><trkpt lat="55.8102590" lon="49.1342340"><time>2021-08-14T06:56:23</time></trkpt><trkpt lat="55.8102750" lon="49.1342200"><time>2021-08-14T06:56:24</time></trkpt><trkpt lat="55.8102850" lon="49.1342130"><time>2021-08-14T06:56:25</time></trkpt><trkpt lat="55.8102940" lon="49.1342060"><time>2021-08-14T06:56:26</time></trkpt><trkpt lat="55.8103210" lon="49.1341930"><time>2021-08-14T06:56:27</time></trkpt><trkpt lat="55.8103250" lon="49.1341940"><time>2021-08-14T06:56:28</time></trkpt><trkpt lat="55.8103490" lon="49.1341780"><time>2021-08-14T06:56:29</time></trkpt><trkpt lat="55.8103540" lon="49.1341710"><time>2021-08-14T06:56:30</time></trkpt><trkpt lat="55.8103740" lon="49.1341470"><time>2021-08-14T06:56:31</time></trkpt><trkpt lat="55.8104020" lon="49.1341290"><time>2021-08-14T06:56:32</time></trkpt><trkpt lat="55.8104100" lon="49.1341260"><time>2021-08-14T06:56:33</time></trkpt><trkpt lat="55.8104280" lon="49.1341100"><time>2021-08-14T06:56:34</time></trkpt><trkpt lat="55.8104370" lon="49.1341020"><time>2021-08-14T06:56:35</time></trkpt><trkpt lat="55.8104460" lon="49.1340950"><time>2021-08-14T06:56:36</time></trkpt><trkpt lat="55.8104590" lon="49.1340840"><time>2021-08-14T06:56:37</time></trkpt><trkpt lat="55.8104760" lon="49.1340720"><time>2021-08-14T06:56:38</time></trkpt><trkpt lat="55.8104910" lon="49.1340730"><time>2021-08-14T06:56:39</time></trkpt><trkpt lat="55.8105120" lon="49.1340680"><time>2021-08-14T06:56:40</time></trkpt><trkpt lat="55.8105230" lon="49.1340640"><time>2021-08-14T06:56:41</time></trkpt><trkpt lat="55.8105400" lon="49.1340500"><time>2021-08-14T06:56:42</time></trkpt><trkpt lat="55.8105510" lon="49.1340360"><time>2021-08-14T06:56:43</time></trkpt><trkpt lat="55.8105660" lon="49.1340260"><time>2021-08-14T06:56:44</time></trkpt><trkpt lat="55.8105820" lon="49.1340210"><time>2021-08-14T06:56:45</time></trkpt><trkpt lat="55.8105990" lon="49.1340150"><time>2021-08-14T06:56:46</time></trkpt><trkpt lat="55.8106160" lon="49.1340020"><time>2021-08-14T06:56:47</time></trkpt><trkpt lat="55.8106300" lon="49.1339910"><time>2021-08-14T06:56:48</time></trkpt><trkpt lat="55.8106430" lon="49.1339780"><time>2021-08-14T06:56:49</time></trkpt><trkpt lat="55.8106590" lon="49.1339700"><time>2021-08-14T06:56:50</time></trkpt><trkpt lat="55.8106770" lon="49.1339700"><time>2021-08-14T06:56:51</time></trkpt><trkpt lat="55.8106930" lon="49.1339670"><time>2021-08-14T06:56:52</time></trkpt><trkpt lat="55.8107080" lon="49.1339560"><time>2021-08-14T06:56:53</time></trkpt><trkpt lat="55.8107230" lon="49.1339470"><time>2021-08-14T06:56:54</time></trkpt><trkpt lat="55.8107380" lon="49.1339320"><time>2021-08-14T06:56:55</time></trkpt><trkpt lat="55.8107510" lon="49.1339200"><time>2021-08-14T06:56:56</time></trkpt><trkpt lat="55.8107660" lon="49.1339090"><time>2021-08-14T06:56:57</time></trkpt><trkpt lat="55.8107840" lon="49.1339030"><time>2021-08-14T06:56:58</time></trkpt><trkpt lat="55.8108000" lon="49.1339010"><time>2021-08-14T06:56:59</time></trkpt><trkpt lat="55.8108160" lon="49.1338990"><time>2021-08-14T06:57:00</time></trkpt><trkpt lat="55.8108310" lon="49.1338930"><time>2021-08-14T06:57:01</time></trkpt><trkpt lat="55.8108460" lon="49.1338840"><time>2021-08-14T06:57:02</time></trkpt><trkpt lat="55.8108620" lon="49.1338740"><time>2021-08-14T06:57:03</time></trkpt><trkpt lat="55.8108770" lon="49.1338640"><time>2021-08-14T06:57:04</time></trkpt><trkpt lat="55.8108940" lon="49.1338590"><time>2021-08-14T06:57:05</time></trkpt><trkpt lat="55.8109100" lon="49.1338580"><time>2021-08-14T06:57:06</time></trkpt><trkpt lat="55.8109250" lon="49.1338460"><time>2021-08-14T06:57:07</time></trkpt><trkpt lat="55.8109390" lon="49.1338350"><time>2021-08-14T06:57:08</time></trkpt><trkpt lat="55.8109550" lon="49.1338240"><time>2021-08-14T06:57:09</time></trkpt><trkpt lat="55.8109710" lon="49.1338140"><time>2021-08-14T06:57:10</time></trkpt><trkpt lat="55.8109880" lon="49.1338070"><time>2021-08-14T06:57:11</time></trkpt><trkpt lat="55.8110030" lon="49.1338020"><time>2021-08-14T06:57:12</time></trkpt><trkpt lat="55.8110200" lon="49.1338040"><time>2021-08-14T06:57:13</time></trkpt><trkpt lat="55.8110360" lon="49.1337890"><time>2021-08-14T06:57:14</time></trkpt><trkpt lat="55.8110500" lon="49.1337840"><time>2021-08-14T06:57:15</time></trkpt><trkpt lat="55.8110650" lon="49.1337720"><time>2021-08-14T06:57:16</time></trkpt><trkpt lat="55.8110800" lon="49.1337650"><time>2021-08-14T06:57:17</time></trkpt><trkpt lat="55.8110980" lon="49.1337610"><time>2021-08-14T06:57:18</time></trkpt><trkpt lat="55.8111130" lon="49.1337510"><time>2021-08-14T06:57:19</time></trkpt><trkpt lat="55.8111280" lon="49.1337490"><time>2021-08-14T06:57:20</time></trkpt><trkpt lat="55.8111440" lon="49.1337390"><time>2021-08-14T06:57:21</time></trkpt><trkpt lat="55.8111590" lon="49.1337300"><time>2021-08-14T06:57:22</time></trkpt><trkpt lat="55.8111730" lon="49.1337200"><time>2021-08-14T06:57:23</time></trkpt><trkpt lat="55.8111890" lon="49.1337150"><time>2021-08-14T06:57:24</time></trkpt><trkpt lat="55.8112060" lon="49.1337090"><time>2021-08-14T06:57:25</time></trkpt><trkpt lat="55.8112220" lon="49.1337020"><time>2021-08-14T06:57:26</time></trkpt><trkpt lat="55.8112370" lon="49.1336960"><time>2021-08-14T06:57:27</time></trkpt><trkpt lat="55.8112530" lon="49.1336960"><time>2021-08-14T06:57:28</time></trkpt><trkpt lat="55.8112670" lon="49.1336900"><time>2021-08-14T06:57:29</time></trkpt><trkpt lat="55.8112830" lon="49.1336800"><time>2021-08-14T06:57:30</time></trkpt><trkpt lat="55.8112990" lon="49.1336800"><time>2021-08-14T06:57:31</time></trkpt><trkpt lat="55.8113150" lon="49.1336770"><time>2021-08-14T06:57:32</time></trkpt><trkpt lat="55.8113290" lon="49.1336720"><time>2021-08-14T06:57:33</time></trkpt><trkpt lat="55.8113460" lon="49.1336720"><time>2021-08-14T06:57:34</time></trkpt><trkpt lat="55.8113610" lon="49.1336640"><time>2021-08-14T06:57:35</time></trkpt><trkpt lat="55.8113750" lon="49.1336530"><time>2021-08-14T06:57:36</time></trkpt><trkpt lat="55.8113910" lon="49.1336470"><time>2021-08-14T06:57:37</time></trkpt><trkpt lat="55.8114080" lon="49.1336390"><time>2021-08-14T06:57:38</time></trkpt><trkpt lat="55.8114250" lon="49.1336390"><time>2021-08-14T06:57:39</time></trkpt><trkpt lat="55.8114420" lon="49.1336350"><time>2021-08-14T06:57:40</time></trkpt><trkpt lat="55.8114570" lon="49.1336250"><time>2021-08-14T06:57:41</time></trkpt><trkpt lat="55.8114720" lon="49.1336110"><time>2021-08-14T06:57:42</time></trkpt><trkpt lat="55.8114890" lon="49.1336070"><time>2021-08-14T06:57:43</time></trkpt><trkpt lat="55.8115070" lon="49.1336060"><time>2021-08-14T06:57:44</time></trkpt><trkpt lat="55.8115220" lon="49.1335930"><time>2021-08-14T06:57:45</time></trkpt><trkpt lat="55.8115390" lon="49.1335900"><time>2021-08-14T06:57:46</time></trkpt><trkpt lat="55.8115560" lon="49.1335870"><time>2021-08-14T06:57:47</time></trkpt><trkpt lat="55.8115710" lon="49.1335820"><time>2021-08-14T06:57:48</time></trkpt><trkpt lat="55.8115870" lon="49.1335720"><time>2021-08-14T06:57:49</time></trkpt><trkpt lat="55.8116010" lon="49.1335580"><time>2021-08-14T06:57:50</time></trkpt><trkpt lat="55.8116200" lon="49.1335600"><time>2021-08-14T06:57:51</time></trkpt><trkpt lat="55.8116350" lon="49.1335580"><time>2021-08-14T06:57:52</time></trkpt><trkpt lat="55.8116510" lon="49.1335550"><time>2021-08-14T06:57:53</time></trkpt><trkpt lat="55.8116670" lon="49.1335450"><time>2021-08-14T06:57:54</time></trkpt><trkpt lat="55.8116810" lon="49.1335380"><time>2021-08-14T06:57:55</time></trkpt><trkpt lat="55.8116980" lon="49.1335380"><time>2021-08-14T06:57:56</time></trkpt><trkpt lat="55.8117150" lon="49.1335390"><time>2021-08-14T06:57:57</time></trkpt><trkpt lat="55.8117310" lon="49.1335350"><time>2021-08-14T06:57:58</time></trkpt><trkpt lat="55.8117470" lon="49.1335360"><time>2021-08-14T06:57:59</time></trkpt><trkpt lat="55.8117620" lon="49.1335210"><time>2021-08-14T06:58:00</time></trkpt><trkpt lat="55.8117770" lon="49.1335120"><time>2021-08-14T06:58:01</time></trkpt><trkpt lat="55.8117940" lon="49.1335090"><time>2021-08-14T06:58:02</time></trkpt><trkpt lat="55.8118100" lon="49.1335050"><time>2021-08-14T06:58:03</time></trkpt><trkpt lat="55.8118270" lon="49.1335030"><time>2021-08-14T06:58:04</time></trkpt><trkpt lat="55.8118420" lon="49.1334980"><time>2021-08-14T06:58:05</time></trkpt><trkpt lat="55.8118580" lon="49.1334950"><time>2021-08-14T06:58:06</time></trkpt><trkpt lat="55.8118730" lon="49.1334860"><time>2021-08-14T06:58:07</time></trkpt><trkpt lat="55.8118900" lon="49.1334790"><time>2021-08-14T06:58:08</time></trkpt><trkpt lat="55.8119040" lon="49.1334710"><time>2021-08-14T06:58:09</time></trkpt><trkpt lat="55.8119210" lon="49.1334710"><time>2021-08-14T06:58:10</time></trkpt><trkpt lat="55.8119380" lon="49.1334690"><time>2021-08-14T06:58:11</time></trkpt><trkpt lat="55.8119530" lon="49.1334620"><time>2021-08-14T06:58:12</time></trkpt><trkpt lat="55.8119680" lon="49.1334590"><time>2021-08-14T06:58:13</time></trkpt><trkpt lat="55.8119850" lon="49.1334540"><time>2021-08-14T06:58:14</time></trkpt><trkpt lat="55.8120000" lon="49.1334460"><time>2021-08-14T06:58:15</time></trkpt><trkpt lat="55.8120160" lon="49.1334470"><time>2021-08-14T06:58:16</time></trkpt><trkpt lat="55.8120320" lon="49.1334370"><time>2021-08-14T06:58:17</time></trkpt><trkpt lat="55.8120510" lon="49.1334420"><time>2021-08-14T06:58:18</time></trkpt><trkpt lat="55.8120660" lon="49.1334370"><time>2021-08-14T06:58:19</time></trkpt><trkpt lat="55.8120810" lon="49.1334350"><time>2021-08-14T06:58:20</time></trkpt><trkpt lat="55.8120970" lon="49.1334330"><time>2021-08-14T06:58:21</time></trkpt><trkpt lat="55.8121130" lon="49.1334290"><time>2021-08-14T06:58:22</time></trkpt><trkpt lat="55.8121300" lon="49.1334330"><time>2021-08-14T06:58:23</time></trkpt><trkpt lat="55.8121470" lon="49.1334340"><time>2021-08-14T06:58:24</time></trkpt><trkpt lat="55.8121630" lon="49.1334220"><time>2021-08-14T06:58:25</time></trkpt><trkpt lat="55.8121810" lon="49.1334230"><time>2021-08-14T06:58:26</time></trkpt><trkpt lat="55.8121970" lon="49.1334210"><time>2021-08-14T06:58:27</time></trkpt><trkpt lat="55.8122140" lon="49.1334210"><time>2021-08-14T06:58:28</time></trkpt><trkpt lat="55.8122300" lon="49.1334190"><time>2021-08-14T06:58:29</time></trkpt><trkpt lat="55.8122480" lon="49.1334200"><time>2021-08-14T06:58:30</time></trkpt><trkpt lat="55.8122630" lon="49.1334210"><time>2021-08-14T06:58:31</time></trkpt><trkpt lat="55.8122790" lon="49.1334170"><time>2021-08-14T06:58:32</time></trkpt><trkpt lat="55.8122950" lon="49.1334180"><time>2021-08-14T06:58:33</time></trkpt><trkpt lat="55.8123100" lon="49.1334230"><time>2021-08-14T06:58:34</time></trkpt><trkpt lat="55.8123270" lon="49.1334170"><time>2021-08-14T06:58:35</time></trkpt><trkpt lat="55.8123430" lon="49.1334100"><time>2021-08-14T06:58:36</time></trkpt><trkpt lat="55.8123580" lon="49.1334160"><time>2021-08-14T06:58:37</time></trkpt><trkpt lat="55.8123750" lon="49.1334170"><time>2021-08-14T06:58:38</time></trkpt><trkpt lat="55.8123900" lon="49.1334220"><time>2021-08-14T06:58:39</time></trkpt><trkpt lat="55.8124070" lon="49.1334190"><time>2021-08-14T06:58:40</time></trkpt><trkpt lat="55.8124230" lon="49.1334140"><time>2021-08-14T06:58:41</time></trkpt><trkpt lat="55.8124370" lon="49.1334200"><time>2021-08-14T06:58:42</time></trkpt><trkpt lat="55.8124540" lon="49.1334160"><time>2021-08-14T06:58:43</time></trkpt><trkpt lat="55.8124710" lon="49.1334200"><time>2021-08-14T06:58:44</time></trkpt><trkpt lat="55.8124870" lon="49.1334160"><time>2021-08-14T06:58:45</time></trkpt><trkpt lat="55.8125020" lon="49.1334180"><time>2021-08-14T06:58:46</time></trkpt><trkpt lat="55.8125170" lon="49.1334210"><time>2021-08-14T06:58:47</time></trkpt><trkpt lat="55.8125330" lon="49.1334210"><time>2021-08-14T06:58:48</time></trkpt><trkpt lat="55.8125500" lon="49.1334190"><time>2021-08-14T06:58:49</time></trkpt><trkpt lat="55.8125650" lon="49.1334170"><time>2021-08-14T06:58:50</time></trkpt><trkpt lat="55.8125810" lon="49.1334210"><time>2021-08-14T06:58:51</time></trkpt><trkpt lat="55.8125980" lon="49.1334180"><time>2021-08-14T06:58:52</time></trkpt><trkpt lat="55.8126140" lon="49.1334160"><time>2021-08-14T06:58:53</time></trkpt><trkpt lat="55.8126300" lon="49.1334180"><time>2021-08-14T06:58:54</time></trkpt><trkpt lat="55.8126440" lon="49.1334150"><time>2021-08-14T06:58:55</time></trkpt><trkpt lat="55.8126600" lon="49.1334200"><time>2021-08-14T06:58:56</time></trkpt><trkpt lat="55.8126760" lon="49.1334190"><time>2021-08-14T06:58:57</time></trkpt><trkpt lat="55.8126940" lon="49.1334170"><time>2021-08-14T06:58:58</time></trkpt><trkpt lat="55.8127090" lon="49.1334160"><time>2021-08-14T06:58:59</time></trkpt><trkpt lat="55.8127250" lon="49.1334150"><time>2021-08-14T06:59:00</time></trkpt><trkpt lat="55.8127430" lon="49.1334140"><time>2021-08-14T06:59:01</time></trkpt><trkpt lat="55.8127580" lon="49.1334040"><time>2021-08-14T06:59:02</time></trkpt><trkpt lat="55.8127750" lon="49.1334060"><time>2021-08-14T06:59:03</time></trkpt><trkpt lat="55.8127920" lon="49.1334120"><time>2021-08-14T06:59:04</time></trkpt><trkpt lat="55.8128080" lon="49.1334140"><time>2021-08-14T06:59:05</time></trkpt><trkpt lat="55.8128220" lon="49.1334190"><time>2021-08-14T06:59:06</time></trkpt><trkpt lat="55.8128380" lon="49.1334230"><time>2021-08-14T06:59:07</time></trkpt><trkpt lat="55.8128540" lon="49.1334220"><time>2021-08-14T06:59:08</time></trkpt><trkpt lat="55.8128710" lon="49.1334130"><time>2021-08-14T06:59:09</time></trkpt><trkpt lat="55.8128880" lon="49.1334250"><time>2021-08-14T06:59:10</time></trkpt><trkpt lat="55.8129030" lon="49.1334360"><time>2021-08-14T06:59:11</time></trkpt><trkpt lat="55.8129190" lon="49.1334350"><time>2021-08-14T06:59:12</time></trkpt><trkpt lat="55.8129370" lon="49.1334280"><time>2021-08-14T06:59:13</time></trkpt><trkpt lat="55.8129540" lon="49.1334200"><time>2021-08-14T06:59:14</time></trkpt><trkpt lat="55.8129700" lon="49.1334160"><time>2021-08-14T06:59:15</time></trkpt><trkpt lat="55.8129870" lon="49.1334090"><time>2021-08-14T06:59:16</time></trkpt><trkpt lat="55.8130050" lon="49.1334130"><time>2021-08-14T06:59:17</time></trkpt><trkpt lat="55.8130210" lon="49.1334170"><time>2021-08-14T06:59:18</time></trkpt><trkpt lat="55.8130380" lon="49.1334190"><time>2021-08-14T06:59:19</time></trkpt><trkpt lat="55.8130540" lon="49.1334170"><time>2021-08-14T06:59:20</time></trkpt><trkpt lat="55.8130700" lon="49.1334140"><time>2021-08-14T06:59:21</time></trkpt><trkpt lat="55.8130860" lon="49.1334060"><time>2021-08-14T06:59:22</time></trkpt><trkpt lat="55.8131030" lon="49.1334070"><time>2021-08-14T06:59:23</time></trkpt><trkpt lat="55.8131190" lon="49.1333990"><time>2021-08-14T06:59:24</time></trkpt><trkpt lat="55.8131360" lon="49.1333960"><time>2021-08-14T06:59:25</time></trkpt><trkpt lat="55.8131530" lon="49.1333880"><time>2021-08-14T06:59:26</time></trkpt><trkpt lat="55.8131690" lon="49.1333770"><time>2021-08-14T06:59:27</time></trkpt><trkpt lat="55.8131850" lon="49.1333650"><time>2021-08-14T06:59:28</time></trkpt><trkpt lat="55.8132010" lon="49.1333620"><time>2021-08-14T06:59:29</time></trkpt><trkpt lat="55.8132170" lon="49.1333560"><time>2021-08-14T06:59:30</time></trkpt><trkpt lat="55.8132340" lon="49.1333620"><time>2021-08-14T06:59:31</time></trkpt><trkpt lat="55.8132510" lon="49.1333630"><time>2021-08-14T06:59:32</time></trkpt><trkpt lat="55.8132660" lon="49.1333530"><time>2021-08-14T06:59:33</time></trkpt><trkpt lat="55.8132810" lon="49.1333430"><time>2021-08-14T06:59:34</time></trkpt><trkpt lat="55.8132960" lon="49.1333360"><time>2021-08-14T06:59:35</time></trkpt><trkpt lat="55.8133100" lon="49.1333210"><time>2021-08-14T06:59:36</time></trkpt><trkpt lat="55.8133280" lon="49.1333230"><time>2021-08-14T06:59:37</time></trkpt><trkpt lat="55.8133450" lon="49.1333270"><time>2021-08-14T06:59:38</time></trkpt><trkpt lat="55.8133610" lon="49.1333280"><time>2021-08-14T06:59:39</time></trkpt><trkpt lat="55.8133760" lon="49.1333250"><time>2021-08-14T06:59:40</time></trkpt><trkpt lat="55.8133900" lon="49.1333060"><time>2021-08-14T06:59:41</time></trkpt><trkpt lat="55.8134070" lon="49.1333020"><time>2021-08-14T06:59:42</time></trkpt><trkpt lat="55.8134230" lon="49.1332920"><time>2021-08-14T06:59:43</time></trkpt><trkpt lat="55.8134400" lon="49.1332890"><time>2021-08-14T06:59:44</time></trkpt><trkpt lat="55.8134580" lon="49.1332960"><time>2021-08-14T06:59:45</time></trkpt><trkpt lat="55.8134760" lon="49.1332880"><time>2021-08-14T06:59:46</time></trkpt><trkpt lat="55.8134930" lon="49.1332790"><time>2021-08-14T06:59:47</time></trkpt><trkpt lat="55.8135080" lon="49.1332670"><time>2021-08-14T06:59:48</time></trkpt><trkpt lat="55.8135240" lon="49.1332560"><time>2021-08-14T06:59:49</time></trkpt><trkpt lat="55.8135390" lon="49.1332450"><time>2021-08-14T06:59:50</time></trkpt><trkpt lat="55.8135550" lon="49.1332320"><time>2021-08-14T06:59:51</time></trkpt><trkpt lat="55.8135720" lon="49.1332300"><time>2021-08-14T06:59:52</time></trkpt><trkpt lat="55.8135880" lon="49.1332220"><time>2021-08-14T06:59:53</time></trkpt><trkpt lat="55.8136060" lon="49.1332170"><time>2021-08-14T06:59:54</time></trkpt><trkpt lat="55.8136210" lon="49.1332050"><time>2021-08-14T06:59:55</time></trkpt><trkpt lat="55.8136360" lon="49.1331960"><time>2021-08-14T06:59:56</time></trkpt><trkpt lat="55.8136530" lon="49.1331910"><time>2021-08-14T06:59:57</time></trkpt><trkpt lat="55.8136670" lon="49.1331770"><time>2021-08-14T06:59:58</time></trkpt><trkpt lat="55.8136830" lon="49.1331730"><time>2021-08-14T06:59:59</time></trkpt><trkpt lat="55.8137000" lon="49.1331790"><time>2021-08-14T07:00:00</time></trkpt><trkpt lat="55.8137160" lon="49.1331740"><time>2021-08-14T07:00:01</time></trkpt><trkpt lat="55.8137330" lon="49.1331790"><time>2021-08-14T07:00:02</time></trkpt><trkpt lat="55.8137490" lon="49.1331810"><time>2021-08-14T07:00:03</time></trkpt><trkpt lat="55.8137670" lon="49.1331750"><time>2021-08-14T07:00:04</time></trkpt><trkpt lat="55.8137820" lon="49.1331790"><time>2021-08-14T07:00:05</time></trkpt><trkpt lat="55.8137980" lon="49.1331850"><time>2021-08-14T07:00:06</time></trkpt><trkpt lat="55.8138120" lon="49.1331810"><time>2021-08-14T07:00:07</time></trkpt><trkpt lat="55.8138270" lon="49.1331770"><time>2021-08-14T07:00:08</time></trkpt><trkpt lat="55.8138430" lon="49.1331730"><time>2021-08-14T07:00:09</time></trkpt><trkpt lat="55.8138590" lon="49.1331760"><time>2021-08-14T07:00:10</time></trkpt><trkpt lat="55.8138750" lon="49.1331730"><time>2021-08-14T07:00:11</time></trkpt><trkpt lat="55.8138910" lon="49.1331770"><time>2021-08-14T07:00:12</time></trkpt><trkpt lat="55.8139070" lon="49.1331720"><time>2021-08-14T07:00:13</time></trkpt><trkpt lat="55.8139230" lon="49.1331710"><time>2021-08-14T07:00:14</time></trkpt><trkpt lat="55.8139390" lon="49.1331740"><time>2021-08-14T07:00:15</time></trkpt><trkpt lat="55.8139550" lon="49.1331760"><time>2021-08-14T07:00:16</time></trkpt><trkpt lat="55.8139720" lon="49.1331700"><time>2021-08-14T07:00:17</time></trkpt><trkpt lat="55.8139870" lon="49.1331750"><time>2021-08-14T07:00:18</time></trkpt><trkpt lat="55.8140010" lon="49.1331770"><time>2021-08-14T07:00:19</time></trkpt><trkpt lat="55.8140160" lon="49.1331830"><time>2021-08-14T07:00:20</time></trkpt><trkpt lat="55.8140310" lon="49.1331780"><time>2021-08-14T07:00:21</time></trkpt><trkpt lat="55.8140470" lon="49.1331830"><time>2021-08-14T07:00:22</time></trkpt><trkpt lat="55.8140640" lon="49.1331860"><time>2021-08-14T07:00:23</time></trkpt><trkpt lat="55.8140780" lon="49.1331890"><time>2021-08-14T07:00:24</time></trkpt><trkpt lat="55.8140940" lon="49.1331970"><time>2021-08-14T07:00:25</time></trkpt><trkpt lat="55.8141090" lon="49.1332050"><time>2021-08-14T07:00:26</time></trkpt><trkpt lat="55.8141250" lon="49.1332050"><time>2021-08-14T07:00:27</time></trkpt><trkpt lat="55.8141400" lon="49.1332120"><time>2021-08-14T07:00:28</time></trkpt><trkpt lat="55.8141560" lon="49.1332160"><time>2021-08-14T07:00:29</time></trkpt><trkpt lat="55.8141700" lon="49.1332300"><time>2021-08-14T07:00:30</time></trkpt><trkpt lat="55.8141860" lon="49.1332380"><time>2021-08-14T07:00:31</time></trkpt><trkpt lat="55.8141990" lon="49.1332480"><time>2021-08-14T07:00:32</time></trkpt><trkpt lat="55.8142140" lon="49.1332600"><time>2021-08-14T07:00:33</time></trkpt><trkpt lat="55.8142280" lon="49.1332660"><time>2021-08-14T07:00:34</time></trkpt><trkpt lat="55.8142440" lon="49.1332620"><time>2021-08-14T07:00:35</time></trkpt><trkpt lat="55.8142600" lon="49.1332520"><time>2021-08-14T07:00:36</time></trkpt><trkpt lat="55.8142770" lon="49.1332480"><time>2021-08-14T07:00:37</time></trkpt><trkpt lat="55.8142920" lon="49.1332380"><time>2021-08-14T07:00:38</time></trkpt><trkpt lat="55.8143090" lon="49.1332320"><time>2021-08-14T07:00:39</time></trkpt><trkpt lat="55.8143250" lon="49.1332240"><time>2021-08-14T07:00:40</time></trkpt><trkpt lat="55.8143410" lon="49.1332070"><time>2021-08-14T07:00:41</time></trkpt><trkpt lat="55.8143570" lon="49.1331960"><time>2021-08-14T07:00:42</time></trkpt><trkpt lat="55.8143710" lon="49.1331860"><time>2021-08-14T07:00:43</time></trkpt><trkpt lat="55.8143890" lon="49.1331800"><time>2021-08-14T07:00:44</time></trkpt><trkpt lat="55.8144040" lon="49.1331790"><time>2021-08-14T07:00:45</time></trkpt><trkpt lat="55.8144180" lon="49.1331760"><time>2021-08-14T07:00:46</time></trkpt><trkpt lat="55.8144360" lon="49.1331560"><time>2021-08-14T07:00:47</time></trkpt><trkpt lat="55.8144400" lon="49.1331370"><time>2021-08-14T07:00:48</time></trkpt><trkpt lat="55.8144450" lon="49.1331190"><time>2021-08-14T07:00:49</time></trkpt><trkpt lat="55.8144480" lon="49.1330940"><time>2021-08-14T07:00:50</time></trkpt><trkpt lat="55.8144470" lon="49.1330730"><time>2021-08-14T07:00:51</time></trkpt><trkpt lat="55.8144520" lon="49.1330600"><time>2021-08-14T07:00:52</time></trkpt><trkpt lat="55.8144600" lon="49.1330280"><time>2021-08-14T07:00:53</time></trkpt><trkpt lat="55.8144620" lon="49.1330110"><time>2021-08-14T07:00:54</time></trkpt><trkpt lat="55.8144640" lon="49.1329930"><time>2021-08-14T07:00:55</time></trkpt><trkpt lat="55.8144650" lon="49.1329640"><time>2021-08-14T07:00:56</time></trkpt><trkpt lat="55.8144630" lon="49.1329340"><time>2021-08-14T07:00:57</time></trkpt><trkpt lat="55.8144630" lon="49.1329090"><time>2021-08-14T07:00:58</time></trkpt><trkpt lat="55.8144670" lon="49.1328830"><time>2021-08-14T07:00:59</time></trkpt><trkpt lat="55.8144750" lon="49.1328580"><time>2021-08-14T07:01:00</time></trkpt><trkpt lat="55.8144800" lon="49.1328350"><time>2021-08-14T07:01:01</time></trkpt><trkpt lat="55.8144840" lon="49.1328110"><time>2021-08-14T07:01:02</time></trkpt><trkpt lat="55.8144820" lon="49.1327840"><time>2021-08-14T07:01:03</time></trkpt><trkpt lat="55.8144770" lon="49.1327580"><time>2021-08-14T07:01:04</time></trkpt><trkpt lat="55.8144730" lon="49.1327340"><time>2021-08-14T07:01:05</time></trkpt><trkpt lat="55.8144710" lon="49.1327110"><time>2021-08-14T07:01:06</time></trkpt><trkpt lat="55.8144650" lon="49.1326820"><time>2021-08-14T07:01:07</time></trkpt><trkpt lat="55.8144620" lon="49.1326580"><time>2021-08-14T07:01:08</time></trkpt><trkpt lat="55.8144560" lon="49.1326340"><time>2021-08-14T07:01:09</time></trkpt><trkpt lat="55.8144490" lon="49.1326140"><time>2021-08-14T07:01:10</time></trkpt><trkpt lat="55.8144460" lon="49.1325890"><time>2021-08-14T07:01:11</time></trkpt><trkpt lat="55.8144440" lon="49.1325630"><time>2021-08-14T07:01:12</time></trkpt><trkpt lat="55.8144380" lon="49.1325380"><time>2021-08-14T07:01:13</time></trkpt><trkpt lat="55.8144300" lon="49.1325130"><time>2021-08-14T07:01:14</time></trkpt><trkpt lat="55.8144270" lon="49.1324870"><time>2021-08-14T07:01:15</time></trkpt><trkpt lat="55.8144230" lon="49.1324610"><time>2021-08-14T07:01:16</time></trkpt><trkpt lat="55.8144170" lon="49.1324390"><time>2021-08-14T07:01:17</time></trkpt><trkpt lat="55.8144080" lon="49.1324210"><time>2021-08-14T07:01:18</time></trkpt><trkpt lat="55.8143990" lon="49.1324080"><time>2021-08-14T07:01:19</time></trkpt><trkpt lat="55.8143930" lon="49.1324120"><time>2021-08-14T07:01:20</time></trkpt><trkpt lat="55.8144000" lon="49.1324270"><time>2021-08-14T07:01:21</time></trkpt><trkpt lat="55.8143990" lon="49.1324390"><time>2021-08-14T07:01:22</time></trkpt><trkpt lat="55.8144010" lon="49.1324530"><time>2021-08-14T07:01:23</time></trkpt><trkpt lat="55.8144020" lon="49.1324710"><time>2021-08-14T07:01:24</time></trkpt><trkpt lat="55.8144050" lon="49.1324950"><time>2021-08-14T07:01:25</time></trkpt><trkpt lat="55.8144050" lon="49.1325140"><time>2021-08-14T07:01:26</time></trkpt><trkpt lat="55.8144030" lon="49.1325330"><time>2021-08-14T07:01:27</time></trkpt><trkpt lat="55.8144040" lon="49.1325740"><time>2021-08-14T07:01:28</time></trkpt><trkpt lat="55.8144060" lon="49.1325920"><time>2021-08-14T07:01:29</time></trkpt><trkpt lat="55.8144080" lon="49.1326090"><time>2021-08-14T07:01:30</time></trkpt><trkpt lat="55.8144080" lon="49.1326240"><time>2021-08-14T07:01:31</time></trkpt><trkpt lat="55.8144080" lon="49.1326620"><time>2021-08-14T07:01:32</time></trkpt><trkpt lat="55.8144070" lon="49.1326910"><time>2021-08-14T07:01:33</time></trkpt><trkpt lat="55.8143980" lon="49.1327150"><time>2021-08-14T07:01:34</time></trkpt><trkpt lat="55.8143880" lon="49.1327370"><time>2021-08-14T07:01:35</time></trkpt><trkpt lat="55.8143760" lon="49.1327550"><time>2021-08-14T07:01:36</time></trkpt><trkpt lat="55.8143590" lon="49.1327650"><time>2021-08-14T07:01:37</time></trkpt><trkpt lat="55.8143450" lon="49.1327740"><time>2021-08-14T07:01:38</time></trkpt><trkpt lat="55.8143290" lon="49.1327860"><time>2021-08-14T07:01:39</time></trkpt><trkpt lat="55.8143180" lon="49.1328020"><time>2021-08-14T07:01:40</time></trkpt><trkpt lat="55.8143110" lon="49.1328270"><time>2021-08-14T07:01:41</time></trkpt><trkpt lat="55.8143150" lon="49.1328580"><time>2021-08-14T07:01:42</time></trkpt><trkpt lat="55.8143150" lon="49.1329110"><time>2021-08-14T07:01:43</time></trkpt><trkpt lat="55.8143130" lon="49.1329260"><time>2021-08-14T07:01:44</time></trkpt><trkpt lat="55.8143120" lon="49.1329470"><time>2021-08-14T07:01:45</time></trkpt><trkpt lat="55.8142930" lon="49.1329590"><time>2021-08-14T07:01:46</time></trkpt><trkpt lat="55.8142800" lon="49.1329660"><time>2021-08-14T07:01:47</time></trkpt><trkpt lat="55.8142650" lon="49.1329650"><time>2021-08-14T07:01:48</time></trkpt><trkpt lat="55.8142510" lon="49.1329540"><time>2021-08-14T07:01:49</time></trkpt><trkpt lat="55.8142390" lon="49.1329490"><time>2021-08-14T07:01:50</time></trkpt><trkpt lat="55.8142280" lon="49.1329440"><time>2021-08-14T07:01:51</time></trkpt><trkpt lat="55.8142170" lon="49.1329470"><time>2021-08-14T07:01:52</time></trkpt><trkpt lat="55.8142050" lon="49.1329390"><time>2021-08-14T07:01:53</time></trkpt><trkpt lat="55.8141840" lon="49.1329330"><time>2021-08-14T07:01:54</time></trkpt><trkpt lat="55.8141750" lon="49.1329290"><time>2021-08-14T07:01:55</time></trkpt><trkpt lat="55.8141670" lon="49.1329260"><time>2021-08-14T07:01:56</time></trkpt><trkpt lat="55.8141580" lon="49.1329210"><time>2021-08-14T07:01:57</time></trkpt><trkpt lat="55.8141470" lon="49.1329130"><time>2021-08-14T07:01:58</time></trkpt><trkpt lat="55.8141390" lon="49.1328950"><time>2021-08-14T07:01:59</time></trkpt><trkpt lat="55.8141320" lon="49.1328630"><time>2021-08-14T07:02:00</time></trkpt><trkpt lat="55.8141320" lon="49.1328470"><time>2021-08-14T07:02:01</time></trkpt><trkpt lat="55.8141320" lon="49.1328320"><time>2021-08-14T07:02:02</time></trkpt><trkpt lat="55.8141210" lon="49.1328010"><time>2021-08-14T07:02:03</time></trkpt><trkpt lat="55.8141180" lon="49.1327870"><time>2021-08-14T07:02:04</time></trkpt><trkpt lat="55.8141140" lon="49.1327740"><time>2021-08-14T07:02:05</time></trkpt><trkpt lat="55.8141000" lon="49.1327480"><time>2021-08-14T07:02:06</time></trkpt><trkpt lat="55.8140950" lon="49.1327370"><time>2021-08-14T07:02:07</time></trkpt><trkpt lat="55.8140900" lon="49.1327250"><time>2021-08-14T07:02:08</time></trkpt><trkpt lat="55.8140860" lon="49.1326990"><time>2021-08-14T07:02:09</time></trkpt><trkpt lat="55.8140810" lon="49.1326760"><time>2021-08-14T07:02:10</time></trkpt><trkpt lat="55.8140790" lon="49.1326490"><time>2021-08-14T07:02:11</time></trkpt><trkpt lat="55.8140770" lon="49.1326250"><time>2021-08-14T07:02:12</time></trkpt><trkpt lat="55.8140730" lon="49.1326030"><time>2021-08-14T07:02:13</time></trkpt><trkpt lat="55.8140650" lon="49.1325800"><time>2021-08-14T07:02:14</time></trkpt><trkpt lat="55.8140600" lon="49.1325550"><time>2021-08-14T07:02:15</time></trkpt><trkpt lat="55.8140590" lon="49.1325290"><time>2021-08-14T07:02:16</time></trkpt><trkpt lat="55.8140540" lon="49.1325020"><time>2021-08-14T07:02:17</time></trkpt><trkpt lat="55.8140480" lon="49.1324780"><time>2021-08-14T07:02:18</time></trkpt><trkpt lat="55.8140460" lon="49.1324520"><time>2021-08-14T07:02:19</time></trkpt><trkpt lat="55.8140360" lon="49.1324280"><time>2021-08-14T07:02:20</time></trkpt><trkpt lat="55.8140330" lon="49.1324040"><time>2021-08-14T07:02:21</time></trkpt><trkpt lat="55.8140360" lon="49.1323790"><time>2021-08-14T07:02:22</time></trkpt><trkpt lat="55.8140420" lon="49.1323410"><time>2021-08-14T07:02:23</time></trkpt><trkpt lat="55.8140450" lon="49.1323250"><time>2021-08-14T07:02:24</time></trkpt><trkpt lat="55.8140470" lon="49.1323090"><time>2021-08-14T07:02:25</time></trkpt><trkpt lat="55.8140490" lon="49.1322860"><time>2021-08-14T07:02:26</time></trkpt><trkpt lat="55.8140430" lon="49.1322570"><time>2021-08-14T07:02:27</time></trkpt><trkpt lat="55.8140400" lon="49.1322320"><time>2021-08-14T07:02:28</time></trkpt><trkpt lat="55.8140370" lon="49.1322090"><time>2021-08-14T07:02:29</time></trkpt><trkpt lat="55.8140340" lon="49.1321860"><time>2021-08-14T07:02:30</time></trkpt><trkpt lat="55.8140310" lon="49.1321590"><time>2021-08-14T07:02:31</time></trkpt><trkpt lat="55.8140310" lon="49.1321310"><time>2021-08-14T07:02:32</time></trkpt><trkpt lat="55.8140260" lon="49.1321080"><time>2021-08-14T07:02:33</time></trkpt><trkpt lat="55.8140190" lon="49.1320820"><time>2021-08-14T07:02:34</time></trkpt><trkpt lat="55.8140180" lon="49.1320530"><time>2021-08-14T07:02:35</time></trkpt><trkpt lat="55.8140150" lon="49.1320260"><time>2021-08-14T07:02:36</time></trkpt><trkpt lat="55.8140210" lon="49.1320010"><time>2021-08-14T07:02:37</time></trkpt><trkpt lat="55.8140130" lon="49.1319780"><time>2021-08-14T07:02:38</time></trkpt><trkpt lat="55.8140130" lon="49.1319520"><time>2021-08-14T07:02:39</time></trkpt><trkpt lat="55.8140040" lon="49.1319150"><time>2021-08-14T07:02:40</time></trkpt><trkpt lat="55.8140020" lon="49.1318980"><time>2021-08-14T07:02:41</time></trkpt><trkpt lat="55.8139990" lon="49.1318820"><time>2021-08-14T07:02:42</time></trkpt><trkpt lat="55.8139940" lon="49.1318550"><time>2021-08-14T07:02:43</time></trkpt><trkpt lat="55.8139880" lon="49.1318280"><time>2021-08-14T07:02:44</time></trkpt><trkpt lat="55.8139790" lon="49.1318050"><time>2021-08-14T07:02:45</time></trkpt><trkpt lat="55.8139780" lon="49.1317770"><time>2021-08-14T07:02:46</time></trkpt><trkpt lat="55.8139710" lon="49.1317500"><time>2021-08-14T07:02:47</time></trkpt><trkpt lat="55.8139720" lon="49.1317210"><time>2021-08-14T07:02:48</time></trkpt><trkpt lat="55.8139690" lon="49.1316940"><time>2021-08-14T07:02:49</time></trkpt><trkpt lat="55.8139620" lon="49.1316690"><time>2021-08-14T07:02:50</time></trkpt><trkpt lat="55.8139580" lon="49.1316420"><time>2021-08-14T07:02:51</time></trkpt><trkpt lat="55.8139490" lon="49.1316170"><time>2021-08-14T07:02:52</time></trkpt><trkpt lat="55.8139380" lon="49.1315950"><time>2021-08-14T07:02:53</time></trkpt><trkpt lat="55.8139230" lon="49.1315750"><time>2021-08-14T07:02:54</time></trkpt><trkpt lat="55.8139010" lon="49.1315430"><time>2021-08-14T07:02:55</time></trkpt><trkpt lat="55.8138930" lon="49.1315340"><time>2021-08-14T07:02:56</time></trkpt><trkpt lat="55.8138680" lon="49.1315040"><time>2021-08-14T07:02:57</time></trkpt><trkpt lat="55.8138600" lon="49.1314920"><time>2021-08-14T07:02:58</time></trkpt><trkpt lat="55.8138480" lon="49.1314710"><time>2021-08-14T07:02:59</time></trkpt><trkpt lat="55.8138350" lon="49.1314480"><time>2021-08-14T07:03:00</time></trkpt><trkpt lat="55.8138220" lon="49.1314240"><time>2021-08-14T07:03:01</time></trkpt><trkpt lat="55.8138090" lon="49.1314030"><time>2021-08-14T07:03:02</time></trkpt><trkpt lat="55.8138000" lon="49.1313800"><time>2021-08-14T07:03:03</time></trkpt><trkpt lat="55.8137890" lon="49.1313560"><time>2021-08-14T07:03:04</time></trkpt><trkpt lat="55.8137760" lon="49.1313370"><time>2021-08-14T07:03:05</time></trkpt><trkpt lat="55.8137660" lon="49.1313150"><time>2021-08-14T07:03:06</time></trkpt><trkpt lat="55.8137410" lon="49.1312920"><time>2021-08-14T07:03:07</time></trkpt><trkpt lat="55.8137330" lon="49.1312830"><time>2021-08-14T07:03:08</time></trkpt><trkpt lat="55.8137200" lon="49.1312650"><time>2021-08-14T07:03:09</time></trkpt><trkpt lat="55.8137090" lon="49.1312440"><time>2021-08-14T07:03:10</time></trkpt><trkpt lat="55.8137010" lon="49.1312160"><time>2021-08-14T07:03:11</time></trkpt><trkpt lat="55.8136910" lon="49.1311960"><time>2021-08-14T07:03:12</time></trkpt><trkpt lat="55.8136850" lon="49.1311740"><time>2021-08-14T07:03:13</time></trkpt><trkpt lat="55.8136720" lon="49.1311570"><time>2021-08-14T07:03:14</time></trkpt><trkpt lat="55.8136620" lon="49.1311360"><time>2021-08-14T07:03:15</time></trkpt><trkpt lat="55.8136540" lon="49.1311160"><time>2021-08-14T07:03:16</time></trkpt><trkpt lat="55.8136450" lon="49.1310980"><time>2021-08-14T07:03:17</time></trkpt><trkpt lat="55.8136380" lon="49.1310770"><time>2021-08-14T07:03:18</time></trkpt><trkpt lat="55.8136270" lon="49.1310410"><time>2021-08-14T07:03:19</time></trkpt><trkpt lat="55.8136240" lon="49.1310250"><time>2021-08-14T07:03:20</time></trkpt><trkpt lat="55.8136210" lon="49.1310090"><time>2021-08-14T07:03:21</time></trkpt><trkpt lat="55.8136130" lon="49.1309720"><time>2021-08-14T07:03:22</time></trkpt><trkpt lat="55.8136100" lon="49.1309570"><time>2021-08-14T07:03:23</time></trkpt><trkpt lat="55.8136070" lon="49.1309430"><time>2021-08-14T07:03:24</time></trkpt><trkpt lat="55.8136040" lon="49.1309030"><time>2021-08-14T07:03:25</time></trkpt><trkpt lat="55.8136020" lon="49.1308890"><time>2021-08-14T07:03:26</time></trkpt><trkpt lat="55.8135990" lon="49.1308740"><time>2021-08-14T07:03:27</time></trkpt><trkpt lat="55.8136020" lon="49.1308570"><time>2021-08-14T07:03:28</time></trkpt><trkpt lat="55.8136060" lon="49.1308360"><time>2021-08-14T07:03:29</time></trkpt><trkpt lat="55.8136100" lon="49.1308200"><time>2021-08-14T07:03:30</time></trkpt><trkpt lat="55.8136180" lon="49.1308060"><time>2021-08-14T07:03:31</time></trkpt><trkpt lat="55.8136270" lon="49.1307930"><time>2021-08-14T07:03:32</time></trkpt><trkpt lat="55.8136330" lon="49.1307850"><time>2021-08-14T07:03:33</time></trkpt><trkpt lat="55.8136370" lon="49.1307730"><time>2021-08-14T07:03:34</time></trkpt><trkpt lat="55.8136430" lon="49.1307530"><time>2021-08-14T07:03:35</time></trkpt><trkpt lat="55.8136490" lon="49.1307370"><time>2021-08-14T07:03:36</time></trkpt><trkpt lat="55.8136510" lon="49.1307150"><time>2021-08-14T07:03:37</time></trkpt><trkpt lat="55.8136530" lon="49.1307020"><time>2021-08-14T07:03:38</time></trkpt><trkpt lat="55.8136570" lon="49.1306890"><time>2021-08-14T07:03:39</time></trkpt><trkpt lat="55.8136530" lon="49.1306910"><time>2021-08-14T07:03:40</time></trkpt><trkpt lat="55.8136560" lon="49.1306930"><time>2021-08-14T07:03:41</time></trkpt><trkpt lat="55.8136540" lon="49.1306850"><time>2021-08-14T07:03:42</time></trkpt><trkpt lat="55.8136520" lon="49.1306890"><time>2021-08-14T07:03:43</time></trkpt><trkpt lat="55.8136530" lon="49.1306900"><time>2021-08-14T07:03:44</time></trkpt><trkpt lat="55.8136510" lon="49.1306810"><time>2021-08-14T07:03:45</time></trkpt><trkpt lat="55.8136550" lon="49.1306750"><time>2021-08-14T07:03:46</time></trkpt><trkpt lat="55.8136580" lon="49.1306570"><time>2021-08-14T07:03:47</time></trkpt><trkpt lat="55.8136620" lon="49.1306420"><time>2021-08-14T07:03:48</time></trkpt><trkpt lat="55.8136670" lon="49.1306070"><time>2021-08-14T07:03:49</time></trkpt><trkpt lat="55.8136700" lon="49.1305890"><time>2021-08-14T07:03:50</time></trkpt><trkpt lat="55.8136720" lon="49.1305710"><time>2021-08-14T07:03:51</time></trkpt><trkpt lat="55.8136810" lon="49.1305700"><time>2021-08-14T07:03:52</time></trkpt><trkpt lat="55.8136860" lon="49.1305440"><time>2021-08-14T07:03:53</time></trkpt><trkpt lat="55.8136930" lon="49.1305230"><time>2021-08-14T07:03:54</time></trkpt><trkpt lat="55.8136930" lon="49.1305120"><time>2021-08-14T07:03:55</time></trkpt><trkpt lat="55.8136950" lon="49.1304920"><time>2021-08-14T07:03:56</time></trkpt><trkpt lat="55.8136960" lon="49.1304670"><time>2021-08-14T07:03:57</time></trkpt><trkpt lat="55.8136990" lon="49.1304560"><time>2021-08-14T07:03:58</time></trkpt><trkpt lat="55.8137020" lon="49.1304370"><time>2021-08-14T07:03:59</time></trkpt><trkpt lat="55.8137050" lon="49.1304190"><time>2021-08-14T07:04:00</time></trkpt><trkpt lat="55.8137080" lon="49.1303990"><time>2021-08-14T07:04:01</time></trkpt><trkpt lat="55.8137100" lon="49.1303800"><time>2021-08-14T07:04:02</time></trkpt><trkpt lat="55.8137110" lon="49.1303640"><time>2021-08-14T07:04:03</time></trkpt><trkpt lat="55.8137160" lon="49.1303460"><time>2021-08-14T07:04:04</time></trkpt><trkpt lat="55.8137160" lon="49.1303260"><time>2021-08-14T07:04:05</time></trkpt><trkpt lat="55.8137170" lon="49.1303040"><time>2021-08-14T07:04:06</time></trkpt><trkpt lat="55.8137210" lon="49.1302900"><time>2021-08-14T07:04:07</time></trkpt><trkpt lat="55.8137280" lon="49.1302730"><time>2021-08-14T07:04:08</time></trkpt><trkpt lat="55.8137320" lon="49.1302550"><time>2021-08-14T07:04:09</time></trkpt><trkpt lat="55.8137350" lon="49.1302360"><time>2021-08-14T07:04:10</time></trkpt><trkpt lat="55.8137390" lon="49.1302210"><time>2021-08-14T07:04:11</time></trkpt><trkpt lat="55.8137440" lon="49.1301990"><time>2021-08-14T07:04:12</time></trkpt><trkpt lat="55.8137540" lon="49.1301820"><time>2021-08-14T07:04:13</time></trkpt><trkpt lat="55.8137610" lon="49.1301580"><time>2021-08-14T07:04:14</time></trkpt><trkpt lat="55.8137680" lon="49.1301410"><time>2021-08-14T07:04:15</time></trkpt><trkpt lat="55.8137760" lon="49.1301250"><time>2021-08-14T07:04:16</time></trkpt><trkpt lat="55.8137800" lon="49.1301060"><time>2021-08-14T07:04:17</time></trkpt><trkpt lat="55.8137860" lon="49.1300910"><time>2021-08-14T07:04:18</time></trkpt><trkpt lat="55.8137870" lon="49.1300660"><time>2021-08-14T07:04:19</time></trkpt><trkpt lat="55.8137870" lon="49.1300420"><time>2021-08-14T07:04:20</time></trkpt><trkpt lat="55.8137820" lon="49.1300240"><time>2021-08-14T07:04:21</time></trkpt><trkpt lat="55.8137840" lon="49.1299960"><time>2021-08-14T07:04:22</time></trkpt><trkpt lat="55.8137830" lon="49.1299800"><time>2021-08-14T07:04:23</time></trkpt><trkpt lat="55.8137860" lon="49.1299550"><time>2021-08-14T07:04:24</time></trkpt><trkpt lat="55.8137840" lon="49.1299290"><time>2021-08-14T07:04:25</time></trkpt><trkpt lat="55.8137840" lon="49.1299150"><time>2021-08-14T07:04:26</time></trkpt><trkpt lat="55.8137900" lon="49.1298960"><time>2021-08-14T07:04:27</time></trkpt><trkpt lat="55.8137960" lon="49.1298720"><time>2021-08-14T07:04:28</time></trkpt><trkpt lat="55.8138070" lon="49.1298540"><time>2021-08-14T07:04:29</time></trkpt><trkpt lat="55.8138160" lon="49.1298320"><time>2021-08-14T07:04:30</time></trkpt><trkpt lat="55.8138240" lon="49.1298150"><time>2021-08-14T07:04:31</time></trkpt><trkpt lat="55.8138330" lon="49.1297930"><time>2021-08-14T07:04:32</time></trkpt><trkpt lat="55.8138450" lon="49.1297550"><time>2021-08-14T07:04:33</time></trkpt><trkpt lat="55.8138510" lon="49.1297400"><time>2021-08-14T07:04:34</time></trkpt><trkpt lat="55.8138560" lon="49.1297250"><time>2021-08-14T07:04:35</time></trkpt><trkpt lat="55.8138610" lon="49.1297030"><time>2021-08-14T07:04:36</time></trkpt><trkpt lat="55.8138680" lon="49.1296760"><time>2021-08-14T07:04:37</time></trkpt><trkpt lat="55.8138740" lon="49.1296380"><time>2021-08-14T07:04:38</time></trkpt><trkpt lat="55.8138770" lon="49.1296200"><time>2021-08-14T07:04:39</time></trkpt><trkpt lat="55.8138810" lon="49.1296020"><time>2021-08-14T07:04:40</time></trkpt><trkpt lat="55.8138860" lon="49.1295800"><time>2021-08-14T07:04:41</time></trkpt><trkpt lat="55.8138910" lon="49.1295510"><time>2021-08-14T07:04:42</time></trkpt><trkpt lat="55.8138940" lon="49.1295220"><time>2021-08-14T07:04:43</time></trkpt><trkpt lat="55.8138970" lon="49.1294980"><time>2021-08-14T07:04:44</time></trkpt><trkpt lat="55.8139010" lon="49.1294730"><time>2021-08-14T07:04:45</time></trkpt><trkpt lat="55.8139060" lon="49.1294400"><time>2021-08-14T07:04:46</time></trkpt><trkpt lat="55.8139180" lon="49.1294090"><time>2021-08-14T07:04:47</time></trkpt><trkpt lat="55.8139220" lon="49.1293910"><time>2021-08-14T07:04:48</time></trkpt><trkpt lat="55.8139250" lon="49.1293740"><time>2021-08-14T07:04:49</time></trkpt><trkpt lat="55.8139300" lon="49.1293460"><time>2021-08-14T07:04:50</time></trkpt><trkpt lat="55.8139340" lon="49.1293220"><time>2021-08-14T07:04:51</time></trkpt><trkpt lat="55.8139410" lon="49.1292960"><time>2021-08-14T07:04:52</time></trkpt><trkpt lat="55.8139450" lon="49.1292730"><time>2021-08-14T07:04:53</time></trkpt><trkpt lat="55.8139500" lon="49.1292410"><time>2021-08-14T07:04:54</time></trkpt><trkpt lat="55.8139550" lon="49.1292240"><time>2021-08-14T07:04:55</time></trkpt><trkpt lat="55.8139590" lon="49.1291950"><time>2021-08-14T07:04:56</time></trkpt><trkpt lat="55.8139690" lon="49.1291780"><time>2021-08-14T07:04:57</time></trkpt><trkpt lat="55.8139760" lon="49.1291540"><time>2021-08-14T07:04:58</time></trkpt><trkpt lat="55.8139820" lon="49.1291330"><time>2021-08-14T07:04:59</time></trkpt><trkpt lat="55.8139900" lon="49.1291040"><time>2021-08-14T07:05:00</time></trkpt><trkpt lat="55.8139970" lon="49.1290850"><time>2021-08-14T07:05:01</time></trkpt><trkpt lat="55.8140030" lon="49.1290560"><time>2021-08-14T07:05:02</time></trkpt><trkpt lat="55.8140110" lon="49.1290370"><time>2021-08-14T07:05:03</time></trkpt><trkpt lat="55.8140210" lon="49.1290160"><time>2021-08-14T07:05:04</time></trkpt><trkpt lat="55.8140300" lon="49.1289930"><time>2021-08-14T07:05:05</time></trkpt><trkpt lat="55.8140370" lon="49.1289660"><time>2021-08-14T07:05:06</time></trkpt><trkpt lat="55.8140470" lon="49.1289470"><time>2021-08-14T07:05:07</time></trkpt><trkpt lat="55.8140580" lon="49.1289290"><time>2021-08-14T07:05:08</time></trkpt><trkpt lat="55.8140650" lon="49.1289050"><time>2021-08-14T07:05:09</time></trkpt><trkpt lat="55.8140730" lon="49.1288820"><time>2021-08-14T07:05:10</time></trkpt><trkpt lat="55.8140840" lon="49.1288610"><time>2021-08-14T07:05:11</time></trkpt><trkpt lat="55.8140910" lon="49.1288370"><time>2021-08-14T07:05:12</time></trkpt><trkpt lat="55.8141010" lon="49.1288190"><time>2021-08-14T07:05:13</time></trkpt><trkpt lat="55.8141090" lon="49.1287970"><time>2021-08-14T07:05:14</time></trkpt><trkpt lat="55.8141180" lon="49.1287800"><time>2021-08-14T07:05:15</time></trkpt><trkpt lat="55.8141340" lon="49.1287490"><time>2021-08-14T07:05:16</time></trkpt><trkpt lat="55.8141410" lon="49.1287370"><time>2021-08-14T07:05:17</time></trkpt><trkpt lat="55.8141470" lon="49.1287240"><time>2021-08-14T07:05:18</time></trkpt><trkpt lat="55.8141590" lon="49.1286980"><time>2021-08-14T07:05:19</time></trkpt><trkpt lat="55.8141650" lon="49.1286850"><time>2021-08-14T07:05:20</time></trkpt><trkpt lat="55.8141700" lon="49.1286730"><time>2021-08-14T07:05:21</time></trkpt><trkpt lat="55.8141760" lon="49.1286500"><time>2021-08-14T07:05:22</time></trkpt><trkpt lat="55.8141850" lon="49.1286300"><time>2021-08-14T07:05:23</time></trkpt><trkpt lat="55.8141950" lon="49.1286110"><time>2021-08-14T07:05:24</time></trkpt><trkpt lat="55.8142040" lon="49.1285910"><time>2021-08-14T07:05:25</time></trkpt><trkpt lat="55.8142160" lon="49.1285740"><time>2021-08-14T07:05:26</time></trkpt><trkpt lat="55.8142280" lon="49.1285610"><time>2021-08-14T07:05:27</time></trkpt><trkpt lat="55.8142400" lon="49.1285450"><time>2021-08-14T07:05:28</time></trkpt><trkpt lat="55.8142500" lon="49.1285280"><time>2021-08-14T07:05:29</time></trkpt><trkpt lat="55.8142690" lon="49.1285070"><time>2021-08-14T07:05:30</time></trkpt><trkpt lat="55.8142750" lon="49.1284960"><time>2021-08-14T07:05:31</time></trkpt><trkpt lat="55.8142820" lon="49.1284860"><time>2021-08-14T07:05:32</time></trkpt><trkpt lat="55.8142940" lon="49.1284540"><time>2021-08-14T07:05:33</time></trkpt><trkpt lat="55.8142970" lon="49.1284400"><time>2021-08-14T07:05:34</time></trkpt><trkpt lat="55.8143010" lon="49.1284270"><time>2021-08-14T07:05:35</time></trkpt><trkpt lat="55.8143070" lon="49.1284050"><time>2021-08-14T07:05:36</time></trkpt><trkpt lat="55.8143170" lon="49.1283920"><time>2021-08-14T07:05:37</time></trkpt><trkpt lat="55.8143260" lon="49.1283800"><time>2021-08-14T07:05:38</time></trkpt><trkpt lat="55.8143350" lon="49.1283670"><time>2021-08-14T07:05:39</time></trkpt><trkpt lat="55.8143400" lon="49.1283630"><time>2021-08-14T07:05:40</time></trkpt><trkpt lat="55.8143460" lon="49.1283480"><time>2021-08-14T07:05:41</time></trkpt><trkpt lat="55.8143560" lon="49.1283490"><time>2021-08-14T07:05:42</time></trkpt><trkpt lat="55.8143660" lon="49.1283470"><time>2021-08-14T07:05:43</time></trkpt><trkpt lat="55.8143650" lon="49.1283430"><time>2021-08-14T07:05:44</time></trkpt><trkpt lat="55.8143730" lon="49.1283410"><time>2021-08-14T07:05:45</time></trkpt><trkpt lat="55.8143750" lon="49.1283390"><time>2021-08-14T07:05:46</time></trkpt><trkpt lat="55.8143710" lon="49.1283370"><time>2021-08-14T07:05:47</time></trkpt><trkpt lat="55.8143690" lon="49.1283350"><time>2021-08-14T07:05:48</time></trkpt><trkpt lat="55.8143670" lon="49.1283320"><time>2021-08-14T07:05:49</time></trkpt><trkpt lat="55.8143680" lon="49.1283310"><time>2021-08-14T07:05:50</time></trkpt><trkpt lat="55.8143690" lon="49.1283260"><time>2021-08-14T07:05:51</time></trkpt><trkpt lat="55.8143710" lon="49.1283230"><time>2021-08-14T07:05:52</time></trkpt><trkpt lat="55.8143830" lon="49.1283160"><time>2021-08-14T07:05:53</time></trkpt><trkpt lat="55.8144000" lon="49.1283070"><time>2021-08-14T07:05:54</time></trkpt><trkpt lat="55.8144110" lon="49.1282980"><time>2021-08-14T07:05:55</time></trkpt><trkpt lat="55.8144230" lon="49.1282920"><time>2021-08-14T07:05:56</time></trkpt><trkpt lat="55.8144300" lon="49.1282880"><time>2021-08-14T07:05:57</time></trkpt><trkpt lat="55.8144390" lon="49.1282870"><time>2021-08-14T07:05:58</time></trkpt><trkpt lat="55.8144430" lon="49.1282860"><time>2021-08-14T07:05:59</time></trkpt><trkpt lat="55.8144510" lon="49.1282850"><time>2021-08-14T07:06:00</time></trkpt><trkpt lat="55.8144570" lon="49.1282840"><time>2021-08-14T07:06:01</time></trkpt><trkpt lat="55.8144650" lon="49.1282830"><time>2021-08-14T07:06:02</time></trkpt><trkpt lat="55.8144770" lon="49.1282840"><time>2021-08-14T07:06:03</time></trkpt><trkpt lat="55.8144840" lon="49.1282900"><time>2021-08-14T07:06:04</time></trkpt><trkpt lat="55.8144950" lon="49.1282980"><time>2021-08-14T07:06:05</time></trkpt><trkpt lat="55.8145020" lon="49.1283040"><time>2021-08-14T07:06:06</time></trkpt><trkpt lat="55.8145070" lon="49.1283020"><time>2021-08-14T07:06:07</time></trkpt><trkpt lat="55.8145110" lon="49.1283100"><time>2021-08-14T07:06:08</time></trkpt><trkpt lat="55.8145170" lon="49.1283100"><time>2021-08-14T07:06:09</time></trkpt><trkpt lat="55.8145270" lon="49.1283060"><time>2021-08-14T07:06:10</time></trkpt><trkpt lat="55.8145520" lon="49.1282970"><time>2021-08-14T07:06:11</time></trkpt><trkpt lat="55.8145610" lon="49.1282930"><time>2021-08-14T07:06:12</time></trkpt><trkpt lat="55.8145700" lon="49.1282880"><time>2021-08-14T07:06:13</time></trkpt><trkpt lat="55.8145790" lon="49.1282680"><time>2021-08-14T07:06:14</time></trkpt><trkpt lat="55.8145930" lon="49.1282560"><time>2021-08-14T07:06:15</time></trkpt><trkpt lat="55.8146010" lon="49.1282390"><time>2021-08-14T07:06:16</time></trkpt><trkpt lat="55.8146130" lon="49.1282230"><time>2021-08-14T07:06:17</time></trkpt><trkpt lat="55.8146160" lon="49.1282120"><time>2021-08-14T07:06:18</time></trkpt><trkpt lat="55.8146400" lon="49.1281870"><time>2021-08-14T07:06:19</time></trkpt><trkpt lat="55.8146420" lon="49.1281830"><time>2021-08-14T07:06:20</time></trkpt><trkpt lat="55.8146580" lon="49.1281730"><time>2021-08-14T07:06:21</time></trkpt><trkpt lat="55.8146670" lon="49.1281640"><time>2021-08-14T07:06:22</time></trkpt><trkpt lat="55.8146780" lon="49.1281540"><time>2021-08-14T07:06:23</time></trkpt><trkpt lat="55.8146940" lon="49.1281410"><time>2021-08-14T07:06:24</time></trkpt><trkpt lat="55.8147050" lon="49.1281200"><time>2021-08-14T07:06:25</time></trkpt><trkpt lat="55.8147170" lon="49.1281080"><time>2021-08-14T07:06:26</time></trkpt><trkpt lat="55.8147340" lon="49.1281040"><time>2021-08-14T07:06:27</time></trkpt><trkpt lat="55.8147480" lon="49.1280910"><time>2021-08-14T07:06:28</time></trkpt><trkpt lat="55.8147620" lon="49.1280830"><time>2021-08-14T07:06:29</time></trkpt><trkpt lat="55.8147730" lon="49.1280700"><time>2021-08-14T07:06:30</time></trkpt><trkpt lat="55.8147890" lon="49.1280640"><time>2021-08-14T07:06:31</time></trkpt><trkpt lat="55.8148020" lon="49.1280460"><time>2021-08-14T07:06:32</time></trkpt><trkpt lat="55.8148160" lon="49.1280360"><time>2021-08-14T07:06:33</time></trkpt><trkpt lat="55.8148300" lon="49.1280210"><time>2021-08-14T07:06:34</time></trkpt><trkpt lat="55.8148450" lon="49.1280130"><time>2021-08-14T07:06:35</time></trkpt><trkpt lat="55.8148570" lon="49.1279990"><time>2021-08-14T07:06:36</time></trkpt><trkpt lat="55.8148710" lon="49.1279870"><time>2021-08-14T07:06:37</time></trkpt><trkpt lat="55.8148850" lon="49.1279740"><time>2021-08-14T07:06:38</time></trkpt><trkpt lat="55.8148960" lon="49.1279510"><time>2021-08-14T07:06:39</time></trkpt><trkpt lat="55.8149060" lon="49.1279250"><time>2021-08-14T07:06:40</time></trkpt><trkpt lat="55.8149170" lon="49.1279020"><time>2021-08-14T07:06:41</time></trkpt><trkpt lat="55.8149240" lon="49.1278750"><time>2021-08-14T07:06:42</time></trkpt><trkpt lat="55.8149350" lon="49.1278530"><time>2021-08-14T07:06:43</time></trkpt><trkpt lat="55.8149410" lon="49.1278220"><time>2021-08-14T07:06:44</time></trkpt><trkpt lat="55.8149460" lon="49.1277940"><time>2021-08-14T07:06:45</time></trkpt><trkpt lat="55.8149550" lon="49.1277710"><time>2021-08-14T07:06:46</time></trkpt><trkpt lat="55.8149640" lon="49.1277420"><time>2021-08-14T07:06:47</time></trkpt><trkpt lat="55.8149750" lon="49.1277180"><time>2021-08-14T07:06:48</time></trkpt><trkpt lat="55.8149880" lon="49.1276970"><time>2021-08-14T07:06:49</time></trkpt><trkpt lat="55.8149920" lon="49.1276700"><time>2021-08-14T07:06:50</time></trkpt><trkpt lat="55.8149910" lon="49.1276380"><time>2021-08-14T07:06:51</time></trkpt><trkpt lat="55.8149950" lon="49.1276090"><time>2021-08-14T07:06:52</time></trkpt><trkpt lat="55.8150060" lon="49.1275770"><time>2021-08-14T07:06:53</time></trkpt><trkpt lat="55.8150130" lon="49.1275660"><time>2021-08-14T07:06:54</time></trkpt><trkpt lat="55.8150190" lon="49.1275430"><time>2021-08-14T07:06:55</time></trkpt><trkpt lat="55.8150260" lon="49.1275120"><time>2021-08-14T07:06:56</time></trkpt><trkpt lat="55.8150240" lon="49.1274900"><time>2021-08-14T07:06:57</time></trkpt><trkpt lat="55.8150240" lon="49.1274610"><time>2021-08-14T07:06:58</time></trkpt><trkpt lat="55.8150280" lon="49.1274290"><time>2021-08-14T07:06:59</time></trkpt><trkpt lat="55.8150360" lon="49.1274040"><time>2021-08-14T07:07:00</time></trkpt><trkpt lat="55.8150390" lon="49.1273740"><time>2021-08-14T07:07:01</time></trkpt><trkpt lat="55.8150380" lon="49.1273470"><time>2021-08-14T07:07:02</time></trkpt><trkpt lat="55.8150400" lon="49.1273190"><time>2021-08-14T07:07:03</time></trkpt><trkpt lat="55.8150440" lon="49.1272930"><time>2021-08-14T07:07:04</time></trkpt><trkpt lat="55.8150460" lon="49.1272660"><time>2021-08-14T07:07:05</time></trkpt><trkpt lat="55.8150520" lon="49.1272370"><time>2021-08-14T07:07:06</time></trkpt><trkpt lat="55.8150570" lon="49.1272130"><time>2021-08-14T07:07:07</time></trkpt><trkpt lat="55.8150600" lon="49.1271860"><time>2021-08-14T07:07:08</time></trkpt><trkpt lat="55.8150720" lon="49.1271630"><time>2021-08-14T07:07:09</time></trkpt><trkpt lat="55.8150800" lon="49.1271370"><time>2021-08-14T07:07:10</time></trkpt><trkpt lat="55.8150910" lon="49.1271120"><time>2021-08-14T07:07:11</time></trkpt><trkpt lat="55.8151040" lon="49.1270930"><time>2021-08-14T07:07:12</time></trkpt><trkpt lat="55.8151130" lon="49.1270720"><time>2021-08-14T07:07:13</time></trkpt><trkpt lat="55.8151270" lon="49.1270560"><time>2021-08-14T07:07:14</time></trkpt><trkpt lat="55.8151380" lon="49.1270380"><time>2021-08-14T07:07:15</time></trkpt><trkpt lat="55.8151440" lon="49.1270120"><time>2021-08-14T07:07:16</time></trkpt><trkpt lat="55.8151690" lon="49.1269920"><time>2021-08-14T07:07:17</time></trkpt><trkpt lat="55.8151770" lon="49.1269840"><time>2021-08-14T07:07:18</time></trkpt><trkpt lat="55.8152020" lon="49.1269660"><time>2021-08-14T07:07:19</time></trkpt><trkpt lat="55.8152120" lon="49.1269660"><time>2021-08-14T07:07:20</time></trkpt><trkpt lat="55.8152290" lon="49.1269680"><time>2021-08-14T07:07:21</time></trkpt><trkpt lat="55.8152430" lon="49.1269590"><time>2021-08-14T07:07:22</time></trkpt><trkpt lat="55.8152570" lon="49.1269500"><time>2021-08-14T07:07:23</time></trkpt><trkpt lat="55.8152740" lon="49.1269430"><time>2021-08-14T07:07:24</time></trkpt><trkpt lat="55.8152910" lon="49.1269400"><time>2021-08-14T07:07:25</time></trkpt><trkpt lat="55.8153050" lon="49.1269300"><time>2021-08-14T07:07:26</time></trkpt><trkpt lat="55.8153220" lon="49.1269300"><time>2021-08-14T07:07:27</time></trkpt><trkpt lat="55.8153330" lon="49.1269190"><time>2021-08-14T07:07:28</time></trkpt><trkpt lat="55.8153370" lon="49.1269040"><time>2021-08-14T07:07:29</time></trkpt><trkpt lat="55.8153490" lon="49.1268930"><time>2021-08-14T07:07:30</time></trkpt><trkpt lat="55.8153440" lon="49.1268930"><time>2021-08-14T07:07:31</time></trkpt><trkpt lat="55.8153490" lon="49.1268870"><time>2021-08-14T07:07:32</time></trkpt><trkpt lat="55.8153520" lon="49.1268790"><time>2021-08-14T07:07:33</time></trkpt><trkpt lat="55.8153550" lon="49.1268740"><time>2021-08-14T07:07:34</time></trkpt><trkpt lat="55.8153550" lon="49.1268620"><time>2021-08-14T07:07:35</time></trkpt><trkpt lat="55.8153690" lon="49.1268580"><time>2021-08-14T07:07:36</time></trkpt><trkpt lat="55.8153760" lon="49.1268610"><time>2021-08-14T07:07:37</time></trkpt><trkpt lat="55.8153870" lon="49.1268740"><time>2021-08-14T07:07:38</time></trkpt><trkpt lat="55.8153920" lon="49.1268810"><time>2021-08-14T07:07:39</time></trkpt><trkpt lat="55.8154000" lon="49.1268700"><time>2021-08-14T07:07:40</time></trkpt><trkpt lat="55.8154140" lon="49.1268800"><time>2021-08-14T07:07:41</time></trkpt><trkpt lat="55.8154460" lon="49.1268810"><time>2021-08-14T07:07:42</time></trkpt><trkpt lat="55.8154510" lon="49.1268770"><time>2021-08-14T07:07:43</time></trkpt><trkpt lat="55.8154720" lon="49.1268780"><time>2021-08-14T07:07:44</time></trkpt><trkpt lat="55.8154800" lon="49.1268790"><time>2021-08-14T07:07:45</time></trkpt><trkpt lat="55.8154890" lon="49.1268790"><time>2021-08-14T07:07:46</time></trkpt><trkpt lat="55.8155040" lon="49.1268780"><time>2021-08-14T07:07:47</time></trkpt><trkpt lat="55.8155190" lon="49.1268700"><time>2021-08-14T07:07:48</time></trkpt><trkpt lat="55.8155340" lon="49.1268690"><time>2021-08-14T07:07:49</time></trkpt><trkpt lat="55.8155490" lon="49.1268590"><time>2021-08-14T07:07:50</time></trkpt><trkpt lat="55.8155630" lon="49.1268660"><time>2021-08-14T07:07:51</time></trkpt><trkpt lat="55.8155800" lon="49.1268590"><time>2021-08-14T07:07:52</time></trkpt><trkpt lat="55.8155960" lon="49.1268650"><time>2021-08-14T07:07:53</time></trkpt><trkpt lat="55.8156130" lon="49.1268670"><time>2021-08-14T07:07:54</time></trkpt><trkpt lat="55.8156340" lon="49.1268720"><time>2021-08-14T07:07:55</time></trkpt><trkpt lat="55.8156420" lon="49.1268740"><time>2021-08-14T07:07:56</time></trkpt><trkpt lat="55.8156510" lon="49.1268770"><time>2021-08-14T07:07:57</time></trkpt><trkpt lat="55.8156640" lon="49.1268860"><time>2021-08-14T07:07:58</time></trkpt><trkpt lat="55.8156760" lon="49.1268950"><time>2021-08-14T07:07:59</time></trkpt><trkpt lat="55.8156940" lon="49.1269080"><time>2021-08-14T07:08:00</time></trkpt><trkpt lat="55.8157030" lon="49.1269090"><time>2021-08-14T07:08:01</time></trkpt><trkpt lat="55.8157120" lon="49.1269100"><time>2021-08-14T07:08:02</time></trkpt><trkpt lat="55.8157300" lon="49.1269140"><time>2021-08-14T07:08:03</time></trkpt><trkpt lat="55.8157420" lon="49.1269170"><time>2021-08-14T07:08:04</time></trkpt><trkpt lat="55.8157710" lon="49.1268920"><time>2021-08-14T07:08:05</time></trkpt><trkpt lat="55.8157770" lon="49.1268880"><time>2021-08-14T07:08:06</time></trkpt><trkpt lat="55.8157990" lon="49.1268900"><time>2021-08-14T07:08:07</time></trkpt><trkpt lat="55.8158070" lon="49.1268820"><time>2021-08-14T07:08:08</time></trkpt><trkpt lat="55.8158160" lon="49.1268750"><time>2021-08-14T07:08:09</time></trkpt><trkpt lat="55.8158340" lon="49.1268620"><time>2021-08-14T07:08:10</time></trkpt><trkpt lat="55.8158420" lon="49.1268590"><time>2021-08-14T07:08:11</time></trkpt><trkpt lat="55.8158510" lon="49.1268570"><time>2021-08-14T07:08:12</time></trkpt><trkpt lat="55.8158640" lon="49.1268640"><time>2021-08-14T07:08:13</time></trkpt><trkpt lat="55.8158800" lon="49.1268680"><time>2021-08-14T07:08:14</time></trkpt><trkpt lat="55.8159100" lon="49.1268760"><time>2021-08-14T07:08:15</time></trkpt><trkpt lat="55.8159180" lon="49.1268770"><time>2021-08-14T07:08:16</time></trkpt><trkpt lat="55.8159330" lon="49.1268870"><time>2021-08-14T07:08:17</time></trkpt><trkpt lat="55.8159520" lon="49.1268900"><time>2021-08-14T07:08:18</time></trkpt><trkpt lat="55.8159700" lon="49.1268930"><time>2021-08-14T07:08:19</time></trkpt><trkpt lat="55.8159870" lon="49.1269090"><time>2021-08-14T07:08:20</time></trkpt><trkpt lat="55.8159960" lon="49.1269200"><time>2021-08-14T07:08:21</time></trkpt><trkpt lat="55.8160070" lon="49.1269390"><time>2021-08-14T07:08:22</time></trkpt><trkpt lat="55.8160100" lon="49.1269560"><time>2021-08-14T07:08:23</time></trkpt><trkpt lat="55.8160270" lon="49.1269610"><time>2021-08-14T07:08:24</time></trkpt><trkpt lat="55.8160390" lon="49.1269690"><time>2021-08-14T07:08:25</time></trkpt><trkpt lat="55.8160500" lon="49.1269760"><time>2021-08-14T07:08:26</time></trkpt><trkpt lat="55.8160610" lon="49.1269600"><time>2021-08-14T07:08:27</time></trkpt><trkpt lat="55.8160830" lon="49.1269480"><time>2021-08-14T07:08:28</time></trkpt><trkpt lat="55.8161110" lon="49.1269170"><time>2021-08-14T07:08:29</time></trkpt><trkpt lat="55.8161230" lon="49.1269010"><time>2021-08-14T07:08:30</time></trkpt><trkpt lat="55.8161570" lon="49.1268770"><time>2021-08-14T07:08:31</time></trkpt><trkpt lat="55.8161700" lon="49.1268710"><time>2021-08-14T07:08:32</time></trkpt><trkpt lat="55.8161850" lon="49.1268780"><time>2021-08-14T07:08:33</time></trkpt><trkpt lat="55.8162050" lon="49.1268800"><time>2021-08-14T07:08:34</time></trkpt><trkpt lat="55.8162330" lon="49.1268660"><time>2021-08-14T07:08:35</time></trkpt><trkpt lat="55.8162410" lon="49.1268600"><time>2021-08-14T07:08:36</time></trkpt><trkpt lat="55.8162570" lon="49.1268610"><time>2021-08-14T07:08:37</time></trkpt><trkpt lat="55.8162720" lon="49.1268630"><time>2021-08-14T07:08:38</time></trkpt><trkpt lat="55.8162880" lon="49.1268750"><time>2021-08-14T07:08:39</time></trkpt><trkpt lat="55.8163020" lon="49.1268770"><time>2021-08-14T07:08:40</time></trkpt><trkpt lat="55.8163150" lon="49.1268840"><time>2021-08-14T07:08:41</time></trkpt><trkpt lat="55.8163310" lon="49.1268720"><time>2021-08-14T07:08:42</time></trkpt><trkpt lat="55.8163440" lon="49.1268690"><time>2021-08-14T07:08:43</time></trkpt><trkpt lat="55.8163530" lon="49.1268640"><time>2021-08-14T07:08:44</time></trkpt><trkpt lat="55.8163530" lon="49.1268540"><time>2021-08-14T07:08:45</time></trkpt><trkpt lat="55.8163600" lon="49.1268470"><time>2021-08-14T07:08:46</time></trkpt><trkpt lat="55.8163660" lon="49.1268450"><time>2021-08-14T07:08:47</time></trkpt><trkpt lat="55.8163740" lon="49.1268480"><time>2021-08-14T07:08:48</time></trkpt><trkpt lat="55.8163870" lon="49.1268410"><time>2021-08-14T07:08:49</time></trkpt><trkpt lat="55.8164050" lon="49.1268350"><time>2021-08-14T07:08:50</time></trkpt><trkpt lat="55.8164160" lon="49.1268260"><time>2021-08-14T07:08:51</time></trkpt><trkpt lat="55.8164430" lon="49.1267940"><time>2021-08-14T07:08:52</time></trkpt><trkpt lat="55.8164520" lon="49.1267740"><time>2021-08-14T07:08:53</time></trkpt><trkpt lat="55.8164560" lon="49.1267130"><time>2021-08-14T07:08:54</time></trkpt><trkpt lat="55.8164630" lon="49.1266600"><time>2021-08-14T07:08:55</time></trkpt><trkpt lat="55.8164750" lon="49.1265890"><time>2021-08-14T07:08:56</time></trkpt><trkpt lat="55.8164760" lon="49.1265580"><time>2021-08-14T07:08:57</time></trkpt><trkpt lat="55.8164760" lon="49.1265090"><time>2021-08-14T07:08:58</time></trkpt><trkpt lat="55.8164820" lon="49.1264540"><time>2021-08-14T07:08:59</time></trkpt><trkpt lat="55.8164850" lon="49.1264350"><time>2021-08-14T07:09:00</time></trkpt><trkpt lat="55.8164860" lon="49.1263820"><time>2021-08-14T07:09:01</time></trkpt><trkpt lat="55.8164850" lon="49.1263660"><time>2021-08-14T07:09:02</time></trkpt><trkpt lat="55.8164860" lon="49.1263140"><time>2021-08-14T07:09:03</time></trkpt><trkpt lat="55.8164870" lon="49.1262970"><time>2021-08-14T07:09:04</time></trkpt><trkpt lat="55.8164910" lon="49.1262660"><time>2021-08-14T07:09:05</time></trkpt><trkpt lat="55.8164920" lon="49.1262370"><time>2021-08-14T07:09:06</time></trkpt><trkpt lat="55.8164890" lon="49.1262050"><time>2021-08-14T07:09:07</time></trkpt><trkpt lat="55.8164840" lon="49.1261750"><time>2021-08-14T07:09:08</time></trkpt><trkpt lat="55.8164870" lon="49.1261440"><time>2021-08-14T07:09:09</time></trkpt><trkpt lat="55.8164900" lon="49.1261150"><time>2021-08-14T07:09:10</time></trkpt><trkpt lat="55.8164980" lon="49.1260660"><time>2021-08-14T07:09:11</time></trkpt><trkpt lat="55.8165010" lon="49.1260490"><time>2021-08-14T07:09:12</time></trkpt><trkpt lat="55.8165020" lon="49.1260170"><time>2021-08-14T07:09:13</time></trkpt><trkpt lat="55.8165060" lon="49.1259890"><time>2021-08-14T07:09:14</time></trkpt><trkpt lat="55.8165020" lon="49.1259600"><time>2021-08-14T07:09:15</time></trkpt><trkpt lat="55.8165020" lon="49.1259300"><time>2021-08-14T07:09:16</time></trkpt><trkpt lat="55.8165050" lon="49.1258970"><time>2021-08-14T07:09:17</time></trkpt><trkpt lat="55.8165110" lon="49.1258700"><time>2021-08-14T07:09:18</time></trkpt><trkpt lat="55.8165120" lon="49.1258390"><time>2021-08-14T07:09:19</time></trkpt><trkpt lat="55.8165110" lon="49.1258090"><time>2021-08-14T07:09:20</time></trkpt><trkpt lat="55.8165160" lon="49.1257800"><time>2021-08-14T07:09:21</time></trkpt><trkpt lat="55.8165130" lon="49.1257510"><time>2021-08-14T07:09:22</time></trkpt><trkpt lat="55.8165170" lon="49.1257230"><time>2021-08-14T07:09:23</time></trkpt><trkpt lat="55.8165190" lon="49.1256930"><time>2021-08-14T07:09:24</time></trkpt><trkpt lat="55.8165180" lon="49.1256620"><time>2021-08-14T07:09:25</time></trkpt><trkpt lat="55.8165200" lon="49.1256310"><time>2021-08-14T07:09:26</time></trkpt><trkpt lat="55.8165220" lon="49.1256010"><time>2021-08-14T07:09:27</time></trkpt><trkpt lat="55.8165220" lon="49.1255690"><time>2021-08-14T07:09:28</time></trkpt><trkpt lat="55.8165200" lon="49.1255370"><time>2021-08-14T07:09:29</time></trkpt><trkpt lat="55.8165240" lon="49.1255050"><time>2021-08-14T07:09:30</time></trkpt><trkpt lat="55.8165230" lon="49.1254570"><time>2021-08-14T07:09:31</time></trkpt><trkpt lat="55.8165240" lon="49.1254410"><time>2021-08-14T07:09:32</time></trkpt><trkpt lat="55.8165240" lon="49.1254100"><time>2021-08-14T07:09:33</time></trkpt><trkpt lat="55.8165270" lon="49.1253820"><time>2021-08-14T07:09:34</time></trkpt><trkpt lat="55.8165270" lon="49.1253550"><time>2021-08-14T07:09:35</time></trkpt><trkpt lat="55.8165320" lon="49.1253260"><time>2021-08-14T07:09:36</time></trkpt><trkpt lat="55.8165330" lon="49.1252960"><time>2021-08-14T07:09:37</time></trkpt><trkpt lat="55.8165310" lon="49.1252660"><time>2021-08-14T07:09:38</time></trkpt><trkpt lat="55.8165260" lon="49.1252170"><time>2021-08-14T07:09:39</time></trkpt><trkpt lat="55.8165230" lon="49.1252020"><time>2021-08-14T07:09:40</time></trkpt><trkpt lat="55.8165210" lon="49.1251740"><time>2021-08-14T07:09:41</time></trkpt><trkpt lat="55.8165190" lon="49.1251420"><time>2021-08-14T07:09:42</time></trkpt><trkpt lat="55.8165220" lon="49.1251100"><time>2021-08-14T07:09:43</time></trkpt><trkpt lat="55.8165230" lon="49.1250800"><time>2021-08-14T07:09:44</time></trkpt><trkpt lat="55.8165220" lon="49.1250490"><time>2021-08-14T07:09:45</time></trkpt><trkpt lat="55.8165220" lon="49.1250180"><time>2021-08-14T07:09:46</time></trkpt><trkpt lat="55.8165210" lon="49.1249880"><time>2021-08-14T07:09:47</time></trkpt><trkpt lat="55.8165210" lon="49.1249570"><time>2021-08-14T07:09:48</time></trkpt><trkpt lat="55.8165260" lon="49.1249250"><time>2021-08-14T07:09:49</time></trkpt><trkpt lat="55.8165260" lon="49.1248970"><time>2021-08-14T07:09:50</time></trkpt><trkpt lat="55.8165250" lon="49.1248680"><time>2021-08-14T07:09:51</time></trkpt><trkpt lat="55.8165230" lon="49.1248410"><time>2021-08-14T07:09:52</time></trkpt><trkpt lat="55.8165220" lon="49.1248150"><time>2021-08-14T07:09:53</time></trkpt><trkpt lat="55.8165230" lon="49.1247840"><time>2021-08-14T07:09:54</time></trkpt><trkpt lat="55.8165220" lon="49.1247520"><time>2021-08-14T07:09:55</time></trkpt><trkpt lat="55.8165280" lon="49.1247230"><time>2021-08-14T07:09:56</time></trkpt><trkpt lat="55.8165290" lon="49.1246950"><time>2021-08-14T07:09:57</time></trkpt><trkpt lat="55.8165270" lon="49.1246680"><time>2021-08-14T07:09:58</time></trkpt><trkpt lat="55.8165250" lon="49.1246380"><time>2021-08-14T07:09:59</time></trkpt><trkpt lat="55.8165270" lon="49.1246060"><time>2021-08-14T07:10:00</time></trkpt><trkpt lat="55.8165290" lon="49.1245800"><time>2021-08-14T07:10:01</time></trkpt><trkpt lat="55.8165270" lon="49.1245500"><time>2021-08-14T07:10:02</time></trkpt><trkpt lat="55.8165170" lon="49.1245040"><time>2021-08-14T07:10:03</time></trkpt><trkpt lat="55.8165140" lon="49.1244890"><time>2021-08-14T07:10:04</time></trkpt><trkpt lat="55.8165180" lon="49.1244610"><time>2021-08-14T07:10:05</time></trkpt><trkpt lat="55.8165220" lon="49.1244330"><time>2021-08-14T07:10:06</time></trkpt><trkpt lat="55.8165250" lon="49.1244060"><time>2021-08-14T07:10:07</time></trkpt><trkpt lat="55.8165260" lon="49.1243780"><time>2021-08-14T07:10:08</time></trkpt><trkpt lat="55.8165240" lon="49.1243500"><time>2021-08-14T07:10:09</time></trkpt><trkpt lat="55.8165250" lon="49.1243290"><time>2021-08-14T07:10:10</time></trkpt><trkpt lat="55.8165210" lon="49.1242810"><time>2021-08-14T07:10:11</time></trkpt><trkpt lat="55.8165180" lon="49.1242650"><time>2021-08-14T07:10:12</time></trkpt><trkpt lat="55.8165190" lon="49.1242370"><time>2021-08-14T07:10:13</time></trkpt><trkpt lat="55.8165220" lon="49.1242150"><time>2021-08-14T07:10:14</time></trkpt><trkpt lat="55.8165230" lon="49.1241870"><time>2021-08-14T07:10:15</time></trkpt><trkpt lat="55.8165200" lon="49.1241520"><time>2021-08-14T07:10:16</time></trkpt><trkpt lat="55.8165170" lon="49.1241220"><time>2021-08-14T07:10:17</time></trkpt><trkpt lat="55.8165140" lon="49.1240900"><time>2021-08-14T07:10:18</time></trkpt><trkpt lat="55.8165180" lon="49.1240400"><time>2021-08-14T07:10:19</time></trkpt><trkpt lat="55.8165170" lon="49.1240240"><time>2021-08-14T07:10:20</time></trkpt><trkpt lat="55.8165180" lon="49.1239730"><time>2021-08-14T07:10:21</time></trkpt><trkpt lat="55.8165180" lon="49.1239550"><time>2021-08-14T07:10:22</time></trkpt><trkpt lat="55.8165120" lon="49.1239250"><time>2021-08-14T07:10:23</time></trkpt><trkpt lat="55.8165140" lon="49.1238960"><time>2021-08-14T07:10:24</time></trkpt><trkpt lat="55.8165090" lon="49.1238450"><time>2021-08-14T07:10:25</time></trkpt><trkpt lat="55.8165080" lon="49.1238300"><time>2021-08-14T07:10:26</time></trkpt><trkpt lat="55.8165020" lon="49.1238030"><time>2021-08-14T07:10:27</time></trkpt><trkpt lat="55.8164990" lon="49.1237720"><time>2021-08-14T07:10:28</time></trkpt><trkpt lat="55.8164960" lon="49.1237440"><time>2021-08-14T07:10:29</time></trkpt><trkpt lat="55.8164910" lon="49.1237230"><time>2021-08-14T07:10:30</time></trkpt><trkpt lat="55.8164870" lon="49.1236710"><time>2021-08-14T07:10:31</time></trkpt><trkpt lat="55.8164860" lon="49.1236490"><time>2021-08-14T07:10:32</time></trkpt><trkpt lat="55.8164850" lon="49.1236270"><time>2021-08-14T07:10:33</time></trkpt><trkpt lat="55.8164860" lon="49.1235730"><time>2021-08-14T07:10:34</time></trkpt><trkpt lat="55.8164860" lon="49.1235590"><time>2021-08-14T07:10:35</time></trkpt><trkpt lat="55.8164860" lon="49.1235280"><time>2021-08-14T07:10:36</time></trkpt><trkpt lat="55.8164840" lon="49.1235000"><time>2021-08-14T07:10:37</time></trkpt><trkpt lat="55.8164810" lon="49.1234750"><time>2021-08-14T07:10:38</time></trkpt><trkpt lat="55.8164740" lon="49.1234420"><time>2021-08-14T07:10:39</time></trkpt><trkpt lat="55.8164680" lon="49.1234160"><time>2021-08-14T07:10:40</time></trkpt><trkpt lat="55.8164650" lon="49.1233870"><time>2021-08-14T07:10:41</time></trkpt><trkpt lat="55.8164620" lon="49.1233580"><time>2021-08-14T07:10:42</time></trkpt><trkpt lat="55.8164620" lon="49.1233270"><time>2021-08-14T07:10:43</time></trkpt><trkpt lat="55.8164580" lon="49.1232740"><time>2021-08-14T07:10:44</time></trkpt><trkpt lat="55.8164580" lon="49.1232590"><time>2021-08-14T07:10:45</time></trkpt><trkpt lat="55.8164630" lon="49.1232070"><time>2021-08-14T07:10:46</time></trkpt><trkpt lat="55.8164650" lon="49.1231910"><time>2021-08-14T07:10:47</time></trkpt><trkpt lat="55.8164560" lon="49.1231650"><time>2021-08-14T07:10:48</time></trkpt><trkpt lat="55.8164530" lon="49.1231330"><time>2021-08-14T07:10:49</time></trkpt><trkpt lat="55.8164520" lon="49.1230770"><time>2021-08-14T07:10:50</time></trkpt><trkpt lat="55.8164530" lon="49.1230620"><time>2021-08-14T07:10:51</time></trkpt><trkpt lat="55.8164580" lon="49.1230140"><time>2021-08-14T07:10:52</time></trkpt><trkpt lat="55.8164600" lon="49.1229970"><time>2021-08-14T07:10:53</time></trkpt><trkpt lat="55.8164640" lon="49.1229760"><time>2021-08-14T07:10:54</time></trkpt><trkpt lat="55.8164670" lon="49.1229480"><time>2021-08-14T07:10:55</time></trkpt><trkpt lat="55.8164660" lon="49.1229170"><time>2021-08-14T07:10:56</time></trkpt><trkpt lat="55.8164680" lon="49.1228990"><time>2021-08-14T07:10:57</time></trkpt><trkpt lat="55.8164660" lon="49.1228650"><time>2021-08-14T07:10:58</time></trkpt><trkpt lat="55.8164650" lon="49.1228390"><time>2021-08-14T07:10:59</time></trkpt><trkpt lat="55.8164630" lon="49.1227840"><time>2021-08-14T07:11:00</time></trkpt><trkpt lat="55.8164610" lon="49.1227700"><time>2021-08-14T07:11:01</time></trkpt><trkpt lat="55.8164650" lon="49.1227390"><time>2021-08-14T07:11:02</time></trkpt><trkpt lat="55.8164660" lon="49.1227210"><time>2021-08-14T07:11:03</time></trkpt><trkpt lat="55.8164660" lon="49.1226740"><time>2021-08-14T07:11:04</time></trkpt><trkpt lat="55.8164680" lon="49.1226510"><time>2021-08-14T07:11:05</time></trkpt><trkpt lat="55.8164760" lon="49.1225900"><time>2021-08-14T07:11:06</time></trkpt><trkpt lat="55.8164780" lon="49.1225710"><time>2021-08-14T07:11:07</time></trkpt><trkpt lat="55.8164850" lon="49.1225230"><time>2021-08-14T07:11:08</time></trkpt><trkpt lat="55.8164870" lon="49.1225070"><time>2021-08-14T07:11:09</time></trkpt><trkpt lat="55.8165040" lon="49.1224500"><time>2021-08-14T07:11:10</time></trkpt><trkpt lat="55.8165060" lon="49.1224330"><time>2021-08-14T07:11:11</time></trkpt><trkpt lat="55.8164960" lon="49.1223790"><time>2021-08-14T07:11:12</time></trkpt><trkpt lat="55.8164890" lon="49.1223600"><time>2021-08-14T07:11:13</time></trkpt><trkpt lat="55.8164900" lon="49.1223360"><time>2021-08-14T07:11:14</time></trkpt><trkpt lat="55.8164880" lon="49.1223030"><time>2021-08-14T07:11:15</time></trkpt><trkpt lat="55.8164850" lon="49.1222770"><time>2021-08-14T07:11:16</time></trkpt><trkpt lat="55.8164830" lon="49.1222530"><time>2021-08-14T07:11:17</time></trkpt><trkpt lat="55.8164780" lon="49.1222240"><time>2021-08-14T07:11:18</time></trkpt><trkpt lat="55.8164780" lon="49.1221920"><time>2021-08-14T07:11:19</time></trkpt><trkpt lat="55.8164770" lon="49.1221610"><time>2021-08-14T07:11:20</time></trkpt><trkpt lat="55.8164750" lon="49.1221280"><time>2021-08-14T07:11:21</time></trkpt><trkpt lat="55.8164750" lon="49.1220990"><time>2021-08-14T07:11:22</time></trkpt><trkpt lat="55.8164730" lon="49.1220740"><time>2021-08-14T07:11:23</time></trkpt><trkpt lat="55.8164740" lon="49.1220470"><time>2021-08-14T07:11:24</time></trkpt><trkpt lat="55.8164770" lon="49.1220190"><time>2021-08-14T07:11:25</time></trkpt><trkpt lat="55.8164750" lon="49.1219900"><time>2021-08-14T07:11:26</time></trkpt><trkpt lat="55.8164790" lon="49.1219700"><time>2021-08-14T07:11:27</time></trkpt><trkpt lat="55.8164800" lon="49.1219490"><time>2021-08-14T07:11:28</time></trkpt><trkpt lat="55.8164770" lon="49.1219170"><time>2021-08-14T07:11:29</time></trkpt><trkpt lat="55.8164770" lon="49.1218780"><time>2021-08-14T07:11:30</time></trkpt><trkpt lat="55.8164750" lon="49.1218620"><time>2021-08-14T07:11:31</time></trkpt><trkpt lat="55.8164730" lon="49.1218460"><time>2021-08-14T07:11:32</time></trkpt><trkpt lat="55.8164680" lon="49.1218310"><time>2021-08-14T07:11:33</time></trkpt><trkpt lat="55.8164670" lon="49.1217950"><time>2021-08-14T07:11:34</time></trkpt><trkpt lat="55.8164670" lon="49.1217610"><time>2021-08-14T07:11:35</time></trkpt><trkpt lat="55.8164680" lon="49.1217390"><time>2021-08-14T07:11:36</time></trkpt><trkpt lat="55.8164690" lon="49.1217130"><time>2021-08-14T07:11:37</time></trkpt><trkpt lat="55.8164700" lon="49.1216850"><time>2021-08-14T07:11:38</time></trkpt><trkpt lat="55.8164730" lon="49.1216580"><time>2021-08-14T07:11:39</time></trkpt><trkpt lat="55.8164750" lon="49.1216300"><time>2021-08-14T07:11:40</time></trkpt><trkpt lat="55.8164760" lon="49.1216000"><time>2021-08-14T07:11:41</time></trkpt><trkpt lat="55.8164780" lon="49.1215760"><time>2021-08-14T07:11:42</time></trkpt><trkpt lat="55.8164780" lon="49.1215450"><time>2021-08-14T07:11:43</time></trkpt><trkpt lat="55.8164790" lon="49.1215190"><time>2021-08-14T07:11:44</time></trkpt><trkpt lat="55.8164820" lon="49.1214920"><time>2021-08-14T07:11:45</time></trkpt><trkpt lat="55.8164800" lon="49.1214650"><time>2021-08-14T07:11:46</time></trkpt><trkpt lat="55.8164790" lon="49.1214400"><time>2021-08-14T07:11:47</time></trkpt><trkpt lat="55.8164770" lon="49.1214070"><time>2021-08-14T07:11:48</time></trkpt><trkpt lat="55.8164800" lon="49.1213750"><time>2021-08-14T07:11:49</time></trkpt><trkpt lat="55.8164810" lon="49.1213510"><time>2021-08-14T07:11:50</time></trkpt><trkpt lat="55.8164780" lon="49.1213200"><time>2021-08-14T07:11:51</time></trkpt><trkpt lat="55.8164760" lon="49.1212930"><time>2021-08-14T07:11:52</time></trkpt><trkpt lat="55.8164740" lon="49.1212660"><time>2021-08-14T07:11:53</time></trkpt><trkpt lat="55.8164770" lon="49.1212380"><time>2021-08-14T07:11:54</time></trkpt><trkpt lat="55.8164790" lon="49.1212120"><time>2021-08-14T07:11:55</time></trkpt><trkpt lat="55.8164830" lon="49.1211840"><time>2021-08-14T07:11:56</time></trkpt><trkpt lat="55.8164830" lon="49.1211550"><time>2021-08-14T07:11:57</time></trkpt><trkpt lat="55.8164720" lon="49.1211250"><time>2021-08-14T07:11:58</time></trkpt><trkpt lat="55.8164750" lon="49.1210970"><time>2021-08-14T07:11:59</time></trkpt><trkpt lat="55.8164730" lon="49.1210690"><time>2021-08-14T07:12:00</time></trkpt><trkpt lat="55.8164770" lon="49.1210390"><time>2021-08-14T07:12:01</time></trkpt><trkpt lat="55.8164730" lon="49.1210100"><time>2021-08-14T07:12:02</time></trkpt><trkpt lat="55.8164710" lon="49.1209830"><time>2021-08-14T07:12:03</time></trkpt><trkpt lat="55.8164750" lon="49.1209560"><time>2021-08-14T07:12:04</time></trkpt><trkpt lat="55.8164730" lon="49.1209320"><time>2021-08-14T07:12:05</time></trkpt><trkpt lat="55.8164830" lon="49.1209100"><time>2021-08-14T07:12:06</time></trkpt><trkpt lat="55.8164830" lon="49.1208670"><time>2021-08-14T07:12:07</time></trkpt><trkpt lat="55.8164830" lon="49.1208530"><time>2021-08-14T07:12:08</time></trkpt><trkpt lat="55.8164820" lon="49.1208400"><time>2021-08-14T07:12:09</time></trkpt><trkpt lat="55.8164810" lon="49.1208160"><time>2021-08-14T07:12:10</time></trkpt><trkpt lat="55.8164890" lon="49.1207880"><time>2021-08-14T07:12:11</time></trkpt><trkpt lat="55.8164860" lon="49.1207600"><time>2021-08-14T07:12:12</time></trkpt><trkpt lat="55.8164900" lon="49.1207370"><time>2021-08-14T07:12:13</time></trkpt><trkpt lat="55.8164900" lon="49.1206940"><time>2021-08-14T07:12:14</time></trkpt><trkpt lat="55.8164910" lon="49.1206760"><time>2021-08-14T07:12:15</time></trkpt><trkpt lat="55.8164910" lon="49.1206580"><time>2021-08-14T07:12:16</time></trkpt><trkpt lat="55.8164950" lon="49.1206390"><time>2021-08-14T07:12:17</time></trkpt><trkpt lat="55.8164970" lon="49.1206080"><time>2021-08-14T07:12:18</time></trkpt><trkpt lat="55.8165000" lon="49.1205590"><time>2021-08-14T07:12:19</time></trkpt><trkpt lat="55.8165010" lon="49.1205410"><time>2021-08-14T07:12:20</time></trkpt><trkpt lat="55.8165060" lon="49.1205230"><time>2021-08-14T07:12:21</time></trkpt><trkpt lat="55.8165070" lon="49.1204870"><time>2021-08-14T07:12:22</time></trkpt><trkpt lat="55.8165050" lon="49.1204650"><time>2021-08-14T07:12:23</time></trkpt><trkpt lat="55.8165090" lon="49.1204370"><time>2021-08-14T07:12:24</time></trkpt><trkpt lat="55.8165050" lon="49.1204090"><time>2021-08-14T07:12:25</time></trkpt><trkpt lat="55.8165010" lon="49.1203800"><time>2021-08-14T07:12:26</time></trkpt><trkpt lat="55.8165000" lon="49.1203410"><time>2021-08-14T07:12:27</time></trkpt><trkpt lat="55.8165060" lon="49.1203200"><time>2021-08-14T07:12:28</time></trkpt><trkpt lat="55.8165080" lon="49.1202930"><time>2021-08-14T07:12:29</time></trkpt><trkpt lat="55.8165060" lon="49.1202660"><time>2021-08-14T07:12:30</time></trkpt><trkpt lat="55.8165060" lon="49.1202390"><time>2021-08-14T07:12:31</time></trkpt><trkpt lat="55.8165070" lon="49.1202150"><time>2021-08-14T07:12:32</time></trkpt><trkpt lat="55.8165080" lon="49.1201640"><time>2021-08-14T07:12:33</time></trkpt><trkpt lat="55.8165090" lon="49.1201450"><time>2021-08-14T07:12:34</time></trkpt><trkpt lat="55.8165010" lon="49.1200970"><time>2021-08-14T07:12:35</time></trkpt><trkpt lat="55.8165000" lon="49.1200810"><time>2021-08-14T07:12:36</time></trkpt><trkpt lat="55.8165020" lon="49.1200510"><time>2021-08-14T07:12:37</time></trkpt><trkpt lat="55.8164970" lon="49.1200190"><time>2021-08-14T07:12:38</time></trkpt><trkpt lat="55.8164990" lon="49.1199910"><time>2021-08-14T07:12:39</time></trkpt><trkpt lat="55.8164970" lon="49.1199600"><time>2021-08-14T07:12:40</time></trkpt><trkpt lat="55.8164900" lon="49.1199290"><time>2021-08-14T07:12:41</time></trkpt><trkpt lat="55.8164910" lon="49.1199030"><time>2021-08-14T07:12:42</time></trkpt><trkpt lat="55.8164910" lon="49.1198740"><time>2021-08-14T07:12:43</time></trkpt><trkpt lat="55.8164930" lon="49.1198450"><time>2021-08-14T07:12:44</time></trkpt><trkpt lat="55.8164940" lon="49.1198160"><time>2021-08-14T07:12:45</time></trkpt><trkpt lat="55.8164980" lon="49.1197880"><time>2021-08-14T07:12:46</time></trkpt><trkpt lat="55.8164980" lon="49.1197580"><time>2021-08-14T07:12:47</time></trkpt><trkpt lat="55.8164990" lon="49.1197310"><time>2021-08-14T07:12:48</time></trkpt><trkpt lat="55.8164990" lon="49.1197030"><time>2021-08-14T07:12:49</time></trkpt><trkpt lat="55.8165000" lon="49.1196720"><time>2021-08-14T07:12:50</time></trkpt><trkpt lat="55.8165000" lon="49.1196460"><time>2021-08-14T07:12:51</time></trkpt><trkpt lat="55.8165010" lon="49.1196170"><time>2021-08-14T07:12:52</time></trkpt><trkpt lat="55.8165020" lon="49.1195740"><time>2021-08-14T07:12:53</time></trkpt><trkpt lat="55.8165010" lon="49.1195610"><time>2021-08-14T07:12:54</time></trkpt><trkpt lat="55.8165000" lon="49.1195490"><time>2021-08-14T07:12:55</time></trkpt><trkpt lat="55.8165020" lon="49.1195130"><time>2021-08-14T07:12:56</time></trkpt><trkpt lat="55.8165020" lon="49.1194850"><time>2021-08-14T07:12:57</time></trkpt><trkpt lat="55.8165000" lon="49.1194550"><time>2021-08-14T07:12:58</time></trkpt><trkpt lat="55.8165010" lon="49.1194220"><time>2021-08-14T07:12:59</time></trkpt><trkpt lat="55.8164970" lon="49.1193940"><time>2021-08-14T07:13:00</time></trkpt><trkpt lat="55.8164940" lon="49.1193660"><time>2021-08-14T07:13:01</time></trkpt><trkpt lat="55.8164990" lon="49.1193390"><time>2021-08-14T07:13:02</time></trkpt><trkpt lat="55.8165010" lon="49.1193120"><time>2021-08-14T07:13:03</time></trkpt><trkpt lat="55.8165210" lon="49.1192700"><time>2021-08-14T07:13:04</time></trkpt><trkpt lat="55.8165250" lon="49.1192570"><time>2021-08-14T07:13:05</time></trkpt><trkpt lat="55.8165260" lon="49.1192260"><time>2021-08-14T07:13:06</time></trkpt><trkpt lat="55.8165280" lon="49.1191990"><time>2021-08-14T07:13:07</time></trkpt><trkpt lat="55.8165280" lon="49.1191700"><time>2021-08-14T07:13:08</time></trkpt><trkpt lat="55.8165260" lon="49.1191410"><time>2021-08-14T07:13:09</time></trkpt><trkpt lat="55.8165230" lon="49.1191130"><time>2021-08-14T07:13:10</time></trkpt><trkpt lat="55.8165160" lon="49.1190890"><time>2021-08-14T07:13:11</time></trkpt><trkpt lat="55.8165090" lon="49.1190620"><time>2021-08-14T07:13:12</time></trkpt><trkpt lat="55.8165070" lon="49.1190310"><time>2021-08-14T07:13:13</time></trkpt><trkpt lat="55.8164910" lon="49.1189800"><time>2021-08-14T07:13:14</time></trkpt><trkpt lat="55.8164870" lon="49.1189650"><time>2021-08-14T07:13:15</time></trkpt><trkpt lat="55.8164860" lon="49.1189390"><time>2021-08-14T07:13:16</time></trkpt><trkpt lat="55.8164870" lon="49.1189090"><time>2021-08-14T07:13:17</time></trkpt><trkpt lat="55.8164860" lon="49.1188850"><time>2021-08-14T07:13:18</time></trkpt><trkpt lat="55.8164870" lon="49.1188560"><time>2021-08-14T07:13:19</time></trkpt><trkpt lat="55.8164880" lon="49.1188300"><time>2021-08-14T07:13:20</time></trkpt><trkpt lat="55.8164890" lon="49.1188020"><time>2021-08-14T07:13:21</time></trkpt><trkpt lat="55.8164930" lon="49.1187780"><time>2021-08-14T07:13:22</time></trkpt><trkpt lat="55.8164920" lon="49.1187520"><time>2021-08-14T07:13:23</time></trkpt><trkpt lat="55.8164900" lon="49.1187330"><time>2021-08-14T07:13:24</time></trkpt><trkpt lat="55.8164870" lon="49.1187000"><time>2021-08-14T07:13:25</time></trkpt><trkpt lat="55.8164890" lon="49.1186730"><time>2021-08-14T07:13:26</time></trkpt><trkpt lat="55.8164930" lon="49.1186460"><time>2021-08-14T07:13:27</time></trkpt><trkpt lat="55.8164940" lon="49.1185950"><time>2021-08-14T07:13:28</time></trkpt><trkpt lat="55.8164940" lon="49.1185800"><time>2021-08-14T07:13:29</time></trkpt><trkpt lat="55.8164850" lon="49.1185330"><time>2021-08-14T07:13:30</time></trkpt><trkpt lat="55.8164830" lon="49.1185170"><time>2021-08-14T07:13:31</time></trkpt><trkpt lat="55.8164820" lon="49.1184870"><time>2021-08-14T07:13:32</time></trkpt><trkpt lat="55.8164850" lon="49.1184580"><time>2021-08-14T07:13:33</time></trkpt><trkpt lat="55.8164860" lon="49.1184300"><time>2021-08-14T07:13:34</time></trkpt><trkpt lat="55.8164880" lon="49.1184050"><time>2021-08-14T07:13:35</time></trkpt><trkpt lat="55.8164890" lon="49.1183760"><time>2021-08-14T07:13:36</time></trkpt><trkpt lat="55.8164890" lon="49.1183490"><time>2021-08-14T07:13:37</time></trkpt><trkpt lat="55.8164810" lon="49.1183200"><time>2021-08-14T07:13:38</time></trkpt><trkpt lat="55.8164880" lon="49.1182870"><time>2021-08-14T07:13:39</time></trkpt><trkpt lat="55.8164880" lon="49.1182630"><time>2021-08-14T07:13:40</time></trkpt><trkpt lat="55.8164830" lon="49.1182340"><time>2021-08-14T07:13:41</time></trkpt><trkpt lat="55.8164870" lon="49.1182120"><time>2021-08-14T07:13:42</time></trkpt><trkpt lat="55.8164850" lon="49.1181810"><time>2021-08-14T07:13:43</time></trkpt><trkpt lat="55.8164900" lon="49.1181570"><time>2021-08-14T07:13:44</time></trkpt><trkpt lat="55.8164880" lon="49.1181300"><time>2021-08-14T07:13:45</time></trkpt><trkpt lat="55.8164910" lon="49.1181050"><time>2021-08-14T07:13:46</time></trkpt><trkpt lat="55.8164830" lon="49.1180760"><time>2021-08-14T07:13:47</time></trkpt><trkpt lat="55.8164850" lon="49.1180500"><time>2021-08-14T07:13:48</time></trkpt><trkpt lat="55.8164830" lon="49.1180230"><time>2021-08-14T07:13:49</time></trkpt><trkpt lat="55.8164810" lon="49.1179950"><time>2021-08-14T07:13:50</time></trkpt><trkpt lat="55.8164830" lon="49.1179630"><time>2021-08-14T07:13:51</time></trkpt><trkpt lat="55.8164800" lon="49.1179370"><time>2021-08-14T07:13:52</time></trkpt><trkpt lat="55.8164850" lon="49.1179110"><time>2021-08-14T07:13:53</time></trkpt><trkpt lat="55.8164820" lon="49.1178800"><time>2021-08-14T07:13:54</time></trkpt><trkpt lat="55.8164870" lon="49.1178490"><time>2021-08-14T07:13:55</time></trkpt><trkpt lat="55.8164850" lon="49.1178180"><time>2021-08-14T07:13:56</time></trkpt><trkpt lat="55.8164870" lon="49.1177850"><time>2021-08-14T07:13:57</time></trkpt><trkpt lat="55.8164920" lon="49.1177550"><time>2021-08-14T07:13:58</time></trkpt><trkpt lat="55.8164930" lon="49.1177280"><time>2021-08-14T07:13:59</time></trkpt><trkpt lat="55.8164890" lon="49.1177000"><time>2021-08-14T07:14:00</time></trkpt><trkpt lat="55.8164900" lon="49.1176740"><time>2021-08-14T07:14:01</time></trkpt><trkpt lat="55.8164910" lon="49.1176440"><time>2021-08-14T07:14:02</time></trkpt><trkpt lat="55.8164910" lon="49.1176150"><time>2021-08-14T07:14:03</time></trkpt><trkpt lat="55.8165000" lon="49.1175890"><time>2021-08-14T07:14:04</time></trkpt><trkpt lat="55.8164940" lon="49.1175570"><time>2021-08-14T07:14:05</time></trkpt><trkpt lat="55.8164980" lon="49.1175300"><time>2021-08-14T07:14:06</time></trkpt><trkpt lat="55.8164980" lon="49.1175000"><time>2021-08-14T07:14:07</time></trkpt><trkpt lat="55.8164890" lon="49.1174720"><time>2021-08-14T07:14:08</time></trkpt><trkpt lat="55.8164870" lon="49.1174420"><time>2021-08-14T07:14:09</time></trkpt><trkpt lat="55.8164850" lon="49.1174110"><time>2021-08-14T07:14:10</time></trkpt><trkpt lat="55.8164880" lon="49.1173830"><time>2021-08-14T07:14:11</time></trkpt><trkpt lat="55.8164870" lon="49.1173550"><time>2021-08-14T07:14:12</time></trkpt><trkpt lat="55.8164870" lon="49.1173270"><time>2021-08-14T07:14:13</time></trkpt><trkpt lat="55.8164880" lon="49.1172970"><time>2021-08-14T07:14:14</time></trkpt><trkpt lat="55.8164890" lon="49.1172690"><time>2021-08-14T07:14:15</time></trkpt><trkpt lat="55.8164770" lon="49.1172170"><time>2021-08-14T07:14:16</time></trkpt><trkpt lat="55.8164760" lon="49.1172040"><time>2021-08-14T07:14:17</time></trkpt><trkpt lat="55.8164730" lon="49.1171750"><time>2021-08-14T07:14:18</time></trkpt><trkpt lat="55.8164760" lon="49.1171440"><time>2021-08-14T07:14:19</time></trkpt><trkpt lat="55.8164710" lon="49.1171160"><time>2021-08-14T07:14:20</time></trkpt><trkpt lat="55.8164710" lon="49.1170860"><time>2021-08-14T07:14:21</time></trkpt><trkpt lat="55.8164710" lon="49.1170590"><time>2021-08-14T07:14:22</time></trkpt><trkpt lat="55.8164740" lon="49.1170280"><time>2021-08-14T07:14:23</time></trkpt><trkpt lat="55.8164730" lon="49.1170040"><time>2021-08-14T07:14:24</time></trkpt><trkpt lat="55.8164690" lon="49.1169930"><time>2021-08-14T07:14:25</time></trkpt><trkpt lat="55.8164590" lon="49.1169870"><time>2021-08-14T07:14:26</time></trkpt><trkpt lat="55.8164490" lon="49.1169750"><time>2021-08-14T07:14:27</time></trkpt><trkpt lat="55.8164400" lon="49.1169730"><time>2021-08-14T07:14:28</time></trkpt><trkpt lat="55.8164300" lon="49.1169710"><time>2021-08-14T07:14:29</time></trkpt><trkpt lat="55.8164210" lon="49.1169690"><time>2021-08-14T07:14:30</time></trkpt><trkpt lat="55.8163910" lon="49.1169780"><time>2021-08-14T07:14:31</time></trkpt><trkpt lat="55.8163800" lon="49.1169810"><time>2021-08-14T07:14:32</time></trkpt><trkpt lat="55.8163610" lon="49.1169870"><time>2021-08-14T07:14:33</time></trkpt><trkpt lat="55.8163450" lon="49.1169940"><time>2021-08-14T07:14:34</time></trkpt><trkpt lat="55.8163320" lon="49.1169960"><time>2021-08-14T07:14:35</time></trkpt><trkpt lat="55.8163110" lon="49.1169980"><time>2021-08-14T07:14:36</time></trkpt><trkpt lat="55.8162940" lon="49.1169990"><time>2021-08-14T07:14:37</time></trkpt><trkpt lat="55.8162780" lon="49.1169900"><time>2021-08-14T07:14:38</time></trkpt><trkpt lat="55.8162530" lon="49.1169730"><time>2021-08-14T07:14:39</time></trkpt><trkpt lat="55.8162390" lon="49.1169610"><time>2021-08-14T07:14:40</time></trkpt><trkpt lat="55.8162250" lon="49.1169520"><time>2021-08-14T07:14:41</time></trkpt><trkpt lat="55.8161960" lon="49.1169430"><time>2021-08-14T07:14:42</time></trkpt><trkpt lat="55.8161880" lon="49.1169390"><time>2021-08-14T07:14:43</time></trkpt><trkpt lat="55.8161720" lon="49.1169310"><time>2021-08-14T07:14:44</time></trkpt><trkpt lat="55.8161580" lon="49.1169210"><time>2021-08-14T07:14:45</time></trkpt><trkpt lat="55.8161420" lon="49.1169160"><time>2021-08-14T07:14:46</time></trkpt><trkpt lat="55.8161270" lon="49.1169030"><time>2021-08-14T07:14:47</time></trkpt><trkpt lat="55.8161130" lon="49.1168860"><time>2021-08-14T07:14:48</time></trkpt><trkpt lat="55.8160980" lon="49.1168710"><time>2021-08-14T07:14:49</time></trkpt><trkpt lat="55.8160830" lon="49.1168610"><time>2021-08-14T07:14:50</time></trkpt><trkpt lat="55.8160660" lon="49.1168630"><time>2021-08-14T07:14:51</time></trkpt><trkpt lat="55.8160360" lon="49.1168780"><time>2021-08-14T07:14:52</time></trkpt><trkpt lat="55.8160270" lon="49.1168820"><time>2021-08-14T07:14:53</time></trkpt><trkpt lat="55.8160100" lon="49.1168880"><time>2021-08-14T07:14:54</time></trkpt><trkpt lat="55.8159930" lon="49.1168820"><time>2021-08-14T07:14:55</time></trkpt><trkpt lat="55.8159660" lon="49.1168760"><time>2021-08-14T07:14:56</time></trkpt><trkpt lat="55.8159560" lon="49.1168780"><time>2021-08-14T07:14:57</time></trkpt><trkpt lat="55.8159400" lon="49.1168750"><time>2021-08-14T07:14:58</time></trkpt><trkpt lat="55.8159230" lon="49.1168700"><time>2021-08-14T07:14:59</time></trkpt><trkpt lat="55.8159070" lon="49.1168600"><time>2021-08-14T07:15:00</time></trkpt><trkpt lat="55.8158900" lon="49.1168520"><time>2021-08-14T07:15:01</time></trkpt><trkpt lat="55.8158740" lon="49.1168400"><time>2021-08-14T07:15:02</time></trkpt><trkpt lat="55.8158580" lon="49.1168310"><time>2021-08-14T07:15:03</time></trkpt><trkpt lat="55.8158410" lon="49.1168300"><time>2021-08-14T07:15:04</time></trkpt><trkpt lat="55.8158260" lon="49.1168200"><time>2021-08-14T07:15:05</time></trkpt><trkpt lat="55.8158110" lon="49.1168120"><time>2021-08-14T07:15:06</time></trkpt><trkpt lat="55.8157950" lon="49.1168040"><time>2021-08-14T07:15:07</time></trkpt><trkpt lat="55.8157800" lon="49.1167970"><time>2021-08-14T07:15:08</time></trkpt><trkpt lat="55.8157660" lon="49.1167880"><time>2021-08-14T07:15:09</time></trkpt><trkpt lat="55.8157480" lon="49.1167910"><time>2021-08-14T07:15:10</time></trkpt><trkpt lat="55.8157330" lon="49.1167940"><time>2021-08-14T07:15:11</time></trkpt><trkpt lat="55.8157180" lon="49.1167880"><time>2021-08-14T07:15:12</time></trkpt><trkpt lat="55.8157000" lon="49.1167840"><time>2021-08-14T07:15:13</time></trkpt><trkpt lat="55.8156730" lon="49.1167830"><time>2021-08-14T07:15:14</time></trkpt><trkpt lat="55.8156620" lon="49.1167820"><time>2021-08-14T07:15:15</time></trkpt><trkpt lat="55.8156480" lon="49.1167880"><time>2021-08-14T07:15:16</time></trkpt><trkpt lat="55.8156340" lon="49.1167900"><time>2021-08-14T07:15:17</time></trkpt><trkpt lat="55.8156140" lon="49.1167970"><time>2021-08-14T07:15:18</time></trkpt><trkpt lat="55.8156060" lon="49.1167960"><time>2021-08-14T07:15:19</time></trkpt><trkpt lat="55.8155970" lon="49.1167950"><time>2021-08-14T07:15:20</time></trkpt><trkpt lat="55.8155820" lon="49.1167980"><time>2021-08-14T07:15:21</time></trkpt><trkpt lat="55.8155650" lon="49.1167980"><time>2021-08-14T07:15:22</time></trkpt><trkpt lat="55.8155510" lon="49.1168040"><time>2021-08-14T07:15:23</time></trkpt><trkpt lat="55.8155340" lon="49.1168190"><time>2021-08-14T07:15:24</time></trkpt><trkpt lat="55.8155180" lon="49.1168250"><time>2021-08-14T07:15:25</time></trkpt><trkpt lat="55.8155050" lon="49.1168320"><time>2021-08-14T07:15:26</time></trkpt><trkpt lat="55.8154770" lon="49.1168370"><time>2021-08-14T07:15:27</time></trkpt><trkpt lat="55.8154670" lon="49.1168370"><time>2021-08-14T07:15:28</time></trkpt><trkpt lat="55.8154490" lon="49.1168430"><time>2021-08-14T07:15:29</time></trkpt><trkpt lat="55.8154350" lon="49.1168400"><time>2021-08-14T07:15:30</time></trkpt><trkpt lat="55.8154200" lon="49.1168430"><time>2021-08-14T07:15:31</time></trkpt><trkpt lat="55.8154010" lon="49.1168490"><time>2021-08-14T07:15:32</time></trkpt><trkpt lat="55.8153880" lon="49.1168410"><time>2021-08-14T07:15:33</time></trkpt><trkpt lat="55.8153740" lon="49.1168360"><time>2021-08-14T07:15:34</time></trkpt><trkpt lat="55.8153600" lon="49.1168450"><time>2021-08-14T07:15:35</time></trkpt><trkpt lat="55.8153450" lon="49.1168490"><time>2021-08-14T07:15:36</time></trkpt><trkpt lat="55.8153280" lon="49.1168560"><time>2021-08-14T07:15:37</time></trkpt><trkpt lat="55.8153110" lon="49.1168620"><time>2021-08-14T07:15:38</time></trkpt><trkpt lat="55.8152960" lon="49.1168620"><time>2021-08-14T07:15:39</time></trkpt><trkpt lat="55.8152800" lon="49.1168630"><time>2021-08-14T07:15:40</time></trkpt><trkpt lat="55.8152690" lon="49.1168580"><time>2021-08-14T07:15:41</time></trkpt><trkpt lat="55.8152640" lon="49.1168620"><time>2021-08-14T07:15:42</time></trkpt><trkpt lat="55.8152570" lon="49.1168610"><time>2021-08-14T07:15:43</time></trkpt><trkpt lat="55.8152500" lon="49.1168600"><time>2021-08-14T07:15:44</time></trkpt><trkpt lat="55.8152390" lon="49.1168710"><time>2021-08-14T07:15:45</time></trkpt><trkpt lat="55.8152200" lon="49.1168780"><time>2021-08-14T07:15:46</time></trkpt><trkpt lat="55.8152040" lon="49.1168760"><time>2021-08-14T07:15:47</time></trkpt><trkpt lat="55.8151890" lon="49.1168700"><time>2021-08-14T07:15:48</time></trkpt><trkpt lat="55.8151750" lon="49.1168690"><time>2021-08-14T07:15:49</time></trkpt><trkpt lat="55.8151600" lon="49.1168760"><time>2021-08-14T07:15:50</time></trkpt><trkpt lat="55.8151460" lon="49.1168870"><time>2021-08-14T07:15:51</time></trkpt><trkpt lat="55.8151330" lon="49.1168890"><time>2021-08-14T07:15:52</time></trkpt><trkpt lat="55.8151250" lon="49.1169090"><time>2021-08-14T07:15:53</time></trkpt><trkpt lat="55.8151160" lon="49.1169120"><time>2021-08-14T07:15:54</time></trkpt><trkpt lat="55.8151070" lon="49.1169250"><time>2021-08-14T07:15:55</time></trkpt><trkpt lat="55.8150950" lon="49.1169320"><time>2021-08-14T07:15:56</time></trkpt><trkpt lat="55.8150810" lon="49.1169430"><time>2021-08-14T07:15:57</time></trkpt><trkpt lat="55.8150620" lon="49.1169600"><time>2021-08-14T07:15:58</time></trkpt><trkpt lat="55.8150560" lon="49.1169680"><time>2021-08-14T07:15:59</time></trkpt><trkpt lat="55.8150490" lon="49.1169760"><time>2021-08-14T07:16:00</time></trkpt><trkpt lat="55.8150360" lon="49.1169910"><time>2021-08-14T07:16:01</time></trkpt><trkpt lat="55.8150210" lon="49.1170040"><time>2021-08-14T07:16:02</time></trkpt><trkpt lat="55.8150090" lon="49.1170210"><time>2021-08-14T07:16:03</time></trkpt><trkpt lat="55.8149930" lon="49.1170330"><time>2021-08-14T07:16:04</time></trkpt><trkpt lat="55.8149790" lon="49.1170470"><time>2021-08-14T07:16:05</time></trkpt><trkpt lat="55.8149650" lon="49.1170470"><time>2021-08-14T07:16:06</time></trkpt><trkpt lat="55.8149530" lon="49.1170490"><time>2021-08-14T07:16:07</time></trkpt><trkpt lat="55.8149430" lon="49.1170550"><time>2021-08-14T07:16:08</time></trkpt><trkpt lat="55.8149350" lon="49.1170550"><time>2021-08-14T07:16:09</time></trkpt><trkpt lat="55.8149250" lon="49.1170540"><time>2021-08-14T07:16:10</time></trkpt><trkpt lat="55.8149130" lon="49.1170490"><time>2021-08-14T07:16:11</time></trkpt><trkpt lat="55.8149010" lon="49.1170420"><time>2021-08-14T07:16:12</time></trkpt><trkpt lat="55.8148820" lon="49.1170290"><time>2021-08-14T07:16:13</time></trkpt><trkpt lat="55.8148710" lon="49.1170240"><time>2021-08-14T07:16:14</time></trkpt><trkpt lat="55.8148510" lon="49.1170050"><time>2021-08-14T07:16:15</time></trkpt><trkpt lat="55.8148440" lon="49.1170010"><time>2021-08-14T07:16:16</time></trkpt><trkpt lat="55.8148360" lon="49.1169960"><time>2021-08-14T07:16:17</time></trkpt><trkpt lat="55.8148240" lon="49.1169850"><time>2021-08-14T07:16:18</time></trkpt><trkpt lat="55.8148150" lon="49.1169820"><time>2021-08-14T07:16:19</time></trkpt><trkpt lat="55.8148040" lon="49.1169800"><time>2021-08-14T07:16:20</time></trkpt><trkpt lat="55.8147940" lon="49.1169730"><time>2021-08-14T07:16:21</time></trkpt><trkpt lat="55.8147930" lon="49.1169710"><time>2021-08-14T07:16:22</time></trkpt><trkpt lat="55.8147920" lon="49.1169700"><time>2021-08-14T07:16:23</time></trkpt><trkpt lat="55.8147910" lon="49.1169680"><time>2021-08-14T07:16:24</time></trkpt><trkpt lat="55.8147900" lon="49.1169660"><time>2021-08-14T07:16:25</time></trkpt><trkpt lat="55.8147900" lon="49.1169640"><time>2021-08-14T07:16:26</time></trkpt><trkpt lat="55.8147890" lon="49.1169630"><time>2021-08-14T07:16:27</time></trkpt><trkpt lat="55.8147880" lon="49.1169610"><time>2021-08-14T07:16:28</time></trkpt><trkpt lat="55.8147870" lon="49.1169590"><time>2021-08-14T07:16:29</time></trkpt><trkpt lat="55.8147860" lon="49.1169570"><time>2021-08-14T07:16:30</time></trkpt><trkpt lat="55.8147850" lon="49.1169550"><time>2021-08-14T07:16:31</time></trkpt><trkpt lat="55.8147840" lon="49.1169540"><time>2021-08-14T07:16:32</time></trkpt><trkpt lat="55.8147830" lon="49.1169520"><time>2021-08-14T07:16:33</time></trkpt><trkpt lat="55.8147820" lon="49.1169500"><time>2021-08-14T07:16:34</time></trkpt><trkpt lat="55.8147810" lon="49.1169480"><time>2021-08-14T07:16:35</time></trkpt><trkpt lat="55.8147800" lon="49.1169460"><time>2021-08-14T07:16:36</time></trkpt><trkpt lat="55.8147790" lon="49.1169450"><time>2021-08-14T07:16:37</time></trkpt><trkpt lat="55.8147790" lon="49.1169430"><time>2021-08-14T07:16:38</time></trkpt><trkpt lat="55.8147780" lon="49.1169410"><time>2021-08-14T07:16:39</time></trkpt><trkpt lat="55.8147770" lon="49.1169390"><time>2021-08-14T07:16:40</time></trkpt><trkpt lat="55.8147760" lon="49.1169380"><time>2021-08-14T07:16:41</time></trkpt><trkpt lat="55.8147750" lon="49.1169360"><time>2021-08-14T07:16:42</time></trkpt><trkpt lat="55.8147740" lon="49.1169340"><time>2021-08-14T07:16:43</time></trkpt><trkpt lat="55.8147570" lon="49.1169190"><time>2021-08-14T07:16:44</time></trkpt><trkpt lat="55.8147470" lon="49.1169030"><time>2021-08-14T07:16:45</time></trkpt><trkpt lat="55.8147340" lon="49.1168880"><time>2021-08-14T07:16:46</time></trkpt><trkpt lat="55.8147240" lon="49.1168670"><time>2021-08-14T07:16:47</time></trkpt><trkpt lat="55.8147120" lon="49.1168480"><time>2021-08-14T07:16:48</time></trkpt><trkpt lat="55.8147010" lon="49.1168380"><time>2021-08-14T07:16:49</time></trkpt><trkpt lat="55.8146860" lon="49.1168130"><time>2021-08-14T07:16:50</time></trkpt><trkpt lat="55.8146790" lon="49.1168030"><time>2021-08-14T07:16:51</time></trkpt><trkpt lat="55.8146730" lon="49.1167940"><time>2021-08-14T07:16:52</time></trkpt><trkpt lat="55.8146650" lon="49.1167720"><time>2021-08-14T07:16:53</time></trkpt><trkpt lat="55.8146620" lon="49.1167630"><time>2021-08-14T07:16:54</time></trkpt><trkpt lat="55.8146680" lon="49.1167460"><time>2021-08-14T07:16:55</time></trkpt><trkpt lat="55.8146680" lon="49.1167160"><time>2021-08-14T07:16:56</time></trkpt><trkpt lat="55.8146660" lon="49.1167030"><time>2021-08-14T07:16:57</time></trkpt><trkpt lat="55.8146650" lon="49.1166860"><time>2021-08-14T07:16:58</time></trkpt><trkpt lat="55.8146720" lon="49.1166480"><time>2021-08-14T07:16:59</time></trkpt><trkpt lat="55.8146740" lon="49.1166350"><time>2021-08-14T07:17:00</time></trkpt><trkpt lat="55.8146770" lon="49.1166220"><time>2021-08-14T07:17:01</time></trkpt><trkpt lat="55.8146780" lon="49.1166010"><time>2021-08-14T07:17:02</time></trkpt><trkpt lat="55.8146780" lon="49.1165750"><time>2021-08-14T07:17:03</time></trkpt><trkpt lat="55.8146760" lon="49.1165620"><time>2021-08-14T07:17:04</time></trkpt><trkpt lat="55.8146780" lon="49.1165360"><time>2021-08-14T07:17:05</time></trkpt><trkpt lat="55.8146790" lon="49.1165220"><time>2021-08-14T07:17:06</time></trkpt><trkpt lat="55.8146780" lon="49.1165020"><time>2021-08-14T07:17:07</time></trkpt><trkpt lat="55.8146740" lon="49.1164840"><time>2021-08-14T07:17:08</time></trkpt><trkpt lat="55.8146690" lon="49.1164620"><time>2021-08-14T07:17:09</time></trkpt><trkpt lat="55.8146660" lon="49.1164450"><time>2021-08-14T07:17:10</time></trkpt><trkpt lat="55.8146610" lon="49.1164190"><time>2021-08-14T07:17:11</time></trkpt><trkpt lat="55.8146620" lon="49.1164000"><time>2021-08-14T07:17:12</time></trkpt><trkpt lat="55.8146650" lon="49.1163810"><time>2021-08-14T07:17:13</time></trkpt><trkpt lat="55.8146710" lon="49.1163610"><time>2021-08-14T07:17:14</time></trkpt><trkpt lat="55.8146720" lon="49.1163470"><time>2021-08-14T07:17:15</time></trkpt><trkpt lat="55.8146760" lon="49.1163300"><time>2021-08-14T07:17:16</time></trkpt><trkpt lat="55.8146760" lon="49.1162970"><time>2021-08-14T07:17:17</time></trkpt><trkpt lat="55.8146690" lon="49.1162820"><time>2021-08-14T07:17:18</time></trkpt><trkpt lat="55.8146610" lon="49.1162680"><time>2021-08-14T07:17:19</time></trkpt><trkpt lat="55.8146520" lon="49.1162410"><time>2021-08-14T07:17:21</time></trkpt><trkpt lat="55.8146470" lon="49.1162350"><time>2021-08-14T07:17:22</time></trkpt><trkpt lat="55.8146370" lon="49.1162200"><time>2021-08-14T07:17:23</time></trkpt><trkpt lat="55.8146310" lon="49.1161950"><time>2021-08-14T07:17:24</time></trkpt><trkpt lat="55.8146210" lon="49.1161780"><time>2021-08-14T07:17:25</time></trkpt><trkpt lat="55.8146200" lon="49.1161630"><time>2021-08-14T07:17:26</time></trkpt><trkpt lat="55.8146200" lon="49.1161500"><time>2021-08-14T07:17:27</time></trkpt><trkpt lat="55.8146190" lon="49.1161330"><time>2021-08-14T07:17:28</time></trkpt><trkpt lat="55.8146190" lon="49.1161180"><time>2021-08-14T07:17:29</time></trkpt><trkpt lat="55.8146200" lon="49.1161100"><time>2021-08-14T07:17:30</time></trkpt><trkpt lat="55.8146170" lon="49.1160980"><time>2021-08-14T07:17:31</time></trkpt><trkpt lat="55.8146100" lon="49.1160790"><time>2021-08-14T07:17:32</time></trkpt><trkpt lat="55.8146050" lon="49.1160710"><time>2021-08-14T07:17:33</time></trkpt><trkpt lat="55.8146030" lon="49.1160640"><time>2021-08-14T07:17:34</time></trkpt><trkpt lat="55.8146030" lon="49.1160660"><time>2021-08-14T07:17:35</time></trkpt><trkpt lat="55.8146030" lon="49.1160670"><time>2021-08-14T07:17:36</time></trkpt><trkpt lat="55.8146000" lon="49.1160700"><time>2021-08-14T07:17:37</time></trkpt><trkpt lat="55.8146010" lon="49.1160730"><time>2021-08-14T07:17:38</time></trkpt><trkpt lat="55.8145980" lon="49.1160710"><time>2021-08-14T07:17:39</time></trkpt><trkpt lat="55.8146000" lon="49.1160720"><time>2021-08-14T07:17:40</time></trkpt><trkpt lat="55.8145970" lon="49.1160710"><time>2021-08-14T07:17:41</time></trkpt><trkpt lat="55.8146010" lon="49.1160730"><time>2021-08-14T07:17:42</time></trkpt><trkpt lat="55.8146000" lon="49.1160750"><time>2021-08-14T07:17:43</time></trkpt><trkpt lat="55.8146000" lon="49.1160740"><time>2021-08-14T07:17:44</time></trkpt><trkpt lat="55.8145990" lon="49.1160750"><time>2021-08-14T07:17:45</time></trkpt><trkpt lat="55.8145990" lon="49.1160740"><time>2021-08-14T07:17:46</time></trkpt><trkpt lat="55.8146000" lon="49.1160750"><time>2021-08-14T07:17:47</time></trkpt><trkpt lat="55.8146000" lon="49.1160750"><time>2021-08-14T07:17:48</time></trkpt><trkpt lat="55.8146000" lon="49.1160760"><time>2021-08-14T07:17:49</time></trkpt><trkpt lat="55.8146000" lon="49.1160760"><time>2021-08-14T07:17:50</time></trkpt><trkpt lat="55.8146030" lon="49.1160720"><time>2021-08-14T07:17:51</time></trkpt><trkpt lat="55.8146010" lon="49.1160750"><time>2021-08-14T07:17:52</time></trkpt><trkpt lat="55.8146080" lon="49.1160860"><time>2021-08-14T07:17:53</time></trkpt><trkpt lat="55.8146150" lon="49.1161040"><time>2021-08-14T07:17:54</time></trkpt><trkpt lat="55.8146130" lon="49.1161300"><time>2021-08-14T07:17:55</time></trkpt><trkpt lat="55.8146130" lon="49.1161640"><time>2021-08-14T07:17:56</time></trkpt><trkpt lat="55.8146130" lon="49.1161820"><time>2021-08-14T07:17:57</time></trkpt><trkpt lat="55.8146120" lon="49.1161990"><time>2021-08-14T07:17:58</time></trkpt><trkpt lat="55.8146190" lon="49.1162320"><time>2021-08-14T07:17:59</time></trkpt><trkpt lat="55.8146230" lon="49.1162460"><time>2021-08-14T07:18:00</time></trkpt><trkpt lat="55.8146260" lon="49.1162600"><time>2021-08-14T07:18:01</time></trkpt><trkpt lat="55.8146260" lon="49.1162770"><time>2021-08-14T07:18:02</time></trkpt><trkpt lat="55.8146250" lon="49.1162980"><time>2021-08-14T07:18:03</time></trkpt><trkpt lat="55.8146190" lon="49.1163090"><time>2021-08-14T07:18:04</time></trkpt><trkpt lat="55.8146200" lon="49.1163380"><time>2021-08-14T07:18:05</time></trkpt><trkpt lat="55.8146160" lon="49.1163580"><time>2021-08-14T07:18:06</time></trkpt><trkpt lat="55.8146170" lon="49.1163900"><time>2021-08-14T07:18:07</time></trkpt><trkpt lat="55.8146180" lon="49.1164080"><time>2021-08-14T07:18:08</time></trkpt><trkpt lat="55.8146190" lon="49.1164250"><time>2021-08-14T07:18:09</time></trkpt><trkpt lat="55.8146160" lon="49.1164510"><time>2021-08-14T07:18:10</time></trkpt><trkpt lat="55.8146120" lon="49.1164730"><time>2021-08-14T07:18:11</time></trkpt><trkpt lat="55.8146070" lon="49.1164970"><time>2021-08-14T07:18:12</time></trkpt><trkpt lat="55.8146100" lon="49.1165210"><time>2021-08-14T07:18:13</time></trkpt><trkpt lat="55.8146060" lon="49.1165410"><time>2021-08-14T07:18:14</time></trkpt><trkpt lat="55.8146070" lon="49.1165630"><time>2021-08-14T07:18:15</time></trkpt><trkpt lat="55.8146110" lon="49.1165790"><time>2021-08-14T07:18:16</time></trkpt><trkpt lat="55.8146060" lon="49.1165990"><time>2021-08-14T07:18:17</time></trkpt><trkpt lat="55.8146040" lon="49.1166100"><time>2021-08-14T07:18:18</time></trkpt><trkpt lat="55.8145980" lon="49.1166260"><time>2021-08-14T07:18:19</time></trkpt><trkpt lat="55.8145940" lon="49.1166630"><time>2021-08-14T07:18:20</time></trkpt><trkpt lat="55.8145900" lon="49.1166860"><time>2021-08-14T07:18:21</time></trkpt><trkpt lat="55.8145900" lon="49.1166980"><time>2021-08-14T07:18:22</time></trkpt><trkpt lat="55.8145910" lon="49.1167150"><time>2021-08-14T07:18:23</time></trkpt><trkpt lat="55.8145940" lon="49.1167400"><time>2021-08-14T07:18:24</time></trkpt><trkpt lat="55.8145990" lon="49.1167610"><time>2021-08-14T07:18:25</time></trkpt><trkpt lat="55.8146020" lon="49.1167930"><time>2021-08-14T07:18:26</time></trkpt><trkpt lat="55.8146000" lon="49.1168100"><time>2021-08-14T07:18:27</time></trkpt><trkpt lat="55.8146000" lon="49.1168240"><time>2021-08-14T07:18:28</time></trkpt><trkpt lat="55.8145980" lon="49.1168450"><time>2021-08-14T07:18:29</time></trkpt><trkpt lat="55.8145920" lon="49.1168810"><time>2021-08-14T07:18:30</time></trkpt><trkpt lat="55.8145890" lon="49.1168960"><time>2021-08-14T07:18:31</time></trkpt><trkpt lat="55.8145870" lon="49.1169100"><time>2021-08-14T07:18:32</time></trkpt><trkpt lat="55.8145870" lon="49.1169480"><time>2021-08-14T07:18:33</time></trkpt><trkpt lat="55.8145880" lon="49.1169610"><time>2021-08-14T07:18:34</time></trkpt><trkpt lat="55.8145900" lon="49.1169750"><time>2021-08-14T07:18:35</time></trkpt><trkpt lat="55.8145940" lon="49.1170070"><time>2021-08-14T07:18:36</time></trkpt><trkpt lat="55.8145960" lon="49.1170240"><time>2021-08-14T07:18:37</time></trkpt><trkpt lat="55.8145980" lon="49.1170400"><time>2021-08-14T07:18:38</time></trkpt><trkpt lat="55.8146020" lon="49.1170640"><time>2021-08-14T07:18:39</time></trkpt><trkpt lat="55.8146000" lon="49.1170730"><time>2021-08-14T07:18:40</time></trkpt><trkpt lat="55.8146010" lon="49.1170950"><time>2021-08-14T07:18:41</time></trkpt><trkpt lat="55.8145920" lon="49.1171180"><time>2021-08-14T07:18:42</time></trkpt><trkpt lat="55.8145870" lon="49.1171440"><time>2021-08-14T07:18:43</time></trkpt><trkpt lat="55.8145810" lon="49.1171590"><time>2021-08-14T07:18:44</time></trkpt><trkpt lat="55.8145810" lon="49.1171640"><time>2021-08-14T07:18:45</time></trkpt><trkpt lat="55.8145810" lon="49.1171720"><time>2021-08-14T07:18:46</time></trkpt><trkpt lat="55.8145770" lon="49.1171920"><time>2021-08-14T07:18:47</time></trkpt><trkpt lat="55.8145750" lon="49.1171980"><time>2021-08-14T07:18:48</time></trkpt><trkpt lat="55.8145770" lon="49.1172000"><time>2021-08-14T07:18:49</time></trkpt><trkpt lat="55.8145790" lon="49.1172000"><time>2021-08-14T07:18:50</time></trkpt><trkpt lat="55.8145810" lon="49.1172030"><time>2021-08-14T07:18:51</time></trkpt><trkpt lat="55.8145820" lon="49.1172020"><time>2021-08-14T07:18:52</time></trkpt><trkpt lat="55.8145820" lon="49.1172050"><time>2021-08-14T07:18:53</time></trkpt><trkpt lat="55.8145850" lon="49.1172070"><time>2021-08-14T07:18:54</time></trkpt><trkpt lat="55.8145900" lon="49.1172200"><time>2021-08-14T07:18:55</time></trkpt><trkpt lat="55.8145920" lon="49.1172210"><time>2021-08-14T07:18:56</time></trkpt><trkpt lat="55.8146040" lon="49.1172300"><time>2021-08-14T07:18:57</time></trkpt><trkpt lat="55.8146070" lon="49.1172310"><time>2021-08-14T07:18:58</time></trkpt><trkpt lat="55.8146210" lon="49.1172210"><time>2021-08-14T07:18:59</time></trkpt><trkpt lat="55.8146340" lon="49.1172070"><time>2021-08-14T07:19:00</time></trkpt><trkpt lat="55.8146430" lon="49.1172050"><time>2021-08-14T07:19:01</time></trkpt><trkpt lat="55.8146540" lon="49.1172050"><time>2021-08-14T07:19:02</time></trkpt><trkpt lat="55.8146650" lon="49.1172010"><time>2021-08-14T07:19:03</time></trkpt><trkpt lat="55.8146890" lon="49.1171910"><time>2021-08-14T07:19:04</time></trkpt><trkpt lat="55.8146970" lon="49.1171880"><time>2021-08-14T07:19:05</time></trkpt><trkpt lat="55.8147050" lon="49.1171840"><time>2021-08-14T07:19:06</time></trkpt><trkpt lat="55.8147100" lon="49.1171800"><time>2021-08-14T07:19:07</time></trkpt><trkpt lat="55.8147230" lon="49.1171770"><time>2021-08-14T07:19:08</time></trkpt><trkpt lat="55.8147340" lon="49.1171790"><time>2021-08-14T07:19:09</time></trkpt><trkpt lat="55.8147540" lon="49.1171810"><time>2021-08-14T07:19:10</time></trkpt><trkpt lat="55.8147630" lon="49.1171790"><time>2021-08-14T07:19:11</time></trkpt><trkpt lat="55.8147730" lon="49.1171780"><time>2021-08-14T07:19:12</time></trkpt><trkpt lat="55.8147990" lon="49.1171700"><time>2021-08-14T07:19:13</time></trkpt><trkpt lat="55.8148110" lon="49.1171690"><time>2021-08-14T07:19:14</time></trkpt><trkpt lat="55.8148290" lon="49.1171490"><time>2021-08-14T07:19:15</time></trkpt><trkpt lat="55.8148380" lon="49.1171440"><time>2021-08-14T07:19:16</time></trkpt><trkpt lat="55.8148460" lon="49.1171380"><time>2021-08-14T07:19:17</time></trkpt><trkpt lat="55.8148640" lon="49.1171230"><time>2021-08-14T07:19:18</time></trkpt><trkpt lat="55.8148740" lon="49.1171150"><time>2021-08-14T07:19:19</time></trkpt><trkpt lat="55.8148830" lon="49.1171080"><time>2021-08-14T07:19:20</time></trkpt><trkpt lat="55.8149040" lon="49.1171070"><time>2021-08-14T07:19:21</time></trkpt><trkpt lat="55.8149130" lon="49.1171020"><time>2021-08-14T07:19:22</time></trkpt><trkpt lat="55.8149230" lon="49.1170960"><time>2021-08-14T07:19:23</time></trkpt><trkpt lat="55.8149370" lon="49.1170940"><time>2021-08-14T07:19:24</time></trkpt><trkpt lat="55.8149530" lon="49.1170940"><time>2021-08-14T07:19:25</time></trkpt><trkpt lat="55.8149680" lon="49.1170970"><time>2021-08-14T07:19:27</time></trkpt><trkpt lat="55.8149850" lon="49.1171010"><time>2021-08-14T07:19:28</time></trkpt><trkpt lat="55.8150090" lon="49.1170990"><time>2021-08-14T07:19:29</time></trkpt><trkpt lat="55.8150150" lon="49.1170950"><time>2021-08-14T07:19:30</time></trkpt><trkpt lat="55.8150310" lon="49.1170900"><time>2021-08-14T07:19:31</time></trkpt><trkpt lat="55.8150430" lon="49.1170740"><time>2021-08-14T07:19:32</time></trkpt><trkpt lat="55.8150580" lon="49.1170650"><time>2021-08-14T07:19:33</time></trkpt><trkpt lat="55.8150720" lon="49.1170610"><time>2021-08-14T07:19:34</time></trkpt><trkpt lat="55.8150830" lon="49.1170460"><time>2021-08-14T07:19:35</time></trkpt><trkpt lat="55.8150960" lon="49.1170370"><time>2021-08-14T07:19:36</time></trkpt><trkpt lat="55.8151120" lon="49.1170260"><time>2021-08-14T07:19:37</time></trkpt><trkpt lat="55.8151270" lon="49.1170240"><time>2021-08-14T07:19:38</time></trkpt><trkpt lat="55.8151410" lon="49.1170170"><time>2021-08-14T07:19:39</time></trkpt><trkpt lat="55.8151560" lon="49.1170160"><time>2021-08-14T07:19:40</time></trkpt><trkpt lat="55.8151710" lon="49.1170080"><time>2021-08-14T07:19:41</time></trkpt><trkpt lat="55.8151820" lon="49.1169990"><time>2021-08-14T07:19:42</time></trkpt><trkpt lat="55.8151990" lon="49.1169890"><time>2021-08-14T07:19:43</time></trkpt><trkpt lat="55.8152100" lon="49.1169780"><time>2021-08-14T07:19:44</time></trkpt><trkpt lat="55.8152250" lon="49.1169680"><time>2021-08-14T07:19:45</time></trkpt><trkpt lat="55.8152390" lon="49.1169580"><time>2021-08-14T07:19:46</time></trkpt><trkpt lat="55.8152540" lon="49.1169480"><time>2021-08-14T07:19:47</time></trkpt><trkpt lat="55.8152690" lon="49.1169400"><time>2021-08-14T07:19:48</time></trkpt><trkpt lat="55.8152790" lon="49.1169270"><time>2021-08-14T07:19:49</time></trkpt><trkpt lat="55.8152910" lon="49.1169080"><time>2021-08-14T07:19:50</time></trkpt><trkpt lat="55.8153050" lon="49.1169000"><time>2021-08-14T07:19:51</time></trkpt><trkpt lat="55.8153190" lon="49.1169070"><time>2021-08-14T07:19:52</time></trkpt><trkpt lat="55.8153360" lon="49.1169140"><time>2021-08-14T07:19:53</time></trkpt><trkpt lat="55.8153580" lon="49.1169070"><time>2021-08-14T07:19:54</time></trkpt><trkpt lat="55.8153790" lon="49.1169050"><time>2021-08-14T07:19:55</time></trkpt><trkpt lat="55.8153850" lon="49.1169000"><time>2021-08-14T07:19:56</time></trkpt><trkpt lat="55.8154040" lon="49.1168920"><time>2021-08-14T07:19:57</time></trkpt><trkpt lat="55.8154130" lon="49.1168880"><time>2021-08-14T07:19:58</time></trkpt><trkpt lat="55.8154230" lon="49.1168830"><time>2021-08-14T07:19:59</time></trkpt><trkpt lat="55.8154440" lon="49.1168840"><time>2021-08-14T07:20:00</time></trkpt><trkpt lat="55.8154530" lon="49.1168820"><time>2021-08-14T07:20:01</time></trkpt><trkpt lat="55.8154630" lon="49.1168790"><time>2021-08-14T07:20:02</time></trkpt><trkpt lat="55.8154780" lon="49.1168640"><time>2021-08-14T07:20:03</time></trkpt><trkpt lat="55.8154950" lon="49.1168550"><time>2021-08-14T07:20:04</time></trkpt><trkpt lat="55.8155160" lon="49.1168410"><time>2021-08-14T07:20:05</time></trkpt><trkpt lat="55.8155260" lon="49.1168370"><time>2021-08-14T07:20:06</time></trkpt><trkpt lat="55.8155360" lon="49.1168340"><time>2021-08-14T07:20:07</time></trkpt><trkpt lat="55.8155460" lon="49.1168320"><time>2021-08-14T07:20:08</time></trkpt><trkpt lat="55.8155630" lon="49.1168360"><time>2021-08-14T07:20:09</time></trkpt><trkpt lat="55.8155760" lon="49.1168470"><time>2021-08-14T07:20:10</time></trkpt><trkpt lat="55.8155900" lon="49.1168470"><time>2021-08-14T07:20:11</time></trkpt><trkpt lat="55.8156050" lon="49.1168470"><time>2021-08-14T07:20:12</time></trkpt><trkpt lat="55.8156190" lon="49.1168460"><time>2021-08-14T07:20:13</time></trkpt><trkpt lat="55.8156350" lon="49.1168410"><time>2021-08-14T07:20:14</time></trkpt><trkpt lat="55.8156490" lon="49.1168410"><time>2021-08-14T07:20:15</time></trkpt><trkpt lat="55.8156660" lon="49.1168460"><time>2021-08-14T07:20:16</time></trkpt><trkpt lat="55.8156800" lon="49.1168490"><time>2021-08-14T07:20:17</time></trkpt><trkpt lat="55.8156950" lon="49.1168520"><time>2021-08-14T07:20:18</time></trkpt><trkpt lat="55.8157120" lon="49.1168480"><time>2021-08-14T07:20:19</time></trkpt><trkpt lat="55.8157230" lon="49.1168460"><time>2021-08-14T07:20:20</time></trkpt><trkpt lat="55.8157390" lon="49.1168470"><time>2021-08-14T07:20:21</time></trkpt><trkpt lat="55.8157550" lon="49.1168540"><time>2021-08-14T07:20:22</time></trkpt><trkpt lat="55.8157720" lon="49.1168450"><time>2021-08-14T07:20:23</time></trkpt><trkpt lat="55.8157890" lon="49.1168510"><time>2021-08-14T07:20:24</time></trkpt><trkpt lat="55.8158050" lon="49.1168530"><time>2021-08-14T07:20:25</time></trkpt><trkpt lat="55.8158170" lon="49.1168480"><time>2021-08-14T07:20:26</time></trkpt><trkpt lat="55.8158330" lon="49.1168550"><time>2021-08-14T07:20:27</time></trkpt><trkpt lat="55.8158480" lon="49.1168560"><time>2021-08-14T07:20:28</time></trkpt><trkpt lat="55.8158630" lon="49.1168550"><time>2021-08-14T07:20:29</time></trkpt><trkpt lat="55.8158770" lon="49.1168560"><time>2021-08-14T07:20:30</time></trkpt><trkpt lat="55.8158920" lon="49.1168580"><time>2021-08-14T07:20:31</time></trkpt><trkpt lat="55.8159050" lon="49.1168610"><time>2021-08-14T07:20:32</time></trkpt><trkpt lat="55.8159210" lon="49.1168590"><time>2021-08-14T07:20:33</time></trkpt><trkpt lat="55.8159380" lon="49.1168610"><time>2021-08-14T07:20:34</time></trkpt><trkpt lat="55.8159530" lon="49.1168710"><time>2021-08-14T07:20:35</time></trkpt><trkpt lat="55.8159700" lon="49.1168660"><time>2021-08-14T07:20:36</time></trkpt><trkpt lat="55.8159850" lon="49.1168660"><time>2021-08-14T07:20:37</time></trkpt><trkpt lat="55.8159980" lon="49.1168690"><time>2021-08-14T07:20:38</time></trkpt><trkpt lat="55.8160140" lon="49.1168710"><time>2021-08-14T07:20:39</time></trkpt><trkpt lat="55.8160300" lon="49.1168630"><time>2021-08-14T07:20:40</time></trkpt><trkpt lat="55.8160450" lon="49.1168530"><time>2021-08-14T07:20:41</time></trkpt><trkpt lat="55.8160600" lon="49.1168450"><time>2021-08-14T07:20:42</time></trkpt><trkpt lat="55.8160740" lon="49.1168300"><time>2021-08-14T07:20:43</time></trkpt><trkpt lat="55.8160850" lon="49.1168050"><time>2021-08-14T07:20:44</time></trkpt><trkpt lat="55.8160980" lon="49.1167900"><time>2021-08-14T07:20:45</time></trkpt><trkpt lat="55.8161090" lon="49.1167690"><time>2021-08-14T07:20:46</time></trkpt><trkpt lat="55.8161240" lon="49.1167540"><time>2021-08-14T07:20:47</time></trkpt><trkpt lat="55.8161380" lon="49.1167400"><time>2021-08-14T07:20:48</time></trkpt><trkpt lat="55.8161490" lon="49.1167220"><time>2021-08-14T07:20:49</time></trkpt><trkpt lat="55.8161610" lon="49.1167140"><time>2021-08-14T07:20:50</time></trkpt><trkpt lat="55.8161730" lon="49.1166960"><time>2021-08-14T07:20:51</time></trkpt><trkpt lat="55.8161860" lon="49.1166900"><time>2021-08-14T07:20:52</time></trkpt><trkpt lat="55.8161980" lon="49.1166720"><time>2021-08-14T07:20:53</time></trkpt><trkpt lat="55.8162110" lon="49.1166590"><time>2021-08-14T07:20:54</time></trkpt><trkpt lat="55.8162200" lon="49.1166410"><time>2021-08-14T07:20:55</time></trkpt><trkpt lat="55.8162340" lon="49.1166260"><time>2021-08-14T07:20:56</time></trkpt><trkpt lat="55.8162460" lon="49.1166130"><time>2021-08-14T07:20:57</time></trkpt><trkpt lat="55.8162570" lon="49.1165940"><time>2021-08-14T07:20:58</time></trkpt><trkpt lat="55.8162680" lon="49.1165790"><time>2021-08-14T07:20:59</time></trkpt><trkpt lat="55.8162810" lon="49.1165630"><time>2021-08-14T07:21:00</time></trkpt><trkpt lat="55.8162910" lon="49.1165450"><time>2021-08-14T07:21:01</time></trkpt><trkpt lat="55.8163000" lon="49.1165280"><time>2021-08-14T07:21:02</time></trkpt><trkpt lat="55.8163100" lon="49.1165060"><time>2021-08-14T07:21:03</time></trkpt><trkpt lat="55.8163180" lon="49.1164840"><time>2021-08-14T07:21:04</time></trkpt><trkpt lat="55.8163260" lon="49.1164630"><time>2021-08-14T07:21:05</time></trkpt><trkpt lat="55.8163370" lon="49.1164450"><time>2021-08-14T07:21:06</time></trkpt><trkpt lat="55.8163450" lon="49.1164240"><time>2021-08-14T07:21:07</time></trkpt><trkpt lat="55.8163550" lon="49.1164040"><time>2021-08-14T07:21:08</time></trkpt><trkpt lat="55.8163610" lon="49.1163810"><time>2021-08-14T07:21:09</time></trkpt><trkpt lat="55.8163640" lon="49.1163570"><time>2021-08-14T07:21:10</time></trkpt><trkpt lat="55.8163700" lon="49.1163340"><time>2021-08-14T07:21:11</time></trkpt><trkpt lat="55.8163740" lon="49.1163080"><time>2021-08-14T07:21:12</time></trkpt><trkpt lat="55.8163760" lon="49.1162790"><time>2021-08-14T07:21:13</time></trkpt><trkpt lat="55.8163790" lon="49.1162520"><time>2021-08-14T07:21:14</time></trkpt><trkpt lat="55.8163820" lon="49.1162260"><time>2021-08-14T07:21:15</time></trkpt><trkpt lat="55.8163830" lon="49.1161980"><time>2021-08-14T07:21:16</time></trkpt><trkpt lat="55.8163840" lon="49.1161680"><time>2021-08-14T07:21:17</time></trkpt><trkpt lat="55.8163860" lon="49.1161410"><time>2021-08-14T07:21:18</time></trkpt><trkpt lat="55.8163860" lon="49.1161110"><time>2021-08-14T07:21:19</time></trkpt><trkpt lat="55.8163880" lon="49.1160820"><time>2021-08-14T07:21:20</time></trkpt><trkpt lat="55.8163940" lon="49.1160550"><time>2021-08-14T07:21:21</time></trkpt><trkpt lat="55.8163990" lon="49.1160280"><time>2021-08-14T07:21:22</time></trkpt><trkpt lat="55.8164000" lon="49.1160020"><time>2021-08-14T07:21:23</time></trkpt><trkpt lat="55.8164020" lon="49.1159770"><time>2021-08-14T07:21:24</time></trkpt><trkpt lat="55.8164060" lon="49.1159510"><time>2021-08-14T07:21:25</time></trkpt><trkpt lat="55.8164140" lon="49.1159270"><time>2021-08-14T07:21:26</time></trkpt><trkpt lat="55.8164240" lon="49.1159070"><time>2021-08-14T07:21:27</time></trkpt><trkpt lat="55.8164400" lon="49.1158970"><time>2021-08-14T07:21:28</time></trkpt><trkpt lat="55.8164570" lon="49.1158930"><time>2021-08-14T07:21:29</time></trkpt><trkpt lat="55.8164700" lon="49.1158860"><time>2021-08-14T07:21:30</time></trkpt><trkpt lat="55.8164850" lon="49.1158740"><time>2021-08-14T07:21:31</time></trkpt><trkpt lat="55.8164980" lon="49.1158580"><time>2021-08-14T07:21:33</time></trkpt><trkpt lat="55.8165040" lon="49.1158290"><time>2021-08-14T07:21:34</time></trkpt><trkpt lat="55.8165050" lon="49.1157960"><time>2021-08-14T07:21:35</time></trkpt><trkpt lat="55.8165060" lon="49.1157700"><time>2021-08-14T07:21:36</time></trkpt><trkpt lat="55.8165050" lon="49.1157420"><time>2021-08-14T07:21:37</time></trkpt><trkpt lat="55.8165060" lon="49.1157150"><time>2021-08-14T07:21:38</time></trkpt><trkpt lat="55.8165100" lon="49.1156880"><time>2021-08-14T07:21:39</time></trkpt><trkpt lat="55.8165100" lon="49.1156630"><time>2021-08-14T07:21:40</time></trkpt><trkpt lat="55.8165170" lon="49.1156350"><time>2021-08-14T07:21:41</time></trkpt><trkpt lat="55.8165230" lon="49.1156090"><time>2021-08-14T07:21:42</time></trkpt><trkpt lat="55.8165320" lon="49.1155830"><time>2021-08-14T07:21:43</time></trkpt><trkpt lat="55.8165350" lon="49.1155510"><time>2021-08-14T07:21:44</time></trkpt><trkpt lat="55.8165390" lon="49.1155210"><time>2021-08-14T07:21:45</time></trkpt><trkpt lat="55.8165440" lon="49.1154940"><time>2021-08-14T07:21:46</time></trkpt><trkpt lat="55.8165480" lon="49.1154690"><time>2021-08-14T07:21:47</time></trkpt><trkpt lat="55.8165460" lon="49.1154390"><time>2021-08-14T07:21:48</time></trkpt><trkpt lat="55.8165460" lon="49.1154080"><time>2021-08-14T07:21:49</time></trkpt><trkpt lat="55.8165550" lon="49.1153800"><time>2021-08-14T07:21:50</time></trkpt><trkpt lat="55.8165520" lon="49.1153520"><time>2021-08-14T07:21:51</time></trkpt><trkpt lat="55.8165510" lon="49.1153230"><time>2021-08-14T07:21:52</time></trkpt><trkpt lat="55.8165570" lon="49.1152940"><time>2021-08-14T07:21:53</time></trkpt><trkpt lat="55.8165600" lon="49.1152630"><time>2021-08-14T07:21:54</time></trkpt><trkpt lat="55.8165620" lon="49.1152320"><time>2021-08-14T07:21:55</time></trkpt><trkpt lat="55.8165650" lon="49.1152020"><time>2021-08-14T07:21:56</time></trkpt><trkpt lat="55.8165600" lon="49.1151750"><time>2021-08-14T07:21:57</time></trkpt><trkpt lat="55.8165630" lon="49.1151440"><time>2021-08-14T07:21:58</time></trkpt><trkpt lat="55.8165630" lon="49.1151150"><time>2021-08-14T07:21:59</time></trkpt><trkpt lat="55.8165680" lon="49.1150860"><time>2021-08-14T07:22:00</time></trkpt><trkpt lat="55.8165710" lon="49.1150540"><time>2021-08-14T07:22:01</time></trkpt><trkpt lat="55.8165730" lon="49.1150250"><time>2021-08-14T07:22:02</time></trkpt><trkpt lat="55.8165760" lon="49.1149960"><time>2021-08-14T07:22:03</time></trkpt><trkpt lat="55.8165810" lon="49.1149700"><time>2021-08-14T07:22:04</time></trkpt><trkpt lat="55.8165810" lon="49.1149210"><time>2021-08-14T07:22:05</time></trkpt><trkpt lat="55.8165810" lon="49.1149040"><time>2021-08-14T07:22:06</time></trkpt><trkpt lat="55.8165780" lon="49.1148750"><time>2021-08-14T07:22:07</time></trkpt><trkpt lat="55.8165710" lon="49.1148440"><time>2021-08-14T07:22:08</time></trkpt><trkpt lat="55.8165760" lon="49.1148160"><time>2021-08-14T07:22:09</time></trkpt><trkpt lat="55.8165780" lon="49.1147840"><time>2021-08-14T07:22:10</time></trkpt><trkpt lat="55.8165840" lon="49.1147370"><time>2021-08-14T07:22:11</time></trkpt><trkpt lat="55.8165850" lon="49.1147200"><time>2021-08-14T07:22:12</time></trkpt><trkpt lat="55.8165850" lon="49.1146900"><time>2021-08-14T07:22:13</time></trkpt><trkpt lat="55.8165810" lon="49.1146610"><time>2021-08-14T07:22:14</time></trkpt><trkpt lat="55.8165800" lon="49.1146330"><time>2021-08-14T07:22:15</time></trkpt><trkpt lat="55.8165820" lon="49.1146030"><time>2021-08-14T07:22:16</time></trkpt><trkpt lat="55.8165830" lon="49.1145760"><time>2021-08-14T07:22:17</time></trkpt><trkpt lat="55.8165850" lon="49.1145470"><time>2021-08-14T07:22:18</time></trkpt><trkpt lat="55.8165830" lon="49.1145120"><time>2021-08-14T07:22:19</time></trkpt><trkpt lat="55.8165820" lon="49.1144830"><time>2021-08-14T07:22:20</time></trkpt><trkpt lat="55.8165800" lon="49.1144510"><time>2021-08-14T07:22:21</time></trkpt><trkpt lat="55.8165750" lon="49.1143860"><time>2021-08-14T07:22:22</time></trkpt><trkpt lat="55.8165700" lon="49.1143510"><time>2021-08-14T07:22:23</time></trkpt><trkpt lat="55.8165700" lon="49.1143260"><time>2021-08-14T07:22:24</time></trkpt><trkpt lat="55.8165600" lon="49.1143010"><time>2021-08-14T07:22:25</time></trkpt><trkpt lat="55.8165640" lon="49.1142670"><time>2021-08-14T07:22:26</time></trkpt><trkpt lat="55.8165570" lon="49.1142400"><time>2021-08-14T07:22:27</time></trkpt><trkpt lat="55.8165600" lon="49.1142110"><time>2021-08-14T07:22:28</time></trkpt><trkpt lat="55.8165640" lon="49.1141780"><time>2021-08-14T07:22:29</time></trkpt><trkpt lat="55.8165610" lon="49.1141520"><time>2021-08-14T07:22:30</time></trkpt><trkpt lat="55.8165610" lon="49.1141270"><time>2021-08-14T07:22:31</time></trkpt><trkpt lat="55.8165650" lon="49.1140940"><time>2021-08-14T07:22:32</time></trkpt><trkpt lat="55.8165660" lon="49.1140650"><time>2021-08-14T07:22:33</time></trkpt><trkpt lat="55.8165670" lon="49.1140400"><time>2021-08-14T07:22:34</time></trkpt><trkpt lat="55.8165650" lon="49.1140120"><time>2021-08-14T07:22:35</time></trkpt><trkpt lat="55.8165620" lon="49.1139820"><time>2021-08-14T07:22:36</time></trkpt><trkpt lat="55.8165580" lon="49.1139500"><time>2021-08-14T07:22:37</time></trkpt><trkpt lat="55.8165590" lon="49.1139150"><time>2021-08-14T07:22:38</time></trkpt><trkpt lat="55.8165620" lon="49.1138860"><time>2021-08-14T07:22:39</time></trkpt><trkpt lat="55.8165660" lon="49.1138590"><time>2021-08-14T07:22:40</time></trkpt><trkpt lat="55.8165660" lon="49.1138300"><time>2021-08-14T07:22:41</time></trkpt><trkpt lat="55.8165680" lon="49.1137960"><time>2021-08-14T07:22:42</time></trkpt><trkpt lat="55.8165630" lon="49.1137700"><time>2021-08-14T07:22:43</time></trkpt><trkpt lat="55.8165620" lon="49.1137400"><time>2021-08-14T07:22:44</time></trkpt><trkpt lat="55.8165630" lon="49.1137110"><time>2021-08-14T07:22:45</time></trkpt><trkpt lat="55.8165590" lon="49.1136820"><time>2021-08-14T07:22:46</time></trkpt><trkpt lat="55.8165630" lon="49.1136600"><time>2021-08-14T07:22:47</time></trkpt><trkpt lat="55.8165700" lon="49.1136080"><time>2021-08-14T07:22:48</time></trkpt><trkpt lat="55.8165730" lon="49.1135930"><time>2021-08-14T07:22:49</time></trkpt><trkpt lat="55.8165670" lon="49.1135560"><time>2021-08-14T07:22:50</time></trkpt><trkpt lat="55.8165650" lon="49.1135300"><time>2021-08-14T07:22:51</time></trkpt><trkpt lat="55.8165650" lon="49.1134810"><time>2021-08-14T07:22:52</time></trkpt><trkpt lat="55.8165640" lon="49.1134660"><time>2021-08-14T07:22:53</time></trkpt><trkpt lat="55.8165640" lon="49.1134360"><time>2021-08-14T07:22:54</time></trkpt><trkpt lat="55.8165630" lon="49.1134100"><time>2021-08-14T07:22:55</time></trkpt><trkpt lat="55.8165590" lon="49.1133870"><time>2021-08-14T07:22:56</time></trkpt><trkpt lat="55.8165590" lon="49.1133580"><time>2021-08-14T07:22:57</time></trkpt><trkpt lat="55.8165620" lon="49.1133090"><time>2021-08-14T07:22:58</time></trkpt><trkpt lat="55.8165620" lon="49.1132920"><time>2021-08-14T07:22:59</time></trkpt><trkpt lat="55.8165650" lon="49.1132730"><time>2021-08-14T07:23:00</time></trkpt><trkpt lat="55.8165680" lon="49.1132420"><time>2021-08-14T07:23:01</time></trkpt><trkpt lat="55.8165710" lon="49.1131940"><time>2021-08-14T07:23:02</time></trkpt><trkpt lat="55.8165720" lon="49.1131740"><time>2021-08-14T07:23:03</time></trkpt><trkpt lat="55.8165750" lon="49.1131510"><time>2021-08-14T07:23:04</time></trkpt><trkpt lat="55.8165730" lon="49.1131210"><time>2021-08-14T07:23:05</time></trkpt><trkpt lat="55.8165660" lon="49.1130920"><time>2021-08-14T07:23:06</time></trkpt><trkpt lat="55.8165660" lon="49.1130610"><time>2021-08-14T07:23:07</time></trkpt><trkpt lat="55.8165660" lon="49.1130330"><time>2021-08-14T07:23:08</time></trkpt><trkpt lat="55.8165700" lon="49.1129990"><time>2021-08-14T07:23:09</time></trkpt><trkpt lat="55.8165690" lon="49.1129660"><time>2021-08-14T07:23:10</time></trkpt><trkpt lat="55.8165670" lon="49.1129400"><time>2021-08-14T07:23:11</time></trkpt><trkpt lat="55.8165640" lon="49.1129080"><time>2021-08-14T07:23:12</time></trkpt><trkpt lat="55.8165670" lon="49.1128800"><time>2021-08-14T07:23:13</time></trkpt><trkpt lat="55.8165680" lon="49.1128500"><time>2021-08-14T07:23:14</time></trkpt><trkpt lat="55.8165680" lon="49.1128160"><time>2021-08-14T07:23:15</time></trkpt><trkpt lat="55.8165670" lon="49.1127880"><time>2021-08-14T07:23:16</time></trkpt><trkpt lat="55.8165660" lon="49.1127600"><time>2021-08-14T07:23:17</time></trkpt><trkpt lat="55.8165610" lon="49.1127280"><time>2021-08-14T07:23:18</time></trkpt><trkpt lat="55.8165600" lon="49.1126970"><time>2021-08-14T07:23:19</time></trkpt><trkpt lat="55.8165680" lon="49.1126660"><time>2021-08-14T07:23:20</time></trkpt><trkpt lat="55.8165660" lon="49.1126360"><time>2021-08-14T07:23:21</time></trkpt><trkpt lat="55.8165640" lon="49.1126060"><time>2021-08-14T07:23:22</time></trkpt><trkpt lat="55.8165630" lon="49.1125780"><time>2021-08-14T07:23:23</time></trkpt><trkpt lat="55.8165620" lon="49.1125460"><time>2021-08-14T07:23:24</time></trkpt><trkpt lat="55.8165670" lon="49.1125180"><time>2021-08-14T07:23:25</time></trkpt><trkpt lat="55.8165630" lon="49.1124880"><time>2021-08-14T07:23:26</time></trkpt><trkpt lat="55.8165570" lon="49.1124590"><time>2021-08-14T07:23:27</time></trkpt><trkpt lat="55.8165650" lon="49.1124090"><time>2021-08-14T07:23:28</time></trkpt><trkpt lat="55.8165640" lon="49.1123930"><time>2021-08-14T07:23:29</time></trkpt><trkpt lat="55.8165640" lon="49.1123620"><time>2021-08-14T07:23:30</time></trkpt><trkpt lat="55.8165620" lon="49.1123320"><time>2021-08-14T07:23:31</time></trkpt><trkpt lat="55.8165590" lon="49.1123020"><time>2021-08-14T07:23:32</time></trkpt><trkpt lat="55.8165580" lon="49.1122760"><time>2021-08-14T07:23:33</time></trkpt><trkpt lat="55.8165600" lon="49.1122260"><time>2021-08-14T07:23:34</time></trkpt><trkpt lat="55.8165600" lon="49.1122080"><time>2021-08-14T07:23:35</time></trkpt><trkpt lat="55.8165640" lon="49.1121780"><time>2021-08-14T07:23:36</time></trkpt><trkpt lat="55.8165630" lon="49.1121520"><time>2021-08-14T07:23:37</time></trkpt><trkpt lat="55.8165620" lon="49.1121260"><time>2021-08-14T07:23:39</time></trkpt><trkpt lat="55.8165570" lon="49.1120940"><time>2021-08-14T07:23:40</time></trkpt><trkpt lat="55.8165590" lon="49.1120630"><time>2021-08-14T07:23:41</time></trkpt><trkpt lat="55.8165590" lon="49.1120330"><time>2021-08-14T07:23:42</time></trkpt><trkpt lat="55.8165550" lon="49.1120020"><time>2021-08-14T07:23:43</time></trkpt><trkpt lat="55.8165530" lon="49.1119770"><time>2021-08-14T07:23:44</time></trkpt><trkpt lat="55.8165480" lon="49.1119280"><time>2021-08-14T07:23:45</time></trkpt><trkpt lat="55.8165440" lon="49.1119130"><time>2021-08-14T07:23:46</time></trkpt><trkpt lat="55.8165450" lon="49.1118820"><time>2021-08-14T07:23:47</time></trkpt><trkpt lat="55.8165440" lon="49.1118500"><time>2021-08-14T07:23:48</time></trkpt><trkpt lat="55.8165420" lon="49.1118210"><time>2021-08-14T07:23:49</time></trkpt><trkpt lat="55.8165430" lon="49.1117930"><time>2021-08-14T07:23:50</time></trkpt><trkpt lat="55.8165420" lon="49.1117400"><time>2021-08-14T07:23:51</time></trkpt><trkpt lat="55.8165440" lon="49.1117220"><time>2021-08-14T07:23:52</time></trkpt><trkpt lat="55.8165360" lon="49.1116930"><time>2021-08-14T07:23:53</time></trkpt><trkpt lat="55.8165410" lon="49.1116610"><time>2021-08-14T07:23:54</time></trkpt><trkpt lat="55.8165380" lon="49.1116330"><time>2021-08-14T07:23:55</time></trkpt><trkpt lat="55.8165370" lon="49.1115990"><time>2021-08-14T07:23:56</time></trkpt><trkpt lat="55.8165360" lon="49.1115690"><time>2021-08-14T07:23:57</time></trkpt><trkpt lat="55.8165350" lon="49.1115400"><time>2021-08-14T07:23:58</time></trkpt><trkpt lat="55.8165320" lon="49.1115130"><time>2021-08-14T07:23:59</time></trkpt><trkpt lat="55.8165210" lon="49.1114910"><time>2021-08-14T07:24:00</time></trkpt><trkpt lat="55.8165170" lon="49.1114680"><time>2021-08-14T07:24:01</time></trkpt><trkpt lat="55.8165110" lon="49.1114350"><time>2021-08-14T07:24:02</time></trkpt><trkpt lat="55.8165050" lon="49.1113880"><time>2021-08-14T07:24:03</time></trkpt><trkpt lat="55.8165020" lon="49.1113720"><time>2021-08-14T07:24:04</time></trkpt><trkpt lat="55.8164940" lon="49.1113500"><time>2021-08-14T07:24:05</time></trkpt><trkpt lat="55.8164860" lon="49.1113270"><time>2021-08-14T07:24:06</time></trkpt><trkpt lat="55.8164910" lon="49.1112740"><time>2021-08-14T07:24:07</time></trkpt><trkpt lat="55.8164900" lon="49.1112590"><time>2021-08-14T07:24:08</time></trkpt><trkpt lat="55.8164850" lon="49.1112310"><time>2021-08-14T07:24:09</time></trkpt><trkpt lat="55.8164790" lon="49.1112030"><time>2021-08-14T07:24:10</time></trkpt><trkpt lat="55.8164680" lon="49.1111560"><time>2021-08-14T07:24:11</time></trkpt><trkpt lat="55.8164680" lon="49.1111390"><time>2021-08-14T07:24:12</time></trkpt><trkpt lat="55.8164690" lon="49.1111040"><time>2021-08-14T07:24:13</time></trkpt><trkpt lat="55.8164660" lon="49.1110770"><time>2021-08-14T07:24:14</time></trkpt><trkpt lat="55.8164620" lon="49.1110460"><time>2021-08-14T07:24:15</time></trkpt><trkpt lat="55.8164610" lon="49.1110150"><time>2021-08-14T07:24:16</time></trkpt><trkpt lat="55.8164540" lon="49.1109680"><time>2021-08-14T07:24:17</time></trkpt><trkpt lat="55.8164500" lon="49.1109540"><time>2021-08-14T07:24:18</time></trkpt><trkpt lat="55.8164420" lon="49.1109260"><time>2021-08-14T07:24:19</time></trkpt><trkpt lat="55.8164330" lon="49.1108970"><time>2021-08-14T07:24:20</time></trkpt><trkpt lat="55.8164260" lon="49.1108480"><time>2021-08-14T07:24:21</time></trkpt><trkpt lat="55.8164260" lon="49.1108300"><time>2021-08-14T07:24:22</time></trkpt><trkpt lat="55.8164210" lon="49.1108000"><time>2021-08-14T07:24:23</time></trkpt><trkpt lat="55.8164160" lon="49.1107740"><time>2021-08-14T07:24:24</time></trkpt><trkpt lat="55.8164110" lon="49.1107470"><time>2021-08-14T07:24:25</time></trkpt><trkpt lat="55.8164080" lon="49.1107130"><time>2021-08-14T07:24:26</time></trkpt><trkpt lat="55.8164080" lon="49.1106770"><time>2021-08-14T07:24:27</time></trkpt><trkpt lat="55.8163990" lon="49.1106500"><time>2021-08-14T07:24:28</time></trkpt><trkpt lat="55.8163810" lon="49.1106130"><time>2021-08-14T07:24:29</time></trkpt><trkpt lat="55.8163750" lon="49.1106010"><time>2021-08-14T07:24:30</time></trkpt><trkpt lat="55.8163630" lon="49.1105540"><time>2021-08-14T07:24:31</time></trkpt><trkpt lat="55.8163590" lon="49.1105370"><time>2021-08-14T07:24:32</time></trkpt><trkpt lat="55.8163510" lon="49.1105150"><time>2021-08-14T07:24:33</time></trkpt><trkpt lat="55.8163410" lon="49.1104910"><time>2021-08-14T07:24:34</time></trkpt><trkpt lat="55.8163260" lon="49.1104640"><time>2021-08-14T07:24:35</time></trkpt><trkpt lat="55.8163170" lon="49.1104420"><time>2021-08-14T07:24:36</time></trkpt><trkpt lat="55.8163140" lon="49.1104070"><time>2021-08-14T07:24:37</time></trkpt><trkpt lat="55.8163040" lon="49.1103870"><time>2021-08-14T07:24:38</time></trkpt><trkpt lat="55.8162940" lon="49.1103620"><time>2021-08-14T07:24:39</time></trkpt><trkpt lat="55.8162850" lon="49.1103340"><time>2021-08-14T07:24:40</time></trkpt><trkpt lat="55.8162770" lon="49.1103080"><time>2021-08-14T07:24:41</time></trkpt><trkpt lat="55.8162690" lon="49.1102810"><time>2021-08-14T07:24:42</time></trkpt><trkpt lat="55.8162620" lon="49.1102600"><time>2021-08-14T07:24:43</time></trkpt><trkpt lat="55.8162460" lon="49.1102380"><time>2021-08-14T07:24:44</time></trkpt><trkpt lat="55.8162280" lon="49.1101840"><time>2021-08-14T07:24:45</time></trkpt><trkpt lat="55.8162200" lon="49.1101570"><time>2021-08-14T07:24:46</time></trkpt><trkpt lat="55.8162130" lon="49.1101340"><time>2021-08-14T07:24:47</time></trkpt><trkpt lat="55.8162050" lon="49.1101090"><time>2021-08-14T07:24:48</time></trkpt><trkpt lat="55.8161930" lon="49.1100870"><time>2021-08-14T07:24:49</time></trkpt><trkpt lat="55.8161830" lon="49.1100610"><time>2021-08-14T07:24:50</time></trkpt><trkpt lat="55.8161750" lon="49.1100330"><time>2021-08-14T07:24:51</time></trkpt><trkpt lat="55.8161720" lon="49.1100100"><time>2021-08-14T07:24:52</time></trkpt><trkpt lat="55.8161580" lon="49.1099910"><time>2021-08-14T07:24:53</time></trkpt><trkpt lat="55.8161360" lon="49.1099500"><time>2021-08-14T07:24:54</time></trkpt><trkpt lat="55.8161310" lon="49.1099380"><time>2021-08-14T07:24:55</time></trkpt><trkpt lat="55.8161190" lon="49.1099120"><time>2021-08-14T07:24:56</time></trkpt><trkpt lat="55.8161100" lon="49.1098890"><time>2021-08-14T07:24:57</time></trkpt><trkpt lat="55.8160960" lon="49.1098700"><time>2021-08-14T07:24:58</time></trkpt><trkpt lat="55.8160870" lon="49.1098490"><time>2021-08-14T07:24:59</time></trkpt><trkpt lat="55.8160730" lon="49.1098240"><time>2021-08-14T07:25:00</time></trkpt><trkpt lat="55.8160660" lon="49.1097960"><time>2021-08-14T07:25:01</time></trkpt><trkpt lat="55.8160590" lon="49.1097690"><time>2021-08-14T07:25:02</time></trkpt><trkpt lat="55.8160460" lon="49.1097530"><time>2021-08-14T07:25:03</time></trkpt><trkpt lat="55.8160330" lon="49.1097330"><time>2021-08-14T07:25:04</time></trkpt><trkpt lat="55.8160220" lon="49.1097090"><time>2021-08-14T07:25:05</time></trkpt><trkpt lat="55.8160140" lon="49.1096810"><time>2021-08-14T07:25:06</time></trkpt><trkpt lat="55.8160060" lon="49.1096530"><time>2021-08-14T07:25:07</time></trkpt><trkpt lat="55.8159950" lon="49.1096360"><time>2021-08-14T07:25:08</time></trkpt><trkpt lat="55.8159770" lon="49.1096160"><time>2021-08-14T07:25:09</time></trkpt><trkpt lat="55.8159610" lon="49.1095710"><time>2021-08-14T07:25:10</time></trkpt><trkpt lat="55.8159550" lon="49.1095590"><time>2021-08-14T07:25:11</time></trkpt><trkpt lat="55.8159470" lon="49.1095300"><time>2021-08-14T07:25:12</time></trkpt><trkpt lat="55.8159380" lon="49.1095100"><time>2021-08-14T07:25:13</time></trkpt><trkpt lat="55.8159170" lon="49.1094830"><time>2021-08-14T07:25:14</time></trkpt><trkpt lat="55.8159090" lon="49.1094700"><time>2021-08-14T07:25:15</time></trkpt><trkpt lat="55.8158940" lon="49.1094260"><time>2021-08-14T07:25:16</time></trkpt><trkpt lat="55.8158890" lon="49.1094140"><time>2021-08-14T07:25:17</time></trkpt><trkpt lat="55.8158830" lon="49.1093940"><time>2021-08-14T07:25:18</time></trkpt><trkpt lat="55.8158730" lon="49.1093750"><time>2021-08-14T07:25:19</time></trkpt><trkpt lat="55.8158570" lon="49.1093340"><time>2021-08-14T07:25:20</time></trkpt><trkpt lat="55.8158510" lon="49.1093180"><time>2021-08-14T07:25:21</time></trkpt><trkpt lat="55.8158400" lon="49.1092920"><time>2021-08-14T07:25:22</time></trkpt><trkpt lat="55.8158300" lon="49.1092710"><time>2021-08-14T07:25:23</time></trkpt><trkpt lat="55.8158210" lon="49.1092450"><time>2021-08-14T07:25:24</time></trkpt><trkpt lat="55.8158140" lon="49.1092150"><time>2021-08-14T07:25:25</time></trkpt><trkpt lat="55.8157960" lon="49.1091810"><time>2021-08-14T07:25:26</time></trkpt><trkpt lat="55.8157870" lon="49.1091690"><time>2021-08-14T07:25:27</time></trkpt><trkpt lat="55.8157720" lon="49.1091450"><time>2021-08-14T07:25:28</time></trkpt><trkpt lat="55.8157640" lon="49.1091200"><time>2021-08-14T07:25:29</time></trkpt><trkpt lat="55.8157520" lon="49.1091010"><time>2021-08-14T07:25:30</time></trkpt><trkpt lat="55.8157390" lon="49.1090790"><time>2021-08-14T07:25:31</time></trkpt><trkpt lat="55.8157270" lon="49.1090580"><time>2021-08-14T07:25:32</time></trkpt><trkpt lat="55.8157210" lon="49.1090330"><time>2021-08-14T07:25:33</time></trkpt><trkpt lat="55.8157060" lon="49.1090110"><time>2021-08-14T07:25:34</time></trkpt><trkpt lat="55.8156970" lon="49.1089950"><time>2021-08-14T07:25:35</time></trkpt><trkpt lat="55.8156890" lon="49.1089780"><time>2021-08-14T07:25:36</time></trkpt><trkpt lat="55.8156790" lon="49.1089560"><time>2021-08-14T07:25:37</time></trkpt><trkpt lat="55.8156690" lon="49.1089320"><time>2021-08-14T07:25:38</time></trkpt><trkpt lat="55.8156590" lon="49.1089090"><time>2021-08-14T07:25:39</time></trkpt><trkpt lat="55.8156500" lon="49.1088930"><time>2021-08-14T07:25:40</time></trkpt><trkpt lat="55.8156340" lon="49.1088670"><time>2021-08-14T07:25:41</time></trkpt><trkpt lat="55.8156270" lon="49.1088590"><time>2021-08-14T07:25:42</time></trkpt><trkpt lat="55.8156140" lon="49.1088370"><time>2021-08-14T07:25:43</time></trkpt><trkpt lat="55.8156050" lon="49.1088230"><time>2021-08-14T07:25:45</time></trkpt><trkpt lat="55.8155920" lon="49.1087940"><time>2021-08-14T07:25:46</time></trkpt><trkpt lat="55.8155830" lon="49.1087870"><time>2021-08-14T07:25:47</time></trkpt><trkpt lat="55.8155640" lon="49.1087510"><time>2021-08-14T07:25:48</time></trkpt><trkpt lat="55.8155570" lon="49.1087360"><time>2021-08-14T07:25:49</time></trkpt><trkpt lat="55.8155460" lon="49.1087250"><time>2021-08-14T07:25:50</time></trkpt><trkpt lat="55.8155280" lon="49.1087000"><time>2021-08-14T07:25:51</time></trkpt><trkpt lat="55.8155080" lon="49.1086560"><time>2021-08-14T07:25:52</time></trkpt><trkpt lat="55.8155020" lon="49.1086420"><time>2021-08-14T07:25:53</time></trkpt><trkpt lat="55.8154910" lon="49.1086200"><time>2021-08-14T07:25:54</time></trkpt><trkpt lat="55.8154810" lon="49.1085980"><time>2021-08-14T07:25:55</time></trkpt><trkpt lat="55.8154690" lon="49.1085760"><time>2021-08-14T07:25:56</time></trkpt><trkpt lat="55.8154590" lon="49.1085520"><time>2021-08-14T07:25:57</time></trkpt><trkpt lat="55.8154430" lon="49.1085090"><time>2021-08-14T07:25:58</time></trkpt><trkpt lat="55.8154360" lon="49.1085010"><time>2021-08-14T07:25:59</time></trkpt><trkpt lat="55.8154210" lon="49.1084820"><time>2021-08-14T07:26:00</time></trkpt><trkpt lat="55.8154130" lon="49.1084620"><time>2021-08-14T07:26:01</time></trkpt><trkpt lat="55.8153980" lon="49.1084210"><time>2021-08-14T07:26:02</time></trkpt><trkpt lat="55.8153920" lon="49.1084010"><time>2021-08-14T07:26:03</time></trkpt><trkpt lat="55.8153880" lon="49.1083780"><time>2021-08-14T07:26:04</time></trkpt><trkpt lat="55.8153800" lon="49.1083570"><time>2021-08-14T07:26:05</time></trkpt><trkpt lat="55.8153740" lon="49.1083380"><time>2021-08-14T07:26:06</time></trkpt><trkpt lat="55.8153700" lon="49.1083110"><time>2021-08-14T07:26:07</time></trkpt><trkpt lat="55.8153610" lon="49.1082940"><time>2021-08-14T07:26:08</time></trkpt><trkpt lat="55.8153550" lon="49.1082710"><time>2021-08-14T07:26:09</time></trkpt><trkpt lat="55.8153500" lon="49.1082450"><time>2021-08-14T07:26:10</time></trkpt><trkpt lat="55.8153420" lon="49.1082190"><time>2021-08-14T07:26:11</time></trkpt><trkpt lat="55.8153320" lon="49.1081960"><time>2021-08-14T07:26:12</time></trkpt><trkpt lat="55.8153240" lon="49.1081690"><time>2021-08-14T07:26:13</time></trkpt><trkpt lat="55.8153200" lon="49.1081400"><time>2021-08-14T07:26:14</time></trkpt><trkpt lat="55.8153120" lon="49.1081160"><time>2021-08-14T07:26:15</time></trkpt><trkpt lat="55.8153050" lon="49.1080960"><time>2021-08-14T07:26:16</time></trkpt><trkpt lat="55.8152970" lon="49.1080750"><time>2021-08-14T07:26:17</time></trkpt><trkpt lat="55.8152900" lon="49.1080530"><time>2021-08-14T07:26:18</time></trkpt><trkpt lat="55.8152810" lon="49.1080260"><time>2021-08-14T07:26:19</time></trkpt><trkpt lat="55.8152700" lon="49.1080030"><time>2021-08-14T07:26:20</time></trkpt><trkpt lat="55.8152660" lon="49.1079760"><time>2021-08-14T07:26:21</time></trkpt><trkpt lat="55.8152520" lon="49.1079590"><time>2021-08-14T07:26:22</time></trkpt><trkpt lat="55.8152400" lon="49.1079380"><time>2021-08-14T07:26:23</time></trkpt><trkpt lat="55.8152320" lon="49.1079090"><time>2021-08-14T07:26:24</time></trkpt><trkpt lat="55.8152240" lon="49.1078860"><time>2021-08-14T07:26:25</time></trkpt><trkpt lat="55.8152150" lon="49.1078660"><time>2021-08-14T07:26:26</time></trkpt><trkpt lat="55.8152110" lon="49.1078390"><time>2021-08-14T07:26:27</time></trkpt><trkpt lat="55.8152000" lon="49.1078190"><time>2021-08-14T07:26:28</time></trkpt><trkpt lat="55.8151890" lon="49.1078020"><time>2021-08-14T07:26:29</time></trkpt><trkpt lat="55.8151830" lon="49.1077800"><time>2021-08-14T07:26:30</time></trkpt><trkpt lat="55.8151730" lon="49.1077560"><time>2021-08-14T07:26:31</time></trkpt><trkpt lat="55.8151630" lon="49.1077330"><time>2021-08-14T07:26:32</time></trkpt><trkpt lat="55.8151510" lon="49.1077120"><time>2021-08-14T07:26:33</time></trkpt><trkpt lat="55.8151400" lon="49.1076950"><time>2021-08-14T07:26:34</time></trkpt><trkpt lat="55.8151280" lon="49.1076830"><time>2021-08-14T07:26:35</time></trkpt><trkpt lat="55.8150950" lon="49.1076460"><time>2021-08-14T07:26:36</time></trkpt><trkpt lat="55.8150790" lon="49.1076340"><time>2021-08-14T07:26:37</time></trkpt><trkpt lat="55.8150630" lon="49.1076170"><time>2021-08-14T07:26:38</time></trkpt><trkpt lat="55.8150500" lon="49.1075890"><time>2021-08-14T07:26:39</time></trkpt><trkpt lat="55.8150460" lon="49.1075750"><time>2021-08-14T07:26:40</time></trkpt><trkpt lat="55.8150420" lon="49.1075610"><time>2021-08-14T07:26:41</time></trkpt><trkpt lat="55.8150310" lon="49.1075410"><time>2021-08-14T07:26:42</time></trkpt><trkpt lat="55.8150220" lon="49.1075210"><time>2021-08-14T07:26:43</time></trkpt><trkpt lat="55.8150070" lon="49.1075040"><time>2021-08-14T07:26:44</time></trkpt><trkpt lat="55.8149950" lon="49.1074870"><time>2021-08-14T07:26:45</time></trkpt><trkpt lat="55.8149830" lon="49.1074640"><time>2021-08-14T07:26:46</time></trkpt><trkpt lat="55.8149710" lon="49.1074400"><time>2021-08-14T07:26:47</time></trkpt><trkpt lat="55.8149600" lon="49.1074170"><time>2021-08-14T07:26:48</time></trkpt><trkpt lat="55.8149500" lon="49.1073970"><time>2021-08-14T07:26:49</time></trkpt><trkpt lat="55.8149320" lon="49.1073840"><time>2021-08-14T07:26:50</time></trkpt><trkpt lat="55.8149210" lon="49.1073640"><time>2021-08-14T07:26:51</time></trkpt><trkpt lat="55.8149070" lon="49.1073460"><time>2021-08-14T07:26:52</time></trkpt><trkpt lat="55.8148960" lon="49.1073190"><time>2021-08-14T07:26:53</time></trkpt><trkpt lat="55.8148920" lon="49.1072860"><time>2021-08-14T07:26:54</time></trkpt><trkpt lat="55.8148760" lon="49.1072660"><time>2021-08-14T07:26:55</time></trkpt><trkpt lat="55.8148530" lon="49.1072380"><time>2021-08-14T07:26:56</time></trkpt><trkpt lat="55.8148430" lon="49.1072310"><time>2021-08-14T07:26:57</time></trkpt><trkpt lat="55.8148210" lon="49.1071950"><time>2021-08-14T07:26:58</time></trkpt><trkpt lat="55.8148120" lon="49.1071870"><time>2021-08-14T07:26:59</time></trkpt><trkpt lat="55.8148030" lon="49.1071600"><time>2021-08-14T07:27:00</time></trkpt><trkpt lat="55.8147820" lon="49.1071520"><time>2021-08-14T07:27:01</time></trkpt><trkpt lat="55.8147620" lon="49.1071180"><time>2021-08-14T07:27:02</time></trkpt><trkpt lat="55.8147550" lon="49.1071020"><time>2021-08-14T07:27:03</time></trkpt><trkpt lat="55.8147340" lon="49.1070700"><time>2021-08-14T07:27:04</time></trkpt><trkpt lat="55.8147260" lon="49.1070610"><time>2021-08-14T07:27:05</time></trkpt><trkpt lat="55.8147100" lon="49.1070490"><time>2021-08-14T07:27:06</time></trkpt><trkpt lat="55.8146940" lon="49.1070390"><time>2021-08-14T07:27:07</time></trkpt><trkpt lat="55.8146750" lon="49.1070200"><time>2021-08-14T07:27:08</time></trkpt><trkpt lat="55.8146640" lon="49.1070040"><time>2021-08-14T07:27:09</time></trkpt><trkpt lat="55.8146490" lon="49.1069870"><time>2021-08-14T07:27:10</time></trkpt><trkpt lat="55.8146350" lon="49.1069660"><time>2021-08-14T07:27:11</time></trkpt><trkpt lat="55.8146170" lon="49.1069550"><time>2021-08-14T07:27:12</time></trkpt><trkpt lat="55.8146040" lon="49.1069360"><time>2021-08-14T07:27:13</time></trkpt><trkpt lat="55.8145940" lon="49.1069070"><time>2021-08-14T07:27:14</time></trkpt><trkpt lat="55.8145810" lon="49.1068870"><time>2021-08-14T07:27:15</time></trkpt><trkpt lat="55.8145660" lon="49.1068760"><time>2021-08-14T07:27:16</time></trkpt><trkpt lat="55.8145560" lon="49.1068600"><time>2021-08-14T07:27:17</time></trkpt><trkpt lat="55.8145350" lon="49.1068450"><time>2021-08-14T07:27:18</time></trkpt><trkpt lat="55.8145270" lon="49.1068470"><time>2021-08-14T07:27:19</time></trkpt><trkpt lat="55.8145180" lon="49.1068490"><time>2021-08-14T07:27:20</time></trkpt><trkpt lat="55.8145020" lon="49.1068950"><time>2021-08-14T07:27:21</time></trkpt><trkpt lat="55.8145000" lon="49.1069080"><time>2021-08-14T07:27:22</time></trkpt><trkpt lat="55.8144820" lon="49.1069500"><time>2021-08-14T07:27:23</time></trkpt><trkpt lat="55.8144740" lon="49.1069640"><time>2021-08-14T07:27:24</time></trkpt><trkpt lat="55.8144480" lon="49.1069830"><time>2021-08-14T07:27:25</time></trkpt><trkpt lat="55.8144410" lon="49.1069900"><time>2021-08-14T07:27:26</time></trkpt><trkpt lat="55.8144270" lon="49.1070070"><time>2021-08-14T07:27:27</time></trkpt><trkpt lat="55.8144160" lon="49.1070340"><time>2021-08-14T07:27:28</time></trkpt><trkpt lat="55.8143960" lon="49.1070700"><time>2021-08-14T07:27:29</time></trkpt><trkpt lat="55.8143870" lon="49.1070800"><time>2021-08-14T07:27:30</time></trkpt><trkpt lat="55.8143720" lon="49.1070950"><time>2021-08-14T07:27:31</time></trkpt><trkpt lat="55.8143560" lon="49.1071100"><time>2021-08-14T07:27:32</time></trkpt><trkpt lat="55.8143380" lon="49.1071470"><time>2021-08-14T07:27:33</time></trkpt><trkpt lat="55.8143310" lon="49.1071580"><time>2021-08-14T07:27:34</time></trkpt><trkpt lat="55.8143140" lon="49.1071760"><time>2021-08-14T07:27:35</time></trkpt><trkpt lat="55.8143020" lon="49.1071920"><time>2021-08-14T07:27:36</time></trkpt><trkpt lat="55.8142890" lon="49.1072100"><time>2021-08-14T07:27:37</time></trkpt><trkpt lat="55.8142720" lon="49.1072300"><time>2021-08-14T07:27:38</time></trkpt><trkpt lat="55.8142600" lon="49.1072530"><time>2021-08-14T07:27:39</time></trkpt><trkpt lat="55.8142490" lon="49.1072730"><time>2021-08-14T07:27:40</time></trkpt><trkpt lat="55.8142330" lon="49.1072930"><time>2021-08-14T07:27:41</time></trkpt><trkpt lat="55.8142190" lon="49.1073070"><time>2021-08-14T07:27:42</time></trkpt><trkpt lat="55.8141970" lon="49.1073420"><time>2021-08-14T07:27:43</time></trkpt><trkpt lat="55.8141900" lon="49.1073510"><time>2021-08-14T07:27:44</time></trkpt><trkpt lat="55.8141750" lon="49.1073690"><time>2021-08-14T07:27:45</time></trkpt><trkpt lat="55.8141620" lon="49.1073860"><time>2021-08-14T07:27:46</time></trkpt><trkpt lat="55.8141510" lon="49.1074100"><time>2021-08-14T07:27:47</time></trkpt><trkpt lat="55.8141360" lon="49.1074270"><time>2021-08-14T07:27:48</time></trkpt><trkpt lat="55.8141270" lon="49.1074470"><time>2021-08-14T07:27:49</time></trkpt><trkpt lat="55.8141120" lon="49.1074670"><time>2021-08-14T07:27:51</time></trkpt><trkpt lat="55.8140960" lon="49.1074810"><time>2021-08-14T07:27:52</time></trkpt><trkpt lat="55.8140830" lon="49.1075000"><time>2021-08-14T07:27:53</time></trkpt><trkpt lat="55.8140710" lon="49.1075190"><time>2021-08-14T07:27:54</time></trkpt><trkpt lat="55.8140590" lon="49.1075380"><time>2021-08-14T07:27:55</time></trkpt><trkpt lat="55.8140430" lon="49.1075530"><time>2021-08-14T07:27:56</time></trkpt><trkpt lat="55.8140300" lon="49.1075750"><time>2021-08-14T07:27:57</time></trkpt><trkpt lat="55.8140160" lon="49.1075910"><time>2021-08-14T07:27:58</time></trkpt><trkpt lat="55.8140040" lon="49.1076140"><time>2021-08-14T07:27:59</time></trkpt><trkpt lat="55.8139900" lon="49.1076280"><time>2021-08-14T07:28:00</time></trkpt><trkpt lat="55.8139770" lon="49.1076460"><time>2021-08-14T07:28:01</time></trkpt><trkpt lat="55.8139550" lon="49.1076760"><time>2021-08-14T07:28:02</time></trkpt><trkpt lat="55.8139470" lon="49.1076850"><time>2021-08-14T07:28:03</time></trkpt><trkpt lat="55.8139320" lon="49.1076970"><time>2021-08-14T07:28:04</time></trkpt><trkpt lat="55.8139210" lon="49.1077150"><time>2021-08-14T07:28:05</time></trkpt><trkpt lat="55.8139150" lon="49.1077420"><time>2021-08-14T07:28:06</time></trkpt><trkpt lat="55.8139000" lon="49.1077600"><time>2021-08-14T07:28:07</time></trkpt><trkpt lat="55.8138890" lon="49.1077780"><time>2021-08-14T07:28:08</time></trkpt><trkpt lat="55.8138730" lon="49.1077920"><time>2021-08-14T07:28:09</time></trkpt><trkpt lat="55.8138490" lon="49.1078130"><time>2021-08-14T07:28:10</time></trkpt><trkpt lat="55.8138410" lon="49.1078200"><time>2021-08-14T07:28:11</time></trkpt><trkpt lat="55.8138210" lon="49.1078520"><time>2021-08-14T07:28:12</time></trkpt><trkpt lat="55.8138140" lon="49.1078640"><time>2021-08-14T07:28:13</time></trkpt><trkpt lat="55.8138010" lon="49.1078830"><time>2021-08-14T07:28:14</time></trkpt><trkpt lat="55.8137850" lon="49.1079000"><time>2021-08-14T07:28:15</time></trkpt><trkpt lat="55.8137720" lon="49.1079180"><time>2021-08-14T07:28:16</time></trkpt><trkpt lat="55.8137580" lon="49.1079360"><time>2021-08-14T07:28:17</time></trkpt><trkpt lat="55.8137370" lon="49.1079670"><time>2021-08-14T07:28:18</time></trkpt><trkpt lat="55.8137300" lon="49.1079770"><time>2021-08-14T07:28:19</time></trkpt><trkpt lat="55.8137170" lon="49.1079940"><time>2021-08-14T07:28:20</time></trkpt><trkpt lat="55.8137050" lon="49.1080120"><time>2021-08-14T07:28:21</time></trkpt><trkpt lat="55.8136930" lon="49.1080340"><time>2021-08-14T07:28:22</time></trkpt><trkpt lat="55.8136810" lon="49.1080480"><time>2021-08-14T07:28:23</time></trkpt><trkpt lat="55.8136660" lon="49.1080660"><time>2021-08-14T07:28:24</time></trkpt><trkpt lat="55.8136550" lon="49.1080880"><time>2021-08-14T07:28:25</time></trkpt><trkpt lat="55.8136400" lon="49.1081050"><time>2021-08-14T07:28:26</time></trkpt><trkpt lat="55.8136250" lon="49.1081160"><time>2021-08-14T07:28:27</time></trkpt><trkpt lat="55.8136150" lon="49.1081390"><time>2021-08-14T07:28:28</time></trkpt><trkpt lat="55.8136040" lon="49.1081600"><time>2021-08-14T07:28:29</time></trkpt><trkpt lat="55.8135900" lon="49.1081750"><time>2021-08-14T07:28:30</time></trkpt><trkpt lat="55.8135750" lon="49.1081950"><time>2021-08-14T07:28:31</time></trkpt><trkpt lat="55.8135640" lon="49.1082140"><time>2021-08-14T07:28:32</time></trkpt><trkpt lat="55.8135490" lon="49.1082320"><time>2021-08-14T07:28:33</time></trkpt><trkpt lat="55.8135350" lon="49.1082490"><time>2021-08-14T07:28:34</time></trkpt><trkpt lat="55.8135230" lon="49.1082690"><time>2021-08-14T07:28:35</time></trkpt><trkpt lat="55.8135110" lon="49.1082870"><time>2021-08-14T07:28:36</time></trkpt><trkpt lat="55.8134950" lon="49.1083020"><time>2021-08-14T07:28:37</time></trkpt><trkpt lat="55.8134830" lon="49.1083240"><time>2021-08-14T07:28:38</time></trkpt><trkpt lat="55.8134610" lon="49.1083610"><time>2021-08-14T07:28:39</time></trkpt><trkpt lat="55.8134500" lon="49.1083770"><time>2021-08-14T07:28:40</time></trkpt><trkpt lat="55.8134380" lon="49.1084000"><time>2021-08-14T07:28:41</time></trkpt><trkpt lat="55.8134230" lon="49.1084140"><time>2021-08-14T07:28:42</time></trkpt><trkpt lat="55.8134100" lon="49.1084320"><time>2021-08-14T07:28:43</time></trkpt><trkpt lat="55.8133990" lon="49.1084490"><time>2021-08-14T07:28:44</time></trkpt><trkpt lat="55.8133870" lon="49.1084700"><time>2021-08-14T07:28:45</time></trkpt><trkpt lat="55.8133830" lon="49.1084910"><time>2021-08-14T07:28:46</time></trkpt><trkpt lat="55.8133760" lon="49.1085120"><time>2021-08-14T07:28:47</time></trkpt><trkpt lat="55.8133680" lon="49.1085350"><time>2021-08-14T07:28:48</time></trkpt><trkpt lat="55.8133570" lon="49.1085520"><time>2021-08-14T07:28:49</time></trkpt><trkpt lat="55.8133490" lon="49.1085760"><time>2021-08-14T07:28:50</time></trkpt><trkpt lat="55.8133440" lon="49.1086040"><time>2021-08-14T07:28:51</time></trkpt><trkpt lat="55.8133390" lon="49.1086300"><time>2021-08-14T07:28:52</time></trkpt><trkpt lat="55.8133350" lon="49.1086550"><time>2021-08-14T07:28:53</time></trkpt><trkpt lat="55.8133270" lon="49.1086800"><time>2021-08-14T07:28:54</time></trkpt><trkpt lat="55.8133150" lon="49.1086990"><time>2021-08-14T07:28:55</time></trkpt><trkpt lat="55.8133070" lon="49.1087220"><time>2021-08-14T07:28:56</time></trkpt><trkpt lat="55.8132900" lon="49.1087300"><time>2021-08-14T07:28:57</time></trkpt><trkpt lat="55.8132750" lon="49.1087350"><time>2021-08-14T07:28:58</time></trkpt><trkpt lat="55.8132570" lon="49.1087330"><time>2021-08-14T07:28:59</time></trkpt><trkpt lat="55.8132410" lon="49.1087300"><time>2021-08-14T07:29:00</time></trkpt><trkpt lat="55.8132260" lon="49.1087280"><time>2021-08-14T07:29:01</time></trkpt><trkpt lat="55.8132120" lon="49.1087270"><time>2021-08-14T07:29:02</time></trkpt><trkpt lat="55.8131970" lon="49.1087310"><time>2021-08-14T07:29:03</time></trkpt><trkpt lat="55.8131840" lon="49.1087220"><time>2021-08-14T07:29:04</time></trkpt><trkpt lat="55.8131690" lon="49.1087160"><time>2021-08-14T07:29:05</time></trkpt><trkpt lat="55.8131540" lon="49.1086990"><time>2021-08-14T07:29:06</time></trkpt><trkpt lat="55.8131400" lon="49.1086850"><time>2021-08-14T07:29:07</time></trkpt><trkpt lat="55.8131270" lon="49.1086740"><time>2021-08-14T07:29:08</time></trkpt><trkpt lat="55.8131120" lon="49.1086670"><time>2021-08-14T07:29:09</time></trkpt><trkpt lat="55.8130970" lon="49.1086640"><time>2021-08-14T07:29:10</time></trkpt><trkpt lat="55.8130820" lon="49.1086690"><time>2021-08-14T07:29:11</time></trkpt><trkpt lat="55.8130660" lon="49.1086650"><time>2021-08-14T07:29:12</time></trkpt><trkpt lat="55.8130510" lon="49.1086550"><time>2021-08-14T07:29:13</time></trkpt><trkpt lat="55.8130350" lon="49.1086550"><time>2021-08-14T07:29:14</time></trkpt><trkpt lat="55.8130190" lon="49.1086490"><time>2021-08-14T07:29:15</time></trkpt><trkpt lat="55.8130060" lon="49.1086430"><time>2021-08-14T07:29:16</time></trkpt><trkpt lat="55.8129920" lon="49.1086370"><time>2021-08-14T07:29:17</time></trkpt><trkpt lat="55.8129750" lon="49.1086330"><time>2021-08-14T07:29:18</time></trkpt><trkpt lat="55.8129590" lon="49.1086300"><time>2021-08-14T07:29:19</time></trkpt><trkpt lat="55.8129410" lon="49.1086250"><time>2021-08-14T07:29:20</time></trkpt><trkpt lat="55.8129250" lon="49.1086240"><time>2021-08-14T07:29:21</time></trkpt><trkpt lat="55.8129090" lon="49.1086280"><time>2021-08-14T07:29:22</time></trkpt><trkpt lat="55.8128940" lon="49.1086240"><time>2021-08-14T07:29:23</time></trkpt><trkpt lat="55.8128790" lon="49.1086220"><time>2021-08-14T07:29:24</time></trkpt><trkpt lat="55.8128640" lon="49.1086140"><time>2021-08-14T07:29:25</time></trkpt><trkpt lat="55.8128470" lon="49.1086080"><time>2021-08-14T07:29:26</time></trkpt><trkpt lat="55.8128320" lon="49.1086090"><time>2021-08-14T07:29:27</time></trkpt><trkpt lat="55.8128160" lon="49.1086150"><time>2021-08-14T07:29:28</time></trkpt><trkpt lat="55.8128010" lon="49.1086110"><time>2021-08-14T07:29:29</time></trkpt><trkpt lat="55.8127880" lon="49.1086120"><time>2021-08-14T07:29:30</time></trkpt><trkpt lat="55.8127740" lon="49.1086070"><time>2021-08-14T07:29:31</time></trkpt><trkpt lat="55.8127570" lon="49.1085920"><time>2021-08-14T07:29:32</time></trkpt><trkpt lat="55.8127430" lon="49.1085770"><time>2021-08-14T07:29:33</time></trkpt><trkpt lat="55.8127290" lon="49.1085630"><time>2021-08-14T07:29:34</time></trkpt><trkpt lat="55.8127180" lon="49.1085430"><time>2021-08-14T07:29:35</time></trkpt><trkpt lat="55.8127060" lon="49.1085310"><time>2021-08-14T07:29:36</time></trkpt><trkpt lat="55.8126970" lon="49.1085240"><time>2021-08-14T07:29:37</time></trkpt><trkpt lat="55.8126930" lon="49.1085130"><time>2021-08-14T07:29:38</time></trkpt><trkpt lat="55.8126840" lon="49.1084910"><time>2021-08-14T07:29:39</time></trkpt><trkpt lat="55.8126770" lon="49.1084740"><time>2021-08-14T07:29:40</time></trkpt><trkpt lat="55.8126710" lon="49.1084570"><time>2021-08-14T07:29:41</time></trkpt><trkpt lat="55.8126610" lon="49.1084480"><time>2021-08-14T07:29:42</time></trkpt><trkpt lat="55.8126530" lon="49.1084310"><time>2021-08-14T07:29:43</time></trkpt><trkpt lat="55.8126510" lon="49.1084330"><time>2021-08-14T07:29:44</time></trkpt><trkpt lat="55.8126480" lon="49.1084340"><time>2021-08-14T07:29:45</time></trkpt><trkpt lat="55.8126450" lon="49.1084350"><time>2021-08-14T07:29:46</time></trkpt><trkpt lat="55.8126430" lon="49.1084370"><time>2021-08-14T07:29:47</time></trkpt><trkpt lat="55.8126400" lon="49.1084380"><time>2021-08-14T07:29:48</time></trkpt><trkpt lat="55.8126370" lon="49.1084390"><time>2021-08-14T07:29:49</time></trkpt><trkpt lat="55.8126350" lon="49.1084410"><time>2021-08-14T07:29:50</time></trkpt><trkpt lat="55.8126320" lon="49.1084420"><time>2021-08-14T07:29:51</time></trkpt><trkpt lat="55.8126290" lon="49.1084430"><time>2021-08-14T07:29:52</time></trkpt><trkpt lat="55.8126270" lon="49.1084450"><time>2021-08-14T07:29:53</time></trkpt><trkpt lat="55.8126240" lon="49.1084460"><time>2021-08-14T07:29:54</time></trkpt><trkpt lat="55.8126210" lon="49.1084470"><time>2021-08-14T07:29:55</time></trkpt><trkpt lat="55.8126180" lon="49.1084480"><time>2021-08-14T07:29:57</time></trkpt><trkpt lat="55.8126160" lon="49.1084500"><time>2021-08-14T07:29:58</time></trkpt><trkpt lat="55.8126130" lon="49.1084510"><time>2021-08-14T07:29:59</time></trkpt><trkpt lat="55.8126100" lon="49.1084520"><time>2021-08-14T07:30:00</time></trkpt><trkpt lat="55.8126080" lon="49.1084540"><time>2021-08-14T07:30:01</time></trkpt><trkpt lat="55.8126050" lon="49.1084550"><time>2021-08-14T07:30:02</time></trkpt><trkpt lat="55.8126020" lon="49.1084560"><time>2021-08-14T07:30:03</time></trkpt><trkpt lat="55.8126000" lon="49.1084580"><time>2021-08-14T07:30:04</time></trkpt><trkpt lat="55.8125970" lon="49.1084590"><time>2021-08-14T07:30:05</time></trkpt><trkpt lat="55.8125880" lon="49.1084050"><time>2021-08-14T07:30:06</time></trkpt><trkpt lat="55.8125850" lon="49.1083870"><time>2021-08-14T07:30:07</time></trkpt><trkpt lat="55.8125830" lon="49.1083600"><time>2021-08-14T07:30:08</time></trkpt><trkpt lat="55.8125810" lon="49.1083400"><time>2021-08-14T07:30:09</time></trkpt><trkpt lat="55.8125800" lon="49.1083250"><time>2021-08-14T07:30:10</time></trkpt><trkpt lat="55.8125800" lon="49.1082980"><time>2021-08-14T07:30:11</time></trkpt><trkpt lat="55.8125850" lon="49.1082640"><time>2021-08-14T07:30:12</time></trkpt><trkpt lat="55.8125900" lon="49.1082170"><time>2021-08-14T07:30:13</time></trkpt><trkpt lat="55.8125920" lon="49.1081990"><time>2021-08-14T07:30:14</time></trkpt><trkpt lat="55.8126010" lon="49.1081660"><time>2021-08-14T07:30:15</time></trkpt><trkpt lat="55.8126040" lon="49.1081520"><time>2021-08-14T07:30:16</time></trkpt><trkpt lat="55.8126070" lon="49.1081380"><time>2021-08-14T07:30:17</time></trkpt><trkpt lat="55.8126210" lon="49.1081100"><time>2021-08-14T07:30:18</time></trkpt><trkpt lat="55.8126290" lon="49.1080960"><time>2021-08-14T07:30:19</time></trkpt><trkpt lat="55.8126360" lon="49.1080820"><time>2021-08-14T07:30:20</time></trkpt><trkpt lat="55.8126520" lon="49.1080380"><time>2021-08-14T07:30:21</time></trkpt><trkpt lat="55.8126570" lon="49.1080250"><time>2021-08-14T07:30:22</time></trkpt><trkpt lat="55.8126670" lon="49.1080020"><time>2021-08-14T07:30:23</time></trkpt><trkpt lat="55.8126800" lon="49.1079780"><time>2021-08-14T07:30:24</time></trkpt><trkpt lat="55.8126910" lon="49.1079530"><time>2021-08-14T07:30:25</time></trkpt><trkpt lat="55.8126990" lon="49.1079290"><time>2021-08-14T07:30:26</time></trkpt><trkpt lat="55.8127090" lon="49.1079050"><time>2021-08-14T07:30:27</time></trkpt><trkpt lat="55.8127160" lon="49.1078780"><time>2021-08-14T07:30:28</time></trkpt><trkpt lat="55.8127230" lon="49.1078480"><time>2021-08-14T07:30:29</time></trkpt><trkpt lat="55.8127350" lon="49.1078240"><time>2021-08-14T07:30:30</time></trkpt><trkpt lat="55.8127470" lon="49.1078030"><time>2021-08-14T07:30:31</time></trkpt><trkpt lat="55.8127510" lon="49.1077760"><time>2021-08-14T07:30:32</time></trkpt><trkpt lat="55.8127590" lon="49.1077520"><time>2021-08-14T07:30:33</time></trkpt><trkpt lat="55.8127690" lon="49.1077270"><time>2021-08-14T07:30:34</time></trkpt><trkpt lat="55.8127770" lon="49.1077020"><time>2021-08-14T07:30:35</time></trkpt><trkpt lat="55.8127800" lon="49.1076750"><time>2021-08-14T07:30:36</time></trkpt><trkpt lat="55.8127800" lon="49.1076520"><time>2021-08-14T07:30:37</time></trkpt><trkpt lat="55.8127840" lon="49.1076270"><time>2021-08-14T07:30:38</time></trkpt><trkpt lat="55.8127870" lon="49.1075930"><time>2021-08-14T07:30:39</time></trkpt><trkpt lat="55.8127820" lon="49.1075720"><time>2021-08-14T07:30:40</time></trkpt><trkpt lat="55.8127880" lon="49.1075480"><time>2021-08-14T07:30:41</time></trkpt><trkpt lat="55.8127970" lon="49.1074970"><time>2021-08-14T07:30:42</time></trkpt><trkpt lat="55.8128010" lon="49.1074710"><time>2021-08-14T07:30:43</time></trkpt><trkpt lat="55.8128030" lon="49.1074590"><time>2021-08-14T07:30:44</time></trkpt><trkpt lat="55.8128040" lon="49.1074200"><time>2021-08-14T07:30:45</time></trkpt><trkpt lat="55.8128040" lon="49.1074060"><time>2021-08-14T07:30:46</time></trkpt><trkpt lat="55.8128060" lon="49.1073560"><time>2021-08-14T07:30:47</time></trkpt><trkpt lat="55.8128070" lon="49.1073400"><time>2021-08-14T07:30:48</time></trkpt><trkpt lat="55.8128060" lon="49.1073220"><time>2021-08-14T07:30:49</time></trkpt><trkpt lat="55.8128070" lon="49.1072860"><time>2021-08-14T07:30:50</time></trkpt><trkpt lat="55.8128090" lon="49.1072520"><time>2021-08-14T07:30:51</time></trkpt><trkpt lat="55.8128100" lon="49.1072330"><time>2021-08-14T07:30:52</time></trkpt><trkpt lat="55.8128110" lon="49.1072050"><time>2021-08-14T07:30:53</time></trkpt><trkpt lat="55.8128090" lon="49.1071750"><time>2021-08-14T07:30:54</time></trkpt><trkpt lat="55.8128080" lon="49.1071530"><time>2021-08-14T07:30:55</time></trkpt><trkpt lat="55.8128080" lon="49.1071240"><time>2021-08-14T07:30:56</time></trkpt><trkpt lat="55.8128070" lon="49.1070840"><time>2021-08-14T07:30:57</time></trkpt><trkpt lat="55.8128070" lon="49.1070680"><time>2021-08-14T07:30:58</time></trkpt><trkpt lat="55.8128100" lon="49.1070120"><time>2021-08-14T07:30:59</time></trkpt><trkpt lat="55.8128100" lon="49.1069920"><time>2021-08-14T07:31:00</time></trkpt><trkpt lat="55.8128100" lon="49.1069710"><time>2021-08-14T07:31:01</time></trkpt><trkpt lat="55.8128140" lon="49.1069320"><time>2021-08-14T07:31:02</time></trkpt><trkpt lat="55.8128160" lon="49.1069120"><time>2021-08-14T07:31:03</time></trkpt><trkpt lat="55.8128180" lon="49.1068730"><time>2021-08-14T07:31:04</time></trkpt><trkpt lat="55.8128190" lon="49.1068550"><time>2021-08-14T07:31:05</time></trkpt><trkpt lat="55.8128200" lon="49.1068190"><time>2021-08-14T07:31:06</time></trkpt><trkpt lat="55.8128190" lon="49.1068040"><time>2021-08-14T07:31:07</time></trkpt><trkpt lat="55.8128210" lon="49.1067670"><time>2021-08-14T07:31:08</time></trkpt><trkpt lat="55.8128210" lon="49.1067430"><time>2021-08-14T07:31:09</time></trkpt><trkpt lat="55.8128190" lon="49.1067060"><time>2021-08-14T07:31:10</time></trkpt><trkpt lat="55.8128190" lon="49.1066840"><time>2021-08-14T07:31:11</time></trkpt><trkpt lat="55.8128190" lon="49.1066450"><time>2021-08-14T07:31:12</time></trkpt><trkpt lat="55.8128240" lon="49.1066250"><time>2021-08-14T07:31:13</time></trkpt><trkpt lat="55.8128180" lon="49.1065940"><time>2021-08-14T07:31:14</time></trkpt><trkpt lat="55.8128230" lon="49.1065510"><time>2021-08-14T07:31:15</time></trkpt><trkpt lat="55.8128240" lon="49.1065300"><time>2021-08-14T07:31:16</time></trkpt><trkpt lat="55.8128260" lon="49.1065100"><time>2021-08-14T07:31:17</time></trkpt><trkpt lat="55.8128260" lon="49.1064750"><time>2021-08-14T07:31:18</time></trkpt><trkpt lat="55.8128230" lon="49.1064480"><time>2021-08-14T07:31:19</time></trkpt><trkpt lat="55.8128270" lon="49.1064170"><time>2021-08-14T07:31:20</time></trkpt><trkpt lat="55.8128260" lon="49.1063870"><time>2021-08-14T07:31:21</time></trkpt><trkpt lat="55.8128280" lon="49.1063580"><time>2021-08-14T07:31:22</time></trkpt><trkpt lat="55.8128270" lon="49.1063300"><time>2021-08-14T07:31:23</time></trkpt><trkpt lat="55.8128260" lon="49.1063020"><time>2021-08-14T07:31:24</time></trkpt><trkpt lat="55.8128270" lon="49.1062710"><time>2021-08-14T07:31:25</time></trkpt><trkpt lat="55.8128320" lon="49.1062420"><time>2021-08-14T07:31:26</time></trkpt><trkpt lat="55.8128360" lon="49.1062120"><time>2021-08-14T07:31:27</time></trkpt><trkpt lat="55.8128390" lon="49.1061830"><time>2021-08-14T07:31:28</time></trkpt><trkpt lat="55.8128390" lon="49.1061530"><time>2021-08-14T07:31:29</time></trkpt><trkpt lat="55.8128450" lon="49.1061270"><time>2021-08-14T07:31:30</time></trkpt><trkpt lat="55.8128490" lon="49.1060990"><time>2021-08-14T07:31:31</time></trkpt><trkpt lat="55.8128550" lon="49.1060720"><time>2021-08-14T07:31:32</time></trkpt><trkpt lat="55.8128610" lon="49.1060460"><time>2021-08-14T07:31:33</time></trkpt><trkpt lat="55.8128670" lon="49.1060190"><time>2021-08-14T07:31:34</time></trkpt><trkpt lat="55.8128770" lon="49.1059980"><time>2021-08-14T07:31:35</time></trkpt><trkpt lat="55.8128830" lon="49.1059770"><time>2021-08-14T07:31:36</time></trkpt><trkpt lat="55.8128920" lon="49.1059550"><time>2021-08-14T07:31:37</time></trkpt><trkpt lat="55.8129010" lon="49.1059310"><time>2021-08-14T07:31:38</time></trkpt><trkpt lat="55.8129090" lon="49.1059070"><time>2021-08-14T07:31:39</time></trkpt><trkpt lat="55.8129170" lon="49.1058850"><time>2021-08-14T07:31:40</time></trkpt><trkpt lat="55.8129240" lon="49.1058620"><time>2021-08-14T07:31:41</time></trkpt><trkpt lat="55.8129300" lon="49.1058370"><time>2021-08-14T07:31:42</time></trkpt><trkpt lat="55.8129370" lon="49.1058140"><time>2021-08-14T07:31:43</time></trkpt><trkpt lat="55.8129370" lon="49.1057850"><time>2021-08-14T07:31:44</time></trkpt><trkpt lat="55.8129390" lon="49.1057580"><time>2021-08-14T07:31:45</time></trkpt><trkpt lat="55.8129370" lon="49.1057260"><time>2021-08-14T07:31:46</time></trkpt><trkpt lat="55.8129390" lon="49.1056920"><time>2021-08-14T07:31:47</time></trkpt><trkpt lat="55.8129390" lon="49.1056640"><time>2021-08-14T07:31:48</time></trkpt><trkpt lat="55.8129370" lon="49.1056360"><time>2021-08-14T07:31:49</time></trkpt><trkpt lat="55.8129370" lon="49.1056050"><time>2021-08-14T07:31:50</time></trkpt><trkpt lat="55.8129420" lon="49.1055760"><time>2021-08-14T07:31:51</time></trkpt><trkpt lat="55.8129420" lon="49.1055440"><time>2021-08-14T07:31:52</time></trkpt><trkpt lat="55.8129420" lon="49.1055160"><time>2021-08-14T07:31:53</time></trkpt><trkpt lat="55.8129410" lon="49.1054850"><time>2021-08-14T07:31:54</time></trkpt><trkpt lat="55.8129450" lon="49.1054580"><time>2021-08-14T07:31:55</time></trkpt><trkpt lat="55.8129480" lon="49.1054270"><time>2021-08-14T07:31:56</time></trkpt><trkpt lat="55.8129550" lon="49.1053930"><time>2021-08-14T07:31:57</time></trkpt><trkpt lat="55.8129520" lon="49.1053630"><time>2021-08-14T07:31:58</time></trkpt><trkpt lat="55.8129540" lon="49.1053400"><time>2021-08-14T07:31:59</time></trkpt><trkpt lat="55.8129530" lon="49.1053070"><time>2021-08-14T07:32:00</time></trkpt><trkpt lat="55.8129560" lon="49.1052770"><time>2021-08-14T07:32:01</time></trkpt><trkpt lat="55.8129550" lon="49.1052440"><time>2021-08-14T07:32:03</time></trkpt><trkpt lat="55.8129590" lon="49.1052150"><time>2021-08-14T07:32:04</time></trkpt><trkpt lat="55.8129620" lon="49.1051870"><time>2021-08-14T07:32:05</time></trkpt><trkpt lat="55.8129640" lon="49.1051640"><time>2021-08-14T07:32:06</time></trkpt><trkpt lat="55.8129650" lon="49.1051340"><time>2021-08-14T07:32:07</time></trkpt><trkpt lat="55.8129640" lon="49.1051110"><time>2021-08-14T07:32:08</time></trkpt><trkpt lat="55.8129660" lon="49.1050800"><time>2021-08-14T07:32:09</time></trkpt><trkpt lat="55.8129670" lon="49.1050480"><time>2021-08-14T07:32:10</time></trkpt><trkpt lat="55.8129660" lon="49.1050180"><time>2021-08-14T07:32:11</time></trkpt><trkpt lat="55.8129660" lon="49.1049850"><time>2021-08-14T07:32:12</time></trkpt><trkpt lat="55.8129670" lon="49.1049540"><time>2021-08-14T07:32:13</time></trkpt><trkpt lat="55.8129610" lon="49.1049250"><time>2021-08-14T07:32:14</time></trkpt><trkpt lat="55.8129620" lon="49.1048930"><time>2021-08-14T07:32:15</time></trkpt><trkpt lat="55.8129640" lon="49.1048690"><time>2021-08-14T07:32:16</time></trkpt><trkpt lat="55.8129660" lon="49.1048400"><time>2021-08-14T07:32:17</time></trkpt><trkpt lat="55.8129650" lon="49.1048140"><time>2021-08-14T07:32:18</time></trkpt><trkpt lat="55.8129630" lon="49.1047870"><time>2021-08-14T07:32:19</time></trkpt><trkpt lat="55.8129620" lon="49.1047580"><time>2021-08-14T07:32:20</time></trkpt><trkpt lat="55.8129610" lon="49.1047230"><time>2021-08-14T07:32:21</time></trkpt><trkpt lat="55.8129630" lon="49.1046940"><time>2021-08-14T07:32:22</time></trkpt><trkpt lat="55.8129630" lon="49.1046660"><time>2021-08-14T07:32:23</time></trkpt><trkpt lat="55.8129590" lon="49.1046380"><time>2021-08-14T07:32:24</time></trkpt><trkpt lat="55.8129570" lon="49.1046100"><time>2021-08-14T07:32:25</time></trkpt><trkpt lat="55.8129570" lon="49.1045790"><time>2021-08-14T07:32:26</time></trkpt><trkpt lat="55.8129590" lon="49.1045470"><time>2021-08-14T07:32:27</time></trkpt><trkpt lat="55.8129600" lon="49.1045170"><time>2021-08-14T07:32:28</time></trkpt><trkpt lat="55.8129580" lon="49.1044860"><time>2021-08-14T07:32:29</time></trkpt><trkpt lat="55.8129590" lon="49.1044560"><time>2021-08-14T07:32:30</time></trkpt><trkpt lat="55.8129560" lon="49.1044250"><time>2021-08-14T07:32:31</time></trkpt><trkpt lat="55.8129520" lon="49.1043940"><time>2021-08-14T07:32:32</time></trkpt><trkpt lat="55.8129550" lon="49.1043610"><time>2021-08-14T07:32:33</time></trkpt><trkpt lat="55.8129540" lon="49.1043290"><time>2021-08-14T07:32:34</time></trkpt><trkpt lat="55.8129550" lon="49.1043040"><time>2021-08-14T07:32:35</time></trkpt><trkpt lat="55.8129500" lon="49.1042720"><time>2021-08-14T07:32:36</time></trkpt><trkpt lat="55.8129510" lon="49.1042480"><time>2021-08-14T07:32:37</time></trkpt><trkpt lat="55.8129510" lon="49.1042190"><time>2021-08-14T07:32:38</time></trkpt><trkpt lat="55.8129490" lon="49.1041870"><time>2021-08-14T07:32:39</time></trkpt><trkpt lat="55.8129480" lon="49.1041550"><time>2021-08-14T07:32:40</time></trkpt><trkpt lat="55.8129460" lon="49.1041280"><time>2021-08-14T07:32:41</time></trkpt><trkpt lat="55.8129480" lon="49.1041030"><time>2021-08-14T07:32:42</time></trkpt><trkpt lat="55.8129450" lon="49.1040780"><time>2021-08-14T07:32:43</time></trkpt><trkpt lat="55.8129440" lon="49.1040520"><time>2021-08-14T07:32:44</time></trkpt><trkpt lat="55.8129430" lon="49.1040260"><time>2021-08-14T07:32:45</time></trkpt><trkpt lat="55.8129380" lon="49.1039980"><time>2021-08-14T07:32:46</time></trkpt><trkpt lat="55.8129420" lon="49.1039730"><time>2021-08-14T07:32:47</time></trkpt><trkpt lat="55.8129390" lon="49.1039440"><time>2021-08-14T07:32:48</time></trkpt><trkpt lat="55.8129340" lon="49.1039170"><time>2021-08-14T07:32:49</time></trkpt><trkpt lat="55.8129290" lon="49.1038900"><time>2021-08-14T07:32:50</time></trkpt><trkpt lat="55.8129290" lon="49.1038620"><time>2021-08-14T07:32:51</time></trkpt><trkpt lat="55.8129300" lon="49.1038340"><time>2021-08-14T07:32:52</time></trkpt><trkpt lat="55.8129310" lon="49.1038070"><time>2021-08-14T07:32:53</time></trkpt><trkpt lat="55.8129300" lon="49.1037800"><time>2021-08-14T07:32:54</time></trkpt><trkpt lat="55.8129270" lon="49.1037530"><time>2021-08-14T07:32:55</time></trkpt><trkpt lat="55.8129230" lon="49.1037270"><time>2021-08-14T07:32:56</time></trkpt><trkpt lat="55.8129220" lon="49.1037030"><time>2021-08-14T07:32:57</time></trkpt><trkpt lat="55.8129160" lon="49.1036660"><time>2021-08-14T07:32:58</time></trkpt><trkpt lat="55.8129130" lon="49.1036530"><time>2021-08-14T07:32:59</time></trkpt><trkpt lat="55.8129100" lon="49.1036390"><time>2021-08-14T07:33:00</time></trkpt><trkpt lat="55.8129050" lon="49.1036090"><time>2021-08-14T07:33:01</time></trkpt><trkpt lat="55.8129010" lon="49.1035850"><time>2021-08-14T07:33:02</time></trkpt><trkpt lat="55.8128930" lon="49.1035610"><time>2021-08-14T07:33:03</time></trkpt><trkpt lat="55.8128830" lon="49.1035420"><time>2021-08-14T07:33:04</time></trkpt><trkpt lat="55.8128740" lon="49.1035190"><time>2021-08-14T07:33:05</time></trkpt><trkpt lat="55.8128650" lon="49.1034970"><time>2021-08-14T07:33:06</time></trkpt><trkpt lat="55.8128560" lon="49.1034760"><time>2021-08-14T07:33:07</time></trkpt><trkpt lat="55.8128440" lon="49.1034550"><time>2021-08-14T07:33:08</time></trkpt><trkpt lat="55.8128310" lon="49.1034380"><time>2021-08-14T07:33:09</time></trkpt><trkpt lat="55.8128190" lon="49.1034150"><time>2021-08-14T07:33:10</time></trkpt><trkpt lat="55.8128070" lon="49.1034000"><time>2021-08-14T07:33:11</time></trkpt><trkpt lat="55.8127830" lon="49.1033580"><time>2021-08-14T07:33:12</time></trkpt><trkpt lat="55.8127720" lon="49.1033420"><time>2021-08-14T07:33:13</time></trkpt><trkpt lat="55.8127710" lon="49.1032950"><time>2021-08-14T07:33:14</time></trkpt><trkpt lat="55.8127720" lon="49.1032770"><time>2021-08-14T07:33:15</time></trkpt><trkpt lat="55.8127790" lon="49.1032500"><time>2021-08-14T07:33:16</time></trkpt><trkpt lat="55.8127820" lon="49.1032250"><time>2021-08-14T07:33:17</time></trkpt><trkpt lat="55.8127850" lon="49.1031980"><time>2021-08-14T07:33:18</time></trkpt><trkpt lat="55.8127880" lon="49.1031670"><time>2021-08-14T07:33:19</time></trkpt><trkpt lat="55.8127880" lon="49.1031380"><time>2021-08-14T07:33:20</time></trkpt><trkpt lat="55.8127900" lon="49.1031110"><time>2021-08-14T07:33:21</time></trkpt><trkpt lat="55.8127930" lon="49.1030850"><time>2021-08-14T07:33:22</time></trkpt><trkpt lat="55.8127950" lon="49.1030570"><time>2021-08-14T07:33:23</time></trkpt><trkpt lat="55.8127990" lon="49.1030280"><time>2021-08-14T07:33:24</time></trkpt><trkpt lat="55.8128040" lon="49.1030010"><time>2021-08-14T07:33:25</time></trkpt><trkpt lat="55.8128050" lon="49.1029800"><time>2021-08-14T07:33:26</time></trkpt><trkpt lat="55.8128130" lon="49.1029460"><time>2021-08-14T07:33:27</time></trkpt><trkpt lat="55.8128170" lon="49.1029300"><time>2021-08-14T07:33:28</time></trkpt><trkpt lat="55.8128240" lon="49.1029020"><time>2021-08-14T07:33:29</time></trkpt><trkpt lat="55.8128220" lon="49.1028650"><time>2021-08-14T07:33:30</time></trkpt><trkpt lat="55.8128170" lon="49.1028480"><time>2021-08-14T07:33:31</time></trkpt><trkpt lat="55.8128110" lon="49.1028300"><time>2021-08-14T07:33:32</time></trkpt><trkpt lat="55.8127950" lon="49.1028040"><time>2021-08-14T07:33:33</time></trkpt><trkpt lat="55.8127870" lon="49.1027900"><time>2021-08-14T07:33:34</time></trkpt><trkpt lat="55.8127800" lon="49.1027760"><time>2021-08-14T07:33:35</time></trkpt><trkpt lat="55.8127740" lon="49.1027600"><time>2021-08-14T07:33:36</time></trkpt><trkpt lat="55.8127610" lon="49.1027350"><time>2021-08-14T07:33:37</time></trkpt><trkpt lat="55.8127560" lon="49.1027160"><time>2021-08-14T07:33:38</time></trkpt><trkpt lat="55.8127460" lon="49.1026910"><time>2021-08-14T07:33:39</time></trkpt><trkpt lat="55.8127380" lon="49.1026690"><time>2021-08-14T07:33:40</time></trkpt><trkpt lat="55.8127270" lon="49.1026420"><time>2021-08-14T07:33:41</time></trkpt><trkpt lat="55.8127210" lon="49.1026230"><time>2021-08-14T07:33:42</time></trkpt><trkpt lat="55.8127080" lon="49.1025970"><time>2021-08-14T07:33:43</time></trkpt><trkpt lat="55.8126990" lon="49.1025810"><time>2021-08-14T07:33:44</time></trkpt><trkpt lat="55.8126860" lon="49.1025630"><time>2021-08-14T07:33:45</time></trkpt><trkpt lat="55.8126760" lon="49.1025480"><time>2021-08-14T07:33:46</time></trkpt><trkpt lat="55.8126660" lon="49.1025260"><time>2021-08-14T07:33:47</time></trkpt><trkpt lat="55.8126520" lon="49.1025100"><time>2021-08-14T07:33:48</time></trkpt><trkpt lat="55.8126440" lon="49.1025040"><time>2021-08-14T07:33:49</time></trkpt><trkpt lat="55.8126350" lon="49.1024940"><time>2021-08-14T07:33:50</time></trkpt><trkpt lat="55.8126270" lon="49.1024870"><time>2021-08-14T07:33:51</time></trkpt><trkpt lat="55.8126150" lon="49.1024730"><time>2021-08-14T07:33:52</time></trkpt><trkpt lat="55.8126110" lon="49.1024610"><time>2021-08-14T07:33:53</time></trkpt><trkpt lat="55.8126100" lon="49.1024550"><time>2021-08-14T07:33:54</time></trkpt><trkpt lat="55.8126130" lon="49.1024520"><time>2021-08-14T07:33:55</time></trkpt><trkpt lat="55.8126110" lon="49.1024510"><time>2021-08-14T07:33:56</time></trkpt><trkpt lat="55.8126070" lon="49.1024500"><time>2021-08-14T07:33:57</time></trkpt><trkpt lat="55.8126060" lon="49.1024460"><time>2021-08-14T07:33:58</time></trkpt><trkpt lat="55.8126070" lon="49.1024420"><time>2021-08-14T07:33:59</time></trkpt><trkpt lat="55.8126100" lon="49.1024340"><time>2021-08-14T07:34:00</time></trkpt><trkpt lat="55.8126100" lon="49.1024400"><time>2021-08-14T07:34:01</time></trkpt><trkpt lat="55.8126160" lon="49.1024360"><time>2021-08-14T07:34:02</time></trkpt><trkpt lat="55.8126150" lon="49.1024330"><time>2021-08-14T07:34:03</time></trkpt><trkpt lat="55.8126140" lon="49.1024220"><time>2021-08-14T07:34:04</time></trkpt><trkpt lat="55.8126120" lon="49.1024200"><time>2021-08-14T07:34:05</time></trkpt><trkpt lat="55.8126120" lon="49.1024170"><time>2021-08-14T07:34:06</time></trkpt><trkpt lat="55.8126120" lon="49.1024160"><time>2021-08-14T07:34:07</time></trkpt><trkpt lat="55.8126120" lon="49.1024160"><time>2021-08-14T07:34:09</time></trkpt><trkpt lat="55.8126090" lon="49.1024130"><time>2021-08-14T07:34:10</time></trkpt><trkpt lat="55.8126090" lon="49.1024110"><time>2021-08-14T07:34:11</time></trkpt><trkpt lat="55.8126090" lon="49.1024110"><time>2021-08-14T07:34:12</time></trkpt><trkpt lat="55.8126070" lon="49.1024030"><time>2021-08-14T07:34:13</time></trkpt><trkpt lat="55.8126100" lon="49.1023990"><time>2021-08-14T07:34:14</time></trkpt><trkpt lat="55.8126110" lon="49.1023910"><time>2021-08-14T07:34:15</time></trkpt><trkpt lat="55.8126220" lon="49.1023640"><time>2021-08-14T07:34:16</time></trkpt><trkpt lat="55.8126450" lon="49.1023310"><time>2021-08-14T07:34:17</time></trkpt><trkpt lat="55.8126520" lon="49.1023210"><time>2021-08-14T07:34:18</time></trkpt><trkpt lat="55.8126690" lon="49.1022980"><time>2021-08-14T07:34:19</time></trkpt><trkpt lat="55.8126770" lon="49.1022910"><time>2021-08-14T07:34:20</time></trkpt><trkpt lat="55.8126840" lon="49.1022840"><time>2021-08-14T07:34:21</time></trkpt><trkpt lat="55.8126990" lon="49.1022690"><time>2021-08-14T07:34:22</time></trkpt><trkpt lat="55.8127150" lon="49.1022540"><time>2021-08-14T07:34:23</time></trkpt><trkpt lat="55.8127270" lon="49.1022390"><time>2021-08-14T07:34:24</time></trkpt><trkpt lat="55.8127390" lon="49.1022280"><time>2021-08-14T07:34:25</time></trkpt><trkpt lat="55.8127580" lon="49.1022110"><time>2021-08-14T07:34:26</time></trkpt><trkpt lat="55.8127640" lon="49.1022030"><time>2021-08-14T07:34:27</time></trkpt><trkpt lat="55.8127710" lon="49.1021950"><time>2021-08-14T07:34:28</time></trkpt><trkpt lat="55.8127880" lon="49.1021740"><time>2021-08-14T07:34:29</time></trkpt><trkpt lat="55.8127950" lon="49.1021650"><time>2021-08-14T07:34:30</time></trkpt><trkpt lat="55.8128030" lon="49.1021560"><time>2021-08-14T07:34:31</time></trkpt><trkpt lat="55.8128100" lon="49.1021470"><time>2021-08-14T07:34:32</time></trkpt><trkpt lat="55.8128180" lon="49.1021420"><time>2021-08-14T07:34:33</time></trkpt><trkpt lat="55.8128280" lon="49.1021280"><time>2021-08-14T07:34:34</time></trkpt><trkpt lat="55.8128320" lon="49.1021220"><time>2021-08-14T07:34:35</time></trkpt><trkpt lat="55.8128340" lon="49.1021180"><time>2021-08-14T07:34:36</time></trkpt><trkpt lat="55.8128350" lon="49.1021200"><time>2021-08-14T07:34:37</time></trkpt><trkpt lat="55.8128350" lon="49.1021180"><time>2021-08-14T07:34:38</time></trkpt><trkpt lat="55.8128350" lon="49.1021110"><time>2021-08-14T07:34:39</time></trkpt><trkpt lat="55.8128340" lon="49.1020980"><time>2021-08-14T07:34:40</time></trkpt><trkpt lat="55.8128310" lon="49.1020830"><time>2021-08-14T07:34:41</time></trkpt><trkpt lat="55.8128240" lon="49.1020660"><time>2021-08-14T07:34:42</time></trkpt><trkpt lat="55.8128050" lon="49.1020250"><time>2021-08-14T07:34:43</time></trkpt><trkpt lat="55.8128000" lon="49.1020130"><time>2021-08-14T07:34:44</time></trkpt><trkpt lat="55.8127930" lon="49.1019930"><time>2021-08-14T07:34:45</time></trkpt><trkpt lat="55.8127840" lon="49.1019670"><time>2021-08-14T07:34:46</time></trkpt><trkpt lat="55.8127720" lon="49.1019420"><time>2021-08-14T07:34:47</time></trkpt><trkpt lat="55.8127630" lon="49.1019160"><time>2021-08-14T07:34:48</time></trkpt><trkpt lat="55.8127560" lon="49.1018980"><time>2021-08-14T07:34:49</time></trkpt><trkpt lat="55.8127470" lon="49.1018680"><time>2021-08-14T07:34:50</time></trkpt><trkpt lat="55.8127410" lon="49.1018460"><time>2021-08-14T07:34:51</time></trkpt><trkpt lat="55.8127260" lon="49.1017880"><time>2021-08-14T07:34:52</time></trkpt><trkpt lat="55.8127200" lon="49.1017640"><time>2021-08-14T07:34:53</time></trkpt><trkpt lat="55.8127120" lon="49.1017350"><time>2021-08-14T07:34:54</time></trkpt><trkpt lat="55.8127060" lon="49.1017080"><time>2021-08-14T07:34:55</time></trkpt><trkpt lat="55.8127000" lon="49.1016810"><time>2021-08-14T07:34:56</time></trkpt><trkpt lat="55.8126970" lon="49.1016590"><time>2021-08-14T07:34:57</time></trkpt><trkpt lat="55.8126940" lon="49.1016310"><time>2021-08-14T07:34:58</time></trkpt><trkpt lat="55.8126870" lon="49.1016100"><time>2021-08-14T07:34:59</time></trkpt><trkpt lat="55.8126870" lon="49.1015850"><time>2021-08-14T07:35:00</time></trkpt><trkpt lat="55.8126790" lon="49.1015640"><time>2021-08-14T07:35:01</time></trkpt><trkpt lat="55.8126620" lon="49.1015620"><time>2021-08-14T07:35:02</time></trkpt><trkpt lat="55.8126510" lon="49.1015660"><time>2021-08-14T07:35:03</time></trkpt><trkpt lat="55.8126410" lon="49.1015690"><time>2021-08-14T07:35:04</time></trkpt><trkpt lat="55.8126270" lon="49.1015810"><time>2021-08-14T07:35:05</time></trkpt><trkpt lat="55.8126090" lon="49.1015910"><time>2021-08-14T07:35:06</time></trkpt><trkpt lat="55.8125930" lon="49.1016020"><time>2021-08-14T07:35:07</time></trkpt><trkpt lat="55.8125830" lon="49.1016110"><time>2021-08-14T07:35:08</time></trkpt><trkpt lat="55.8125740" lon="49.1016190"><time>2021-08-14T07:35:09</time></trkpt><trkpt lat="55.8125620" lon="49.1016300"><time>2021-08-14T07:35:10</time></trkpt><trkpt lat="55.8125490" lon="49.1016460"><time>2021-08-14T07:35:11</time></trkpt><trkpt lat="55.8125380" lon="49.1016630"><time>2021-08-14T07:35:12</time></trkpt><trkpt lat="55.8125210" lon="49.1016770"><time>2021-08-14T07:35:13</time></trkpt><trkpt lat="55.8125100" lon="49.1016800"><time>2021-08-14T07:35:14</time></trkpt><trkpt lat="55.8124910" lon="49.1016930"><time>2021-08-14T07:35:15</time></trkpt><trkpt lat="55.8124840" lon="49.1017000"><time>2021-08-14T07:35:16</time></trkpt><trkpt lat="55.8124740" lon="49.1017050"><time>2021-08-14T07:35:17</time></trkpt><trkpt lat="55.8124580" lon="49.1017060"><time>2021-08-14T07:35:18</time></trkpt><trkpt lat="55.8124440" lon="49.1017010"><time>2021-08-14T07:35:19</time></trkpt><trkpt lat="55.8124240" lon="49.1017040"><time>2021-08-14T07:35:20</time></trkpt><trkpt lat="55.8124010" lon="49.1017100"><time>2021-08-14T07:35:21</time></trkpt><trkpt lat="55.8123910" lon="49.1017100"><time>2021-08-14T07:35:22</time></trkpt><trkpt lat="55.8123810" lon="49.1017090"><time>2021-08-14T07:35:23</time></trkpt><trkpt lat="55.8123680" lon="49.1017050"><time>2021-08-14T07:35:24</time></trkpt><trkpt lat="55.8123530" lon="49.1016960"><time>2021-08-14T07:35:25</time></trkpt><trkpt lat="55.8123380" lon="49.1016760"><time>2021-08-14T07:35:26</time></trkpt><trkpt lat="55.8123210" lon="49.1016660"><time>2021-08-14T07:35:27</time></trkpt><trkpt lat="55.8123000" lon="49.1016600"><time>2021-08-14T07:35:28</time></trkpt><trkpt lat="55.8122910" lon="49.1016580"><time>2021-08-14T07:35:29</time></trkpt><trkpt lat="55.8122810" lon="49.1016560"><time>2021-08-14T07:35:30</time></trkpt><trkpt lat="55.8122660" lon="49.1016530"><time>2021-08-14T07:35:31</time></trkpt><trkpt lat="55.8122500" lon="49.1016520"><time>2021-08-14T07:35:32</time></trkpt><trkpt lat="55.8122330" lon="49.1016510"><time>2021-08-14T07:35:33</time></trkpt><trkpt lat="55.8122190" lon="49.1016460"><time>2021-08-14T07:35:34</time></trkpt><trkpt lat="55.8122070" lon="49.1016410"><time>2021-08-14T07:35:35</time></trkpt><trkpt lat="55.8121910" lon="49.1016460"><time>2021-08-14T07:35:36</time></trkpt><trkpt lat="55.8121760" lon="49.1016400"><time>2021-08-14T07:35:37</time></trkpt><trkpt lat="55.8121590" lon="49.1016300"><time>2021-08-14T07:35:38</time></trkpt><trkpt lat="55.8121460" lon="49.1016210"><time>2021-08-14T07:35:39</time></trkpt><trkpt lat="55.8121280" lon="49.1016170"><time>2021-08-14T07:35:40</time></trkpt><trkpt lat="55.8121100" lon="49.1016140"><time>2021-08-14T07:35:41</time></trkpt><trkpt lat="55.8120970" lon="49.1016160"><time>2021-08-14T07:35:42</time></trkpt><trkpt lat="55.8120780" lon="49.1016210"><time>2021-08-14T07:35:43</time></trkpt><trkpt lat="55.8120650" lon="49.1016160"><time>2021-08-14T07:35:44</time></trkpt><trkpt lat="55.8120410" lon="49.1016090"><time>2021-08-14T07:35:45</time></trkpt><trkpt lat="55.8120310" lon="49.1016070"><time>2021-08-14T07:35:46</time></trkpt><trkpt lat="55.8120210" lon="49.1016060"><time>2021-08-14T07:35:47</time></trkpt><trkpt lat="55.8120100" lon="49.1016030"><time>2021-08-14T07:35:48</time></trkpt><trkpt lat="55.8119930" lon="49.1015970"><time>2021-08-14T07:35:49</time></trkpt><trkpt lat="55.8119790" lon="49.1015870"><time>2021-08-14T07:35:50</time></trkpt><trkpt lat="55.8119730" lon="49.1015820"><time>2021-08-14T07:35:51</time></trkpt><trkpt lat="55.8119680" lon="49.1015770"><time>2021-08-14T07:35:52</time></trkpt><trkpt lat="55.8119620" lon="49.1015720"><time>2021-08-14T07:35:53</time></trkpt><trkpt lat="55.8119570" lon="49.1015670"><time>2021-08-14T07:35:54</time></trkpt><trkpt lat="55.8119540" lon="49.1015630"><time>2021-08-14T07:35:55</time></trkpt><trkpt lat="55.8119540" lon="49.1015630"><time>2021-08-14T07:35:56</time></trkpt><trkpt lat="55.8119530" lon="49.1015610"><time>2021-08-14T07:35:57</time></trkpt><trkpt lat="55.8119560" lon="49.1015580"><time>2021-08-14T07:35:58</time></trkpt><trkpt lat="55.8119550" lon="49.1015520"><time>2021-08-14T07:35:59</time></trkpt><trkpt lat="55.8119470" lon="49.1015480"><time>2021-08-14T07:36:00</time></trkpt><trkpt lat="55.8119290" lon="49.1015460"><time>2021-08-14T07:36:01</time></trkpt><trkpt lat="55.8119140" lon="49.1015470"><time>2021-08-14T07:36:02</time></trkpt><trkpt lat="55.8119020" lon="49.1015490"><time>2021-08-14T07:36:03</time></trkpt><trkpt lat="55.8118910" lon="49.1015660"><time>2021-08-14T07:36:04</time></trkpt><trkpt lat="55.8118720" lon="49.1015820"><time>2021-08-14T07:36:05</time></trkpt><trkpt lat="55.8118610" lon="49.1015830"><time>2021-08-14T07:36:06</time></trkpt><trkpt lat="55.8118410" lon="49.1015820"><time>2021-08-14T07:36:07</time></trkpt><trkpt lat="55.8118250" lon="49.1015780"><time>2021-08-14T07:36:08</time></trkpt><trkpt lat="55.8118120" lon="49.1015830"><time>2021-08-14T07:36:09</time></trkpt><trkpt lat="55.8118030" lon="49.1015860"><time>2021-08-14T07:36:10</time></trkpt><trkpt lat="55.8117840" lon="49.1015850"><time>2021-08-14T07:36:11</time></trkpt><trkpt lat="55.8117660" lon="49.1015810"><time>2021-08-14T07:36:12</time></trkpt><trkpt lat="55.8117510" lon="49.1015790"><time>2021-08-14T07:36:13</time></trkpt><trkpt lat="55.8117370" lon="49.1015810"><time>2021-08-14T07:36:15</time></trkpt><trkpt lat="55.8117190" lon="49.1015830"><time>2021-08-14T07:36:16</time></trkpt><trkpt lat="55.8116900" lon="49.1015900"><time>2021-08-14T07:36:17</time></trkpt><trkpt lat="55.8116790" lon="49.1015920"><time>2021-08-14T07:36:18</time></trkpt><trkpt lat="55.8116470" lon="49.1015760"><time>2021-08-14T07:36:19</time></trkpt><trkpt lat="55.8116370" lon="49.1015680"><time>2021-08-14T07:36:20</time></trkpt><trkpt lat="55.8116070" lon="49.1015710"><time>2021-08-14T07:36:21</time></trkpt><trkpt lat="55.8115970" lon="49.1015690"><time>2021-08-14T07:36:22</time></trkpt><trkpt lat="55.8115810" lon="49.1015780"><time>2021-08-14T07:36:23</time></trkpt><trkpt lat="55.8115640" lon="49.1015740"><time>2021-08-14T07:36:24</time></trkpt><trkpt lat="55.8115530" lon="49.1015690"><time>2021-08-14T07:36:25</time></trkpt><trkpt lat="55.8115340" lon="49.1015700"><time>2021-08-14T07:36:26</time></trkpt><trkpt lat="55.8115120" lon="49.1015650"><time>2021-08-14T07:36:27</time></trkpt><trkpt lat="55.8115000" lon="49.1015640"><time>2021-08-14T07:36:28</time></trkpt><trkpt lat="55.8114890" lon="49.1015630"><time>2021-08-14T07:36:29</time></trkpt><trkpt lat="55.8114750" lon="49.1015640"><time>2021-08-14T07:36:30</time></trkpt><trkpt lat="55.8114580" lon="49.1015600"><time>2021-08-14T07:36:31</time></trkpt><trkpt lat="55.8114390" lon="49.1015580"><time>2021-08-14T07:36:32</time></trkpt><trkpt lat="55.8114260" lon="49.1015660"><time>2021-08-14T07:36:33</time></trkpt><trkpt lat="55.8114100" lon="49.1015660"><time>2021-08-14T07:36:34</time></trkpt><trkpt lat="55.8113940" lon="49.1015570"><time>2021-08-14T07:36:35</time></trkpt><trkpt lat="55.8113600" lon="49.1015490"><time>2021-08-14T07:36:36</time></trkpt><trkpt lat="55.8113500" lon="49.1015470"><time>2021-08-14T07:36:37</time></trkpt><trkpt lat="55.8113370" lon="49.1015450"><time>2021-08-14T07:36:38</time></trkpt><trkpt lat="55.8113200" lon="49.1015450"><time>2021-08-14T07:36:39</time></trkpt><trkpt lat="55.8113000" lon="49.1015340"><time>2021-08-14T07:36:40</time></trkpt><trkpt lat="55.8112860" lon="49.1015350"><time>2021-08-14T07:36:41</time></trkpt><trkpt lat="55.8112660" lon="49.1015270"><time>2021-08-14T07:36:42</time></trkpt><trkpt lat="55.8112540" lon="49.1015330"><time>2021-08-14T07:36:43</time></trkpt><trkpt lat="55.8112400" lon="49.1015330"><time>2021-08-14T07:36:44</time></trkpt><trkpt lat="55.8112210" lon="49.1015180"><time>2021-08-14T07:36:45</time></trkpt><trkpt lat="55.8112090" lon="49.1014990"><time>2021-08-14T07:36:46</time></trkpt><trkpt lat="55.8112010" lon="49.1014800"><time>2021-08-14T07:36:47</time></trkpt><trkpt lat="55.8111850" lon="49.1014680"><time>2021-08-14T07:36:48</time></trkpt><trkpt lat="55.8111690" lon="49.1014560"><time>2021-08-14T07:36:49</time></trkpt><trkpt lat="55.8111620" lon="49.1014360"><time>2021-08-14T07:36:50</time></trkpt><trkpt lat="55.8111570" lon="49.1014060"><time>2021-08-14T07:36:51</time></trkpt><trkpt lat="55.8111440" lon="49.1013930"><time>2021-08-14T07:36:52</time></trkpt><trkpt lat="55.8111300" lon="49.1013820"><time>2021-08-14T07:36:53</time></trkpt><trkpt lat="55.8111120" lon="49.1013570"><time>2021-08-14T07:36:54</time></trkpt><trkpt lat="55.8111060" lon="49.1013460"><time>2021-08-14T07:36:55</time></trkpt><trkpt lat="55.8110990" lon="49.1013340"><time>2021-08-14T07:36:56</time></trkpt><trkpt lat="55.8110870" lon="49.1013150"><time>2021-08-14T07:36:57</time></trkpt><trkpt lat="55.8110750" lon="49.1012950"><time>2021-08-14T07:36:58</time></trkpt><trkpt lat="55.8110610" lon="49.1012850"><time>2021-08-14T07:36:59</time></trkpt><trkpt lat="55.8110460" lon="49.1012710"><time>2021-08-14T07:37:00</time></trkpt><trkpt lat="55.8110260" lon="49.1012370"><time>2021-08-14T07:37:01</time></trkpt><trkpt lat="55.8110190" lon="49.1012260"><time>2021-08-14T07:37:02</time></trkpt><trkpt lat="55.8109990" lon="49.1011930"><time>2021-08-14T07:37:03</time></trkpt><trkpt lat="55.8109920" lon="49.1011830"><time>2021-08-14T07:37:04</time></trkpt><trkpt lat="55.8109800" lon="49.1011640"><time>2021-08-14T07:37:05</time></trkpt><trkpt lat="55.8109710" lon="49.1011330"><time>2021-08-14T07:37:06</time></trkpt><trkpt lat="55.8109550" lon="49.1010910"><time>2021-08-14T07:37:07</time></trkpt><trkpt lat="55.8109490" lon="49.1010780"><time>2021-08-14T07:37:08</time></trkpt><trkpt lat="55.8109380" lon="49.1010660"><time>2021-08-14T07:37:09</time></trkpt><trkpt lat="55.8109230" lon="49.1010560"><time>2021-08-14T07:37:10</time></trkpt><trkpt lat="55.8108980" lon="49.1010270"><time>2021-08-14T07:37:11</time></trkpt><trkpt lat="55.8108910" lon="49.1010160"><time>2021-08-14T07:37:12</time></trkpt><trkpt lat="55.8108810" lon="49.1009900"><time>2021-08-14T07:37:13</time></trkpt><trkpt lat="55.8108710" lon="49.1009670"><time>2021-08-14T07:37:14</time></trkpt><trkpt lat="55.8108420" lon="49.1009480"><time>2021-08-14T07:37:15</time></trkpt><trkpt lat="55.8108330" lon="49.1009410"><time>2021-08-14T07:37:16</time></trkpt><trkpt lat="55.8108130" lon="49.1009090"><time>2021-08-14T07:37:17</time></trkpt><trkpt lat="55.8108050" lon="49.1008980"><time>2021-08-14T07:37:18</time></trkpt><trkpt lat="55.8107790" lon="49.1008770"><time>2021-08-14T07:37:19</time></trkpt><trkpt lat="55.8107710" lon="49.1008730"><time>2021-08-14T07:37:20</time></trkpt><trkpt lat="55.8107500" lon="49.1008570"><time>2021-08-14T07:37:21</time></trkpt><trkpt lat="55.8107370" lon="49.1008510"><time>2021-08-14T07:37:22</time></trkpt><trkpt lat="55.8107150" lon="49.1008170"><time>2021-08-14T07:37:23</time></trkpt><trkpt lat="55.8107060" lon="49.1008090"><time>2021-08-14T07:37:24</time></trkpt><trkpt lat="55.8106710" lon="49.1007790"><time>2021-08-14T07:37:25</time></trkpt><trkpt lat="55.8106550" lon="49.1007570"><time>2021-08-14T07:37:26</time></trkpt><trkpt lat="55.8106440" lon="49.1007330"><time>2021-08-14T07:37:27</time></trkpt><trkpt lat="55.8106350" lon="49.1007130"><time>2021-08-14T07:37:28</time></trkpt><trkpt lat="55.8106290" lon="49.1007060"><time>2021-08-14T07:37:29</time></trkpt><trkpt lat="55.8106190" lon="49.1006920"><time>2021-08-14T07:37:30</time></trkpt><trkpt lat="55.8105940" lon="49.1006520"><time>2021-08-14T07:37:31</time></trkpt><trkpt lat="55.8105850" lon="49.1006400"><time>2021-08-14T07:37:32</time></trkpt><trkpt lat="55.8105710" lon="49.1006200"><time>2021-08-14T07:37:33</time></trkpt><trkpt lat="55.8105620" lon="49.1005990"><time>2021-08-14T07:37:34</time></trkpt><trkpt lat="55.8105360" lon="49.1005800"><time>2021-08-14T07:37:35</time></trkpt><trkpt lat="55.8105280" lon="49.1005710"><time>2021-08-14T07:37:36</time></trkpt><trkpt lat="55.8105210" lon="49.1005460"><time>2021-08-14T07:37:37</time></trkpt><trkpt lat="55.8105150" lon="49.1005150"><time>2021-08-14T07:37:38</time></trkpt><trkpt lat="55.8105080" lon="49.1004900"><time>2021-08-14T07:37:39</time></trkpt><trkpt lat="55.8104990" lon="49.1004730"><time>2021-08-14T07:37:40</time></trkpt><trkpt lat="55.8104790" lon="49.1004450"><time>2021-08-14T07:37:41</time></trkpt><trkpt lat="55.8104710" lon="49.1004320"><time>2021-08-14T07:37:42</time></trkpt><trkpt lat="55.8104670" lon="49.1004060"><time>2021-08-14T07:37:43</time></trkpt><trkpt lat="55.8104560" lon="49.1003840"><time>2021-08-14T07:37:44</time></trkpt><trkpt lat="55.8104440" lon="49.1003680"><time>2021-08-14T07:37:45</time></trkpt><trkpt lat="55.8104300" lon="49.1003500"><time>2021-08-14T07:37:46</time></trkpt><trkpt lat="55.8104190" lon="49.1003290"><time>2021-08-14T07:37:47</time></trkpt><trkpt lat="55.8104090" lon="49.1003060"><time>2021-08-14T07:37:48</time></trkpt><trkpt lat="55.8103980" lon="49.1002810"><time>2021-08-14T07:37:49</time></trkpt><trkpt lat="55.8103880" lon="49.1002640"><time>2021-08-14T07:37:50</time></trkpt><trkpt lat="55.8103790" lon="49.1002420"><time>2021-08-14T07:37:51</time></trkpt><trkpt lat="55.8103610" lon="49.1002280"><time>2021-08-14T07:37:52</time></trkpt><trkpt lat="55.8103490" lon="49.1002100"><time>2021-08-14T07:37:53</time></trkpt><trkpt lat="55.8103340" lon="49.1001900"><time>2021-08-14T07:37:54</time></trkpt><trkpt lat="55.8103250" lon="49.1001640"><time>2021-08-14T07:37:55</time></trkpt><trkpt lat="55.8103120" lon="49.1001450"><time>2021-08-14T07:37:56</time></trkpt><trkpt lat="55.8103010" lon="49.1001310"><time>2021-08-14T07:37:57</time></trkpt><trkpt lat="55.8102880" lon="49.1001150"><time>2021-08-14T07:37:58</time></trkpt><trkpt lat="55.8102730" lon="49.1000980"><time>2021-08-14T07:37:59</time></trkpt><trkpt lat="55.8102700" lon="49.1000700"><time>2021-08-14T07:38:00</time></trkpt><trkpt lat="55.8102630" lon="49.1000450"><time>2021-08-14T07:38:01</time></trkpt><trkpt lat="55.8102550" lon="49.1000220"><time>2021-08-14T07:38:02</time></trkpt><trkpt lat="55.8102410" lon="49.1000070"><time>2021-08-14T07:38:03</time></trkpt><trkpt lat="55.8102300" lon="49.0999880"><time>2021-08-14T07:38:04</time></trkpt><trkpt lat="55.8102230" lon="49.0999630"><time>2021-08-14T07:38:05</time></trkpt><trkpt lat="55.8102120" lon="49.0999360"><time>2021-08-14T07:38:06</time></trkpt><trkpt lat="55.8101970" lon="49.0998970"><time>2021-08-14T07:38:07</time></trkpt><trkpt lat="55.8101880" lon="49.0998860"><time>2021-08-14T07:38:08</time></trkpt><trkpt lat="55.8101750" lon="49.0998650"><time>2021-08-14T07:38:09</time></trkpt><trkpt lat="55.8101620" lon="49.0998480"><time>2021-08-14T07:38:10</time></trkpt><trkpt lat="55.8101560" lon="49.0998230"><time>2021-08-14T07:38:11</time></trkpt><trkpt lat="55.8101480" lon="49.0997950"><time>2021-08-14T07:38:12</time></trkpt><trkpt lat="55.8101370" lon="49.0997780"><time>2021-08-14T07:38:13</time></trkpt><trkpt lat="55.8101280" lon="49.0997570"><time>2021-08-14T07:38:14</time></trkpt><trkpt lat="55.8101140" lon="49.0997340"><time>2021-08-14T07:38:15</time></trkpt><trkpt lat="55.8101060" lon="49.0997170"><time>2021-08-14T07:38:16</time></trkpt><trkpt lat="55.8101000" lon="49.0996940"><time>2021-08-14T07:38:17</time></trkpt><trkpt lat="55.8100940" lon="49.0996680"><time>2021-08-14T07:38:18</time></trkpt><trkpt lat="55.8100820" lon="49.0996300"><time>2021-08-14T07:38:19</time></trkpt><trkpt lat="55.8100760" lon="49.0996130"><time>2021-08-14T07:38:21</time></trkpt><trkpt lat="55.8100700" lon="49.0995950"><time>2021-08-14T07:38:22</time></trkpt><trkpt lat="55.8100640" lon="49.0995780"><time>2021-08-14T07:38:23</time></trkpt><trkpt lat="55.8100580" lon="49.0995610"><time>2021-08-14T07:38:24</time></trkpt><trkpt lat="55.8100510" lon="49.0995390"><time>2021-08-14T07:38:25</time></trkpt><trkpt lat="55.8100400" lon="49.0995120"><time>2021-08-14T07:38:26</time></trkpt><trkpt lat="55.8100320" lon="49.0994930"><time>2021-08-14T07:38:27</time></trkpt><trkpt lat="55.8100220" lon="49.0994720"><time>2021-08-14T07:38:28</time></trkpt><trkpt lat="55.8100160" lon="49.0994490"><time>2021-08-14T07:38:29</time></trkpt><trkpt lat="55.8100110" lon="49.0994170"><time>2021-08-14T07:38:30</time></trkpt><trkpt lat="55.8100050" lon="49.0993880"><time>2021-08-14T07:38:31</time></trkpt><trkpt lat="55.8099940" lon="49.0993610"><time>2021-08-14T07:38:32</time></trkpt><trkpt lat="55.8099850" lon="49.0993410"><time>2021-08-14T07:38:33</time></trkpt><trkpt lat="55.8099780" lon="49.0993230"><time>2021-08-14T07:38:34</time></trkpt><trkpt lat="55.8099750" lon="49.0992920"><time>2021-08-14T07:38:35</time></trkpt><trkpt lat="55.8099700" lon="49.0992640"><time>2021-08-14T07:38:36</time></trkpt><trkpt lat="55.8099580" lon="49.0992450"><time>2021-08-14T07:38:37</time></trkpt><trkpt lat="55.8099490" lon="49.0992260"><time>2021-08-14T07:38:38</time></trkpt><trkpt lat="55.8099390" lon="49.0991800"><time>2021-08-14T07:38:39</time></trkpt><trkpt lat="55.8099340" lon="49.0991660"><time>2021-08-14T07:38:40</time></trkpt><trkpt lat="55.8099230" lon="49.0991430"><time>2021-08-14T07:38:41</time></trkpt><trkpt lat="55.8099150" lon="49.0991200"><time>2021-08-14T07:38:42</time></trkpt><trkpt lat="55.8099050" lon="49.0991000"><time>2021-08-14T07:38:43</time></trkpt><trkpt lat="55.8098990" lon="49.0990710"><time>2021-08-14T07:38:44</time></trkpt><trkpt lat="55.8098860" lon="49.0990470"><time>2021-08-14T07:38:45</time></trkpt><trkpt lat="55.8098850" lon="49.0990200"><time>2021-08-14T07:38:46</time></trkpt><trkpt lat="55.8098810" lon="49.0989960"><time>2021-08-14T07:38:47</time></trkpt><trkpt lat="55.8098760" lon="49.0989750"><time>2021-08-14T07:38:48</time></trkpt><trkpt lat="55.8098690" lon="49.0989500"><time>2021-08-14T07:38:49</time></trkpt><trkpt lat="55.8098630" lon="49.0989280"><time>2021-08-14T07:38:50</time></trkpt><trkpt lat="55.8098530" lon="49.0989040"><time>2021-08-14T07:38:51</time></trkpt><trkpt lat="55.8098510" lon="49.0988760"><time>2021-08-14T07:38:52</time></trkpt><trkpt lat="55.8098410" lon="49.0988440"><time>2021-08-14T07:38:53</time></trkpt><trkpt lat="55.8098340" lon="49.0988320"><time>2021-08-14T07:38:54</time></trkpt><trkpt lat="55.8098280" lon="49.0988210"><time>2021-08-14T07:38:55</time></trkpt><trkpt lat="55.8098160" lon="49.0988010"><time>2021-08-14T07:38:56</time></trkpt><trkpt lat="55.8098130" lon="49.0987720"><time>2021-08-14T07:38:57</time></trkpt><trkpt lat="55.8098100" lon="49.0987450"><time>2021-08-14T07:38:58</time></trkpt><trkpt lat="55.8098070" lon="49.0987220"><time>2021-08-14T07:38:59</time></trkpt><trkpt lat="55.8097870" lon="49.0986770"><time>2021-08-14T07:39:00</time></trkpt><trkpt lat="55.8097830" lon="49.0986450"><time>2021-08-14T07:39:01</time></trkpt><trkpt lat="55.8097780" lon="49.0986210"><time>2021-08-14T07:39:02</time></trkpt><trkpt lat="55.8097760" lon="49.0985950"><time>2021-08-14T07:39:03</time></trkpt><trkpt lat="55.8097760" lon="49.0985670"><time>2021-08-14T07:39:04</time></trkpt><trkpt lat="55.8097650" lon="49.0985460"><time>2021-08-14T07:39:05</time></trkpt><trkpt lat="55.8097620" lon="49.0985240"><time>2021-08-14T07:39:06</time></trkpt><trkpt lat="55.8097600" lon="49.0984970"><time>2021-08-14T07:39:07</time></trkpt><trkpt lat="55.8097610" lon="49.0984690"><time>2021-08-14T07:39:08</time></trkpt><trkpt lat="55.8097520" lon="49.0984410"><time>2021-08-14T07:39:09</time></trkpt><trkpt lat="55.8097440" lon="49.0984180"><time>2021-08-14T07:39:10</time></trkpt><trkpt lat="55.8097340" lon="49.0983860"><time>2021-08-14T07:39:11</time></trkpt><trkpt lat="55.8097300" lon="49.0983620"><time>2021-08-14T07:39:12</time></trkpt><trkpt lat="55.8097270" lon="49.0983060"><time>2021-08-14T07:39:13</time></trkpt><trkpt lat="55.8097270" lon="49.0982900"><time>2021-08-14T07:39:14</time></trkpt><trkpt lat="55.8097190" lon="49.0982430"><time>2021-08-14T07:39:15</time></trkpt><trkpt lat="55.8097140" lon="49.0982300"><time>2021-08-14T07:39:16</time></trkpt><trkpt lat="55.8097160" lon="49.0981990"><time>2021-08-14T07:39:17</time></trkpt><trkpt lat="55.8097120" lon="49.0981690"><time>2021-08-14T07:39:18</time></trkpt><trkpt lat="55.8097140" lon="49.0981410"><time>2021-08-14T07:39:19</time></trkpt><trkpt lat="55.8097160" lon="49.0981080"><time>2021-08-14T07:39:20</time></trkpt><trkpt lat="55.8097180" lon="49.0980790"><time>2021-08-14T07:39:21</time></trkpt><trkpt lat="55.8097130" lon="49.0980460"><time>2021-08-14T07:39:22</time></trkpt><trkpt lat="55.8097110" lon="49.0980200"><time>2021-08-14T07:39:23</time></trkpt><trkpt lat="55.8097080" lon="49.0979950"><time>2021-08-14T07:39:24</time></trkpt><trkpt lat="55.8097140" lon="49.0979610"><time>2021-08-14T07:39:25</time></trkpt><trkpt lat="55.8097110" lon="49.0979390"><time>2021-08-14T07:39:26</time></trkpt><trkpt lat="55.8097160" lon="49.0979360"><time>2021-08-14T07:39:27</time></trkpt><trkpt lat="55.8097150" lon="49.0979190"><time>2021-08-14T07:39:28</time></trkpt><trkpt lat="55.8097140" lon="49.0978980"><time>2021-08-14T07:39:29</time></trkpt><trkpt lat="55.8097120" lon="49.0978820"><time>2021-08-14T07:39:30</time></trkpt><trkpt lat="55.8097140" lon="49.0978590"><time>2021-08-14T07:39:31</time></trkpt><trkpt lat="55.8097130" lon="49.0978380"><time>2021-08-14T07:39:32</time></trkpt><trkpt lat="55.8097140" lon="49.0978310"><time>2021-08-14T07:39:33</time></trkpt><trkpt lat="55.8097130" lon="49.0978250"><time>2021-08-14T07:39:34</time></trkpt><trkpt lat="55.8097080" lon="49.0978110"><time>2021-08-14T07:39:35</time></trkpt><trkpt lat="55.8097000" lon="49.0977900"><time>2021-08-14T07:39:36</time></trkpt><trkpt lat="55.8097000" lon="49.0977890"><time>2021-08-14T07:39:37</time></trkpt><trkpt lat="55.8097000" lon="49.0977920"><time>2021-08-14T07:39:38</time></trkpt><trkpt lat="55.8096950" lon="49.0977980"><time>2021-08-14T07:39:39</time></trkpt><trkpt lat="55.8096800" lon="49.0978150"><time>2021-08-14T07:39:40</time></trkpt><trkpt lat="55.8096750" lon="49.0978160"><time>2021-08-14T07:39:41</time></trkpt><trkpt lat="55.8096770" lon="49.0978220"><time>2021-08-14T07:39:42</time></trkpt><trkpt lat="55.8096770" lon="49.0978240"><time>2021-08-14T07:39:43</time></trkpt><trkpt lat="55.8096700" lon="49.0978410"><time>2021-08-14T07:39:44</time></trkpt><trkpt lat="55.8096710" lon="49.0978420"><time>2021-08-14T07:39:45</time></trkpt><trkpt lat="55.8096530" lon="49.0978480"><time>2021-08-14T07:39:46</time></trkpt><trkpt lat="55.8096530" lon="49.0978480"><time>2021-08-14T07:39:47</time></trkpt><trkpt lat="55.8096420" lon="49.0978550"><time>2021-08-14T07:39:48</time></trkpt><trkpt lat="55.8096410" lon="49.0978570"><time>2021-08-14T07:39:49</time></trkpt><trkpt lat="55.8096390" lon="49.0978630"><time>2021-08-14T07:39:50</time></trkpt><trkpt lat="55.8096380" lon="49.0978650"><time>2021-08-14T07:39:51</time></trkpt><trkpt lat="55.8096380" lon="49.0978720"><time>2021-08-14T07:39:52</time></trkpt><trkpt lat="55.8096400" lon="49.0978760"><time>2021-08-14T07:39:53</time></trkpt><trkpt lat="55.8096420" lon="49.0978520"><time>2021-08-14T07:39:54</time></trkpt><trkpt lat="55.8096390" lon="49.0978400"><time>2021-08-14T07:39:55</time></trkpt><trkpt lat="55.8096550" lon="49.0978230"><time>2021-08-14T07:39:56</time></trkpt><trkpt lat="55.8096600" lon="49.0977890"><time>2021-08-14T07:39:57</time></trkpt><trkpt lat="55.8096870" lon="49.0977500"><time>2021-08-14T07:39:58</time></trkpt><trkpt lat="55.8096970" lon="49.0977370"><time>2021-08-14T07:39:59</time></trkpt><trkpt lat="55.8097050" lon="49.0977200"><time>2021-08-14T07:40:00</time></trkpt><trkpt lat="55.8097090" lon="49.0976920"><time>2021-08-14T07:40:01</time></trkpt><trkpt lat="55.8097290" lon="49.0976490"><time>2021-08-14T07:40:02</time></trkpt><trkpt lat="55.8097380" lon="49.0976360"><time>2021-08-14T07:40:03</time></trkpt><trkpt lat="55.8097480" lon="49.0976190"><time>2021-08-14T07:40:04</time></trkpt><trkpt lat="55.8097610" lon="49.0976060"><time>2021-08-14T07:40:05</time></trkpt><trkpt lat="55.8097730" lon="49.0975820"><time>2021-08-14T07:40:06</time></trkpt><trkpt lat="55.8097810" lon="49.0975640"><time>2021-08-14T07:40:07</time></trkpt><trkpt lat="55.8097880" lon="49.0975470"><time>2021-08-14T07:40:08</time></trkpt><trkpt lat="55.8097950" lon="49.0975290"><time>2021-08-14T07:40:09</time></trkpt><trkpt lat="55.8098250" lon="49.0975110"><time>2021-08-14T07:40:10</time></trkpt><trkpt lat="55.8098340" lon="49.0975040"><time>2021-08-14T07:40:11</time></trkpt><trkpt lat="55.8098440" lon="49.0975040"><time>2021-08-14T07:40:12</time></trkpt><trkpt lat="55.8098530" lon="49.0975000"><time>2021-08-14T07:40:13</time></trkpt><trkpt lat="55.8098660" lon="49.0974910"><time>2021-08-14T07:40:14</time></trkpt><trkpt lat="55.8098820" lon="49.0974680"><time>2021-08-14T07:40:15</time></trkpt><trkpt lat="55.8098800" lon="49.0974500"><time>2021-08-14T07:40:16</time></trkpt><trkpt lat="55.8098790" lon="49.0974320"><time>2021-08-14T07:40:17</time></trkpt><trkpt lat="55.8098770" lon="49.0974140"><time>2021-08-14T07:40:18</time></trkpt><trkpt lat="55.8098580" lon="49.0973560"><time>2021-08-14T07:40:19</time></trkpt><trkpt lat="55.8098550" lon="49.0973350"><time>2021-08-14T07:40:20</time></trkpt><trkpt lat="55.8098430" lon="49.0972730"><time>2021-08-14T07:40:21</time></trkpt><trkpt lat="55.8098390" lon="49.0972500"><time>2021-08-14T07:40:22</time></trkpt><trkpt lat="55.8098340" lon="49.0972180"><time>2021-08-14T07:40:23</time></trkpt><trkpt lat="55.8098260" lon="49.0971970"><time>2021-08-14T07:40:24</time></trkpt><trkpt lat="55.8098160" lon="49.0971740"><time>2021-08-14T07:40:25</time></trkpt><trkpt lat="55.8098070" lon="49.0971370"><time>2021-08-14T07:40:27</time></trkpt><trkpt lat="55.8097950" lon="49.0970820"><time>2021-08-14T07:40:28</time></trkpt><trkpt lat="55.8097920" lon="49.0970620"><time>2021-08-14T07:40:29</time></trkpt><trkpt lat="55.8097740" lon="49.0970190"><time>2021-08-14T07:40:30</time></trkpt><trkpt lat="55.8097690" lon="49.0970080"><time>2021-08-14T07:40:31</time></trkpt><trkpt lat="55.8097590" lon="49.0969870"><time>2021-08-14T07:40:32</time></trkpt><trkpt lat="55.8097460" lon="49.0969670"><time>2021-08-14T07:40:33</time></trkpt><trkpt lat="55.8097390" lon="49.0969390"><time>2021-08-14T07:40:34</time></trkpt><trkpt lat="55.8097310" lon="49.0969180"><time>2021-08-14T07:40:35</time></trkpt><trkpt lat="55.8097270" lon="49.0968870"><time>2021-08-14T07:40:36</time></trkpt><trkpt lat="55.8097160" lon="49.0968610"><time>2021-08-14T07:40:37</time></trkpt><trkpt lat="55.8097050" lon="49.0968150"><time>2021-08-14T07:40:38</time></trkpt><trkpt lat="55.8096990" lon="49.0968000"><time>2021-08-14T07:40:39</time></trkpt><trkpt lat="55.8096820" lon="49.0967860"><time>2021-08-14T07:40:40</time></trkpt><trkpt lat="55.8096700" lon="49.0967670"><time>2021-08-14T07:40:41</time></trkpt><trkpt lat="55.8096460" lon="49.0967460"><time>2021-08-14T07:40:42</time></trkpt><trkpt lat="55.8096370" lon="49.0967390"><time>2021-08-14T07:40:43</time></trkpt><trkpt lat="55.8096120" lon="49.0967150"><time>2021-08-14T07:40:44</time></trkpt><trkpt lat="55.8096040" lon="49.0967070"><time>2021-08-14T07:40:45</time></trkpt><trkpt lat="55.8095790" lon="49.0966870"><time>2021-08-14T07:40:46</time></trkpt><trkpt lat="55.8095700" lon="49.0966810"><time>2021-08-14T07:40:47</time></trkpt><trkpt lat="55.8095570" lon="49.0966630"><time>2021-08-14T07:40:48</time></trkpt><trkpt lat="55.8095420" lon="49.0966490"><time>2021-08-14T07:40:49</time></trkpt><trkpt lat="55.8095270" lon="49.0966350"><time>2021-08-14T07:40:50</time></trkpt><trkpt lat="55.8095110" lon="49.0966230"><time>2021-08-14T07:40:51</time></trkpt><trkpt lat="55.8094950" lon="49.0966110"><time>2021-08-14T07:40:52</time></trkpt><trkpt lat="55.8094820" lon="49.0965970"><time>2021-08-14T07:40:53</time></trkpt><trkpt lat="55.8094700" lon="49.0965790"><time>2021-08-14T07:40:54</time></trkpt><trkpt lat="55.8094600" lon="49.0965630"><time>2021-08-14T07:40:55</time></trkpt><trkpt lat="55.8094470" lon="49.0965440"><time>2021-08-14T07:40:56</time></trkpt><trkpt lat="55.8094340" lon="49.0965280"><time>2021-08-14T07:40:57</time></trkpt><trkpt lat="55.8094240" lon="49.0965050"><time>2021-08-14T07:40:58</time></trkpt><trkpt lat="55.8094160" lon="49.0964820"><time>2021-08-14T07:40:59</time></trkpt><trkpt lat="55.8093980" lon="49.0964710"><time>2021-08-14T07:41:00</time></trkpt><trkpt lat="55.8093950" lon="49.0964480"><time>2021-08-14T07:41:01</time></trkpt><trkpt lat="55.8093910" lon="49.0964240"><time>2021-08-14T07:41:02</time></trkpt><trkpt lat="55.8093880" lon="49.0964010"><time>2021-08-14T07:41:03</time></trkpt><trkpt lat="55.8093750" lon="49.0963940"><time>2021-08-14T07:41:04</time></trkpt><trkpt lat="55.8093690" lon="49.0963770"><time>2021-08-14T07:41:05</time></trkpt><trkpt lat="55.8093650" lon="49.0963590"><time>2021-08-14T07:41:06</time></trkpt><trkpt lat="55.8093580" lon="49.0963390"><time>2021-08-14T07:41:07</time></trkpt><trkpt lat="55.8093490" lon="49.0963180"><time>2021-08-14T07:41:08</time></trkpt><trkpt lat="55.8093350" lon="49.0963080"><time>2021-08-14T07:41:09</time></trkpt><trkpt lat="55.8093190" lon="49.0962940"><time>2021-08-14T07:41:10</time></trkpt><trkpt lat="55.8092890" lon="49.0962770"><time>2021-08-14T07:41:11</time></trkpt><trkpt lat="55.8092800" lon="49.0962730"><time>2021-08-14T07:41:12</time></trkpt><trkpt lat="55.8092510" lon="49.0962580"><time>2021-08-14T07:41:13</time></trkpt><trkpt lat="55.8092410" lon="49.0962530"><time>2021-08-14T07:41:14</time></trkpt><trkpt lat="55.8092200" lon="49.0962210"><time>2021-08-14T07:41:15</time></trkpt><trkpt lat="55.8092130" lon="49.0962080"><time>2021-08-14T07:41:16</time></trkpt><trkpt lat="55.8092050" lon="49.0961810"><time>2021-08-14T07:41:17</time></trkpt><trkpt lat="55.8091960" lon="49.0961580"><time>2021-08-14T07:41:18</time></trkpt><trkpt lat="55.8091830" lon="49.0961170"><time>2021-08-14T07:41:19</time></trkpt><trkpt lat="55.8091760" lon="49.0961030"><time>2021-08-14T07:41:20</time></trkpt><trkpt lat="55.8091650" lon="49.0960520"><time>2021-08-14T07:41:21</time></trkpt><trkpt lat="55.8091650" lon="49.0960360"><time>2021-08-14T07:41:22</time></trkpt><trkpt lat="55.8091850" lon="49.0959930"><time>2021-08-14T07:41:23</time></trkpt><trkpt lat="55.8091920" lon="49.0959800"><time>2021-08-14T07:41:24</time></trkpt><trkpt lat="55.8092020" lon="49.0959590"><time>2021-08-14T07:41:25</time></trkpt><trkpt lat="55.8092120" lon="49.0959330"><time>2021-08-14T07:41:26</time></trkpt><trkpt lat="55.8092190" lon="49.0959060"><time>2021-08-14T07:41:27</time></trkpt><trkpt lat="55.8092270" lon="49.0958820"><time>2021-08-14T07:41:28</time></trkpt><trkpt lat="55.8092340" lon="49.0958540"><time>2021-08-14T07:41:29</time></trkpt><trkpt lat="55.8092450" lon="49.0958310"><time>2021-08-14T07:41:30</time></trkpt><trkpt lat="55.8092530" lon="49.0958070"><time>2021-08-14T07:41:31</time></trkpt><trkpt lat="55.8092590" lon="49.0957810"><time>2021-08-14T07:41:32</time></trkpt><trkpt lat="55.8092680" lon="49.0957580"><time>2021-08-14T07:41:33</time></trkpt><trkpt lat="55.8092740" lon="49.0957310"><time>2021-08-14T07:41:34</time></trkpt><trkpt lat="55.8092900" lon="49.0956780"><time>2021-08-14T07:41:35</time></trkpt><trkpt lat="55.8093020" lon="49.0956600"><time>2021-08-14T07:41:36</time></trkpt><trkpt lat="55.8093110" lon="49.0956320"><time>2021-08-14T07:41:37</time></trkpt><trkpt lat="55.8093200" lon="49.0956090"><time>2021-08-14T07:41:38</time></trkpt><trkpt lat="55.8093250" lon="49.0955800"><time>2021-08-14T07:41:39</time></trkpt><trkpt lat="55.8093360" lon="49.0955580"><time>2021-08-14T07:41:40</time></trkpt><trkpt lat="55.8093450" lon="49.0955340"><time>2021-08-14T07:41:41</time></trkpt><trkpt lat="55.8093530" lon="49.0955090"><time>2021-08-14T07:41:42</time></trkpt><trkpt lat="55.8093580" lon="49.0954800"><time>2021-08-14T07:41:43</time></trkpt><trkpt lat="55.8093600" lon="49.0954490"><time>2021-08-14T07:41:44</time></trkpt><trkpt lat="55.8093670" lon="49.0954230"><time>2021-08-14T07:41:45</time></trkpt><trkpt lat="55.8093700" lon="49.0953960"><time>2021-08-14T07:41:46</time></trkpt><trkpt lat="55.8093820" lon="49.0953730"><time>2021-08-14T07:41:47</time></trkpt><trkpt lat="55.8093920" lon="49.0953490"><time>2021-08-14T07:41:48</time></trkpt><trkpt lat="55.8093970" lon="49.0953210"><time>2021-08-14T07:41:49</time></trkpt><trkpt lat="55.8094040" lon="49.0952930"><time>2021-08-14T07:41:50</time></trkpt><trkpt lat="55.8094120" lon="49.0952640"><time>2021-08-14T07:41:51</time></trkpt><trkpt lat="55.8094200" lon="49.0952370"><time>2021-08-14T07:41:52</time></trkpt><trkpt lat="55.8094380" lon="49.0952230"><time>2021-08-14T07:41:53</time></trkpt><trkpt lat="55.8094490" lon="49.0952050"><time>2021-08-14T07:41:54</time></trkpt><trkpt lat="55.8094600" lon="49.0951840"><time>2021-08-14T07:41:55</time></trkpt><trkpt lat="55.8094670" lon="49.0951630"><time>2021-08-14T07:41:56</time></trkpt><trkpt lat="55.8094780" lon="49.0951450"><time>2021-08-14T07:41:57</time></trkpt><trkpt lat="55.8094890" lon="49.0951200"><time>2021-08-14T07:41:58</time></trkpt><trkpt lat="55.8094930" lon="49.0951050"><time>2021-08-14T07:41:59</time></trkpt><trkpt lat="55.8094970" lon="49.0950890"><time>2021-08-14T07:42:00</time></trkpt><trkpt lat="55.8095030" lon="49.0950670"><time>2021-08-14T07:42:01</time></trkpt><trkpt lat="55.8095070" lon="49.0950440"><time>2021-08-14T07:42:02</time></trkpt><trkpt lat="55.8095140" lon="49.0950230"><time>2021-08-14T07:42:03</time></trkpt><trkpt lat="55.8095250" lon="49.0950010"><time>2021-08-14T07:42:04</time></trkpt><trkpt lat="55.8095370" lon="49.0949850"><time>2021-08-14T07:42:05</time></trkpt><trkpt lat="55.8095440" lon="49.0949660"><time>2021-08-14T07:42:06</time></trkpt><trkpt lat="55.8095490" lon="49.0949280"><time>2021-08-14T07:42:07</time></trkpt><trkpt lat="55.8095500" lon="49.0949110"><time>2021-08-14T07:42:08</time></trkpt><trkpt lat="55.8095510" lon="49.0948940"><time>2021-08-14T07:42:09</time></trkpt><trkpt lat="55.8095620" lon="49.0948730"><time>2021-08-14T07:42:10</time></trkpt><trkpt lat="55.8095670" lon="49.0948480"><time>2021-08-14T07:42:11</time></trkpt><trkpt lat="55.8095720" lon="49.0948230"><time>2021-08-14T07:42:12</time></trkpt><trkpt lat="55.8095790" lon="49.0948010"><time>2021-08-14T07:42:13</time></trkpt><trkpt lat="55.8095840" lon="49.0947750"><time>2021-08-14T07:42:14</time></trkpt><trkpt lat="55.8095900" lon="49.0947490"><time>2021-08-14T07:42:15</time></trkpt><trkpt lat="55.8096040" lon="49.0947260"><time>2021-08-14T07:42:16</time></trkpt><trkpt lat="55.8096060" lon="49.0946980"><time>2021-08-14T07:42:17</time></trkpt><trkpt lat="55.8096180" lon="49.0946720"><time>2021-08-14T07:42:18</time></trkpt><trkpt lat="55.8096240" lon="49.0946530"><time>2021-08-14T07:42:19</time></trkpt><trkpt lat="55.8096320" lon="49.0946290"><time>2021-08-14T07:42:20</time></trkpt><trkpt lat="55.8096380" lon="49.0946140"><time>2021-08-14T07:42:21</time></trkpt><trkpt lat="55.8096450" lon="49.0945980"><time>2021-08-14T07:42:22</time></trkpt><trkpt lat="55.8096580" lon="49.0945680"><time>2021-08-14T07:42:23</time></trkpt><trkpt lat="55.8096620" lon="49.0945550"><time>2021-08-14T07:42:24</time></trkpt><trkpt lat="55.8096660" lon="49.0945430"><time>2021-08-14T07:42:25</time></trkpt><trkpt lat="55.8096560" lon="49.0945290"><time>2021-08-14T07:42:26</time></trkpt><trkpt lat="55.8096470" lon="49.0945070"><time>2021-08-14T07:42:27</time></trkpt><trkpt lat="55.8096370" lon="49.0944930"><time>2021-08-14T07:42:28</time></trkpt><trkpt lat="55.8096400" lon="49.0944820"><time>2021-08-14T07:42:29</time></trkpt><trkpt lat="55.8096320" lon="49.0944500"><time>2021-08-14T07:42:30</time></trkpt><trkpt lat="55.8096100" lon="49.0944270"><time>2021-08-14T07:42:31</time></trkpt><trkpt lat="55.8095980" lon="49.0944140"><time>2021-08-14T07:42:33</time></trkpt><trkpt lat="55.8095870" lon="49.0944020"><time>2021-08-14T07:42:34</time></trkpt><trkpt lat="55.8095610" lon="49.0943770"><time>2021-08-14T07:42:35</time></trkpt><trkpt lat="55.8095350" lon="49.0943510"><time>2021-08-14T07:42:36</time></trkpt><trkpt lat="55.8095260" lon="49.0943430"><time>2021-08-14T07:42:37</time></trkpt><trkpt lat="55.8095110" lon="49.0943310"><time>2021-08-14T07:42:38</time></trkpt><trkpt lat="55.8094990" lon="49.0943130"><time>2021-08-14T07:42:39</time></trkpt><trkpt lat="55.8094950" lon="49.0942940"><time>2021-08-14T07:42:40</time></trkpt><trkpt lat="55.8094810" lon="49.0942750"><time>2021-08-14T07:42:41</time></trkpt><trkpt lat="55.8094500" lon="49.0942500"><time>2021-08-14T07:42:42</time></trkpt><trkpt lat="55.8094430" lon="49.0942400"><time>2021-08-14T07:42:43</time></trkpt><trkpt lat="55.8094140" lon="49.0942210"><time>2021-08-14T07:42:44</time></trkpt><trkpt lat="55.8094050" lon="49.0942140"><time>2021-08-14T07:42:45</time></trkpt><trkpt lat="55.8093760" lon="49.0941930"><time>2021-08-14T07:42:46</time></trkpt><trkpt lat="55.8093580" lon="49.0941710"><time>2021-08-14T07:42:47</time></trkpt><trkpt lat="55.8093480" lon="49.0941610"><time>2021-08-14T07:42:48</time></trkpt><trkpt lat="55.8093390" lon="49.0941500"><time>2021-08-14T07:42:49</time></trkpt><trkpt lat="55.8093230" lon="49.0941370"><time>2021-08-14T07:42:50</time></trkpt><trkpt lat="55.8093060" lon="49.0941230"><time>2021-08-14T07:42:51</time></trkpt><trkpt lat="55.8092890" lon="49.0941130"><time>2021-08-14T07:42:52</time></trkpt><trkpt lat="55.8092780" lon="49.0940980"><time>2021-08-14T07:42:53</time></trkpt><trkpt lat="55.8092630" lon="49.0940660"><time>2021-08-14T07:42:54</time></trkpt><trkpt lat="55.8092530" lon="49.0940560"><time>2021-08-14T07:42:55</time></trkpt><trkpt lat="55.8092270" lon="49.0940270"><time>2021-08-14T07:42:56</time></trkpt><trkpt lat="55.8092210" lon="49.0940190"><time>2021-08-14T07:42:57</time></trkpt><trkpt lat="55.8091990" lon="49.0939920"><time>2021-08-14T07:42:58</time></trkpt><trkpt lat="55.8091900" lon="49.0939840"><time>2021-08-14T07:42:59</time></trkpt><trkpt lat="55.8091710" lon="49.0939630"><time>2021-08-14T07:43:00</time></trkpt><trkpt lat="55.8091720" lon="49.0939410"><time>2021-08-14T07:43:01</time></trkpt><trkpt lat="55.8091580" lon="49.0939200"><time>2021-08-14T07:43:02</time></trkpt><trkpt lat="55.8091410" lon="49.0939030"><time>2021-08-14T07:43:03</time></trkpt><trkpt lat="55.8091280" lon="49.0938980"><time>2021-08-14T07:43:04</time></trkpt><trkpt lat="55.8090990" lon="49.0938660"><time>2021-08-14T07:43:05</time></trkpt><trkpt lat="55.8090800" lon="49.0938520"><time>2021-08-14T07:43:06</time></trkpt><trkpt lat="55.8090640" lon="49.0938460"><time>2021-08-14T07:43:07</time></trkpt><trkpt lat="55.8090470" lon="49.0938320"><time>2021-08-14T07:43:08</time></trkpt><trkpt lat="55.8090350" lon="49.0938230"><time>2021-08-14T07:43:09</time></trkpt><trkpt lat="55.8090180" lon="49.0938130"><time>2021-08-14T07:43:10</time></trkpt><trkpt lat="55.8090020" lon="49.0938040"><time>2021-08-14T07:43:11</time></trkpt><trkpt lat="55.8089840" lon="49.0937840"><time>2021-08-14T07:43:12</time></trkpt><trkpt lat="55.8089710" lon="49.0937750"><time>2021-08-14T07:43:13</time></trkpt><trkpt lat="55.8089440" lon="49.0937470"><time>2021-08-14T07:43:14</time></trkpt><trkpt lat="55.8089390" lon="49.0937440"><time>2021-08-14T07:43:15</time></trkpt><trkpt lat="55.8089140" lon="49.0937240"><time>2021-08-14T07:43:16</time></trkpt><trkpt lat="55.8089060" lon="49.0937210"><time>2021-08-14T07:43:17</time></trkpt><trkpt lat="55.8088830" lon="49.0937050"><time>2021-08-14T07:43:18</time></trkpt><trkpt lat="55.8088750" lon="49.0936950"><time>2021-08-14T07:43:19</time></trkpt><trkpt lat="55.8088550" lon="49.0936740"><time>2021-08-14T07:43:20</time></trkpt><trkpt lat="55.8088270" lon="49.0936530"><time>2021-08-14T07:43:21</time></trkpt><trkpt lat="55.8088170" lon="49.0936470"><time>2021-08-14T07:43:22</time></trkpt><trkpt lat="55.8087930" lon="49.0936200"><time>2021-08-14T07:43:23</time></trkpt><trkpt lat="55.8087840" lon="49.0936120"><time>2021-08-14T07:43:24</time></trkpt><trkpt lat="55.8087640" lon="49.0935780"><time>2021-08-14T07:43:25</time></trkpt><trkpt lat="55.8087560" lon="49.0935690"><time>2021-08-14T07:43:26</time></trkpt><trkpt lat="55.8087410" lon="49.0935520"><time>2021-08-14T07:43:27</time></trkpt><trkpt lat="55.8087260" lon="49.0935340"><time>2021-08-14T07:43:28</time></trkpt><trkpt lat="55.8087100" lon="49.0935200"><time>2021-08-14T07:43:29</time></trkpt><trkpt lat="55.8086950" lon="49.0935050"><time>2021-08-14T07:43:30</time></trkpt><trkpt lat="55.8086820" lon="49.0934830"><time>2021-08-14T07:43:31</time></trkpt><trkpt lat="55.8086720" lon="49.0934610"><time>2021-08-14T07:43:32</time></trkpt><trkpt lat="55.8086580" lon="49.0934410"><time>2021-08-14T07:43:33</time></trkpt><trkpt lat="55.8086440" lon="49.0934260"><time>2021-08-14T07:43:34</time></trkpt><trkpt lat="55.8086290" lon="49.0934100"><time>2021-08-14T07:43:35</time></trkpt><trkpt lat="55.8086130" lon="49.0933960"><time>2021-08-14T07:43:36</time></trkpt><trkpt lat="55.8085990" lon="49.0933790"><time>2021-08-14T07:43:37</time></trkpt><trkpt lat="55.8085870" lon="49.0933570"><time>2021-08-14T07:43:38</time></trkpt><trkpt lat="55.8085740" lon="49.0933400"><time>2021-08-14T07:43:39</time></trkpt><trkpt lat="55.8085600" lon="49.0933230"><time>2021-08-14T07:43:40</time></trkpt><trkpt lat="55.8085340" lon="49.0933030"><time>2021-08-14T07:43:41</time></trkpt><trkpt lat="55.8085250" lon="49.0932990"><time>2021-08-14T07:43:42</time></trkpt><trkpt lat="55.8085110" lon="49.0932820"><time>2021-08-14T07:43:43</time></trkpt><trkpt lat="55.8084970" lon="49.0932630"><time>2021-08-14T07:43:44</time></trkpt><trkpt lat="55.8084830" lon="49.0932460"><time>2021-08-14T07:43:45</time></trkpt><trkpt lat="55.8084700" lon="49.0932270"><time>2021-08-14T07:43:46</time></trkpt><trkpt lat="55.8084550" lon="49.0932140"><time>2021-08-14T07:43:47</time></trkpt><trkpt lat="55.8084410" lon="49.0931930"><time>2021-08-14T07:43:48</time></trkpt><trkpt lat="55.8084240" lon="49.0931850"><time>2021-08-14T07:43:49</time></trkpt><trkpt lat="55.8084100" lon="49.0931660"><time>2021-08-14T07:43:50</time></trkpt><trkpt lat="55.8083850" lon="49.0931410"><time>2021-08-14T07:43:51</time></trkpt><trkpt lat="55.8083770" lon="49.0931310"><time>2021-08-14T07:43:52</time></trkpt><trkpt lat="55.8083610" lon="49.0931180"><time>2021-08-14T07:43:53</time></trkpt><trkpt lat="55.8083460" lon="49.0931010"><time>2021-08-14T07:43:54</time></trkpt><trkpt lat="55.8083300" lon="49.0930870"><time>2021-08-14T07:43:55</time></trkpt><trkpt lat="55.8083170" lon="49.0930680"><time>2021-08-14T07:43:56</time></trkpt><trkpt lat="55.8083020" lon="49.0930550"><time>2021-08-14T07:43:57</time></trkpt><trkpt lat="55.8082910" lon="49.0930390"><time>2021-08-14T07:43:58</time></trkpt><trkpt lat="55.8082750" lon="49.0930270"><time>2021-08-14T07:43:59</time></trkpt><trkpt lat="55.8082610" lon="49.0930170"><time>2021-08-14T07:44:00</time></trkpt><trkpt lat="55.8082460" lon="49.0930040"><time>2021-08-14T07:44:01</time></trkpt><trkpt lat="55.8082280" lon="49.0929910"><time>2021-08-14T07:44:02</time></trkpt><trkpt lat="55.8082130" lon="49.0929800"><time>2021-08-14T07:44:03</time></trkpt><trkpt lat="55.8081960" lon="49.0929690"><time>2021-08-14T07:44:04</time></trkpt><trkpt lat="55.8081780" lon="49.0929290"><time>2021-08-14T07:44:05</time></trkpt><trkpt lat="55.8081710" lon="49.0929170"><time>2021-08-14T07:44:06</time></trkpt><trkpt lat="55.8081590" lon="49.0929020"><time>2021-08-14T07:44:07</time></trkpt><trkpt lat="55.8081500" lon="49.0928840"><time>2021-08-14T07:44:08</time></trkpt><trkpt lat="55.8081390" lon="49.0928610"><time>2021-08-14T07:44:09</time></trkpt><trkpt lat="55.8081280" lon="49.0928410"><time>2021-08-14T07:44:10</time></trkpt><trkpt lat="55.8081200" lon="49.0928190"><time>2021-08-14T07:44:11</time></trkpt><trkpt lat="55.8081100" lon="49.0928010"><time>2021-08-14T07:44:12</time></trkpt><trkpt lat="55.8081020" lon="49.0927800"><time>2021-08-14T07:44:13</time></trkpt><trkpt lat="55.8080890" lon="49.0927570"><time>2021-08-14T07:44:14</time></trkpt><trkpt lat="55.8080800" lon="49.0927350"><time>2021-08-14T07:44:15</time></trkpt><trkpt lat="55.8080700" lon="49.0927200"><time>2021-08-14T07:44:16</time></trkpt><trkpt lat="55.8080580" lon="49.0927020"><time>2021-08-14T07:44:17</time></trkpt><trkpt lat="55.8080450" lon="49.0926820"><time>2021-08-14T07:44:18</time></trkpt><trkpt lat="55.8080300" lon="49.0926590"><time>2021-08-14T07:44:19</time></trkpt><trkpt lat="55.8080200" lon="49.0926400"><time>2021-08-14T07:44:20</time></trkpt><trkpt lat="55.8080110" lon="49.0926180"><time>2021-08-14T07:44:21</time></trkpt><trkpt lat="55.8079970" lon="49.0926040"><time>2021-08-14T07:44:22</time></trkpt><trkpt lat="55.8079890" lon="49.0925880"><time>2021-08-14T07:44:23</time></trkpt><trkpt lat="55.8079770" lon="49.0925580"><time>2021-08-14T07:44:24</time></trkpt><trkpt lat="55.8079630" lon="49.0925420"><time>2021-08-14T07:44:25</time></trkpt><trkpt lat="55.8079480" lon="49.0925290"><time>2021-08-14T07:44:26</time></trkpt><trkpt lat="55.8079340" lon="49.0925120"><time>2021-08-14T07:44:27</time></trkpt><trkpt lat="55.8079210" lon="49.0924950"><time>2021-08-14T07:44:28</time></trkpt><trkpt lat="55.8079120" lon="49.0924630"><time>2021-08-14T07:44:29</time></trkpt><trkpt lat="55.8079010" lon="49.0924520"><time>2021-08-14T07:44:30</time></trkpt><trkpt lat="55.8078950" lon="49.0924270"><time>2021-08-14T07:44:31</time></trkpt><trkpt lat="55.8078840" lon="49.0924070"><time>2021-08-14T07:44:32</time></trkpt><trkpt lat="55.8078770" lon="49.0923840"><time>2021-08-14T07:44:33</time></trkpt><trkpt lat="55.8078710" lon="49.0923600"><time>2021-08-14T07:44:34</time></trkpt><trkpt lat="55.8078570" lon="49.0923430"><time>2021-08-14T07:44:35</time></trkpt><trkpt lat="55.8078500" lon="49.0923200"><time>2021-08-14T07:44:36</time></trkpt><trkpt lat="55.8078410" lon="49.0922980"><time>2021-08-14T07:44:37</time></trkpt><trkpt lat="55.8078420" lon="49.0922680"><time>2021-08-14T07:44:39</time></trkpt><trkpt lat="55.8078330" lon="49.0922450"><time>2021-08-14T07:44:40</time></trkpt><trkpt lat="55.8078320" lon="49.0922150"><time>2021-08-14T07:44:41</time></trkpt><trkpt lat="55.8078260" lon="49.0921890"><time>2021-08-14T07:44:42</time></trkpt><trkpt lat="55.8078210" lon="49.0921660"><time>2021-08-14T07:44:43</time></trkpt><trkpt lat="55.8078210" lon="49.0921390"><time>2021-08-14T07:44:44</time></trkpt><trkpt lat="55.8078220" lon="49.0921120"><time>2021-08-14T07:44:45</time></trkpt><trkpt lat="55.8078240" lon="49.0920830"><time>2021-08-14T07:44:46</time></trkpt><trkpt lat="55.8078240" lon="49.0920550"><time>2021-08-14T07:44:47</time></trkpt><trkpt lat="55.8078140" lon="49.0920330"><time>2021-08-14T07:44:48</time></trkpt><trkpt lat="55.8078110" lon="49.0920040"><time>2021-08-14T07:44:49</time></trkpt><trkpt lat="55.8078240" lon="49.0919730"><time>2021-08-14T07:44:50</time></trkpt><trkpt lat="55.8078230" lon="49.0919450"><time>2021-08-14T07:44:51</time></trkpt><trkpt lat="55.8078230" lon="49.0919190"><time>2021-08-14T07:44:52</time></trkpt><trkpt lat="55.8078310" lon="49.0918860"><time>2021-08-14T07:44:53</time></trkpt><trkpt lat="55.8078370" lon="49.0918590"><time>2021-08-14T07:44:54</time></trkpt><trkpt lat="55.8078360" lon="49.0918290"><time>2021-08-14T07:44:55</time></trkpt><trkpt lat="55.8078380" lon="49.0918000"><time>2021-08-14T07:44:56</time></trkpt><trkpt lat="55.8078410" lon="49.0917730"><time>2021-08-14T07:44:57</time></trkpt><trkpt lat="55.8078390" lon="49.0917460"><time>2021-08-14T07:44:58</time></trkpt><trkpt lat="55.8078370" lon="49.0917190"><time>2021-08-14T07:44:59</time></trkpt><trkpt lat="55.8078390" lon="49.0916940"><time>2021-08-14T07:45:00</time></trkpt><trkpt lat="55.8078510" lon="49.0916660"><time>2021-08-14T07:45:01</time></trkpt><trkpt lat="55.8078520" lon="49.0916350"><time>2021-08-14T07:45:02</time></trkpt><trkpt lat="55.8078530" lon="49.0916070"><time>2021-08-14T07:45:03</time></trkpt><trkpt lat="55.8078540" lon="49.0915810"><time>2021-08-14T07:45:04</time></trkpt><trkpt lat="55.8078600" lon="49.0915530"><time>2021-08-14T07:45:05</time></trkpt><trkpt lat="55.8078610" lon="49.0915240"><time>2021-08-14T07:45:06</time></trkpt><trkpt lat="55.8078680" lon="49.0914950"><time>2021-08-14T07:45:07</time></trkpt><trkpt lat="55.8078660" lon="49.0914630"><time>2021-08-14T07:45:08</time></trkpt><trkpt lat="55.8078710" lon="49.0914340"><time>2021-08-14T07:45:09</time></trkpt><trkpt lat="55.8078730" lon="49.0914100"><time>2021-08-14T07:45:10</time></trkpt><trkpt lat="55.8078670" lon="49.0913820"><time>2021-08-14T07:45:11</time></trkpt><trkpt lat="55.8078590" lon="49.0913560"><time>2021-08-14T07:45:12</time></trkpt><trkpt lat="55.8078480" lon="49.0913290"><time>2021-08-14T07:45:13</time></trkpt><trkpt lat="55.8078320" lon="49.0912730"><time>2021-08-14T07:45:14</time></trkpt><trkpt lat="55.8078260" lon="49.0912380"><time>2021-08-14T07:45:15</time></trkpt><trkpt lat="55.8078220" lon="49.0912070"><time>2021-08-14T07:45:16</time></trkpt><trkpt lat="55.8078230" lon="49.0911550"><time>2021-08-14T07:45:17</time></trkpt><trkpt lat="55.8078250" lon="49.0911370"><time>2021-08-14T07:45:18</time></trkpt><trkpt lat="55.8078190" lon="49.0910880"><time>2021-08-14T07:45:19</time></trkpt><trkpt lat="55.8078180" lon="49.0910730"><time>2021-08-14T07:45:20</time></trkpt><trkpt lat="55.8078190" lon="49.0910440"><time>2021-08-14T07:45:21</time></trkpt><trkpt lat="55.8078220" lon="49.0910170"><time>2021-08-14T07:45:22</time></trkpt><trkpt lat="55.8078270" lon="49.0909880"><time>2021-08-14T07:45:23</time></trkpt><trkpt lat="55.8078350" lon="49.0909580"><time>2021-08-14T07:45:24</time></trkpt><trkpt lat="55.8078490" lon="49.0909190"><time>2021-08-14T07:45:25</time></trkpt><trkpt lat="55.8078510" lon="49.0909050"><time>2021-08-14T07:45:26</time></trkpt><trkpt lat="55.8078540" lon="49.0908910"><time>2021-08-14T07:45:27</time></trkpt><trkpt lat="55.8078630" lon="49.0908690"><time>2021-08-14T07:45:28</time></trkpt><trkpt lat="55.8078650" lon="49.0908520"><time>2021-08-14T07:45:29</time></trkpt><trkpt lat="55.8078700" lon="49.0908400"><time>2021-08-14T07:45:30</time></trkpt><trkpt lat="55.8078740" lon="49.0908230"><time>2021-08-14T07:45:31</time></trkpt><trkpt lat="55.8078810" lon="49.0908030"><time>2021-08-14T07:45:32</time></trkpt><trkpt lat="55.8078810" lon="49.0907890"><time>2021-08-14T07:45:33</time></trkpt><trkpt lat="55.8078810" lon="49.0907870"><time>2021-08-14T07:45:34</time></trkpt><trkpt lat="55.8078870" lon="49.0907690"><time>2021-08-14T07:45:35</time></trkpt><trkpt lat="55.8078880" lon="49.0907610"><time>2021-08-14T07:45:36</time></trkpt><trkpt lat="55.8078930" lon="49.0907360"><time>2021-08-14T07:45:37</time></trkpt><trkpt lat="55.8078950" lon="49.0907010"><time>2021-08-14T07:45:38</time></trkpt><trkpt lat="55.8078960" lon="49.0906840"><time>2021-08-14T07:45:39</time></trkpt><trkpt lat="55.8078980" lon="49.0906670"><time>2021-08-14T07:45:40</time></trkpt><trkpt lat="55.8078950" lon="49.0906200"><time>2021-08-14T07:45:41</time></trkpt><trkpt lat="55.8078910" lon="49.0905970"><time>2021-08-14T07:45:42</time></trkpt><trkpt lat="55.8078860" lon="49.0905580"><time>2021-08-14T07:45:43</time></trkpt><trkpt lat="55.8078820" lon="49.0905390"><time>2021-08-14T07:45:44</time></trkpt><trkpt lat="55.8079050" lon="49.0905430"><time>2021-08-14T07:45:45</time></trkpt><trkpt lat="55.8079120" lon="49.0905300"><time>2021-08-14T07:45:46</time></trkpt><trkpt lat="55.8079240" lon="49.0904790"><time>2021-08-14T07:45:47</time></trkpt><trkpt lat="55.8079270" lon="49.0904610"><time>2021-08-14T07:45:48</time></trkpt><trkpt lat="55.8079360" lon="49.0904300"><time>2021-08-14T07:45:49</time></trkpt><trkpt lat="55.8079360" lon="49.0904000"><time>2021-08-14T07:45:50</time></trkpt><trkpt lat="55.8079510" lon="49.0903510"><time>2021-08-14T07:45:51</time></trkpt><trkpt lat="55.8079580" lon="49.0903340"><time>2021-08-14T07:45:52</time></trkpt><trkpt lat="55.8079770" lon="49.0902880"><time>2021-08-14T07:45:53</time></trkpt><trkpt lat="55.8079840" lon="49.0902730"><time>2021-08-14T07:45:54</time></trkpt><trkpt lat="55.8079880" lon="49.0902400"><time>2021-08-14T07:45:55</time></trkpt><trkpt lat="55.8079870" lon="49.0902120"><time>2021-08-14T07:45:56</time></trkpt><trkpt lat="55.8079860" lon="49.0901860"><time>2021-08-14T07:45:57</time></trkpt><trkpt lat="55.8079860" lon="49.0901610"><time>2021-08-14T07:45:58</time></trkpt><trkpt lat="55.8079850" lon="49.0901140"><time>2021-08-14T07:45:59</time></trkpt><trkpt lat="55.8079820" lon="49.0900920"><time>2021-08-14T07:46:00</time></trkpt><trkpt lat="55.8079860" lon="49.0900370"><time>2021-08-14T07:46:01</time></trkpt><trkpt lat="55.8079840" lon="49.0900180"><time>2021-08-14T07:46:02</time></trkpt><trkpt lat="55.8079840" lon="49.0899550"><time>2021-08-14T07:46:03</time></trkpt><trkpt lat="55.8079830" lon="49.0899360"><time>2021-08-14T07:46:04</time></trkpt><trkpt lat="55.8079770" lon="49.0898770"><time>2021-08-14T07:46:05</time></trkpt><trkpt lat="55.8079780" lon="49.0898570"><time>2021-08-14T07:46:06</time></trkpt><trkpt lat="55.8079770" lon="49.0898010"><time>2021-08-14T07:46:07</time></trkpt><trkpt lat="55.8079780" lon="49.0897820"><time>2021-08-14T07:46:08</time></trkpt><trkpt lat="55.8079810" lon="49.0897290"><time>2021-08-14T07:46:09</time></trkpt><trkpt lat="55.8079770" lon="49.0897110"><time>2021-08-14T07:46:10</time></trkpt><trkpt lat="55.8079740" lon="49.0896570"><time>2021-08-14T07:46:11</time></trkpt><trkpt lat="55.8079740" lon="49.0896400"><time>2021-08-14T07:46:12</time></trkpt><trkpt lat="55.8079700" lon="49.0895840"><time>2021-08-14T07:46:13</time></trkpt><trkpt lat="55.8079700" lon="49.0895670"><time>2021-08-14T07:46:14</time></trkpt><trkpt lat="55.8079660" lon="49.0895170"><time>2021-08-14T07:46:15</time></trkpt><trkpt lat="55.8079650" lon="49.0895020"><time>2021-08-14T07:46:16</time></trkpt><trkpt lat="55.8079620" lon="49.0894690"><time>2021-08-14T07:46:17</time></trkpt><trkpt lat="55.8079630" lon="49.0894380"><time>2021-08-14T07:46:18</time></trkpt><trkpt lat="55.8079710" lon="49.0894110"><time>2021-08-14T07:46:19</time></trkpt><trkpt lat="55.8079790" lon="49.0893820"><time>2021-08-14T07:46:20</time></trkpt><trkpt lat="55.8079820" lon="49.0893530"><time>2021-08-14T07:46:21</time></trkpt><trkpt lat="55.8079880" lon="49.0893280"><time>2021-08-14T07:46:22</time></trkpt><trkpt lat="55.8079920" lon="49.0893020"><time>2021-08-14T07:46:23</time></trkpt><trkpt lat="55.8080080" lon="49.0892780"><time>2021-08-14T07:46:24</time></trkpt><trkpt lat="55.8080200" lon="49.0892540"><time>2021-08-14T07:46:25</time></trkpt><trkpt lat="55.8080290" lon="49.0892260"><time>2021-08-14T07:46:26</time></trkpt><trkpt lat="55.8080430" lon="49.0892050"><time>2021-08-14T07:46:27</time></trkpt><trkpt lat="55.8080520" lon="49.0891830"><time>2021-08-14T07:46:28</time></trkpt><trkpt lat="55.8080640" lon="49.0891650"><time>2021-08-14T07:46:29</time></trkpt><trkpt lat="55.8080790" lon="49.0891480"><time>2021-08-14T07:46:30</time></trkpt><trkpt lat="55.8080860" lon="49.0891260"><time>2021-08-14T07:46:31</time></trkpt><trkpt lat="55.8081000" lon="49.0891080"><time>2021-08-14T07:46:32</time></trkpt><trkpt lat="55.8081130" lon="49.0890750"><time>2021-08-14T07:46:33</time></trkpt><trkpt lat="55.8081200" lon="49.0890630"><time>2021-08-14T07:46:34</time></trkpt><trkpt lat="55.8081260" lon="49.0890510"><time>2021-08-14T07:46:35</time></trkpt><trkpt lat="55.8081320" lon="49.0890260"><time>2021-08-14T07:46:36</time></trkpt><trkpt lat="55.8081360" lon="49.0890020"><time>2021-08-14T07:46:37</time></trkpt><trkpt lat="55.8081410" lon="49.0889810"><time>2021-08-14T07:46:38</time></trkpt><trkpt lat="55.8081470" lon="49.0889670"><time>2021-08-14T07:46:39</time></trkpt><trkpt lat="55.8081550" lon="49.0889520"><time>2021-08-14T07:46:40</time></trkpt><trkpt lat="55.8081590" lon="49.0889330"><time>2021-08-14T07:46:41</time></trkpt><trkpt lat="55.8081560" lon="49.0889090"><time>2021-08-14T07:46:42</time></trkpt><trkpt lat="55.8081580" lon="49.0888900"><time>2021-08-14T07:46:43</time></trkpt><trkpt lat="55.8081610" lon="49.0888700"><time>2021-08-14T07:46:45</time></trkpt><trkpt lat="55.8081650" lon="49.0888540"><time>2021-08-14T07:46:46</time></trkpt><trkpt lat="55.8081730" lon="49.0888360"><time>2021-08-14T07:46:47</time></trkpt><trkpt lat="55.8081760" lon="49.0888140"><time>2021-08-14T07:46:48</time></trkpt><trkpt lat="55.8081790" lon="49.0887840"><time>2021-08-14T07:46:49</time></trkpt><trkpt lat="55.8081750" lon="49.0887510"><time>2021-08-14T07:46:50</time></trkpt><trkpt lat="55.8081790" lon="49.0887210"><time>2021-08-14T07:46:51</time></trkpt><trkpt lat="55.8081790" lon="49.0886900"><time>2021-08-14T07:46:52</time></trkpt><trkpt lat="55.8081780" lon="49.0886580"><time>2021-08-14T07:46:53</time></trkpt><trkpt lat="55.8081670" lon="49.0886100"><time>2021-08-14T07:46:54</time></trkpt><trkpt lat="55.8081630" lon="49.0885950"><time>2021-08-14T07:46:55</time></trkpt><trkpt lat="55.8081500" lon="49.0885490"><time>2021-08-14T07:46:56</time></trkpt><trkpt lat="55.8081460" lon="49.0885350"><time>2021-08-14T07:46:57</time></trkpt><trkpt lat="55.8081480" lon="49.0884850"><time>2021-08-14T07:46:58</time></trkpt><trkpt lat="55.8081480" lon="49.0884670"><time>2021-08-14T07:46:59</time></trkpt><trkpt lat="55.8081510" lon="49.0884380"><time>2021-08-14T07:47:00</time></trkpt><trkpt lat="55.8081540" lon="49.0884080"><time>2021-08-14T07:47:01</time></trkpt><trkpt lat="55.8081470" lon="49.0883610"><time>2021-08-14T07:47:02</time></trkpt><trkpt lat="55.8081430" lon="49.0883460"><time>2021-08-14T07:47:03</time></trkpt><trkpt lat="55.8081370" lon="49.0883150"><time>2021-08-14T07:47:04</time></trkpt><trkpt lat="55.8081280" lon="49.0882870"><time>2021-08-14T07:47:05</time></trkpt><trkpt lat="55.8081240" lon="49.0882500"><time>2021-08-14T07:47:06</time></trkpt><trkpt lat="55.8081220" lon="49.0882270"><time>2021-08-14T07:47:07</time></trkpt><trkpt lat="55.8081260" lon="49.0881860"><time>2021-08-14T07:47:08</time></trkpt><trkpt lat="55.8081280" lon="49.0881680"><time>2021-08-14T07:47:09</time></trkpt><trkpt lat="55.8081310" lon="49.0881510"><time>2021-08-14T07:47:10</time></trkpt><trkpt lat="55.8081330" lon="49.0881210"><time>2021-08-14T07:47:11</time></trkpt><trkpt lat="55.8081400" lon="49.0880970"><time>2021-08-14T07:47:12</time></trkpt><trkpt lat="55.8081420" lon="49.0880700"><time>2021-08-14T07:47:13</time></trkpt><trkpt lat="55.8081460" lon="49.0880430"><time>2021-08-14T07:47:14</time></trkpt><trkpt lat="55.8081490" lon="49.0880180"><time>2021-08-14T07:47:15</time></trkpt><trkpt lat="55.8081560" lon="49.0879920"><time>2021-08-14T07:47:16</time></trkpt><trkpt lat="55.8081600" lon="49.0879640"><time>2021-08-14T07:47:17</time></trkpt><trkpt lat="55.8081590" lon="49.0879420"><time>2021-08-14T07:47:18</time></trkpt><trkpt lat="55.8081630" lon="49.0879160"><time>2021-08-14T07:47:19</time></trkpt><trkpt lat="55.8081610" lon="49.0878890"><time>2021-08-14T07:47:20</time></trkpt><trkpt lat="55.8081650" lon="49.0878680"><time>2021-08-14T07:47:21</time></trkpt><trkpt lat="55.8081640" lon="49.0878520"><time>2021-08-14T07:47:22</time></trkpt><trkpt lat="55.8081530" lon="49.0878630"><time>2021-08-14T07:47:23</time></trkpt><trkpt lat="55.8081520" lon="49.0878750"><time>2021-08-14T07:47:24</time></trkpt><trkpt lat="55.8081500" lon="49.0878730"><time>2021-08-14T07:47:25</time></trkpt><trkpt lat="55.8081520" lon="49.0878760"><time>2021-08-14T07:47:26</time></trkpt><trkpt lat="55.8081520" lon="49.0878790"><time>2021-08-14T07:47:27</time></trkpt><trkpt lat="55.8081510" lon="49.0878820"><time>2021-08-14T07:47:28</time></trkpt><trkpt lat="55.8081510" lon="49.0878820"><time>2021-08-14T07:47:29</time></trkpt><trkpt lat="55.8081500" lon="49.0878830"><time>2021-08-14T07:47:30</time></trkpt><trkpt lat="55.8081480" lon="49.0878820"><time>2021-08-14T07:47:31</time></trkpt><trkpt lat="55.8081440" lon="49.0878820"><time>2021-08-14T07:47:32</time></trkpt><trkpt lat="55.8081410" lon="49.0878800"><time>2021-08-14T07:47:33</time></trkpt><trkpt lat="55.8081390" lon="49.0878750"><time>2021-08-14T07:47:34</time></trkpt><trkpt lat="55.8081370" lon="49.0878760"><time>2021-08-14T07:47:35</time></trkpt><trkpt lat="55.8081330" lon="49.0878750"><time>2021-08-14T07:47:36</time></trkpt><trkpt lat="55.8081290" lon="49.0878770"><time>2021-08-14T07:47:37</time></trkpt><trkpt lat="55.8081280" lon="49.0878770"><time>2021-08-14T07:47:38</time></trkpt><trkpt lat="55.8081350" lon="49.0878710"><time>2021-08-14T07:47:39</time></trkpt><trkpt lat="55.8081360" lon="49.0878600"><time>2021-08-14T07:47:40</time></trkpt><trkpt lat="55.8081440" lon="49.0878450"><time>2021-08-14T07:47:41</time></trkpt><trkpt lat="55.8081500" lon="49.0878230"><time>2021-08-14T07:47:42</time></trkpt><trkpt lat="55.8081560" lon="49.0877960"><time>2021-08-14T07:47:43</time></trkpt><trkpt lat="55.8081620" lon="49.0877860"><time>2021-08-14T07:47:44</time></trkpt><trkpt lat="55.8081700" lon="49.0877700"><time>2021-08-14T07:47:45</time></trkpt><trkpt lat="55.8081720" lon="49.0877470"><time>2021-08-14T07:47:46</time></trkpt><trkpt lat="55.8081750" lon="49.0877200"><time>2021-08-14T07:47:47</time></trkpt><trkpt lat="55.8081820" lon="49.0877050"><time>2021-08-14T07:47:48</time></trkpt><trkpt lat="55.8081840" lon="49.0876880"><time>2021-08-14T07:47:49</time></trkpt><trkpt lat="55.8081900" lon="49.0876670"><time>2021-08-14T07:47:50</time></trkpt><trkpt lat="55.8081880" lon="49.0876390"><time>2021-08-14T07:47:51</time></trkpt><trkpt lat="55.8081890" lon="49.0876140"><time>2021-08-14T07:47:52</time></trkpt><trkpt lat="55.8081870" lon="49.0875860"><time>2021-08-14T07:47:53</time></trkpt><trkpt lat="55.8081890" lon="49.0875620"><time>2021-08-14T07:47:54</time></trkpt><trkpt lat="55.8081920" lon="49.0875300"><time>2021-08-14T07:47:55</time></trkpt><trkpt lat="55.8082010" lon="49.0874700"><time>2021-08-14T07:47:56</time></trkpt><trkpt lat="55.8082050" lon="49.0874440"><time>2021-08-14T07:47:57</time></trkpt><trkpt lat="55.8082120" lon="49.0874100"><time>2021-08-14T07:47:58</time></trkpt><trkpt lat="55.8082160" lon="49.0873980"><time>2021-08-14T07:47:59</time></trkpt><trkpt lat="55.8082230" lon="49.0873670"><time>2021-08-14T07:48:00</time></trkpt><trkpt lat="55.8082210" lon="49.0873360"><time>2021-08-14T07:48:01</time></trkpt><trkpt lat="55.8082280" lon="49.0873000"><time>2021-08-14T07:48:02</time></trkpt><trkpt lat="55.8082320" lon="49.0872780"><time>2021-08-14T07:48:03</time></trkpt><trkpt lat="55.8082430" lon="49.0872360"><time>2021-08-14T07:48:04</time></trkpt><trkpt lat="55.8082470" lon="49.0872170"><time>2021-08-14T07:48:05</time></trkpt><trkpt lat="55.8082580" lon="49.0871660"><time>2021-08-14T07:48:06</time></trkpt><trkpt lat="55.8082630" lon="49.0871530"><time>2021-08-14T07:48:07</time></trkpt><trkpt lat="55.8082680" lon="49.0871280"><time>2021-08-14T07:48:08</time></trkpt><trkpt lat="55.8082710" lon="49.0871060"><time>2021-08-14T07:48:09</time></trkpt><trkpt lat="55.8082740" lon="49.0870580"><time>2021-08-14T07:48:10</time></trkpt><trkpt lat="55.8082790" lon="49.0870260"><time>2021-08-14T07:48:11</time></trkpt><trkpt lat="55.8082820" lon="49.0869950"><time>2021-08-14T07:48:12</time></trkpt><trkpt lat="55.8082860" lon="49.0869720"><time>2021-08-14T07:48:13</time></trkpt><trkpt lat="55.8082940" lon="49.0869400"><time>2021-08-14T07:48:14</time></trkpt><trkpt lat="55.8082910" lon="49.0868830"><time>2021-08-14T07:48:15</time></trkpt><trkpt lat="55.8082880" lon="49.0868730"><time>2021-08-14T07:48:16</time></trkpt><trkpt lat="55.8082960" lon="49.0868230"><time>2021-08-14T07:48:17</time></trkpt><trkpt lat="55.8082970" lon="49.0868060"><time>2021-08-14T07:48:18</time></trkpt><trkpt lat="55.8083030" lon="49.0867760"><time>2021-08-14T07:48:19</time></trkpt><trkpt lat="55.8083080" lon="49.0867450"><time>2021-08-14T07:48:20</time></trkpt><trkpt lat="55.8083140" lon="49.0866960"><time>2021-08-14T07:48:21</time></trkpt><trkpt lat="55.8083130" lon="49.0866800"><time>2021-08-14T07:48:22</time></trkpt><trkpt lat="55.8083190" lon="49.0866550"><time>2021-08-14T07:48:23</time></trkpt><trkpt lat="55.8083230" lon="49.0866290"><time>2021-08-14T07:48:24</time></trkpt><trkpt lat="55.8083240" lon="49.0865790"><time>2021-08-14T07:48:25</time></trkpt><trkpt lat="55.8083230" lon="49.0865630"><time>2021-08-14T07:48:26</time></trkpt><trkpt lat="55.8083270" lon="49.0865330"><time>2021-08-14T07:48:27</time></trkpt><trkpt lat="55.8083300" lon="49.0865070"><time>2021-08-14T07:48:28</time></trkpt><trkpt lat="55.8083370" lon="49.0864800"><time>2021-08-14T07:48:29</time></trkpt><trkpt lat="55.8083370" lon="49.0864540"><time>2021-08-14T07:48:30</time></trkpt><trkpt lat="55.8083380" lon="49.0864300"><time>2021-08-14T07:48:31</time></trkpt><trkpt lat="55.8083360" lon="49.0863940"><time>2021-08-14T07:48:32</time></trkpt><trkpt lat="55.8083330" lon="49.0863670"><time>2021-08-14T07:48:33</time></trkpt><trkpt lat="55.8083310" lon="49.0863500"><time>2021-08-14T07:48:34</time></trkpt><trkpt lat="55.8083300" lon="49.0863440"><time>2021-08-14T07:48:35</time></trkpt><trkpt lat="55.8083270" lon="49.0863470"><time>2021-08-14T07:48:36</time></trkpt><trkpt lat="55.8083220" lon="49.0863750"><time>2021-08-14T07:48:37</time></trkpt><trkpt lat="55.8083190" lon="49.0863800"><time>2021-08-14T07:48:38</time></trkpt><trkpt lat="55.8083200" lon="49.0863760"><time>2021-08-14T07:48:39</time></trkpt><trkpt lat="55.8083190" lon="49.0863750"><time>2021-08-14T07:48:40</time></trkpt><trkpt lat="55.8083170" lon="49.0863790"><time>2021-08-14T07:48:41</time></trkpt><trkpt lat="55.8083180" lon="49.0863890"><time>2021-08-14T07:48:42</time></trkpt><trkpt lat="55.8083140" lon="49.0864370"><time>2021-08-14T07:48:43</time></trkpt><trkpt lat="55.8083130" lon="49.0864550"><time>2021-08-14T07:48:44</time></trkpt><trkpt lat="55.8083100" lon="49.0864770"><time>2021-08-14T07:48:45</time></trkpt><trkpt lat="55.8083040" lon="49.0865130"><time>2021-08-14T07:48:46</time></trkpt><trkpt lat="55.8083010" lon="49.0865520"><time>2021-08-14T07:48:47</time></trkpt><trkpt lat="55.8082980" lon="49.0865660"><time>2021-08-14T07:48:48</time></trkpt><trkpt lat="55.8082940" lon="49.0865790"><time>2021-08-14T07:48:49</time></trkpt><trkpt lat="55.8082890" lon="49.0866190"><time>2021-08-14T07:48:51</time></trkpt><trkpt lat="55.8082860" lon="49.0866390"><time>2021-08-14T07:48:52</time></trkpt><trkpt lat="55.8082840" lon="49.0866600"><time>2021-08-14T07:48:53</time></trkpt><trkpt lat="55.8082810" lon="49.0866920"><time>2021-08-14T07:48:54</time></trkpt><trkpt lat="55.8082830" lon="49.0867100"><time>2021-08-14T07:48:55</time></trkpt><trkpt lat="55.8082740" lon="49.0867460"><time>2021-08-14T07:48:56</time></trkpt><trkpt lat="55.8082700" lon="49.0867600"><time>2021-08-14T07:48:57</time></trkpt><trkpt lat="55.8082670" lon="49.0867730"><time>2021-08-14T07:48:58</time></trkpt><trkpt lat="55.8082600" lon="49.0867900"><time>2021-08-14T07:48:59</time></trkpt><trkpt lat="55.8082610" lon="49.0868060"><time>2021-08-14T07:49:00</time></trkpt><trkpt lat="55.8082560" lon="49.0868280"><time>2021-08-14T07:49:01</time></trkpt><trkpt lat="55.8082510" lon="49.0868410"><time>2021-08-14T07:49:02</time></trkpt><trkpt lat="55.8082490" lon="49.0868690"><time>2021-08-14T07:49:03</time></trkpt><trkpt lat="55.8082480" lon="49.0868820"><time>2021-08-14T07:49:04</time></trkpt><trkpt lat="55.8082450" lon="49.0869150"><time>2021-08-14T07:49:05</time></trkpt><trkpt lat="55.8082430" lon="49.0869440"><time>2021-08-14T07:49:06</time></trkpt><trkpt lat="55.8082380" lon="49.0869600"><time>2021-08-14T07:49:07</time></trkpt><trkpt lat="55.8082330" lon="49.0869770"><time>2021-08-14T07:49:08</time></trkpt><trkpt lat="55.8082270" lon="49.0869950"><time>2021-08-14T07:49:09</time></trkpt><trkpt lat="55.8082220" lon="49.0870090"><time>2021-08-14T07:49:10</time></trkpt><trkpt lat="55.8082190" lon="49.0870250"><time>2021-08-14T07:49:11</time></trkpt><trkpt lat="55.8082160" lon="49.0870500"><time>2021-08-14T07:49:12</time></trkpt><trkpt lat="55.8082070" lon="49.0870950"><time>2021-08-14T07:49:13</time></trkpt><trkpt lat="55.8082030" lon="49.0871110"><time>2021-08-14T07:49:14</time></trkpt><trkpt lat="55.8082010" lon="49.0871350"><time>2021-08-14T07:49:15</time></trkpt><trkpt lat="55.8082030" lon="49.0871660"><time>2021-08-14T07:49:16</time></trkpt><trkpt lat="55.8082000" lon="49.0871920"><time>2021-08-14T07:49:17</time></trkpt><trkpt lat="55.8081990" lon="49.0872240"><time>2021-08-14T07:49:18</time></trkpt><trkpt lat="55.8081960" lon="49.0872490"><time>2021-08-14T07:49:19</time></trkpt><trkpt lat="55.8081920" lon="49.0872780"><time>2021-08-14T07:49:20</time></trkpt><trkpt lat="55.8081920" lon="49.0873290"><time>2021-08-14T07:49:21</time></trkpt><trkpt lat="55.8081910" lon="49.0873440"><time>2021-08-14T07:49:22</time></trkpt><trkpt lat="55.8081940" lon="49.0873740"><time>2021-08-14T07:49:23</time></trkpt><trkpt lat="55.8081850" lon="49.0874070"><time>2021-08-14T07:49:24</time></trkpt><trkpt lat="55.8081810" lon="49.0874380"><time>2021-08-14T07:49:25</time></trkpt><trkpt lat="55.8081780" lon="49.0874700"><time>2021-08-14T07:49:26</time></trkpt><trkpt lat="55.8081740" lon="49.0874940"><time>2021-08-14T07:49:27</time></trkpt><trkpt lat="55.8081720" lon="49.0875230"><time>2021-08-14T07:49:28</time></trkpt><trkpt lat="55.8081650" lon="49.0875490"><time>2021-08-14T07:49:29</time></trkpt><trkpt lat="55.8081590" lon="49.0875750"><time>2021-08-14T07:49:30</time></trkpt><trkpt lat="55.8081540" lon="49.0876040"><time>2021-08-14T07:49:31</time></trkpt><trkpt lat="55.8081540" lon="49.0876390"><time>2021-08-14T07:49:32</time></trkpt><trkpt lat="55.8081490" lon="49.0876650"><time>2021-08-14T07:49:33</time></trkpt><trkpt lat="55.8081460" lon="49.0877200"><time>2021-08-14T07:49:34</time></trkpt><trkpt lat="55.8081430" lon="49.0877490"><time>2021-08-14T07:49:35</time></trkpt><trkpt lat="55.8081420" lon="49.0877790"><time>2021-08-14T07:49:36</time></trkpt><trkpt lat="55.8081400" lon="49.0878110"><time>2021-08-14T07:49:37</time></trkpt><trkpt lat="55.8081410" lon="49.0878430"><time>2021-08-14T07:49:38</time></trkpt><trkpt lat="55.8081400" lon="49.0878690"><time>2021-08-14T07:49:39</time></trkpt><trkpt lat="55.8081450" lon="49.0878950"><time>2021-08-14T07:49:40</time></trkpt><trkpt lat="55.8081410" lon="49.0879190"><time>2021-08-14T07:49:41</time></trkpt><trkpt lat="55.8081430" lon="49.0879520"><time>2021-08-14T07:49:42</time></trkpt><trkpt lat="55.8081400" lon="49.0879850"><time>2021-08-14T07:49:43</time></trkpt><trkpt lat="55.8081340" lon="49.0880140"><time>2021-08-14T07:49:44</time></trkpt><trkpt lat="55.8081320" lon="49.0880470"><time>2021-08-14T07:49:45</time></trkpt><trkpt lat="55.8081310" lon="49.0880760"><time>2021-08-14T07:49:46</time></trkpt><trkpt lat="55.8081310" lon="49.0881060"><time>2021-08-14T07:49:47</time></trkpt><trkpt lat="55.8081370" lon="49.0881290"><time>2021-08-14T07:49:48</time></trkpt><trkpt lat="55.8081390" lon="49.0881060"><time>2021-08-14T07:49:49</time></trkpt><trkpt lat="55.8081380" lon="49.0881040"><time>2021-08-14T07:49:50</time></trkpt><trkpt lat="55.8081330" lon="49.0881090"><time>2021-08-14T07:49:51</time></trkpt><trkpt lat="55.8081450" lon="49.0881310"><time>2021-08-14T07:49:52</time></trkpt><trkpt lat="55.8081440" lon="49.0881520"><time>2021-08-14T07:49:53</time></trkpt><trkpt lat="55.8081460" lon="49.0881740"><time>2021-08-14T07:49:54</time></trkpt><trkpt lat="55.8081470" lon="49.0881860"><time>2021-08-14T07:49:55</time></trkpt><trkpt lat="55.8081490" lon="49.0881970"><time>2021-08-14T07:49:56</time></trkpt><trkpt lat="55.8081500" lon="49.0882090"><time>2021-08-14T07:49:57</time></trkpt><trkpt lat="55.8081520" lon="49.0882200"><time>2021-08-14T07:49:58</time></trkpt><trkpt lat="55.8081500" lon="49.0882550"><time>2021-08-14T07:49:59</time></trkpt><trkpt lat="55.8081420" lon="49.0882800"><time>2021-08-14T07:50:00</time></trkpt><trkpt lat="55.8081390" lon="49.0883090"><time>2021-08-14T07:50:01</time></trkpt><trkpt lat="55.8081330" lon="49.0883320"><time>2021-08-14T07:50:02</time></trkpt><trkpt lat="55.8081250" lon="49.0883520"><time>2021-08-14T07:50:03</time></trkpt><trkpt lat="55.8081240" lon="49.0883690"><time>2021-08-14T07:50:04</time></trkpt><trkpt lat="55.8081210" lon="49.0883860"><time>2021-08-14T07:50:05</time></trkpt><trkpt lat="55.8081050" lon="49.0884380"><time>2021-08-14T07:50:06</time></trkpt><trkpt lat="55.8081030" lon="49.0884500"><time>2021-08-14T07:50:07</time></trkpt><trkpt lat="55.8081030" lon="49.0884750"><time>2021-08-14T07:50:08</time></trkpt><trkpt lat="55.8081000" lon="49.0884990"><time>2021-08-14T07:50:09</time></trkpt><trkpt lat="55.8080980" lon="49.0885250"><time>2021-08-14T07:50:10</time></trkpt><trkpt lat="55.8080890" lon="49.0885500"><time>2021-08-14T07:50:11</time></trkpt><trkpt lat="55.8080890" lon="49.0885750"><time>2021-08-14T07:50:12</time></trkpt><trkpt lat="55.8080840" lon="49.0886000"><time>2021-08-14T07:50:13</time></trkpt><trkpt lat="55.8080810" lon="49.0886240"><time>2021-08-14T07:50:14</time></trkpt><trkpt lat="55.8080740" lon="49.0886480"><time>2021-08-14T07:50:15</time></trkpt><trkpt lat="55.8080720" lon="49.0886690"><time>2021-08-14T07:50:16</time></trkpt><trkpt lat="55.8080770" lon="49.0886810"><time>2021-08-14T07:50:17</time></trkpt><trkpt lat="55.8080720" lon="49.0887120"><time>2021-08-14T07:50:18</time></trkpt><trkpt lat="55.8080730" lon="49.0887640"><time>2021-08-14T07:50:19</time></trkpt><trkpt lat="55.8080730" lon="49.0887800"><time>2021-08-14T07:50:20</time></trkpt><trkpt lat="55.8080710" lon="49.0888130"><time>2021-08-14T07:50:21</time></trkpt><trkpt lat="55.8080720" lon="49.0888430"><time>2021-08-14T07:50:22</time></trkpt><trkpt lat="55.8080750" lon="49.0888780"><time>2021-08-14T07:50:23</time></trkpt><trkpt lat="55.8080790" lon="49.0888950"><time>2021-08-14T07:50:24</time></trkpt><trkpt lat="55.8080820" lon="49.0889120"><time>2021-08-14T07:50:25</time></trkpt><trkpt lat="55.8080800" lon="49.0889370"><time>2021-08-14T07:50:26</time></trkpt><trkpt lat="55.8080800" lon="49.0889640"><time>2021-08-14T07:50:27</time></trkpt><trkpt lat="55.8080790" lon="49.0889900"><time>2021-08-14T07:50:28</time></trkpt><trkpt lat="55.8080830" lon="49.0890170"><time>2021-08-14T07:50:29</time></trkpt><trkpt lat="55.8080800" lon="49.0890410"><time>2021-08-14T07:50:30</time></trkpt><trkpt lat="55.8080770" lon="49.0890680"><time>2021-08-14T07:50:31</time></trkpt><trkpt lat="55.8080730" lon="49.0890990"><time>2021-08-14T07:50:32</time></trkpt><trkpt lat="55.8080640" lon="49.0891250"><time>2021-08-14T07:50:33</time></trkpt><trkpt lat="55.8080540" lon="49.0891570"><time>2021-08-14T07:50:34</time></trkpt><trkpt lat="55.8080470" lon="49.0891820"><time>2021-08-14T07:50:35</time></trkpt><trkpt lat="55.8080470" lon="49.0892100"><time>2021-08-14T07:50:36</time></trkpt><trkpt lat="55.8080410" lon="49.0892400"><time>2021-08-14T07:50:37</time></trkpt><trkpt lat="55.8080340" lon="49.0892700"><time>2021-08-14T07:50:38</time></trkpt><trkpt lat="55.8080250" lon="49.0892960"><time>2021-08-14T07:50:39</time></trkpt><trkpt lat="55.8080200" lon="49.0893250"><time>2021-08-14T07:50:40</time></trkpt><trkpt lat="55.8080210" lon="49.0893490"><time>2021-08-14T07:50:41</time></trkpt><trkpt lat="55.8080150" lon="49.0893700"><time>2021-08-14T07:50:42</time></trkpt><trkpt lat="55.8080070" lon="49.0893900"><time>2021-08-14T07:50:43</time></trkpt><trkpt lat="55.8079990" lon="49.0894090"><time>2021-08-14T07:50:44</time></trkpt><trkpt lat="55.8079910" lon="49.0894360"><time>2021-08-14T07:50:45</time></trkpt><trkpt lat="55.8079920" lon="49.0894670"><time>2021-08-14T07:50:46</time></trkpt><trkpt lat="55.8079890" lon="49.0894910"><time>2021-08-14T07:50:47</time></trkpt><trkpt lat="55.8079860" lon="49.0895160"><time>2021-08-14T07:50:48</time></trkpt><trkpt lat="55.8079860" lon="49.0895400"><time>2021-08-14T07:50:49</time></trkpt><trkpt lat="55.8079800" lon="49.0895770"><time>2021-08-14T07:50:50</time></trkpt><trkpt lat="55.8079760" lon="49.0895930"><time>2021-08-14T07:50:51</time></trkpt><trkpt lat="55.8079730" lon="49.0896100"><time>2021-08-14T07:50:52</time></trkpt><trkpt lat="55.8079720" lon="49.0896370"><time>2021-08-14T07:50:53</time></trkpt><trkpt lat="55.8079700" lon="49.0896600"><time>2021-08-14T07:50:54</time></trkpt><trkpt lat="55.8079640" lon="49.0896980"><time>2021-08-14T07:50:55</time></trkpt><trkpt lat="55.8079600" lon="49.0897130"><time>2021-08-14T07:50:57</time></trkpt><trkpt lat="55.8079570" lon="49.0897270"><time>2021-08-14T07:50:58</time></trkpt><trkpt lat="55.8079470" lon="49.0897540"><time>2021-08-14T07:50:59</time></trkpt><trkpt lat="55.8079450" lon="49.0897770"><time>2021-08-14T07:51:00</time></trkpt><trkpt lat="55.8079360" lon="49.0898120"><time>2021-08-14T07:51:01</time></trkpt><trkpt lat="55.8079350" lon="49.0898280"><time>2021-08-14T07:51:02</time></trkpt><trkpt lat="55.8079340" lon="49.0898450"><time>2021-08-14T07:51:03</time></trkpt><trkpt lat="55.8079310" lon="49.0898720"><time>2021-08-14T07:51:04</time></trkpt><trkpt lat="55.8079260" lon="49.0899000"><time>2021-08-14T07:51:05</time></trkpt><trkpt lat="55.8079250" lon="49.0899250"><time>2021-08-14T07:51:06</time></trkpt><trkpt lat="55.8079240" lon="49.0899530"><time>2021-08-14T07:51:07</time></trkpt><trkpt lat="55.8079230" lon="49.0899800"><time>2021-08-14T07:51:08</time></trkpt><trkpt lat="55.8079160" lon="49.0900100"><time>2021-08-14T07:51:09</time></trkpt><trkpt lat="55.8079150" lon="49.0900370"><time>2021-08-14T07:51:10</time></trkpt><trkpt lat="55.8079190" lon="49.0900730"><time>2021-08-14T07:51:11</time></trkpt><trkpt lat="55.8079190" lon="49.0901020"><time>2021-08-14T07:51:12</time></trkpt><trkpt lat="55.8079280" lon="49.0901290"><time>2021-08-14T07:51:13</time></trkpt><trkpt lat="55.8079330" lon="49.0901500"><time>2021-08-14T07:51:14</time></trkpt><trkpt lat="55.8079340" lon="49.0901800"><time>2021-08-14T07:51:15</time></trkpt><trkpt lat="55.8079420" lon="49.0902040"><time>2021-08-14T07:51:16</time></trkpt><trkpt lat="55.8079480" lon="49.0902320"><time>2021-08-14T07:51:17</time></trkpt><trkpt lat="55.8079520" lon="49.0902640"><time>2021-08-14T07:51:18</time></trkpt><trkpt lat="55.8079560" lon="49.0902860"><time>2021-08-14T07:51:19</time></trkpt><trkpt lat="55.8079590" lon="49.0903120"><time>2021-08-14T07:51:20</time></trkpt><trkpt lat="55.8079650" lon="49.0903420"><time>2021-08-14T07:51:21</time></trkpt><trkpt lat="55.8079680" lon="49.0903660"><time>2021-08-14T07:51:22</time></trkpt><trkpt lat="55.8079700" lon="49.0903950"><time>2021-08-14T07:51:23</time></trkpt><trkpt lat="55.8079830" lon="49.0904100"><time>2021-08-14T07:51:24</time></trkpt><trkpt lat="55.8079880" lon="49.0904350"><time>2021-08-14T07:51:25</time></trkpt><trkpt lat="55.8079950" lon="49.0904590"><time>2021-08-14T07:51:26</time></trkpt><trkpt lat="55.8079900" lon="49.0904930"><time>2021-08-14T07:51:27</time></trkpt><trkpt lat="55.8079910" lon="49.0905270"><time>2021-08-14T07:51:28</time></trkpt><trkpt lat="55.8079890" lon="49.0905440"><time>2021-08-14T07:51:29</time></trkpt><trkpt lat="55.8079880" lon="49.0905600"><time>2021-08-14T07:51:30</time></trkpt><trkpt lat="55.8079740" lon="49.0906080"><time>2021-08-14T07:51:31</time></trkpt><trkpt lat="55.8079730" lon="49.0906230"><time>2021-08-14T07:51:32</time></trkpt><trkpt lat="55.8079700" lon="49.0906730"><time>2021-08-14T07:51:33</time></trkpt><trkpt lat="55.8079700" lon="49.0906890"><time>2021-08-14T07:51:34</time></trkpt><trkpt lat="55.8079740" lon="49.0907360"><time>2021-08-14T07:51:35</time></trkpt><trkpt lat="55.8079770" lon="49.0907530"><time>2021-08-14T07:51:36</time></trkpt><trkpt lat="55.8079700" lon="49.0908010"><time>2021-08-14T07:51:37</time></trkpt><trkpt lat="55.8079680" lon="49.0908170"><time>2021-08-14T07:51:38</time></trkpt><trkpt lat="55.8079750" lon="49.0908640"><time>2021-08-14T07:51:39</time></trkpt><trkpt lat="55.8079810" lon="49.0908790"><time>2021-08-14T07:51:40</time></trkpt><trkpt lat="55.8079800" lon="49.0909320"><time>2021-08-14T07:51:41</time></trkpt><trkpt lat="55.8079800" lon="49.0909480"><time>2021-08-14T07:51:42</time></trkpt><trkpt lat="55.8079720" lon="49.0909770"><time>2021-08-14T07:51:43</time></trkpt><trkpt lat="55.8079730" lon="49.0910030"><time>2021-08-14T07:51:44</time></trkpt><trkpt lat="55.8079800" lon="49.0910510"><time>2021-08-14T07:51:45</time></trkpt><trkpt lat="55.8079820" lon="49.0910680"><time>2021-08-14T07:51:46</time></trkpt><trkpt lat="55.8079820" lon="49.0911000"><time>2021-08-14T07:51:47</time></trkpt><trkpt lat="55.8079860" lon="49.0911260"><time>2021-08-14T07:51:48</time></trkpt><trkpt lat="55.8079760" lon="49.0911590"><time>2021-08-14T07:51:49</time></trkpt><trkpt lat="55.8079820" lon="49.0911790"><time>2021-08-14T07:51:50</time></trkpt><trkpt lat="55.8079960" lon="49.0912260"><time>2021-08-14T07:51:51</time></trkpt><trkpt lat="55.8079960" lon="49.0912470"><time>2021-08-14T07:51:52</time></trkpt><trkpt lat="55.8079820" lon="49.0912960"><time>2021-08-14T07:51:53</time></trkpt><trkpt lat="55.8079760" lon="49.0913150"><time>2021-08-14T07:51:54</time></trkpt><trkpt lat="55.8079530" lon="49.0913560"><time>2021-08-14T07:51:55</time></trkpt><trkpt lat="55.8079200" lon="49.0913910"><time>2021-08-14T07:51:56</time></trkpt><trkpt lat="55.8079000" lon="49.0914250"><time>2021-08-14T07:51:57</time></trkpt><trkpt lat="55.8078810" lon="49.0914720"><time>2021-08-14T07:51:58</time></trkpt><trkpt lat="55.8078750" lon="49.0914850"><time>2021-08-14T07:51:59</time></trkpt><trkpt lat="55.8078540" lon="49.0915250"><time>2021-08-14T07:52:00</time></trkpt><trkpt lat="55.8078440" lon="49.0915390"><time>2021-08-14T07:52:01</time></trkpt><trkpt lat="55.8078320" lon="49.0915680"><time>2021-08-14T07:52:02</time></trkpt><trkpt lat="55.8078290" lon="49.0915840"><time>2021-08-14T07:52:03</time></trkpt><trkpt lat="55.8078270" lon="49.0915960"><time>2021-08-14T07:52:04</time></trkpt><trkpt lat="55.8078280" lon="49.0916150"><time>2021-08-14T07:52:05</time></trkpt><trkpt lat="55.8078430" lon="49.0916420"><time>2021-08-14T07:52:06</time></trkpt><trkpt lat="55.8078420" lon="49.0917200"><time>2021-08-14T07:52:07</time></trkpt><trkpt lat="55.8078400" lon="49.0917560"><time>2021-08-14T07:52:08</time></trkpt><trkpt lat="55.8078470" lon="49.0917800"><time>2021-08-14T07:52:09</time></trkpt><trkpt lat="55.8078450" lon="49.0917980"><time>2021-08-14T07:52:10</time></trkpt><trkpt lat="55.8078400" lon="49.0918140"><time>2021-08-14T07:52:11</time></trkpt><trkpt lat="55.8078340" lon="49.0918230"><time>2021-08-14T07:52:12</time></trkpt><trkpt lat="55.8078430" lon="49.0918290"><time>2021-08-14T07:52:13</time></trkpt><trkpt lat="55.8078490" lon="49.0918530"><time>2021-08-14T07:52:14</time></trkpt><trkpt lat="55.8078490" lon="49.0918780"><time>2021-08-14T07:52:15</time></trkpt><trkpt lat="55.8078670" lon="49.0919150"><time>2021-08-14T07:52:16</time></trkpt><trkpt lat="55.8078740" lon="49.0919260"><time>2021-08-14T07:52:17</time></trkpt><trkpt lat="55.8078810" lon="49.0919780"><time>2021-08-14T07:52:18</time></trkpt><trkpt lat="55.8078820" lon="49.0919940"><time>2021-08-14T07:52:19</time></trkpt><trkpt lat="55.8078790" lon="49.0920430"><time>2021-08-14T07:52:20</time></trkpt><trkpt lat="55.8078810" lon="49.0920720"><time>2021-08-14T07:52:21</time></trkpt><trkpt lat="55.8078830" lon="49.0921020"><time>2021-08-14T07:52:22</time></trkpt><trkpt lat="55.8078800" lon="49.0921570"><time>2021-08-14T07:52:23</time></trkpt><trkpt lat="55.8078750" lon="49.0921780"><time>2021-08-14T07:52:24</time></trkpt><trkpt lat="55.8078810" lon="49.0922360"><time>2021-08-14T07:52:25</time></trkpt><trkpt lat="55.8078810" lon="49.0922530"><time>2021-08-14T07:52:26</time></trkpt><trkpt lat="55.8078900" lon="49.0922990"><time>2021-08-14T07:52:27</time></trkpt><trkpt lat="55.8078940" lon="49.0923170"><time>2021-08-14T07:52:28</time></trkpt><trkpt lat="55.8079080" lon="49.0923660"><time>2021-08-14T07:52:29</time></trkpt><trkpt lat="55.8079140" lon="49.0923800"><time>2021-08-14T07:52:30</time></trkpt><trkpt lat="55.8079270" lon="49.0924290"><time>2021-08-14T07:52:31</time></trkpt><trkpt lat="55.8079330" lon="49.0924420"><time>2021-08-14T07:52:32</time></trkpt><trkpt lat="55.8079480" lon="49.0924910"><time>2021-08-14T07:52:33</time></trkpt><trkpt lat="55.8079550" lon="49.0925090"><time>2021-08-14T07:52:34</time></trkpt><trkpt lat="55.8079670" lon="49.0925370"><time>2021-08-14T07:52:35</time></trkpt><trkpt lat="55.8079760" lon="49.0925600"><time>2021-08-14T07:52:36</time></trkpt><trkpt lat="55.8079940" lon="49.0926060"><time>2021-08-14T07:52:37</time></trkpt><trkpt lat="55.8080050" lon="49.0926170"><time>2021-08-14T07:52:38</time></trkpt><trkpt lat="55.8080190" lon="49.0926440"><time>2021-08-14T07:52:39</time></trkpt><trkpt lat="55.8080270" lon="49.0926660"><time>2021-08-14T07:52:40</time></trkpt><trkpt lat="55.8080350" lon="49.0926860"><time>2021-08-14T07:52:41</time></trkpt><trkpt lat="55.8080440" lon="49.0927100"><time>2021-08-14T07:52:42</time></trkpt><trkpt lat="55.8080560" lon="49.0927290"><time>2021-08-14T07:52:43</time></trkpt><trkpt lat="55.8080600" lon="49.0927600"><time>2021-08-14T07:52:44</time></trkpt><trkpt lat="55.8080750" lon="49.0927760"><time>2021-08-14T07:52:45</time></trkpt><trkpt lat="55.8080830" lon="49.0927990"><time>2021-08-14T07:52:46</time></trkpt><trkpt lat="55.8080990" lon="49.0928410"><time>2021-08-14T07:52:47</time></trkpt><trkpt lat="55.8081040" lon="49.0928530"><time>2021-08-14T07:52:48</time></trkpt><trkpt lat="55.8081180" lon="49.0928700"><time>2021-08-14T07:52:49</time></trkpt><trkpt lat="55.8081310" lon="49.0928830"><time>2021-08-14T07:52:50</time></trkpt><trkpt lat="55.8081530" lon="49.0929150"><time>2021-08-14T07:52:51</time></trkpt><trkpt lat="55.8081600" lon="49.0929260"><time>2021-08-14T07:52:52</time></trkpt><trkpt lat="55.8081800" lon="49.0929300"><time>2021-08-14T07:52:53</time></trkpt><trkpt lat="55.8081940" lon="49.0929460"><time>2021-08-14T07:52:54</time></trkpt><trkpt lat="55.8082220" lon="49.0929690"><time>2021-08-14T07:52:55</time></trkpt><trkpt lat="55.8082280" lon="49.0929800"><time>2021-08-14T07:52:56</time></trkpt><trkpt lat="55.8082430" lon="49.0929940"><time>2021-08-14T07:52:57</time></trkpt><trkpt lat="55.8082560" lon="49.0930180"><time>2021-08-14T07:52:58</time></trkpt><trkpt lat="55.8082660" lon="49.0930410"><time>2021-08-14T07:52:59</time></trkpt><trkpt lat="55.8082780" lon="49.0930650"><time>2021-08-14T07:53:00</time></trkpt><trkpt lat="55.8082940" lon="49.0930930"><time>2021-08-14T07:53:01</time></trkpt><trkpt lat="55.8083010" lon="49.0931060"><time>2021-08-14T07:53:03</time></trkpt><trkpt lat="55.8083080" lon="49.0931180"><time>2021-08-14T07:53:04</time></trkpt><trkpt lat="55.8083220" lon="49.0931290"><time>2021-08-14T07:53:05</time></trkpt><trkpt lat="55.8083340" lon="49.0931520"><time>2021-08-14T07:53:06</time></trkpt><trkpt lat="55.8083370" lon="49.0931890"><time>2021-08-14T07:53:07</time></trkpt><trkpt lat="55.8083470" lon="49.0932070"><time>2021-08-14T07:53:08</time></trkpt><trkpt lat="55.8083580" lon="49.0932180"><time>2021-08-14T07:53:09</time></trkpt><trkpt lat="55.8083750" lon="49.0932320"><time>2021-08-14T07:53:10</time></trkpt><trkpt lat="55.8083880" lon="49.0932460"><time>2021-08-14T07:53:11</time></trkpt><trkpt lat="55.8084000" lon="49.0932650"><time>2021-08-14T07:53:12</time></trkpt><trkpt lat="55.8084100" lon="49.0932850"><time>2021-08-14T07:53:13</time></trkpt><trkpt lat="55.8084230" lon="49.0932970"><time>2021-08-14T07:53:14</time></trkpt><trkpt lat="55.8084320" lon="49.0933150"><time>2021-08-14T07:53:15</time></trkpt><trkpt lat="55.8084460" lon="49.0933280"><time>2021-08-14T07:53:16</time></trkpt><trkpt lat="55.8084630" lon="49.0933410"><time>2021-08-14T07:53:17</time></trkpt><trkpt lat="55.8084740" lon="49.0933620"><time>2021-08-14T07:53:18</time></trkpt><trkpt lat="55.8084890" lon="49.0933790"><time>2021-08-14T07:53:19</time></trkpt><trkpt lat="55.8085040" lon="49.0933900"><time>2021-08-14T07:53:20</time></trkpt><trkpt lat="55.8085190" lon="49.0934010"><time>2021-08-14T07:53:21</time></trkpt><trkpt lat="55.8085280" lon="49.0934300"><time>2021-08-14T07:53:22</time></trkpt><trkpt lat="55.8085410" lon="49.0934480"><time>2021-08-14T07:53:23</time></trkpt><trkpt lat="55.8085580" lon="49.0934580"><time>2021-08-14T07:53:24</time></trkpt><trkpt lat="55.8085720" lon="49.0934710"><time>2021-08-14T07:53:25</time></trkpt><trkpt lat="55.8085890" lon="49.0934830"><time>2021-08-14T07:53:26</time></trkpt><trkpt lat="55.8086050" lon="49.0934990"><time>2021-08-14T07:53:27</time></trkpt><trkpt lat="55.8086170" lon="49.0935220"><time>2021-08-14T07:53:28</time></trkpt><trkpt lat="55.8086340" lon="49.0935270"><time>2021-08-14T07:53:29</time></trkpt><trkpt lat="55.8086470" lon="49.0935380"><time>2021-08-14T07:53:30</time></trkpt><trkpt lat="55.8086620" lon="49.0935450"><time>2021-08-14T07:53:31</time></trkpt><trkpt lat="55.8086780" lon="49.0935580"><time>2021-08-14T07:53:32</time></trkpt><trkpt lat="55.8087030" lon="49.0935810"><time>2021-08-14T07:53:33</time></trkpt><trkpt lat="55.8087130" lon="49.0935860"><time>2021-08-14T07:53:34</time></trkpt><trkpt lat="55.8087300" lon="49.0935860"><time>2021-08-14T07:53:35</time></trkpt><trkpt lat="55.8087440" lon="49.0936130"><time>2021-08-14T07:53:36</time></trkpt><trkpt lat="55.8087690" lon="49.0936220"><time>2021-08-14T07:53:37</time></trkpt><trkpt lat="55.8087800" lon="49.0936180"><time>2021-08-14T07:53:38</time></trkpt><trkpt lat="55.8088050" lon="49.0936430"><time>2021-08-14T07:53:39</time></trkpt><trkpt lat="55.8088130" lon="49.0936530"><time>2021-08-14T07:53:40</time></trkpt><trkpt lat="55.8088260" lon="49.0936660"><time>2021-08-14T07:53:41</time></trkpt><trkpt lat="55.8088400" lon="49.0936780"><time>2021-08-14T07:53:42</time></trkpt><trkpt lat="55.8088700" lon="49.0937140"><time>2021-08-14T07:53:43</time></trkpt><trkpt lat="55.8088850" lon="49.0937320"><time>2021-08-14T07:53:44</time></trkpt><trkpt lat="55.8088980" lon="49.0937500"><time>2021-08-14T07:53:45</time></trkpt><trkpt lat="55.8089170" lon="49.0937510"><time>2021-08-14T07:53:46</time></trkpt><trkpt lat="55.8089310" lon="49.0937640"><time>2021-08-14T07:53:47</time></trkpt><trkpt lat="55.8089450" lon="49.0937880"><time>2021-08-14T07:53:48</time></trkpt><trkpt lat="55.8089560" lon="49.0938030"><time>2021-08-14T07:53:49</time></trkpt><trkpt lat="55.8089690" lon="49.0938140"><time>2021-08-14T07:53:50</time></trkpt><trkpt lat="55.8089820" lon="49.0938310"><time>2021-08-14T07:53:51</time></trkpt><trkpt lat="55.8090000" lon="49.0938350"><time>2021-08-14T07:53:52</time></trkpt><trkpt lat="55.8090150" lon="49.0938510"><time>2021-08-14T07:53:53</time></trkpt><trkpt lat="55.8090280" lon="49.0938760"><time>2021-08-14T07:53:54</time></trkpt><trkpt lat="55.8090370" lon="49.0938980"><time>2021-08-14T07:53:55</time></trkpt><trkpt lat="55.8090480" lon="49.0939130"><time>2021-08-14T07:53:56</time></trkpt><trkpt lat="55.8090640" lon="49.0939220"><time>2021-08-14T07:53:57</time></trkpt><trkpt lat="55.8090790" lon="49.0939360"><time>2021-08-14T07:53:58</time></trkpt><trkpt lat="55.8090910" lon="49.0939570"><time>2021-08-14T07:53:59</time></trkpt><trkpt lat="55.8091040" lon="49.0939740"><time>2021-08-14T07:54:00</time></trkpt><trkpt lat="55.8091170" lon="49.0939890"><time>2021-08-14T07:54:01</time></trkpt><trkpt lat="55.8091320" lon="49.0940000"><time>2021-08-14T07:54:02</time></trkpt><trkpt lat="55.8091490" lon="49.0940080"><time>2021-08-14T07:54:03</time></trkpt><trkpt lat="55.8091630" lon="49.0940210"><time>2021-08-14T07:54:04</time></trkpt><trkpt lat="55.8091760" lon="49.0940380"><time>2021-08-14T07:54:05</time></trkpt><trkpt lat="55.8091880" lon="49.0940570"><time>2021-08-14T07:54:06</time></trkpt><trkpt lat="55.8092000" lon="49.0940730"><time>2021-08-14T07:54:07</time></trkpt><trkpt lat="55.8092130" lon="49.0940880"><time>2021-08-14T07:54:08</time></trkpt><trkpt lat="55.8092250" lon="49.0941040"><time>2021-08-14T07:54:09</time></trkpt><trkpt lat="55.8092400" lon="49.0941120"><time>2021-08-14T07:54:10</time></trkpt><trkpt lat="55.8092560" lon="49.0941200"><time>2021-08-14T07:54:11</time></trkpt><trkpt lat="55.8092660" lon="49.0941410"><time>2021-08-14T07:54:12</time></trkpt><trkpt lat="55.8092800" lon="49.0941560"><time>2021-08-14T07:54:13</time></trkpt><trkpt lat="55.8092890" lon="49.0941770"><time>2021-08-14T07:54:14</time></trkpt><trkpt lat="55.8093010" lon="49.0941910"><time>2021-08-14T07:54:15</time></trkpt><trkpt lat="55.8093160" lon="49.0942010"><time>2021-08-14T07:54:16</time></trkpt><trkpt lat="55.8093280" lon="49.0942160"><time>2021-08-14T07:54:17</time></trkpt><trkpt lat="55.8093410" lon="49.0942340"><time>2021-08-14T07:54:18</time></trkpt><trkpt lat="55.8093510" lon="49.0942520"><time>2021-08-14T07:54:19</time></trkpt><trkpt lat="55.8093600" lon="49.0942720"><time>2021-08-14T07:54:20</time></trkpt><trkpt lat="55.8093700" lon="49.0942900"><time>2021-08-14T07:54:21</time></trkpt><trkpt lat="55.8093850" lon="49.0943030"><time>2021-08-14T07:54:22</time></trkpt><trkpt lat="55.8093940" lon="49.0943190"><time>2021-08-14T07:54:23</time></trkpt><trkpt lat="55.8094080" lon="49.0943470"><time>2021-08-14T07:54:24</time></trkpt><trkpt lat="55.8094160" lon="49.0943560"><time>2021-08-14T07:54:25</time></trkpt><trkpt lat="55.8094230" lon="49.0943650"><time>2021-08-14T07:54:26</time></trkpt><trkpt lat="55.8094340" lon="49.0943790"><time>2021-08-14T07:54:27</time></trkpt><trkpt lat="55.8094440" lon="49.0943920"><time>2021-08-14T07:54:28</time></trkpt><trkpt lat="55.8094480" lon="49.0944000"><time>2021-08-14T07:54:29</time></trkpt><trkpt lat="55.8094560" lon="49.0944090"><time>2021-08-14T07:54:30</time></trkpt><trkpt lat="55.8094690" lon="49.0944220"><time>2021-08-14T07:54:31</time></trkpt><trkpt lat="55.8094710" lon="49.0944320"><time>2021-08-14T07:54:32</time></trkpt><trkpt lat="55.8094760" lon="49.0944500"><time>2021-08-14T07:54:33</time></trkpt><trkpt lat="55.8094830" lon="49.0944770"><time>2021-08-14T07:54:34</time></trkpt><trkpt lat="55.8095000" lon="49.0945030"><time>2021-08-14T07:54:35</time></trkpt><trkpt lat="55.8095070" lon="49.0945160"><time>2021-08-14T07:54:36</time></trkpt><trkpt lat="55.8095150" lon="49.0945300"><time>2021-08-14T07:54:37</time></trkpt><trkpt lat="55.8095260" lon="49.0945480"><time>2021-08-14T07:54:38</time></trkpt><trkpt lat="55.8095340" lon="49.0945710"><time>2021-08-14T07:54:39</time></trkpt><trkpt lat="55.8095350" lon="49.0945960"><time>2021-08-14T07:54:40</time></trkpt><trkpt lat="55.8095480" lon="49.0946230"><time>2021-08-14T07:54:41</time></trkpt><trkpt lat="55.8095480" lon="49.0946510"><time>2021-08-14T07:54:42</time></trkpt><trkpt lat="55.8095400" lon="49.0946750"><time>2021-08-14T07:54:43</time></trkpt><trkpt lat="55.8095400" lon="49.0946990"><time>2021-08-14T07:54:44</time></trkpt><trkpt lat="55.8095410" lon="49.0947170"><time>2021-08-14T07:54:45</time></trkpt><trkpt lat="55.8095380" lon="49.0947330"><time>2021-08-14T07:54:46</time></trkpt><trkpt lat="55.8095340" lon="49.0947600"><time>2021-08-14T07:54:47</time></trkpt><trkpt lat="55.8095310" lon="49.0947800"><time>2021-08-14T07:54:48</time></trkpt><trkpt lat="55.8095280" lon="49.0948070"><time>2021-08-14T07:54:49</time></trkpt><trkpt lat="55.8095190" lon="49.0948290"><time>2021-08-14T07:54:50</time></trkpt><trkpt lat="55.8095140" lon="49.0948550"><time>2021-08-14T07:54:51</time></trkpt><trkpt lat="55.8095090" lon="49.0948800"><time>2021-08-14T07:54:52</time></trkpt><trkpt lat="55.8095040" lon="49.0949190"><time>2021-08-14T07:54:53</time></trkpt><trkpt lat="55.8095010" lon="49.0949350"><time>2021-08-14T07:54:54</time></trkpt><trkpt lat="55.8094990" lon="49.0949500"><time>2021-08-14T07:54:55</time></trkpt><trkpt lat="55.8094930" lon="49.0949750"><time>2021-08-14T07:54:56</time></trkpt><trkpt lat="55.8094860" lon="49.0949980"><time>2021-08-14T07:54:57</time></trkpt><trkpt lat="55.8094790" lon="49.0950210"><time>2021-08-14T07:54:58</time></trkpt><trkpt lat="55.8094740" lon="49.0950450"><time>2021-08-14T07:54:59</time></trkpt><trkpt lat="55.8094670" lon="49.0950650"><time>2021-08-14T07:55:00</time></trkpt><trkpt lat="55.8094640" lon="49.0950940"><time>2021-08-14T07:55:01</time></trkpt><trkpt lat="55.8094590" lon="49.0951150"><time>2021-08-14T07:55:02</time></trkpt><trkpt lat="55.8094540" lon="49.0951440"><time>2021-08-14T07:55:03</time></trkpt><trkpt lat="55.8094470" lon="49.0951680"><time>2021-08-14T07:55:04</time></trkpt><trkpt lat="55.8094370" lon="49.0951870"><time>2021-08-14T07:55:05</time></trkpt><trkpt lat="55.8094350" lon="49.0952180"><time>2021-08-14T07:55:06</time></trkpt><trkpt lat="55.8094310" lon="49.0952450"><time>2021-08-14T07:55:07</time></trkpt><trkpt lat="55.8094220" lon="49.0952690"><time>2021-08-14T07:55:09</time></trkpt><trkpt lat="55.8094100" lon="49.0952910"><time>2021-08-14T07:55:10</time></trkpt><trkpt lat="55.8094020" lon="49.0953170"><time>2021-08-14T07:55:11</time></trkpt><trkpt lat="55.8093880" lon="49.0953340"><time>2021-08-14T07:55:12</time></trkpt><trkpt lat="55.8093830" lon="49.0953620"><time>2021-08-14T07:55:13</time></trkpt><trkpt lat="55.8093760" lon="49.0953880"><time>2021-08-14T07:55:14</time></trkpt><trkpt lat="55.8093660" lon="49.0954140"><time>2021-08-14T07:55:15</time></trkpt><trkpt lat="55.8093570" lon="49.0954430"><time>2021-08-14T07:55:16</time></trkpt><trkpt lat="55.8093450" lon="49.0954590"><time>2021-08-14T07:55:17</time></trkpt><trkpt lat="55.8093370" lon="49.0954780"><time>2021-08-14T07:55:18</time></trkpt><trkpt lat="55.8093270" lon="49.0955030"><time>2021-08-14T07:55:19</time></trkpt><trkpt lat="55.8093200" lon="49.0955310"><time>2021-08-14T07:55:20</time></trkpt><trkpt lat="55.8093160" lon="49.0955540"><time>2021-08-14T07:55:21</time></trkpt><trkpt lat="55.8093070" lon="49.0955850"><time>2021-08-14T07:55:22</time></trkpt><trkpt lat="55.8092870" lon="49.0956240"><time>2021-08-14T07:55:23</time></trkpt><trkpt lat="55.8092820" lon="49.0956370"><time>2021-08-14T07:55:24</time></trkpt><trkpt lat="55.8092720" lon="49.0956740"><time>2021-08-14T07:55:25</time></trkpt><trkpt lat="55.8092670" lon="49.0956890"><time>2021-08-14T07:55:26</time></trkpt><trkpt lat="55.8092630" lon="49.0957040"><time>2021-08-14T07:55:27</time></trkpt><trkpt lat="55.8092510" lon="49.0957250"><time>2021-08-14T07:55:28</time></trkpt><trkpt lat="55.8092390" lon="49.0957490"><time>2021-08-14T07:55:29</time></trkpt><trkpt lat="55.8092270" lon="49.0957670"><time>2021-08-14T07:55:30</time></trkpt><trkpt lat="55.8092160" lon="49.0957900"><time>2021-08-14T07:55:31</time></trkpt><trkpt lat="55.8092070" lon="49.0958160"><time>2021-08-14T07:55:32</time></trkpt><trkpt lat="55.8092020" lon="49.0958460"><time>2021-08-14T07:55:33</time></trkpt><trkpt lat="55.8091980" lon="49.0958690"><time>2021-08-14T07:55:34</time></trkpt><trkpt lat="55.8091930" lon="49.0958960"><time>2021-08-14T07:55:35</time></trkpt><trkpt lat="55.8091830" lon="49.0959170"><time>2021-08-14T07:55:36</time></trkpt><trkpt lat="55.8091710" lon="49.0959380"><time>2021-08-14T07:55:37</time></trkpt><trkpt lat="55.8091620" lon="49.0959590"><time>2021-08-14T07:55:38</time></trkpt><trkpt lat="55.8091540" lon="49.0959820"><time>2021-08-14T07:55:39</time></trkpt><trkpt lat="55.8091500" lon="49.0960080"><time>2021-08-14T07:55:40</time></trkpt><trkpt lat="55.8091530" lon="49.0960420"><time>2021-08-14T07:55:41</time></trkpt><trkpt lat="55.8091530" lon="49.0960710"><time>2021-08-14T07:55:42</time></trkpt><trkpt lat="55.8091520" lon="49.0961030"><time>2021-08-14T07:55:43</time></trkpt><trkpt lat="55.8091580" lon="49.0961310"><time>2021-08-14T07:55:44</time></trkpt><trkpt lat="55.8091690" lon="49.0961600"><time>2021-08-14T07:55:45</time></trkpt><trkpt lat="55.8091730" lon="49.0961900"><time>2021-08-14T07:55:46</time></trkpt><trkpt lat="55.8091790" lon="49.0962150"><time>2021-08-14T07:55:47</time></trkpt><trkpt lat="55.8091890" lon="49.0962360"><time>2021-08-14T07:55:48</time></trkpt><trkpt lat="55.8091970" lon="49.0962600"><time>2021-08-14T07:55:49</time></trkpt><trkpt lat="55.8092060" lon="49.0962840"><time>2021-08-14T07:55:50</time></trkpt><trkpt lat="55.8092180" lon="49.0963010"><time>2021-08-14T07:55:51</time></trkpt><trkpt lat="55.8092340" lon="49.0963150"><time>2021-08-14T07:55:52</time></trkpt><trkpt lat="55.8092470" lon="49.0963300"><time>2021-08-14T07:55:53</time></trkpt><trkpt lat="55.8092570" lon="49.0963510"><time>2021-08-14T07:55:54</time></trkpt><trkpt lat="55.8092660" lon="49.0963720"><time>2021-08-14T07:55:55</time></trkpt><trkpt lat="55.8092780" lon="49.0963930"><time>2021-08-14T07:55:56</time></trkpt><trkpt lat="55.8092860" lon="49.0964160"><time>2021-08-14T07:55:57</time></trkpt><trkpt lat="55.8092950" lon="49.0964370"><time>2021-08-14T07:55:58</time></trkpt><trkpt lat="55.8093060" lon="49.0964590"><time>2021-08-14T07:55:59</time></trkpt><trkpt lat="55.8093190" lon="49.0964730"><time>2021-08-14T07:56:00</time></trkpt><trkpt lat="55.8093310" lon="49.0964920"><time>2021-08-14T07:56:01</time></trkpt><trkpt lat="55.8093430" lon="49.0965030"><time>2021-08-14T07:56:02</time></trkpt><trkpt lat="55.8093510" lon="49.0965270"><time>2021-08-14T07:56:03</time></trkpt><trkpt lat="55.8093610" lon="49.0965510"><time>2021-08-14T07:56:04</time></trkpt><trkpt lat="55.8093700" lon="49.0965710"><time>2021-08-14T07:56:05</time></trkpt><trkpt lat="55.8093830" lon="49.0965930"><time>2021-08-14T07:56:06</time></trkpt><trkpt lat="55.8093930" lon="49.0966160"><time>2021-08-14T07:56:07</time></trkpt><trkpt lat="55.8094110" lon="49.0966260"><time>2021-08-14T07:56:08</time></trkpt><trkpt lat="55.8094260" lon="49.0966400"><time>2021-08-14T07:56:09</time></trkpt><trkpt lat="55.8094410" lon="49.0966550"><time>2021-08-14T07:56:10</time></trkpt><trkpt lat="55.8094550" lon="49.0966720"><time>2021-08-14T07:56:11</time></trkpt><trkpt lat="55.8094650" lon="49.0966900"><time>2021-08-14T07:56:12</time></trkpt><trkpt lat="55.8094750" lon="49.0967150"><time>2021-08-14T07:56:13</time></trkpt><trkpt lat="55.8094820" lon="49.0967390"><time>2021-08-14T07:56:14</time></trkpt><trkpt lat="55.8094930" lon="49.0967570"><time>2021-08-14T07:56:15</time></trkpt><trkpt lat="55.8095060" lon="49.0967700"><time>2021-08-14T07:56:16</time></trkpt><trkpt lat="55.8095140" lon="49.0967900"><time>2021-08-14T07:56:17</time></trkpt><trkpt lat="55.8095250" lon="49.0968070"><time>2021-08-14T07:56:18</time></trkpt><trkpt lat="55.8095390" lon="49.0968200"><time>2021-08-14T07:56:19</time></trkpt><trkpt lat="55.8095610" lon="49.0968530"><time>2021-08-14T07:56:20</time></trkpt><trkpt lat="55.8095720" lon="49.0968710"><time>2021-08-14T07:56:21</time></trkpt><trkpt lat="55.8095860" lon="49.0968850"><time>2021-08-14T07:56:22</time></trkpt><trkpt lat="55.8095970" lon="49.0969000"><time>2021-08-14T07:56:23</time></trkpt><trkpt lat="55.8096110" lon="49.0969170"><time>2021-08-14T07:56:24</time></trkpt><trkpt lat="55.8096200" lon="49.0969410"><time>2021-08-14T07:56:25</time></trkpt><trkpt lat="55.8096320" lon="49.0969560"><time>2021-08-14T07:56:26</time></trkpt><trkpt lat="55.8096480" lon="49.0969650"><time>2021-08-14T07:56:27</time></trkpt><trkpt lat="55.8096610" lon="49.0969780"><time>2021-08-14T07:56:28</time></trkpt><trkpt lat="55.8096730" lon="49.0969970"><time>2021-08-14T07:56:29</time></trkpt><trkpt lat="55.8096890" lon="49.0970070"><time>2021-08-14T07:56:30</time></trkpt><trkpt lat="55.8097020" lon="49.0970240"><time>2021-08-14T07:56:31</time></trkpt><trkpt lat="55.8097110" lon="49.0970460"><time>2021-08-14T07:56:32</time></trkpt><trkpt lat="55.8097220" lon="49.0970630"><time>2021-08-14T07:56:33</time></trkpt><trkpt lat="55.8097400" lon="49.0970710"><time>2021-08-14T07:56:34</time></trkpt><trkpt lat="55.8097540" lon="49.0970800"><time>2021-08-14T07:56:35</time></trkpt><trkpt lat="55.8097700" lon="49.0970890"><time>2021-08-14T07:56:36</time></trkpt><trkpt lat="55.8097820" lon="49.0971060"><time>2021-08-14T07:56:37</time></trkpt><trkpt lat="55.8097870" lon="49.0971360"><time>2021-08-14T07:56:38</time></trkpt><trkpt lat="55.8098020" lon="49.0971450"><time>2021-08-14T07:56:39</time></trkpt><trkpt lat="55.8098180" lon="49.0971560"><time>2021-08-14T07:56:40</time></trkpt><trkpt lat="55.8098280" lon="49.0971710"><time>2021-08-14T07:56:41</time></trkpt><trkpt lat="55.8098400" lon="49.0971830"><time>2021-08-14T07:56:42</time></trkpt><trkpt lat="55.8098560" lon="49.0971930"><time>2021-08-14T07:56:43</time></trkpt><trkpt lat="55.8098710" lon="49.0972020"><time>2021-08-14T07:56:44</time></trkpt><trkpt lat="55.8098880" lon="49.0972090"><time>2021-08-14T07:56:45</time></trkpt><trkpt lat="55.8099020" lon="49.0972260"><time>2021-08-14T07:56:46</time></trkpt><trkpt lat="55.8099170" lon="49.0972400"><time>2021-08-14T07:56:47</time></trkpt><trkpt lat="55.8099330" lon="49.0972370"><time>2021-08-14T07:56:48</time></trkpt><trkpt lat="55.8099370" lon="49.0972360"><time>2021-08-14T07:56:49</time></trkpt><trkpt lat="55.8099310" lon="49.0972340"><time>2021-08-14T07:56:50</time></trkpt><trkpt lat="55.8099310" lon="49.0972220"><time>2021-08-14T07:56:51</time></trkpt><trkpt lat="55.8099370" lon="49.0972060"><time>2021-08-14T07:56:52</time></trkpt><trkpt lat="55.8099340" lon="49.0971950"><time>2021-08-14T07:56:53</time></trkpt><trkpt lat="55.8099260" lon="49.0971850"><time>2021-08-14T07:56:54</time></trkpt><trkpt lat="55.8099160" lon="49.0971850"><time>2021-08-14T07:56:55</time></trkpt><trkpt lat="55.8099080" lon="49.0971880"><time>2021-08-14T07:56:56</time></trkpt><trkpt lat="55.8098990" lon="49.0971920"><time>2021-08-14T07:56:57</time></trkpt><trkpt lat="55.8098910" lon="49.0971950"><time>2021-08-14T07:56:58</time></trkpt><trkpt lat="55.8098820" lon="49.0971990"><time>2021-08-14T07:56:59</time></trkpt><trkpt lat="55.8098650" lon="49.0972200"><time>2021-08-14T07:57:00</time></trkpt><trkpt lat="55.8098520" lon="49.0972340"><time>2021-08-14T07:57:01</time></trkpt><trkpt lat="55.8098390" lon="49.0972490"><time>2021-08-14T07:57:02</time></trkpt><trkpt lat="55.8098260" lon="49.0972830"><time>2021-08-14T07:57:03</time></trkpt><trkpt lat="55.8098210" lon="49.0972950"><time>2021-08-14T07:57:04</time></trkpt><trkpt lat="55.8098150" lon="49.0973070"><time>2021-08-14T07:57:05</time></trkpt><trkpt lat="55.8097960" lon="49.0973540"><time>2021-08-14T07:57:06</time></trkpt><trkpt lat="55.8097900" lon="49.0973650"><time>2021-08-14T07:57:07</time></trkpt><trkpt lat="55.8097690" lon="49.0974010"><time>2021-08-14T07:57:08</time></trkpt><trkpt lat="55.8097590" lon="49.0974090"><time>2021-08-14T07:57:09</time></trkpt><trkpt lat="55.8097410" lon="49.0974280"><time>2021-08-14T07:57:10</time></trkpt><trkpt lat="55.8097330" lon="49.0974520"><time>2021-08-14T07:57:11</time></trkpt><trkpt lat="55.8097290" lon="49.0974730"><time>2021-08-14T07:57:12</time></trkpt><trkpt lat="55.8097210" lon="49.0975000"><time>2021-08-14T07:57:13</time></trkpt><trkpt lat="55.8097130" lon="49.0975420"><time>2021-08-14T07:57:15</time></trkpt><trkpt lat="55.8097130" lon="49.0975550"><time>2021-08-14T07:57:16</time></trkpt><trkpt lat="55.8097120" lon="49.0975680"><time>2021-08-14T07:57:17</time></trkpt><trkpt lat="55.8097070" lon="49.0976250"><time>2021-08-14T07:57:18</time></trkpt><trkpt lat="55.8096980" lon="49.0976460"><time>2021-08-14T07:57:19</time></trkpt><trkpt lat="55.8096850" lon="49.0976900"><time>2021-08-14T07:57:20</time></trkpt><trkpt lat="55.8096830" lon="49.0977420"><time>2021-08-14T07:57:21</time></trkpt><trkpt lat="55.8096850" lon="49.0977600"><time>2021-08-14T07:57:22</time></trkpt><trkpt lat="55.8096550" lon="49.0977990"><time>2021-08-14T07:57:23</time></trkpt><trkpt lat="55.8096360" lon="49.0978500"><time>2021-08-14T07:57:24</time></trkpt><trkpt lat="55.8096270" lon="49.0978750"><time>2021-08-14T07:57:25</time></trkpt><trkpt lat="55.8096150" lon="49.0978990"><time>2021-08-14T07:57:26</time></trkpt><trkpt lat="55.8096010" lon="49.0979250"><time>2021-08-14T07:57:27</time></trkpt><trkpt lat="55.8095940" lon="49.0979450"><time>2021-08-14T07:57:28</time></trkpt><trkpt lat="55.8095730" lon="49.0979620"><time>2021-08-14T07:57:29</time></trkpt><trkpt lat="55.8095670" lon="49.0979740"><time>2021-08-14T07:57:30</time></trkpt><trkpt lat="55.8095610" lon="49.0979860"><time>2021-08-14T07:57:31</time></trkpt><trkpt lat="55.8095410" lon="49.0980020"><time>2021-08-14T07:57:32</time></trkpt><trkpt lat="55.8095330" lon="49.0980060"><time>2021-08-14T07:57:33</time></trkpt><trkpt lat="55.8095260" lon="49.0980110"><time>2021-08-14T07:57:34</time></trkpt><trkpt lat="55.8095020" lon="49.0980350"><time>2021-08-14T07:57:35</time></trkpt><trkpt lat="55.8094920" lon="49.0980430"><time>2021-08-14T07:57:36</time></trkpt><trkpt lat="55.8094680" lon="49.0980640"><time>2021-08-14T07:57:37</time></trkpt><trkpt lat="55.8094580" lon="49.0980640"><time>2021-08-14T07:57:38</time></trkpt><trkpt lat="55.8094430" lon="49.0980610"><time>2021-08-14T07:57:39</time></trkpt><trkpt lat="55.8094300" lon="49.0980870"><time>2021-08-14T07:57:40</time></trkpt><trkpt lat="55.8094110" lon="49.0981220"><time>2021-08-14T07:57:41</time></trkpt><trkpt lat="55.8094020" lon="49.0981320"><time>2021-08-14T07:57:42</time></trkpt><trkpt lat="55.8093840" lon="49.0981440"><time>2021-08-14T07:57:43</time></trkpt><trkpt lat="55.8093690" lon="49.0981530"><time>2021-08-14T07:57:44</time></trkpt><trkpt lat="55.8093440" lon="49.0981820"><time>2021-08-14T07:57:45</time></trkpt><trkpt lat="55.8093350" lon="49.0982010"><time>2021-08-14T07:57:46</time></trkpt><trkpt lat="55.8093110" lon="49.0982370"><time>2021-08-14T07:57:47</time></trkpt><trkpt lat="55.8093030" lon="49.0982460"><time>2021-08-14T07:57:48</time></trkpt><trkpt lat="55.8092730" lon="49.0982690"><time>2021-08-14T07:57:49</time></trkpt><trkpt lat="55.8092620" lon="49.0982760"><time>2021-08-14T07:57:50</time></trkpt><trkpt lat="55.8092360" lon="49.0982980"><time>2021-08-14T07:57:51</time></trkpt><trkpt lat="55.8092260" lon="49.0983080"><time>2021-08-14T07:57:52</time></trkpt><trkpt lat="55.8092030" lon="49.0983410"><time>2021-08-14T07:57:53</time></trkpt><trkpt lat="55.8091960" lon="49.0983520"><time>2021-08-14T07:57:54</time></trkpt><trkpt lat="55.8091780" lon="49.0983660"><time>2021-08-14T07:57:55</time></trkpt><trkpt lat="55.8091660" lon="49.0983860"><time>2021-08-14T07:57:56</time></trkpt><trkpt lat="55.8091420" lon="49.0984400"><time>2021-08-14T07:57:57</time></trkpt><trkpt lat="55.8091280" lon="49.0984630"><time>2021-08-14T07:57:58</time></trkpt><trkpt lat="55.8091160" lon="49.0984910"><time>2021-08-14T07:57:59</time></trkpt><trkpt lat="55.8091030" lon="49.0985090"><time>2021-08-14T07:58:00</time></trkpt><trkpt lat="55.8090900" lon="49.0985270"><time>2021-08-14T07:58:01</time></trkpt><trkpt lat="55.8090810" lon="49.0985530"><time>2021-08-14T07:58:02</time></trkpt><trkpt lat="55.8090610" lon="49.0985630"><time>2021-08-14T07:58:03</time></trkpt><trkpt lat="55.8090430" lon="49.0985690"><time>2021-08-14T07:58:04</time></trkpt><trkpt lat="55.8090320" lon="49.0985970"><time>2021-08-14T07:58:05</time></trkpt><trkpt lat="55.8090190" lon="49.0986100"><time>2021-08-14T07:58:06</time></trkpt><trkpt lat="55.8090030" lon="49.0986210"><time>2021-08-14T07:58:07</time></trkpt><trkpt lat="55.8089860" lon="49.0986270"><time>2021-08-14T07:58:08</time></trkpt><trkpt lat="55.8089750" lon="49.0986390"><time>2021-08-14T07:58:09</time></trkpt><trkpt lat="55.8089630" lon="49.0986560"><time>2021-08-14T07:58:10</time></trkpt><trkpt lat="55.8089480" lon="49.0986720"><time>2021-08-14T07:58:11</time></trkpt><trkpt lat="55.8089330" lon="49.0986850"><time>2021-08-14T07:58:12</time></trkpt><trkpt lat="55.8089150" lon="49.0986910"><time>2021-08-14T07:58:13</time></trkpt><trkpt lat="55.8089010" lon="49.0986930"><time>2021-08-14T07:58:14</time></trkpt><trkpt lat="55.8088870" lon="49.0987080"><time>2021-08-14T07:58:15</time></trkpt><trkpt lat="55.8088730" lon="49.0987240"><time>2021-08-14T07:58:16</time></trkpt><trkpt lat="55.8088590" lon="49.0987460"><time>2021-08-14T07:58:17</time></trkpt><trkpt lat="55.8088420" lon="49.0987570"><time>2021-08-14T07:58:18</time></trkpt><trkpt lat="55.8088260" lon="49.0987630"><time>2021-08-14T07:58:19</time></trkpt><trkpt lat="55.8088090" lon="49.0987610"><time>2021-08-14T07:58:20</time></trkpt><trkpt lat="55.8087920" lon="49.0987670"><time>2021-08-14T07:58:21</time></trkpt><trkpt lat="55.8087770" lon="49.0987790"><time>2021-08-14T07:58:22</time></trkpt><trkpt lat="55.8087610" lon="49.0987930"><time>2021-08-14T07:58:23</time></trkpt><trkpt lat="55.8087460" lon="49.0988060"><time>2021-08-14T07:58:24</time></trkpt><trkpt lat="55.8087300" lon="49.0988140"><time>2021-08-14T07:58:25</time></trkpt><trkpt lat="55.8087110" lon="49.0988540"><time>2021-08-14T07:58:26</time></trkpt><trkpt lat="55.8087050" lon="49.0988670"><time>2021-08-14T07:58:27</time></trkpt><trkpt lat="55.8086770" lon="49.0988940"><time>2021-08-14T07:58:28</time></trkpt><trkpt lat="55.8086680" lon="49.0989000"><time>2021-08-14T07:58:29</time></trkpt><trkpt lat="55.8086580" lon="49.0989090"><time>2021-08-14T07:58:30</time></trkpt><trkpt lat="55.8086390" lon="49.0989120"><time>2021-08-14T07:58:31</time></trkpt><trkpt lat="55.8086160" lon="49.0989320"><time>2021-08-14T07:58:32</time></trkpt><trkpt lat="55.8086070" lon="49.0989420"><time>2021-08-14T07:58:33</time></trkpt><trkpt lat="55.8085980" lon="49.0989640"><time>2021-08-14T07:58:34</time></trkpt><trkpt lat="55.8085830" lon="49.0989700"><time>2021-08-14T07:58:35</time></trkpt><trkpt lat="55.8085660" lon="49.0989770"><time>2021-08-14T07:58:36</time></trkpt><trkpt lat="55.8085520" lon="49.0989940"><time>2021-08-14T07:58:37</time></trkpt><trkpt lat="55.8085420" lon="49.0990040"><time>2021-08-14T07:58:38</time></trkpt><trkpt lat="55.8085310" lon="49.0990070"><time>2021-08-14T07:58:39</time></trkpt><trkpt lat="55.8085160" lon="49.0989950"><time>2021-08-14T07:58:40</time></trkpt><trkpt lat="55.8085010" lon="49.0989950"><time>2021-08-14T07:58:41</time></trkpt><trkpt lat="55.8084870" lon="49.0989820"><time>2021-08-14T07:58:42</time></trkpt><trkpt lat="55.8084740" lon="49.0989560"><time>2021-08-14T07:58:43</time></trkpt><trkpt lat="55.8084660" lon="49.0989340"><time>2021-08-14T07:58:44</time></trkpt><trkpt lat="55.8084580" lon="49.0989160"><time>2021-08-14T07:58:45</time></trkpt><trkpt lat="55.8084530" lon="49.0988950"><time>2021-08-14T07:58:46</time></trkpt><trkpt lat="55.8084500" lon="49.0988820"><time>2021-08-14T07:58:47</time></trkpt><trkpt lat="55.8084370" lon="49.0988560"><time>2021-08-14T07:58:48</time></trkpt><trkpt lat="55.8084280" lon="49.0988480"><time>2021-08-14T07:58:49</time></trkpt><trkpt lat="55.8084200" lon="49.0988390"><time>2021-08-14T07:58:50</time></trkpt><trkpt lat="55.8084100" lon="49.0988240"><time>2021-08-14T07:58:51</time></trkpt><trkpt lat="55.8083980" lon="49.0988100"><time>2021-08-14T07:58:52</time></trkpt><trkpt lat="55.8083850" lon="49.0987960"><time>2021-08-14T07:58:53</time></trkpt><trkpt lat="55.8083740" lon="49.0987810"><time>2021-08-14T07:58:54</time></trkpt><trkpt lat="55.8083590" lon="49.0987590"><time>2021-08-14T07:58:55</time></trkpt><trkpt lat="55.8083520" lon="49.0987510"><time>2021-08-14T07:58:56</time></trkpt><trkpt lat="55.8083440" lon="49.0987430"><time>2021-08-14T07:58:57</time></trkpt><trkpt lat="55.8083370" lon="49.0987270"><time>2021-08-14T07:58:58</time></trkpt><trkpt lat="55.8083270" lon="49.0987170"><time>2021-08-14T07:58:59</time></trkpt><trkpt lat="55.8083150" lon="49.0987090"><time>2021-08-14T07:59:00</time></trkpt><trkpt lat="55.8082990" lon="49.0986870"><time>2021-08-14T07:59:01</time></trkpt><trkpt lat="55.8082910" lon="49.0986790"><time>2021-08-14T07:59:02</time></trkpt><trkpt lat="55.8082840" lon="49.0986720"><time>2021-08-14T07:59:03</time></trkpt><trkpt lat="55.8082720" lon="49.0986700"><time>2021-08-14T07:59:04</time></trkpt><trkpt lat="55.8082630" lon="49.0986540"><time>2021-08-14T07:59:05</time></trkpt><trkpt lat="55.8082530" lon="49.0986400"><time>2021-08-14T07:59:06</time></trkpt><trkpt lat="55.8082400" lon="49.0986370"><time>2021-08-14T07:59:07</time></trkpt><trkpt lat="55.8082300" lon="49.0986230"><time>2021-08-14T07:59:08</time></trkpt><trkpt lat="55.8082230" lon="49.0986200"><time>2021-08-14T07:59:09</time></trkpt><trkpt lat="55.8082170" lon="49.0986030"><time>2021-08-14T07:59:10</time></trkpt><trkpt lat="55.8082080" lon="49.0985780"><time>2021-08-14T07:59:11</time></trkpt><trkpt lat="55.8081920" lon="49.0985570"><time>2021-08-14T07:59:12</time></trkpt><trkpt lat="55.8081860" lon="49.0985450"><time>2021-08-14T07:59:13</time></trkpt><trkpt lat="55.8081810" lon="49.0985330"><time>2021-08-14T07:59:14</time></trkpt><trkpt lat="55.8081750" lon="49.0985090"><time>2021-08-14T07:59:15</time></trkpt><trkpt lat="55.8081650" lon="49.0984870"><time>2021-08-14T07:59:16</time></trkpt><trkpt lat="55.8081590" lon="49.0984610"><time>2021-08-14T07:59:17</time></trkpt><trkpt lat="55.8081500" lon="49.0984390"><time>2021-08-14T07:59:18</time></trkpt><trkpt lat="55.8081440" lon="49.0984160"><time>2021-08-14T07:59:19</time></trkpt><trkpt lat="55.8081390" lon="49.0983910"><time>2021-08-14T07:59:21</time></trkpt><trkpt lat="55.8081290" lon="49.0983710"><time>2021-08-14T07:59:22</time></trkpt><trkpt lat="55.8081240" lon="49.0983470"><time>2021-08-14T07:59:23</time></trkpt><trkpt lat="55.8081130" lon="49.0983260"><time>2021-08-14T07:59:24</time></trkpt><trkpt lat="55.8081090" lon="49.0982980"><time>2021-08-14T07:59:25</time></trkpt><trkpt lat="55.8081040" lon="49.0982730"><time>2021-08-14T07:59:26</time></trkpt><trkpt lat="55.8081010" lon="49.0982490"><time>2021-08-14T07:59:27</time></trkpt><trkpt lat="55.8080930" lon="49.0982270"><time>2021-08-14T07:59:28</time></trkpt><trkpt lat="55.8080840" lon="49.0982040"><time>2021-08-14T07:59:29</time></trkpt><trkpt lat="55.8080780" lon="49.0981800"><time>2021-08-14T07:59:30</time></trkpt><trkpt lat="55.8080760" lon="49.0981530"><time>2021-08-14T07:59:31</time></trkpt><trkpt lat="55.8080720" lon="49.0981270"><time>2021-08-14T07:59:32</time></trkpt><trkpt lat="55.8080690" lon="49.0981010"><time>2021-08-14T07:59:33</time></trkpt><trkpt lat="55.8080620" lon="49.0980780"><time>2021-08-14T07:59:34</time></trkpt><trkpt lat="55.8080550" lon="49.0980550"><time>2021-08-14T07:59:35</time></trkpt><trkpt lat="55.8080470" lon="49.0980280"><time>2021-08-14T07:59:36</time></trkpt><trkpt lat="55.8080400" lon="49.0980000"><time>2021-08-14T07:59:37</time></trkpt><trkpt lat="55.8080330" lon="49.0979750"><time>2021-08-14T07:59:38</time></trkpt><trkpt lat="55.8080280" lon="49.0979490"><time>2021-08-14T07:59:39</time></trkpt><trkpt lat="55.8080200" lon="49.0979220"><time>2021-08-14T07:59:40</time></trkpt><trkpt lat="55.8080140" lon="49.0978950"><time>2021-08-14T07:59:41</time></trkpt><trkpt lat="55.8080060" lon="49.0978660"><time>2021-08-14T07:59:42</time></trkpt><trkpt lat="55.8080010" lon="49.0978380"><time>2021-08-14T07:59:43</time></trkpt><trkpt lat="55.8079920" lon="49.0978140"><time>2021-08-14T07:59:44</time></trkpt><trkpt lat="55.8079810" lon="49.0977920"><time>2021-08-14T07:59:45</time></trkpt><trkpt lat="55.8079700" lon="49.0977690"><time>2021-08-14T07:59:46</time></trkpt><trkpt lat="55.8079680" lon="49.0977390"><time>2021-08-14T07:59:47</time></trkpt><trkpt lat="55.8079550" lon="49.0976920"><time>2021-08-14T07:59:48</time></trkpt><trkpt lat="55.8079500" lon="49.0976760"><time>2021-08-14T07:59:49</time></trkpt><trkpt lat="55.8079390" lon="49.0976530"><time>2021-08-14T07:59:50</time></trkpt><trkpt lat="55.8079310" lon="49.0976250"><time>2021-08-14T07:59:51</time></trkpt><trkpt lat="55.8079250" lon="49.0975980"><time>2021-08-14T07:59:52</time></trkpt><trkpt lat="55.8079200" lon="49.0975670"><time>2021-08-14T07:59:53</time></trkpt><trkpt lat="55.8079090" lon="49.0975480"><time>2021-08-14T07:59:54</time></trkpt><trkpt lat="55.8078970" lon="49.0975240"><time>2021-08-14T07:59:55</time></trkpt><trkpt lat="55.8078900" lon="49.0974940"><time>2021-08-14T07:59:56</time></trkpt><trkpt lat="55.8078840" lon="49.0974650"><time>2021-08-14T07:59:57</time></trkpt><trkpt lat="55.8078710" lon="49.0974190"><time>2021-08-14T07:59:58</time></trkpt><trkpt lat="55.8078670" lon="49.0974060"><time>2021-08-14T07:59:59</time></trkpt><trkpt lat="55.8078540" lon="49.0973820"><time>2021-08-14T08:00:00</time></trkpt><trkpt lat="55.8078460" lon="49.0973580"><time>2021-08-14T08:00:01</time></trkpt><trkpt lat="55.8078410" lon="49.0973260"><time>2021-08-14T08:00:02</time></trkpt><trkpt lat="55.8078330" lon="49.0972990"><time>2021-08-14T08:00:03</time></trkpt><trkpt lat="55.8078300" lon="49.0972720"><time>2021-08-14T08:00:04</time></trkpt><trkpt lat="55.8078220" lon="49.0972480"><time>2021-08-14T08:00:05</time></trkpt><trkpt lat="55.8078180" lon="49.0972160"><time>2021-08-14T08:00:06</time></trkpt><trkpt lat="55.8078120" lon="49.0971870"><time>2021-08-14T08:00:07</time></trkpt><trkpt lat="55.8078110" lon="49.0971610"><time>2021-08-14T08:00:08</time></trkpt><trkpt lat="55.8077930" lon="49.0971180"><time>2021-08-14T08:00:09</time></trkpt><trkpt lat="55.8077880" lon="49.0970950"><time>2021-08-14T08:00:10</time></trkpt><trkpt lat="55.8077820" lon="49.0970430"><time>2021-08-14T08:00:11</time></trkpt><trkpt lat="55.8077780" lon="49.0970280"><time>2021-08-14T08:00:12</time></trkpt><trkpt lat="55.8077590" lon="49.0969950"><time>2021-08-14T08:00:13</time></trkpt><trkpt lat="55.8077540" lon="49.0969800"><time>2021-08-14T08:00:14</time></trkpt><trkpt lat="55.8077520" lon="49.0969490"><time>2021-08-14T08:00:15</time></trkpt><trkpt lat="55.8077460" lon="49.0969220"><time>2021-08-14T08:00:16</time></trkpt><trkpt lat="55.8077410" lon="49.0968960"><time>2021-08-14T08:00:17</time></trkpt><trkpt lat="55.8077270" lon="49.0968740"><time>2021-08-14T08:00:18</time></trkpt><trkpt lat="55.8077160" lon="49.0968260"><time>2021-08-14T08:00:19</time></trkpt><trkpt lat="55.8077110" lon="49.0968100"><time>2021-08-14T08:00:20</time></trkpt><trkpt lat="55.8077120" lon="49.0967850"><time>2021-08-14T08:00:21</time></trkpt><trkpt lat="55.8077060" lon="49.0967610"><time>2021-08-14T08:00:22</time></trkpt><trkpt lat="55.8076900" lon="49.0967190"><time>2021-08-14T08:00:23</time></trkpt><trkpt lat="55.8076860" lon="49.0967030"><time>2021-08-14T08:00:24</time></trkpt><trkpt lat="55.8076780" lon="49.0966760"><time>2021-08-14T08:00:25</time></trkpt><trkpt lat="55.8076790" lon="49.0966480"><time>2021-08-14T08:00:26</time></trkpt><trkpt lat="55.8076710" lon="49.0966260"><time>2021-08-14T08:00:27</time></trkpt><trkpt lat="55.8076620" lon="49.0965970"><time>2021-08-14T08:00:28</time></trkpt><trkpt lat="55.8076460" lon="49.0965660"><time>2021-08-14T08:00:29</time></trkpt><trkpt lat="55.8076470" lon="49.0965400"><time>2021-08-14T08:00:30</time></trkpt><trkpt lat="55.8076440" lon="49.0965120"><time>2021-08-14T08:00:31</time></trkpt><trkpt lat="55.8076350" lon="49.0964890"><time>2021-08-14T08:00:32</time></trkpt><trkpt lat="55.8076160" lon="49.0964530"><time>2021-08-14T08:00:33</time></trkpt><trkpt lat="55.8076100" lon="49.0964400"><time>2021-08-14T08:00:34</time></trkpt><trkpt lat="55.8076050" lon="49.0964090"><time>2021-08-14T08:00:35</time></trkpt><trkpt lat="55.8076020" lon="49.0963800"><time>2021-08-14T08:00:36</time></trkpt><trkpt lat="55.8076010" lon="49.0963510"><time>2021-08-14T08:00:37</time></trkpt><trkpt lat="55.8075920" lon="49.0963250"><time>2021-08-14T08:00:38</time></trkpt><trkpt lat="55.8075740" lon="49.0962860"><time>2021-08-14T08:00:39</time></trkpt><trkpt lat="55.8075690" lon="49.0962740"><time>2021-08-14T08:00:40</time></trkpt><trkpt lat="55.8075650" lon="49.0962450"><time>2021-08-14T08:00:41</time></trkpt><trkpt lat="55.8075620" lon="49.0962200"><time>2021-08-14T08:00:42</time></trkpt><trkpt lat="55.8075520" lon="49.0961970"><time>2021-08-14T08:00:43</time></trkpt><trkpt lat="55.8075410" lon="49.0961700"><time>2021-08-14T08:00:44</time></trkpt><trkpt lat="55.8075360" lon="49.0961420"><time>2021-08-14T08:00:45</time></trkpt><trkpt lat="55.8075320" lon="49.0961120"><time>2021-08-14T08:00:46</time></trkpt><trkpt lat="55.8075280" lon="49.0960860"><time>2021-08-14T08:00:47</time></trkpt><trkpt lat="55.8075150" lon="49.0960640"><time>2021-08-14T08:00:48</time></trkpt><trkpt lat="55.8075070" lon="49.0960420"><time>2021-08-14T08:00:49</time></trkpt><trkpt lat="55.8074990" lon="49.0960160"><time>2021-08-14T08:00:50</time></trkpt><trkpt lat="55.8074920" lon="49.0959910"><time>2021-08-14T08:00:51</time></trkpt><trkpt lat="55.8074910" lon="49.0959580"><time>2021-08-14T08:00:52</time></trkpt><trkpt lat="55.8074870" lon="49.0959330"><time>2021-08-14T08:00:53</time></trkpt><trkpt lat="55.8074740" lon="49.0959200"><time>2021-08-14T08:00:54</time></trkpt><trkpt lat="55.8074660" lon="49.0958930"><time>2021-08-14T08:00:55</time></trkpt><trkpt lat="55.8074610" lon="49.0958650"><time>2021-08-14T08:00:56</time></trkpt><trkpt lat="55.8074510" lon="49.0958380"><time>2021-08-14T08:00:57</time></trkpt><trkpt lat="55.8074440" lon="49.0958130"><time>2021-08-14T08:00:58</time></trkpt><trkpt lat="55.8074390" lon="49.0957830"><time>2021-08-14T08:00:59</time></trkpt><trkpt lat="55.8074270" lon="49.0957620"><time>2021-08-14T08:01:00</time></trkpt><trkpt lat="55.8074250" lon="49.0957330"><time>2021-08-14T08:01:01</time></trkpt><trkpt lat="55.8074170" lon="49.0957070"><time>2021-08-14T08:01:02</time></trkpt><trkpt lat="55.8074150" lon="49.0956820"><time>2021-08-14T08:01:03</time></trkpt><trkpt lat="55.8074060" lon="49.0956560"><time>2021-08-14T08:01:04</time></trkpt><trkpt lat="55.8073900" lon="49.0956160"><time>2021-08-14T08:01:05</time></trkpt><trkpt lat="55.8073860" lon="49.0956010"><time>2021-08-14T08:01:06</time></trkpt><trkpt lat="55.8073810" lon="49.0955750"><time>2021-08-14T08:01:07</time></trkpt><trkpt lat="55.8073760" lon="49.0955520"><time>2021-08-14T08:01:08</time></trkpt><trkpt lat="55.8073720" lon="49.0955210"><time>2021-08-14T08:01:09</time></trkpt><trkpt lat="55.8073590" lon="49.0954960"><time>2021-08-14T08:01:10</time></trkpt><trkpt lat="55.8073470" lon="49.0954740"><time>2021-08-14T08:01:11</time></trkpt><trkpt lat="55.8073400" lon="49.0954460"><time>2021-08-14T08:01:12</time></trkpt><trkpt lat="55.8073340" lon="49.0954160"><time>2021-08-14T08:01:13</time></trkpt><trkpt lat="55.8073290" lon="49.0953920"><time>2021-08-14T08:01:14</time></trkpt><trkpt lat="55.8073130" lon="49.0953560"><time>2021-08-14T08:01:15</time></trkpt><trkpt lat="55.8073060" lon="49.0953410"><time>2021-08-14T08:01:16</time></trkpt><trkpt lat="55.8072990" lon="49.0953150"><time>2021-08-14T08:01:17</time></trkpt><trkpt lat="55.8072930" lon="49.0952890"><time>2021-08-14T08:01:18</time></trkpt><trkpt lat="55.8072930" lon="49.0952620"><time>2021-08-14T08:01:19</time></trkpt><trkpt lat="55.8072890" lon="49.0952350"><time>2021-08-14T08:01:20</time></trkpt><trkpt lat="55.8072790" lon="49.0952100"><time>2021-08-14T08:01:21</time></trkpt><trkpt lat="55.8072670" lon="49.0951830"><time>2021-08-14T08:01:22</time></trkpt><trkpt lat="55.8072620" lon="49.0951590"><time>2021-08-14T08:01:23</time></trkpt><trkpt lat="55.8072550" lon="49.0951340"><time>2021-08-14T08:01:24</time></trkpt><trkpt lat="55.8072480" lon="49.0951110"><time>2021-08-14T08:01:25</time></trkpt><trkpt lat="55.8072410" lon="49.0950880"><time>2021-08-14T08:01:27</time></trkpt><trkpt lat="55.8072340" lon="49.0950590"><time>2021-08-14T08:01:28</time></trkpt><trkpt lat="55.8072270" lon="49.0950310"><time>2021-08-14T08:01:29</time></trkpt><trkpt lat="55.8072190" lon="49.0950080"><time>2021-08-14T08:01:30</time></trkpt><trkpt lat="55.8072150" lon="49.0949810"><time>2021-08-14T08:01:31</time></trkpt><trkpt lat="55.8072120" lon="49.0949560"><time>2021-08-14T08:01:32</time></trkpt><trkpt lat="55.8072020" lon="49.0949310"><time>2021-08-14T08:01:33</time></trkpt><trkpt lat="55.8071910" lon="49.0949060"><time>2021-08-14T08:01:34</time></trkpt><trkpt lat="55.8071850" lon="49.0948850"><time>2021-08-14T08:01:35</time></trkpt><trkpt lat="55.8071790" lon="49.0948550"><time>2021-08-14T08:01:36</time></trkpt><trkpt lat="55.8071730" lon="49.0948290"><time>2021-08-14T08:01:37</time></trkpt><trkpt lat="55.8071690" lon="49.0948020"><time>2021-08-14T08:01:38</time></trkpt><trkpt lat="55.8071620" lon="49.0947790"><time>2021-08-14T08:01:39</time></trkpt><trkpt lat="55.8071530" lon="49.0947530"><time>2021-08-14T08:01:40</time></trkpt><trkpt lat="55.8071450" lon="49.0947260"><time>2021-08-14T08:01:41</time></trkpt><trkpt lat="55.8071380" lon="49.0947010"><time>2021-08-14T08:01:42</time></trkpt><trkpt lat="55.8071360" lon="49.0946730"><time>2021-08-14T08:01:43</time></trkpt><trkpt lat="55.8071330" lon="49.0946480"><time>2021-08-14T08:01:44</time></trkpt><trkpt lat="55.8071270" lon="49.0946230"><time>2021-08-14T08:01:45</time></trkpt><trkpt lat="55.8071160" lon="49.0946000"><time>2021-08-14T08:01:46</time></trkpt><trkpt lat="55.8071070" lon="49.0945760"><time>2021-08-14T08:01:47</time></trkpt><trkpt lat="55.8071000" lon="49.0945520"><time>2021-08-14T08:01:48</time></trkpt><trkpt lat="55.8070950" lon="49.0945250"><time>2021-08-14T08:01:49</time></trkpt><trkpt lat="55.8070910" lon="49.0945000"><time>2021-08-14T08:01:50</time></trkpt><trkpt lat="55.8070830" lon="49.0944750"><time>2021-08-14T08:01:51</time></trkpt><trkpt lat="55.8070740" lon="49.0944500"><time>2021-08-14T08:01:52</time></trkpt><trkpt lat="55.8070640" lon="49.0944260"><time>2021-08-14T08:01:53</time></trkpt><trkpt lat="55.8070580" lon="49.0943990"><time>2021-08-14T08:01:54</time></trkpt><trkpt lat="55.8070540" lon="49.0943700"><time>2021-08-14T08:01:55</time></trkpt><trkpt lat="55.8070510" lon="49.0943420"><time>2021-08-14T08:01:56</time></trkpt><trkpt lat="55.8070450" lon="49.0943170"><time>2021-08-14T08:01:57</time></trkpt><trkpt lat="55.8070360" lon="49.0942910"><time>2021-08-14T08:01:58</time></trkpt><trkpt lat="55.8070290" lon="49.0942640"><time>2021-08-14T08:01:59</time></trkpt><trkpt lat="55.8070210" lon="49.0942370"><time>2021-08-14T08:02:00</time></trkpt><trkpt lat="55.8070150" lon="49.0942090"><time>2021-08-14T08:02:01</time></trkpt><trkpt lat="55.8070130" lon="49.0941820"><time>2021-08-14T08:02:02</time></trkpt><trkpt lat="55.8069980" lon="49.0941590"><time>2021-08-14T08:02:03</time></trkpt><trkpt lat="55.8069910" lon="49.0941320"><time>2021-08-14T08:02:04</time></trkpt><trkpt lat="55.8069830" lon="49.0941050"><time>2021-08-14T08:02:05</time></trkpt><trkpt lat="55.8069770" lon="49.0940760"><time>2021-08-14T08:02:06</time></trkpt><trkpt lat="55.8069730" lon="49.0940480"><time>2021-08-14T08:02:07</time></trkpt><trkpt lat="55.8069680" lon="49.0940220"><time>2021-08-14T08:02:08</time></trkpt><trkpt lat="55.8069580" lon="49.0939980"><time>2021-08-14T08:02:09</time></trkpt><trkpt lat="55.8069510" lon="49.0939720"><time>2021-08-14T08:02:10</time></trkpt><trkpt lat="55.8069420" lon="49.0939460"><time>2021-08-14T08:02:11</time></trkpt><trkpt lat="55.8069340" lon="49.0939210"><time>2021-08-14T08:02:12</time></trkpt><trkpt lat="55.8069260" lon="49.0938630"><time>2021-08-14T08:02:13</time></trkpt><trkpt lat="55.8069200" lon="49.0938390"><time>2021-08-14T08:02:14</time></trkpt><trkpt lat="55.8069070" lon="49.0938190"><time>2021-08-14T08:02:15</time></trkpt><trkpt lat="55.8068960" lon="49.0937950"><time>2021-08-14T08:02:16</time></trkpt><trkpt lat="55.8068910" lon="49.0937660"><time>2021-08-14T08:02:17</time></trkpt><trkpt lat="55.8068880" lon="49.0937340"><time>2021-08-14T08:02:18</time></trkpt><trkpt lat="55.8068840" lon="49.0937080"><time>2021-08-14T08:02:19</time></trkpt><trkpt lat="55.8068760" lon="49.0936830"><time>2021-08-14T08:02:20</time></trkpt><trkpt lat="55.8068670" lon="49.0936580"><time>2021-08-14T08:02:21</time></trkpt><trkpt lat="55.8068570" lon="49.0936350"><time>2021-08-14T08:02:22</time></trkpt><trkpt lat="55.8068540" lon="49.0936050"><time>2021-08-14T08:02:23</time></trkpt><trkpt lat="55.8068440" lon="49.0935800"><time>2021-08-14T08:02:24</time></trkpt><trkpt lat="55.8068400" lon="49.0935550"><time>2021-08-14T08:02:25</time></trkpt><trkpt lat="55.8068350" lon="49.0935290"><time>2021-08-14T08:02:26</time></trkpt><trkpt lat="55.8068250" lon="49.0935070"><time>2021-08-14T08:02:27</time></trkpt><trkpt lat="55.8068170" lon="49.0934820"><time>2021-08-14T08:02:28</time></trkpt><trkpt lat="55.8068110" lon="49.0934580"><time>2021-08-14T08:02:29</time></trkpt><trkpt lat="55.8068060" lon="49.0934300"><time>2021-08-14T08:02:30</time></trkpt><trkpt lat="55.8067990" lon="49.0934050"><time>2021-08-14T08:02:31</time></trkpt><trkpt lat="55.8067920" lon="49.0933800"><time>2021-08-14T08:02:32</time></trkpt><trkpt lat="55.8067870" lon="49.0933570"><time>2021-08-14T08:02:33</time></trkpt><trkpt lat="55.8067780" lon="49.0933340"><time>2021-08-14T08:02:34</time></trkpt><trkpt lat="55.8067690" lon="49.0933120"><time>2021-08-14T08:02:35</time></trkpt><trkpt lat="55.8067590" lon="49.0932900"><time>2021-08-14T08:02:36</time></trkpt><trkpt lat="55.8067470" lon="49.0932710"><time>2021-08-14T08:02:37</time></trkpt><trkpt lat="55.8067310" lon="49.0932610"><time>2021-08-14T08:02:38</time></trkpt><trkpt lat="55.8067170" lon="49.0932540"><time>2021-08-14T08:02:39</time></trkpt><trkpt lat="55.8067040" lon="49.0932400"><time>2021-08-14T08:02:40</time></trkpt><trkpt lat="55.8066920" lon="49.0932260"><time>2021-08-14T08:02:41</time></trkpt><trkpt lat="55.8066810" lon="49.0932180"><time>2021-08-14T08:02:42</time></trkpt><trkpt lat="55.8066740" lon="49.0932030"><time>2021-08-14T08:02:43</time></trkpt><trkpt lat="55.8066700" lon="49.0931910"><time>2021-08-14T08:02:44</time></trkpt><trkpt lat="55.8066640" lon="49.0931810"><time>2021-08-14T08:02:45</time></trkpt><trkpt lat="55.8066580" lon="49.0931690"><time>2021-08-14T08:02:46</time></trkpt><trkpt lat="55.8066610" lon="49.0931670"><time>2021-08-14T08:02:47</time></trkpt><trkpt lat="55.8066640" lon="49.0931670"><time>2021-08-14T08:02:48</time></trkpt><trkpt lat="55.8066640" lon="49.0931640"><time>2021-08-14T08:02:49</time></trkpt><trkpt lat="55.8066630" lon="49.0931650"><time>2021-08-14T08:02:50</time></trkpt><trkpt lat="55.8066630" lon="49.0931700"><time>2021-08-14T08:02:51</time></trkpt><trkpt lat="55.8066740" lon="49.0931640"><time>2021-08-14T08:02:52</time></trkpt><trkpt lat="55.8066910" lon="49.0931800"><time>2021-08-14T08:02:53</time></trkpt><trkpt lat="55.8067090" lon="49.0932120"><time>2021-08-14T08:02:54</time></trkpt><trkpt lat="55.8067200" lon="49.0932410"><time>2021-08-14T08:02:55</time></trkpt><trkpt lat="55.8067230" lon="49.0932640"><time>2021-08-14T08:02:56</time></trkpt><trkpt lat="55.8067310" lon="49.0932830"><time>2021-08-14T08:02:57</time></trkpt><trkpt lat="55.8067380" lon="49.0933140"><time>2021-08-14T08:02:58</time></trkpt><trkpt lat="55.8067420" lon="49.0933420"><time>2021-08-14T08:02:59</time></trkpt><trkpt lat="55.8067510" lon="49.0933640"><time>2021-08-14T08:03:00</time></trkpt><trkpt lat="55.8067580" lon="49.0934120"><time>2021-08-14T08:03:01</time></trkpt><trkpt lat="55.8067610" lon="49.0934260"><time>2021-08-14T08:03:02</time></trkpt><trkpt lat="55.8067750" lon="49.0934580"><time>2021-08-14T08:03:03</time></trkpt><trkpt lat="55.8067780" lon="49.0934740"><time>2021-08-14T08:03:04</time></trkpt><trkpt lat="55.8067810" lon="49.0934890"><time>2021-08-14T08:03:05</time></trkpt><trkpt lat="55.8067910" lon="49.0935230"><time>2021-08-14T08:03:06</time></trkpt><trkpt lat="55.8067940" lon="49.0935460"><time>2021-08-14T08:03:07</time></trkpt><trkpt lat="55.8068030" lon="49.0935730"><time>2021-08-14T08:03:08</time></trkpt><trkpt lat="55.8068130" lon="49.0935910"><time>2021-08-14T08:03:09</time></trkpt><trkpt lat="55.8068240" lon="49.0936140"><time>2021-08-14T08:03:10</time></trkpt><trkpt lat="55.8068310" lon="49.0936290"><time>2021-08-14T08:03:11</time></trkpt><trkpt lat="55.8068460" lon="49.0936710"><time>2021-08-14T08:03:12</time></trkpt><trkpt lat="55.8068500" lon="49.0936860"><time>2021-08-14T08:03:13</time></trkpt><trkpt lat="55.8068530" lon="49.0937110"><time>2021-08-14T08:03:14</time></trkpt><trkpt lat="55.8068570" lon="49.0937330"><time>2021-08-14T08:03:15</time></trkpt><trkpt lat="55.8068630" lon="49.0937520"><time>2021-08-14T08:03:16</time></trkpt><trkpt lat="55.8068720" lon="49.0937660"><time>2021-08-14T08:03:17</time></trkpt><trkpt lat="55.8068810" lon="49.0937770"><time>2021-08-14T08:03:18</time></trkpt><trkpt lat="55.8068800" lon="49.0937690"><time>2021-08-14T08:03:19</time></trkpt><trkpt lat="55.8068820" lon="49.0937800"><time>2021-08-14T08:03:20</time></trkpt><trkpt lat="55.8068840" lon="49.0937920"><time>2021-08-14T08:03:21</time></trkpt><trkpt lat="55.8068870" lon="49.0938040"><time>2021-08-14T08:03:22</time></trkpt><trkpt lat="55.8068890" lon="49.0938160"><time>2021-08-14T08:03:23</time></trkpt><trkpt lat="55.8068910" lon="49.0938270"><time>2021-08-14T08:03:24</time></trkpt><trkpt lat="55.8068930" lon="49.0938390"><time>2021-08-14T08:03:25</time></trkpt><trkpt lat="55.8068940" lon="49.0938680"><time>2021-08-14T08:03:26</time></trkpt><trkpt lat="55.8068980" lon="49.0938790"><time>2021-08-14T08:03:27</time></trkpt><trkpt lat="55.8069030" lon="49.0938910"><time>2021-08-14T08:03:28</time></trkpt><trkpt lat="55.8069080" lon="49.0939140"><time>2021-08-14T08:03:29</time></trkpt><trkpt lat="55.8069120" lon="49.0939460"><time>2021-08-14T08:03:30</time></trkpt><trkpt lat="55.8069220" lon="49.0939760"><time>2021-08-14T08:03:31</time></trkpt><trkpt lat="55.8069270" lon="49.0940050"><time>2021-08-14T08:03:33</time></trkpt><trkpt lat="55.8069330" lon="49.0940250"><time>2021-08-14T08:03:34</time></trkpt><trkpt lat="55.8069400" lon="49.0940570"><time>2021-08-14T08:03:35</time></trkpt><trkpt lat="55.8069450" lon="49.0940780"><time>2021-08-14T08:03:36</time></trkpt><trkpt lat="55.8069520" lon="49.0941030"><time>2021-08-14T08:03:37</time></trkpt><trkpt lat="55.8069610" lon="49.0941440"><time>2021-08-14T08:03:38</time></trkpt><trkpt lat="55.8069660" lon="49.0941630"><time>2021-08-14T08:03:39</time></trkpt><trkpt lat="55.8069710" lon="49.0941820"><time>2021-08-14T08:03:40</time></trkpt><trkpt lat="55.8069770" lon="49.0942020"><time>2021-08-14T08:03:41</time></trkpt><trkpt lat="55.8069850" lon="49.0942310"><time>2021-08-14T08:03:42</time></trkpt><trkpt lat="55.8069930" lon="49.0942510"><time>2021-08-14T08:03:43</time></trkpt><trkpt lat="55.8070000" lon="49.0942750"><time>2021-08-14T08:03:44</time></trkpt><trkpt lat="55.8070070" lon="49.0943000"><time>2021-08-14T08:03:45</time></trkpt><trkpt lat="55.8070130" lon="49.0943290"><time>2021-08-14T08:03:46</time></trkpt><trkpt lat="55.8070180" lon="49.0943560"><time>2021-08-14T08:03:47</time></trkpt><trkpt lat="55.8070250" lon="49.0943830"><time>2021-08-14T08:03:48</time></trkpt><trkpt lat="55.8070320" lon="49.0944070"><time>2021-08-14T08:03:49</time></trkpt><trkpt lat="55.8070390" lon="49.0944360"><time>2021-08-14T08:03:50</time></trkpt><trkpt lat="55.8070440" lon="49.0944630"><time>2021-08-14T08:03:51</time></trkpt><trkpt lat="55.8070490" lon="49.0944910"><time>2021-08-14T08:03:52</time></trkpt><trkpt lat="55.8070540" lon="49.0945190"><time>2021-08-14T08:03:53</time></trkpt><trkpt lat="55.8070610" lon="49.0945440"><time>2021-08-14T08:03:54</time></trkpt><trkpt lat="55.8070700" lon="49.0945660"><time>2021-08-14T08:03:55</time></trkpt><trkpt lat="55.8070750" lon="49.0945920"><time>2021-08-14T08:03:56</time></trkpt><trkpt lat="55.8070860" lon="49.0946160"><time>2021-08-14T08:03:57</time></trkpt><trkpt lat="55.8070900" lon="49.0946460"><time>2021-08-14T08:03:58</time></trkpt><trkpt lat="55.8070990" lon="49.0946720"><time>2021-08-14T08:03:59</time></trkpt><trkpt lat="55.8071060" lon="49.0946990"><time>2021-08-14T08:04:00</time></trkpt><trkpt lat="55.8071150" lon="49.0947230"><time>2021-08-14T08:04:01</time></trkpt><trkpt lat="55.8071240" lon="49.0947460"><time>2021-08-14T08:04:02</time></trkpt><trkpt lat="55.8071360" lon="49.0947900"><time>2021-08-14T08:04:03</time></trkpt><trkpt lat="55.8071400" lon="49.0948040"><time>2021-08-14T08:04:04</time></trkpt><trkpt lat="55.8071480" lon="49.0948300"><time>2021-08-14T08:04:05</time></trkpt><trkpt lat="55.8071570" lon="49.0948540"><time>2021-08-14T08:04:06</time></trkpt><trkpt lat="55.8071650" lon="49.0948790"><time>2021-08-14T08:04:07</time></trkpt><trkpt lat="55.8071730" lon="49.0948980"><time>2021-08-14T08:04:08</time></trkpt><trkpt lat="55.8071820" lon="49.0949280"><time>2021-08-14T08:04:09</time></trkpt><trkpt lat="55.8071840" lon="49.0949590"><time>2021-08-14T08:04:10</time></trkpt><trkpt lat="55.8071910" lon="49.0949830"><time>2021-08-14T08:04:11</time></trkpt><trkpt lat="55.8071950" lon="49.0950110"><time>2021-08-14T08:04:12</time></trkpt><trkpt lat="55.8072010" lon="49.0950350"><time>2021-08-14T08:04:13</time></trkpt><trkpt lat="55.8072100" lon="49.0950590"><time>2021-08-14T08:04:14</time></trkpt><trkpt lat="55.8072150" lon="49.0950860"><time>2021-08-14T08:04:15</time></trkpt><trkpt lat="55.8072210" lon="49.0951150"><time>2021-08-14T08:04:16</time></trkpt><trkpt lat="55.8072370" lon="49.0951670"><time>2021-08-14T08:04:17</time></trkpt><trkpt lat="55.8072480" lon="49.0951870"><time>2021-08-14T08:04:18</time></trkpt><trkpt lat="55.8072530" lon="49.0952160"><time>2021-08-14T08:04:19</time></trkpt><trkpt lat="55.8072580" lon="49.0952450"><time>2021-08-14T08:04:20</time></trkpt><trkpt lat="55.8072640" lon="49.0952720"><time>2021-08-14T08:04:21</time></trkpt><trkpt lat="55.8072660" lon="49.0952980"><time>2021-08-14T08:04:22</time></trkpt><trkpt lat="55.8072760" lon="49.0953220"><time>2021-08-14T08:04:23</time></trkpt><trkpt lat="55.8072840" lon="49.0953460"><time>2021-08-14T08:04:24</time></trkpt><trkpt lat="55.8072900" lon="49.0953730"><time>2021-08-14T08:04:25</time></trkpt><trkpt lat="55.8072960" lon="49.0954010"><time>2021-08-14T08:04:26</time></trkpt><trkpt lat="55.8072970" lon="49.0954280"><time>2021-08-14T08:04:27</time></trkpt><trkpt lat="55.8073060" lon="49.0954530"><time>2021-08-14T08:04:28</time></trkpt><trkpt lat="55.8073140" lon="49.0954790"><time>2021-08-14T08:04:29</time></trkpt><trkpt lat="55.8073190" lon="49.0955040"><time>2021-08-14T08:04:30</time></trkpt><trkpt lat="55.8073270" lon="49.0955290"><time>2021-08-14T08:04:31</time></trkpt><trkpt lat="55.8073340" lon="49.0955570"><time>2021-08-14T08:04:32</time></trkpt><trkpt lat="55.8073360" lon="49.0955870"><time>2021-08-14T08:04:33</time></trkpt><trkpt lat="55.8073430" lon="49.0956130"><time>2021-08-14T08:04:34</time></trkpt><trkpt lat="55.8073510" lon="49.0956380"><time>2021-08-14T08:04:35</time></trkpt><trkpt lat="55.8073610" lon="49.0956600"><time>2021-08-14T08:04:36</time></trkpt><trkpt lat="55.8073650" lon="49.0956910"><time>2021-08-14T08:04:37</time></trkpt><trkpt lat="55.8073720" lon="49.0957190"><time>2021-08-14T08:04:38</time></trkpt><trkpt lat="55.8073780" lon="49.0957450"><time>2021-08-14T08:04:39</time></trkpt><trkpt lat="55.8073860" lon="49.0957690"><time>2021-08-14T08:04:40</time></trkpt><trkpt lat="55.8073930" lon="49.0957940"><time>2021-08-14T08:04:41</time></trkpt><trkpt lat="55.8074050" lon="49.0958380"><time>2021-08-14T08:04:42</time></trkpt><trkpt lat="55.8074070" lon="49.0958550"><time>2021-08-14T08:04:43</time></trkpt><trkpt lat="55.8074130" lon="49.0958850"><time>2021-08-14T08:04:44</time></trkpt><trkpt lat="55.8074240" lon="49.0959100"><time>2021-08-14T08:04:45</time></trkpt><trkpt lat="55.8074330" lon="49.0959350"><time>2021-08-14T08:04:46</time></trkpt><trkpt lat="55.8074420" lon="49.0959540"><time>2021-08-14T08:04:47</time></trkpt><trkpt lat="55.8074450" lon="49.0959860"><time>2021-08-14T08:04:48</time></trkpt><trkpt lat="55.8074510" lon="49.0960150"><time>2021-08-14T08:04:49</time></trkpt><trkpt lat="55.8074550" lon="49.0960460"><time>2021-08-14T08:04:50</time></trkpt><trkpt lat="55.8074670" lon="49.0960710"><time>2021-08-14T08:04:51</time></trkpt><trkpt lat="55.8074750" lon="49.0960950"><time>2021-08-14T08:04:52</time></trkpt><trkpt lat="55.8074810" lon="49.0961210"><time>2021-08-14T08:04:53</time></trkpt><trkpt lat="55.8074890" lon="49.0961460"><time>2021-08-14T08:04:54</time></trkpt><trkpt lat="55.8074950" lon="49.0961760"><time>2021-08-14T08:04:55</time></trkpt><trkpt lat="55.8075030" lon="49.0962010"><time>2021-08-14T08:04:56</time></trkpt><trkpt lat="55.8075090" lon="49.0962260"><time>2021-08-14T08:04:57</time></trkpt><trkpt lat="55.8075180" lon="49.0962540"><time>2021-08-14T08:04:58</time></trkpt><trkpt lat="55.8075240" lon="49.0962780"><time>2021-08-14T08:04:59</time></trkpt><trkpt lat="55.8075300" lon="49.0963080"><time>2021-08-14T08:05:00</time></trkpt><trkpt lat="55.8075370" lon="49.0963320"><time>2021-08-14T08:05:01</time></trkpt><trkpt lat="55.8075460" lon="49.0963570"><time>2021-08-14T08:05:02</time></trkpt><trkpt lat="55.8075520" lon="49.0963830"><time>2021-08-14T08:05:03</time></trkpt><trkpt lat="55.8075630" lon="49.0964060"><time>2021-08-14T08:05:04</time></trkpt><trkpt lat="55.8075700" lon="49.0964320"><time>2021-08-14T08:05:05</time></trkpt><trkpt lat="55.8075750" lon="49.0964620"><time>2021-08-14T08:05:06</time></trkpt><trkpt lat="55.8075800" lon="49.0964890"><time>2021-08-14T08:05:07</time></trkpt><trkpt lat="55.8075870" lon="49.0965130"><time>2021-08-14T08:05:08</time></trkpt><trkpt lat="55.8075940" lon="49.0965410"><time>2021-08-14T08:05:09</time></trkpt><trkpt lat="55.8076020" lon="49.0965660"><time>2021-08-14T08:05:10</time></trkpt><trkpt lat="55.8076100" lon="49.0965910"><time>2021-08-14T08:05:11</time></trkpt><trkpt lat="55.8076160" lon="49.0966210"><time>2021-08-14T08:05:12</time></trkpt><trkpt lat="55.8076220" lon="49.0966490"><time>2021-08-14T08:05:13</time></trkpt><trkpt lat="55.8076330" lon="49.0966750"><time>2021-08-14T08:05:14</time></trkpt><trkpt lat="55.8076390" lon="49.0966960"><time>2021-08-14T08:05:15</time></trkpt><trkpt lat="55.8076490" lon="49.0967180"><time>2021-08-14T08:05:16</time></trkpt><trkpt lat="55.8076570" lon="49.0967470"><time>2021-08-14T08:05:17</time></trkpt><trkpt lat="55.8076600" lon="49.0967780"><time>2021-08-14T08:05:18</time></trkpt><trkpt lat="55.8076660" lon="49.0968090"><time>2021-08-14T08:05:19</time></trkpt><trkpt lat="55.8076710" lon="49.0968330"><time>2021-08-14T08:05:20</time></trkpt><trkpt lat="55.8076810" lon="49.0968580"><time>2021-08-14T08:05:21</time></trkpt><trkpt lat="55.8076880" lon="49.0968870"><time>2021-08-14T08:05:22</time></trkpt><trkpt lat="55.8076940" lon="49.0969150"><time>2021-08-14T08:05:23</time></trkpt><trkpt lat="55.8077010" lon="49.0969440"><time>2021-08-14T08:05:24</time></trkpt><trkpt lat="55.8077110" lon="49.0969670"><time>2021-08-14T08:05:25</time></trkpt><trkpt lat="55.8077150" lon="49.0969950"><time>2021-08-14T08:05:26</time></trkpt><trkpt lat="55.8077200" lon="49.0970230"><time>2021-08-14T08:05:27</time></trkpt><trkpt lat="55.8077260" lon="49.0970470"><time>2021-08-14T08:05:28</time></trkpt><trkpt lat="55.8077340" lon="49.0970760"><time>2021-08-14T08:05:29</time></trkpt><trkpt lat="55.8077400" lon="49.0971030"><time>2021-08-14T08:05:30</time></trkpt><trkpt lat="55.8077490" lon="49.0971260"><time>2021-08-14T08:05:31</time></trkpt><trkpt lat="55.8077620" lon="49.0971680"><time>2021-08-14T08:05:32</time></trkpt><trkpt lat="55.8077660" lon="49.0971850"><time>2021-08-14T08:05:33</time></trkpt><trkpt lat="55.8077720" lon="49.0972160"><time>2021-08-14T08:05:34</time></trkpt><trkpt lat="55.8077790" lon="49.0972430"><time>2021-08-14T08:05:35</time></trkpt><trkpt lat="55.8077850" lon="49.0972710"><time>2021-08-14T08:05:36</time></trkpt><trkpt lat="55.8077960" lon="49.0972960"><time>2021-08-14T08:05:37</time></trkpt><trkpt lat="55.8078080" lon="49.0973440"><time>2021-08-14T08:05:39</time></trkpt><trkpt lat="55.8078120" lon="49.0973590"><time>2021-08-14T08:05:40</time></trkpt><trkpt lat="55.8078200" lon="49.0973840"><time>2021-08-14T08:05:41</time></trkpt><trkpt lat="55.8078280" lon="49.0974090"><time>2021-08-14T08:05:42</time></trkpt><trkpt lat="55.8078300" lon="49.0974330"><time>2021-08-14T08:05:43</time></trkpt><trkpt lat="55.8078390" lon="49.0974640"><time>2021-08-14T08:05:44</time></trkpt><trkpt lat="55.8078440" lon="49.0974950"><time>2021-08-14T08:05:45</time></trkpt><trkpt lat="55.8078490" lon="49.0975210"><time>2021-08-14T08:05:46</time></trkpt><trkpt lat="55.8078550" lon="49.0975440"><time>2021-08-14T08:05:47</time></trkpt><trkpt lat="55.8078660" lon="49.0975690"><time>2021-08-14T08:05:48</time></trkpt><trkpt lat="55.8078730" lon="49.0975980"><time>2021-08-14T08:05:49</time></trkpt><trkpt lat="55.8078800" lon="49.0976250"><time>2021-08-14T08:05:50</time></trkpt><trkpt lat="55.8078820" lon="49.0976550"><time>2021-08-14T08:05:51</time></trkpt><trkpt lat="55.8078880" lon="49.0976770"><time>2021-08-14T08:05:52</time></trkpt><trkpt lat="55.8078960" lon="49.0977000"><time>2021-08-14T08:05:53</time></trkpt><trkpt lat="55.8079010" lon="49.0977250"><time>2021-08-14T08:05:54</time></trkpt><trkpt lat="55.8079090" lon="49.0977490"><time>2021-08-14T08:05:55</time></trkpt><trkpt lat="55.8079190" lon="49.0977770"><time>2021-08-14T08:05:56</time></trkpt><trkpt lat="55.8079260" lon="49.0978060"><time>2021-08-14T08:05:57</time></trkpt><trkpt lat="55.8079350" lon="49.0978280"><time>2021-08-14T08:05:58</time></trkpt><trkpt lat="55.8079400" lon="49.0978540"><time>2021-08-14T08:05:59</time></trkpt><trkpt lat="55.8079470" lon="49.0978780"><time>2021-08-14T08:06:00</time></trkpt><trkpt lat="55.8079550" lon="49.0979020"><time>2021-08-14T08:06:01</time></trkpt><trkpt lat="55.8079630" lon="49.0979330"><time>2021-08-14T08:06:02</time></trkpt><trkpt lat="55.8079720" lon="49.0979560"><time>2021-08-14T08:06:03</time></trkpt><trkpt lat="55.8079770" lon="49.0979810"><time>2021-08-14T08:06:04</time></trkpt><trkpt lat="55.8079820" lon="49.0980030"><time>2021-08-14T08:06:05</time></trkpt><trkpt lat="55.8079890" lon="49.0980260"><time>2021-08-14T08:06:06</time></trkpt><trkpt lat="55.8079960" lon="49.0980550"><time>2021-08-14T08:06:07</time></trkpt><trkpt lat="55.8080030" lon="49.0980830"><time>2021-08-14T08:06:08</time></trkpt><trkpt lat="55.8080090" lon="49.0981060"><time>2021-08-14T08:06:09</time></trkpt><trkpt lat="55.8080180" lon="49.0981300"><time>2021-08-14T08:06:10</time></trkpt><trkpt lat="55.8080200" lon="49.0981550"><time>2021-08-14T08:06:11</time></trkpt><trkpt lat="55.8080290" lon="49.0981760"><time>2021-08-14T08:06:12</time></trkpt><trkpt lat="55.8080390" lon="49.0982060"><time>2021-08-14T08:06:13</time></trkpt><trkpt lat="55.8080450" lon="49.0982270"><time>2021-08-14T08:06:14</time></trkpt><trkpt lat="55.8080490" lon="49.0982530"><time>2021-08-14T08:06:15</time></trkpt><trkpt lat="55.8080570" lon="49.0982750"><time>2021-08-14T08:06:16</time></trkpt><trkpt lat="55.8080650" lon="49.0982990"><time>2021-08-14T08:06:17</time></trkpt><trkpt lat="55.8080710" lon="49.0983240"><time>2021-08-14T08:06:18</time></trkpt><trkpt lat="55.8080760" lon="49.0983490"><time>2021-08-14T08:06:19</time></trkpt><trkpt lat="55.8080810" lon="49.0983740"><time>2021-08-14T08:06:20</time></trkpt><trkpt lat="55.8080860" lon="49.0983990"><time>2021-08-14T08:06:21</time></trkpt><trkpt lat="55.8080900" lon="49.0984240"><time>2021-08-14T08:06:22</time></trkpt><trkpt lat="55.8080940" lon="49.0984500"><time>2021-08-14T08:06:23</time></trkpt><trkpt lat="55.8081040" lon="49.0984710"><time>2021-08-14T08:06:24</time></trkpt><trkpt lat="55.8081170" lon="49.0985220"><time>2021-08-14T08:06:25</time></trkpt><trkpt lat="55.8081230" lon="49.0985470"><time>2021-08-14T08:06:26</time></trkpt><trkpt lat="55.8081320" lon="49.0985730"><time>2021-08-14T08:06:27</time></trkpt><trkpt lat="55.8081420" lon="49.0985960"><time>2021-08-14T08:06:28</time></trkpt><trkpt lat="55.8081460" lon="49.0986220"><time>2021-08-14T08:06:29</time></trkpt><trkpt lat="55.8081550" lon="49.0986450"><time>2021-08-14T08:06:30</time></trkpt><trkpt lat="55.8081600" lon="49.0986750"><time>2021-08-14T08:06:31</time></trkpt><trkpt lat="55.8081650" lon="49.0987020"><time>2021-08-14T08:06:32</time></trkpt><trkpt lat="55.8081710" lon="49.0987260"><time>2021-08-14T08:06:33</time></trkpt><trkpt lat="55.8081800" lon="49.0987510"><time>2021-08-14T08:06:34</time></trkpt><trkpt lat="55.8081830" lon="49.0987790"><time>2021-08-14T08:06:35</time></trkpt><trkpt lat="55.8081900" lon="49.0988060"><time>2021-08-14T08:06:36</time></trkpt><trkpt lat="55.8081940" lon="49.0988350"><time>2021-08-14T08:06:37</time></trkpt><trkpt lat="55.8082010" lon="49.0988610"><time>2021-08-14T08:06:38</time></trkpt><trkpt lat="55.8082120" lon="49.0988850"><time>2021-08-14T08:06:39</time></trkpt><trkpt lat="55.8082180" lon="49.0989110"><time>2021-08-14T08:06:40</time></trkpt><trkpt lat="55.8082260" lon="49.0989380"><time>2021-08-14T08:06:41</time></trkpt><trkpt lat="55.8082310" lon="49.0989690"><time>2021-08-14T08:06:42</time></trkpt><trkpt lat="55.8082380" lon="49.0989960"><time>2021-08-14T08:06:43</time></trkpt><trkpt lat="55.8082460" lon="49.0990200"><time>2021-08-14T08:06:44</time></trkpt><trkpt lat="55.8082530" lon="49.0990460"><time>2021-08-14T08:06:45</time></trkpt><trkpt lat="55.8082630" lon="49.0990700"><time>2021-08-14T08:06:46</time></trkpt><trkpt lat="55.8082740" lon="49.0990950"><time>2021-08-14T08:06:47</time></trkpt><trkpt lat="55.8082780" lon="49.0991250"><time>2021-08-14T08:06:48</time></trkpt><trkpt lat="55.8082880" lon="49.0991480"><time>2021-08-14T08:06:49</time></trkpt><trkpt lat="55.8082960" lon="49.0991740"><time>2021-08-14T08:06:50</time></trkpt><trkpt lat="55.8083050" lon="49.0991990"><time>2021-08-14T08:06:51</time></trkpt><trkpt lat="55.8083190" lon="49.0992430"><time>2021-08-14T08:06:52</time></trkpt><trkpt lat="55.8083220" lon="49.0992580"><time>2021-08-14T08:06:53</time></trkpt><trkpt lat="55.8083320" lon="49.0992780"><time>2021-08-14T08:06:54</time></trkpt><trkpt lat="55.8083440" lon="49.0993000"><time>2021-08-14T08:06:55</time></trkpt><trkpt lat="55.8083490" lon="49.0993260"><time>2021-08-14T08:06:56</time></trkpt><trkpt lat="55.8083580" lon="49.0993520"><time>2021-08-14T08:06:57</time></trkpt><trkpt lat="55.8083640" lon="49.0993800"><time>2021-08-14T08:06:58</time></trkpt><trkpt lat="55.8083670" lon="49.0994120"><time>2021-08-14T08:06:59</time></trkpt><trkpt lat="55.8083760" lon="49.0994350"><time>2021-08-14T08:07:00</time></trkpt><trkpt lat="55.8083820" lon="49.0994610"><time>2021-08-14T08:07:01</time></trkpt><trkpt lat="55.8083860" lon="49.0994860"><time>2021-08-14T08:07:02</time></trkpt><trkpt lat="55.8083900" lon="49.0995130"><time>2021-08-14T08:07:03</time></trkpt><trkpt lat="55.8083940" lon="49.0995370"><time>2021-08-14T08:07:04</time></trkpt><trkpt lat="55.8083980" lon="49.0995690"><time>2021-08-14T08:07:05</time></trkpt><trkpt lat="55.8084090" lon="49.0995930"><time>2021-08-14T08:07:06</time></trkpt><trkpt lat="55.8084120" lon="49.0996150"><time>2021-08-14T08:07:07</time></trkpt><trkpt lat="55.8084170" lon="49.0996380"><time>2021-08-14T08:07:08</time></trkpt><trkpt lat="55.8084270" lon="49.0996610"><time>2021-08-14T08:07:09</time></trkpt><trkpt lat="55.8084340" lon="49.0996860"><time>2021-08-14T08:07:10</time></trkpt><trkpt lat="55.8084390" lon="49.0997130"><time>2021-08-14T08:07:11</time></trkpt><trkpt lat="55.8084430" lon="49.0997390"><time>2021-08-14T08:07:12</time></trkpt><trkpt lat="55.8084460" lon="49.0997640"><time>2021-08-14T08:07:13</time></trkpt><trkpt lat="55.8084530" lon="49.0997920"><time>2021-08-14T08:07:14</time></trkpt><trkpt lat="55.8084580" lon="49.0998180"><time>2021-08-14T08:07:15</time></trkpt><trkpt lat="55.8084650" lon="49.0998430"><time>2021-08-14T08:07:16</time></trkpt><trkpt lat="55.8084720" lon="49.0998710"><time>2021-08-14T08:07:17</time></trkpt><trkpt lat="55.8084740" lon="49.0998990"><time>2021-08-14T08:07:18</time></trkpt><trkpt lat="55.8084820" lon="49.0999230"><time>2021-08-14T08:07:19</time></trkpt><trkpt lat="55.8084900" lon="49.0999480"><time>2021-08-14T08:07:20</time></trkpt><trkpt lat="55.8084970" lon="49.0999770"><time>2021-08-14T08:07:21</time></trkpt><trkpt lat="55.8085050" lon="49.1000030"><time>2021-08-14T08:07:22</time></trkpt><trkpt lat="55.8085090" lon="49.1000320"><time>2021-08-14T08:07:23</time></trkpt><trkpt lat="55.8085180" lon="49.1000570"><time>2021-08-14T08:07:24</time></trkpt><trkpt lat="55.8085220" lon="49.1000840"><time>2021-08-14T08:07:25</time></trkpt><trkpt lat="55.8085310" lon="49.1001060"><time>2021-08-14T08:07:26</time></trkpt><trkpt lat="55.8085350" lon="49.1001340"><time>2021-08-14T08:07:27</time></trkpt><trkpt lat="55.8085420" lon="49.1001580"><time>2021-08-14T08:07:28</time></trkpt><trkpt lat="55.8085490" lon="49.1001860"><time>2021-08-14T08:07:29</time></trkpt><trkpt lat="55.8085550" lon="49.1002110"><time>2021-08-14T08:07:30</time></trkpt><trkpt lat="55.8085630" lon="49.1002330"><time>2021-08-14T08:07:31</time></trkpt><trkpt lat="55.8085760" lon="49.1002520"><time>2021-08-14T08:07:32</time></trkpt><trkpt lat="55.8085840" lon="49.1002760"><time>2021-08-14T08:07:33</time></trkpt><trkpt lat="55.8085860" lon="49.1003040"><time>2021-08-14T08:07:34</time></trkpt><trkpt lat="55.8085880" lon="49.1003310"><time>2021-08-14T08:07:35</time></trkpt><trkpt lat="55.8085950" lon="49.1003570"><time>2021-08-14T08:07:36</time></trkpt><trkpt lat="55.8086030" lon="49.1003830"><time>2021-08-14T08:07:37</time></trkpt><trkpt lat="55.8086080" lon="49.1004100"><time>2021-08-14T08:07:38</time></trkpt><trkpt lat="55.8086160" lon="49.1004340"><time>2021-08-14T08:07:39</time></trkpt><trkpt lat="55.8086250" lon="49.1004560"><time>2021-08-14T08:07:40</time></trkpt><trkpt lat="55.8086300" lon="49.1004850"><time>2021-08-14T08:07:41</time></trkpt><trkpt lat="55.8086330" lon="49.1005150"><time>2021-08-14T08:07:42</time></trkpt><trkpt lat="55.8086400" lon="49.1005400"><time>2021-08-14T08:07:43</time></trkpt><trkpt lat="55.8086470" lon="49.1005650"><time>2021-08-14T08:07:45</time></trkpt><trkpt lat="55.8086540" lon="49.1005870"><time>2021-08-14T08:07:46</time></trkpt><trkpt lat="55.8086620" lon="49.1006150"><time>2021-08-14T08:07:47</time></trkpt><trkpt lat="55.8086680" lon="49.1006440"><time>2021-08-14T08:07:48</time></trkpt><trkpt lat="55.8086720" lon="49.1006720"><time>2021-08-14T08:07:49</time></trkpt><trkpt lat="55.8086770" lon="49.1006990"><time>2021-08-14T08:07:50</time></trkpt><trkpt lat="55.8086850" lon="49.1007260"><time>2021-08-14T08:07:51</time></trkpt><trkpt lat="55.8086920" lon="49.1007540"><time>2021-08-14T08:07:52</time></trkpt><trkpt lat="55.8087020" lon="49.1007770"><time>2021-08-14T08:07:53</time></trkpt><trkpt lat="55.8087090" lon="49.1008020"><time>2021-08-14T08:07:54</time></trkpt><trkpt lat="55.8087120" lon="49.1008290"><time>2021-08-14T08:07:55</time></trkpt><trkpt lat="55.8087220" lon="49.1008540"><time>2021-08-14T08:07:56</time></trkpt><trkpt lat="55.8087280" lon="49.1008820"><time>2021-08-14T08:07:57</time></trkpt><trkpt lat="55.8087360" lon="49.1009060"><time>2021-08-14T08:07:58</time></trkpt><trkpt lat="55.8087460" lon="49.1009310"><time>2021-08-14T08:07:59</time></trkpt><trkpt lat="55.8087520" lon="49.1009600"><time>2021-08-14T08:08:00</time></trkpt><trkpt lat="55.8087570" lon="49.1009890"><time>2021-08-14T08:08:01</time></trkpt><trkpt lat="55.8087640" lon="49.1010150"><time>2021-08-14T08:08:02</time></trkpt><trkpt lat="55.8087680" lon="49.1010410"><time>2021-08-14T08:08:03</time></trkpt><trkpt lat="55.8087780" lon="49.1010650"><time>2021-08-14T08:08:04</time></trkpt><trkpt lat="55.8087850" lon="49.1010910"><time>2021-08-14T08:08:05</time></trkpt><trkpt lat="55.8087900" lon="49.1011150"><time>2021-08-14T08:08:06</time></trkpt><trkpt lat="55.8087930" lon="49.1011440"><time>2021-08-14T08:08:07</time></trkpt><trkpt lat="55.8087980" lon="49.1011680"><time>2021-08-14T08:08:08</time></trkpt><trkpt lat="55.8088070" lon="49.1011910"><time>2021-08-14T08:08:09</time></trkpt><trkpt lat="55.8088130" lon="49.1012160"><time>2021-08-14T08:08:10</time></trkpt><trkpt lat="55.8088210" lon="49.1012370"><time>2021-08-14T08:08:11</time></trkpt><trkpt lat="55.8088290" lon="49.1012630"><time>2021-08-14T08:08:12</time></trkpt><trkpt lat="55.8088360" lon="49.1012870"><time>2021-08-14T08:08:13</time></trkpt><trkpt lat="55.8088420" lon="49.1013150"><time>2021-08-14T08:08:14</time></trkpt><trkpt lat="55.8088490" lon="49.1013380"><time>2021-08-14T08:08:15</time></trkpt><trkpt lat="55.8088570" lon="49.1013620"><time>2021-08-14T08:08:16</time></trkpt><trkpt lat="55.8088610" lon="49.1013850"><time>2021-08-14T08:08:17</time></trkpt><trkpt lat="55.8088700" lon="49.1014070"><time>2021-08-14T08:08:18</time></trkpt><trkpt lat="55.8088780" lon="49.1014320"><time>2021-08-14T08:08:19</time></trkpt><trkpt lat="55.8088830" lon="49.1014560"><time>2021-08-14T08:08:20</time></trkpt><trkpt lat="55.8088880" lon="49.1014800"><time>2021-08-14T08:08:21</time></trkpt><trkpt lat="55.8088930" lon="49.1015040"><time>2021-08-14T08:08:22</time></trkpt><trkpt lat="55.8089050" lon="49.1015240"><time>2021-08-14T08:08:23</time></trkpt><trkpt lat="55.8089180" lon="49.1015370"><time>2021-08-14T08:08:24</time></trkpt><trkpt lat="55.8089320" lon="49.1015560"><time>2021-08-14T08:08:25</time></trkpt><trkpt lat="55.8089360" lon="49.1015810"><time>2021-08-14T08:08:26</time></trkpt><trkpt lat="55.8089310" lon="49.1016160"><time>2021-08-14T08:08:27</time></trkpt><trkpt lat="55.8089250" lon="49.1016420"><time>2021-08-14T08:08:28</time></trkpt><trkpt lat="55.8089230" lon="49.1016670"><time>2021-08-14T08:08:29</time></trkpt><trkpt lat="55.8089260" lon="49.1016910"><time>2021-08-14T08:08:30</time></trkpt><trkpt lat="55.8089240" lon="49.1017180"><time>2021-08-14T08:08:31</time></trkpt><trkpt lat="55.8089110" lon="49.1017550"><time>2021-08-14T08:08:32</time></trkpt><trkpt lat="55.8088980" lon="49.1017860"><time>2021-08-14T08:08:33</time></trkpt><trkpt lat="55.8088930" lon="49.1017990"><time>2021-08-14T08:08:34</time></trkpt><trkpt lat="55.8088830" lon="49.1018260"><time>2021-08-14T08:08:35</time></trkpt><trkpt lat="55.8088700" lon="49.1018250"><time>2021-08-14T08:08:36</time></trkpt><trkpt lat="55.8088540" lon="49.1018480"><time>2021-08-14T08:08:37</time></trkpt><trkpt lat="55.8088470" lon="49.1018620"><time>2021-08-14T08:08:38</time></trkpt><trkpt lat="55.8088410" lon="49.1018750"><time>2021-08-14T08:08:39</time></trkpt><trkpt lat="55.8088330" lon="49.1018900"><time>2021-08-14T08:08:40</time></trkpt><trkpt lat="55.8088180" lon="49.1019070"><time>2021-08-14T08:08:41</time></trkpt><trkpt lat="55.8088060" lon="49.1019260"><time>2021-08-14T08:08:42</time></trkpt><trkpt lat="55.8087950" lon="49.1019350"><time>2021-08-14T08:08:43</time></trkpt><trkpt lat="55.8087850" lon="49.1019500"><time>2021-08-14T08:08:44</time></trkpt><trkpt lat="55.8087690" lon="49.1019660"><time>2021-08-14T08:08:45</time></trkpt><trkpt lat="55.8087600" lon="49.1019730"><time>2021-08-14T08:08:46</time></trkpt><trkpt lat="55.8087440" lon="49.1019790"><time>2021-08-14T08:08:47</time></trkpt><trkpt lat="55.8087390" lon="49.1019970"><time>2021-08-14T08:08:48</time></trkpt><trkpt lat="55.8087370" lon="49.1019940"><time>2021-08-14T08:08:49</time></trkpt><trkpt lat="55.8087400" lon="49.1019920"><time>2021-08-14T08:08:50</time></trkpt><trkpt lat="55.8087350" lon="49.1019880"><time>2021-08-14T08:08:51</time></trkpt><trkpt lat="55.8087340" lon="49.1020080"><time>2021-08-14T08:08:52</time></trkpt><trkpt lat="55.8087190" lon="49.1020080"><time>2021-08-14T08:08:53</time></trkpt><trkpt lat="55.8087040" lon="49.1020110"><time>2021-08-14T08:08:54</time></trkpt><trkpt lat="55.8086750" lon="49.1020160"><time>2021-08-14T08:08:55</time></trkpt><trkpt lat="55.8086640" lon="49.1020160"><time>2021-08-14T08:08:56</time></trkpt><trkpt lat="55.8086540" lon="49.1020130"><time>2021-08-14T08:08:57</time></trkpt><trkpt lat="55.8086340" lon="49.1020160"><time>2021-08-14T08:08:58</time></trkpt><trkpt lat="55.8086060" lon="49.1020130"><time>2021-08-14T08:08:59</time></trkpt><trkpt lat="55.8085970" lon="49.1020090"><time>2021-08-14T08:09:00</time></trkpt><trkpt lat="55.8085920" lon="49.1020160"><time>2021-08-14T08:09:01</time></trkpt><trkpt lat="55.8085800" lon="49.1020060"><time>2021-08-14T08:09:02</time></trkpt><trkpt lat="55.8085640" lon="49.1019970"><time>2021-08-14T08:09:03</time></trkpt><trkpt lat="55.8085510" lon="49.1019900"><time>2021-08-14T08:09:04</time></trkpt><trkpt lat="55.8085360" lon="49.1019870"><time>2021-08-14T08:09:05</time></trkpt><trkpt lat="55.8085160" lon="49.1019920"><time>2021-08-14T08:09:06</time></trkpt><trkpt lat="55.8085090" lon="49.1019920"><time>2021-08-14T08:09:07</time></trkpt><trkpt lat="55.8084940" lon="49.1019940"><time>2021-08-14T08:09:08</time></trkpt><trkpt lat="55.8084800" lon="49.1019960"><time>2021-08-14T08:09:09</time></trkpt><trkpt lat="55.8084610" lon="49.1019980"><time>2021-08-14T08:09:10</time></trkpt><trkpt lat="55.8084470" lon="49.1019960"><time>2021-08-14T08:09:11</time></trkpt><trkpt lat="55.8084340" lon="49.1019910"><time>2021-08-14T08:09:12</time></trkpt><trkpt lat="55.8084170" lon="49.1019930"><time>2021-08-14T08:09:13</time></trkpt><trkpt lat="55.8084040" lon="49.1019950"><time>2021-08-14T08:09:14</time></trkpt><trkpt lat="55.8083890" lon="49.1019970"><time>2021-08-14T08:09:15</time></trkpt><trkpt lat="55.8083720" lon="49.1019970"><time>2021-08-14T08:09:16</time></trkpt><trkpt lat="55.8083620" lon="49.1019960"><time>2021-08-14T08:09:17</time></trkpt><trkpt lat="55.8083470" lon="49.1019990"><time>2021-08-14T08:09:18</time></trkpt><trkpt lat="55.8083310" lon="49.1020010"><time>2021-08-14T08:09:19</time></trkpt><trkpt lat="55.8083170" lon="49.1019980"><time>2021-08-14T08:09:20</time></trkpt><trkpt lat="55.8082970" lon="49.1019960"><time>2021-08-14T08:09:21</time></trkpt><trkpt lat="55.8082690" lon="49.1020010"><time>2021-08-14T08:09:22</time></trkpt><trkpt lat="55.8082620" lon="49.1020010"><time>2021-08-14T08:09:23</time></trkpt><trkpt lat="55.8082540" lon="49.1020010"><time>2021-08-14T08:09:24</time></trkpt><trkpt lat="55.8082260" lon="49.1020030"><time>2021-08-14T08:09:25</time></trkpt><trkpt lat="55.8082150" lon="49.1020050"><time>2021-08-14T08:09:26</time></trkpt><trkpt lat="55.8082050" lon="49.1020100"><time>2021-08-14T08:09:27</time></trkpt><trkpt lat="55.8081840" lon="49.1020090"><time>2021-08-14T08:09:28</time></trkpt><trkpt lat="55.8081740" lon="49.1020060"><time>2021-08-14T08:09:29</time></trkpt><trkpt lat="55.8081570" lon="49.1020060"><time>2021-08-14T08:09:30</time></trkpt><trkpt lat="55.8081410" lon="49.1020060"><time>2021-08-14T08:09:31</time></trkpt><trkpt lat="55.8081220" lon="49.1020050"><time>2021-08-14T08:09:32</time></trkpt><trkpt lat="55.8081110" lon="49.1020020"><time>2021-08-14T08:09:33</time></trkpt><trkpt lat="55.8080950" lon="49.1020030"><time>2021-08-14T08:09:34</time></trkpt><trkpt lat="55.8080790" lon="49.1020000"><time>2021-08-14T08:09:35</time></trkpt><trkpt lat="55.8080630" lon="49.1019920"><time>2021-08-14T08:09:36</time></trkpt><trkpt lat="55.8080510" lon="49.1019910"><time>2021-08-14T08:09:37</time></trkpt><trkpt lat="55.8080340" lon="49.1019960"><time>2021-08-14T08:09:38</time></trkpt><trkpt lat="55.8080200" lon="49.1019970"><time>2021-08-14T08:09:39</time></trkpt><trkpt lat="55.8080070" lon="49.1019910"><time>2021-08-14T08:09:40</time></trkpt><trkpt lat="55.8079920" lon="49.1019870"><time>2021-08-14T08:09:41</time></trkpt><trkpt lat="55.8079800" lon="49.1019860"><time>2021-08-14T08:09:42</time></trkpt><trkpt lat="55.8079670" lon="49.1019850"><time>2021-08-14T08:09:43</time></trkpt><trkpt lat="55.8079500" lon="49.1019770"><time>2021-08-14T08:09:44</time></trkpt><trkpt lat="55.8079340" lon="49.1019650"><time>2021-08-14T08:09:45</time></trkpt><trkpt lat="55.8079230" lon="49.1019700"><time>2021-08-14T08:09:46</time></trkpt><trkpt lat="55.8079060" lon="49.1019670"><time>2021-08-14T08:09:47</time></trkpt><trkpt lat="55.8078930" lon="49.1019660"><time>2021-08-14T08:09:48</time></trkpt><trkpt lat="55.8078760" lon="49.1019580"><time>2021-08-14T08:09:49</time></trkpt><trkpt lat="55.8078430" lon="49.1019710"><time>2021-08-14T08:09:51</time></trkpt><trkpt lat="55.8078110" lon="49.1019840"><time>2021-08-14T08:09:52</time></trkpt><trkpt lat="55.8077990" lon="49.1019930"><time>2021-08-14T08:09:53</time></trkpt><trkpt lat="55.8077690" lon="49.1019870"><time>2021-08-14T08:09:54</time></trkpt><trkpt lat="55.8077590" lon="49.1019870"><time>2021-08-14T08:09:55</time></trkpt><trkpt lat="55.8077430" lon="49.1019860"><time>2021-08-14T08:09:56</time></trkpt><trkpt lat="55.8077310" lon="49.1019770"><time>2021-08-14T08:09:57</time></trkpt><trkpt lat="55.8077180" lon="49.1019690"><time>2021-08-14T08:09:58</time></trkpt><trkpt lat="55.8077010" lon="49.1019590"><time>2021-08-14T08:09:59</time></trkpt><trkpt lat="55.8076870" lon="49.1019560"><time>2021-08-14T08:10:00</time></trkpt><trkpt lat="55.8076730" lon="49.1019470"><time>2021-08-14T08:10:01</time></trkpt><trkpt lat="55.8076570" lon="49.1019460"><time>2021-08-14T08:10:02</time></trkpt><trkpt lat="55.8076450" lon="49.1019450"><time>2021-08-14T08:10:03</time></trkpt><trkpt lat="55.8076290" lon="49.1019380"><time>2021-08-14T08:10:04</time></trkpt><trkpt lat="55.8076150" lon="49.1019280"><time>2021-08-14T08:10:05</time></trkpt><trkpt lat="55.8076010" lon="49.1019350"><time>2021-08-14T08:10:06</time></trkpt><trkpt lat="55.8075870" lon="49.1019390"><time>2021-08-14T08:10:07</time></trkpt><trkpt lat="55.8075730" lon="49.1019390"><time>2021-08-14T08:10:08</time></trkpt><trkpt lat="55.8075520" lon="49.1019260"><time>2021-08-14T08:10:09</time></trkpt><trkpt lat="55.8075370" lon="49.1019280"><time>2021-08-14T08:10:10</time></trkpt><trkpt lat="55.8075200" lon="49.1019290"><time>2021-08-14T08:10:11</time></trkpt><trkpt lat="55.8075030" lon="49.1019330"><time>2021-08-14T08:10:12</time></trkpt><trkpt lat="55.8074900" lon="49.1019280"><time>2021-08-14T08:10:13</time></trkpt><trkpt lat="55.8074710" lon="49.1019260"><time>2021-08-14T08:10:14</time></trkpt><trkpt lat="55.8074550" lon="49.1019260"><time>2021-08-14T08:10:15</time></trkpt><trkpt lat="55.8074230" lon="49.1019260"><time>2021-08-14T08:10:16</time></trkpt><trkpt lat="55.8074160" lon="49.1019250"><time>2021-08-14T08:10:17</time></trkpt><trkpt lat="55.8073880" lon="49.1019210"><time>2021-08-14T08:10:18</time></trkpt><trkpt lat="55.8073780" lon="49.1019220"><time>2021-08-14T08:10:19</time></trkpt><trkpt lat="55.8073480" lon="49.1019180"><time>2021-08-14T08:10:20</time></trkpt><trkpt lat="55.8073390" lon="49.1019150"><time>2021-08-14T08:10:21</time></trkpt><trkpt lat="55.8073040" lon="49.1019110"><time>2021-08-14T08:10:22</time></trkpt><trkpt lat="55.8072950" lon="49.1019100"><time>2021-08-14T08:10:23</time></trkpt><trkpt lat="55.8072850" lon="49.1019120"><time>2021-08-14T08:10:24</time></trkpt><trkpt lat="55.8072680" lon="49.1019060"><time>2021-08-14T08:10:25</time></trkpt><trkpt lat="55.8072360" lon="49.1019040"><time>2021-08-14T08:10:26</time></trkpt><trkpt lat="55.8072270" lon="49.1019040"><time>2021-08-14T08:10:27</time></trkpt><trkpt lat="55.8072110" lon="49.1019090"><time>2021-08-14T08:10:28</time></trkpt><trkpt lat="55.8071930" lon="49.1019070"><time>2021-08-14T08:10:29</time></trkpt><trkpt lat="55.8071790" lon="49.1019130"><time>2021-08-14T08:10:30</time></trkpt><trkpt lat="55.8071440" lon="49.1019240"><time>2021-08-14T08:10:31</time></trkpt><trkpt lat="55.8071230" lon="49.1019150"><time>2021-08-14T08:10:32</time></trkpt><trkpt lat="55.8071100" lon="49.1019220"><time>2021-08-14T08:10:33</time></trkpt><trkpt lat="55.8070940" lon="49.1019250"><time>2021-08-14T08:10:34</time></trkpt><trkpt lat="55.8070610" lon="49.1019180"><time>2021-08-14T08:10:35</time></trkpt><trkpt lat="55.8070500" lon="49.1019130"><time>2021-08-14T08:10:36</time></trkpt><trkpt lat="55.8070290" lon="49.1019110"><time>2021-08-14T08:10:37</time></trkpt><trkpt lat="55.8070170" lon="49.1019050"><time>2021-08-14T08:10:38</time></trkpt><trkpt lat="55.8070060" lon="49.1019000"><time>2021-08-14T08:10:39</time></trkpt><trkpt lat="55.8069770" lon="49.1018940"><time>2021-08-14T08:10:40</time></trkpt><trkpt lat="55.8069690" lon="49.1018900"><time>2021-08-14T08:10:41</time></trkpt><trkpt lat="55.8069580" lon="49.1018840"><time>2021-08-14T08:10:42</time></trkpt><trkpt lat="55.8069400" lon="49.1018860"><time>2021-08-14T08:10:43</time></trkpt><trkpt lat="55.8069100" lon="49.1018720"><time>2021-08-14T08:10:44</time></trkpt><trkpt lat="55.8068990" lon="49.1018690"><time>2021-08-14T08:10:45</time></trkpt><trkpt lat="55.8068700" lon="49.1018790"><time>2021-08-14T08:10:46</time></trkpt><trkpt lat="55.8068600" lon="49.1018790"><time>2021-08-14T08:10:47</time></trkpt><trkpt lat="55.8068470" lon="49.1018860"><time>2021-08-14T08:10:48</time></trkpt><trkpt lat="55.8068290" lon="49.1018720"><time>2021-08-14T08:10:49</time></trkpt><trkpt lat="55.8068100" lon="49.1018620"><time>2021-08-14T08:10:50</time></trkpt><trkpt lat="55.8067960" lon="49.1018700"><time>2021-08-14T08:10:51</time></trkpt><trkpt lat="55.8067870" lon="49.1018740"><time>2021-08-14T08:10:52</time></trkpt><trkpt lat="55.8067660" lon="49.1018630"><time>2021-08-14T08:10:53</time></trkpt><trkpt lat="55.8067350" lon="49.1018580"><time>2021-08-14T08:10:54</time></trkpt><trkpt lat="55.8067290" lon="49.1018560"><time>2021-08-14T08:10:55</time></trkpt><trkpt lat="55.8067150" lon="49.1018560"><time>2021-08-14T08:10:56</time></trkpt><trkpt lat="55.8066980" lon="49.1018550"><time>2021-08-14T08:10:57</time></trkpt><trkpt lat="55.8066690" lon="49.1018410"><time>2021-08-14T08:10:58</time></trkpt><trkpt lat="55.8066590" lon="49.1018410"><time>2021-08-14T08:10:59</time></trkpt><trkpt lat="55.8066470" lon="49.1018450"><time>2021-08-14T08:11:00</time></trkpt><trkpt lat="55.8066310" lon="49.1018430"><time>2021-08-14T08:11:01</time></trkpt><trkpt lat="55.8066050" lon="49.1018410"><time>2021-08-14T08:11:02</time></trkpt><trkpt lat="55.8065940" lon="49.1018360"><time>2021-08-14T08:11:03</time></trkpt><trkpt lat="55.8065720" lon="49.1018300"><time>2021-08-14T08:11:04</time></trkpt><trkpt lat="55.8065620" lon="49.1018330"><time>2021-08-14T08:11:05</time></trkpt><trkpt lat="55.8065480" lon="49.1018330"><time>2021-08-14T08:11:06</time></trkpt><trkpt lat="55.8065300" lon="49.1018300"><time>2021-08-14T08:11:07</time></trkpt><trkpt lat="55.8065020" lon="49.1018170"><time>2021-08-14T08:11:08</time></trkpt><trkpt lat="55.8064930" lon="49.1018170"><time>2021-08-14T08:11:09</time></trkpt><trkpt lat="55.8064700" lon="49.1018220"><time>2021-08-14T08:11:10</time></trkpt><trkpt lat="55.8064590" lon="49.1018220"><time>2021-08-14T08:11:11</time></trkpt><trkpt lat="55.8064470" lon="49.1018230"><time>2021-08-14T08:11:12</time></trkpt><trkpt lat="55.8064250" lon="49.1018210"><time>2021-08-14T08:11:13</time></trkpt><trkpt lat="55.8064130" lon="49.1018110"><time>2021-08-14T08:11:14</time></trkpt><trkpt lat="55.8063960" lon="49.1018190"><time>2021-08-14T08:11:15</time></trkpt><trkpt lat="55.8063800" lon="49.1018150"><time>2021-08-14T08:11:16</time></trkpt><trkpt lat="55.8063540" lon="49.1018060"><time>2021-08-14T08:11:17</time></trkpt><trkpt lat="55.8063420" lon="49.1018040"><time>2021-08-14T08:11:18</time></trkpt><trkpt lat="55.8063290" lon="49.1017990"><time>2021-08-14T08:11:19</time></trkpt><trkpt lat="55.8063140" lon="49.1018020"><time>2021-08-14T08:11:20</time></trkpt><trkpt lat="55.8062990" lon="49.1018020"><time>2021-08-14T08:11:21</time></trkpt><trkpt lat="55.8062780" lon="49.1017940"><time>2021-08-14T08:11:22</time></trkpt><trkpt lat="55.8062590" lon="49.1017870"><time>2021-08-14T08:11:23</time></trkpt><trkpt lat="55.8062430" lon="49.1017820"><time>2021-08-14T08:11:24</time></trkpt><trkpt lat="55.8062280" lon="49.1017840"><time>2021-08-14T08:11:25</time></trkpt><trkpt lat="55.8062130" lon="49.1017850"><time>2021-08-14T08:11:26</time></trkpt><trkpt lat="55.8061860" lon="49.1017800"><time>2021-08-14T08:11:27</time></trkpt><trkpt lat="55.8061740" lon="49.1017760"><time>2021-08-14T08:11:28</time></trkpt><trkpt lat="55.8061590" lon="49.1017640"><time>2021-08-14T08:11:29</time></trkpt><trkpt lat="55.8061450" lon="49.1017770"><time>2021-08-14T08:11:30</time></trkpt><trkpt lat="55.8061180" lon="49.1017750"><time>2021-08-14T08:11:31</time></trkpt><trkpt lat="55.8061080" lon="49.1017730"><time>2021-08-14T08:11:32</time></trkpt><trkpt lat="55.8060900" lon="49.1017690"><time>2021-08-14T08:11:33</time></trkpt><trkpt lat="55.8060770" lon="49.1017640"><time>2021-08-14T08:11:34</time></trkpt><trkpt lat="55.8060590" lon="49.1017740"><time>2021-08-14T08:11:35</time></trkpt><trkpt lat="55.8060420" lon="49.1017690"><time>2021-08-14T08:11:36</time></trkpt><trkpt lat="55.8060130" lon="49.1017610"><time>2021-08-14T08:11:37</time></trkpt><trkpt lat="55.8060030" lon="49.1017590"><time>2021-08-14T08:11:38</time></trkpt><trkpt lat="55.8059890" lon="49.1017520"><time>2021-08-14T08:11:39</time></trkpt><trkpt lat="55.8059730" lon="49.1017550"><time>2021-08-14T08:11:40</time></trkpt><trkpt lat="55.8059420" lon="49.1017480"><time>2021-08-14T08:11:41</time></trkpt><trkpt lat="55.8059310" lon="49.1017440"><time>2021-08-14T08:11:42</time></trkpt><trkpt lat="55.8059140" lon="49.1017390"><time>2021-08-14T08:11:43</time></trkpt><trkpt lat="55.8059010" lon="49.1017410"><time>2021-08-14T08:11:44</time></trkpt><trkpt lat="55.8058740" lon="49.1017430"><time>2021-08-14T08:11:45</time></trkpt><trkpt lat="55.8058630" lon="49.1017420"><time>2021-08-14T08:11:46</time></trkpt><trkpt lat="55.8058360" lon="49.1017380"><time>2021-08-14T08:11:47</time></trkpt><trkpt lat="55.8058270" lon="49.1017370"><time>2021-08-14T08:11:48</time></trkpt><trkpt lat="55.8058150" lon="49.1017360"><time>2021-08-14T08:11:49</time></trkpt><trkpt lat="55.8058000" lon="49.1017400"><time>2021-08-14T08:11:50</time></trkpt><trkpt lat="55.8057680" lon="49.1017350"><time>2021-08-14T08:11:51</time></trkpt><trkpt lat="55.8057580" lon="49.1017340"><time>2021-08-14T08:11:52</time></trkpt><trkpt lat="55.8057430" lon="49.1017240"><time>2021-08-14T08:11:53</time></trkpt><trkpt lat="55.8057300" lon="49.1017210"><time>2021-08-14T08:11:54</time></trkpt><trkpt lat="55.8057150" lon="49.1017240"><time>2021-08-14T08:11:55</time></trkpt><trkpt lat="55.8056930" lon="49.1017270"><time>2021-08-14T08:11:57</time></trkpt><trkpt lat="55.8056710" lon="49.1017190"><time>2021-08-14T08:11:58</time></trkpt><trkpt lat="55.8056580" lon="49.1017110"><time>2021-08-14T08:11:59</time></trkpt><trkpt lat="55.8056460" lon="49.1017110"><time>2021-08-14T08:12:00</time></trkpt><trkpt lat="55.8056300" lon="49.1017130"><time>2021-08-14T08:12:01</time></trkpt><trkpt lat="55.8056130" lon="49.1017120"><time>2021-08-14T08:12:02</time></trkpt><trkpt lat="55.8055940" lon="49.1017100"><time>2021-08-14T08:12:03</time></trkpt><trkpt lat="55.8055770" lon="49.1017020"><time>2021-08-14T08:12:04</time></trkpt><trkpt lat="55.8055610" lon="49.1017020"><time>2021-08-14T08:12:05</time></trkpt><trkpt lat="55.8055490" lon="49.1017040"><time>2021-08-14T08:12:06</time></trkpt><trkpt lat="55.8055320" lon="49.1017040"><time>2021-08-14T08:12:07</time></trkpt><trkpt lat="55.8055160" lon="49.1017030"><time>2021-08-14T08:12:08</time></trkpt><trkpt lat="55.8055010" lon="49.1017160"><time>2021-08-14T08:12:09</time></trkpt><trkpt lat="55.8054740" lon="49.1017180"><time>2021-08-14T08:12:10</time></trkpt><trkpt lat="55.8054640" lon="49.1017160"><time>2021-08-14T08:12:11</time></trkpt><trkpt lat="55.8054540" lon="49.1017140"><time>2021-08-14T08:12:12</time></trkpt><trkpt lat="55.8054350" lon="49.1017100"><time>2021-08-14T08:12:13</time></trkpt><trkpt lat="55.8054200" lon="49.1017000"><time>2021-08-14T08:12:14</time></trkpt><trkpt lat="55.8054070" lon="49.1017000"><time>2021-08-14T08:12:15</time></trkpt><trkpt lat="55.8053900" lon="49.1016970"><time>2021-08-14T08:12:16</time></trkpt><trkpt lat="55.8053730" lon="49.1016960"><time>2021-08-14T08:12:17</time></trkpt><trkpt lat="55.8053560" lon="49.1016970"><time>2021-08-14T08:12:18</time></trkpt><trkpt lat="55.8053400" lon="49.1016900"><time>2021-08-14T08:12:19</time></trkpt><trkpt lat="55.8053280" lon="49.1016920"><time>2021-08-14T08:12:20</time></trkpt><trkpt lat="55.8053120" lon="49.1016860"><time>2021-08-14T08:12:21</time></trkpt><trkpt lat="55.8052940" lon="49.1016800"><time>2021-08-14T08:12:22</time></trkpt><trkpt lat="55.8052780" lon="49.1016730"><time>2021-08-14T08:12:23</time></trkpt><trkpt lat="55.8052610" lon="49.1016830"><time>2021-08-14T08:12:24</time></trkpt><trkpt lat="55.8052450" lon="49.1016830"><time>2021-08-14T08:12:25</time></trkpt><trkpt lat="55.8052260" lon="49.1016790"><time>2021-08-14T08:12:26</time></trkpt><trkpt lat="55.8052060" lon="49.1016680"><time>2021-08-14T08:12:27</time></trkpt><trkpt lat="55.8051930" lon="49.1016700"><time>2021-08-14T08:12:28</time></trkpt><trkpt lat="55.8051760" lon="49.1016660"><time>2021-08-14T08:12:29</time></trkpt><trkpt lat="55.8051600" lon="49.1016680"><time>2021-08-14T08:12:30</time></trkpt><trkpt lat="55.8051460" lon="49.1016810"><time>2021-08-14T08:12:31</time></trkpt><trkpt lat="55.8051250" lon="49.1016840"><time>2021-08-14T08:12:32</time></trkpt><trkpt lat="55.8051130" lon="49.1016750"><time>2021-08-14T08:12:33</time></trkpt><trkpt lat="55.8050950" lon="49.1016790"><time>2021-08-14T08:12:34</time></trkpt><trkpt lat="55.8050640" lon="49.1016660"><time>2021-08-14T08:12:35</time></trkpt><trkpt lat="55.8050550" lon="49.1016630"><time>2021-08-14T08:12:36</time></trkpt><trkpt lat="55.8050260" lon="49.1016620"><time>2021-08-14T08:12:37</time></trkpt><trkpt lat="55.8050120" lon="49.1016570"><time>2021-08-14T08:12:38</time></trkpt><trkpt lat="55.8049830" lon="49.1016500"><time>2021-08-14T08:12:39</time></trkpt><trkpt lat="55.8049730" lon="49.1016470"><time>2021-08-14T08:12:40</time></trkpt><trkpt lat="55.8049500" lon="49.1016440"><time>2021-08-14T08:12:41</time></trkpt><trkpt lat="55.8049420" lon="49.1016420"><time>2021-08-14T08:12:42</time></trkpt><trkpt lat="55.8049330" lon="49.1016410"><time>2021-08-14T08:12:43</time></trkpt><trkpt lat="55.8049050" lon="49.1016330"><time>2021-08-14T08:12:44</time></trkpt><trkpt lat="55.8048960" lon="49.1016270"><time>2021-08-14T08:12:45</time></trkpt><trkpt lat="55.8048770" lon="49.1016150"><time>2021-08-14T08:12:46</time></trkpt><trkpt lat="55.8048630" lon="49.1016160"><time>2021-08-14T08:12:47</time></trkpt><trkpt lat="55.8048480" lon="49.1016150"><time>2021-08-14T08:12:48</time></trkpt><trkpt lat="55.8048330" lon="49.1016080"><time>2021-08-14T08:12:49</time></trkpt><trkpt lat="55.8048060" lon="49.1016030"><time>2021-08-14T08:12:50</time></trkpt><trkpt lat="55.8047960" lon="49.1016010"><time>2021-08-14T08:12:51</time></trkpt><trkpt lat="55.8047820" lon="49.1015970"><time>2021-08-14T08:12:52</time></trkpt><trkpt lat="55.8047680" lon="49.1015960"><time>2021-08-14T08:12:53</time></trkpt><trkpt lat="55.8047540" lon="49.1015930"><time>2021-08-14T08:12:54</time></trkpt><trkpt lat="55.8047370" lon="49.1015890"><time>2021-08-14T08:12:55</time></trkpt><trkpt lat="55.8047240" lon="49.1015810"><time>2021-08-14T08:12:56</time></trkpt><trkpt lat="55.8047060" lon="49.1015780"><time>2021-08-14T08:12:57</time></trkpt><trkpt lat="55.8046890" lon="49.1015720"><time>2021-08-14T08:12:58</time></trkpt><trkpt lat="55.8046730" lon="49.1015760"><time>2021-08-14T08:12:59</time></trkpt><trkpt lat="55.8046600" lon="49.1015750"><time>2021-08-14T08:13:00</time></trkpt><trkpt lat="55.8046430" lon="49.1015740"><time>2021-08-14T08:13:01</time></trkpt><trkpt lat="55.8046160" lon="49.1015660"><time>2021-08-14T08:13:02</time></trkpt><trkpt lat="55.8046060" lon="49.1015590"><time>2021-08-14T08:13:03</time></trkpt><trkpt lat="55.8045900" lon="49.1015490"><time>2021-08-14T08:13:04</time></trkpt><trkpt lat="55.8045750" lon="49.1015540"><time>2021-08-14T08:13:05</time></trkpt><trkpt lat="55.8045620" lon="49.1015500"><time>2021-08-14T08:13:06</time></trkpt><trkpt lat="55.8045480" lon="49.1015450"><time>2021-08-14T08:13:07</time></trkpt><trkpt lat="55.8045270" lon="49.1015370"><time>2021-08-14T08:13:08</time></trkpt><trkpt lat="55.8045130" lon="49.1015320"><time>2021-08-14T08:13:09</time></trkpt><trkpt lat="55.8044980" lon="49.1015330"><time>2021-08-14T08:13:10</time></trkpt><trkpt lat="55.8044840" lon="49.1015340"><time>2021-08-14T08:13:11</time></trkpt><trkpt lat="55.8044650" lon="49.1015300"><time>2021-08-14T08:13:12</time></trkpt><trkpt lat="55.8044480" lon="49.1015310"><time>2021-08-14T08:13:13</time></trkpt><trkpt lat="55.8044320" lon="49.1015260"><time>2021-08-14T08:13:14</time></trkpt><trkpt lat="55.8044150" lon="49.1015160"><time>2021-08-14T08:13:15</time></trkpt><trkpt lat="55.8044020" lon="49.1015090"><time>2021-08-14T08:13:16</time></trkpt><trkpt lat="55.8043870" lon="49.1015040"><time>2021-08-14T08:13:17</time></trkpt><trkpt lat="55.8043660" lon="49.1014930"><time>2021-08-14T08:13:18</time></trkpt><trkpt lat="55.8043560" lon="49.1014850"><time>2021-08-14T08:13:19</time></trkpt><trkpt lat="55.8043460" lon="49.1014780"><time>2021-08-14T08:13:20</time></trkpt><trkpt lat="55.8043360" lon="49.1014660"><time>2021-08-14T08:13:21</time></trkpt><trkpt lat="55.8043260" lon="49.1014560"><time>2021-08-14T08:13:22</time></trkpt><trkpt lat="55.8043190" lon="49.1014420"><time>2021-08-14T08:13:23</time></trkpt><trkpt lat="55.8043120" lon="49.1014320"><time>2021-08-14T08:13:24</time></trkpt><trkpt lat="55.8043090" lon="49.1014270"><time>2021-08-14T08:13:25</time></trkpt><trkpt lat="55.8043050" lon="49.1014340"><time>2021-08-14T08:13:26</time></trkpt><trkpt lat="55.8043110" lon="49.1014240"><time>2021-08-14T08:13:27</time></trkpt><trkpt lat="55.8043120" lon="49.1014270"><time>2021-08-14T08:13:28</time></trkpt><trkpt lat="55.8043100" lon="49.1014240"><time>2021-08-14T08:13:29</time></trkpt><trkpt lat="55.8043100" lon="49.1014260"><time>2021-08-14T08:13:30</time></trkpt><trkpt lat="55.8043110" lon="49.1014200"><time>2021-08-14T08:13:31</time></trkpt><trkpt lat="55.8043120" lon="49.1014100"><time>2021-08-14T08:13:32</time></trkpt><trkpt lat="55.8043130" lon="49.1014040"><time>2021-08-14T08:13:33</time></trkpt><trkpt lat="55.8043130" lon="49.1013980"><time>2021-08-14T08:13:34</time></trkpt><trkpt lat="55.8043130" lon="49.1013930"><time>2021-08-14T08:13:35</time></trkpt><trkpt lat="55.8043160" lon="49.1013450"><time>2021-08-14T08:13:36</time></trkpt><trkpt lat="55.8043150" lon="49.1013250"><time>2021-08-14T08:13:37</time></trkpt><trkpt lat="55.8043090" lon="49.1013120"><time>2021-08-14T08:13:38</time></trkpt><trkpt lat="55.8043030" lon="49.1013160"><time>2021-08-14T08:13:39</time></trkpt><trkpt lat="55.8042970" lon="49.1013200"><time>2021-08-14T08:13:40</time></trkpt><trkpt lat="55.8042900" lon="49.1013240"><time>2021-08-14T08:13:41</time></trkpt><trkpt lat="55.8042840" lon="49.1013280"><time>2021-08-14T08:13:42</time></trkpt><trkpt lat="55.8042780" lon="49.1013320"><time>2021-08-14T08:13:43</time></trkpt><trkpt lat="55.8042640" lon="49.1013330"><time>2021-08-14T08:13:44</time></trkpt><trkpt lat="55.8042480" lon="49.1013290"><time>2021-08-14T08:13:45</time></trkpt><trkpt lat="55.8042330" lon="49.1013250"><time>2021-08-14T08:13:46</time></trkpt><trkpt lat="55.8042200" lon="49.1013210"><time>2021-08-14T08:13:47</time></trkpt><trkpt lat="55.8042070" lon="49.1013200"><time>2021-08-14T08:13:48</time></trkpt><trkpt lat="55.8041930" lon="49.1013190"><time>2021-08-14T08:13:49</time></trkpt><trkpt lat="55.8041780" lon="49.1013180"><time>2021-08-14T08:13:50</time></trkpt><trkpt lat="55.8041640" lon="49.1013170"><time>2021-08-14T08:13:51</time></trkpt><trkpt lat="55.8041370" lon="49.1013090"><time>2021-08-14T08:13:52</time></trkpt><trkpt lat="55.8041300" lon="49.1013090"><time>2021-08-14T08:13:53</time></trkpt><trkpt lat="55.8041220" lon="49.1013090"><time>2021-08-14T08:13:54</time></trkpt><trkpt lat="55.8040940" lon="49.1013060"><time>2021-08-14T08:13:55</time></trkpt><trkpt lat="55.8040860" lon="49.1013040"><time>2021-08-14T08:13:56</time></trkpt><trkpt lat="55.8040780" lon="49.1013020"><time>2021-08-14T08:13:57</time></trkpt><trkpt lat="55.8040670" lon="49.1012980"><time>2021-08-14T08:13:58</time></trkpt><trkpt lat="55.8040490" lon="49.1012940"><time>2021-08-14T08:13:59</time></trkpt><trkpt lat="55.8040340" lon="49.1012930"><time>2021-08-14T08:14:00</time></trkpt><trkpt lat="55.8040200" lon="49.1012840"><time>2021-08-14T08:14:01</time></trkpt><trkpt lat="55.8040060" lon="49.1012740"><time>2021-08-14T08:14:03</time></trkpt><trkpt lat="55.8039920" lon="49.1012740"><time>2021-08-14T08:14:04</time></trkpt><trkpt lat="55.8039800" lon="49.1012580"><time>2021-08-14T08:14:05</time></trkpt><trkpt lat="55.8039700" lon="49.1012430"><time>2021-08-14T08:14:06</time></trkpt><trkpt lat="55.8039630" lon="49.1012190"><time>2021-08-14T08:14:07</time></trkpt><trkpt lat="55.8039460" lon="49.1012110"><time>2021-08-14T08:14:08</time></trkpt><trkpt lat="55.8039300" lon="49.1012040"><time>2021-08-14T08:14:09</time></trkpt><trkpt lat="55.8039170" lon="49.1011960"><time>2021-08-14T08:14:10</time></trkpt><trkpt lat="55.8039040" lon="49.1011940"><time>2021-08-14T08:14:11</time></trkpt><trkpt lat="55.8038880" lon="49.1011880"><time>2021-08-14T08:14:12</time></trkpt><trkpt lat="55.8038620" lon="49.1011780"><time>2021-08-14T08:14:13</time></trkpt><trkpt lat="55.8038520" lon="49.1011760"><time>2021-08-14T08:14:14</time></trkpt><trkpt lat="55.8038370" lon="49.1011730"><time>2021-08-14T08:14:15</time></trkpt><trkpt lat="55.8038230" lon="49.1011710"><time>2021-08-14T08:14:16</time></trkpt><trkpt lat="55.8038090" lon="49.1011600"><time>2021-08-14T08:14:17</time></trkpt><trkpt lat="55.8037940" lon="49.1011590"><time>2021-08-14T08:14:18</time></trkpt><trkpt lat="55.8037780" lon="49.1011520"><time>2021-08-14T08:14:19</time></trkpt><trkpt lat="55.8037620" lon="49.1011510"><time>2021-08-14T08:14:20</time></trkpt><trkpt lat="55.8037460" lon="49.1011470"><time>2021-08-14T08:14:21</time></trkpt><trkpt lat="55.8037320" lon="49.1011460"><time>2021-08-14T08:14:22</time></trkpt><trkpt lat="55.8037180" lon="49.1011400"><time>2021-08-14T08:14:23</time></trkpt><trkpt lat="55.8037070" lon="49.1011320"><time>2021-08-14T08:14:24</time></trkpt><trkpt lat="55.8036910" lon="49.1011260"><time>2021-08-14T08:14:25</time></trkpt><trkpt lat="55.8036780" lon="49.1011160"><time>2021-08-14T08:14:26</time></trkpt><trkpt lat="55.8036630" lon="49.1011090"><time>2021-08-14T08:14:27</time></trkpt><trkpt lat="55.8036470" lon="49.1011060"><time>2021-08-14T08:14:28</time></trkpt><trkpt lat="55.8036330" lon="49.1010990"><time>2021-08-14T08:14:29</time></trkpt><trkpt lat="55.8036200" lon="49.1010840"><time>2021-08-14T08:14:30</time></trkpt><trkpt lat="55.8036060" lon="49.1010800"><time>2021-08-14T08:14:31</time></trkpt><trkpt lat="55.8035910" lon="49.1010760"><time>2021-08-14T08:14:32</time></trkpt><trkpt lat="55.8035740" lon="49.1010710"><time>2021-08-14T08:14:33</time></trkpt><trkpt lat="55.8035580" lon="49.1010610"><time>2021-08-14T08:14:34</time></trkpt><trkpt lat="55.8035390" lon="49.1010630"><time>2021-08-14T08:14:35</time></trkpt><trkpt lat="55.8035270" lon="49.1010680"><time>2021-08-14T08:14:36</time></trkpt><trkpt lat="55.8035120" lon="49.1010560"><time>2021-08-14T08:14:37</time></trkpt><trkpt lat="55.8034960" lon="49.1010520"><time>2021-08-14T08:14:38</time></trkpt><trkpt lat="55.8034810" lon="49.1010410"><time>2021-08-14T08:14:39</time></trkpt><trkpt lat="55.8034660" lon="49.1010410"><time>2021-08-14T08:14:40</time></trkpt><trkpt lat="55.8034500" lon="49.1010370"><time>2021-08-14T08:14:41</time></trkpt><trkpt lat="55.8034360" lon="49.1010260"><time>2021-08-14T08:14:42</time></trkpt><trkpt lat="55.8034210" lon="49.1010230"><time>2021-08-14T08:14:43</time></trkpt><trkpt lat="55.8034080" lon="49.1010110"><time>2021-08-14T08:14:44</time></trkpt><trkpt lat="55.8033770" lon="49.1009990"><time>2021-08-14T08:14:45</time></trkpt><trkpt lat="55.8033630" lon="49.1009900"><time>2021-08-14T08:14:46</time></trkpt><trkpt lat="55.8033490" lon="49.1009890"><time>2021-08-14T08:14:47</time></trkpt><trkpt lat="55.8033340" lon="49.1009820"><time>2021-08-14T08:14:48</time></trkpt><trkpt lat="55.8033200" lon="49.1009750"><time>2021-08-14T08:14:49</time></trkpt><trkpt lat="55.8033040" lon="49.1009730"><time>2021-08-14T08:14:50</time></trkpt><trkpt lat="55.8032900" lon="49.1009580"><time>2021-08-14T08:14:51</time></trkpt><trkpt lat="55.8032760" lon="49.1009510"><time>2021-08-14T08:14:52</time></trkpt><trkpt lat="55.8032640" lon="49.1009500"><time>2021-08-14T08:14:53</time></trkpt><trkpt lat="55.8032480" lon="49.1009440"><time>2021-08-14T08:14:54</time></trkpt><trkpt lat="55.8032330" lon="49.1009330"><time>2021-08-14T08:14:55</time></trkpt><trkpt lat="55.8032140" lon="49.1009330"><time>2021-08-14T08:14:56</time></trkpt><trkpt lat="55.8032000" lon="49.1009170"><time>2021-08-14T08:14:57</time></trkpt><trkpt lat="55.8031850" lon="49.1009100"><time>2021-08-14T08:14:58</time></trkpt><trkpt lat="55.8031700" lon="49.1009080"><time>2021-08-14T08:14:59</time></trkpt><trkpt lat="55.8031560" lon="49.1009030"><time>2021-08-14T08:15:00</time></trkpt><trkpt lat="55.8031420" lon="49.1008940"><time>2021-08-14T08:15:01</time></trkpt><trkpt lat="55.8031260" lon="49.1008830"><time>2021-08-14T08:15:02</time></trkpt><trkpt lat="55.8031110" lon="49.1008690"><time>2021-08-14T08:15:03</time></trkpt><trkpt lat="55.8030940" lon="49.1008660"><time>2021-08-14T08:15:04</time></trkpt><trkpt lat="55.8030800" lon="49.1008650"><time>2021-08-14T08:15:05</time></trkpt><trkpt lat="55.8030660" lon="49.1008550"><time>2021-08-14T08:15:06</time></trkpt><trkpt lat="55.8030500" lon="49.1008460"><time>2021-08-14T08:15:07</time></trkpt><trkpt lat="55.8030360" lon="49.1008300"><time>2021-08-14T08:15:08</time></trkpt><trkpt lat="55.8030210" lon="49.1008220"><time>2021-08-14T08:15:09</time></trkpt><trkpt lat="55.8030070" lon="49.1008120"><time>2021-08-14T08:15:10</time></trkpt><trkpt lat="55.8029940" lon="49.1008050"><time>2021-08-14T08:15:11</time></trkpt><trkpt lat="55.8029820" lon="49.1007920"><time>2021-08-14T08:15:12</time></trkpt><trkpt lat="55.8029670" lon="49.1007830"><time>2021-08-14T08:15:13</time></trkpt><trkpt lat="55.8029510" lon="49.1007700"><time>2021-08-14T08:15:14</time></trkpt><trkpt lat="55.8029360" lon="49.1007600"><time>2021-08-14T08:15:15</time></trkpt><trkpt lat="55.8029230" lon="49.1007490"><time>2021-08-14T08:15:16</time></trkpt><trkpt lat="55.8029090" lon="49.1007410"><time>2021-08-14T08:15:17</time></trkpt><trkpt lat="55.8028950" lon="49.1007260"><time>2021-08-14T08:15:18</time></trkpt><trkpt lat="55.8028830" lon="49.1007090"><time>2021-08-14T08:15:19</time></trkpt><trkpt lat="55.8028670" lon="49.1006990"><time>2021-08-14T08:15:20</time></trkpt><trkpt lat="55.8028550" lon="49.1006820"><time>2021-08-14T08:15:21</time></trkpt><trkpt lat="55.8028400" lon="49.1006670"><time>2021-08-14T08:15:22</time></trkpt><trkpt lat="55.8028250" lon="49.1006590"><time>2021-08-14T08:15:23</time></trkpt><trkpt lat="55.8028100" lon="49.1006540"><time>2021-08-14T08:15:24</time></trkpt><trkpt lat="55.8027950" lon="49.1006350"><time>2021-08-14T08:15:25</time></trkpt><trkpt lat="55.8027800" lon="49.1006260"><time>2021-08-14T08:15:26</time></trkpt><trkpt lat="55.8027670" lon="49.1006120"><time>2021-08-14T08:15:27</time></trkpt><trkpt lat="55.8027540" lon="49.1006010"><time>2021-08-14T08:15:28</time></trkpt><trkpt lat="55.8027390" lon="49.1005940"><time>2021-08-14T08:15:29</time></trkpt><trkpt lat="55.8027240" lon="49.1005800"><time>2021-08-14T08:15:30</time></trkpt><trkpt lat="55.8027100" lon="49.1005740"><time>2021-08-14T08:15:31</time></trkpt><trkpt lat="55.8026920" lon="49.1005600"><time>2021-08-14T08:15:32</time></trkpt><trkpt lat="55.8026760" lon="49.1005550"><time>2021-08-14T08:15:33</time></trkpt><trkpt lat="55.8026600" lon="49.1005470"><time>2021-08-14T08:15:34</time></trkpt><trkpt lat="55.8026460" lon="49.1005490"><time>2021-08-14T08:15:35</time></trkpt><trkpt lat="55.8026320" lon="49.1005470"><time>2021-08-14T08:15:36</time></trkpt><trkpt lat="55.8026160" lon="49.1005460"><time>2021-08-14T08:15:37</time></trkpt><trkpt lat="55.8026000" lon="49.1005480"><time>2021-08-14T08:15:38</time></trkpt><trkpt lat="55.8025840" lon="49.1005490"><time>2021-08-14T08:15:39</time></trkpt><trkpt lat="55.8025690" lon="49.1005510"><time>2021-08-14T08:15:40</time></trkpt><trkpt lat="55.8025520" lon="49.1005620"><time>2021-08-14T08:15:41</time></trkpt><trkpt lat="55.8025360" lon="49.1005730"><time>2021-08-14T08:15:42</time></trkpt><trkpt lat="55.8025210" lon="49.1005730"><time>2021-08-14T08:15:43</time></trkpt><trkpt lat="55.8025050" lon="49.1005730"><time>2021-08-14T08:15:44</time></trkpt><trkpt lat="55.8024900" lon="49.1005930"><time>2021-08-14T08:15:45</time></trkpt><trkpt lat="55.8024760" lon="49.1006070"><time>2021-08-14T08:15:46</time></trkpt><trkpt lat="55.8024620" lon="49.1006250"><time>2021-08-14T08:15:47</time></trkpt><trkpt lat="55.8024490" lon="49.1006360"><time>2021-08-14T08:15:48</time></trkpt><trkpt lat="55.8024320" lon="49.1006430"><time>2021-08-14T08:15:49</time></trkpt><trkpt lat="55.8024180" lon="49.1006550"><time>2021-08-14T08:15:50</time></trkpt><trkpt lat="55.8024020" lon="49.1006570"><time>2021-08-14T08:15:51</time></trkpt><trkpt lat="55.8023860" lon="49.1006650"><time>2021-08-14T08:15:52</time></trkpt><trkpt lat="55.8023730" lon="49.1006660"><time>2021-08-14T08:15:53</time></trkpt><trkpt lat="55.8023570" lon="49.1006750"><time>2021-08-14T08:15:54</time></trkpt><trkpt lat="55.8023440" lon="49.1006830"><time>2021-08-14T08:15:55</time></trkpt><trkpt lat="55.8023300" lon="49.1006840"><time>2021-08-14T08:15:56</time></trkpt><trkpt lat="55.8023150" lon="49.1006820"><time>2021-08-14T08:15:57</time></trkpt><trkpt lat="55.8022940" lon="49.1006940"><time>2021-08-14T08:15:58</time></trkpt><trkpt lat="55.8022850" lon="49.1007010"><time>2021-08-14T08:15:59</time></trkpt><trkpt lat="55.8022760" lon="49.1007070"><time>2021-08-14T08:16:00</time></trkpt><trkpt lat="55.8022620" lon="49.1007200"><time>2021-08-14T08:16:01</time></trkpt><trkpt lat="55.8022480" lon="49.1007250"><time>2021-08-14T08:16:02</time></trkpt><trkpt lat="55.8022330" lon="49.1007240"><time>2021-08-14T08:16:03</time></trkpt><trkpt lat="55.8022180" lon="49.1007260"><time>2021-08-14T08:16:04</time></trkpt><trkpt lat="55.8022070" lon="49.1007310"><time>2021-08-14T08:16:05</time></trkpt><trkpt lat="55.8021960" lon="49.1007360"><time>2021-08-14T08:16:06</time></trkpt><trkpt lat="55.8021830" lon="49.1007420"><time>2021-08-14T08:16:07</time></trkpt><trkpt lat="55.8021620" lon="49.1007360"><time>2021-08-14T08:16:09</time></trkpt><trkpt lat="55.8021550" lon="49.1007360"><time>2021-08-14T08:16:10</time></trkpt><trkpt lat="55.8021470" lon="49.1007350"><time>2021-08-14T08:16:11</time></trkpt><trkpt lat="55.8021340" lon="49.1007240"><time>2021-08-14T08:16:12</time></trkpt><trkpt lat="55.8021220" lon="49.1007120"><time>2021-08-14T08:16:13</time></trkpt><trkpt lat="55.8021100" lon="49.1007010"><time>2021-08-14T08:16:14</time></trkpt><trkpt lat="55.8021000" lon="49.1006910"><time>2021-08-14T08:16:15</time></trkpt><trkpt lat="55.8020930" lon="49.1006860"><time>2021-08-14T08:16:16</time></trkpt><trkpt lat="55.8020830" lon="49.1006760"><time>2021-08-14T08:16:17</time></trkpt><trkpt lat="55.8020780" lon="49.1006670"><time>2021-08-14T08:16:18</time></trkpt><trkpt lat="55.8020680" lon="49.1006550"><time>2021-08-14T08:16:19</time></trkpt><trkpt lat="55.8020640" lon="49.1006350"><time>2021-08-14T08:16:20</time></trkpt><trkpt lat="55.8020530" lon="49.1006100"><time>2021-08-14T08:16:21</time></trkpt><trkpt lat="55.8020550" lon="49.1005950"><time>2021-08-14T08:16:22</time></trkpt><trkpt lat="55.8020490" lon="49.1005690"><time>2021-08-14T08:16:23</time></trkpt><trkpt lat="55.8020470" lon="49.1005530"><time>2021-08-14T08:16:24</time></trkpt><trkpt lat="55.8020410" lon="49.1005110"><time>2021-08-14T08:16:25</time></trkpt><trkpt lat="55.8020390" lon="49.1004970"><time>2021-08-14T08:16:26</time></trkpt><trkpt lat="55.8020370" lon="49.1004830"><time>2021-08-14T08:16:27</time></trkpt><trkpt lat="55.8020320" lon="49.1004480"><time>2021-08-14T08:16:28</time></trkpt><trkpt lat="55.8020290" lon="49.1004300"><time>2021-08-14T08:16:29</time></trkpt><trkpt lat="55.8020250" lon="49.1004130"><time>2021-08-14T08:16:30</time></trkpt><trkpt lat="55.8020220" lon="49.1003960"><time>2021-08-14T08:16:31</time></trkpt><trkpt lat="55.8020210" lon="49.1003760"><time>2021-08-14T08:16:32</time></trkpt><trkpt lat="55.8020210" lon="49.1003540"><time>2021-08-14T08:16:33</time></trkpt><trkpt lat="55.8020210" lon="49.1003300"><time>2021-08-14T08:16:34</time></trkpt><trkpt lat="55.8020160" lon="49.1003060"><time>2021-08-14T08:16:35</time></trkpt><trkpt lat="55.8020060" lon="49.1002860"><time>2021-08-14T08:16:36</time></trkpt><trkpt lat="55.8019990" lon="49.1002650"><time>2021-08-14T08:16:37</time></trkpt><trkpt lat="55.8019890" lon="49.1002440"><time>2021-08-14T08:16:38</time></trkpt><trkpt lat="55.8019830" lon="49.1002240"><time>2021-08-14T08:16:39</time></trkpt><trkpt lat="55.8019800" lon="49.1002090"><time>2021-08-14T08:16:40</time></trkpt><trkpt lat="55.8019750" lon="49.1001910"><time>2021-08-14T08:16:41</time></trkpt><trkpt lat="55.8019770" lon="49.1001670"><time>2021-08-14T08:16:42</time></trkpt><trkpt lat="55.8019810" lon="49.1001270"><time>2021-08-14T08:16:43</time></trkpt><trkpt lat="55.8019820" lon="49.1001120"><time>2021-08-14T08:16:44</time></trkpt><trkpt lat="55.8019840" lon="49.1000960"><time>2021-08-14T08:16:45</time></trkpt><trkpt lat="55.8019840" lon="49.1000710"><time>2021-08-14T08:16:46</time></trkpt><trkpt lat="55.8019860" lon="49.1000420"><time>2021-08-14T08:16:47</time></trkpt><trkpt lat="55.8019860" lon="49.1000160"><time>2021-08-14T08:16:48</time></trkpt><trkpt lat="55.8019850" lon="49.0999890"><time>2021-08-14T08:16:49</time></trkpt><trkpt lat="55.8019780" lon="49.0999520"><time>2021-08-14T08:16:50</time></trkpt><trkpt lat="55.8019760" lon="49.0999380"><time>2021-08-14T08:16:51</time></trkpt><trkpt lat="55.8019730" lon="49.0999240"><time>2021-08-14T08:16:52</time></trkpt><trkpt lat="55.8019710" lon="49.0998870"><time>2021-08-14T08:16:53</time></trkpt><trkpt lat="55.8019710" lon="49.0998730"><time>2021-08-14T08:16:54</time></trkpt><trkpt lat="55.8019710" lon="49.0998580"><time>2021-08-14T08:16:55</time></trkpt><trkpt lat="55.8019670" lon="49.0998280"><time>2021-08-14T08:16:56</time></trkpt><trkpt lat="55.8019600" lon="49.0998030"><time>2021-08-14T08:16:57</time></trkpt><trkpt lat="55.8019500" lon="49.0997820"><time>2021-08-14T08:16:58</time></trkpt><trkpt lat="55.8019330" lon="49.0997460"><time>2021-08-14T08:16:59</time></trkpt><trkpt lat="55.8019220" lon="49.0997200"><time>2021-08-14T08:17:00</time></trkpt><trkpt lat="55.8019170" lon="49.0997150"><time>2021-08-14T08:17:01</time></trkpt><trkpt lat="55.8019090" lon="49.0997030"><time>2021-08-14T08:17:02</time></trkpt><trkpt lat="55.8019000" lon="49.0996940"><time>2021-08-14T08:17:03</time></trkpt><trkpt lat="55.8018910" lon="49.0996810"><time>2021-08-14T08:17:04</time></trkpt><trkpt lat="55.8018780" lon="49.0996520"><time>2021-08-14T08:17:05</time></trkpt><trkpt lat="55.8018720" lon="49.0996380"><time>2021-08-14T08:17:06</time></trkpt><trkpt lat="55.8018670" lon="49.0996230"><time>2021-08-14T08:17:07</time></trkpt><trkpt lat="55.8018600" lon="49.0996000"><time>2021-08-14T08:17:08</time></trkpt><trkpt lat="55.8018540" lon="49.0995800"><time>2021-08-14T08:17:09</time></trkpt><trkpt lat="55.8018460" lon="49.0995590"><time>2021-08-14T08:17:10</time></trkpt><trkpt lat="55.8018390" lon="49.0995300"><time>2021-08-14T08:17:11</time></trkpt><trkpt lat="55.8018290" lon="49.0995100"><time>2021-08-14T08:17:12</time></trkpt><trkpt lat="55.8018200" lon="49.0994910"><time>2021-08-14T08:17:13</time></trkpt><trkpt lat="55.8018140" lon="49.0994670"><time>2021-08-14T08:17:14</time></trkpt><trkpt lat="55.8018070" lon="49.0994410"><time>2021-08-14T08:17:15</time></trkpt><trkpt lat="55.8018010" lon="49.0994190"><time>2021-08-14T08:17:16</time></trkpt><trkpt lat="55.8017890" lon="49.0994010"><time>2021-08-14T08:17:17</time></trkpt><trkpt lat="55.8017810" lon="49.0993830"><time>2021-08-14T08:17:18</time></trkpt><trkpt lat="55.8017730" lon="49.0993600"><time>2021-08-14T08:17:19</time></trkpt><trkpt lat="55.8017630" lon="49.0993370"><time>2021-08-14T08:17:20</time></trkpt><trkpt lat="55.8017550" lon="49.0993170"><time>2021-08-14T08:17:21</time></trkpt><trkpt lat="55.8017460" lon="49.0992970"><time>2021-08-14T08:17:22</time></trkpt><trkpt lat="55.8017410" lon="49.0992740"><time>2021-08-14T08:17:23</time></trkpt><trkpt lat="55.8017330" lon="49.0992480"><time>2021-08-14T08:17:24</time></trkpt><trkpt lat="55.8017270" lon="49.0992290"><time>2021-08-14T08:17:25</time></trkpt><trkpt lat="55.8017160" lon="49.0991910"><time>2021-08-14T08:17:26</time></trkpt><trkpt lat="55.8017110" lon="49.0991770"><time>2021-08-14T08:17:27</time></trkpt><trkpt lat="55.8017060" lon="49.0991630"><time>2021-08-14T08:17:28</time></trkpt><trkpt lat="55.8016980" lon="49.0991360"><time>2021-08-14T08:17:29</time></trkpt><trkpt lat="55.8016900" lon="49.0991190"><time>2021-08-14T08:17:30</time></trkpt><trkpt lat="55.8016800" lon="49.0990990"><time>2021-08-14T08:17:31</time></trkpt><trkpt lat="55.8016720" lon="49.0990740"><time>2021-08-14T08:17:32</time></trkpt><trkpt lat="55.8016660" lon="49.0990530"><time>2021-08-14T08:17:33</time></trkpt><trkpt lat="55.8016590" lon="49.0990290"><time>2021-08-14T08:17:34</time></trkpt><trkpt lat="55.8016530" lon="49.0990050"><time>2021-08-14T08:17:35</time></trkpt><trkpt lat="55.8016480" lon="49.0989820"><time>2021-08-14T08:17:36</time></trkpt><trkpt lat="55.8016450" lon="49.0989550"><time>2021-08-14T08:17:37</time></trkpt><trkpt lat="55.8016410" lon="49.0989320"><time>2021-08-14T08:17:38</time></trkpt><trkpt lat="55.8016350" lon="49.0989100"><time>2021-08-14T08:17:39</time></trkpt><trkpt lat="55.8016290" lon="49.0988890"><time>2021-08-14T08:17:40</time></trkpt><trkpt lat="55.8016250" lon="49.0988660"><time>2021-08-14T08:17:41</time></trkpt><trkpt lat="55.8016220" lon="49.0988420"><time>2021-08-14T08:17:42</time></trkpt><trkpt lat="55.8016190" lon="49.0988180"><time>2021-08-14T08:17:43</time></trkpt><trkpt lat="55.8016150" lon="49.0987960"><time>2021-08-14T08:17:44</time></trkpt><trkpt lat="55.8016050" lon="49.0987810"><time>2021-08-14T08:17:45</time></trkpt><trkpt lat="55.8015950" lon="49.0987590"><time>2021-08-14T08:17:46</time></trkpt><trkpt lat="55.8015850" lon="49.0987410"><time>2021-08-14T08:17:47</time></trkpt><trkpt lat="55.8015780" lon="49.0987200"><time>2021-08-14T08:17:48</time></trkpt><trkpt lat="55.8015720" lon="49.0986990"><time>2021-08-14T08:17:49</time></trkpt><trkpt lat="55.8015650" lon="49.0986740"><time>2021-08-14T08:17:50</time></trkpt><trkpt lat="55.8015550" lon="49.0986400"><time>2021-08-14T08:17:51</time></trkpt><trkpt lat="55.8015500" lon="49.0986260"><time>2021-08-14T08:17:52</time></trkpt><trkpt lat="55.8015440" lon="49.0986120"><time>2021-08-14T08:17:53</time></trkpt><trkpt lat="55.8015340" lon="49.0985920"><time>2021-08-14T08:17:54</time></trkpt><trkpt lat="55.8015250" lon="49.0985760"><time>2021-08-14T08:17:55</time></trkpt><trkpt lat="55.8015220" lon="49.0985370"><time>2021-08-14T08:17:56</time></trkpt><trkpt lat="55.8015210" lon="49.0985220"><time>2021-08-14T08:17:57</time></trkpt><trkpt lat="55.8015210" lon="49.0985070"><time>2021-08-14T08:17:58</time></trkpt><trkpt lat="55.8015150" lon="49.0984730"><time>2021-08-14T08:17:59</time></trkpt><trkpt lat="55.8015120" lon="49.0984570"><time>2021-08-14T08:18:00</time></trkpt><trkpt lat="55.8015090" lon="49.0984420"><time>2021-08-14T08:18:01</time></trkpt><trkpt lat="55.8015010" lon="49.0984210"><time>2021-08-14T08:18:02</time></trkpt><trkpt lat="55.8014910" lon="49.0984020"><time>2021-08-14T08:18:03</time></trkpt><trkpt lat="55.8014780" lon="49.0983750"><time>2021-08-14T08:18:04</time></trkpt><trkpt lat="55.8014740" lon="49.0983630"><time>2021-08-14T08:18:05</time></trkpt><trkpt lat="55.8014710" lon="49.0983500"><time>2021-08-14T08:18:06</time></trkpt><trkpt lat="55.8014690" lon="49.0983270"><time>2021-08-14T08:18:07</time></trkpt><trkpt lat="55.8014600" lon="49.0983100"><time>2021-08-14T08:18:08</time></trkpt><trkpt lat="55.8014540" lon="49.0983000"><time>2021-08-14T08:18:09</time></trkpt><trkpt lat="55.8014420" lon="49.0982670"><time>2021-08-14T08:18:10</time></trkpt><trkpt lat="55.8014360" lon="49.0982520"><time>2021-08-14T08:18:11</time></trkpt><trkpt lat="55.8014300" lon="49.0982370"><time>2021-08-14T08:18:12</time></trkpt><trkpt lat="55.8014190" lon="49.0982050"><time>2021-08-14T08:18:13</time></trkpt><trkpt lat="55.8014130" lon="49.0981920"><time>2021-08-14T08:18:15</time></trkpt><trkpt lat="55.8014080" lon="49.0981790"><time>2021-08-14T08:18:16</time></trkpt><trkpt lat="55.8013950" lon="49.0981590"><time>2021-08-14T08:18:17</time></trkpt><trkpt lat="55.8013920" lon="49.0981470"><time>2021-08-14T08:18:18</time></trkpt><trkpt lat="55.8013880" lon="49.0981360"><time>2021-08-14T08:18:19</time></trkpt><trkpt lat="55.8013850" lon="49.0981250"><time>2021-08-14T08:18:20</time></trkpt><trkpt lat="55.8013750" lon="49.0981080"><time>2021-08-14T08:18:21</time></trkpt><trkpt lat="55.8013670" lon="49.0980930"><time>2021-08-14T08:18:22</time></trkpt><trkpt lat="55.8013610" lon="49.0980810"><time>2021-08-14T08:18:23</time></trkpt><trkpt lat="55.8013550" lon="49.0980450"><time>2021-08-14T08:18:24</time></trkpt><trkpt lat="55.8013530" lon="49.0980290"><time>2021-08-14T08:18:25</time></trkpt><trkpt lat="55.8013520" lon="49.0980130"><time>2021-08-14T08:18:26</time></trkpt><trkpt lat="55.8013510" lon="49.0979760"><time>2021-08-14T08:18:27</time></trkpt><trkpt lat="55.8013500" lon="49.0979600"><time>2021-08-14T08:18:28</time></trkpt><trkpt lat="55.8013480" lon="49.0979440"><time>2021-08-14T08:18:29</time></trkpt><trkpt lat="55.8013420" lon="49.0979050"><time>2021-08-14T08:18:30</time></trkpt><trkpt lat="55.8013390" lon="49.0978910"><time>2021-08-14T08:18:31</time></trkpt><trkpt lat="55.8013350" lon="49.0978760"><time>2021-08-14T08:18:32</time></trkpt><trkpt lat="55.8013270" lon="49.0978420"><time>2021-08-14T08:18:33</time></trkpt><trkpt lat="55.8013240" lon="49.0978260"><time>2021-08-14T08:18:34</time></trkpt><trkpt lat="55.8013210" lon="49.0978100"><time>2021-08-14T08:18:35</time></trkpt><trkpt lat="55.8013230" lon="49.0977810"><time>2021-08-14T08:18:36</time></trkpt><trkpt lat="55.8013210" lon="49.0977560"><time>2021-08-14T08:18:37</time></trkpt><trkpt lat="55.8013200" lon="49.0977290"><time>2021-08-14T08:18:38</time></trkpt><trkpt lat="55.8013160" lon="49.0977030"><time>2021-08-14T08:18:39</time></trkpt><trkpt lat="55.8013150" lon="49.0976790"><time>2021-08-14T08:18:40</time></trkpt><trkpt lat="55.8013100" lon="49.0976550"><time>2021-08-14T08:18:41</time></trkpt><trkpt lat="55.8013030" lon="49.0976170"><time>2021-08-14T08:18:42</time></trkpt><trkpt lat="55.8013010" lon="49.0976020"><time>2021-08-14T08:18:43</time></trkpt><trkpt lat="55.8012980" lon="49.0975880"><time>2021-08-14T08:18:44</time></trkpt><trkpt lat="55.8012910" lon="49.0975620"><time>2021-08-14T08:18:45</time></trkpt><trkpt lat="55.8012840" lon="49.0975360"><time>2021-08-14T08:18:46</time></trkpt><trkpt lat="55.8012760" lon="49.0975140"><time>2021-08-14T08:18:47</time></trkpt><trkpt lat="55.8012680" lon="49.0974910"><time>2021-08-14T08:18:48</time></trkpt><trkpt lat="55.8012600" lon="49.0974700"><time>2021-08-14T08:18:49</time></trkpt><trkpt lat="55.8012520" lon="49.0974480"><time>2021-08-14T08:18:50</time></trkpt><trkpt lat="55.8012480" lon="49.0974240"><time>2021-08-14T08:18:51</time></trkpt><trkpt lat="55.8012440" lon="49.0973980"><time>2021-08-14T08:18:52</time></trkpt><trkpt lat="55.8012390" lon="49.0973810"><time>2021-08-14T08:18:53</time></trkpt><trkpt lat="55.8012300" lon="49.0973630"><time>2021-08-14T08:18:54</time></trkpt><trkpt lat="55.8012250" lon="49.0973490"><time>2021-08-14T08:18:55</time></trkpt><trkpt lat="55.8012270" lon="49.0973500"><time>2021-08-14T08:18:56</time></trkpt><trkpt lat="55.8012280" lon="49.0973540"><time>2021-08-14T08:18:57</time></trkpt><trkpt lat="55.8012300" lon="49.0973570"><time>2021-08-14T08:18:58</time></trkpt><trkpt lat="55.8012310" lon="49.0973610"><time>2021-08-14T08:18:59</time></trkpt><trkpt lat="55.8012320" lon="49.0973640"><time>2021-08-14T08:19:00</time></trkpt><trkpt lat="55.8012330" lon="49.0973670"><time>2021-08-14T08:19:01</time></trkpt><trkpt lat="55.8012340" lon="49.0973710"><time>2021-08-14T08:19:02</time></trkpt><trkpt lat="55.8012350" lon="49.0973740"><time>2021-08-14T08:19:03</time></trkpt><trkpt lat="55.8012370" lon="49.0973780"><time>2021-08-14T08:19:04</time></trkpt><trkpt lat="55.8012380" lon="49.0973810"><time>2021-08-14T08:19:05</time></trkpt><trkpt lat="55.8012390" lon="49.0973850"><time>2021-08-14T08:19:06</time></trkpt><trkpt lat="55.8012400" lon="49.0973880"><time>2021-08-14T08:19:07</time></trkpt><trkpt lat="55.8012410" lon="49.0973910"><time>2021-08-14T08:19:08</time></trkpt><trkpt lat="55.8012420" lon="49.0973950"><time>2021-08-14T08:19:09</time></trkpt><trkpt lat="55.8012440" lon="49.0973980"><time>2021-08-14T08:19:10</time></trkpt><trkpt lat="55.8012450" lon="49.0974020"><time>2021-08-14T08:19:11</time></trkpt><trkpt lat="55.8012460" lon="49.0974050"><time>2021-08-14T08:19:12</time></trkpt><trkpt lat="55.8012530" lon="49.0974100"><time>2021-08-14T08:19:13</time></trkpt><trkpt lat="55.8012510" lon="49.0974360"><time>2021-08-14T08:19:14</time></trkpt><trkpt lat="55.8012570" lon="49.0974630"><time>2021-08-14T08:19:15</time></trkpt><trkpt lat="55.8012630" lon="49.0974850"><time>2021-08-14T08:19:16</time></trkpt><trkpt lat="55.8012590" lon="49.0975230"><time>2021-08-14T08:19:17</time></trkpt><trkpt lat="55.8012710" lon="49.0975580"><time>2021-08-14T08:19:18</time></trkpt><trkpt lat="55.8012750" lon="49.0975670"><time>2021-08-14T08:19:19</time></trkpt><trkpt lat="55.8012800" lon="49.0975770"><time>2021-08-14T08:19:20</time></trkpt><trkpt lat="55.8012870" lon="49.0975950"><time>2021-08-14T08:19:21</time></trkpt><trkpt lat="55.8012880" lon="49.0976100"><time>2021-08-14T08:19:22</time></trkpt><trkpt lat="55.8012950" lon="49.0976290"><time>2021-08-14T08:19:23</time></trkpt><trkpt lat="55.8013020" lon="49.0976680"><time>2021-08-14T08:19:24</time></trkpt><trkpt lat="55.8013020" lon="49.0976820"><time>2021-08-14T08:19:25</time></trkpt><trkpt lat="55.8013030" lon="49.0976950"><time>2021-08-14T08:19:26</time></trkpt><trkpt lat="55.8013040" lon="49.0977330"><time>2021-08-14T08:19:27</time></trkpt><trkpt lat="55.8013030" lon="49.0977530"><time>2021-08-14T08:19:28</time></trkpt><trkpt lat="55.8013030" lon="49.0977720"><time>2021-08-14T08:19:29</time></trkpt><trkpt lat="55.8013010" lon="49.0978000"><time>2021-08-14T08:19:30</time></trkpt><trkpt lat="55.8013020" lon="49.0978260"><time>2021-08-14T08:19:31</time></trkpt><trkpt lat="55.8013040" lon="49.0978500"><time>2021-08-14T08:19:32</time></trkpt><trkpt lat="55.8013080" lon="49.0978770"><time>2021-08-14T08:19:33</time></trkpt><trkpt lat="55.8013110" lon="49.0978990"><time>2021-08-14T08:19:34</time></trkpt><trkpt lat="55.8013180" lon="49.0979230"><time>2021-08-14T08:19:35</time></trkpt><trkpt lat="55.8013240" lon="49.0979490"><time>2021-08-14T08:19:36</time></trkpt><trkpt lat="55.8013290" lon="49.0979760"><time>2021-08-14T08:19:37</time></trkpt><trkpt lat="55.8013330" lon="49.0980030"><time>2021-08-14T08:19:38</time></trkpt><trkpt lat="55.8013330" lon="49.0980290"><time>2021-08-14T08:19:39</time></trkpt><trkpt lat="55.8013380" lon="49.0980510"><time>2021-08-14T08:19:40</time></trkpt><trkpt lat="55.8013410" lon="49.0980760"><time>2021-08-14T08:19:41</time></trkpt><trkpt lat="55.8013460" lon="49.0980990"><time>2021-08-14T08:19:42</time></trkpt><trkpt lat="55.8013530" lon="49.0981210"><time>2021-08-14T08:19:43</time></trkpt><trkpt lat="55.8013610" lon="49.0981410"><time>2021-08-14T08:19:44</time></trkpt><trkpt lat="55.8013710" lon="49.0981610"><time>2021-08-14T08:19:45</time></trkpt><trkpt lat="55.8013800" lon="49.0981810"><time>2021-08-14T08:19:46</time></trkpt><trkpt lat="55.8013900" lon="49.0981990"><time>2021-08-14T08:19:47</time></trkpt><trkpt lat="55.8013990" lon="49.0982320"><time>2021-08-14T08:19:48</time></trkpt><trkpt lat="55.8014030" lon="49.0982460"><time>2021-08-14T08:19:49</time></trkpt><trkpt lat="55.8014080" lon="49.0982590"><time>2021-08-14T08:19:50</time></trkpt><trkpt lat="55.8014170" lon="49.0982790"><time>2021-08-14T08:19:51</time></trkpt><trkpt lat="55.8014240" lon="49.0983030"><time>2021-08-14T08:19:52</time></trkpt><trkpt lat="55.8014300" lon="49.0983260"><time>2021-08-14T08:19:53</time></trkpt><trkpt lat="55.8014380" lon="49.0983460"><time>2021-08-14T08:19:54</time></trkpt><trkpt lat="55.8014480" lon="49.0983790"><time>2021-08-14T08:19:55</time></trkpt><trkpt lat="55.8014530" lon="49.0983900"><time>2021-08-14T08:19:56</time></trkpt><trkpt lat="55.8014580" lon="49.0984020"><time>2021-08-14T08:19:57</time></trkpt><trkpt lat="55.8014590" lon="49.0984250"><time>2021-08-14T08:19:58</time></trkpt><trkpt lat="55.8014640" lon="49.0984430"><time>2021-08-14T08:19:59</time></trkpt><trkpt lat="55.8014690" lon="49.0984610"><time>2021-08-14T08:20:00</time></trkpt><trkpt lat="55.8014780" lon="49.0984950"><time>2021-08-14T08:20:01</time></trkpt><trkpt lat="55.8014820" lon="49.0985080"><time>2021-08-14T08:20:02</time></trkpt><trkpt lat="55.8014870" lon="49.0985220"><time>2021-08-14T08:20:03</time></trkpt><trkpt lat="55.8014950" lon="49.0985410"><time>2021-08-14T08:20:04</time></trkpt><trkpt lat="55.8015080" lon="49.0985540"><time>2021-08-14T08:20:05</time></trkpt><trkpt lat="55.8015170" lon="49.0985870"><time>2021-08-14T08:20:06</time></trkpt><trkpt lat="55.8015210" lon="49.0986020"><time>2021-08-14T08:20:07</time></trkpt><trkpt lat="55.8015240" lon="49.0986160"><time>2021-08-14T08:20:08</time></trkpt><trkpt lat="55.8015320" lon="49.0986370"><time>2021-08-14T08:20:09</time></trkpt><trkpt lat="55.8015380" lon="49.0986620"><time>2021-08-14T08:20:10</time></trkpt><trkpt lat="55.8015440" lon="49.0986850"><time>2021-08-14T08:20:11</time></trkpt><trkpt lat="55.8015500" lon="49.0987060"><time>2021-08-14T08:20:12</time></trkpt><trkpt lat="55.8015610" lon="49.0987210"><time>2021-08-14T08:20:13</time></trkpt><trkpt lat="55.8015730" lon="49.0987330"><time>2021-08-14T08:20:14</time></trkpt><trkpt lat="55.8015820" lon="49.0987540"><time>2021-08-14T08:20:15</time></trkpt><trkpt lat="55.8015920" lon="49.0987730"><time>2021-08-14T08:20:16</time></trkpt><trkpt lat="55.8016000" lon="49.0987950"><time>2021-08-14T08:20:17</time></trkpt><trkpt lat="55.8016080" lon="49.0988170"><time>2021-08-14T08:20:18</time></trkpt><trkpt lat="55.8016130" lon="49.0988630"><time>2021-08-14T08:20:19</time></trkpt><trkpt lat="55.8016150" lon="49.0988820"><time>2021-08-14T08:20:21</time></trkpt><trkpt lat="55.8016180" lon="49.0989000"><time>2021-08-14T08:20:22</time></trkpt><trkpt lat="55.8016200" lon="49.0989190"><time>2021-08-14T08:20:23</time></trkpt><trkpt lat="55.8016220" lon="49.0989380"><time>2021-08-14T08:20:24</time></trkpt><trkpt lat="55.8016320" lon="49.0989530"><time>2021-08-14T08:20:25</time></trkpt><trkpt lat="55.8016350" lon="49.0989720"><time>2021-08-14T08:20:26</time></trkpt><trkpt lat="55.8016410" lon="49.0989910"><time>2021-08-14T08:20:27</time></trkpt><trkpt lat="55.8016540" lon="49.0990180"><time>2021-08-14T08:20:28</time></trkpt><trkpt lat="55.8016580" lon="49.0990310"><time>2021-08-14T08:20:29</time></trkpt><trkpt lat="55.8016630" lon="49.0990430"><time>2021-08-14T08:20:30</time></trkpt><trkpt lat="55.8016700" lon="49.0990650"><time>2021-08-14T08:20:31</time></trkpt><trkpt lat="55.8016760" lon="49.0990910"><time>2021-08-14T08:20:32</time></trkpt><trkpt lat="55.8016810" lon="49.0991150"><time>2021-08-14T08:20:33</time></trkpt><trkpt lat="55.8016850" lon="49.0991370"><time>2021-08-14T08:20:34</time></trkpt><trkpt lat="55.8016930" lon="49.0991580"><time>2021-08-14T08:20:35</time></trkpt><trkpt lat="55.8016980" lon="49.0991800"><time>2021-08-14T08:20:36</time></trkpt><trkpt lat="55.8017120" lon="49.0992110"><time>2021-08-14T08:20:37</time></trkpt><trkpt lat="55.8017180" lon="49.0992220"><time>2021-08-14T08:20:38</time></trkpt><trkpt lat="55.8017240" lon="49.0992330"><time>2021-08-14T08:20:39</time></trkpt><trkpt lat="55.8017340" lon="49.0992520"><time>2021-08-14T08:20:40</time></trkpt><trkpt lat="55.8017410" lon="49.0992740"><time>2021-08-14T08:20:41</time></trkpt><trkpt lat="55.8017470" lon="49.0992960"><time>2021-08-14T08:20:42</time></trkpt><trkpt lat="55.8017550" lon="49.0993160"><time>2021-08-14T08:20:43</time></trkpt><trkpt lat="55.8017690" lon="49.0993480"><time>2021-08-14T08:20:44</time></trkpt><trkpt lat="55.8017730" lon="49.0993600"><time>2021-08-14T08:20:45</time></trkpt><trkpt lat="55.8017780" lon="49.0993730"><time>2021-08-14T08:20:46</time></trkpt><trkpt lat="55.8017840" lon="49.0993920"><time>2021-08-14T08:20:47</time></trkpt><trkpt lat="55.8017900" lon="49.0994090"><time>2021-08-14T08:20:48</time></trkpt><trkpt lat="55.8017940" lon="49.0994270"><time>2021-08-14T08:20:49</time></trkpt><trkpt lat="55.8018000" lon="49.0994600"><time>2021-08-14T08:20:50</time></trkpt><trkpt lat="55.8018040" lon="49.0994720"><time>2021-08-14T08:20:51</time></trkpt><trkpt lat="55.8018090" lon="49.0994850"><time>2021-08-14T08:20:52</time></trkpt><trkpt lat="55.8018230" lon="49.0995000"><time>2021-08-14T08:20:53</time></trkpt><trkpt lat="55.8018290" lon="49.0995190"><time>2021-08-14T08:20:54</time></trkpt><trkpt lat="55.8018380" lon="49.0995400"><time>2021-08-14T08:20:55</time></trkpt><trkpt lat="55.8018440" lon="49.0995650"><time>2021-08-14T08:20:56</time></trkpt><trkpt lat="55.8018480" lon="49.0995890"><time>2021-08-14T08:20:57</time></trkpt><trkpt lat="55.8018550" lon="49.0996090"><time>2021-08-14T08:20:58</time></trkpt><trkpt lat="55.8018640" lon="49.0996260"><time>2021-08-14T08:20:59</time></trkpt><trkpt lat="55.8018670" lon="49.0996460"><time>2021-08-14T08:21:00</time></trkpt><trkpt lat="55.8018730" lon="49.0996630"><time>2021-08-14T08:21:01</time></trkpt><trkpt lat="55.8018760" lon="49.0996830"><time>2021-08-14T08:21:02</time></trkpt><trkpt lat="55.8018900" lon="49.0997170"><time>2021-08-14T08:21:03</time></trkpt><trkpt lat="55.8018990" lon="49.0997300"><time>2021-08-14T08:21:04</time></trkpt><trkpt lat="55.8019050" lon="49.0997470"><time>2021-08-14T08:21:05</time></trkpt><trkpt lat="55.8019140" lon="49.0997630"><time>2021-08-14T08:21:06</time></trkpt><trkpt lat="55.8019170" lon="49.0997810"><time>2021-08-14T08:21:07</time></trkpt><trkpt lat="55.8019190" lon="49.0998000"><time>2021-08-14T08:21:08</time></trkpt><trkpt lat="55.8019240" lon="49.0998160"><time>2021-08-14T08:21:09</time></trkpt><trkpt lat="55.8019300" lon="49.0998360"><time>2021-08-14T08:21:10</time></trkpt><trkpt lat="55.8019320" lon="49.0998550"><time>2021-08-14T08:21:11</time></trkpt><trkpt lat="55.8019320" lon="49.0998770"><time>2021-08-14T08:21:12</time></trkpt><trkpt lat="55.8019360" lon="49.0998980"><time>2021-08-14T08:21:13</time></trkpt><trkpt lat="55.8019410" lon="49.0999150"><time>2021-08-14T08:21:14</time></trkpt><trkpt lat="55.8019460" lon="49.0999340"><time>2021-08-14T08:21:15</time></trkpt><trkpt lat="55.8019500" lon="49.0999520"><time>2021-08-14T08:21:16</time></trkpt><trkpt lat="55.8019490" lon="49.0999720"><time>2021-08-14T08:21:17</time></trkpt><trkpt lat="55.8019460" lon="49.0999930"><time>2021-08-14T08:21:18</time></trkpt><trkpt lat="55.8019470" lon="49.1000130"><time>2021-08-14T08:21:19</time></trkpt><trkpt lat="55.8019490" lon="49.1000340"><time>2021-08-14T08:21:20</time></trkpt><trkpt lat="55.8019520" lon="49.1000530"><time>2021-08-14T08:21:21</time></trkpt><trkpt lat="55.8019600" lon="49.1000710"><time>2021-08-14T08:21:22</time></trkpt><trkpt lat="55.8019640" lon="49.1000900"><time>2021-08-14T08:21:23</time></trkpt><trkpt lat="55.8019600" lon="49.1001140"><time>2021-08-14T08:21:24</time></trkpt><trkpt lat="55.8019610" lon="49.1001370"><time>2021-08-14T08:21:25</time></trkpt><trkpt lat="55.8019600" lon="49.1001550"><time>2021-08-14T08:21:26</time></trkpt><trkpt lat="55.8019600" lon="49.1001710"><time>2021-08-14T08:21:27</time></trkpt><trkpt lat="55.8019580" lon="49.1001850"><time>2021-08-14T08:21:28</time></trkpt><trkpt lat="55.8019560" lon="49.1002020"><time>2021-08-14T08:21:29</time></trkpt><trkpt lat="55.8019540" lon="49.1002180"><time>2021-08-14T08:21:30</time></trkpt><trkpt lat="55.8019590" lon="49.1002440"><time>2021-08-14T08:21:31</time></trkpt><trkpt lat="55.8019730" lon="49.1002650"><time>2021-08-14T08:21:32</time></trkpt><trkpt lat="55.8019800" lon="49.1002850"><time>2021-08-14T08:21:33</time></trkpt><trkpt lat="55.8019860" lon="49.1003090"><time>2021-08-14T08:21:34</time></trkpt><trkpt lat="55.8019890" lon="49.1003370"><time>2021-08-14T08:21:35</time></trkpt><trkpt lat="55.8019960" lon="49.1003600"><time>2021-08-14T08:21:36</time></trkpt><trkpt lat="55.8020110" lon="49.1003740"><time>2021-08-14T08:21:37</time></trkpt><trkpt lat="55.8020200" lon="49.1003920"><time>2021-08-14T08:21:38</time></trkpt><trkpt lat="55.8020300" lon="49.1004080"><time>2021-08-14T08:21:39</time></trkpt><trkpt lat="55.8020400" lon="49.1004260"><time>2021-08-14T08:21:40</time></trkpt><trkpt lat="55.8020480" lon="49.1004460"><time>2021-08-14T08:21:41</time></trkpt><trkpt lat="55.8020550" lon="49.1004670"><time>2021-08-14T08:21:42</time></trkpt><trkpt lat="55.8020630" lon="49.1004870"><time>2021-08-14T08:21:43</time></trkpt><trkpt lat="55.8020660" lon="49.1005130"><time>2021-08-14T08:21:44</time></trkpt><trkpt lat="55.8020720" lon="49.1005380"><time>2021-08-14T08:21:45</time></trkpt><trkpt lat="55.8020830" lon="49.1005580"><time>2021-08-14T08:21:46</time></trkpt><trkpt lat="55.8020870" lon="49.1005830"><time>2021-08-14T08:21:47</time></trkpt><trkpt lat="55.8020930" lon="49.1005920"><time>2021-08-14T08:21:48</time></trkpt><trkpt lat="55.8020980" lon="49.1006020"><time>2021-08-14T08:21:49</time></trkpt><trkpt lat="55.8021040" lon="49.1006120"><time>2021-08-14T08:21:50</time></trkpt><trkpt lat="55.8021080" lon="49.1006250"><time>2021-08-14T08:21:51</time></trkpt><trkpt lat="55.8021110" lon="49.1006340"><time>2021-08-14T08:21:52</time></trkpt><trkpt lat="55.8021130" lon="49.1006460"><time>2021-08-14T08:21:53</time></trkpt><trkpt lat="55.8021190" lon="49.1006610"><time>2021-08-14T08:21:54</time></trkpt><trkpt lat="55.8021200" lon="49.1006820"><time>2021-08-14T08:21:55</time></trkpt><trkpt lat="55.8021310" lon="49.1007060"><time>2021-08-14T08:21:56</time></trkpt><trkpt lat="55.8021400" lon="49.1007170"><time>2021-08-14T08:21:57</time></trkpt><trkpt lat="55.8021440" lon="49.1007400"><time>2021-08-14T08:21:58</time></trkpt><trkpt lat="55.8021470" lon="49.1007580"><time>2021-08-14T08:21:59</time></trkpt><trkpt lat="55.8021550" lon="49.1007730"><time>2021-08-14T08:22:00</time></trkpt><trkpt lat="55.8021630" lon="49.1007850"><time>2021-08-14T08:22:01</time></trkpt><trkpt lat="55.8021690" lon="49.1007880"><time>2021-08-14T08:22:02</time></trkpt><trkpt lat="55.8021790" lon="49.1007970"><time>2021-08-14T08:22:03</time></trkpt><trkpt lat="55.8021950" lon="49.1008040"><time>2021-08-14T08:22:04</time></trkpt><trkpt lat="55.8022160" lon="49.1007920"><time>2021-08-14T08:22:05</time></trkpt><trkpt lat="55.8022260" lon="49.1007880"><time>2021-08-14T08:22:06</time></trkpt><trkpt lat="55.8022370" lon="49.1007850"><time>2021-08-14T08:22:07</time></trkpt><trkpt lat="55.8022540" lon="49.1007800"><time>2021-08-14T08:22:08</time></trkpt><trkpt lat="55.8022660" lon="49.1007770"><time>2021-08-14T08:22:09</time></trkpt><trkpt lat="55.8022770" lon="49.1007800"><time>2021-08-14T08:22:10</time></trkpt><trkpt lat="55.8022880" lon="49.1007810"><time>2021-08-14T08:22:11</time></trkpt><trkpt lat="55.8022960" lon="49.1008090"><time>2021-08-14T08:22:12</time></trkpt><trkpt lat="55.8023020" lon="49.1008270"><time>2021-08-14T08:22:13</time></trkpt><trkpt lat="55.8023050" lon="49.1008450"><time>2021-08-14T08:22:14</time></trkpt><trkpt lat="55.8023090" lon="49.1008640"><time>2021-08-14T08:22:15</time></trkpt><trkpt lat="55.8023090" lon="49.1008890"><time>2021-08-14T08:22:16</time></trkpt><trkpt lat="55.8023130" lon="49.1009120"><time>2021-08-14T08:22:17</time></trkpt><trkpt lat="55.8023140" lon="49.1009310"><time>2021-08-14T08:22:18</time></trkpt><trkpt lat="55.8023130" lon="49.1009600"><time>2021-08-14T08:22:19</time></trkpt><trkpt lat="55.8023090" lon="49.1009990"><time>2021-08-14T08:22:20</time></trkpt><trkpt lat="55.8023070" lon="49.1010150"><time>2021-08-14T08:22:21</time></trkpt><trkpt lat="55.8023050" lon="49.1010310"><time>2021-08-14T08:22:22</time></trkpt><trkpt lat="55.8023040" lon="49.1010630"><time>2021-08-14T08:22:23</time></trkpt><trkpt lat="55.8023050" lon="49.1010800"><time>2021-08-14T08:22:24</time></trkpt><trkpt lat="55.8023050" lon="49.1010960"><time>2021-08-14T08:22:25</time></trkpt><trkpt lat="55.8023090" lon="49.1011210"><time>2021-08-14T08:22:27</time></trkpt><trkpt lat="55.8023110" lon="49.1011480"><time>2021-08-14T08:22:28</time></trkpt><trkpt lat="55.8023060" lon="49.1011730"><time>2021-08-14T08:22:29</time></trkpt><trkpt lat="55.8023080" lon="49.1012010"><time>2021-08-14T08:22:30</time></trkpt><trkpt lat="55.8023090" lon="49.1012210"><time>2021-08-14T08:22:31</time></trkpt><trkpt lat="55.8023140" lon="49.1012490"><time>2021-08-14T08:22:32</time></trkpt><trkpt lat="55.8023250" lon="49.1012690"><time>2021-08-14T08:22:33</time></trkpt><trkpt lat="55.8023250" lon="49.1012940"><time>2021-08-14T08:22:34</time></trkpt><trkpt lat="55.8023310" lon="49.1013180"><time>2021-08-14T08:22:35</time></trkpt><trkpt lat="55.8023340" lon="49.1013430"><time>2021-08-14T08:22:36</time></trkpt><trkpt lat="55.8023420" lon="49.1013640"><time>2021-08-14T08:22:37</time></trkpt><trkpt lat="55.8023490" lon="49.1013840"><time>2021-08-14T08:22:38</time></trkpt><trkpt lat="55.8023590" lon="49.1014180"><time>2021-08-14T08:22:39</time></trkpt><trkpt lat="55.8023630" lon="49.1014320"><time>2021-08-14T08:22:40</time></trkpt><trkpt lat="55.8023660" lon="49.1014460"><time>2021-08-14T08:22:41</time></trkpt><trkpt lat="55.8023800" lon="49.1014770"><time>2021-08-14T08:22:42</time></trkpt><trkpt lat="55.8023840" lon="49.1014920"><time>2021-08-14T08:22:43</time></trkpt><trkpt lat="55.8023890" lon="49.1015070"><time>2021-08-14T08:22:44</time></trkpt><trkpt lat="55.8023950" lon="49.1015350"><time>2021-08-14T08:22:45</time></trkpt><trkpt lat="55.8023980" lon="49.1015590"><time>2021-08-14T08:22:46</time></trkpt><trkpt lat="55.8024050" lon="49.1015850"><time>2021-08-14T08:22:47</time></trkpt><trkpt lat="55.8024140" lon="49.1016090"><time>2021-08-14T08:22:48</time></trkpt><trkpt lat="55.8024270" lon="49.1016250"><time>2021-08-14T08:22:49</time></trkpt><trkpt lat="55.8024270" lon="49.1016570"><time>2021-08-14T08:22:50</time></trkpt><trkpt lat="55.8024290" lon="49.1016840"><time>2021-08-14T08:22:51</time></trkpt><trkpt lat="55.8024280" lon="49.1017100"><time>2021-08-14T08:22:52</time></trkpt><trkpt lat="55.8024320" lon="49.1017370"><time>2021-08-14T08:22:53</time></trkpt><trkpt lat="55.8024450" lon="49.1017610"><time>2021-08-14T08:22:54</time></trkpt><trkpt lat="55.8024540" lon="49.1017860"><time>2021-08-14T08:22:55</time></trkpt><trkpt lat="55.8024620" lon="49.1018000"><time>2021-08-14T08:22:56</time></trkpt><trkpt lat="55.8024750" lon="49.1018330"><time>2021-08-14T08:22:57</time></trkpt><trkpt lat="55.8024820" lon="49.1018480"><time>2021-08-14T08:22:58</time></trkpt><trkpt lat="55.8024890" lon="49.1018630"><time>2021-08-14T08:22:59</time></trkpt><trkpt lat="55.8024910" lon="49.1018910"><time>2021-08-14T08:23:00</time></trkpt><trkpt lat="55.8024920" lon="49.1019190"><time>2021-08-14T08:23:01</time></trkpt><trkpt lat="55.8025010" lon="49.1019390"><time>2021-08-14T08:23:02</time></trkpt><trkpt lat="55.8025040" lon="49.1019650"><time>2021-08-14T08:23:03</time></trkpt><trkpt lat="55.8025070" lon="49.1020010"><time>2021-08-14T08:23:04</time></trkpt><trkpt lat="55.8025100" lon="49.1020150"><time>2021-08-14T08:23:05</time></trkpt><trkpt lat="55.8025130" lon="49.1020290"><time>2021-08-14T08:23:06</time></trkpt><trkpt lat="55.8025210" lon="49.1020510"><time>2021-08-14T08:23:07</time></trkpt><trkpt lat="55.8025280" lon="49.1020810"><time>2021-08-14T08:23:08</time></trkpt><trkpt lat="55.8025370" lon="49.1021060"><time>2021-08-14T08:23:09</time></trkpt><trkpt lat="55.8025460" lon="49.1021610"><time>2021-08-14T08:23:10</time></trkpt><trkpt lat="55.8025530" lon="49.1021860"><time>2021-08-14T08:23:11</time></trkpt><trkpt lat="55.8025610" lon="49.1022110"><time>2021-08-14T08:23:12</time></trkpt><trkpt lat="55.8025730" lon="49.1022260"><time>2021-08-14T08:23:13</time></trkpt><trkpt lat="55.8025820" lon="49.1022420"><time>2021-08-14T08:23:14</time></trkpt><trkpt lat="55.8025900" lon="49.1022670"><time>2021-08-14T08:23:15</time></trkpt><trkpt lat="55.8025990" lon="49.1022880"><time>2021-08-14T08:23:16</time></trkpt><trkpt lat="55.8026100" lon="49.1023020"><time>2021-08-14T08:23:17</time></trkpt><trkpt lat="55.8026230" lon="49.1023150"><time>2021-08-14T08:23:18</time></trkpt><trkpt lat="55.8026340" lon="49.1023310"><time>2021-08-14T08:23:19</time></trkpt><trkpt lat="55.8026470" lon="49.1023520"><time>2021-08-14T08:23:20</time></trkpt><trkpt lat="55.8026520" lon="49.1023620"><time>2021-08-14T08:23:21</time></trkpt><trkpt lat="55.8026560" lon="49.1023720"><time>2021-08-14T08:23:22</time></trkpt><trkpt lat="55.8026600" lon="49.1023820"><time>2021-08-14T08:23:23</time></trkpt><trkpt lat="55.8026700" lon="49.1024060"><time>2021-08-14T08:23:24</time></trkpt><trkpt lat="55.8026760" lon="49.1024190"><time>2021-08-14T08:23:25</time></trkpt><trkpt lat="55.8026810" lon="49.1024310"><time>2021-08-14T08:23:26</time></trkpt><trkpt lat="55.8026860" lon="49.1024440"><time>2021-08-14T08:23:27</time></trkpt><trkpt lat="55.8027140" lon="49.1024540"><time>2021-08-14T08:23:28</time></trkpt><trkpt lat="55.8027230" lon="49.1024560"><time>2021-08-14T08:23:29</time></trkpt><trkpt lat="55.8027380" lon="49.1024620"><time>2021-08-14T08:23:30</time></trkpt><trkpt lat="55.8027570" lon="49.1024670"><time>2021-08-14T08:23:31</time></trkpt><trkpt lat="55.8027730" lon="49.1024670"><time>2021-08-14T08:23:32</time></trkpt><trkpt lat="55.8027890" lon="49.1024740"><time>2021-08-14T08:23:33</time></trkpt><trkpt lat="55.8028050" lon="49.1024720"><time>2021-08-14T08:23:34</time></trkpt><trkpt lat="55.8028220" lon="49.1024620"><time>2021-08-14T08:23:35</time></trkpt><trkpt lat="55.8028350" lon="49.1024530"><time>2021-08-14T08:23:36</time></trkpt><trkpt lat="55.8028510" lon="49.1024460"><time>2021-08-14T08:23:37</time></trkpt><trkpt lat="55.8028650" lon="49.1024340"><time>2021-08-14T08:23:38</time></trkpt><trkpt lat="55.8028760" lon="49.1024260"><time>2021-08-14T08:23:39</time></trkpt><trkpt lat="55.8028900" lon="49.1024140"><time>2021-08-14T08:23:40</time></trkpt><trkpt lat="55.8029000" lon="49.1023970"><time>2021-08-14T08:23:41</time></trkpt><trkpt lat="55.8028950" lon="49.1023680"><time>2021-08-14T08:23:42</time></trkpt><trkpt lat="55.8028950" lon="49.1023520"><time>2021-08-14T08:23:43</time></trkpt><trkpt lat="55.8028950" lon="49.1023360"><time>2021-08-14T08:23:44</time></trkpt><trkpt lat="55.8028950" lon="49.1023200"><time>2021-08-14T08:23:45</time></trkpt><trkpt lat="55.8028900" lon="49.1022980"><time>2021-08-14T08:23:46</time></trkpt><trkpt lat="55.8028860" lon="49.1022890"><time>2021-08-14T08:23:47</time></trkpt><trkpt lat="55.8028830" lon="49.1022800"><time>2021-08-14T08:23:48</time></trkpt><trkpt lat="55.8028790" lon="49.1022710"><time>2021-08-14T08:23:49</time></trkpt><trkpt lat="55.8028750" lon="49.1022620"><time>2021-08-14T08:23:50</time></trkpt><trkpt lat="55.8028690" lon="49.1022260"><time>2021-08-14T08:23:51</time></trkpt><trkpt lat="55.8028650" lon="49.1022170"><time>2021-08-14T08:23:52</time></trkpt><trkpt lat="55.8028620" lon="49.1022080"><time>2021-08-14T08:23:53</time></trkpt><trkpt lat="55.8028580" lon="49.1021990"><time>2021-08-14T08:23:54</time></trkpt><trkpt lat="55.8028540" lon="49.1021900"><time>2021-08-14T08:23:55</time></trkpt><trkpt lat="55.8028430" lon="49.1021660"><time>2021-08-14T08:23:56</time></trkpt><trkpt lat="55.8028380" lon="49.1021490"><time>2021-08-14T08:23:57</time></trkpt><trkpt lat="55.8028300" lon="49.1021340"><time>2021-08-14T08:23:58</time></trkpt><trkpt lat="55.8028250" lon="49.1021300"><time>2021-08-14T08:23:59</time></trkpt><trkpt lat="55.8028210" lon="49.1021250"><time>2021-08-14T08:24:00</time></trkpt><trkpt lat="55.8028170" lon="49.1021200"><time>2021-08-14T08:24:01</time></trkpt><trkpt lat="55.8028120" lon="49.1021160"><time>2021-08-14T08:24:02</time></trkpt><trkpt lat="55.8028080" lon="49.1021110"><time>2021-08-14T08:24:03</time></trkpt><trkpt lat="55.8027790" lon="49.1021070"><time>2021-08-14T08:24:04</time></trkpt><trkpt lat="55.8027710" lon="49.1021110"><time>2021-08-14T08:24:05</time></trkpt><trkpt lat="55.8027590" lon="49.1021070"><time>2021-08-14T08:24:06</time></trkpt><trkpt lat="55.8027430" lon="49.1021130"><time>2021-08-14T08:24:07</time></trkpt><trkpt lat="55.8027260" lon="49.1021160"><time>2021-08-14T08:24:08</time></trkpt><trkpt lat="55.8027120" lon="49.1021150"><time>2021-08-14T08:24:09</time></trkpt><trkpt lat="55.8026980" lon="49.1021200"><time>2021-08-14T08:24:10</time></trkpt><trkpt lat="55.8026840" lon="49.1021240"><time>2021-08-14T08:24:11</time></trkpt><trkpt lat="55.8026700" lon="49.1021360"><time>2021-08-14T08:24:12</time></trkpt><trkpt lat="55.8026540" lon="49.1021370"><time>2021-08-14T08:24:13</time></trkpt><trkpt lat="55.8026360" lon="49.1021440"><time>2021-08-14T08:24:14</time></trkpt><trkpt lat="55.8026200" lon="49.1021450"><time>2021-08-14T08:24:15</time></trkpt><trkpt lat="55.8026060" lon="49.1021550"><time>2021-08-14T08:24:16</time></trkpt><trkpt lat="55.8025890" lon="49.1021590"><time>2021-08-14T08:24:17</time></trkpt><trkpt lat="55.8025760" lon="49.1021670"><time>2021-08-14T08:24:18</time></trkpt><trkpt lat="55.8025620" lon="49.1021730"><time>2021-08-14T08:24:19</time></trkpt><trkpt lat="55.8025450" lon="49.1021770"><time>2021-08-14T08:24:20</time></trkpt><trkpt lat="55.8025280" lon="49.1021850"><time>2021-08-14T08:24:21</time></trkpt><trkpt lat="55.8025140" lon="49.1021850"><time>2021-08-14T08:24:22</time></trkpt><trkpt lat="55.8025000" lon="49.1021910"><time>2021-08-14T08:24:23</time></trkpt><trkpt lat="55.8024860" lon="49.1021980"><time>2021-08-14T08:24:24</time></trkpt><trkpt lat="55.8024720" lon="49.1021990"><time>2021-08-14T08:24:25</time></trkpt><trkpt lat="55.8024590" lon="49.1022040"><time>2021-08-14T08:24:26</time></trkpt><trkpt lat="55.8024430" lon="49.1022010"><time>2021-08-14T08:24:27</time></trkpt><trkpt lat="55.8024270" lon="49.1022040"><time>2021-08-14T08:24:28</time></trkpt><trkpt lat="55.8024140" lon="49.1022170"><time>2021-08-14T08:24:29</time></trkpt><trkpt lat="55.8023990" lon="49.1022200"><time>2021-08-14T08:24:30</time></trkpt><trkpt lat="55.8023850" lon="49.1022280"><time>2021-08-14T08:24:31</time></trkpt><trkpt lat="55.8023720" lon="49.1022320"><time>2021-08-14T08:24:33</time></trkpt><trkpt lat="55.8023570" lon="49.1022370"><time>2021-08-14T08:24:34</time></trkpt><trkpt lat="55.8023420" lon="49.1022440"><time>2021-08-14T08:24:35</time></trkpt><trkpt lat="55.8023270" lon="49.1022490"><time>2021-08-14T08:24:36</time></trkpt><trkpt lat="55.8023120" lon="49.1022570"><time>2021-08-14T08:24:37</time></trkpt><trkpt lat="55.8022980" lon="49.1022620"><time>2021-08-14T08:24:38</time></trkpt><trkpt lat="55.8022830" lon="49.1022650"><time>2021-08-14T08:24:39</time></trkpt><trkpt lat="55.8022680" lon="49.1022790"><time>2021-08-14T08:24:40</time></trkpt><trkpt lat="55.8022520" lon="49.1022790"><time>2021-08-14T08:24:41</time></trkpt><trkpt lat="55.8022350" lon="49.1022860"><time>2021-08-14T08:24:42</time></trkpt><trkpt lat="55.8022180" lon="49.1022820"><time>2021-08-14T08:24:43</time></trkpt><trkpt lat="55.8022050" lon="49.1022920"><time>2021-08-14T08:24:44</time></trkpt><trkpt lat="55.8021930" lon="49.1023050"><time>2021-08-14T08:24:45</time></trkpt><trkpt lat="55.8021780" lon="49.1023030"><time>2021-08-14T08:24:46</time></trkpt><trkpt lat="55.8021630" lon="49.1023080"><time>2021-08-14T08:24:47</time></trkpt><trkpt lat="55.8021460" lon="49.1023100"><time>2021-08-14T08:24:48</time></trkpt><trkpt lat="55.8021310" lon="49.1023130"><time>2021-08-14T08:24:49</time></trkpt><trkpt lat="55.8021190" lon="49.1023240"><time>2021-08-14T08:24:50</time></trkpt><trkpt lat="55.8021050" lon="49.1023300"><time>2021-08-14T08:24:51</time></trkpt><trkpt lat="55.8020900" lon="49.1023330"><time>2021-08-14T08:24:52</time></trkpt><trkpt lat="55.8020740" lon="49.1023390"><time>2021-08-14T08:24:53</time></trkpt><trkpt lat="55.8020580" lon="49.1023480"><time>2021-08-14T08:24:54</time></trkpt><trkpt lat="55.8020410" lon="49.1023520"><time>2021-08-14T08:24:55</time></trkpt><trkpt lat="55.8020270" lon="49.1023630"><time>2021-08-14T08:24:56</time></trkpt><trkpt lat="55.8020140" lon="49.1023780"><time>2021-08-14T08:24:57</time></trkpt><trkpt lat="55.8020020" lon="49.1023900"><time>2021-08-14T08:24:58</time></trkpt><trkpt lat="55.8019860" lon="49.1023960"><time>2021-08-14T08:24:59</time></trkpt><trkpt lat="55.8019710" lon="49.1024060"><time>2021-08-14T08:25:00</time></trkpt><trkpt lat="55.8019550" lon="49.1024130"><time>2021-08-14T08:25:01</time></trkpt><trkpt lat="55.8019400" lon="49.1024310"><time>2021-08-14T08:25:02</time></trkpt><trkpt lat="55.8019280" lon="49.1024490"><time>2021-08-14T08:25:03</time></trkpt><trkpt lat="55.8019150" lon="49.1024620"><time>2021-08-14T08:25:04</time></trkpt><trkpt lat="55.8019010" lon="49.1024710"><time>2021-08-14T08:25:05</time></trkpt><trkpt lat="55.8018880" lon="49.1024880"><time>2021-08-14T08:25:06</time></trkpt><trkpt lat="55.8018740" lon="49.1025020"><time>2021-08-14T08:25:07</time></trkpt><trkpt lat="55.8018610" lon="49.1025200"><time>2021-08-14T08:25:08</time></trkpt><trkpt lat="55.8018550" lon="49.1025460"><time>2021-08-14T08:25:09</time></trkpt><trkpt lat="55.8018430" lon="49.1025670"><time>2021-08-14T08:25:10</time></trkpt><trkpt lat="55.8018330" lon="49.1025910"><time>2021-08-14T08:25:11</time></trkpt><trkpt lat="55.8018240" lon="49.1026140"><time>2021-08-14T08:25:12</time></trkpt><trkpt lat="55.8018150" lon="49.1026340"><time>2021-08-14T08:25:13</time></trkpt><trkpt lat="55.8018090" lon="49.1026550"><time>2021-08-14T08:25:14</time></trkpt><trkpt lat="55.8018030" lon="49.1026820"><time>2021-08-14T08:25:15</time></trkpt><trkpt lat="55.8017940" lon="49.1027050"><time>2021-08-14T08:25:16</time></trkpt><trkpt lat="55.8017860" lon="49.1027450"><time>2021-08-14T08:25:17</time></trkpt><trkpt lat="55.8017820" lon="49.1027670"><time>2021-08-14T08:25:18</time></trkpt><trkpt lat="55.8017790" lon="49.1027890"><time>2021-08-14T08:25:19</time></trkpt><trkpt lat="55.8017740" lon="49.1028280"><time>2021-08-14T08:25:20</time></trkpt><trkpt lat="55.8017720" lon="49.1028430"><time>2021-08-14T08:25:21</time></trkpt><trkpt lat="55.8017680" lon="49.1028690"><time>2021-08-14T08:25:22</time></trkpt><trkpt lat="55.8017620" lon="49.1029030"><time>2021-08-14T08:25:23</time></trkpt><trkpt lat="55.8017580" lon="49.1029560"><time>2021-08-14T08:25:24</time></trkpt><trkpt lat="55.8017550" lon="49.1029730"><time>2021-08-14T08:25:25</time></trkpt><trkpt lat="55.8017520" lon="49.1030220"><time>2021-08-14T08:25:26</time></trkpt><trkpt lat="55.8017530" lon="49.1030400"><time>2021-08-14T08:25:27</time></trkpt><trkpt lat="55.8017510" lon="49.1030660"><time>2021-08-14T08:25:28</time></trkpt><trkpt lat="55.8017490" lon="49.1030970"><time>2021-08-14T08:25:29</time></trkpt><trkpt lat="55.8017500" lon="49.1031270"><time>2021-08-14T08:25:30</time></trkpt><trkpt lat="55.8017500" lon="49.1031610"><time>2021-08-14T08:25:31</time></trkpt><trkpt lat="55.8017540" lon="49.1031950"><time>2021-08-14T08:25:32</time></trkpt><trkpt lat="55.8017540" lon="49.1032250"><time>2021-08-14T08:25:33</time></trkpt><trkpt lat="55.8017600" lon="49.1032510"><time>2021-08-14T08:25:34</time></trkpt><trkpt lat="55.8017710" lon="49.1032750"><time>2021-08-14T08:25:35</time></trkpt><trkpt lat="55.8017770" lon="49.1033040"><time>2021-08-14T08:25:36</time></trkpt><trkpt lat="55.8017850" lon="49.1033320"><time>2021-08-14T08:25:37</time></trkpt><trkpt lat="55.8017850" lon="49.1033660"><time>2021-08-14T08:25:38</time></trkpt><trkpt lat="55.8017920" lon="49.1033910"><time>2021-08-14T08:25:39</time></trkpt><trkpt lat="55.8017990" lon="49.1034150"><time>2021-08-14T08:25:40</time></trkpt><trkpt lat="55.8018060" lon="49.1034370"><time>2021-08-14T08:25:41</time></trkpt><trkpt lat="55.8018120" lon="49.1034660"><time>2021-08-14T08:25:42</time></trkpt><trkpt lat="55.8018160" lon="49.1034950"><time>2021-08-14T08:25:43</time></trkpt><trkpt lat="55.8018210" lon="49.1035240"><time>2021-08-14T08:25:44</time></trkpt><trkpt lat="55.8018290" lon="49.1035470"><time>2021-08-14T08:25:45</time></trkpt><trkpt lat="55.8018370" lon="49.1035700"><time>2021-08-14T08:25:46</time></trkpt><trkpt lat="55.8018460" lon="49.1036020"><time>2021-08-14T08:25:47</time></trkpt><trkpt lat="55.8018600" lon="49.1036490"><time>2021-08-14T08:25:48</time></trkpt><trkpt lat="55.8018640" lon="49.1036660"><time>2021-08-14T08:25:49</time></trkpt><trkpt lat="55.8018700" lon="49.1036830"><time>2021-08-14T08:25:50</time></trkpt><trkpt lat="55.8018770" lon="49.1037010"><time>2021-08-14T08:25:51</time></trkpt><trkpt lat="55.8018780" lon="49.1037130"><time>2021-08-14T08:25:52</time></trkpt><trkpt lat="55.8018920" lon="49.1037610"><time>2021-08-14T08:25:53</time></trkpt><trkpt lat="55.8018960" lon="49.1037830"><time>2021-08-14T08:25:54</time></trkpt><trkpt lat="55.8019010" lon="49.1038100"><time>2021-08-14T08:25:55</time></trkpt><trkpt lat="55.8019060" lon="49.1038280"><time>2021-08-14T08:25:56</time></trkpt><trkpt lat="55.8019180" lon="49.1038560"><time>2021-08-14T08:25:57</time></trkpt><trkpt lat="55.8019220" lon="49.1038730"><time>2021-08-14T08:25:58</time></trkpt><trkpt lat="55.8019250" lon="49.1038910"><time>2021-08-14T08:25:59</time></trkpt><trkpt lat="55.8019250" lon="49.1039260"><time>2021-08-14T08:26:00</time></trkpt><trkpt lat="55.8019280" lon="49.1039550"><time>2021-08-14T08:26:01</time></trkpt><trkpt lat="55.8019390" lon="49.1039760"><time>2021-08-14T08:26:02</time></trkpt><trkpt lat="55.8019480" lon="49.1039960"><time>2021-08-14T08:26:03</time></trkpt><trkpt lat="55.8019520" lon="49.1040220"><time>2021-08-14T08:26:04</time></trkpt><trkpt lat="55.8019580" lon="49.1040470"><time>2021-08-14T08:26:05</time></trkpt><trkpt lat="55.8019630" lon="49.1040840"><time>2021-08-14T08:26:06</time></trkpt><trkpt lat="55.8019640" lon="49.1041070"><time>2021-08-14T08:26:07</time></trkpt><trkpt lat="55.8019730" lon="49.1041250"><time>2021-08-14T08:26:08</time></trkpt><trkpt lat="55.8019810" lon="49.1041500"><time>2021-08-14T08:26:09</time></trkpt><trkpt lat="55.8019900" lon="49.1041710"><time>2021-08-14T08:26:10</time></trkpt><trkpt lat="55.8019930" lon="49.1042010"><time>2021-08-14T08:26:11</time></trkpt><trkpt lat="55.8019980" lon="49.1042270"><time>2021-08-14T08:26:12</time></trkpt><trkpt lat="55.8020000" lon="49.1042550"><time>2021-08-14T08:26:13</time></trkpt><trkpt lat="55.8020040" lon="49.1042780"><time>2021-08-14T08:26:14</time></trkpt><trkpt lat="55.8020100" lon="49.1043020"><time>2021-08-14T08:26:15</time></trkpt><trkpt lat="55.8020220" lon="49.1043280"><time>2021-08-14T08:26:16</time></trkpt><trkpt lat="55.8020310" lon="49.1043540"><time>2021-08-14T08:26:17</time></trkpt><trkpt lat="55.8020360" lon="49.1043840"><time>2021-08-14T08:26:18</time></trkpt><trkpt lat="55.8020400" lon="49.1044130"><time>2021-08-14T08:26:19</time></trkpt><trkpt lat="55.8020470" lon="49.1044380"><time>2021-08-14T08:26:20</time></trkpt><trkpt lat="55.8020590" lon="49.1044640"><time>2021-08-14T08:26:21</time></trkpt><trkpt lat="55.8020740" lon="49.1044820"><time>2021-08-14T08:26:22</time></trkpt><trkpt lat="55.8020840" lon="49.1045050"><time>2021-08-14T08:26:23</time></trkpt><trkpt lat="55.8020870" lon="49.1045380"><time>2021-08-14T08:26:24</time></trkpt><trkpt lat="55.8020920" lon="49.1045650"><time>2021-08-14T08:26:25</time></trkpt><trkpt lat="55.8021000" lon="49.1045930"><time>2021-08-14T08:26:26</time></trkpt><trkpt lat="55.8021100" lon="49.1046150"><time>2021-08-14T08:26:27</time></trkpt><trkpt lat="55.8021200" lon="49.1046360"><time>2021-08-14T08:26:28</time></trkpt><trkpt lat="55.8021270" lon="49.1046600"><time>2021-08-14T08:26:29</time></trkpt><trkpt lat="55.8021300" lon="49.1046900"><time>2021-08-14T08:26:30</time></trkpt><trkpt lat="55.8021360" lon="49.1047140"><time>2021-08-14T08:26:31</time></trkpt><trkpt lat="55.8021400" lon="49.1047430"><time>2021-08-14T08:26:32</time></trkpt><trkpt lat="55.8021510" lon="49.1047670"><time>2021-08-14T08:26:33</time></trkpt><trkpt lat="55.8021560" lon="49.1047930"><time>2021-08-14T08:26:34</time></trkpt><trkpt lat="55.8021610" lon="49.1048220"><time>2021-08-14T08:26:35</time></trkpt><trkpt lat="55.8021640" lon="49.1048510"><time>2021-08-14T08:26:36</time></trkpt><trkpt lat="55.8021680" lon="49.1048800"><time>2021-08-14T08:26:37</time></trkpt><trkpt lat="55.8021780" lon="49.1049060"><time>2021-08-14T08:26:39</time></trkpt><trkpt lat="55.8021850" lon="49.1049290"><time>2021-08-14T08:26:40</time></trkpt><trkpt lat="55.8021920" lon="49.1049540"><time>2021-08-14T08:26:41</time></trkpt><trkpt lat="55.8021950" lon="49.1049830"><time>2021-08-14T08:26:42</time></trkpt><trkpt lat="55.8021990" lon="49.1050110"><time>2021-08-14T08:26:43</time></trkpt><trkpt lat="55.8022110" lon="49.1050360"><time>2021-08-14T08:26:44</time></trkpt><trkpt lat="55.8022220" lon="49.1050810"><time>2021-08-14T08:26:45</time></trkpt><trkpt lat="55.8022270" lon="49.1050960"><time>2021-08-14T08:26:46</time></trkpt><trkpt lat="55.8022290" lon="49.1051280"><time>2021-08-14T08:26:47</time></trkpt><trkpt lat="55.8022360" lon="49.1051570"><time>2021-08-14T08:26:48</time></trkpt><trkpt lat="55.8022420" lon="49.1051830"><time>2021-08-14T08:26:49</time></trkpt><trkpt lat="55.8022510" lon="49.1052070"><time>2021-08-14T08:26:50</time></trkpt><trkpt lat="55.8022640" lon="49.1052270"><time>2021-08-14T08:26:51</time></trkpt><trkpt lat="55.8022660" lon="49.1052520"><time>2021-08-14T08:26:52</time></trkpt><trkpt lat="55.8022700" lon="49.1052810"><time>2021-08-14T08:26:53</time></trkpt><trkpt lat="55.8022740" lon="49.1053100"><time>2021-08-14T08:26:54</time></trkpt><trkpt lat="55.8022820" lon="49.1053350"><time>2021-08-14T08:26:55</time></trkpt><trkpt lat="55.8022890" lon="49.1053600"><time>2021-08-14T08:26:56</time></trkpt><trkpt lat="55.8022960" lon="49.1053890"><time>2021-08-14T08:26:57</time></trkpt><trkpt lat="55.8023000" lon="49.1054120"><time>2021-08-14T08:26:58</time></trkpt><trkpt lat="55.8023040" lon="49.1054380"><time>2021-08-14T08:26:59</time></trkpt><trkpt lat="55.8023080" lon="49.1054650"><time>2021-08-14T08:27:00</time></trkpt><trkpt lat="55.8023120" lon="49.1054880"><time>2021-08-14T08:27:01</time></trkpt><trkpt lat="55.8023170" lon="49.1055100"><time>2021-08-14T08:27:02</time></trkpt><trkpt lat="55.8023240" lon="49.1055360"><time>2021-08-14T08:27:03</time></trkpt><trkpt lat="55.8023310" lon="49.1055610"><time>2021-08-14T08:27:04</time></trkpt><trkpt lat="55.8023390" lon="49.1055900"><time>2021-08-14T08:27:05</time></trkpt><trkpt lat="55.8023400" lon="49.1056200"><time>2021-08-14T08:27:06</time></trkpt><trkpt lat="55.8023420" lon="49.1056460"><time>2021-08-14T08:27:07</time></trkpt><trkpt lat="55.8023490" lon="49.1056730"><time>2021-08-14T08:27:08</time></trkpt><trkpt lat="55.8023580" lon="49.1056980"><time>2021-08-14T08:27:09</time></trkpt><trkpt lat="55.8023690" lon="49.1057240"><time>2021-08-14T08:27:10</time></trkpt><trkpt lat="55.8023710" lon="49.1057540"><time>2021-08-14T08:27:11</time></trkpt><trkpt lat="55.8023730" lon="49.1057840"><time>2021-08-14T08:27:12</time></trkpt><trkpt lat="55.8023790" lon="49.1058130"><time>2021-08-14T08:27:13</time></trkpt><trkpt lat="55.8023840" lon="49.1058400"><time>2021-08-14T08:27:14</time></trkpt><trkpt lat="55.8023900" lon="49.1058660"><time>2021-08-14T08:27:15</time></trkpt><trkpt lat="55.8023990" lon="49.1058910"><time>2021-08-14T08:27:16</time></trkpt><trkpt lat="55.8024000" lon="49.1059220"><time>2021-08-14T08:27:17</time></trkpt><trkpt lat="55.8024010" lon="49.1059510"><time>2021-08-14T08:27:18</time></trkpt><trkpt lat="55.8024070" lon="49.1059780"><time>2021-08-14T08:27:19</time></trkpt><trkpt lat="55.8024070" lon="49.1060060"><time>2021-08-14T08:27:20</time></trkpt><trkpt lat="55.8024120" lon="49.1060310"><time>2021-08-14T08:27:21</time></trkpt><trkpt lat="55.8024170" lon="49.1060580"><time>2021-08-14T08:27:22</time></trkpt><trkpt lat="55.8024270" lon="49.1060840"><time>2021-08-14T08:27:23</time></trkpt><trkpt lat="55.8024310" lon="49.1061130"><time>2021-08-14T08:27:24</time></trkpt><trkpt lat="55.8024340" lon="49.1061410"><time>2021-08-14T08:27:25</time></trkpt><trkpt lat="55.8024390" lon="49.1061660"><time>2021-08-14T08:27:26</time></trkpt><trkpt lat="55.8024410" lon="49.1061930"><time>2021-08-14T08:27:27</time></trkpt><trkpt lat="55.8024490" lon="49.1062180"><time>2021-08-14T08:27:28</time></trkpt><trkpt lat="55.8024530" lon="49.1062460"><time>2021-08-14T08:27:29</time></trkpt><trkpt lat="55.8024500" lon="49.1062770"><time>2021-08-14T08:27:30</time></trkpt><trkpt lat="55.8024550" lon="49.1063040"><time>2021-08-14T08:27:31</time></trkpt><trkpt lat="55.8024580" lon="49.1063320"><time>2021-08-14T08:27:32</time></trkpt><trkpt lat="55.8024630" lon="49.1063570"><time>2021-08-14T08:27:33</time></trkpt><trkpt lat="55.8024700" lon="49.1063830"><time>2021-08-14T08:27:34</time></trkpt><trkpt lat="55.8024720" lon="49.1064150"><time>2021-08-14T08:27:35</time></trkpt><trkpt lat="55.8024710" lon="49.1064450"><time>2021-08-14T08:27:36</time></trkpt><trkpt lat="55.8024700" lon="49.1064740"><time>2021-08-14T08:27:37</time></trkpt><trkpt lat="55.8024760" lon="49.1065000"><time>2021-08-14T08:27:38</time></trkpt><trkpt lat="55.8024810" lon="49.1065540"><time>2021-08-14T08:27:39</time></trkpt><trkpt lat="55.8024830" lon="49.1065820"><time>2021-08-14T08:27:40</time></trkpt><trkpt lat="55.8024840" lon="49.1066110"><time>2021-08-14T08:27:41</time></trkpt><trkpt lat="55.8024840" lon="49.1066390"><time>2021-08-14T08:27:42</time></trkpt><trkpt lat="55.8024880" lon="49.1066660"><time>2021-08-14T08:27:43</time></trkpt><trkpt lat="55.8024890" lon="49.1066890"><time>2021-08-14T08:27:44</time></trkpt><trkpt lat="55.8024950" lon="49.1067140"><time>2021-08-14T08:27:45</time></trkpt><trkpt lat="55.8024980" lon="49.1067390"><time>2021-08-14T08:27:46</time></trkpt><trkpt lat="55.8025040" lon="49.1067660"><time>2021-08-14T08:27:47</time></trkpt><trkpt lat="55.8025050" lon="49.1067970"><time>2021-08-14T08:27:48</time></trkpt><trkpt lat="55.8025030" lon="49.1068250"><time>2021-08-14T08:27:49</time></trkpt><trkpt lat="55.8025020" lon="49.1068540"><time>2021-08-14T08:27:50</time></trkpt><trkpt lat="55.8025030" lon="49.1068820"><time>2021-08-14T08:27:51</time></trkpt><trkpt lat="55.8025170" lon="49.1069270"><time>2021-08-14T08:27:52</time></trkpt><trkpt lat="55.8025200" lon="49.1069410"><time>2021-08-14T08:27:53</time></trkpt><trkpt lat="55.8025280" lon="49.1069660"><time>2021-08-14T08:27:54</time></trkpt><trkpt lat="55.8025260" lon="49.1069950"><time>2021-08-14T08:27:55</time></trkpt><trkpt lat="55.8025200" lon="49.1070250"><time>2021-08-14T08:27:56</time></trkpt><trkpt lat="55.8025200" lon="49.1070500"><time>2021-08-14T08:27:57</time></trkpt><trkpt lat="55.8025250" lon="49.1070760"><time>2021-08-14T08:27:58</time></trkpt><trkpt lat="55.8025280" lon="49.1071020"><time>2021-08-14T08:27:59</time></trkpt><trkpt lat="55.8025310" lon="49.1071270"><time>2021-08-14T08:28:00</time></trkpt><trkpt lat="55.8025320" lon="49.1071530"><time>2021-08-14T08:28:01</time></trkpt><trkpt lat="55.8025310" lon="49.1071810"><time>2021-08-14T08:28:02</time></trkpt><trkpt lat="55.8025270" lon="49.1072070"><time>2021-08-14T08:28:03</time></trkpt><trkpt lat="55.8025270" lon="49.1072340"><time>2021-08-14T08:28:04</time></trkpt><trkpt lat="55.8025240" lon="49.1072590"><time>2021-08-14T08:28:05</time></trkpt><trkpt lat="55.8025250" lon="49.1072840"><time>2021-08-14T08:28:06</time></trkpt><trkpt lat="55.8025280" lon="49.1073110"><time>2021-08-14T08:28:07</time></trkpt><trkpt lat="55.8025320" lon="49.1073360"><time>2021-08-14T08:28:08</time></trkpt><trkpt lat="55.8025340" lon="49.1073620"><time>2021-08-14T08:28:09</time></trkpt><trkpt lat="55.8025270" lon="49.1073910"><time>2021-08-14T08:28:10</time></trkpt><trkpt lat="55.8025280" lon="49.1074170"><time>2021-08-14T08:28:11</time></trkpt><trkpt lat="55.8025290" lon="49.1074460"><time>2021-08-14T08:28:12</time></trkpt><trkpt lat="55.8025300" lon="49.1074700"><time>2021-08-14T08:28:13</time></trkpt><trkpt lat="55.8025270" lon="49.1074970"><time>2021-08-14T08:28:14</time></trkpt><trkpt lat="55.8025270" lon="49.1075250"><time>2021-08-14T08:28:15</time></trkpt><trkpt lat="55.8025290" lon="49.1075530"><time>2021-08-14T08:28:16</time></trkpt><trkpt lat="55.8025310" lon="49.1075790"><time>2021-08-14T08:28:17</time></trkpt><trkpt lat="55.8025340" lon="49.1076090"><time>2021-08-14T08:28:18</time></trkpt><trkpt lat="55.8025340" lon="49.1076370"><time>2021-08-14T08:28:19</time></trkpt><trkpt lat="55.8025380" lon="49.1076640"><time>2021-08-14T08:28:20</time></trkpt><trkpt lat="55.8025360" lon="49.1076940"><time>2021-08-14T08:28:21</time></trkpt><trkpt lat="55.8025310" lon="49.1077210"><time>2021-08-14T08:28:22</time></trkpt><trkpt lat="55.8025280" lon="49.1077460"><time>2021-08-14T08:28:23</time></trkpt><trkpt lat="55.8025270" lon="49.1077730"><time>2021-08-14T08:28:24</time></trkpt><trkpt lat="55.8025260" lon="49.1077980"><time>2021-08-14T08:28:25</time></trkpt><trkpt lat="55.8025260" lon="49.1078210"><time>2021-08-14T08:28:26</time></trkpt><trkpt lat="55.8025250" lon="49.1078500"><time>2021-08-14T08:28:27</time></trkpt><trkpt lat="55.8025280" lon="49.1078760"><time>2021-08-14T08:28:28</time></trkpt><trkpt lat="55.8025360" lon="49.1079000"><time>2021-08-14T08:28:29</time></trkpt><trkpt lat="55.8025470" lon="49.1079210"><time>2021-08-14T08:28:30</time></trkpt><trkpt lat="55.8025650" lon="49.1079300"><time>2021-08-14T08:28:31</time></trkpt><trkpt lat="55.8025790" lon="49.1079500"><time>2021-08-14T08:28:32</time></trkpt><trkpt lat="55.8025840" lon="49.1079790"><time>2021-08-14T08:28:33</time></trkpt><trkpt lat="55.8025900" lon="49.1080050"><time>2021-08-14T08:28:34</time></trkpt><trkpt lat="55.8025980" lon="49.1080330"><time>2021-08-14T08:28:35</time></trkpt><trkpt lat="55.8026030" lon="49.1080620"><time>2021-08-14T08:28:36</time></trkpt><trkpt lat="55.8026030" lon="49.1080880"><time>2021-08-14T08:28:37</time></trkpt><trkpt lat="55.8026020" lon="49.1081170"><time>2021-08-14T08:28:38</time></trkpt><trkpt lat="55.8026000" lon="49.1081450"><time>2021-08-14T08:28:39</time></trkpt><trkpt lat="55.8025990" lon="49.1081850"><time>2021-08-14T08:28:40</time></trkpt><trkpt lat="55.8025950" lon="49.1082000"><time>2021-08-14T08:28:41</time></trkpt><trkpt lat="55.8025920" lon="49.1082150"><time>2021-08-14T08:28:42</time></trkpt><trkpt lat="55.8025950" lon="49.1082410"><time>2021-08-14T08:28:43</time></trkpt><trkpt lat="55.8025950" lon="49.1082640"><time>2021-08-14T08:28:45</time></trkpt><trkpt lat="55.8025970" lon="49.1082900"><time>2021-08-14T08:28:46</time></trkpt><trkpt lat="55.8025900" lon="49.1083190"><time>2021-08-14T08:28:47</time></trkpt><trkpt lat="55.8025840" lon="49.1083490"><time>2021-08-14T08:28:48</time></trkpt><trkpt lat="55.8025780" lon="49.1083760"><time>2021-08-14T08:28:49</time></trkpt><trkpt lat="55.8025790" lon="49.1084020"><time>2021-08-14T08:28:50</time></trkpt><trkpt lat="55.8025810" lon="49.1084290"><time>2021-08-14T08:28:51</time></trkpt><trkpt lat="55.8025800" lon="49.1084550"><time>2021-08-14T08:28:52</time></trkpt><trkpt lat="55.8025810" lon="49.1084830"><time>2021-08-14T08:28:53</time></trkpt><trkpt lat="55.8025770" lon="49.1085110"><time>2021-08-14T08:28:54</time></trkpt><trkpt lat="55.8025700" lon="49.1085370"><time>2021-08-14T08:28:55</time></trkpt><trkpt lat="55.8025660" lon="49.1085650"><time>2021-08-14T08:28:56</time></trkpt><trkpt lat="55.8025690" lon="49.1085930"><time>2021-08-14T08:28:57</time></trkpt><trkpt lat="55.8025720" lon="49.1086200"><time>2021-08-14T08:28:58</time></trkpt><trkpt lat="55.8025720" lon="49.1086480"><time>2021-08-14T08:28:59</time></trkpt><trkpt lat="55.8025700" lon="49.1086760"><time>2021-08-14T08:29:00</time></trkpt><trkpt lat="55.8025640" lon="49.1087040"><time>2021-08-14T08:29:01</time></trkpt><trkpt lat="55.8025570" lon="49.1087300"><time>2021-08-14T08:29:02</time></trkpt><trkpt lat="55.8025560" lon="49.1087560"><time>2021-08-14T08:29:03</time></trkpt><trkpt lat="55.8025560" lon="49.1087850"><time>2021-08-14T08:29:04</time></trkpt><trkpt lat="55.8025600" lon="49.1088130"><time>2021-08-14T08:29:05</time></trkpt><trkpt lat="55.8025560" lon="49.1088400"><time>2021-08-14T08:29:06</time></trkpt><trkpt lat="55.8025500" lon="49.1088660"><time>2021-08-14T08:29:07</time></trkpt><trkpt lat="55.8025430" lon="49.1088960"><time>2021-08-14T08:29:08</time></trkpt><trkpt lat="55.8025430" lon="49.1089250"><time>2021-08-14T08:29:09</time></trkpt><trkpt lat="55.8025440" lon="49.1089520"><time>2021-08-14T08:29:10</time></trkpt><trkpt lat="55.8025440" lon="49.1089790"><time>2021-08-14T08:29:11</time></trkpt><trkpt lat="55.8025460" lon="49.1090060"><time>2021-08-14T08:29:12</time></trkpt><trkpt lat="55.8025450" lon="49.1090360"><time>2021-08-14T08:29:13</time></trkpt><trkpt lat="55.8025420" lon="49.1090630"><time>2021-08-14T08:29:14</time></trkpt><trkpt lat="55.8025390" lon="49.1090890"><time>2021-08-14T08:29:15</time></trkpt><trkpt lat="55.8025350" lon="49.1091150"><time>2021-08-14T08:29:16</time></trkpt><trkpt lat="55.8025370" lon="49.1091430"><time>2021-08-14T08:29:17</time></trkpt><trkpt lat="55.8025400" lon="49.1091690"><time>2021-08-14T08:29:18</time></trkpt><trkpt lat="55.8025380" lon="49.1092010"><time>2021-08-14T08:29:19</time></trkpt><trkpt lat="55.8025400" lon="49.1092320"><time>2021-08-14T08:29:20</time></trkpt><trkpt lat="55.8025410" lon="49.1092620"><time>2021-08-14T08:29:21</time></trkpt><trkpt lat="55.8025380" lon="49.1092900"><time>2021-08-14T08:29:22</time></trkpt><trkpt lat="55.8025350" lon="49.1093450"><time>2021-08-14T08:29:23</time></trkpt><trkpt lat="55.8025390" lon="49.1093730"><time>2021-08-14T08:29:24</time></trkpt><trkpt lat="55.8025400" lon="49.1094010"><time>2021-08-14T08:29:25</time></trkpt><trkpt lat="55.8025370" lon="49.1094290"><time>2021-08-14T08:29:26</time></trkpt><trkpt lat="55.8025320" lon="49.1094520"><time>2021-08-14T08:29:27</time></trkpt><trkpt lat="55.8025300" lon="49.1094830"><time>2021-08-14T08:29:28</time></trkpt><trkpt lat="55.8025290" lon="49.1095080"><time>2021-08-14T08:29:29</time></trkpt><trkpt lat="55.8025310" lon="49.1095380"><time>2021-08-14T08:29:30</time></trkpt><trkpt lat="55.8025330" lon="49.1095670"><time>2021-08-14T08:29:31</time></trkpt><trkpt lat="55.8025320" lon="49.1095950"><time>2021-08-14T08:29:32</time></trkpt><trkpt lat="55.8025300" lon="49.1096210"><time>2021-08-14T08:29:33</time></trkpt><trkpt lat="55.8025330" lon="49.1096480"><time>2021-08-14T08:29:34</time></trkpt><trkpt lat="55.8025340" lon="49.1096770"><time>2021-08-14T08:29:35</time></trkpt><trkpt lat="55.8025390" lon="49.1097080"><time>2021-08-14T08:29:36</time></trkpt><trkpt lat="55.8025370" lon="49.1097340"><time>2021-08-14T08:29:37</time></trkpt><trkpt lat="55.8025350" lon="49.1097620"><time>2021-08-14T08:29:38</time></trkpt><trkpt lat="55.8025320" lon="49.1097920"><time>2021-08-14T08:29:39</time></trkpt><trkpt lat="55.8025300" lon="49.1098200"><time>2021-08-14T08:29:40</time></trkpt><trkpt lat="55.8025250" lon="49.1098490"><time>2021-08-14T08:29:41</time></trkpt><trkpt lat="55.8025220" lon="49.1098800"><time>2021-08-14T08:29:42</time></trkpt><trkpt lat="55.8025170" lon="49.1099050"><time>2021-08-14T08:29:43</time></trkpt><trkpt lat="55.8025150" lon="49.1099340"><time>2021-08-14T08:29:44</time></trkpt><trkpt lat="55.8025140" lon="49.1099640"><time>2021-08-14T08:29:45</time></trkpt><trkpt lat="55.8025100" lon="49.1099940"><time>2021-08-14T08:29:46</time></trkpt><trkpt lat="55.8025070" lon="49.1100180"><time>2021-08-14T08:29:47</time></trkpt><trkpt lat="55.8025040" lon="49.1100460"><time>2021-08-14T08:29:48</time></trkpt><trkpt lat="55.8024950" lon="49.1100710"><time>2021-08-14T08:29:49</time></trkpt><trkpt lat="55.8024930" lon="49.1101040"><time>2021-08-14T08:29:50</time></trkpt><trkpt lat="55.8024900" lon="49.1101370"><time>2021-08-14T08:29:51</time></trkpt><trkpt lat="55.8024890" lon="49.1101670"><time>2021-08-14T08:29:52</time></trkpt><trkpt lat="55.8024880" lon="49.1101970"><time>2021-08-14T08:29:53</time></trkpt><trkpt lat="55.8024850" lon="49.1102270"><time>2021-08-14T08:29:54</time></trkpt><trkpt lat="55.8024800" lon="49.1102570"><time>2021-08-14T08:29:55</time></trkpt><trkpt lat="55.8024780" lon="49.1102860"><time>2021-08-14T08:29:56</time></trkpt><trkpt lat="55.8024770" lon="49.1103160"><time>2021-08-14T08:29:57</time></trkpt><trkpt lat="55.8024780" lon="49.1103470"><time>2021-08-14T08:29:58</time></trkpt><trkpt lat="55.8024800" lon="49.1103770"><time>2021-08-14T08:29:59</time></trkpt><trkpt lat="55.8024780" lon="49.1104080"><time>2021-08-14T08:30:00</time></trkpt><trkpt lat="55.8024780" lon="49.1104340"><time>2021-08-14T08:30:01</time></trkpt><trkpt lat="55.8024780" lon="49.1104680"><time>2021-08-14T08:30:02</time></trkpt><trkpt lat="55.8024800" lon="49.1104960"><time>2021-08-14T08:30:03</time></trkpt><trkpt lat="55.8024760" lon="49.1105240"><time>2021-08-14T08:30:04</time></trkpt><trkpt lat="55.8024750" lon="49.1105530"><time>2021-08-14T08:30:05</time></trkpt><trkpt lat="55.8024730" lon="49.1105800"><time>2021-08-14T08:30:06</time></trkpt><trkpt lat="55.8024710" lon="49.1106080"><time>2021-08-14T08:30:07</time></trkpt><trkpt lat="55.8024700" lon="49.1106370"><time>2021-08-14T08:30:08</time></trkpt><trkpt lat="55.8024700" lon="49.1106670"><time>2021-08-14T08:30:09</time></trkpt><trkpt lat="55.8024670" lon="49.1106980"><time>2021-08-14T08:30:10</time></trkpt><trkpt lat="55.8024640" lon="49.1107240"><time>2021-08-14T08:30:11</time></trkpt><trkpt lat="55.8024630" lon="49.1107510"><time>2021-08-14T08:30:12</time></trkpt><trkpt lat="55.8024610" lon="49.1107810"><time>2021-08-14T08:30:13</time></trkpt><trkpt lat="55.8024610" lon="49.1108090"><time>2021-08-14T08:30:14</time></trkpt><trkpt lat="55.8024610" lon="49.1108410"><time>2021-08-14T08:30:15</time></trkpt><trkpt lat="55.8024610" lon="49.1108670"><time>2021-08-14T08:30:16</time></trkpt><trkpt lat="55.8024580" lon="49.1108950"><time>2021-08-14T08:30:17</time></trkpt><trkpt lat="55.8024580" lon="49.1109230"><time>2021-08-14T08:30:18</time></trkpt><trkpt lat="55.8024580" lon="49.1109530"><time>2021-08-14T08:30:19</time></trkpt><trkpt lat="55.8024580" lon="49.1109820"><time>2021-08-14T08:30:20</time></trkpt><trkpt lat="55.8024540" lon="49.1110110"><time>2021-08-14T08:30:21</time></trkpt><trkpt lat="55.8024540" lon="49.1110400"><time>2021-08-14T08:30:22</time></trkpt><trkpt lat="55.8024550" lon="49.1110700"><time>2021-08-14T08:30:23</time></trkpt><trkpt lat="55.8024550" lon="49.1110990"><time>2021-08-14T08:30:24</time></trkpt><trkpt lat="55.8024520" lon="49.1111270"><time>2021-08-14T08:30:25</time></trkpt><trkpt lat="55.8024520" lon="49.1111550"><time>2021-08-14T08:30:26</time></trkpt><trkpt lat="55.8024510" lon="49.1111810"><time>2021-08-14T08:30:27</time></trkpt><trkpt lat="55.8024540" lon="49.1112090"><time>2021-08-14T08:30:28</time></trkpt><trkpt lat="55.8024510" lon="49.1112400"><time>2021-08-14T08:30:29</time></trkpt><trkpt lat="55.8024520" lon="49.1112660"><time>2021-08-14T08:30:30</time></trkpt><trkpt lat="55.8024500" lon="49.1113040"><time>2021-08-14T08:30:31</time></trkpt><trkpt lat="55.8024500" lon="49.1113170"><time>2021-08-14T08:30:32</time></trkpt><trkpt lat="55.8024490" lon="49.1113310"><time>2021-08-14T08:30:33</time></trkpt><trkpt lat="55.8024490" lon="49.1113470"><time>2021-08-14T08:30:34</time></trkpt><trkpt lat="55.8024520" lon="49.1113670"><time>2021-08-14T08:30:35</time></trkpt><trkpt lat="55.8024590" lon="49.1113830"><time>2021-08-14T08:30:36</time></trkpt><trkpt lat="55.8024620" lon="49.1114330"><time>2021-08-14T08:30:37</time></trkpt><trkpt lat="55.8024620" lon="49.1114480"><time>2021-08-14T08:30:38</time></trkpt><trkpt lat="55.8024630" lon="49.1114720"><time>2021-08-14T08:30:39</time></trkpt><trkpt lat="55.8024660" lon="49.1114840"><time>2021-08-14T08:30:40</time></trkpt><trkpt lat="55.8024680" lon="49.1115040"><time>2021-08-14T08:30:41</time></trkpt><trkpt lat="55.8024590" lon="49.1115530"><time>2021-08-14T08:30:42</time></trkpt><trkpt lat="55.8024550" lon="49.1115670"><time>2021-08-14T08:30:43</time></trkpt><trkpt lat="55.8024550" lon="49.1115910"><time>2021-08-14T08:30:44</time></trkpt><trkpt lat="55.8024490" lon="49.1116260"><time>2021-08-14T08:30:45</time></trkpt><trkpt lat="55.8024480" lon="49.1116590"><time>2021-08-14T08:30:46</time></trkpt><trkpt lat="55.8024530" lon="49.1116890"><time>2021-08-14T08:30:47</time></trkpt><trkpt lat="55.8024600" lon="49.1117140"><time>2021-08-14T08:30:48</time></trkpt><trkpt lat="55.8024590" lon="49.1117430"><time>2021-08-14T08:30:49</time></trkpt><trkpt lat="55.8024570" lon="49.1117810"><time>2021-08-14T08:30:51</time></trkpt><trkpt lat="55.8024560" lon="49.1117950"><time>2021-08-14T08:30:52</time></trkpt><trkpt lat="55.8024560" lon="49.1118080"><time>2021-08-14T08:30:53</time></trkpt><trkpt lat="55.8024600" lon="49.1118350"><time>2021-08-14T08:30:54</time></trkpt><trkpt lat="55.8024660" lon="49.1118610"><time>2021-08-14T08:30:55</time></trkpt><trkpt lat="55.8024720" lon="49.1118930"><time>2021-08-14T08:30:56</time></trkpt><trkpt lat="55.8024740" lon="49.1119220"><time>2021-08-14T08:30:57</time></trkpt><trkpt lat="55.8024760" lon="49.1119490"><time>2021-08-14T08:30:58</time></trkpt><trkpt lat="55.8024720" lon="49.1119760"><time>2021-08-14T08:30:59</time></trkpt><trkpt lat="55.8024720" lon="49.1120010"><time>2021-08-14T08:31:00</time></trkpt><trkpt lat="55.8024770" lon="49.1120240"><time>2021-08-14T08:31:01</time></trkpt><trkpt lat="55.8024820" lon="49.1120460"><time>2021-08-14T08:31:02</time></trkpt><trkpt lat="55.8024900" lon="49.1120770"><time>2021-08-14T08:31:03</time></trkpt><trkpt lat="55.8024920" lon="49.1120980"><time>2021-08-14T08:31:04</time></trkpt><trkpt lat="55.8024960" lon="49.1121290"><time>2021-08-14T08:31:05</time></trkpt><trkpt lat="55.8025020" lon="49.1121530"><time>2021-08-14T08:31:06</time></trkpt><trkpt lat="55.8025060" lon="49.1121790"><time>2021-08-14T08:31:07</time></trkpt><trkpt lat="55.8025140" lon="49.1122050"><time>2021-08-14T08:31:08</time></trkpt><trkpt lat="55.8025190" lon="49.1122310"><time>2021-08-14T08:31:09</time></trkpt><trkpt lat="55.8025240" lon="49.1122550"><time>2021-08-14T08:31:10</time></trkpt><trkpt lat="55.8025260" lon="49.1122860"><time>2021-08-14T08:31:11</time></trkpt><trkpt lat="55.8025270" lon="49.1123130"><time>2021-08-14T08:31:12</time></trkpt><trkpt lat="55.8025270" lon="49.1123400"><time>2021-08-14T08:31:13</time></trkpt><trkpt lat="55.8025330" lon="49.1123640"><time>2021-08-14T08:31:14</time></trkpt><trkpt lat="55.8025430" lon="49.1123830"><time>2021-08-14T08:31:15</time></trkpt><trkpt lat="55.8025490" lon="49.1124150"><time>2021-08-14T08:31:16</time></trkpt><trkpt lat="55.8025510" lon="49.1124380"><time>2021-08-14T08:31:17</time></trkpt><trkpt lat="55.8025550" lon="49.1124800"><time>2021-08-14T08:31:18</time></trkpt><trkpt lat="55.8025570" lon="49.1124960"><time>2021-08-14T08:31:19</time></trkpt><trkpt lat="55.8025590" lon="49.1125110"><time>2021-08-14T08:31:20</time></trkpt><trkpt lat="55.8025700" lon="49.1125300"><time>2021-08-14T08:31:21</time></trkpt><trkpt lat="55.8025730" lon="49.1125540"><time>2021-08-14T08:31:22</time></trkpt><trkpt lat="55.8025860" lon="49.1125780"><time>2021-08-14T08:31:23</time></trkpt><trkpt lat="55.8025890" lon="49.1126040"><time>2021-08-14T08:31:24</time></trkpt><trkpt lat="55.8025920" lon="49.1126430"><time>2021-08-14T08:31:25</time></trkpt><trkpt lat="55.8025950" lon="49.1126600"><time>2021-08-14T08:31:26</time></trkpt><trkpt lat="55.8025970" lon="49.1126770"><time>2021-08-14T08:31:27</time></trkpt><trkpt lat="55.8026050" lon="49.1127130"><time>2021-08-14T08:31:28</time></trkpt><trkpt lat="55.8026070" lon="49.1127280"><time>2021-08-14T08:31:29</time></trkpt><trkpt lat="55.8026100" lon="49.1127430"><time>2021-08-14T08:31:30</time></trkpt><trkpt lat="55.8026180" lon="49.1127700"><time>2021-08-14T08:31:31</time></trkpt><trkpt lat="55.8026270" lon="49.1127850"><time>2021-08-14T08:31:32</time></trkpt><trkpt lat="55.8026350" lon="49.1128330"><time>2021-08-14T08:31:33</time></trkpt><trkpt lat="55.8026400" lon="49.1128610"><time>2021-08-14T08:31:34</time></trkpt><trkpt lat="55.8026440" lon="49.1128880"><time>2021-08-14T08:31:35</time></trkpt><trkpt lat="55.8026510" lon="49.1129130"><time>2021-08-14T08:31:36</time></trkpt><trkpt lat="55.8026610" lon="49.1129330"><time>2021-08-14T08:31:37</time></trkpt><trkpt lat="55.8026670" lon="49.1129540"><time>2021-08-14T08:31:38</time></trkpt><trkpt lat="55.8026750" lon="49.1129800"><time>2021-08-14T08:31:39</time></trkpt><trkpt lat="55.8026800" lon="49.1130110"><time>2021-08-14T08:31:40</time></trkpt><trkpt lat="55.8026830" lon="49.1130350"><time>2021-08-14T08:31:41</time></trkpt><trkpt lat="55.8026850" lon="49.1130580"><time>2021-08-14T08:31:42</time></trkpt><trkpt lat="55.8026870" lon="49.1130790"><time>2021-08-14T08:31:43</time></trkpt><trkpt lat="55.8026980" lon="49.1131080"><time>2021-08-14T08:31:44</time></trkpt><trkpt lat="55.8027060" lon="49.1131270"><time>2021-08-14T08:31:45</time></trkpt><trkpt lat="55.8027120" lon="49.1131530"><time>2021-08-14T08:31:46</time></trkpt><trkpt lat="55.8027180" lon="49.1131820"><time>2021-08-14T08:31:47</time></trkpt><trkpt lat="55.8027270" lon="49.1132080"><time>2021-08-14T08:31:48</time></trkpt><trkpt lat="55.8027340" lon="49.1132340"><time>2021-08-14T08:31:49</time></trkpt><trkpt lat="55.8027360" lon="49.1132580"><time>2021-08-14T08:31:50</time></trkpt><trkpt lat="55.8027410" lon="49.1132870"><time>2021-08-14T08:31:51</time></trkpt><trkpt lat="55.8027460" lon="49.1133040"><time>2021-08-14T08:31:52</time></trkpt><trkpt lat="55.8027520" lon="49.1133380"><time>2021-08-14T08:31:53</time></trkpt><trkpt lat="55.8027660" lon="49.1133560"><time>2021-08-14T08:31:54</time></trkpt><trkpt lat="55.8027700" lon="49.1133790"><time>2021-08-14T08:31:55</time></trkpt><trkpt lat="55.8027790" lon="49.1133960"><time>2021-08-14T08:31:56</time></trkpt><trkpt lat="55.8027800" lon="49.1134070"><time>2021-08-14T08:31:57</time></trkpt><trkpt lat="55.8027840" lon="49.1134290"><time>2021-08-14T08:31:58</time></trkpt><trkpt lat="55.8027920" lon="49.1134630"><time>2021-08-14T08:31:59</time></trkpt><trkpt lat="55.8028020" lon="49.1135000"><time>2021-08-14T08:32:00</time></trkpt><trkpt lat="55.8028060" lon="49.1135190"><time>2021-08-14T08:32:01</time></trkpt><trkpt lat="55.8028110" lon="49.1135370"><time>2021-08-14T08:32:02</time></trkpt><trkpt lat="55.8028100" lon="49.1135660"><time>2021-08-14T08:32:03</time></trkpt><trkpt lat="55.8028120" lon="49.1135900"><time>2021-08-14T08:32:04</time></trkpt><trkpt lat="55.8028180" lon="49.1136120"><time>2021-08-14T08:32:05</time></trkpt><trkpt lat="55.8028250" lon="49.1136380"><time>2021-08-14T08:32:06</time></trkpt><trkpt lat="55.8028370" lon="49.1136610"><time>2021-08-14T08:32:07</time></trkpt><trkpt lat="55.8028450" lon="49.1136890"><time>2021-08-14T08:32:08</time></trkpt><trkpt lat="55.8028520" lon="49.1137120"><time>2021-08-14T08:32:09</time></trkpt><trkpt lat="55.8028590" lon="49.1137400"><time>2021-08-14T08:32:10</time></trkpt><trkpt lat="55.8028630" lon="49.1137670"><time>2021-08-14T08:32:11</time></trkpt><trkpt lat="55.8028670" lon="49.1137930"><time>2021-08-14T08:32:12</time></trkpt><trkpt lat="55.8028700" lon="49.1138320"><time>2021-08-14T08:32:13</time></trkpt><trkpt lat="55.8028730" lon="49.1138450"><time>2021-08-14T08:32:14</time></trkpt><trkpt lat="55.8028750" lon="49.1138590"><time>2021-08-14T08:32:15</time></trkpt><trkpt lat="55.8028850" lon="49.1138930"><time>2021-08-14T08:32:16</time></trkpt><trkpt lat="55.8028880" lon="49.1139050"><time>2021-08-14T08:32:17</time></trkpt><trkpt lat="55.8028910" lon="49.1139160"><time>2021-08-14T08:32:18</time></trkpt><trkpt lat="55.8028940" lon="49.1139280"><time>2021-08-14T08:32:19</time></trkpt><trkpt lat="55.8029050" lon="49.1139580"><time>2021-08-14T08:32:20</time></trkpt><trkpt lat="55.8029110" lon="49.1139700"><time>2021-08-14T08:32:21</time></trkpt><trkpt lat="55.8029180" lon="49.1139830"><time>2021-08-14T08:32:22</time></trkpt><trkpt lat="55.8029240" lon="49.1140050"><time>2021-08-14T08:32:23</time></trkpt><trkpt lat="55.8029360" lon="49.1140310"><time>2021-08-14T08:32:24</time></trkpt><trkpt lat="55.8029410" lon="49.1140560"><time>2021-08-14T08:32:25</time></trkpt><trkpt lat="55.8029490" lon="49.1140740"><time>2021-08-14T08:32:26</time></trkpt><trkpt lat="55.8029550" lon="49.1141040"><time>2021-08-14T08:32:27</time></trkpt><trkpt lat="55.8029590" lon="49.1141250"><time>2021-08-14T08:32:28</time></trkpt><trkpt lat="55.8029640" lon="49.1141480"><time>2021-08-14T08:32:29</time></trkpt><trkpt lat="55.8029680" lon="49.1141820"><time>2021-08-14T08:32:30</time></trkpt><trkpt lat="55.8029810" lon="49.1142330"><time>2021-08-14T08:32:31</time></trkpt><trkpt lat="55.8029830" lon="49.1142460"><time>2021-08-14T08:32:32</time></trkpt><trkpt lat="55.8029890" lon="49.1142960"><time>2021-08-14T08:32:33</time></trkpt><trkpt lat="55.8029900" lon="49.1143120"><time>2021-08-14T08:32:34</time></trkpt><trkpt lat="55.8030070" lon="49.1143540"><time>2021-08-14T08:32:35</time></trkpt><trkpt lat="55.8030120" lon="49.1143670"><time>2021-08-14T08:32:36</time></trkpt><trkpt lat="55.8030200" lon="49.1143920"><time>2021-08-14T08:32:37</time></trkpt><trkpt lat="55.8030250" lon="49.1144210"><time>2021-08-14T08:32:38</time></trkpt><trkpt lat="55.8030300" lon="49.1144500"><time>2021-08-14T08:32:39</time></trkpt><trkpt lat="55.8030360" lon="49.1144760"><time>2021-08-14T08:32:40</time></trkpt><trkpt lat="55.8030370" lon="49.1144980"><time>2021-08-14T08:32:41</time></trkpt><trkpt lat="55.8030450" lon="49.1145260"><time>2021-08-14T08:32:42</time></trkpt><trkpt lat="55.8030680" lon="49.1145590"><time>2021-08-14T08:32:43</time></trkpt><trkpt lat="55.8030740" lon="49.1145720"><time>2021-08-14T08:32:44</time></trkpt><trkpt lat="55.8030820" lon="49.1145960"><time>2021-08-14T08:32:45</time></trkpt><trkpt lat="55.8030930" lon="49.1146130"><time>2021-08-14T08:32:46</time></trkpt><trkpt lat="55.8031040" lon="49.1146320"><time>2021-08-14T08:32:47</time></trkpt><trkpt lat="55.8031110" lon="49.1146610"><time>2021-08-14T08:32:48</time></trkpt><trkpt lat="55.8031180" lon="49.1146720"><time>2021-08-14T08:32:49</time></trkpt><trkpt lat="55.8031300" lon="49.1147000"><time>2021-08-14T08:32:50</time></trkpt><trkpt lat="55.8031400" lon="49.1147270"><time>2021-08-14T08:32:51</time></trkpt><trkpt lat="55.8031440" lon="49.1147430"><time>2021-08-14T08:32:52</time></trkpt><trkpt lat="55.8031510" lon="49.1147680"><time>2021-08-14T08:32:53</time></trkpt><trkpt lat="55.8031580" lon="49.1147900"><time>2021-08-14T08:32:54</time></trkpt><trkpt lat="55.8031720" lon="49.1148070"><time>2021-08-14T08:32:55</time></trkpt><trkpt lat="55.8031780" lon="49.1148300"><time>2021-08-14T08:32:57</time></trkpt><trkpt lat="55.8031830" lon="49.1148550"><time>2021-08-14T08:32:58</time></trkpt><trkpt lat="55.8031930" lon="49.1148830"><time>2021-08-14T08:32:59</time></trkpt><trkpt lat="55.8032010" lon="49.1149150"><time>2021-08-14T08:33:00</time></trkpt><trkpt lat="55.8032070" lon="49.1149250"><time>2021-08-14T08:33:01</time></trkpt><trkpt lat="55.8032150" lon="49.1149360"><time>2021-08-14T08:33:02</time></trkpt><trkpt lat="55.8032250" lon="49.1149740"><time>2021-08-14T08:33:03</time></trkpt><trkpt lat="55.8032300" lon="49.1149970"><time>2021-08-14T08:33:04</time></trkpt><trkpt lat="55.8032290" lon="49.1150270"><time>2021-08-14T08:33:05</time></trkpt><trkpt lat="55.8032390" lon="49.1150500"><time>2021-08-14T08:33:06</time></trkpt><trkpt lat="55.8032460" lon="49.1150750"><time>2021-08-14T08:33:07</time></trkpt><trkpt lat="55.8032500" lon="49.1150990"><time>2021-08-14T08:33:08</time></trkpt><trkpt lat="55.8032600" lon="49.1151220"><time>2021-08-14T08:33:09</time></trkpt><trkpt lat="55.8032670" lon="49.1151420"><time>2021-08-14T08:33:10</time></trkpt><trkpt lat="55.8032700" lon="49.1151670"><time>2021-08-14T08:33:11</time></trkpt><trkpt lat="55.8032760" lon="49.1151850"><time>2021-08-14T08:33:12</time></trkpt><trkpt lat="55.8032800" lon="49.1152060"><time>2021-08-14T08:33:13</time></trkpt><trkpt lat="55.8032810" lon="49.1152270"><time>2021-08-14T08:33:14</time></trkpt><trkpt lat="55.8032900" lon="49.1152460"><time>2021-08-14T08:33:15</time></trkpt><trkpt lat="55.8032970" lon="49.1152750"><time>2021-08-14T08:33:16</time></trkpt><trkpt lat="55.8033030" lon="49.1153060"><time>2021-08-14T08:33:17</time></trkpt><trkpt lat="55.8033080" lon="49.1153360"><time>2021-08-14T08:33:18</time></trkpt><trkpt lat="55.8033170" lon="49.1153650"><time>2021-08-14T08:33:19</time></trkpt><trkpt lat="55.8033240" lon="49.1153940"><time>2021-08-14T08:33:20</time></trkpt><trkpt lat="55.8033290" lon="49.1154210"><time>2021-08-14T08:33:21</time></trkpt><trkpt lat="55.8033330" lon="49.1154500"><time>2021-08-14T08:33:22</time></trkpt><trkpt lat="55.8033370" lon="49.1154740"><time>2021-08-14T08:33:23</time></trkpt><trkpt lat="55.8033380" lon="49.1155000"><time>2021-08-14T08:33:24</time></trkpt><trkpt lat="55.8033410" lon="49.1155220"><time>2021-08-14T08:33:25</time></trkpt><trkpt lat="55.8033440" lon="49.1155390"><time>2021-08-14T08:33:26</time></trkpt><trkpt lat="55.8033480" lon="49.1155550"><time>2021-08-14T08:33:27</time></trkpt><trkpt lat="55.8033530" lon="49.1155720"><time>2021-08-14T08:33:28</time></trkpt><trkpt lat="55.8033570" lon="49.1155840"><time>2021-08-14T08:33:29</time></trkpt><trkpt lat="55.8033680" lon="49.1156060"><time>2021-08-14T08:33:30</time></trkpt><trkpt lat="55.8033810" lon="49.1156320"><time>2021-08-14T08:33:31</time></trkpt><trkpt lat="55.8033890" lon="49.1156470"><time>2021-08-14T08:33:32</time></trkpt><trkpt lat="55.8033930" lon="49.1156780"><time>2021-08-14T08:33:33</time></trkpt><trkpt lat="55.8033970" lon="49.1156950"><time>2021-08-14T08:33:34</time></trkpt><trkpt lat="55.8034050" lon="49.1157160"><time>2021-08-14T08:33:35</time></trkpt><trkpt lat="55.8034140" lon="49.1157390"><time>2021-08-14T08:33:36</time></trkpt><trkpt lat="55.8034260" lon="49.1157710"><time>2021-08-14T08:33:37</time></trkpt><trkpt lat="55.8034290" lon="49.1157970"><time>2021-08-14T08:33:38</time></trkpt><trkpt lat="55.8034480" lon="49.1158360"><time>2021-08-14T08:33:39</time></trkpt><trkpt lat="55.8034530" lon="49.1158470"><time>2021-08-14T08:33:40</time></trkpt><trkpt lat="55.8034680" lon="49.1158900"><time>2021-08-14T08:33:41</time></trkpt><trkpt lat="55.8034720" lon="49.1159050"><time>2021-08-14T08:33:42</time></trkpt><trkpt lat="55.8034790" lon="49.1159360"><time>2021-08-14T08:33:43</time></trkpt><trkpt lat="55.8034900" lon="49.1159570"><time>2021-08-14T08:33:44</time></trkpt><trkpt lat="55.8034970" lon="49.1159850"><time>2021-08-14T08:33:45</time></trkpt><trkpt lat="55.8035010" lon="49.1160130"><time>2021-08-14T08:33:46</time></trkpt><trkpt lat="55.8035120" lon="49.1160370"><time>2021-08-14T08:33:47</time></trkpt><trkpt lat="55.8035150" lon="49.1160650"><time>2021-08-14T08:33:48</time></trkpt><trkpt lat="55.8035240" lon="49.1160880"><time>2021-08-14T08:33:49</time></trkpt><trkpt lat="55.8035320" lon="49.1161100"><time>2021-08-14T08:33:50</time></trkpt><trkpt lat="55.8035390" lon="49.1161360"><time>2021-08-14T08:33:51</time></trkpt><trkpt lat="55.8035440" lon="49.1161650"><time>2021-08-14T08:33:52</time></trkpt><trkpt lat="55.8035510" lon="49.1161860"><time>2021-08-14T08:33:53</time></trkpt><trkpt lat="55.8035560" lon="49.1162090"><time>2021-08-14T08:33:54</time></trkpt><trkpt lat="55.8035680" lon="49.1162610"><time>2021-08-14T08:33:55</time></trkpt><trkpt lat="55.8035710" lon="49.1162740"><time>2021-08-14T08:33:56</time></trkpt><trkpt lat="55.8035770" lon="49.1163040"><time>2021-08-14T08:33:57</time></trkpt><trkpt lat="55.8035830" lon="49.1163300"><time>2021-08-14T08:33:58</time></trkpt><trkpt lat="55.8035910" lon="49.1163540"><time>2021-08-14T08:33:59</time></trkpt><trkpt lat="55.8035980" lon="49.1163810"><time>2021-08-14T08:34:00</time></trkpt><trkpt lat="55.8036060" lon="49.1164050"><time>2021-08-14T08:34:01</time></trkpt><trkpt lat="55.8036130" lon="49.1164260"><time>2021-08-14T08:34:02</time></trkpt><trkpt lat="55.8036180" lon="49.1164520"><time>2021-08-14T08:34:03</time></trkpt><trkpt lat="55.8036210" lon="49.1164770"><time>2021-08-14T08:34:04</time></trkpt><trkpt lat="55.8036240" lon="49.1164950"><time>2021-08-14T08:34:05</time></trkpt><trkpt lat="55.8036320" lon="49.1165030"><time>2021-08-14T08:34:06</time></trkpt><trkpt lat="55.8036430" lon="49.1165240"><time>2021-08-14T08:34:07</time></trkpt><trkpt lat="55.8036530" lon="49.1165380"><time>2021-08-14T08:34:08</time></trkpt><trkpt lat="55.8036640" lon="49.1165420"><time>2021-08-14T08:34:09</time></trkpt><trkpt lat="55.8036690" lon="49.1165410"><time>2021-08-14T08:34:10</time></trkpt><trkpt lat="55.8036770" lon="49.1165480"><time>2021-08-14T08:34:11</time></trkpt><trkpt lat="55.8036760" lon="49.1165540"><time>2021-08-14T08:34:12</time></trkpt><trkpt lat="55.8036750" lon="49.1165600"><time>2021-08-14T08:34:13</time></trkpt><trkpt lat="55.8036740" lon="49.1165660"><time>2021-08-14T08:34:14</time></trkpt><trkpt lat="55.8036730" lon="49.1165720"><time>2021-08-14T08:34:15</time></trkpt><trkpt lat="55.8036710" lon="49.1165780"><time>2021-08-14T08:34:16</time></trkpt><trkpt lat="55.8036700" lon="49.1165840"><time>2021-08-14T08:34:17</time></trkpt><trkpt lat="55.8036690" lon="49.1165900"><time>2021-08-14T08:34:18</time></trkpt><trkpt lat="55.8036680" lon="49.1165960"><time>2021-08-14T08:34:19</time></trkpt><trkpt lat="55.8036670" lon="49.1166020"><time>2021-08-14T08:34:20</time></trkpt><trkpt lat="55.8036660" lon="49.1166080"><time>2021-08-14T08:34:21</time></trkpt><trkpt lat="55.8036690" lon="49.1166210"><time>2021-08-14T08:34:22</time></trkpt><trkpt lat="55.8036660" lon="49.1166250"><time>2021-08-14T08:34:23</time></trkpt><trkpt lat="55.8036630" lon="49.1166320"><time>2021-08-14T08:34:24</time></trkpt><trkpt lat="55.8036600" lon="49.1166350"><time>2021-08-14T08:34:25</time></trkpt><trkpt lat="55.8036570" lon="49.1166330"><time>2021-08-14T08:34:26</time></trkpt><trkpt lat="55.8036570" lon="49.1166390"><time>2021-08-14T08:34:27</time></trkpt><trkpt lat="55.8036590" lon="49.1166630"><time>2021-08-14T08:34:28</time></trkpt><trkpt lat="55.8036660" lon="49.1166760"><time>2021-08-14T08:34:29</time></trkpt><trkpt lat="55.8036690" lon="49.1166830"><time>2021-08-14T08:34:30</time></trkpt><trkpt lat="55.8036700" lon="49.1166910"><time>2021-08-14T08:34:31</time></trkpt><trkpt lat="55.8036670" lon="49.1167080"><time>2021-08-14T08:34:32</time></trkpt><trkpt lat="55.8036720" lon="49.1167160"><time>2021-08-14T08:34:33</time></trkpt><trkpt lat="55.8036760" lon="49.1167250"><time>2021-08-14T08:34:34</time></trkpt><trkpt lat="55.8036790" lon="49.1167430"><time>2021-08-14T08:34:35</time></trkpt><trkpt lat="55.8036840" lon="49.1167630"><time>2021-08-14T08:34:36</time></trkpt><trkpt lat="55.8036880" lon="49.1167790"><time>2021-08-14T08:34:37</time></trkpt><trkpt lat="55.8036890" lon="49.1167870"><time>2021-08-14T08:34:38</time></trkpt><trkpt lat="55.8036920" lon="49.1167960"><time>2021-08-14T08:34:39</time></trkpt><trkpt lat="55.8036950" lon="49.1168040"><time>2021-08-14T08:34:40</time></trkpt><trkpt lat="55.8037000" lon="49.1168160"><time>2021-08-14T08:34:41</time></trkpt><trkpt lat="55.8037060" lon="49.1168360"><time>2021-08-14T08:34:42</time></trkpt><trkpt lat="55.8037080" lon="49.1168500"><time>2021-08-14T08:34:43</time></trkpt><trkpt lat="55.8037100" lon="49.1168630"><time>2021-08-14T08:34:44</time></trkpt><trkpt lat="55.8037120" lon="49.1168760"><time>2021-08-14T08:34:45</time></trkpt><trkpt lat="55.8037140" lon="49.1168900"><time>2021-08-14T08:34:46</time></trkpt><trkpt lat="55.8037160" lon="49.1169030"><time>2021-08-14T08:34:47</time></trkpt><trkpt lat="55.8037180" lon="49.1169160"><time>2021-08-14T08:34:48</time></trkpt><trkpt lat="55.8037210" lon="49.1169300"><time>2021-08-14T08:34:49</time></trkpt><trkpt lat="55.8037230" lon="49.1169430"><time>2021-08-14T08:34:50</time></trkpt><trkpt lat="55.8037250" lon="49.1169560"><time>2021-08-14T08:34:51</time></trkpt><trkpt lat="55.8037270" lon="49.1169700"><time>2021-08-14T08:34:52</time></trkpt><trkpt lat="55.8037290" lon="49.1169830"><time>2021-08-14T08:34:53</time></trkpt><trkpt lat="55.8037310" lon="49.1169960"><time>2021-08-14T08:34:54</time></trkpt><trkpt lat="55.8037330" lon="49.1170100"><time>2021-08-14T08:34:55</time></trkpt><trkpt lat="55.8037350" lon="49.1170230"><time>2021-08-14T08:34:56</time></trkpt><trkpt lat="55.8037470" lon="49.1170390"><time>2021-08-14T08:34:57</time></trkpt><trkpt lat="55.8037530" lon="49.1170600"><time>2021-08-14T08:34:58</time></trkpt><trkpt lat="55.8037560" lon="49.1170770"><time>2021-08-14T08:34:59</time></trkpt><trkpt lat="55.8037570" lon="49.1170940"><time>2021-08-14T08:35:00</time></trkpt><trkpt lat="55.8037590" lon="49.1171040"><time>2021-08-14T08:35:01</time></trkpt><trkpt lat="55.8037670" lon="49.1171170"><time>2021-08-14T08:35:03</time></trkpt><trkpt lat="55.8037730" lon="49.1171410"><time>2021-08-14T08:35:04</time></trkpt><trkpt lat="55.8037770" lon="49.1171660"><time>2021-08-14T08:35:05</time></trkpt><trkpt lat="55.8037790" lon="49.1171870"><time>2021-08-14T08:35:06</time></trkpt><trkpt lat="55.8037870" lon="49.1172110"><time>2021-08-14T08:35:07</time></trkpt><trkpt lat="55.8037960" lon="49.1172460"><time>2021-08-14T08:35:08</time></trkpt><trkpt lat="55.8038010" lon="49.1172600"><time>2021-08-14T08:35:09</time></trkpt><trkpt lat="55.8038050" lon="49.1172740"><time>2021-08-14T08:35:10</time></trkpt><trkpt lat="55.8038110" lon="49.1172990"><time>2021-08-14T08:35:11</time></trkpt><trkpt lat="55.8038130" lon="49.1173160"><time>2021-08-14T08:35:12</time></trkpt><trkpt lat="55.8038140" lon="49.1173210"><time>2021-08-14T08:35:13</time></trkpt><trkpt lat="55.8038180" lon="49.1173380"><time>2021-08-14T08:35:14</time></trkpt><trkpt lat="55.8038240" lon="49.1173490"><time>2021-08-14T08:35:15</time></trkpt><trkpt lat="55.8038290" lon="49.1173600"><time>2021-08-14T08:35:16</time></trkpt><trkpt lat="55.8038340" lon="49.1173710"><time>2021-08-14T08:35:17</time></trkpt><trkpt lat="55.8038390" lon="49.1173820"><time>2021-08-14T08:35:18</time></trkpt><trkpt lat="55.8038450" lon="49.1173930"><time>2021-08-14T08:35:19</time></trkpt><trkpt lat="55.8038500" lon="49.1174040"><time>2021-08-14T08:35:20</time></trkpt><trkpt lat="55.8038550" lon="49.1174150"><time>2021-08-14T08:35:21</time></trkpt><trkpt lat="55.8038630" lon="49.1174710"><time>2021-08-14T08:35:22</time></trkpt><trkpt lat="55.8038640" lon="49.1174880"><time>2021-08-14T08:35:23</time></trkpt><trkpt lat="55.8038630" lon="49.1175180"><time>2021-08-14T08:35:24</time></trkpt><trkpt lat="55.8038680" lon="49.1175440"><time>2021-08-14T08:35:25</time></trkpt><trkpt lat="55.8038710" lon="49.1175690"><time>2021-08-14T08:35:26</time></trkpt><trkpt lat="55.8038750" lon="49.1175960"><time>2021-08-14T08:35:27</time></trkpt><trkpt lat="55.8038870" lon="49.1176520"><time>2021-08-14T08:35:28</time></trkpt><trkpt lat="55.8038910" lon="49.1176660"><time>2021-08-14T08:35:29</time></trkpt><trkpt lat="55.8038930" lon="49.1176880"><time>2021-08-14T08:35:30</time></trkpt><trkpt lat="55.8038990" lon="49.1177130"><time>2021-08-14T08:35:31</time></trkpt><trkpt lat="55.8039090" lon="49.1177650"><time>2021-08-14T08:35:32</time></trkpt><trkpt lat="55.8039120" lon="49.1177810"><time>2021-08-14T08:35:33</time></trkpt><trkpt lat="55.8039170" lon="49.1178060"><time>2021-08-14T08:35:34</time></trkpt><trkpt lat="55.8039140" lon="49.1178250"><time>2021-08-14T08:35:35</time></trkpt><trkpt lat="55.8039170" lon="49.1178430"><time>2021-08-14T08:35:36</time></trkpt><trkpt lat="55.8039190" lon="49.1178730"><time>2021-08-14T08:35:37</time></trkpt><trkpt lat="55.8039200" lon="49.1178880"><time>2021-08-14T08:35:38</time></trkpt><trkpt lat="55.8039230" lon="49.1178990"><time>2021-08-14T08:35:39</time></trkpt><trkpt lat="55.8039330" lon="49.1179270"><time>2021-08-14T08:35:40</time></trkpt><trkpt lat="55.8039450" lon="49.1179490"><time>2021-08-14T08:35:41</time></trkpt><trkpt lat="55.8039470" lon="49.1180050"><time>2021-08-14T08:35:42</time></trkpt><trkpt lat="55.8039460" lon="49.1180240"><time>2021-08-14T08:35:43</time></trkpt><trkpt lat="55.8039450" lon="49.1180760"><time>2021-08-14T08:35:44</time></trkpt><trkpt lat="55.8039450" lon="49.1180950"><time>2021-08-14T08:35:45</time></trkpt><trkpt lat="55.8039540" lon="49.1181240"><time>2021-08-14T08:35:46</time></trkpt><trkpt lat="55.8039610" lon="49.1181450"><time>2021-08-14T08:35:47</time></trkpt><trkpt lat="55.8039690" lon="49.1181960"><time>2021-08-14T08:35:48</time></trkpt><trkpt lat="55.8039710" lon="49.1182150"><time>2021-08-14T08:35:49</time></trkpt><trkpt lat="55.8039760" lon="49.1182380"><time>2021-08-14T08:35:50</time></trkpt><trkpt lat="55.8039810" lon="49.1182610"><time>2021-08-14T08:35:51</time></trkpt><trkpt lat="55.8039860" lon="49.1182950"><time>2021-08-14T08:35:52</time></trkpt><trkpt lat="55.8039940" lon="49.1183210"><time>2021-08-14T08:35:53</time></trkpt><trkpt lat="55.8040030" lon="49.1183570"><time>2021-08-14T08:35:54</time></trkpt><trkpt lat="55.8040010" lon="49.1183730"><time>2021-08-14T08:35:55</time></trkpt><trkpt lat="55.8040060" lon="49.1184100"><time>2021-08-14T08:35:56</time></trkpt><trkpt lat="55.8040100" lon="49.1184240"><time>2021-08-14T08:35:57</time></trkpt><trkpt lat="55.8040150" lon="49.1184390"><time>2021-08-14T08:35:58</time></trkpt><trkpt lat="55.8040170" lon="49.1184510"><time>2021-08-14T08:35:59</time></trkpt><trkpt lat="55.8040170" lon="49.1184660"><time>2021-08-14T08:36:00</time></trkpt><trkpt lat="55.8040200" lon="49.1184870"><time>2021-08-14T08:36:01</time></trkpt><trkpt lat="55.8040300" lon="49.1185290"><time>2021-08-14T08:36:02</time></trkpt><trkpt lat="55.8040330" lon="49.1185500"><time>2021-08-14T08:36:03</time></trkpt><trkpt lat="55.8040410" lon="49.1186030"><time>2021-08-14T08:36:04</time></trkpt><trkpt lat="55.8040500" lon="49.1186610"><time>2021-08-14T08:36:05</time></trkpt><trkpt lat="55.8040520" lon="49.1186790"><time>2021-08-14T08:36:06</time></trkpt><trkpt lat="55.8040600" lon="49.1187030"><time>2021-08-14T08:36:07</time></trkpt><trkpt lat="55.8040640" lon="49.1187240"><time>2021-08-14T08:36:08</time></trkpt><trkpt lat="55.8040660" lon="49.1187430"><time>2021-08-14T08:36:09</time></trkpt><trkpt lat="55.8040710" lon="49.1187720"><time>2021-08-14T08:36:10</time></trkpt><trkpt lat="55.8040720" lon="49.1188170"><time>2021-08-14T08:36:11</time></trkpt><trkpt lat="55.8040750" lon="49.1188420"><time>2021-08-14T08:36:12</time></trkpt><trkpt lat="55.8040770" lon="49.1188660"><time>2021-08-14T08:36:13</time></trkpt><trkpt lat="55.8040820" lon="49.1189240"><time>2021-08-14T08:36:14</time></trkpt><trkpt lat="55.8040850" lon="49.1189430"><time>2021-08-14T08:36:15</time></trkpt><trkpt lat="55.8040900" lon="49.1189700"><time>2021-08-14T08:36:16</time></trkpt><trkpt lat="55.8040920" lon="49.1189900"><time>2021-08-14T08:36:17</time></trkpt><trkpt lat="55.8040900" lon="49.1190020"><time>2021-08-14T08:36:18</time></trkpt><trkpt lat="55.8040860" lon="49.1190210"><time>2021-08-14T08:36:19</time></trkpt><trkpt lat="55.8040870" lon="49.1190340"><time>2021-08-14T08:36:20</time></trkpt><trkpt lat="55.8040890" lon="49.1190340"><time>2021-08-14T08:36:21</time></trkpt><trkpt lat="55.8040890" lon="49.1190400"><time>2021-08-14T08:36:22</time></trkpt><trkpt lat="55.8040890" lon="49.1190500"><time>2021-08-14T08:36:23</time></trkpt><trkpt lat="55.8040920" lon="49.1190630"><time>2021-08-14T08:36:24</time></trkpt><trkpt lat="55.8040970" lon="49.1190920"><time>2021-08-14T08:36:25</time></trkpt><trkpt lat="55.8041060" lon="49.1191520"><time>2021-08-14T08:36:26</time></trkpt><trkpt lat="55.8041090" lon="49.1191780"><time>2021-08-14T08:36:27</time></trkpt><trkpt lat="55.8041170" lon="49.1192330"><time>2021-08-14T08:36:28</time></trkpt><trkpt lat="55.8041180" lon="49.1192500"><time>2021-08-14T08:36:29</time></trkpt><trkpt lat="55.8041160" lon="49.1193000"><time>2021-08-14T08:36:30</time></trkpt><trkpt lat="55.8041110" lon="49.1193130"><time>2021-08-14T08:36:31</time></trkpt><trkpt lat="55.8041100" lon="49.1193330"><time>2021-08-14T08:36:32</time></trkpt><trkpt lat="55.8041080" lon="49.1193770"><time>2021-08-14T08:36:33</time></trkpt><trkpt lat="55.8041010" lon="49.1194330"><time>2021-08-14T08:36:34</time></trkpt><trkpt lat="55.8040990" lon="49.1194490"><time>2021-08-14T08:36:35</time></trkpt><trkpt lat="55.8041010" lon="49.1194850"><time>2021-08-14T08:36:36</time></trkpt><trkpt lat="55.8041000" lon="49.1195100"><time>2021-08-14T08:36:37</time></trkpt><trkpt lat="55.8041010" lon="49.1195320"><time>2021-08-14T08:36:38</time></trkpt><trkpt lat="55.8040980" lon="49.1195670"><time>2021-08-14T08:36:39</time></trkpt><trkpt lat="55.8040980" lon="49.1195930"><time>2021-08-14T08:36:40</time></trkpt><trkpt lat="55.8040950" lon="49.1196230"><time>2021-08-14T08:36:41</time></trkpt><trkpt lat="55.8040960" lon="49.1196430"><time>2021-08-14T08:36:42</time></trkpt><trkpt lat="55.8040940" lon="49.1196670"><time>2021-08-14T08:36:43</time></trkpt><trkpt lat="55.8040880" lon="49.1196810"><time>2021-08-14T08:36:44</time></trkpt><trkpt lat="55.8040820" lon="49.1197140"><time>2021-08-14T08:36:45</time></trkpt><trkpt lat="55.8040830" lon="49.1197310"><time>2021-08-14T08:36:46</time></trkpt><trkpt lat="55.8040830" lon="49.1197490"><time>2021-08-14T08:36:47</time></trkpt><trkpt lat="55.8040820" lon="49.1198110"><time>2021-08-14T08:36:48</time></trkpt><trkpt lat="55.8040810" lon="49.1198310"><time>2021-08-14T08:36:49</time></trkpt><trkpt lat="55.8040750" lon="49.1198850"><time>2021-08-14T08:36:50</time></trkpt><trkpt lat="55.8040720" lon="49.1199050"><time>2021-08-14T08:36:51</time></trkpt><trkpt lat="55.8040960" lon="49.1199930"><time>2021-08-14T08:36:52</time></trkpt><trkpt lat="55.8041020" lon="49.1200450"><time>2021-08-14T08:36:53</time></trkpt><trkpt lat="55.8041030" lon="49.1201100"><time>2021-08-14T08:36:54</time></trkpt><trkpt lat="55.8041030" lon="49.1201300"><time>2021-08-14T08:36:55</time></trkpt><trkpt lat="55.8041020" lon="49.1201620"><time>2021-08-14T08:36:56</time></trkpt><trkpt lat="55.8041030" lon="49.1201890"><time>2021-08-14T08:36:57</time></trkpt><trkpt lat="55.8041000" lon="49.1202220"><time>2021-08-14T08:36:58</time></trkpt><trkpt lat="55.8040960" lon="49.1202500"><time>2021-08-14T08:36:59</time></trkpt><trkpt lat="55.8040950" lon="49.1202750"><time>2021-08-14T08:37:00</time></trkpt><trkpt lat="55.8040970" lon="49.1203070"><time>2021-08-14T08:37:01</time></trkpt><trkpt lat="55.8040950" lon="49.1203320"><time>2021-08-14T08:37:02</time></trkpt><trkpt lat="55.8040950" lon="49.1203620"><time>2021-08-14T08:37:03</time></trkpt><trkpt lat="55.8040950" lon="49.1203910"><time>2021-08-14T08:37:04</time></trkpt><trkpt lat="55.8040940" lon="49.1204190"><time>2021-08-14T08:37:05</time></trkpt><trkpt lat="55.8040970" lon="49.1204430"><time>2021-08-14T08:37:06</time></trkpt><trkpt lat="55.8040920" lon="49.1204780"><time>2021-08-14T08:37:07</time></trkpt><trkpt lat="55.8040940" lon="49.1205070"><time>2021-08-14T08:37:09</time></trkpt><trkpt lat="55.8040920" lon="49.1205370"><time>2021-08-14T08:37:10</time></trkpt><trkpt lat="55.8040890" lon="49.1205570"><time>2021-08-14T08:37:11</time></trkpt><trkpt lat="55.8040880" lon="49.1205870"><time>2021-08-14T08:37:12</time></trkpt><trkpt lat="55.8040850" lon="49.1206190"><time>2021-08-14T08:37:13</time></trkpt><trkpt lat="55.8040840" lon="49.1206430"><time>2021-08-14T08:37:14</time></trkpt><trkpt lat="55.8040820" lon="49.1207030"><time>2021-08-14T08:37:15</time></trkpt><trkpt lat="55.8040830" lon="49.1207180"><time>2021-08-14T08:37:16</time></trkpt><trkpt lat="55.8040820" lon="49.1207460"><time>2021-08-14T08:37:17</time></trkpt><trkpt lat="55.8040790" lon="49.1207760"><time>2021-08-14T08:37:18</time></trkpt><trkpt lat="55.8040760" lon="49.1207990"><time>2021-08-14T08:37:19</time></trkpt><trkpt lat="55.8040740" lon="49.1208260"><time>2021-08-14T08:37:20</time></trkpt><trkpt lat="55.8040710" lon="49.1208540"><time>2021-08-14T08:37:21</time></trkpt><trkpt lat="55.8040710" lon="49.1208850"><time>2021-08-14T08:37:22</time></trkpt><trkpt lat="55.8040690" lon="49.1209130"><time>2021-08-14T08:37:23</time></trkpt><trkpt lat="55.8040680" lon="49.1209430"><time>2021-08-14T08:37:24</time></trkpt><trkpt lat="55.8040650" lon="49.1209730"><time>2021-08-14T08:37:25</time></trkpt><trkpt lat="55.8040650" lon="49.1210000"><time>2021-08-14T08:37:26</time></trkpt><trkpt lat="55.8040640" lon="49.1210410"><time>2021-08-14T08:37:27</time></trkpt><trkpt lat="55.8040640" lon="49.1210560"><time>2021-08-14T08:37:28</time></trkpt><trkpt lat="55.8040640" lon="49.1210710"><time>2021-08-14T08:37:29</time></trkpt><trkpt lat="55.8040670" lon="49.1211090"><time>2021-08-14T08:37:30</time></trkpt><trkpt lat="55.8040680" lon="49.1211230"><time>2021-08-14T08:37:31</time></trkpt><trkpt lat="55.8040690" lon="49.1211360"><time>2021-08-14T08:37:32</time></trkpt><trkpt lat="55.8040680" lon="49.1211550"><time>2021-08-14T08:37:33</time></trkpt><trkpt lat="55.8040690" lon="49.1211700"><time>2021-08-14T08:37:34</time></trkpt><trkpt lat="55.8040670" lon="49.1211980"><time>2021-08-14T08:37:35</time></trkpt><trkpt lat="55.8040650" lon="49.1212300"><time>2021-08-14T08:37:36</time></trkpt><trkpt lat="55.8040650" lon="49.1212470"><time>2021-08-14T08:37:37</time></trkpt><trkpt lat="55.8040650" lon="49.1212640"><time>2021-08-14T08:37:38</time></trkpt><trkpt lat="55.8040650" lon="49.1212940"><time>2021-08-14T08:37:39</time></trkpt><trkpt lat="55.8040620" lon="49.1213200"><time>2021-08-14T08:37:40</time></trkpt><trkpt lat="55.8040590" lon="49.1213690"><time>2021-08-14T08:37:41</time></trkpt><trkpt lat="55.8040570" lon="49.1213850"><time>2021-08-14T08:37:42</time></trkpt><trkpt lat="55.8040540" lon="49.1214310"><time>2021-08-14T08:37:43</time></trkpt><trkpt lat="55.8040520" lon="49.1214490"><time>2021-08-14T08:37:44</time></trkpt><trkpt lat="55.8040500" lon="49.1214770"><time>2021-08-14T08:37:45</time></trkpt><trkpt lat="55.8040560" lon="49.1215040"><time>2021-08-14T08:37:46</time></trkpt><trkpt lat="55.8040530" lon="49.1215550"><time>2021-08-14T08:37:47</time></trkpt><trkpt lat="55.8040510" lon="49.1215700"><time>2021-08-14T08:37:48</time></trkpt><trkpt lat="55.8040440" lon="49.1216000"><time>2021-08-14T08:37:49</time></trkpt><trkpt lat="55.8040430" lon="49.1216270"><time>2021-08-14T08:37:50</time></trkpt><trkpt lat="55.8040420" lon="49.1216520"><time>2021-08-14T08:37:51</time></trkpt><trkpt lat="55.8040410" lon="49.1217130"><time>2021-08-14T08:37:52</time></trkpt><trkpt lat="55.8040380" lon="49.1217440"><time>2021-08-14T08:37:53</time></trkpt><trkpt lat="55.8040360" lon="49.1217690"><time>2021-08-14T08:37:54</time></trkpt><trkpt lat="55.8040320" lon="49.1217940"><time>2021-08-14T08:37:55</time></trkpt><trkpt lat="55.8040320" lon="49.1218220"><time>2021-08-14T08:37:56</time></trkpt><trkpt lat="55.8040310" lon="49.1218420"><time>2021-08-14T08:37:57</time></trkpt><trkpt lat="55.8040280" lon="49.1218630"><time>2021-08-14T08:37:58</time></trkpt><trkpt lat="55.8040250" lon="49.1218860"><time>2021-08-14T08:37:59</time></trkpt><trkpt lat="55.8040220" lon="49.1219000"><time>2021-08-14T08:38:00</time></trkpt><trkpt lat="55.8040190" lon="49.1219240"><time>2021-08-14T08:38:01</time></trkpt><trkpt lat="55.8040200" lon="49.1219530"><time>2021-08-14T08:38:02</time></trkpt><trkpt lat="55.8040170" lon="49.1220030"><time>2021-08-14T08:38:03</time></trkpt><trkpt lat="55.8040160" lon="49.1220240"><time>2021-08-14T08:38:04</time></trkpt><trkpt lat="55.8040170" lon="49.1220600"><time>2021-08-14T08:38:05</time></trkpt><trkpt lat="55.8040160" lon="49.1220840"><time>2021-08-14T08:38:06</time></trkpt><trkpt lat="55.8040150" lon="49.1221130"><time>2021-08-14T08:38:07</time></trkpt><trkpt lat="55.8040130" lon="49.1221450"><time>2021-08-14T08:38:08</time></trkpt><trkpt lat="55.8040110" lon="49.1221950"><time>2021-08-14T08:38:09</time></trkpt><trkpt lat="55.8040090" lon="49.1222120"><time>2021-08-14T08:38:10</time></trkpt><trkpt lat="55.8040110" lon="49.1222390"><time>2021-08-14T08:38:11</time></trkpt><trkpt lat="55.8040080" lon="49.1222660"><time>2021-08-14T08:38:12</time></trkpt><trkpt lat="55.8039980" lon="49.1222920"><time>2021-08-14T08:38:13</time></trkpt><trkpt lat="55.8039980" lon="49.1223200"><time>2021-08-14T08:38:14</time></trkpt><trkpt lat="55.8039960" lon="49.1223580"><time>2021-08-14T08:38:15</time></trkpt><trkpt lat="55.8039970" lon="49.1223720"><time>2021-08-14T08:38:16</time></trkpt><trkpt lat="55.8039970" lon="49.1223850"><time>2021-08-14T08:38:17</time></trkpt><trkpt lat="55.8039970" lon="49.1224080"><time>2021-08-14T08:38:18</time></trkpt><trkpt lat="55.8039990" lon="49.1224280"><time>2021-08-14T08:38:19</time></trkpt><trkpt lat="55.8039990" lon="49.1224480"><time>2021-08-14T08:38:20</time></trkpt><trkpt lat="55.8039960" lon="49.1224960"><time>2021-08-14T08:38:21</time></trkpt><trkpt lat="55.8039960" lon="49.1225130"><time>2021-08-14T08:38:22</time></trkpt><trkpt lat="55.8039950" lon="49.1225420"><time>2021-08-14T08:38:23</time></trkpt><trkpt lat="55.8039920" lon="49.1225650"><time>2021-08-14T08:38:24</time></trkpt><trkpt lat="55.8039880" lon="49.1226000"><time>2021-08-14T08:38:25</time></trkpt><trkpt lat="55.8039870" lon="49.1226230"><time>2021-08-14T08:38:26</time></trkpt><trkpt lat="55.8039820" lon="49.1226710"><time>2021-08-14T08:38:27</time></trkpt><trkpt lat="55.8039790" lon="49.1226870"><time>2021-08-14T08:38:28</time></trkpt><trkpt lat="55.8039790" lon="49.1227120"><time>2021-08-14T08:38:29</time></trkpt><trkpt lat="55.8039810" lon="49.1227410"><time>2021-08-14T08:38:30</time></trkpt><trkpt lat="55.8039810" lon="49.1227670"><time>2021-08-14T08:38:31</time></trkpt><trkpt lat="55.8039770" lon="49.1227930"><time>2021-08-14T08:38:32</time></trkpt><trkpt lat="55.8039750" lon="49.1228160"><time>2021-08-14T08:38:33</time></trkpt><trkpt lat="55.8039720" lon="49.1228500"><time>2021-08-14T08:38:34</time></trkpt><trkpt lat="55.8039710" lon="49.1228810"><time>2021-08-14T08:38:35</time></trkpt><trkpt lat="55.8039700" lon="49.1229040"><time>2021-08-14T08:38:36</time></trkpt><trkpt lat="55.8039680" lon="49.1229250"><time>2021-08-14T08:38:37</time></trkpt><trkpt lat="55.8039660" lon="49.1229480"><time>2021-08-14T08:38:38</time></trkpt><trkpt lat="55.8039680" lon="49.1229670"><time>2021-08-14T08:38:39</time></trkpt><trkpt lat="55.8039620" lon="49.1229980"><time>2021-08-14T08:38:40</time></trkpt><trkpt lat="55.8039610" lon="49.1230090"><time>2021-08-14T08:38:41</time></trkpt><trkpt lat="55.8039600" lon="49.1230190"><time>2021-08-14T08:38:42</time></trkpt><trkpt lat="55.8039590" lon="49.1230300"><time>2021-08-14T08:38:43</time></trkpt><trkpt lat="55.8039570" lon="49.1230480"><time>2021-08-14T08:38:44</time></trkpt><trkpt lat="55.8039540" lon="49.1230760"><time>2021-08-14T08:38:45</time></trkpt><trkpt lat="55.8039520" lon="49.1230930"><time>2021-08-14T08:38:46</time></trkpt><trkpt lat="55.8039560" lon="49.1231130"><time>2021-08-14T08:38:47</time></trkpt><trkpt lat="55.8039550" lon="49.1231350"><time>2021-08-14T08:38:48</time></trkpt><trkpt lat="55.8039560" lon="49.1231470"><time>2021-08-14T08:38:49</time></trkpt><trkpt lat="55.8039580" lon="49.1231940"><time>2021-08-14T08:38:50</time></trkpt><trkpt lat="55.8039600" lon="49.1232120"><time>2021-08-14T08:38:51</time></trkpt><trkpt lat="55.8039620" lon="49.1232670"><time>2021-08-14T08:38:52</time></trkpt><trkpt lat="55.8039610" lon="49.1232830"><time>2021-08-14T08:38:53</time></trkpt><trkpt lat="55.8039580" lon="49.1233400"><time>2021-08-14T08:38:54</time></trkpt><trkpt lat="55.8039560" lon="49.1233570"><time>2021-08-14T08:38:55</time></trkpt><trkpt lat="55.8039560" lon="49.1234080"><time>2021-08-14T08:38:56</time></trkpt><trkpt lat="55.8039550" lon="49.1234270"><time>2021-08-14T08:38:57</time></trkpt><trkpt lat="55.8039520" lon="49.1234780"><time>2021-08-14T08:38:58</time></trkpt><trkpt lat="55.8039510" lon="49.1234960"><time>2021-08-14T08:38:59</time></trkpt><trkpt lat="55.8039460" lon="49.1235250"><time>2021-08-14T08:39:00</time></trkpt><trkpt lat="55.8039430" lon="49.1235530"><time>2021-08-14T08:39:01</time></trkpt><trkpt lat="55.8039420" lon="49.1235850"><time>2021-08-14T08:39:02</time></trkpt><trkpt lat="55.8039450" lon="49.1236120"><time>2021-08-14T08:39:03</time></trkpt><trkpt lat="55.8039440" lon="49.1236380"><time>2021-08-14T08:39:04</time></trkpt><trkpt lat="55.8039480" lon="49.1236640"><time>2021-08-14T08:39:05</time></trkpt><trkpt lat="55.8039480" lon="49.1237050"><time>2021-08-14T08:39:06</time></trkpt><trkpt lat="55.8039490" lon="49.1237240"><time>2021-08-14T08:39:07</time></trkpt><trkpt lat="55.8039510" lon="49.1237440"><time>2021-08-14T08:39:08</time></trkpt><trkpt lat="55.8039420" lon="49.1237780"><time>2021-08-14T08:39:09</time></trkpt><trkpt lat="55.8039400" lon="49.1237950"><time>2021-08-14T08:39:10</time></trkpt><trkpt lat="55.8039380" lon="49.1238110"><time>2021-08-14T08:39:11</time></trkpt><trkpt lat="55.8039390" lon="49.1238400"><time>2021-08-14T08:39:12</time></trkpt><trkpt lat="55.8039340" lon="49.1238630"><time>2021-08-14T08:39:13</time></trkpt><trkpt lat="55.8039330" lon="49.1238910"><time>2021-08-14T08:39:15</time></trkpt><trkpt lat="55.8039310" lon="49.1239120"><time>2021-08-14T08:39:16</time></trkpt><trkpt lat="55.8039270" lon="49.1239670"><time>2021-08-14T08:39:17</time></trkpt><trkpt lat="55.8039260" lon="49.1239850"><time>2021-08-14T08:39:18</time></trkpt><trkpt lat="55.8039240" lon="49.1240100"><time>2021-08-14T08:39:19</time></trkpt><trkpt lat="55.8039210" lon="49.1240450"><time>2021-08-14T08:39:20</time></trkpt><trkpt lat="55.8039180" lon="49.1240720"><time>2021-08-14T08:39:21</time></trkpt><trkpt lat="55.8039200" lon="49.1241030"><time>2021-08-14T08:39:22</time></trkpt><trkpt lat="55.8039200" lon="49.1241320"><time>2021-08-14T08:39:23</time></trkpt><trkpt lat="55.8039220" lon="49.1241600"><time>2021-08-14T08:39:24</time></trkpt><trkpt lat="55.8039230" lon="49.1241860"><time>2021-08-14T08:39:25</time></trkpt><trkpt lat="55.8039230" lon="49.1242110"><time>2021-08-14T08:39:26</time></trkpt><trkpt lat="55.8039230" lon="49.1242440"><time>2021-08-14T08:39:27</time></trkpt><trkpt lat="55.8039250" lon="49.1242610"><time>2021-08-14T08:39:28</time></trkpt><trkpt lat="55.8039260" lon="49.1242790"><time>2021-08-14T08:39:29</time></trkpt><trkpt lat="55.8039250" lon="49.1243160"><time>2021-08-14T08:39:30</time></trkpt><trkpt lat="55.8039230" lon="49.1243380"><time>2021-08-14T08:39:31</time></trkpt><trkpt lat="55.8039210" lon="49.1243590"><time>2021-08-14T08:39:32</time></trkpt><trkpt lat="55.8039090" lon="49.1243840"><time>2021-08-14T08:39:33</time></trkpt><trkpt lat="55.8038920" lon="49.1243920"><time>2021-08-14T08:39:34</time></trkpt><trkpt lat="55.8038770" lon="49.1243930"><time>2021-08-14T08:39:35</time></trkpt><trkpt lat="55.8038610" lon="49.1243950"><time>2021-08-14T08:39:36</time></trkpt><trkpt lat="55.8038380" lon="49.1243980"><time>2021-08-14T08:39:37</time></trkpt><trkpt lat="55.8038290" lon="49.1243990"><time>2021-08-14T08:39:38</time></trkpt><trkpt lat="55.8038190" lon="49.1244000"><time>2021-08-14T08:39:39</time></trkpt><trkpt lat="55.8038140" lon="49.1244110"><time>2021-08-14T08:39:40</time></trkpt><trkpt lat="55.8038020" lon="49.1244430"><time>2021-08-14T08:39:41</time></trkpt><trkpt lat="55.8037960" lon="49.1244810"><time>2021-08-14T08:39:42</time></trkpt><trkpt lat="55.8037960" lon="49.1244970"><time>2021-08-14T08:39:43</time></trkpt><trkpt lat="55.8037920" lon="49.1245460"><time>2021-08-14T08:39:44</time></trkpt><trkpt lat="55.8037880" lon="49.1245730"><time>2021-08-14T08:39:45</time></trkpt><trkpt lat="55.8037860" lon="49.1246010"><time>2021-08-14T08:39:46</time></trkpt><trkpt lat="55.8037880" lon="49.1246270"><time>2021-08-14T08:39:47</time></trkpt><trkpt lat="55.8037820" lon="49.1246550"><time>2021-08-14T08:39:48</time></trkpt><trkpt lat="55.8037770" lon="49.1246820"><time>2021-08-14T08:39:49</time></trkpt><trkpt lat="55.8037710" lon="49.1247080"><time>2021-08-14T08:39:50</time></trkpt><trkpt lat="55.8037660" lon="49.1247330"><time>2021-08-14T08:39:51</time></trkpt><trkpt lat="55.8037610" lon="49.1247560"><time>2021-08-14T08:39:52</time></trkpt><trkpt lat="55.8037570" lon="49.1247810"><time>2021-08-14T08:39:53</time></trkpt><trkpt lat="55.8037520" lon="49.1248070"><time>2021-08-14T08:39:54</time></trkpt><trkpt lat="55.8037410" lon="49.1248290"><time>2021-08-14T08:39:55</time></trkpt><trkpt lat="55.8037380" lon="49.1248530"><time>2021-08-14T08:39:56</time></trkpt><trkpt lat="55.8037320" lon="49.1248750"><time>2021-08-14T08:39:57</time></trkpt><trkpt lat="55.8037200" lon="49.1249250"><time>2021-08-14T08:39:58</time></trkpt><trkpt lat="55.8037110" lon="49.1249490"><time>2021-08-14T08:39:59</time></trkpt><trkpt lat="55.8037030" lon="49.1249720"><time>2021-08-14T08:40:00</time></trkpt><trkpt lat="55.8037020" lon="49.1249990"><time>2021-08-14T08:40:01</time></trkpt><trkpt lat="55.8036980" lon="49.1250280"><time>2021-08-14T08:40:02</time></trkpt><trkpt lat="55.8036900" lon="49.1250530"><time>2021-08-14T08:40:03</time></trkpt><trkpt lat="55.8036830" lon="49.1250760"><time>2021-08-14T08:40:04</time></trkpt><trkpt lat="55.8036790" lon="49.1250970"><time>2021-08-14T08:40:05</time></trkpt><trkpt lat="55.8036710" lon="49.1251240"><time>2021-08-14T08:40:06</time></trkpt><trkpt lat="55.8036630" lon="49.1251500"><time>2021-08-14T08:40:07</time></trkpt><trkpt lat="55.8036580" lon="49.1251770"><time>2021-08-14T08:40:08</time></trkpt><trkpt lat="55.8036480" lon="49.1252040"><time>2021-08-14T08:40:09</time></trkpt><trkpt lat="55.8036400" lon="49.1252260"><time>2021-08-14T08:40:10</time></trkpt><trkpt lat="55.8036330" lon="49.1252500"><time>2021-08-14T08:40:11</time></trkpt><trkpt lat="55.8036250" lon="49.1252720"><time>2021-08-14T08:40:12</time></trkpt><trkpt lat="55.8036130" lon="49.1252960"><time>2021-08-14T08:40:13</time></trkpt><trkpt lat="55.8036050" lon="49.1253160"><time>2021-08-14T08:40:14</time></trkpt><trkpt lat="55.8035930" lon="49.1253330"><time>2021-08-14T08:40:15</time></trkpt><trkpt lat="55.8035830" lon="49.1253520"><time>2021-08-14T08:40:16</time></trkpt><trkpt lat="55.8035740" lon="49.1253760"><time>2021-08-14T08:40:17</time></trkpt><trkpt lat="55.8035640" lon="49.1253980"><time>2021-08-14T08:40:18</time></trkpt><trkpt lat="55.8035530" lon="49.1254190"><time>2021-08-14T08:40:19</time></trkpt><trkpt lat="55.8035380" lon="49.1254360"><time>2021-08-14T08:40:20</time></trkpt><trkpt lat="55.8035300" lon="49.1254580"><time>2021-08-14T08:40:21</time></trkpt><trkpt lat="55.8035180" lon="49.1254770"><time>2021-08-14T08:40:22</time></trkpt><trkpt lat="55.8035060" lon="49.1255000"><time>2021-08-14T08:40:23</time></trkpt><trkpt lat="55.8034950" lon="49.1255230"><time>2021-08-14T08:40:24</time></trkpt><trkpt lat="55.8034850" lon="49.1255400"><time>2021-08-14T08:40:25</time></trkpt><trkpt lat="55.8034730" lon="49.1255660"><time>2021-08-14T08:40:26</time></trkpt><trkpt lat="55.8034630" lon="49.1255850"><time>2021-08-14T08:40:27</time></trkpt><trkpt lat="55.8034510" lon="49.1256030"><time>2021-08-14T08:40:28</time></trkpt><trkpt lat="55.8034400" lon="49.1256320"><time>2021-08-14T08:40:29</time></trkpt><trkpt lat="55.8034280" lon="49.1256490"><time>2021-08-14T08:40:30</time></trkpt><trkpt lat="55.8034140" lon="49.1256620"><time>2021-08-14T08:40:31</time></trkpt><trkpt lat="55.8034000" lon="49.1256770"><time>2021-08-14T08:40:32</time></trkpt><trkpt lat="55.8033890" lon="49.1256890"><time>2021-08-14T08:40:33</time></trkpt><trkpt lat="55.8033720" lon="49.1257110"><time>2021-08-14T08:40:34</time></trkpt><trkpt lat="55.8033610" lon="49.1257270"><time>2021-08-14T08:40:35</time></trkpt><trkpt lat="55.8033490" lon="49.1257430"><time>2021-08-14T08:40:36</time></trkpt><trkpt lat="55.8033360" lon="49.1257570"><time>2021-08-14T08:40:37</time></trkpt><trkpt lat="55.8033260" lon="49.1257670"><time>2021-08-14T08:40:38</time></trkpt><trkpt lat="55.8033080" lon="49.1257900"><time>2021-08-14T08:40:39</time></trkpt><trkpt lat="55.8032950" lon="49.1258000"><time>2021-08-14T08:40:40</time></trkpt><trkpt lat="55.8032800" lon="49.1258140"><time>2021-08-14T08:40:41</time></trkpt><trkpt lat="55.8032670" lon="49.1258280"><time>2021-08-14T08:40:42</time></trkpt><trkpt lat="55.8032540" lon="49.1258440"><time>2021-08-14T08:40:43</time></trkpt><trkpt lat="55.8032430" lon="49.1258620"><time>2021-08-14T08:40:44</time></trkpt><trkpt lat="55.8032290" lon="49.1258790"><time>2021-08-14T08:40:45</time></trkpt><trkpt lat="55.8032070" lon="49.1258900"><time>2021-08-14T08:40:46</time></trkpt><trkpt lat="55.8031990" lon="49.1258920"><time>2021-08-14T08:40:47</time></trkpt><trkpt lat="55.8031900" lon="49.1258950"><time>2021-08-14T08:40:48</time></trkpt><trkpt lat="55.8031700" lon="49.1258960"><time>2021-08-14T08:40:49</time></trkpt><trkpt lat="55.8031560" lon="49.1258970"><time>2021-08-14T08:40:50</time></trkpt><trkpt lat="55.8031410" lon="49.1258970"><time>2021-08-14T08:40:51</time></trkpt><trkpt lat="55.8031270" lon="49.1258950"><time>2021-08-14T08:40:52</time></trkpt><trkpt lat="55.8031130" lon="49.1258930"><time>2021-08-14T08:40:53</time></trkpt><trkpt lat="55.8031000" lon="49.1258920"><time>2021-08-14T08:40:54</time></trkpt><trkpt lat="55.8030770" lon="49.1258920"><time>2021-08-14T08:40:55</time></trkpt><trkpt lat="55.8030680" lon="49.1258910"><time>2021-08-14T08:40:56</time></trkpt><trkpt lat="55.8030600" lon="49.1258900"><time>2021-08-14T08:40:57</time></trkpt><trkpt lat="55.8030350" lon="49.1258960"><time>2021-08-14T08:40:58</time></trkpt><trkpt lat="55.8030240" lon="49.1259000"><time>2021-08-14T08:40:59</time></trkpt><trkpt lat="55.8030130" lon="49.1259030"><time>2021-08-14T08:41:00</time></trkpt><trkpt lat="55.8029990" lon="49.1259090"><time>2021-08-14T08:41:01</time></trkpt><trkpt lat="55.8029930" lon="49.1259070"><time>2021-08-14T08:41:02</time></trkpt><trkpt lat="55.8029880" lon="49.1259050"><time>2021-08-14T08:41:03</time></trkpt><trkpt lat="55.8029820" lon="49.1259030"><time>2021-08-14T08:41:04</time></trkpt><trkpt lat="55.8029770" lon="49.1259010"><time>2021-08-14T08:41:05</time></trkpt><trkpt lat="55.8029710" lon="49.1258990"><time>2021-08-14T08:41:06</time></trkpt><trkpt lat="55.8029640" lon="49.1258910"><time>2021-08-14T08:41:07</time></trkpt><trkpt lat="55.8029540" lon="49.1258920"><time>2021-08-14T08:41:08</time></trkpt><trkpt lat="55.8029540" lon="49.1258890"><time>2021-08-14T08:41:09</time></trkpt><trkpt lat="55.8029510" lon="49.1258850"><time>2021-08-14T08:41:10</time></trkpt><trkpt lat="55.8029470" lon="49.1258810"><time>2021-08-14T08:41:11</time></trkpt><trkpt lat="55.8029420" lon="49.1258770"><time>2021-08-14T08:41:12</time></trkpt><trkpt lat="55.8029390" lon="49.1258700"><time>2021-08-14T08:41:13</time></trkpt><trkpt lat="55.8029280" lon="49.1258670"><time>2021-08-14T08:41:14</time></trkpt><trkpt lat="55.8029130" lon="49.1258650"><time>2021-08-14T08:41:15</time></trkpt><trkpt lat="55.8029010" lon="49.1258660"><time>2021-08-14T08:41:16</time></trkpt><trkpt lat="55.8028910" lon="49.1258620"><time>2021-08-14T08:41:17</time></trkpt><trkpt lat="55.8028790" lon="49.1258560"><time>2021-08-14T08:41:18</time></trkpt><trkpt lat="55.8028660" lon="49.1258540"><time>2021-08-14T08:41:19</time></trkpt><trkpt lat="55.8028590" lon="49.1258540"><time>2021-08-14T08:41:21</time></trkpt><trkpt lat="55.8028430" lon="49.1258470"><time>2021-08-14T08:41:22</time></trkpt><trkpt lat="55.8028290" lon="49.1258380"><time>2021-08-14T08:41:23</time></trkpt><trkpt lat="55.8028200" lon="49.1258370"><time>2021-08-14T08:41:24</time></trkpt><trkpt lat="55.8028090" lon="49.1258370"><time>2021-08-14T08:41:25</time></trkpt><trkpt lat="55.8028030" lon="49.1258370"><time>2021-08-14T08:41:26</time></trkpt><trkpt lat="55.8027960" lon="49.1258380"><time>2021-08-14T08:41:27</time></trkpt><trkpt lat="55.8027910" lon="49.1258370"><time>2021-08-14T08:41:28</time></trkpt><trkpt lat="55.8027850" lon="49.1258350"><time>2021-08-14T08:41:29</time></trkpt><trkpt lat="55.8027790" lon="49.1258340"><time>2021-08-14T08:41:30</time></trkpt><trkpt lat="55.8027770" lon="49.1258350"><time>2021-08-14T08:41:31</time></trkpt><trkpt lat="55.8027680" lon="49.1258320"><time>2021-08-14T08:41:32</time></trkpt><trkpt lat="55.8027590" lon="49.1258280"><time>2021-08-14T08:41:33</time></trkpt><trkpt lat="55.8027460" lon="49.1258220"><time>2021-08-14T08:41:34</time></trkpt><trkpt lat="55.8027370" lon="49.1258210"><time>2021-08-14T08:41:35</time></trkpt><trkpt lat="55.8027330" lon="49.1258220"><time>2021-08-14T08:41:36</time></trkpt><trkpt lat="55.8027250" lon="49.1258210"><time>2021-08-14T08:41:37</time></trkpt><trkpt lat="55.8027160" lon="49.1258240"><time>2021-08-14T08:41:38</time></trkpt><trkpt lat="55.8027130" lon="49.1258210"><time>2021-08-14T08:41:39</time></trkpt><trkpt lat="55.8027110" lon="49.1258210"><time>2021-08-14T08:41:40</time></trkpt><trkpt lat="55.8027110" lon="49.1258160"><time>2021-08-14T08:41:41</time></trkpt><trkpt lat="55.8027030" lon="49.1258170"><time>2021-08-14T08:41:42</time></trkpt><trkpt lat="55.8026970" lon="49.1258150"><time>2021-08-14T08:41:43</time></trkpt><trkpt lat="55.8026870" lon="49.1258140"><time>2021-08-14T08:41:44</time></trkpt><trkpt lat="55.8026760" lon="49.1258130"><time>2021-08-14T08:41:45</time></trkpt><trkpt lat="55.8026760" lon="49.1258110"><time>2021-08-14T08:41:46</time></trkpt><trkpt lat="55.8026780" lon="49.1258080"><time>2021-08-14T08:41:47</time></trkpt><trkpt lat="55.8026710" lon="49.1258050"><time>2021-08-14T08:41:48</time></trkpt><trkpt lat="55.8026680" lon="49.1258050"><time>2021-08-14T08:41:49</time></trkpt><trkpt lat="55.8026650" lon="49.1258000"><time>2021-08-14T08:41:50</time></trkpt><trkpt lat="55.8026560" lon="49.1258030"><time>2021-08-14T08:41:51</time></trkpt><trkpt lat="55.8026560" lon="49.1258040"><time>2021-08-14T08:41:52</time></trkpt><trkpt lat="55.8026440" lon="49.1258050"><time>2021-08-14T08:41:53</time></trkpt><trkpt lat="55.8026400" lon="49.1257980"><time>2021-08-14T08:41:54</time></trkpt><trkpt lat="55.8026340" lon="49.1257940"><time>2021-08-14T08:41:55</time></trkpt><trkpt lat="55.8026280" lon="49.1257940"><time>2021-08-14T08:41:56</time></trkpt><trkpt lat="55.8026210" lon="49.1258000"><time>2021-08-14T08:41:57</time></trkpt><trkpt lat="55.8026170" lon="49.1258150"><time>2021-08-14T08:41:58</time></trkpt><trkpt lat="55.8026140" lon="49.1258360"><time>2021-08-14T08:41:59</time></trkpt><trkpt lat="55.8026110" lon="49.1258590"><time>2021-08-14T08:42:00</time></trkpt><trkpt lat="55.8026090" lon="49.1259210"><time>2021-08-14T08:42:01</time></trkpt><trkpt lat="55.8026100" lon="49.1259460"><time>2021-08-14T08:42:02</time></trkpt><trkpt lat="55.8026110" lon="49.1259630"><time>2021-08-14T08:42:03</time></trkpt><trkpt lat="55.8026100" lon="49.1259770"><time>2021-08-14T08:42:04</time></trkpt><trkpt lat="55.8026100" lon="49.1259940"><time>2021-08-14T08:42:05</time></trkpt><trkpt lat="55.8026080" lon="49.1260200"><time>2021-08-14T08:42:06</time></trkpt><trkpt lat="55.8026040" lon="49.1260490"><time>2021-08-14T08:42:07</time></trkpt><trkpt lat="55.8026020" lon="49.1260810"><time>2021-08-14T08:42:08</time></trkpt><trkpt lat="55.8026030" lon="49.1261010"><time>2021-08-14T08:42:09</time></trkpt><trkpt lat="55.8025990" lon="49.1261290"><time>2021-08-14T08:42:10</time></trkpt><trkpt lat="55.8025910" lon="49.1261520"><time>2021-08-14T08:42:11</time></trkpt><trkpt lat="55.8025870" lon="49.1261780"><time>2021-08-14T08:42:12</time></trkpt><trkpt lat="55.8025840" lon="49.1262040"><time>2021-08-14T08:42:13</time></trkpt><trkpt lat="55.8025830" lon="49.1262290"><time>2021-08-14T08:42:14</time></trkpt><trkpt lat="55.8025830" lon="49.1262540"><time>2021-08-14T08:42:15</time></trkpt><trkpt lat="55.8025800" lon="49.1262830"><time>2021-08-14T08:42:16</time></trkpt><trkpt lat="55.8025780" lon="49.1263060"><time>2021-08-14T08:42:17</time></trkpt><trkpt lat="55.8025750" lon="49.1263330"><time>2021-08-14T08:42:18</time></trkpt><trkpt lat="55.8025730" lon="49.1263580"><time>2021-08-14T08:42:19</time></trkpt><trkpt lat="55.8025670" lon="49.1263800"><time>2021-08-14T08:42:20</time></trkpt><trkpt lat="55.8025650" lon="49.1264230"><time>2021-08-14T08:42:21</time></trkpt><trkpt lat="55.8025640" lon="49.1264430"><time>2021-08-14T08:42:22</time></trkpt><trkpt lat="55.8025630" lon="49.1264620"><time>2021-08-14T08:42:23</time></trkpt><trkpt lat="55.8025610" lon="49.1264840"><time>2021-08-14T08:42:24</time></trkpt><trkpt lat="55.8025500" lon="49.1265090"><time>2021-08-14T08:42:25</time></trkpt><trkpt lat="55.8025500" lon="49.1265340"><time>2021-08-14T08:42:26</time></trkpt><trkpt lat="55.8025470" lon="49.1265590"><time>2021-08-14T08:42:27</time></trkpt><trkpt lat="55.8025440" lon="49.1265840"><time>2021-08-14T08:42:28</time></trkpt><trkpt lat="55.8025410" lon="49.1266110"><time>2021-08-14T08:42:29</time></trkpt><trkpt lat="55.8025400" lon="49.1266360"><time>2021-08-14T08:42:30</time></trkpt><trkpt lat="55.8025340" lon="49.1266640"><time>2021-08-14T08:42:31</time></trkpt><trkpt lat="55.8025280" lon="49.1266880"><time>2021-08-14T08:42:32</time></trkpt><trkpt lat="55.8025200" lon="49.1267150"><time>2021-08-14T08:42:33</time></trkpt><trkpt lat="55.8025100" lon="49.1267350"><time>2021-08-14T08:42:34</time></trkpt><trkpt lat="55.8025030" lon="49.1267610"><time>2021-08-14T08:42:35</time></trkpt><trkpt lat="55.8024900" lon="49.1267920"><time>2021-08-14T08:42:36</time></trkpt><trkpt lat="55.8024860" lon="49.1268060"><time>2021-08-14T08:42:37</time></trkpt><trkpt lat="55.8024810" lon="49.1268200"><time>2021-08-14T08:42:38</time></trkpt><trkpt lat="55.8024660" lon="49.1268410"><time>2021-08-14T08:42:39</time></trkpt><trkpt lat="55.8024550" lon="49.1268550"><time>2021-08-14T08:42:40</time></trkpt><trkpt lat="55.8024420" lon="49.1268730"><time>2021-08-14T08:42:41</time></trkpt><trkpt lat="55.8024310" lon="49.1268860"><time>2021-08-14T08:42:42</time></trkpt><trkpt lat="55.8024180" lon="49.1269000"><time>2021-08-14T08:42:43</time></trkpt><trkpt lat="55.8024070" lon="49.1269130"><time>2021-08-14T08:42:44</time></trkpt><trkpt lat="55.8023940" lon="49.1269200"><time>2021-08-14T08:42:45</time></trkpt><trkpt lat="55.8023800" lon="49.1269310"><time>2021-08-14T08:42:46</time></trkpt><trkpt lat="55.8023680" lon="49.1269400"><time>2021-08-14T08:42:47</time></trkpt><trkpt lat="55.8023540" lon="49.1269530"><time>2021-08-14T08:42:48</time></trkpt><trkpt lat="55.8023400" lon="49.1269680"><time>2021-08-14T08:42:49</time></trkpt><trkpt lat="55.8023290" lon="49.1269850"><time>2021-08-14T08:42:50</time></trkpt><trkpt lat="55.8023160" lon="49.1269990"><time>2021-08-14T08:42:51</time></trkpt><trkpt lat="55.8023010" lon="49.1270090"><time>2021-08-14T08:42:52</time></trkpt><trkpt lat="55.8022890" lon="49.1270190"><time>2021-08-14T08:42:53</time></trkpt><trkpt lat="55.8022750" lon="49.1270290"><time>2021-08-14T08:42:54</time></trkpt><trkpt lat="55.8022620" lon="49.1270430"><time>2021-08-14T08:42:55</time></trkpt><trkpt lat="55.8022480" lon="49.1270540"><time>2021-08-14T08:42:56</time></trkpt><trkpt lat="55.8022340" lon="49.1270670"><time>2021-08-14T08:42:57</time></trkpt><trkpt lat="55.8022220" lon="49.1270760"><time>2021-08-14T08:42:58</time></trkpt><trkpt lat="55.8022100" lon="49.1270850"><time>2021-08-14T08:42:59</time></trkpt><trkpt lat="55.8021950" lon="49.1271020"><time>2021-08-14T08:43:00</time></trkpt><trkpt lat="55.8021820" lon="49.1271130"><time>2021-08-14T08:43:01</time></trkpt><trkpt lat="55.8021690" lon="49.1271240"><time>2021-08-14T08:43:02</time></trkpt><trkpt lat="55.8021550" lon="49.1271390"><time>2021-08-14T08:43:03</time></trkpt><trkpt lat="55.8021430" lon="49.1271510"><time>2021-08-14T08:43:04</time></trkpt><trkpt lat="55.8021310" lon="49.1271640"><time>2021-08-14T08:43:05</time></trkpt><trkpt lat="55.8021170" lon="49.1271780"><time>2021-08-14T08:43:06</time></trkpt><trkpt lat="55.8021050" lon="49.1271880"><time>2021-08-14T08:43:07</time></trkpt><trkpt lat="55.8020900" lon="49.1271910"><time>2021-08-14T08:43:08</time></trkpt><trkpt lat="55.8020770" lon="49.1272090"><time>2021-08-14T08:43:09</time></trkpt><trkpt lat="55.8020630" lon="49.1272210"><time>2021-08-14T08:43:10</time></trkpt><trkpt lat="55.8020420" lon="49.1272380"><time>2021-08-14T08:43:11</time></trkpt><trkpt lat="55.8020330" lon="49.1272450"><time>2021-08-14T08:43:12</time></trkpt><trkpt lat="55.8020250" lon="49.1272520"><time>2021-08-14T08:43:13</time></trkpt><trkpt lat="55.8020110" lon="49.1272640"><time>2021-08-14T08:43:14</time></trkpt><trkpt lat="55.8019970" lon="49.1272740"><time>2021-08-14T08:43:15</time></trkpt><trkpt lat="55.8019830" lon="49.1272900"><time>2021-08-14T08:43:16</time></trkpt><trkpt lat="55.8019700" lon="49.1273010"><time>2021-08-14T08:43:17</time></trkpt><trkpt lat="55.8019480" lon="49.1273190"><time>2021-08-14T08:43:18</time></trkpt><trkpt lat="55.8019400" lon="49.1273270"><time>2021-08-14T08:43:19</time></trkpt><trkpt lat="55.8019320" lon="49.1273350"><time>2021-08-14T08:43:20</time></trkpt><trkpt lat="55.8019210" lon="49.1273430"><time>2021-08-14T08:43:21</time></trkpt><trkpt lat="55.8019030" lon="49.1273580"><time>2021-08-14T08:43:22</time></trkpt><trkpt lat="55.8018900" lon="49.1273720"><time>2021-08-14T08:43:23</time></trkpt><trkpt lat="55.8018760" lon="49.1273810"><time>2021-08-14T08:43:24</time></trkpt><trkpt lat="55.8018630" lon="49.1273940"><time>2021-08-14T08:43:25</time></trkpt><trkpt lat="55.8018480" lon="49.1274040"><time>2021-08-14T08:43:27</time></trkpt><trkpt lat="55.8018380" lon="49.1274170"><time>2021-08-14T08:43:28</time></trkpt><trkpt lat="55.8018230" lon="49.1274290"><time>2021-08-14T08:43:29</time></trkpt><trkpt lat="55.8018070" lon="49.1274390"><time>2021-08-14T08:43:30</time></trkpt><trkpt lat="55.8017940" lon="49.1274490"><time>2021-08-14T08:43:31</time></trkpt><trkpt lat="55.8017800" lon="49.1274610"><time>2021-08-14T08:43:32</time></trkpt><trkpt lat="55.8017670" lon="49.1274700"><time>2021-08-14T08:43:33</time></trkpt><trkpt lat="55.8017530" lon="49.1274820"><time>2021-08-14T08:43:34</time></trkpt><trkpt lat="55.8017390" lon="49.1274940"><time>2021-08-14T08:43:35</time></trkpt><trkpt lat="55.8017260" lon="49.1275090"><time>2021-08-14T08:43:36</time></trkpt><trkpt lat="55.8017120" lon="49.1275190"><time>2021-08-14T08:43:37</time></trkpt><trkpt lat="55.8016960" lon="49.1275270"><time>2021-08-14T08:43:38</time></trkpt><trkpt lat="55.8016820" lon="49.1275420"><time>2021-08-14T08:43:39</time></trkpt><trkpt lat="55.8016680" lon="49.1275500"><time>2021-08-14T08:43:40</time></trkpt><trkpt lat="55.8016560" lon="49.1275640"><time>2021-08-14T08:43:41</time></trkpt><trkpt lat="55.8016420" lon="49.1275780"><time>2021-08-14T08:43:42</time></trkpt><trkpt lat="55.8016280" lon="49.1275870"><time>2021-08-14T08:43:43</time></trkpt><trkpt lat="55.8016140" lon="49.1275960"><time>2021-08-14T08:43:44</time></trkpt><trkpt lat="55.8016000" lon="49.1276070"><time>2021-08-14T08:43:45</time></trkpt><trkpt lat="55.8015880" lon="49.1276170"><time>2021-08-14T08:43:46</time></trkpt><trkpt lat="55.8015730" lon="49.1276340"><time>2021-08-14T08:43:47</time></trkpt><trkpt lat="55.8015590" lon="49.1276470"><time>2021-08-14T08:43:48</time></trkpt><trkpt lat="55.8015460" lon="49.1276600"><time>2021-08-14T08:43:49</time></trkpt><trkpt lat="55.8015320" lon="49.1276690"><time>2021-08-14T08:43:50</time></trkpt><trkpt lat="55.8015180" lon="49.1276780"><time>2021-08-14T08:43:51</time></trkpt><trkpt lat="55.8015050" lon="49.1276900"><time>2021-08-14T08:43:52</time></trkpt><trkpt lat="55.8014900" lon="49.1276980"><time>2021-08-14T08:43:53</time></trkpt><trkpt lat="55.8014760" lon="49.1277120"><time>2021-08-14T08:43:54</time></trkpt><trkpt lat="55.8014630" lon="49.1277210"><time>2021-08-14T08:43:55</time></trkpt><trkpt lat="55.8014510" lon="49.1277380"><time>2021-08-14T08:43:56</time></trkpt><trkpt lat="55.8014370" lon="49.1277490"><time>2021-08-14T08:43:57</time></trkpt><trkpt lat="55.8014230" lon="49.1277620"><time>2021-08-14T08:43:58</time></trkpt><trkpt lat="55.8014090" lon="49.1277750"><time>2021-08-14T08:43:59</time></trkpt><trkpt lat="55.8013950" lon="49.1277840"><time>2021-08-14T08:44:00</time></trkpt><trkpt lat="55.8013810" lon="49.1277980"><time>2021-08-14T08:44:01</time></trkpt><trkpt lat="55.8013680" lon="49.1278160"><time>2021-08-14T08:44:02</time></trkpt><trkpt lat="55.8013550" lon="49.1278330"><time>2021-08-14T08:44:03</time></trkpt><trkpt lat="55.8013450" lon="49.1278540"><time>2021-08-14T08:44:04</time></trkpt><trkpt lat="55.8013360" lon="49.1278740"><time>2021-08-14T08:44:05</time></trkpt><trkpt lat="55.8013280" lon="49.1278990"><time>2021-08-14T08:44:06</time></trkpt><trkpt lat="55.8013220" lon="49.1279250"><time>2021-08-14T08:44:07</time></trkpt><trkpt lat="55.8013190" lon="49.1279540"><time>2021-08-14T08:44:08</time></trkpt><trkpt lat="55.8013140" lon="49.1279810"><time>2021-08-14T08:44:09</time></trkpt><trkpt lat="55.8013080" lon="49.1280060"><time>2021-08-14T08:44:10</time></trkpt><trkpt lat="55.8013070" lon="49.1280350"><time>2021-08-14T08:44:11</time></trkpt><trkpt lat="55.8013040" lon="49.1280600"><time>2021-08-14T08:44:12</time></trkpt><trkpt lat="55.8013010" lon="49.1281140"><time>2021-08-14T08:44:13</time></trkpt><trkpt lat="55.8012970" lon="49.1281370"><time>2021-08-14T08:44:14</time></trkpt><trkpt lat="55.8012950" lon="49.1281660"><time>2021-08-14T08:44:15</time></trkpt><trkpt lat="55.8012940" lon="49.1281930"><time>2021-08-14T08:44:16</time></trkpt><trkpt lat="55.8012900" lon="49.1282180"><time>2021-08-14T08:44:17</time></trkpt><trkpt lat="55.8012890" lon="49.1282440"><time>2021-08-14T08:44:18</time></trkpt><trkpt lat="55.8012860" lon="49.1282690"><time>2021-08-14T08:44:19</time></trkpt><trkpt lat="55.8012840" lon="49.1282940"><time>2021-08-14T08:44:20</time></trkpt><trkpt lat="55.8012760" lon="49.1283310"><time>2021-08-14T08:44:21</time></trkpt><trkpt lat="55.8012740" lon="49.1283490"><time>2021-08-14T08:44:22</time></trkpt><trkpt lat="55.8012730" lon="49.1283670"><time>2021-08-14T08:44:23</time></trkpt><trkpt lat="55.8012720" lon="49.1283920"><time>2021-08-14T08:44:24</time></trkpt><trkpt lat="55.8012710" lon="49.1284210"><time>2021-08-14T08:44:25</time></trkpt><trkpt lat="55.8012700" lon="49.1284480"><time>2021-08-14T08:44:26</time></trkpt><trkpt lat="55.8012660" lon="49.1284740"><time>2021-08-14T08:44:27</time></trkpt><trkpt lat="55.8012660" lon="49.1285060"><time>2021-08-14T08:44:28</time></trkpt><trkpt lat="55.8012620" lon="49.1285310"><time>2021-08-14T08:44:29</time></trkpt><trkpt lat="55.8012590" lon="49.1285530"><time>2021-08-14T08:44:30</time></trkpt><trkpt lat="55.8012600" lon="49.1285790"><time>2021-08-14T08:44:31</time></trkpt><trkpt lat="55.8012550" lon="49.1286040"><time>2021-08-14T08:44:32</time></trkpt><trkpt lat="55.8012550" lon="49.1286310"><time>2021-08-14T08:44:33</time></trkpt><trkpt lat="55.8012530" lon="49.1286580"><time>2021-08-14T08:44:34</time></trkpt><trkpt lat="55.8012500" lon="49.1286840"><time>2021-08-14T08:44:35</time></trkpt><trkpt lat="55.8012490" lon="49.1287100"><time>2021-08-14T08:44:36</time></trkpt><trkpt lat="55.8012430" lon="49.1287350"><time>2021-08-14T08:44:37</time></trkpt><trkpt lat="55.8012410" lon="49.1287610"><time>2021-08-14T08:44:38</time></trkpt><trkpt lat="55.8012390" lon="49.1287870"><time>2021-08-14T08:44:39</time></trkpt><trkpt lat="55.8012350" lon="49.1288140"><time>2021-08-14T08:44:40</time></trkpt><trkpt lat="55.8012310" lon="49.1288400"><time>2021-08-14T08:44:41</time></trkpt><trkpt lat="55.8012260" lon="49.1288650"><time>2021-08-14T08:44:42</time></trkpt><trkpt lat="55.8012190" lon="49.1288890"><time>2021-08-14T08:44:43</time></trkpt><trkpt lat="55.8012100" lon="49.1289140"><time>2021-08-14T08:44:44</time></trkpt><trkpt lat="55.8012020" lon="49.1289360"><time>2021-08-14T08:44:45</time></trkpt><trkpt lat="55.8011930" lon="49.1289530"><time>2021-08-14T08:44:46</time></trkpt><trkpt lat="55.8011830" lon="49.1289740"><time>2021-08-14T08:44:47</time></trkpt><trkpt lat="55.8011730" lon="49.1289930"><time>2021-08-14T08:44:48</time></trkpt><trkpt lat="55.8011610" lon="49.1290110"><time>2021-08-14T08:44:49</time></trkpt><trkpt lat="55.8011480" lon="49.1290270"><time>2021-08-14T08:44:50</time></trkpt><trkpt lat="55.8011350" lon="49.1290390"><time>2021-08-14T08:44:51</time></trkpt><trkpt lat="55.8011230" lon="49.1290550"><time>2021-08-14T08:44:52</time></trkpt><trkpt lat="55.8011100" lon="49.1290660"><time>2021-08-14T08:44:53</time></trkpt><trkpt lat="55.8010980" lon="49.1290830"><time>2021-08-14T08:44:54</time></trkpt><trkpt lat="55.8010840" lon="49.1290860"><time>2021-08-14T08:44:55</time></trkpt><trkpt lat="55.8010730" lon="49.1290960"><time>2021-08-14T08:44:56</time></trkpt><trkpt lat="55.8010590" lon="49.1291060"><time>2021-08-14T08:44:57</time></trkpt><trkpt lat="55.8010440" lon="49.1291100"><time>2021-08-14T08:44:58</time></trkpt><trkpt lat="55.8010280" lon="49.1291160"><time>2021-08-14T08:44:59</time></trkpt><trkpt lat="55.8010120" lon="49.1291160"><time>2021-08-14T08:45:00</time></trkpt><trkpt lat="55.8009980" lon="49.1291250"><time>2021-08-14T08:45:01</time></trkpt><trkpt lat="55.8009840" lon="49.1291340"><time>2021-08-14T08:45:02</time></trkpt><trkpt lat="55.8009670" lon="49.1291350"><time>2021-08-14T08:45:03</time></trkpt><trkpt lat="55.8009530" lon="49.1291390"><time>2021-08-14T08:45:04</time></trkpt><trkpt lat="55.8009390" lon="49.1291440"><time>2021-08-14T08:45:05</time></trkpt><trkpt lat="55.8009230" lon="49.1291510"><time>2021-08-14T08:45:06</time></trkpt><trkpt lat="55.8009090" lon="49.1291520"><time>2021-08-14T08:45:07</time></trkpt><trkpt lat="55.8008950" lon="49.1291560"><time>2021-08-14T08:45:08</time></trkpt><trkpt lat="55.8008790" lon="49.1291630"><time>2021-08-14T08:45:09</time></trkpt><trkpt lat="55.8008570" lon="49.1291700"><time>2021-08-14T08:45:10</time></trkpt><trkpt lat="55.8008480" lon="49.1291740"><time>2021-08-14T08:45:11</time></trkpt><trkpt lat="55.8008400" lon="49.1291780"><time>2021-08-14T08:45:12</time></trkpt><trkpt lat="55.8008220" lon="49.1291810"><time>2021-08-14T08:45:13</time></trkpt><trkpt lat="55.8008050" lon="49.1291880"><time>2021-08-14T08:45:14</time></trkpt><trkpt lat="55.8007890" lon="49.1291820"><time>2021-08-14T08:45:15</time></trkpt><trkpt lat="55.8007760" lon="49.1292000"><time>2021-08-14T08:45:16</time></trkpt><trkpt lat="55.8007630" lon="49.1292050"><time>2021-08-14T08:45:17</time></trkpt><trkpt lat="55.8007420" lon="49.1292120"><time>2021-08-14T08:45:18</time></trkpt><trkpt lat="55.8007290" lon="49.1292110"><time>2021-08-14T08:45:19</time></trkpt><trkpt lat="55.8007110" lon="49.1292150"><time>2021-08-14T08:45:20</time></trkpt><trkpt lat="55.8006980" lon="49.1292170"><time>2021-08-14T08:45:21</time></trkpt><trkpt lat="55.8006820" lon="49.1292170"><time>2021-08-14T08:45:22</time></trkpt><trkpt lat="55.8006720" lon="49.1292120"><time>2021-08-14T08:45:23</time></trkpt><trkpt lat="55.8006540" lon="49.1292230"><time>2021-08-14T08:45:24</time></trkpt><trkpt lat="55.8006400" lon="49.1292260"><time>2021-08-14T08:45:25</time></trkpt><trkpt lat="55.8006250" lon="49.1292290"><time>2021-08-14T08:45:26</time></trkpt><trkpt lat="55.8006070" lon="49.1292340"><time>2021-08-14T08:45:27</time></trkpt><trkpt lat="55.8005910" lon="49.1292450"><time>2021-08-14T08:45:28</time></trkpt><trkpt lat="55.8005750" lon="49.1292510"><time>2021-08-14T08:45:29</time></trkpt><trkpt lat="55.8005600" lon="49.1292530"><time>2021-08-14T08:45:30</time></trkpt><trkpt lat="55.8005330" lon="49.1292680"><time>2021-08-14T08:45:31</time></trkpt><trkpt lat="55.8005210" lon="49.1292750"><time>2021-08-14T08:45:33</time></trkpt><trkpt lat="55.8005100" lon="49.1292830"><time>2021-08-14T08:45:34</time></trkpt><trkpt lat="55.8004980" lon="49.1292900"><time>2021-08-14T08:45:35</time></trkpt><trkpt lat="55.8004860" lon="49.1293050"><time>2021-08-14T08:45:36</time></trkpt><trkpt lat="55.8004740" lon="49.1293210"><time>2021-08-14T08:45:37</time></trkpt><trkpt lat="55.8004610" lon="49.1293340"><time>2021-08-14T08:45:38</time></trkpt><trkpt lat="55.8004480" lon="49.1293520"><time>2021-08-14T08:45:39</time></trkpt><trkpt lat="55.8004340" lon="49.1293640"><time>2021-08-14T08:45:40</time></trkpt><trkpt lat="55.8004240" lon="49.1293890"><time>2021-08-14T08:45:41</time></trkpt><trkpt lat="55.8004150" lon="49.1294110"><time>2021-08-14T08:45:42</time></trkpt><trkpt lat="55.8004040" lon="49.1294310"><time>2021-08-14T08:45:43</time></trkpt><trkpt lat="55.8003960" lon="49.1294510"><time>2021-08-14T08:45:44</time></trkpt><trkpt lat="55.8003880" lon="49.1294730"><time>2021-08-14T08:45:45</time></trkpt><trkpt lat="55.8003790" lon="49.1294980"><time>2021-08-14T08:45:46</time></trkpt><trkpt lat="55.8003670" lon="49.1295140"><time>2021-08-14T08:45:47</time></trkpt><trkpt lat="55.8003580" lon="49.1295350"><time>2021-08-14T08:45:48</time></trkpt><trkpt lat="55.8003480" lon="49.1295530"><time>2021-08-14T08:45:49</time></trkpt><trkpt lat="55.8003360" lon="49.1295670"><time>2021-08-14T08:45:50</time></trkpt><trkpt lat="55.8003300" lon="49.1295940"><time>2021-08-14T08:45:51</time></trkpt><trkpt lat="55.8003160" lon="49.1296280"><time>2021-08-14T08:45:52</time></trkpt><trkpt lat="55.8003100" lon="49.1296400"><time>2021-08-14T08:45:53</time></trkpt><trkpt lat="55.8003030" lon="49.1296510"><time>2021-08-14T08:45:54</time></trkpt><trkpt lat="55.8002950" lon="49.1296750"><time>2021-08-14T08:45:55</time></trkpt><trkpt lat="55.8002850" lon="49.1296930"><time>2021-08-14T08:45:56</time></trkpt><trkpt lat="55.8002740" lon="49.1297270"><time>2021-08-14T08:45:57</time></trkpt><trkpt lat="55.8002690" lon="49.1297410"><time>2021-08-14T08:45:58</time></trkpt><trkpt lat="55.8002640" lon="49.1297560"><time>2021-08-14T08:45:59</time></trkpt><trkpt lat="55.8002570" lon="49.1297780"><time>2021-08-14T08:46:00</time></trkpt><trkpt lat="55.8002490" lon="49.1297970"><time>2021-08-14T08:46:01</time></trkpt><trkpt lat="55.8002410" lon="49.1298130"><time>2021-08-14T08:46:02</time></trkpt><trkpt lat="55.8002380" lon="49.1298120"><time>2021-08-14T08:46:03</time></trkpt><trkpt lat="55.8002340" lon="49.1298120"><time>2021-08-14T08:46:04</time></trkpt><trkpt lat="55.8002310" lon="49.1298120"><time>2021-08-14T08:46:05</time></trkpt><trkpt lat="55.8002270" lon="49.1298120"><time>2021-08-14T08:46:06</time></trkpt><trkpt lat="55.8002240" lon="49.1298110"><time>2021-08-14T08:46:07</time></trkpt><trkpt lat="55.8002200" lon="49.1298110"><time>2021-08-14T08:46:08</time></trkpt><trkpt lat="55.8002170" lon="49.1298110"><time>2021-08-14T08:46:09</time></trkpt><trkpt lat="55.8002130" lon="49.1298110"><time>2021-08-14T08:46:10</time></trkpt><trkpt lat="55.8002100" lon="49.1298100"><time>2021-08-14T08:46:11</time></trkpt><trkpt lat="55.8002060" lon="49.1298100"><time>2021-08-14T08:46:12</time></trkpt><trkpt lat="55.8002000" lon="49.1298000"><time>2021-08-14T08:46:13</time></trkpt><trkpt lat="55.8001960" lon="49.1298000"><time>2021-08-14T08:46:14</time></trkpt><trkpt lat="55.8001940" lon="49.1298010"><time>2021-08-14T08:46:15</time></trkpt><trkpt lat="55.8001830" lon="49.1297980"><time>2021-08-14T08:46:16</time></trkpt><trkpt lat="55.8001770" lon="49.1297950"><time>2021-08-14T08:46:17</time></trkpt><trkpt lat="55.8001700" lon="49.1297890"><time>2021-08-14T08:46:18</time></trkpt><trkpt lat="55.8001630" lon="49.1297840"><time>2021-08-14T08:46:19</time></trkpt><trkpt lat="55.8001520" lon="49.1297820"><time>2021-08-14T08:46:20</time></trkpt><trkpt lat="55.8001490" lon="49.1297860"><time>2021-08-14T08:46:21</time></trkpt><trkpt lat="55.8001440" lon="49.1297780"><time>2021-08-14T08:46:22</time></trkpt><trkpt lat="55.8001360" lon="49.1297750"><time>2021-08-14T08:46:23</time></trkpt><trkpt lat="55.8001300" lon="49.1297720"><time>2021-08-14T08:46:24</time></trkpt><trkpt lat="55.8001290" lon="49.1297720"><time>2021-08-14T08:46:25</time></trkpt><trkpt lat="55.8001230" lon="49.1297720"><time>2021-08-14T08:46:26</time></trkpt><trkpt lat="55.8001240" lon="49.1297730"><time>2021-08-14T08:46:27</time></trkpt><trkpt lat="55.8001240" lon="49.1297790"><time>2021-08-14T08:46:28</time></trkpt><trkpt lat="55.8001190" lon="49.1297790"><time>2021-08-14T08:46:29</time></trkpt><trkpt lat="55.8001150" lon="49.1297770"><time>2021-08-14T08:46:30</time></trkpt><trkpt lat="55.8001110" lon="49.1297770"><time>2021-08-14T08:46:31</time></trkpt><trkpt lat="55.8001020" lon="49.1297800"><time>2021-08-14T08:46:32</time></trkpt><trkpt lat="55.8000920" lon="49.1297650"><time>2021-08-14T08:46:33</time></trkpt><trkpt lat="55.8000760" lon="49.1297620"><time>2021-08-14T08:46:34</time></trkpt><trkpt lat="55.8000650" lon="49.1297570"><time>2021-08-14T08:46:35</time></trkpt><trkpt lat="55.8000600" lon="49.1297480"><time>2021-08-14T08:46:36</time></trkpt><trkpt lat="55.8000530" lon="49.1297440"><time>2021-08-14T08:46:37</time></trkpt><trkpt lat="55.8000470" lon="49.1297390"><time>2021-08-14T08:46:38</time></trkpt><trkpt lat="55.8000370" lon="49.1297340"><time>2021-08-14T08:46:39</time></trkpt><trkpt lat="55.8000320" lon="49.1297300"><time>2021-08-14T08:46:40</time></trkpt><trkpt lat="55.8000280" lon="49.1297270"><time>2021-08-14T08:46:41</time></trkpt><trkpt lat="55.8000230" lon="49.1297210"><time>2021-08-14T08:46:42</time></trkpt><trkpt lat="55.8000170" lon="49.1297150"><time>2021-08-14T08:46:43</time></trkpt><trkpt lat="55.8000130" lon="49.1297120"><time>2021-08-14T08:46:44</time></trkpt><trkpt lat="55.8000080" lon="49.1297120"><time>2021-08-14T08:46:45</time></trkpt><trkpt lat="55.7999980" lon="49.1297070"><time>2021-08-14T08:46:46</time></trkpt><trkpt lat="55.7999940" lon="49.1297060"><time>2021-08-14T08:46:47</time></trkpt><trkpt lat="55.7999900" lon="49.1297040"><time>2021-08-14T08:46:48</time></trkpt><trkpt lat="55.7999800" lon="49.1297070"><time>2021-08-14T08:46:49</time></trkpt><trkpt lat="55.7999720" lon="49.1296990"><time>2021-08-14T08:46:50</time></trkpt><trkpt lat="55.7999740" lon="49.1297010"><time>2021-08-14T08:46:51</time></trkpt><trkpt lat="55.7999670" lon="49.1297030"><time>2021-08-14T08:46:52</time></trkpt><trkpt lat="55.7999580" lon="49.1297120"><time>2021-08-14T08:46:53</time></trkpt><trkpt lat="55.7999470" lon="49.1297100"><time>2021-08-14T08:46:54</time></trkpt><trkpt lat="55.7999520" lon="49.1297080"><time>2021-08-14T08:46:55</time></trkpt><trkpt lat="55.7999350" lon="49.1297060"><time>2021-08-14T08:46:56</time></trkpt><trkpt lat="55.7999260" lon="49.1297080"><time>2021-08-14T08:46:57</time></trkpt><trkpt lat="55.7999210" lon="49.1297090"><time>2021-08-14T08:46:58</time></trkpt><trkpt lat="55.7999160" lon="49.1297110"><time>2021-08-14T08:46:59</time></trkpt><trkpt lat="55.7999110" lon="49.1297120"><time>2021-08-14T08:47:00</time></trkpt><trkpt lat="55.7999060" lon="49.1297140"><time>2021-08-14T08:47:01</time></trkpt><trkpt lat="55.7999010" lon="49.1297150"><time>2021-08-14T08:47:02</time></trkpt><trkpt lat="55.7998960" lon="49.1297170"><time>2021-08-14T08:47:03</time></trkpt><trkpt lat="55.7998800" lon="49.1297280"><time>2021-08-14T08:47:04</time></trkpt><trkpt lat="55.7998650" lon="49.1297480"><time>2021-08-14T08:47:05</time></trkpt><trkpt lat="55.7998500" lon="49.1297580"><time>2021-08-14T08:47:06</time></trkpt><trkpt lat="55.7998410" lon="49.1297740"><time>2021-08-14T08:47:07</time></trkpt><trkpt lat="55.7998260" lon="49.1298070"><time>2021-08-14T08:47:08</time></trkpt><trkpt lat="55.7998220" lon="49.1298210"><time>2021-08-14T08:47:09</time></trkpt><trkpt lat="55.7998180" lon="49.1298360"><time>2021-08-14T08:47:10</time></trkpt><trkpt lat="55.7998110" lon="49.1298470"><time>2021-08-14T08:47:11</time></trkpt><trkpt lat="55.7998050" lon="49.1298580"><time>2021-08-14T08:47:12</time></trkpt><trkpt lat="55.7997980" lon="49.1298680"><time>2021-08-14T08:47:13</time></trkpt><trkpt lat="55.7997910" lon="49.1298780"><time>2021-08-14T08:47:14</time></trkpt><trkpt lat="55.7997870" lon="49.1298910"><time>2021-08-14T08:47:15</time></trkpt><trkpt lat="55.7997850" lon="49.1298890"><time>2021-08-14T08:47:16</time></trkpt><trkpt lat="55.7997880" lon="49.1298870"><time>2021-08-14T08:47:17</time></trkpt><trkpt lat="55.7997900" lon="49.1298870"><time>2021-08-14T08:47:18</time></trkpt><trkpt lat="55.7997930" lon="49.1299010"><time>2021-08-14T08:47:19</time></trkpt><trkpt lat="55.7997920" lon="49.1299030"><time>2021-08-14T08:47:20</time></trkpt><trkpt lat="55.7997890" lon="49.1298940"><time>2021-08-14T08:47:21</time></trkpt><trkpt lat="55.7997870" lon="49.1298960"><time>2021-08-14T08:47:22</time></trkpt><trkpt lat="55.7997950" lon="49.1298930"><time>2021-08-14T08:47:23</time></trkpt><trkpt lat="55.7997920" lon="49.1299000"><time>2021-08-14T08:47:24</time></trkpt><trkpt lat="55.7997930" lon="49.1298960"><time>2021-08-14T08:47:25</time></trkpt><trkpt lat="55.7997920" lon="49.1298950"><time>2021-08-14T08:47:26</time></trkpt><trkpt lat="55.7998040" lon="49.1298920"><time>2021-08-14T08:47:27</time></trkpt><trkpt lat="55.7998170" lon="49.1298750"><time>2021-08-14T08:47:28</time></trkpt><trkpt lat="55.7998320" lon="49.1298500"><time>2021-08-14T08:47:29</time></trkpt><trkpt lat="55.7998510" lon="49.1298080"><time>2021-08-14T08:47:30</time></trkpt><trkpt lat="55.7998570" lon="49.1297990"><time>2021-08-14T08:47:31</time></trkpt><trkpt lat="55.7998600" lon="49.1297820"><time>2021-08-14T08:47:32</time></trkpt><trkpt lat="55.7998610" lon="49.1297610"><time>2021-08-14T08:47:33</time></trkpt><trkpt lat="55.7998670" lon="49.1297460"><time>2021-08-14T08:47:34</time></trkpt><trkpt lat="55.7998730" lon="49.1297300"><time>2021-08-14T08:47:35</time></trkpt><trkpt lat="55.7998810" lon="49.1297170"><time>2021-08-14T08:47:36</time></trkpt><trkpt lat="55.7998970" lon="49.1297100"><time>2021-08-14T08:47:37</time></trkpt><trkpt lat="55.7998920" lon="49.1297230"><time>2021-08-14T08:47:39</time></trkpt><trkpt lat="55.7998890" lon="49.1297330"><time>2021-08-14T08:47:40</time></trkpt><trkpt lat="55.7998860" lon="49.1297440"><time>2021-08-14T08:47:41</time></trkpt><trkpt lat="55.7998830" lon="49.1297540"><time>2021-08-14T08:47:42</time></trkpt><trkpt lat="55.7998800" lon="49.1297650"><time>2021-08-14T08:47:43</time></trkpt><trkpt lat="55.7998770" lon="49.1297750"><time>2021-08-14T08:47:44</time></trkpt><trkpt lat="55.7998740" lon="49.1297860"><time>2021-08-14T08:47:45</time></trkpt><trkpt lat="55.7998710" lon="49.1297960"><time>2021-08-14T08:47:46</time></trkpt><trkpt lat="55.7998660" lon="49.1298330"><time>2021-08-14T08:47:47</time></trkpt><trkpt lat="55.7998630" lon="49.1298550"><time>2021-08-14T08:47:48</time></trkpt><trkpt lat="55.7998610" lon="49.1298920"><time>2021-08-14T08:47:49</time></trkpt><trkpt lat="55.7998610" lon="49.1299080"><time>2021-08-14T08:47:50</time></trkpt><trkpt lat="55.7998600" lon="49.1299240"><time>2021-08-14T08:47:51</time></trkpt><trkpt lat="55.7998590" lon="49.1299600"><time>2021-08-14T08:47:52</time></trkpt><trkpt lat="55.7998570" lon="49.1299770"><time>2021-08-14T08:47:53</time></trkpt><trkpt lat="55.7998550" lon="49.1299950"><time>2021-08-14T08:47:54</time></trkpt><trkpt lat="55.7998580" lon="49.1300210"><time>2021-08-14T08:47:55</time></trkpt><trkpt lat="55.7998590" lon="49.1300510"><time>2021-08-14T08:47:56</time></trkpt><trkpt lat="55.7998610" lon="49.1300890"><time>2021-08-14T08:47:57</time></trkpt><trkpt lat="55.7998630" lon="49.1301050"><time>2021-08-14T08:47:58</time></trkpt><trkpt lat="55.7998640" lon="49.1301210"><time>2021-08-14T08:47:59</time></trkpt><trkpt lat="55.7998660" lon="49.1301410"><time>2021-08-14T08:48:00</time></trkpt><trkpt lat="55.7998680" lon="49.1301700"><time>2021-08-14T08:48:01</time></trkpt><trkpt lat="55.7998660" lon="49.1301930"><time>2021-08-14T08:48:02</time></trkpt><trkpt lat="55.7998640" lon="49.1302180"><time>2021-08-14T08:48:03</time></trkpt><trkpt lat="55.7998610" lon="49.1302410"><time>2021-08-14T08:48:04</time></trkpt><trkpt lat="55.7998600" lon="49.1302680"><time>2021-08-14T08:48:05</time></trkpt><trkpt lat="55.7998620" lon="49.1302910"><time>2021-08-14T08:48:06</time></trkpt><trkpt lat="55.7998590" lon="49.1303160"><time>2021-08-14T08:48:07</time></trkpt><trkpt lat="55.7998580" lon="49.1303560"><time>2021-08-14T08:48:08</time></trkpt><trkpt lat="55.7998560" lon="49.1303700"><time>2021-08-14T08:48:09</time></trkpt><trkpt lat="55.7998550" lon="49.1303850"><time>2021-08-14T08:48:10</time></trkpt><trkpt lat="55.7998530" lon="49.1304270"><time>2021-08-14T08:48:11</time></trkpt><trkpt lat="55.7998530" lon="49.1304440"><time>2021-08-14T08:48:12</time></trkpt><trkpt lat="55.7998520" lon="49.1304620"><time>2021-08-14T08:48:13</time></trkpt><trkpt lat="55.7998530" lon="49.1304880"><time>2021-08-14T08:48:14</time></trkpt><trkpt lat="55.7998530" lon="49.1305100"><time>2021-08-14T08:48:15</time></trkpt><trkpt lat="55.7998520" lon="49.1305390"><time>2021-08-14T08:48:16</time></trkpt><trkpt lat="55.7998440" lon="49.1305810"><time>2021-08-14T08:48:17</time></trkpt><trkpt lat="55.7998420" lon="49.1306140"><time>2021-08-14T08:48:18</time></trkpt><trkpt lat="55.7998410" lon="49.1306240"><time>2021-08-14T08:48:19</time></trkpt><trkpt lat="55.7998400" lon="49.1306490"><time>2021-08-14T08:48:20</time></trkpt><trkpt lat="55.7998380" lon="49.1306720"><time>2021-08-14T08:48:21</time></trkpt><trkpt lat="55.7998390" lon="49.1306970"><time>2021-08-14T08:48:22</time></trkpt><trkpt lat="55.7998370" lon="49.1307090"><time>2021-08-14T08:48:23</time></trkpt><trkpt lat="55.7998370" lon="49.1307280"><time>2021-08-14T08:48:24</time></trkpt><trkpt lat="55.7998380" lon="49.1307770"><time>2021-08-14T08:48:25</time></trkpt><trkpt lat="55.7998380" lon="49.1307930"><time>2021-08-14T08:48:26</time></trkpt><trkpt lat="55.7998340" lon="49.1308190"><time>2021-08-14T08:48:27</time></trkpt><trkpt lat="55.7998330" lon="49.1308340"><time>2021-08-14T08:48:28</time></trkpt><trkpt lat="55.7998320" lon="49.1308550"><time>2021-08-14T08:48:29</time></trkpt><trkpt lat="55.7998340" lon="49.1308820"><time>2021-08-14T08:48:30</time></trkpt><trkpt lat="55.7998370" lon="49.1309080"><time>2021-08-14T08:48:31</time></trkpt><trkpt lat="55.7998400" lon="49.1309220"><time>2021-08-14T08:48:32</time></trkpt><trkpt lat="55.7998410" lon="49.1309470"><time>2021-08-14T08:48:33</time></trkpt><trkpt lat="55.7998430" lon="49.1309690"><time>2021-08-14T08:48:34</time></trkpt><trkpt lat="55.7998450" lon="49.1309970"><time>2021-08-14T08:48:35</time></trkpt><trkpt lat="55.7998470" lon="49.1310200"><time>2021-08-14T08:48:36</time></trkpt><trkpt lat="55.7998520" lon="49.1310350"><time>2021-08-14T08:48:37</time></trkpt><trkpt lat="55.7998580" lon="49.1310550"><time>2021-08-14T08:48:38</time></trkpt><trkpt lat="55.7998630" lon="49.1310780"><time>2021-08-14T08:48:39</time></trkpt><trkpt lat="55.7998690" lon="49.1311270"><time>2021-08-14T08:48:40</time></trkpt><trkpt lat="55.7998720" lon="49.1311410"><time>2021-08-14T08:48:41</time></trkpt><trkpt lat="55.7998820" lon="49.1311800"><time>2021-08-14T08:48:42</time></trkpt><trkpt lat="55.7998850" lon="49.1311920"><time>2021-08-14T08:48:43</time></trkpt><trkpt lat="55.7998900" lon="49.1312230"><time>2021-08-14T08:48:44</time></trkpt><trkpt lat="55.7998910" lon="49.1312440"><time>2021-08-14T08:48:45</time></trkpt><trkpt lat="55.7998940" lon="49.1312960"><time>2021-08-14T08:48:46</time></trkpt><trkpt lat="55.7998960" lon="49.1313120"><time>2021-08-14T08:48:47</time></trkpt><trkpt lat="55.7999000" lon="49.1313410"><time>2021-08-14T08:48:48</time></trkpt><trkpt lat="55.7999030" lon="49.1313690"><time>2021-08-14T08:48:49</time></trkpt><trkpt lat="55.7999080" lon="49.1314100"><time>2021-08-14T08:48:50</time></trkpt><trkpt lat="55.7999100" lon="49.1314270"><time>2021-08-14T08:48:51</time></trkpt><trkpt lat="55.7999110" lon="49.1314440"><time>2021-08-14T08:48:52</time></trkpt><trkpt lat="55.7999160" lon="49.1314660"><time>2021-08-14T08:48:53</time></trkpt><trkpt lat="55.7999180" lon="49.1314910"><time>2021-08-14T08:48:54</time></trkpt><trkpt lat="55.7999200" lon="49.1315180"><time>2021-08-14T08:48:55</time></trkpt><trkpt lat="55.7999220" lon="49.1315430"><time>2021-08-14T08:48:56</time></trkpt><trkpt lat="55.7999220" lon="49.1315660"><time>2021-08-14T08:48:57</time></trkpt><trkpt lat="55.7999260" lon="49.1315920"><time>2021-08-14T08:48:58</time></trkpt><trkpt lat="55.7999290" lon="49.1316170"><time>2021-08-14T08:48:59</time></trkpt><trkpt lat="55.7999320" lon="49.1316410"><time>2021-08-14T08:49:00</time></trkpt><trkpt lat="55.7999380" lon="49.1316660"><time>2021-08-14T08:49:01</time></trkpt><trkpt lat="55.7999420" lon="49.1316910"><time>2021-08-14T08:49:02</time></trkpt><trkpt lat="55.7999430" lon="49.1317160"><time>2021-08-14T08:49:03</time></trkpt><trkpt lat="55.7999450" lon="49.1317390"><time>2021-08-14T08:49:04</time></trkpt><trkpt lat="55.7999500" lon="49.1317630"><time>2021-08-14T08:49:05</time></trkpt><trkpt lat="55.7999540" lon="49.1317890"><time>2021-08-14T08:49:06</time></trkpt><trkpt lat="55.7999570" lon="49.1318140"><time>2021-08-14T08:49:07</time></trkpt><trkpt lat="55.7999590" lon="49.1318390"><time>2021-08-14T08:49:08</time></trkpt><trkpt lat="55.7999640" lon="49.1318640"><time>2021-08-14T08:49:09</time></trkpt><trkpt lat="55.7999660" lon="49.1318870"><time>2021-08-14T08:49:10</time></trkpt><trkpt lat="55.7999700" lon="49.1319120"><time>2021-08-14T08:49:11</time></trkpt><trkpt lat="55.7999740" lon="49.1319380"><time>2021-08-14T08:49:12</time></trkpt><trkpt lat="55.7999790" lon="49.1319600"><time>2021-08-14T08:49:13</time></trkpt><trkpt lat="55.7999850" lon="49.1319830"><time>2021-08-14T08:49:14</time></trkpt><trkpt lat="55.7999870" lon="49.1320070"><time>2021-08-14T08:49:15</time></trkpt><trkpt lat="55.7999920" lon="49.1320310"><time>2021-08-14T08:49:16</time></trkpt><trkpt lat="55.7999980" lon="49.1320540"><time>2021-08-14T08:49:17</time></trkpt><trkpt lat="55.7999990" lon="49.1320810"><time>2021-08-14T08:49:18</time></trkpt><trkpt lat="55.7999990" lon="49.1321060"><time>2021-08-14T08:49:19</time></trkpt><trkpt lat="55.8000040" lon="49.1321310"><time>2021-08-14T08:49:20</time></trkpt><trkpt lat="55.8000050" lon="49.1321560"><time>2021-08-14T08:49:21</time></trkpt><trkpt lat="55.8000080" lon="49.1321830"><time>2021-08-14T08:49:22</time></trkpt><trkpt lat="55.8000120" lon="49.1322220"><time>2021-08-14T08:49:23</time></trkpt><trkpt lat="55.8000170" lon="49.1322370"><time>2021-08-14T08:49:24</time></trkpt><trkpt lat="55.8000210" lon="49.1322510"><time>2021-08-14T08:49:25</time></trkpt><trkpt lat="55.8000270" lon="49.1322780"><time>2021-08-14T08:49:26</time></trkpt><trkpt lat="55.8000260" lon="49.1323110"><time>2021-08-14T08:49:27</time></trkpt><trkpt lat="55.8000270" lon="49.1323380"><time>2021-08-14T08:49:28</time></trkpt><trkpt lat="55.8000310" lon="49.1323670"><time>2021-08-14T08:49:29</time></trkpt><trkpt lat="55.8000390" lon="49.1323880"><time>2021-08-14T08:49:30</time></trkpt><trkpt lat="55.8000440" lon="49.1324160"><time>2021-08-14T08:49:31</time></trkpt><trkpt lat="55.8000500" lon="49.1324420"><time>2021-08-14T08:49:32</time></trkpt><trkpt lat="55.8000560" lon="49.1324660"><time>2021-08-14T08:49:33</time></trkpt><trkpt lat="55.8000630" lon="49.1324920"><time>2021-08-14T08:49:34</time></trkpt><trkpt lat="55.8000740" lon="49.1325120"><time>2021-08-14T08:49:35</time></trkpt><trkpt lat="55.8000820" lon="49.1325380"><time>2021-08-14T08:49:36</time></trkpt><trkpt lat="55.8000910" lon="49.1325610"><time>2021-08-14T08:49:37</time></trkpt><trkpt lat="55.8001030" lon="49.1325820"><time>2021-08-14T08:49:38</time></trkpt><trkpt lat="55.8001140" lon="49.1326040"><time>2021-08-14T08:49:39</time></trkpt><trkpt lat="55.8001260" lon="49.1326240"><time>2021-08-14T08:49:40</time></trkpt><trkpt lat="55.8001380" lon="49.1326380"><time>2021-08-14T08:49:41</time></trkpt><trkpt lat="55.8001490" lon="49.1326600"><time>2021-08-14T08:49:42</time></trkpt><trkpt lat="55.8001620" lon="49.1326800"><time>2021-08-14T08:49:43</time></trkpt><trkpt lat="55.8001740" lon="49.1326980"><time>2021-08-14T08:49:45</time></trkpt><trkpt lat="55.8001820" lon="49.1327220"><time>2021-08-14T08:49:46</time></trkpt><trkpt lat="55.8001940" lon="49.1327380"><time>2021-08-14T08:49:47</time></trkpt><trkpt lat="55.8002030" lon="49.1327560"><time>2021-08-14T08:49:48</time></trkpt><trkpt lat="55.8002180" lon="49.1327820"><time>2021-08-14T08:49:49</time></trkpt><trkpt lat="55.8002240" lon="49.1327930"><time>2021-08-14T08:49:50</time></trkpt><trkpt lat="55.8002370" lon="49.1328110"><time>2021-08-14T08:49:51</time></trkpt><trkpt lat="55.8002510" lon="49.1328330"><time>2021-08-14T08:49:52</time></trkpt><trkpt lat="55.8002680" lon="49.1328620"><time>2021-08-14T08:49:53</time></trkpt><trkpt lat="55.8002760" lon="49.1328770"><time>2021-08-14T08:49:54</time></trkpt><trkpt lat="55.8002850" lon="49.1328930"><time>2021-08-14T08:49:55</time></trkpt><trkpt lat="55.8002940" lon="49.1329050"><time>2021-08-14T08:49:56</time></trkpt><trkpt lat="55.8003020" lon="49.1329260"><time>2021-08-14T08:49:57</time></trkpt><trkpt lat="55.8003070" lon="49.1329410"><time>2021-08-14T08:49:58</time></trkpt><trkpt lat="55.8003130" lon="49.1329690"><time>2021-08-14T08:49:59</time></trkpt><trkpt lat="55.8003210" lon="49.1329840"><time>2021-08-14T08:50:00</time></trkpt><trkpt lat="55.8003300" lon="49.1330040"><time>2021-08-14T08:50:01</time></trkpt><trkpt lat="55.8003360" lon="49.1330220"><time>2021-08-14T08:50:02</time></trkpt><trkpt lat="55.8003410" lon="49.1330360"><time>2021-08-14T08:50:03</time></trkpt><trkpt lat="55.8003510" lon="49.1330550"><time>2021-08-14T08:50:04</time></trkpt><trkpt lat="55.8003630" lon="49.1330810"><time>2021-08-14T08:50:05</time></trkpt><trkpt lat="55.8003740" lon="49.1331050"><time>2021-08-14T08:50:06</time></trkpt><trkpt lat="55.8003860" lon="49.1331300"><time>2021-08-14T08:50:07</time></trkpt><trkpt lat="55.8003990" lon="49.1331520"><time>2021-08-14T08:50:08</time></trkpt><trkpt lat="55.8004080" lon="49.1331720"><time>2021-08-14T08:50:09</time></trkpt><trkpt lat="55.8004190" lon="49.1331900"><time>2021-08-14T08:50:10</time></trkpt><trkpt lat="55.8004290" lon="49.1332110"><time>2021-08-14T08:50:11</time></trkpt><trkpt lat="55.8004400" lon="49.1332270"><time>2021-08-14T08:50:12</time></trkpt><trkpt lat="55.8004500" lon="49.1332430"><time>2021-08-14T08:50:13</time></trkpt><trkpt lat="55.8004640" lon="49.1332600"><time>2021-08-14T08:50:14</time></trkpt><trkpt lat="55.8004760" lon="49.1332700"><time>2021-08-14T08:50:15</time></trkpt><trkpt lat="55.8005010" lon="49.1332970"><time>2021-08-14T08:50:16</time></trkpt><trkpt lat="55.8005130" lon="49.1333140"><time>2021-08-14T08:50:17</time></trkpt><trkpt lat="55.8005220" lon="49.1333350"><time>2021-08-14T08:50:18</time></trkpt><trkpt lat="55.8005300" lon="49.1333600"><time>2021-08-14T08:50:19</time></trkpt><trkpt lat="55.8005400" lon="49.1333770"><time>2021-08-14T08:50:20</time></trkpt><trkpt lat="55.8005520" lon="49.1333910"><time>2021-08-14T08:50:21</time></trkpt><trkpt lat="55.8005650" lon="49.1334020"><time>2021-08-14T08:50:22</time></trkpt><trkpt lat="55.8005760" lon="49.1334190"><time>2021-08-14T08:50:23</time></trkpt><trkpt lat="55.8005860" lon="49.1334370"><time>2021-08-14T08:50:24</time></trkpt><trkpt lat="55.8005940" lon="49.1334600"><time>2021-08-14T08:50:25</time></trkpt><trkpt lat="55.8006000" lon="49.1334840"><time>2021-08-14T08:50:26</time></trkpt><trkpt lat="55.8006090" lon="49.1335060"><time>2021-08-14T08:50:27</time></trkpt><trkpt lat="55.8006160" lon="49.1335290"><time>2021-08-14T08:50:28</time></trkpt><trkpt lat="55.8006240" lon="49.1335500"><time>2021-08-14T08:50:29</time></trkpt><trkpt lat="55.8006340" lon="49.1335700"><time>2021-08-14T08:50:30</time></trkpt><trkpt lat="55.8006410" lon="49.1335910"><time>2021-08-14T08:50:31</time></trkpt><trkpt lat="55.8006460" lon="49.1336140"><time>2021-08-14T08:50:32</time></trkpt><trkpt lat="55.8006530" lon="49.1336370"><time>2021-08-14T08:50:33</time></trkpt><trkpt lat="55.8006630" lon="49.1336550"><time>2021-08-14T08:50:34</time></trkpt><trkpt lat="55.8006770" lon="49.1336680"><time>2021-08-14T08:50:35</time></trkpt><trkpt lat="55.8006900" lon="49.1336760"><time>2021-08-14T08:50:36</time></trkpt><trkpt lat="55.8007050" lon="49.1336720"><time>2021-08-14T08:50:37</time></trkpt><trkpt lat="55.8007170" lon="49.1336580"><time>2021-08-14T08:50:38</time></trkpt><trkpt lat="55.8007250" lon="49.1336420"><time>2021-08-14T08:50:39</time></trkpt><trkpt lat="55.8007290" lon="49.1336350"><time>2021-08-14T08:50:40</time></trkpt><trkpt lat="55.8007320" lon="49.1336290"><time>2021-08-14T08:50:41</time></trkpt><trkpt lat="55.8007350" lon="49.1336230"><time>2021-08-14T08:50:42</time></trkpt><trkpt lat="55.8007390" lon="49.1336160"><time>2021-08-14T08:50:43</time></trkpt><trkpt lat="55.8007420" lon="49.1336100"><time>2021-08-14T08:50:44</time></trkpt><trkpt lat="55.8007580" lon="49.1336060"><time>2021-08-14T08:50:45</time></trkpt><trkpt lat="55.8007690" lon="49.1336060"><time>2021-08-14T08:50:46</time></trkpt><trkpt lat="55.8007790" lon="49.1336070"><time>2021-08-14T08:50:47</time></trkpt><trkpt lat="55.8007910" lon="49.1336220"><time>2021-08-14T08:50:48</time></trkpt><trkpt lat="55.8008080" lon="49.1336270"><time>2021-08-14T08:50:49</time></trkpt><trkpt lat="55.8008220" lon="49.1336340"><time>2021-08-14T08:50:50</time></trkpt><trkpt lat="55.8008360" lon="49.1336410"><time>2021-08-14T08:50:51</time></trkpt><trkpt lat="55.8008510" lon="49.1336450"><time>2021-08-14T08:50:52</time></trkpt><trkpt lat="55.8008640" lon="49.1336470"><time>2021-08-14T08:50:53</time></trkpt><trkpt lat="55.8008770" lon="49.1336770"><time>2021-08-14T08:50:54</time></trkpt><trkpt lat="55.8008790" lon="49.1336980"><time>2021-08-14T08:50:55</time></trkpt><trkpt lat="55.8008800" lon="49.1337180"><time>2021-08-14T08:50:56</time></trkpt><trkpt lat="55.8008630" lon="49.1337670"><time>2021-08-14T08:50:57</time></trkpt><trkpt lat="55.8008570" lon="49.1337810"><time>2021-08-14T08:50:58</time></trkpt><trkpt lat="55.8008500" lon="49.1338030"><time>2021-08-14T08:50:59</time></trkpt><trkpt lat="55.8008390" lon="49.1338270"><time>2021-08-14T08:51:00</time></trkpt><trkpt lat="55.8008310" lon="49.1338530"><time>2021-08-14T08:51:01</time></trkpt><trkpt lat="55.8008190" lon="49.1338730"><time>2021-08-14T08:51:02</time></trkpt><trkpt lat="55.8008080" lon="49.1338920"><time>2021-08-14T08:51:03</time></trkpt><trkpt lat="55.8008000" lon="49.1339130"><time>2021-08-14T08:51:04</time></trkpt><trkpt lat="55.8007920" lon="49.1339350"><time>2021-08-14T08:51:05</time></trkpt><trkpt lat="55.8007820" lon="49.1339560"><time>2021-08-14T08:51:06</time></trkpt><trkpt lat="55.8007720" lon="49.1339740"><time>2021-08-14T08:51:07</time></trkpt><trkpt lat="55.8007620" lon="49.1339920"><time>2021-08-14T08:51:08</time></trkpt><trkpt lat="55.8007500" lon="49.1340110"><time>2021-08-14T08:51:09</time></trkpt><trkpt lat="55.8007400" lon="49.1340300"><time>2021-08-14T08:51:10</time></trkpt><trkpt lat="55.8007310" lon="49.1340490"><time>2021-08-14T08:51:11</time></trkpt><trkpt lat="55.8007240" lon="49.1340680"><time>2021-08-14T08:51:12</time></trkpt><trkpt lat="55.8007140" lon="49.1340860"><time>2021-08-14T08:51:13</time></trkpt><trkpt lat="55.8007070" lon="49.1341090"><time>2021-08-14T08:51:14</time></trkpt><trkpt lat="55.8006940" lon="49.1341400"><time>2021-08-14T08:51:15</time></trkpt><trkpt lat="55.8006890" lon="49.1341520"><time>2021-08-14T08:51:16</time></trkpt><trkpt lat="55.8006830" lon="49.1341650"><time>2021-08-14T08:51:17</time></trkpt><trkpt lat="55.8006730" lon="49.1341860"><time>2021-08-14T08:51:18</time></trkpt><trkpt lat="55.8006640" lon="49.1342060"><time>2021-08-14T08:51:19</time></trkpt><trkpt lat="55.8006560" lon="49.1342270"><time>2021-08-14T08:51:20</time></trkpt><trkpt lat="55.8006520" lon="49.1342520"><time>2021-08-14T08:51:21</time></trkpt><trkpt lat="55.8006440" lon="49.1342890"><time>2021-08-14T08:51:22</time></trkpt><trkpt lat="55.8006400" lon="49.1343020"><time>2021-08-14T08:51:23</time></trkpt><trkpt lat="55.8006360" lon="49.1343150"><time>2021-08-14T08:51:24</time></trkpt><trkpt lat="55.8006210" lon="49.1343350"><time>2021-08-14T08:51:25</time></trkpt><trkpt lat="55.8006140" lon="49.1343460"><time>2021-08-14T08:51:26</time></trkpt><trkpt lat="55.8006070" lon="49.1343570"><time>2021-08-14T08:51:27</time></trkpt><trkpt lat="55.8005960" lon="49.1343870"><time>2021-08-14T08:51:28</time></trkpt><trkpt lat="55.8005910" lon="49.1344010"><time>2021-08-14T08:51:29</time></trkpt><trkpt lat="55.8005860" lon="49.1344160"><time>2021-08-14T08:51:30</time></trkpt><trkpt lat="55.8005850" lon="49.1344420"><time>2021-08-14T08:51:31</time></trkpt><trkpt lat="55.8005870" lon="49.1344690"><time>2021-08-14T08:51:32</time></trkpt><trkpt lat="55.8005790" lon="49.1345060"><time>2021-08-14T08:51:33</time></trkpt><trkpt lat="55.8005760" lon="49.1345210"><time>2021-08-14T08:51:34</time></trkpt><trkpt lat="55.8005730" lon="49.1345370"><time>2021-08-14T08:51:35</time></trkpt><trkpt lat="55.8005630" lon="49.1345730"><time>2021-08-14T08:51:36</time></trkpt><trkpt lat="55.8005600" lon="49.1345880"><time>2021-08-14T08:51:37</time></trkpt><trkpt lat="55.8005560" lon="49.1346020"><time>2021-08-14T08:51:38</time></trkpt><trkpt lat="55.8005550" lon="49.1346370"><time>2021-08-14T08:51:39</time></trkpt><trkpt lat="55.8005510" lon="49.1346550"><time>2021-08-14T08:51:40</time></trkpt><trkpt lat="55.8005480" lon="49.1346740"><time>2021-08-14T08:51:41</time></trkpt><trkpt lat="55.8005440" lon="49.1347030"><time>2021-08-14T08:51:42</time></trkpt><trkpt lat="55.8005380" lon="49.1347290"><time>2021-08-14T08:51:43</time></trkpt><trkpt lat="55.8005300" lon="49.1347550"><time>2021-08-14T08:51:44</time></trkpt><trkpt lat="55.8005260" lon="49.1347830"><time>2021-08-14T08:51:45</time></trkpt><trkpt lat="55.8005220" lon="49.1348090"><time>2021-08-14T08:51:46</time></trkpt><trkpt lat="55.8005170" lon="49.1348380"><time>2021-08-14T08:51:47</time></trkpt><trkpt lat="55.8005150" lon="49.1348640"><time>2021-08-14T08:51:48</time></trkpt><trkpt lat="55.8005090" lon="49.1348900"><time>2021-08-14T08:51:49</time></trkpt><trkpt lat="55.8005080" lon="49.1349180"><time>2021-08-14T08:51:51</time></trkpt><trkpt lat="55.8005030" lon="49.1349430"><time>2021-08-14T08:51:52</time></trkpt><trkpt lat="55.8004980" lon="49.1349690"><time>2021-08-14T08:51:53</time></trkpt><trkpt lat="55.8004950" lon="49.1349950"><time>2021-08-14T08:51:54</time></trkpt><trkpt lat="55.8004910" lon="49.1350230"><time>2021-08-14T08:51:55</time></trkpt><trkpt lat="55.8004880" lon="49.1350490"><time>2021-08-14T08:51:56</time></trkpt><trkpt lat="55.8004860" lon="49.1350760"><time>2021-08-14T08:51:57</time></trkpt><trkpt lat="55.8004830" lon="49.1351030"><time>2021-08-14T08:51:58</time></trkpt><trkpt lat="55.8004830" lon="49.1351310"><time>2021-08-14T08:51:59</time></trkpt><trkpt lat="55.8004810" lon="49.1351580"><time>2021-08-14T08:52:00</time></trkpt><trkpt lat="55.8004770" lon="49.1351860"><time>2021-08-14T08:52:01</time></trkpt><trkpt lat="55.8004740" lon="49.1352130"><time>2021-08-14T08:52:02</time></trkpt><trkpt lat="55.8004660" lon="49.1352420"><time>2021-08-14T08:52:03</time></trkpt><trkpt lat="55.8004650" lon="49.1352690"><time>2021-08-14T08:52:04</time></trkpt><trkpt lat="55.8004650" lon="49.1352950"><time>2021-08-14T08:52:05</time></trkpt><trkpt lat="55.8004630" lon="49.1353210"><time>2021-08-14T08:52:06</time></trkpt><trkpt lat="55.8004580" lon="49.1353470"><time>2021-08-14T08:52:07</time></trkpt><trkpt lat="55.8004590" lon="49.1353750"><time>2021-08-14T08:52:08</time></trkpt><trkpt lat="55.8004580" lon="49.1354020"><time>2021-08-14T08:52:09</time></trkpt><trkpt lat="55.8004540" lon="49.1354280"><time>2021-08-14T08:52:10</time></trkpt><trkpt lat="55.8004480" lon="49.1354550"><time>2021-08-14T08:52:11</time></trkpt><trkpt lat="55.8004450" lon="49.1354810"><time>2021-08-14T08:52:12</time></trkpt><trkpt lat="55.8004450" lon="49.1355090"><time>2021-08-14T08:52:13</time></trkpt><trkpt lat="55.8004420" lon="49.1355360"><time>2021-08-14T08:52:14</time></trkpt><trkpt lat="55.8004370" lon="49.1355620"><time>2021-08-14T08:52:15</time></trkpt><trkpt lat="55.8004330" lon="49.1355890"><time>2021-08-14T08:52:16</time></trkpt><trkpt lat="55.8004300" lon="49.1356200"><time>2021-08-14T08:52:17</time></trkpt><trkpt lat="55.8004260" lon="49.1356470"><time>2021-08-14T08:52:18</time></trkpt><trkpt lat="55.8004250" lon="49.1356740"><time>2021-08-14T08:52:19</time></trkpt><trkpt lat="55.8004190" lon="49.1357000"><time>2021-08-14T08:52:20</time></trkpt><trkpt lat="55.8004100" lon="49.1357260"><time>2021-08-14T08:52:21</time></trkpt><trkpt lat="55.8004080" lon="49.1357530"><time>2021-08-14T08:52:22</time></trkpt><trkpt lat="55.8004020" lon="49.1357800"><time>2021-08-14T08:52:23</time></trkpt><trkpt lat="55.8003970" lon="49.1358070"><time>2021-08-14T08:52:24</time></trkpt><trkpt lat="55.8003950" lon="49.1358340"><time>2021-08-14T08:52:25</time></trkpt><trkpt lat="55.8003920" lon="49.1358610"><time>2021-08-14T08:52:26</time></trkpt><trkpt lat="55.8003910" lon="49.1358880"><time>2021-08-14T08:52:27</time></trkpt><trkpt lat="55.8003920" lon="49.1359170"><time>2021-08-14T08:52:28</time></trkpt><trkpt lat="55.8003820" lon="49.1359720"><time>2021-08-14T08:52:29</time></trkpt><trkpt lat="55.8003730" lon="49.1359970"><time>2021-08-14T08:52:30</time></trkpt><trkpt lat="55.8003660" lon="49.1360260"><time>2021-08-14T08:52:31</time></trkpt><trkpt lat="55.8003650" lon="49.1360520"><time>2021-08-14T08:52:32</time></trkpt><trkpt lat="55.8003630" lon="49.1360810"><time>2021-08-14T08:52:33</time></trkpt><trkpt lat="55.8003600" lon="49.1361080"><time>2021-08-14T08:52:34</time></trkpt><trkpt lat="55.8003600" lon="49.1361340"><time>2021-08-14T08:52:35</time></trkpt><trkpt lat="55.8003580" lon="49.1361580"><time>2021-08-14T08:52:36</time></trkpt><trkpt lat="55.8003590" lon="49.1361830"><time>2021-08-14T08:52:37</time></trkpt><trkpt lat="55.8003590" lon="49.1362090"><time>2021-08-14T08:52:38</time></trkpt><trkpt lat="55.8003550" lon="49.1362320"><time>2021-08-14T08:52:39</time></trkpt><trkpt lat="55.8003580" lon="49.1362600"><time>2021-08-14T08:52:40</time></trkpt><trkpt lat="55.8003580" lon="49.1362860"><time>2021-08-14T08:52:41</time></trkpt><trkpt lat="55.8003540" lon="49.1363160"><time>2021-08-14T08:52:42</time></trkpt><trkpt lat="55.8003490" lon="49.1363430"><time>2021-08-14T08:52:43</time></trkpt><trkpt lat="55.8003470" lon="49.1363710"><time>2021-08-14T08:52:44</time></trkpt><trkpt lat="55.8003430" lon="49.1364000"><time>2021-08-14T08:52:45</time></trkpt><trkpt lat="55.8003390" lon="49.1364290"><time>2021-08-14T08:52:46</time></trkpt><trkpt lat="55.8003390" lon="49.1364530"><time>2021-08-14T08:52:47</time></trkpt><trkpt lat="55.8003350" lon="49.1364790"><time>2021-08-14T08:52:48</time></trkpt><trkpt lat="55.8003310" lon="49.1365030"><time>2021-08-14T08:52:49</time></trkpt><trkpt lat="55.8003300" lon="49.1365280"><time>2021-08-14T08:52:50</time></trkpt><trkpt lat="55.8003270" lon="49.1365550"><time>2021-08-14T08:52:51</time></trkpt><trkpt lat="55.8003240" lon="49.1365790"><time>2021-08-14T08:52:52</time></trkpt><trkpt lat="55.8003240" lon="49.1366110"><time>2021-08-14T08:52:53</time></trkpt><trkpt lat="55.8003250" lon="49.1366410"><time>2021-08-14T08:52:54</time></trkpt><trkpt lat="55.8003250" lon="49.1366710"><time>2021-08-14T08:52:55</time></trkpt><trkpt lat="55.8003190" lon="49.1366960"><time>2021-08-14T08:52:56</time></trkpt><trkpt lat="55.8003170" lon="49.1367240"><time>2021-08-14T08:52:57</time></trkpt><trkpt lat="55.8003160" lon="49.1367520"><time>2021-08-14T08:52:58</time></trkpt><trkpt lat="55.8003130" lon="49.1367810"><time>2021-08-14T08:52:59</time></trkpt><trkpt lat="55.8003100" lon="49.1368130"><time>2021-08-14T08:53:00</time></trkpt><trkpt lat="55.8003060" lon="49.1368400"><time>2021-08-14T08:53:01</time></trkpt><trkpt lat="55.8003020" lon="49.1368690"><time>2021-08-14T08:53:02</time></trkpt><trkpt lat="55.8003010" lon="49.1368970"><time>2021-08-14T08:53:03</time></trkpt><trkpt lat="55.8002980" lon="49.1369230"><time>2021-08-14T08:53:04</time></trkpt><trkpt lat="55.8002990" lon="49.1369500"><time>2021-08-14T08:53:05</time></trkpt><trkpt lat="55.8002980" lon="49.1369740"><time>2021-08-14T08:53:06</time></trkpt><trkpt lat="55.8002930" lon="49.1370010"><time>2021-08-14T08:53:07</time></trkpt><trkpt lat="55.8002920" lon="49.1370270"><time>2021-08-14T08:53:08</time></trkpt><trkpt lat="55.8002890" lon="49.1370560"><time>2021-08-14T08:53:09</time></trkpt><trkpt lat="55.8002880" lon="49.1370860"><time>2021-08-14T08:53:10</time></trkpt><trkpt lat="55.8002880" lon="49.1371150"><time>2021-08-14T08:53:11</time></trkpt><trkpt lat="55.8002900" lon="49.1371460"><time>2021-08-14T08:53:12</time></trkpt><trkpt lat="55.8002900" lon="49.1371740"><time>2021-08-14T08:53:13</time></trkpt><trkpt lat="55.8002850" lon="49.1372050"><time>2021-08-14T08:53:14</time></trkpt><trkpt lat="55.8002830" lon="49.1372290"><time>2021-08-14T08:53:15</time></trkpt><trkpt lat="55.8002830" lon="49.1372580"><time>2021-08-14T08:53:16</time></trkpt><trkpt lat="55.8002840" lon="49.1372870"><time>2021-08-14T08:53:17</time></trkpt><trkpt lat="55.8002850" lon="49.1373130"><time>2021-08-14T08:53:18</time></trkpt><trkpt lat="55.8002850" lon="49.1373430"><time>2021-08-14T08:53:19</time></trkpt><trkpt lat="55.8002880" lon="49.1373690"><time>2021-08-14T08:53:20</time></trkpt><trkpt lat="55.8002940" lon="49.1373910"><time>2021-08-14T08:53:21</time></trkpt><trkpt lat="55.8002970" lon="49.1374070"><time>2021-08-14T08:53:22</time></trkpt><trkpt lat="55.8003040" lon="49.1374220"><time>2021-08-14T08:53:23</time></trkpt><trkpt lat="55.8003140" lon="49.1374460"><time>2021-08-14T08:53:24</time></trkpt><trkpt lat="55.8003180" lon="49.1374610"><time>2021-08-14T08:53:25</time></trkpt><trkpt lat="55.8003210" lon="49.1374800"><time>2021-08-14T08:53:26</time></trkpt><trkpt lat="55.8003260" lon="49.1375060"><time>2021-08-14T08:53:27</time></trkpt><trkpt lat="55.8003300" lon="49.1375240"><time>2021-08-14T08:53:28</time></trkpt><trkpt lat="55.8003370" lon="49.1375530"><time>2021-08-14T08:53:29</time></trkpt><trkpt lat="55.8003430" lon="49.1375750"><time>2021-08-14T08:53:30</time></trkpt><trkpt lat="55.8003520" lon="49.1376030"><time>2021-08-14T08:53:31</time></trkpt><trkpt lat="55.8003610" lon="49.1376250"><time>2021-08-14T08:53:32</time></trkpt><trkpt lat="55.8003710" lon="49.1376540"><time>2021-08-14T08:53:33</time></trkpt><trkpt lat="55.8003870" lon="49.1376950"><time>2021-08-14T08:53:34</time></trkpt><trkpt lat="55.8003940" lon="49.1377060"><time>2021-08-14T08:53:35</time></trkpt><trkpt lat="55.8004040" lon="49.1377330"><time>2021-08-14T08:53:36</time></trkpt><trkpt lat="55.8004190" lon="49.1377510"><time>2021-08-14T08:53:37</time></trkpt><trkpt lat="55.8004310" lon="49.1377730"><time>2021-08-14T08:53:38</time></trkpt><trkpt lat="55.8004400" lon="49.1377980"><time>2021-08-14T08:53:39</time></trkpt><trkpt lat="55.8004520" lon="49.1378270"><time>2021-08-14T08:53:40</time></trkpt><trkpt lat="55.8004560" lon="49.1378410"><time>2021-08-14T08:53:41</time></trkpt><trkpt lat="55.8004600" lon="49.1378540"><time>2021-08-14T08:53:42</time></trkpt><trkpt lat="55.8004620" lon="49.1378690"><time>2021-08-14T08:53:43</time></trkpt><trkpt lat="55.8004670" lon="49.1378830"><time>2021-08-14T08:53:44</time></trkpt><trkpt lat="55.8004790" lon="49.1379060"><time>2021-08-14T08:53:45</time></trkpt><trkpt lat="55.8004970" lon="49.1379440"><time>2021-08-14T08:53:46</time></trkpt><trkpt lat="55.8005030" lon="49.1379570"><time>2021-08-14T08:53:47</time></trkpt><trkpt lat="55.8005220" lon="49.1379910"><time>2021-08-14T08:53:48</time></trkpt><trkpt lat="55.8005290" lon="49.1380040"><time>2021-08-14T08:53:49</time></trkpt><trkpt lat="55.8005330" lon="49.1380250"><time>2021-08-14T08:53:50</time></trkpt><trkpt lat="55.8005480" lon="49.1380580"><time>2021-08-14T08:53:51</time></trkpt><trkpt lat="55.8005560" lon="49.1380840"><time>2021-08-14T08:53:52</time></trkpt><trkpt lat="55.8005590" lon="49.1381040"><time>2021-08-14T08:53:53</time></trkpt><trkpt lat="55.8005620" lon="49.1381280"><time>2021-08-14T08:53:54</time></trkpt><trkpt lat="55.8005700" lon="49.1381590"><time>2021-08-14T08:53:55</time></trkpt><trkpt lat="55.8005840" lon="49.1382000"><time>2021-08-14T08:53:57</time></trkpt><trkpt lat="55.8005890" lon="49.1382150"><time>2021-08-14T08:53:58</time></trkpt><trkpt lat="55.8006070" lon="49.1382620"><time>2021-08-14T08:53:59</time></trkpt><trkpt lat="55.8006170" lon="49.1382800"><time>2021-08-14T08:54:00</time></trkpt><trkpt lat="55.8006330" lon="49.1383250"><time>2021-08-14T08:54:01</time></trkpt><trkpt lat="55.8006390" lon="49.1383410"><time>2021-08-14T08:54:02</time></trkpt><trkpt lat="55.8006540" lon="49.1383840"><time>2021-08-14T08:54:03</time></trkpt><trkpt lat="55.8006590" lon="49.1383960"><time>2021-08-14T08:54:04</time></trkpt><trkpt lat="55.8006690" lon="49.1384170"><time>2021-08-14T08:54:05</time></trkpt><trkpt lat="55.8006800" lon="49.1384280"><time>2021-08-14T08:54:06</time></trkpt><trkpt lat="55.8006910" lon="49.1384440"><time>2021-08-14T08:54:07</time></trkpt><trkpt lat="55.8006970" lon="49.1384570"><time>2021-08-14T08:54:08</time></trkpt><trkpt lat="55.8007030" lon="49.1384770"><time>2021-08-14T08:54:09</time></trkpt><trkpt lat="55.8007150" lon="49.1385210"><time>2021-08-14T08:54:10</time></trkpt><trkpt lat="55.8007190" lon="49.1385380"><time>2021-08-14T08:54:11</time></trkpt><trkpt lat="55.8007210" lon="49.1385700"><time>2021-08-14T08:54:12</time></trkpt><trkpt lat="55.8007260" lon="49.1385970"><time>2021-08-14T08:54:13</time></trkpt><trkpt lat="55.8007350" lon="49.1386470"><time>2021-08-14T08:54:14</time></trkpt><trkpt lat="55.8007360" lon="49.1386650"><time>2021-08-14T08:54:15</time></trkpt><trkpt lat="55.8007400" lon="49.1386890"><time>2021-08-14T08:54:16</time></trkpt><trkpt lat="55.8007430" lon="49.1387060"><time>2021-08-14T08:54:17</time></trkpt><trkpt lat="55.8007470" lon="49.1387090"><time>2021-08-14T08:54:18</time></trkpt><trkpt lat="55.8007500" lon="49.1387350"><time>2021-08-14T08:54:19</time></trkpt><trkpt lat="55.8007540" lon="49.1387520"><time>2021-08-14T08:54:20</time></trkpt><trkpt lat="55.8007590" lon="49.1387690"><time>2021-08-14T08:54:21</time></trkpt><trkpt lat="55.8007610" lon="49.1387940"><time>2021-08-14T08:54:22</time></trkpt><trkpt lat="55.8007660" lon="49.1388240"><time>2021-08-14T08:54:23</time></trkpt><trkpt lat="55.8007700" lon="49.1388510"><time>2021-08-14T08:54:24</time></trkpt><trkpt lat="55.8007740" lon="49.1388860"><time>2021-08-14T08:54:25</time></trkpt><trkpt lat="55.8007840" lon="49.1389130"><time>2021-08-14T08:54:26</time></trkpt><trkpt lat="55.8007910" lon="49.1389300"><time>2021-08-14T08:54:27</time></trkpt><trkpt lat="55.8008020" lon="49.1389560"><time>2021-08-14T08:54:28</time></trkpt><trkpt lat="55.8008120" lon="49.1389830"><time>2021-08-14T08:54:29</time></trkpt><trkpt lat="55.8008190" lon="49.1390100"><time>2021-08-14T08:54:30</time></trkpt><trkpt lat="55.8008260" lon="49.1390370"><time>2021-08-14T08:54:31</time></trkpt><trkpt lat="55.8008310" lon="49.1390670"><time>2021-08-14T08:54:32</time></trkpt><trkpt lat="55.8008370" lon="49.1390970"><time>2021-08-14T08:54:33</time></trkpt><trkpt lat="55.8008450" lon="49.1391220"><time>2021-08-14T08:54:34</time></trkpt><trkpt lat="55.8008510" lon="49.1391490"><time>2021-08-14T08:54:35</time></trkpt><trkpt lat="55.8008600" lon="49.1391730"><time>2021-08-14T08:54:36</time></trkpt><trkpt lat="55.8008700" lon="49.1392180"><time>2021-08-14T08:54:37</time></trkpt><trkpt lat="55.8008740" lon="49.1392320"><time>2021-08-14T08:54:38</time></trkpt><trkpt lat="55.8008800" lon="49.1392520"><time>2021-08-14T08:54:39</time></trkpt><trkpt lat="55.8008890" lon="49.1392710"><time>2021-08-14T08:54:40</time></trkpt><trkpt lat="55.8008980" lon="49.1393000"><time>2021-08-14T08:54:41</time></trkpt><trkpt lat="55.8009030" lon="49.1393220"><time>2021-08-14T08:54:42</time></trkpt><trkpt lat="55.8009120" lon="49.1393480"><time>2021-08-14T08:54:43</time></trkpt><trkpt lat="55.8009140" lon="49.1393750"><time>2021-08-14T08:54:44</time></trkpt><trkpt lat="55.8009220" lon="49.1393990"><time>2021-08-14T08:54:45</time></trkpt><trkpt lat="55.8009290" lon="49.1394210"><time>2021-08-14T08:54:46</time></trkpt><trkpt lat="55.8009360" lon="49.1394440"><time>2021-08-14T08:54:47</time></trkpt><trkpt lat="55.8009420" lon="49.1394660"><time>2021-08-14T08:54:48</time></trkpt><trkpt lat="55.8009490" lon="49.1394900"><time>2021-08-14T08:54:49</time></trkpt><trkpt lat="55.8009550" lon="49.1395160"><time>2021-08-14T08:54:50</time></trkpt><trkpt lat="55.8009620" lon="49.1395410"><time>2021-08-14T08:54:51</time></trkpt><trkpt lat="55.8009670" lon="49.1395650"><time>2021-08-14T08:54:52</time></trkpt><trkpt lat="55.8009760" lon="49.1395850"><time>2021-08-14T08:54:53</time></trkpt><trkpt lat="55.8009820" lon="49.1396030"><time>2021-08-14T08:54:54</time></trkpt><trkpt lat="55.8009910" lon="49.1396240"><time>2021-08-14T08:54:55</time></trkpt><trkpt lat="55.8010000" lon="49.1396480"><time>2021-08-14T08:54:56</time></trkpt><trkpt lat="55.8010090" lon="49.1396800"><time>2021-08-14T08:54:57</time></trkpt><trkpt lat="55.8010160" lon="49.1397050"><time>2021-08-14T08:54:58</time></trkpt><trkpt lat="55.8010230" lon="49.1397270"><time>2021-08-14T08:54:59</time></trkpt><trkpt lat="55.8010330" lon="49.1397600"><time>2021-08-14T08:55:00</time></trkpt><trkpt lat="55.8010380" lon="49.1397770"><time>2021-08-14T08:55:01</time></trkpt><trkpt lat="55.8010440" lon="49.1397940"><time>2021-08-14T08:55:02</time></trkpt><trkpt lat="55.8010490" lon="49.1398160"><time>2021-08-14T08:55:03</time></trkpt><trkpt lat="55.8010580" lon="49.1398450"><time>2021-08-14T08:55:04</time></trkpt><trkpt lat="55.8010670" lon="49.1398700"><time>2021-08-14T08:55:05</time></trkpt><trkpt lat="55.8010750" lon="49.1398960"><time>2021-08-14T08:55:06</time></trkpt><trkpt lat="55.8010790" lon="49.1399200"><time>2021-08-14T08:55:07</time></trkpt><trkpt lat="55.8010900" lon="49.1399420"><time>2021-08-14T08:55:08</time></trkpt><trkpt lat="55.8010990" lon="49.1399680"><time>2021-08-14T08:55:09</time></trkpt><trkpt lat="55.8011120" lon="49.1399820"><time>2021-08-14T08:55:10</time></trkpt><trkpt lat="55.8011390" lon="49.1399680"><time>2021-08-14T08:55:11</time></trkpt><trkpt lat="55.8011480" lon="49.1399650"><time>2021-08-14T08:55:12</time></trkpt><trkpt lat="55.8011660" lon="49.1399470"><time>2021-08-14T08:55:13</time></trkpt><trkpt lat="55.8011800" lon="49.1399360"><time>2021-08-14T08:55:14</time></trkpt><trkpt lat="55.8011950" lon="49.1399250"><time>2021-08-14T08:55:15</time></trkpt><trkpt lat="55.8012100" lon="49.1399180"><time>2021-08-14T08:55:16</time></trkpt><trkpt lat="55.8012270" lon="49.1399100"><time>2021-08-14T08:55:17</time></trkpt><trkpt lat="55.8012390" lon="49.1398970"><time>2021-08-14T08:55:18</time></trkpt><trkpt lat="55.8012520" lon="49.1398870"><time>2021-08-14T08:55:19</time></trkpt><trkpt lat="55.8012650" lon="49.1398790"><time>2021-08-14T08:55:20</time></trkpt><trkpt lat="55.8012810" lon="49.1398550"><time>2021-08-14T08:55:21</time></trkpt><trkpt lat="55.8012890" lon="49.1398440"><time>2021-08-14T08:55:22</time></trkpt><trkpt lat="55.8012980" lon="49.1398340"><time>2021-08-14T08:55:23</time></trkpt><trkpt lat="55.8013120" lon="49.1398220"><time>2021-08-14T08:55:24</time></trkpt><trkpt lat="55.8013220" lon="49.1398020"><time>2021-08-14T08:55:25</time></trkpt><trkpt lat="55.8013490" lon="49.1397860"><time>2021-08-14T08:55:26</time></trkpt><trkpt lat="55.8013580" lon="49.1397790"><time>2021-08-14T08:55:27</time></trkpt><trkpt lat="55.8013730" lon="49.1397700"><time>2021-08-14T08:55:28</time></trkpt><trkpt lat="55.8013860" lon="49.1397650"><time>2021-08-14T08:55:29</time></trkpt><trkpt lat="55.8013990" lon="49.1397500"><time>2021-08-14T08:55:30</time></trkpt><trkpt lat="55.8014130" lon="49.1397380"><time>2021-08-14T08:55:31</time></trkpt><trkpt lat="55.8014330" lon="49.1397250"><time>2021-08-14T08:55:32</time></trkpt><trkpt lat="55.8014430" lon="49.1397210"><time>2021-08-14T08:55:33</time></trkpt><trkpt lat="55.8014530" lon="49.1397180"><time>2021-08-14T08:55:34</time></trkpt><trkpt lat="55.8014800" lon="49.1396930"><time>2021-08-14T08:55:35</time></trkpt><trkpt lat="55.8014890" lon="49.1396840"><time>2021-08-14T08:55:36</time></trkpt><trkpt lat="55.8015030" lon="49.1396770"><time>2021-08-14T08:55:37</time></trkpt><trkpt lat="55.8015170" lon="49.1396650"><time>2021-08-14T08:55:38</time></trkpt><trkpt lat="55.8015310" lon="49.1396590"><time>2021-08-14T08:55:39</time></trkpt><trkpt lat="55.8015460" lon="49.1396370"><time>2021-08-14T08:55:40</time></trkpt><trkpt lat="55.8015610" lon="49.1396230"><time>2021-08-14T08:55:41</time></trkpt><trkpt lat="55.8015740" lon="49.1396120"><time>2021-08-14T08:55:42</time></trkpt><trkpt lat="55.8015920" lon="49.1395820"><time>2021-08-14T08:55:43</time></trkpt><trkpt lat="55.8016000" lon="49.1395720"><time>2021-08-14T08:55:44</time></trkpt><trkpt lat="55.8016070" lon="49.1395610"><time>2021-08-14T08:55:45</time></trkpt><trkpt lat="55.8016190" lon="49.1395440"><time>2021-08-14T08:55:46</time></trkpt><trkpt lat="55.8016370" lon="49.1395300"><time>2021-08-14T08:55:47</time></trkpt><trkpt lat="55.8016540" lon="49.1395280"><time>2021-08-14T08:55:48</time></trkpt><trkpt lat="55.8016690" lon="49.1395230"><time>2021-08-14T08:55:49</time></trkpt><trkpt lat="55.8016850" lon="49.1395040"><time>2021-08-14T08:55:50</time></trkpt><trkpt lat="55.8016990" lon="49.1394860"><time>2021-08-14T08:55:51</time></trkpt><trkpt lat="55.8017140" lon="49.1394690"><time>2021-08-14T08:55:52</time></trkpt><trkpt lat="55.8017280" lon="49.1394490"><time>2021-08-14T08:55:53</time></trkpt><trkpt lat="55.8017430" lon="49.1394350"><time>2021-08-14T08:55:54</time></trkpt><trkpt lat="55.8017590" lon="49.1394290"><time>2021-08-14T08:55:55</time></trkpt><trkpt lat="55.8017710" lon="49.1394190"><time>2021-08-14T08:55:56</time></trkpt><trkpt lat="55.8017850" lon="49.1394100"><time>2021-08-14T08:55:57</time></trkpt><trkpt lat="55.8018010" lon="49.1394130"><time>2021-08-14T08:55:58</time></trkpt><trkpt lat="55.8018140" lon="49.1394010"><time>2021-08-14T08:55:59</time></trkpt><trkpt lat="55.8018320" lon="49.1393890"><time>2021-08-14T08:56:00</time></trkpt><trkpt lat="55.8018460" lon="49.1393790"><time>2021-08-14T08:56:01</time></trkpt><trkpt lat="55.8018620" lon="49.1393710"><time>2021-08-14T08:56:03</time></trkpt><trkpt lat="55.8018770" lon="49.1393560"><time>2021-08-14T08:56:04</time></trkpt><trkpt lat="55.8018920" lon="49.1393460"><time>2021-08-14T08:56:05</time></trkpt><trkpt lat="55.8019100" lon="49.1393490"><time>2021-08-14T08:56:06</time></trkpt><trkpt lat="55.8019330" lon="49.1393410"><time>2021-08-14T08:56:07</time></trkpt><trkpt lat="55.8019410" lon="49.1393420"><time>2021-08-14T08:56:08</time></trkpt><trkpt lat="55.8019490" lon="49.1393420"><time>2021-08-14T08:56:09</time></trkpt><trkpt lat="55.8019640" lon="49.1393500"><time>2021-08-14T08:56:10</time></trkpt><trkpt lat="55.8019780" lon="49.1393600"><time>2021-08-14T08:56:11</time></trkpt><trkpt lat="55.8019890" lon="49.1393800"><time>2021-08-14T08:56:12</time></trkpt><trkpt lat="55.8020040" lon="49.1393990"><time>2021-08-14T08:56:13</time></trkpt><trkpt lat="55.8020330" lon="49.1394240"><time>2021-08-14T08:56:14</time></trkpt><trkpt lat="55.8020400" lon="49.1394310"><time>2021-08-14T08:56:15</time></trkpt><trkpt lat="55.8020710" lon="49.1394310"><time>2021-08-14T08:56:16</time></trkpt><trkpt lat="55.8020810" lon="49.1394270"><time>2021-08-14T08:56:17</time></trkpt><trkpt lat="55.8020970" lon="49.1394270"><time>2021-08-14T08:56:18</time></trkpt><trkpt lat="55.8021140" lon="49.1394210"><time>2021-08-14T08:56:19</time></trkpt><trkpt lat="55.8021290" lon="49.1394170"><time>2021-08-14T08:56:20</time></trkpt><trkpt lat="55.8021460" lon="49.1394180"><time>2021-08-14T08:56:21</time></trkpt><trkpt lat="55.8021610" lon="49.1394050"><time>2021-08-14T08:56:22</time></trkpt><trkpt lat="55.8021750" lon="49.1393940"><time>2021-08-14T08:56:23</time></trkpt><trkpt lat="55.8021850" lon="49.1393670"><time>2021-08-14T08:56:24</time></trkpt><trkpt lat="55.8021930" lon="49.1393430"><time>2021-08-14T08:56:25</time></trkpt><trkpt lat="55.8022050" lon="49.1393260"><time>2021-08-14T08:56:26</time></trkpt><trkpt lat="55.8022160" lon="49.1393080"><time>2021-08-14T08:56:27</time></trkpt><trkpt lat="55.8022280" lon="49.1392940"><time>2021-08-14T08:56:28</time></trkpt><trkpt lat="55.8022390" lon="49.1392800"><time>2021-08-14T08:56:29</time></trkpt><trkpt lat="55.8022530" lon="49.1392730"><time>2021-08-14T08:56:30</time></trkpt><trkpt lat="55.8022700" lon="49.1392910"><time>2021-08-14T08:56:31</time></trkpt><trkpt lat="55.8022820" lon="49.1393190"><time>2021-08-14T08:56:32</time></trkpt><trkpt lat="55.8022900" lon="49.1393450"><time>2021-08-14T08:56:33</time></trkpt><trkpt lat="55.8022920" lon="49.1393760"><time>2021-08-14T08:56:34</time></trkpt><trkpt lat="55.8022970" lon="49.1394010"><time>2021-08-14T08:56:35</time></trkpt><trkpt lat="55.8023090" lon="49.1394220"><time>2021-08-14T08:56:36</time></trkpt><trkpt lat="55.8023210" lon="49.1394390"><time>2021-08-14T08:56:37</time></trkpt><trkpt lat="55.8023300" lon="49.1394600"><time>2021-08-14T08:56:38</time></trkpt><trkpt lat="55.8023350" lon="49.1394870"><time>2021-08-14T08:56:39</time></trkpt><trkpt lat="55.8023450" lon="49.1395090"><time>2021-08-14T08:56:40</time></trkpt><trkpt lat="55.8023490" lon="49.1395360"><time>2021-08-14T08:56:41</time></trkpt><trkpt lat="55.8023500" lon="49.1395650"><time>2021-08-14T08:56:42</time></trkpt><trkpt lat="55.8023550" lon="49.1395900"><time>2021-08-14T08:56:43</time></trkpt><trkpt lat="55.8023590" lon="49.1396170"><time>2021-08-14T08:56:44</time></trkpt><trkpt lat="55.8023580" lon="49.1396460"><time>2021-08-14T08:56:45</time></trkpt><trkpt lat="55.8023670" lon="49.1396720"><time>2021-08-14T08:56:46</time></trkpt><trkpt lat="55.8023780" lon="49.1397220"><time>2021-08-14T08:56:47</time></trkpt><trkpt lat="55.8023830" lon="49.1397480"><time>2021-08-14T08:56:48</time></trkpt><trkpt lat="55.8023840" lon="49.1397770"><time>2021-08-14T08:56:49</time></trkpt><trkpt lat="55.8023910" lon="49.1398030"><time>2021-08-14T08:56:50</time></trkpt><trkpt lat="55.8023940" lon="49.1398310"><time>2021-08-14T08:56:51</time></trkpt><trkpt lat="55.8023990" lon="49.1398560"><time>2021-08-14T08:56:52</time></trkpt><trkpt lat="55.8024040" lon="49.1398820"><time>2021-08-14T08:56:53</time></trkpt><trkpt lat="55.8024050" lon="49.1399080"><time>2021-08-14T08:56:54</time></trkpt><trkpt lat="55.8024120" lon="49.1399340"><time>2021-08-14T08:56:55</time></trkpt><trkpt lat="55.8024150" lon="49.1399610"><time>2021-08-14T08:56:56</time></trkpt><trkpt lat="55.8024210" lon="49.1399860"><time>2021-08-14T08:56:57</time></trkpt><trkpt lat="55.8024240" lon="49.1400110"><time>2021-08-14T08:56:58</time></trkpt><trkpt lat="55.8024300" lon="49.1400360"><time>2021-08-14T08:56:59</time></trkpt><trkpt lat="55.8024330" lon="49.1400630"><time>2021-08-14T08:57:00</time></trkpt><trkpt lat="55.8024360" lon="49.1400900"><time>2021-08-14T08:57:01</time></trkpt><trkpt lat="55.8024400" lon="49.1401180"><time>2021-08-14T08:57:02</time></trkpt><trkpt lat="55.8024450" lon="49.1401420"><time>2021-08-14T08:57:03</time></trkpt><trkpt lat="55.8024520" lon="49.1401650"><time>2021-08-14T08:57:04</time></trkpt><trkpt lat="55.8024560" lon="49.1401950"><time>2021-08-14T08:57:05</time></trkpt><trkpt lat="55.8024610" lon="49.1402210"><time>2021-08-14T08:57:06</time></trkpt><trkpt lat="55.8024700" lon="49.1402450"><time>2021-08-14T08:57:07</time></trkpt><trkpt lat="55.8024710" lon="49.1402730"><time>2021-08-14T08:57:08</time></trkpt><trkpt lat="55.8024720" lon="49.1403000"><time>2021-08-14T08:57:09</time></trkpt><trkpt lat="55.8024770" lon="49.1403250"><time>2021-08-14T08:57:10</time></trkpt><trkpt lat="55.8024810" lon="49.1403500"><time>2021-08-14T08:57:11</time></trkpt><trkpt lat="55.8024870" lon="49.1403770"><time>2021-08-14T08:57:12</time></trkpt><trkpt lat="55.8024910" lon="49.1404020"><time>2021-08-14T08:57:13</time></trkpt><trkpt lat="55.8024940" lon="49.1404280"><time>2021-08-14T08:57:14</time></trkpt><trkpt lat="55.8024990" lon="49.1404550"><time>2021-08-14T08:57:15</time></trkpt><trkpt lat="55.8025010" lon="49.1404830"><time>2021-08-14T08:57:16</time></trkpt><trkpt lat="55.8025060" lon="49.1405080"><time>2021-08-14T08:57:17</time></trkpt><trkpt lat="55.8025110" lon="49.1405330"><time>2021-08-14T08:57:18</time></trkpt><trkpt lat="55.8025150" lon="49.1405580"><time>2021-08-14T08:57:19</time></trkpt><trkpt lat="55.8025210" lon="49.1405830"><time>2021-08-14T08:57:20</time></trkpt><trkpt lat="55.8025260" lon="49.1406090"><time>2021-08-14T08:57:21</time></trkpt><trkpt lat="55.8025310" lon="49.1406320"><time>2021-08-14T08:57:22</time></trkpt><trkpt lat="55.8025340" lon="49.1406580"><time>2021-08-14T08:57:23</time></trkpt><trkpt lat="55.8025390" lon="49.1406860"><time>2021-08-14T08:57:24</time></trkpt><trkpt lat="55.8025440" lon="49.1407110"><time>2021-08-14T08:57:25</time></trkpt><trkpt lat="55.8025470" lon="49.1407380"><time>2021-08-14T08:57:26</time></trkpt><trkpt lat="55.8025540" lon="49.1407640"><time>2021-08-14T08:57:27</time></trkpt><trkpt lat="55.8025600" lon="49.1407900"><time>2021-08-14T08:57:28</time></trkpt><trkpt lat="55.8025690" lon="49.1408150"><time>2021-08-14T08:57:29</time></trkpt><trkpt lat="55.8025760" lon="49.1408390"><time>2021-08-14T08:57:30</time></trkpt><trkpt lat="55.8025840" lon="49.1408640"><time>2021-08-14T08:57:31</time></trkpt><trkpt lat="55.8025900" lon="49.1408890"><time>2021-08-14T08:57:32</time></trkpt><trkpt lat="55.8025980" lon="49.1409140"><time>2021-08-14T08:57:33</time></trkpt><trkpt lat="55.8026070" lon="49.1409370"><time>2021-08-14T08:57:34</time></trkpt><trkpt lat="55.8026160" lon="49.1409590"><time>2021-08-14T08:57:35</time></trkpt><trkpt lat="55.8026240" lon="49.1409830"><time>2021-08-14T08:57:36</time></trkpt><trkpt lat="55.8026310" lon="49.1410090"><time>2021-08-14T08:57:37</time></trkpt><trkpt lat="55.8026370" lon="49.1410340"><time>2021-08-14T08:57:38</time></trkpt><trkpt lat="55.8026410" lon="49.1410590"><time>2021-08-14T08:57:39</time></trkpt><trkpt lat="55.8026450" lon="49.1410880"><time>2021-08-14T08:57:40</time></trkpt><trkpt lat="55.8026500" lon="49.1411120"><time>2021-08-14T08:57:41</time></trkpt><trkpt lat="55.8026570" lon="49.1411370"><time>2021-08-14T08:57:42</time></trkpt><trkpt lat="55.8026670" lon="49.1411590"><time>2021-08-14T08:57:43</time></trkpt><trkpt lat="55.8026780" lon="49.1411810"><time>2021-08-14T08:57:44</time></trkpt><trkpt lat="55.8026860" lon="49.1412040"><time>2021-08-14T08:57:45</time></trkpt><trkpt lat="55.8026960" lon="49.1412260"><time>2021-08-14T08:57:46</time></trkpt><trkpt lat="55.8027060" lon="49.1412490"><time>2021-08-14T08:57:47</time></trkpt><trkpt lat="55.8027170" lon="49.1412700"><time>2021-08-14T08:57:48</time></trkpt><trkpt lat="55.8027270" lon="49.1412910"><time>2021-08-14T08:57:49</time></trkpt><trkpt lat="55.8027340" lon="49.1413170"><time>2021-08-14T08:57:50</time></trkpt><trkpt lat="55.8027440" lon="49.1413400"><time>2021-08-14T08:57:51</time></trkpt><trkpt lat="55.8027550" lon="49.1413610"><time>2021-08-14T08:57:52</time></trkpt><trkpt lat="55.8027640" lon="49.1413840"><time>2021-08-14T08:57:53</time></trkpt><trkpt lat="55.8027720" lon="49.1414080"><time>2021-08-14T08:57:54</time></trkpt><trkpt lat="55.8027810" lon="49.1414310"><time>2021-08-14T08:57:55</time></trkpt><trkpt lat="55.8027910" lon="49.1414520"><time>2021-08-14T08:57:56</time></trkpt><trkpt lat="55.8027990" lon="49.1414760"><time>2021-08-14T08:57:57</time></trkpt><trkpt lat="55.8028080" lon="49.1414980"><time>2021-08-14T08:57:58</time></trkpt><trkpt lat="55.8028210" lon="49.1415150"><time>2021-08-14T08:57:59</time></trkpt><trkpt lat="55.8028300" lon="49.1415390"><time>2021-08-14T08:58:00</time></trkpt><trkpt lat="55.8028390" lon="49.1415610"><time>2021-08-14T08:58:01</time></trkpt><trkpt lat="55.8028500" lon="49.1415820"><time>2021-08-14T08:58:02</time></trkpt><trkpt lat="55.8028600" lon="49.1416040"><time>2021-08-14T08:58:03</time></trkpt><trkpt lat="55.8028690" lon="49.1416270"><time>2021-08-14T08:58:04</time></trkpt><trkpt lat="55.8028800" lon="49.1416500"><time>2021-08-14T08:58:05</time></trkpt><trkpt lat="55.8028890" lon="49.1416730"><time>2021-08-14T08:58:06</time></trkpt><trkpt lat="55.8029000" lon="49.1416970"><time>2021-08-14T08:58:07</time></trkpt><trkpt lat="55.8029090" lon="49.1417190"><time>2021-08-14T08:58:09</time></trkpt><trkpt lat="55.8029220" lon="49.1417410"><time>2021-08-14T08:58:10</time></trkpt><trkpt lat="55.8029320" lon="49.1417610"><time>2021-08-14T08:58:11</time></trkpt><trkpt lat="55.8029410" lon="49.1417850"><time>2021-08-14T08:58:12</time></trkpt><trkpt lat="55.8029520" lon="49.1418040"><time>2021-08-14T08:58:13</time></trkpt><trkpt lat="55.8029620" lon="49.1418250"><time>2021-08-14T08:58:14</time></trkpt><trkpt lat="55.8029730" lon="49.1418450"><time>2021-08-14T08:58:15</time></trkpt><trkpt lat="55.8029820" lon="49.1418690"><time>2021-08-14T08:58:16</time></trkpt><trkpt lat="55.8029920" lon="49.1418910"><time>2021-08-14T08:58:17</time></trkpt><trkpt lat="55.8030020" lon="49.1419120"><time>2021-08-14T08:58:18</time></trkpt><trkpt lat="55.8030110" lon="49.1419330"><time>2021-08-14T08:58:19</time></trkpt><trkpt lat="55.8030220" lon="49.1419500"><time>2021-08-14T08:58:20</time></trkpt><trkpt lat="55.8030330" lon="49.1419690"><time>2021-08-14T08:58:21</time></trkpt><trkpt lat="55.8030420" lon="49.1419920"><time>2021-08-14T08:58:22</time></trkpt><trkpt lat="55.8030530" lon="49.1420110"><time>2021-08-14T08:58:23</time></trkpt><trkpt lat="55.8030660" lon="49.1420300"><time>2021-08-14T08:58:24</time></trkpt><trkpt lat="55.8030750" lon="49.1420510"><time>2021-08-14T08:58:25</time></trkpt><trkpt lat="55.8030860" lon="49.1420700"><time>2021-08-14T08:58:26</time></trkpt><trkpt lat="55.8030980" lon="49.1420880"><time>2021-08-14T08:58:27</time></trkpt><trkpt lat="55.8031080" lon="49.1421110"><time>2021-08-14T08:58:28</time></trkpt><trkpt lat="55.8031160" lon="49.1421300"><time>2021-08-14T08:58:29</time></trkpt><trkpt lat="55.8031270" lon="49.1421500"><time>2021-08-14T08:58:30</time></trkpt><trkpt lat="55.8031410" lon="49.1421680"><time>2021-08-14T08:58:31</time></trkpt><trkpt lat="55.8031520" lon="49.1421870"><time>2021-08-14T08:58:32</time></trkpt><trkpt lat="55.8031620" lon="49.1422070"><time>2021-08-14T08:58:33</time></trkpt><trkpt lat="55.8031730" lon="49.1422260"><time>2021-08-14T08:58:34</time></trkpt><trkpt lat="55.8031850" lon="49.1422440"><time>2021-08-14T08:58:35</time></trkpt><trkpt lat="55.8031960" lon="49.1422650"><time>2021-08-14T08:58:36</time></trkpt><trkpt lat="55.8032060" lon="49.1422830"><time>2021-08-14T08:58:37</time></trkpt><trkpt lat="55.8032170" lon="49.1423030"><time>2021-08-14T08:58:38</time></trkpt><trkpt lat="55.8032270" lon="49.1423190"><time>2021-08-14T08:58:39</time></trkpt><trkpt lat="55.8032380" lon="49.1423390"><time>2021-08-14T08:58:40</time></trkpt><trkpt lat="55.8032460" lon="49.1423570"><time>2021-08-14T08:58:41</time></trkpt><trkpt lat="55.8032590" lon="49.1423710"><time>2021-08-14T08:58:42</time></trkpt><trkpt lat="55.8032710" lon="49.1423880"><time>2021-08-14T08:58:43</time></trkpt><trkpt lat="55.8032840" lon="49.1424010"><time>2021-08-14T08:58:44</time></trkpt><trkpt lat="55.8032940" lon="49.1424250"><time>2021-08-14T08:58:45</time></trkpt><trkpt lat="55.8033060" lon="49.1424440"><time>2021-08-14T08:58:46</time></trkpt><trkpt lat="55.8033150" lon="49.1424660"><time>2021-08-14T08:58:47</time></trkpt><trkpt lat="55.8033280" lon="49.1424810"><time>2021-08-14T08:58:48</time></trkpt><trkpt lat="55.8033410" lon="49.1424980"><time>2021-08-14T08:58:49</time></trkpt><trkpt lat="55.8033540" lon="49.1425120"><time>2021-08-14T08:58:50</time></trkpt><trkpt lat="55.8033700" lon="49.1425220"><time>2021-08-14T08:58:51</time></trkpt><trkpt lat="55.8033830" lon="49.1425360"><time>2021-08-14T08:58:52</time></trkpt><trkpt lat="55.8033960" lon="49.1425520"><time>2021-08-14T08:58:53</time></trkpt><trkpt lat="55.8034080" lon="49.1425680"><time>2021-08-14T08:58:54</time></trkpt><trkpt lat="55.8034190" lon="49.1425850"><time>2021-08-14T08:58:55</time></trkpt><trkpt lat="55.8034310" lon="49.1426010"><time>2021-08-14T08:58:56</time></trkpt><trkpt lat="55.8034440" lon="49.1426150"><time>2021-08-14T08:58:57</time></trkpt><trkpt lat="55.8034580" lon="49.1426260"><time>2021-08-14T08:58:58</time></trkpt><trkpt lat="55.8034710" lon="49.1426370"><time>2021-08-14T08:58:59</time></trkpt><trkpt lat="55.8034840" lon="49.1426540"><time>2021-08-14T08:59:00</time></trkpt><trkpt lat="55.8034970" lon="49.1426650"><time>2021-08-14T08:59:01</time></trkpt><trkpt lat="55.8035090" lon="49.1426820"><time>2021-08-14T08:59:02</time></trkpt><trkpt lat="55.8035220" lon="49.1426980"><time>2021-08-14T08:59:03</time></trkpt><trkpt lat="55.8035340" lon="49.1427130"><time>2021-08-14T08:59:04</time></trkpt><trkpt lat="55.8035460" lon="49.1427320"><time>2021-08-14T08:59:05</time></trkpt><trkpt lat="55.8035600" lon="49.1427450"><time>2021-08-14T08:59:06</time></trkpt><trkpt lat="55.8035710" lon="49.1427640"><time>2021-08-14T08:59:07</time></trkpt><trkpt lat="55.8035840" lon="49.1427790"><time>2021-08-14T08:59:08</time></trkpt><trkpt lat="55.8035980" lon="49.1427930"><time>2021-08-14T08:59:09</time></trkpt><trkpt lat="55.8036080" lon="49.1428150"><time>2021-08-14T08:59:10</time></trkpt><trkpt lat="55.8036200" lon="49.1428300"><time>2021-08-14T08:59:11</time></trkpt><trkpt lat="55.8036330" lon="49.1428460"><time>2021-08-14T08:59:12</time></trkpt><trkpt lat="55.8036440" lon="49.1428610"><time>2021-08-14T08:59:13</time></trkpt><trkpt lat="55.8036590" lon="49.1428740"><time>2021-08-14T08:59:14</time></trkpt><trkpt lat="55.8036700" lon="49.1428890"><time>2021-08-14T08:59:15</time></trkpt><trkpt lat="55.8036830" lon="49.1429060"><time>2021-08-14T08:59:16</time></trkpt><trkpt lat="55.8037070" lon="49.1429360"><time>2021-08-14T08:59:17</time></trkpt><trkpt lat="55.8037180" lon="49.1429510"><time>2021-08-14T08:59:18</time></trkpt><trkpt lat="55.8037320" lon="49.1429620"><time>2021-08-14T08:59:19</time></trkpt><trkpt lat="55.8037450" lon="49.1429750"><time>2021-08-14T08:59:20</time></trkpt><trkpt lat="55.8037560" lon="49.1429880"><time>2021-08-14T08:59:21</time></trkpt><trkpt lat="55.8037680" lon="49.1430030"><time>2021-08-14T08:59:22</time></trkpt><trkpt lat="55.8037810" lon="49.1430160"><time>2021-08-14T08:59:23</time></trkpt><trkpt lat="55.8037930" lon="49.1430300"><time>2021-08-14T08:59:24</time></trkpt><trkpt lat="55.8038050" lon="49.1430440"><time>2021-08-14T08:59:25</time></trkpt><trkpt lat="55.8038190" lon="49.1430550"><time>2021-08-14T08:59:26</time></trkpt><trkpt lat="55.8038310" lon="49.1430710"><time>2021-08-14T08:59:27</time></trkpt><trkpt lat="55.8038450" lon="49.1430830"><time>2021-08-14T08:59:28</time></trkpt><trkpt lat="55.8038560" lon="49.1430990"><time>2021-08-14T08:59:29</time></trkpt><trkpt lat="55.8038690" lon="49.1431150"><time>2021-08-14T08:59:30</time></trkpt><trkpt lat="55.8038800" lon="49.1431300"><time>2021-08-14T08:59:31</time></trkpt><trkpt lat="55.8038940" lon="49.1431400"><time>2021-08-14T08:59:32</time></trkpt><trkpt lat="55.8039070" lon="49.1431510"><time>2021-08-14T08:59:33</time></trkpt><trkpt lat="55.8039210" lon="49.1431590"><time>2021-08-14T08:59:34</time></trkpt><trkpt lat="55.8039340" lon="49.1431730"><time>2021-08-14T08:59:35</time></trkpt><trkpt lat="55.8039460" lon="49.1431920"><time>2021-08-14T08:59:36</time></trkpt><trkpt lat="55.8039580" lon="49.1432040"><time>2021-08-14T08:59:37</time></trkpt><trkpt lat="55.8039690" lon="49.1432180"><time>2021-08-14T08:59:38</time></trkpt><trkpt lat="55.8039790" lon="49.1432280"><time>2021-08-14T08:59:39</time></trkpt><trkpt lat="55.8039950" lon="49.1432420"><time>2021-08-14T08:59:40</time></trkpt><trkpt lat="55.8040100" lon="49.1432590"><time>2021-08-14T08:59:41</time></trkpt><trkpt lat="55.8040190" lon="49.1432680"><time>2021-08-14T08:59:42</time></trkpt><trkpt lat="55.8040270" lon="49.1432780"><time>2021-08-14T08:59:43</time></trkpt><trkpt lat="55.8040410" lon="49.1432890"><time>2021-08-14T08:59:44</time></trkpt><trkpt lat="55.8040600" lon="49.1432950"><time>2021-08-14T08:59:45</time></trkpt><trkpt lat="55.8040720" lon="49.1432970"><time>2021-08-14T08:59:46</time></trkpt><trkpt lat="55.8040890" lon="49.1433070"><time>2021-08-14T08:59:47</time></trkpt><trkpt lat="55.8041030" lon="49.1433180"><time>2021-08-14T08:59:48</time></trkpt><trkpt lat="55.8041150" lon="49.1433340"><time>2021-08-14T08:59:49</time></trkpt><trkpt lat="55.8041240" lon="49.1433530"><time>2021-08-14T08:59:50</time></trkpt><trkpt lat="55.8041380" lon="49.1433630"><time>2021-08-14T08:59:51</time></trkpt><trkpt lat="55.8041550" lon="49.1433810"><time>2021-08-14T08:59:52</time></trkpt><trkpt lat="55.8041640" lon="49.1433920"><time>2021-08-14T08:59:53</time></trkpt><trkpt lat="55.8041790" lon="49.1434070"><time>2021-08-14T08:59:54</time></trkpt><trkpt lat="55.8041930" lon="49.1434220"><time>2021-08-14T08:59:55</time></trkpt><trkpt lat="55.8042070" lon="49.1434340"><time>2021-08-14T08:59:56</time></trkpt><trkpt lat="55.8042200" lon="49.1434470"><time>2021-08-14T08:59:57</time></trkpt><trkpt lat="55.8042320" lon="49.1434620"><time>2021-08-14T08:59:58</time></trkpt><trkpt lat="55.8042440" lon="49.1434730"><time>2021-08-14T08:59:59</time></trkpt><trkpt lat="55.8042590" lon="49.1434890"><time>2021-08-14T09:00:00</time></trkpt><trkpt lat="55.8042660" lon="49.1434950"><time>2021-08-14T09:00:01</time></trkpt><trkpt lat="55.8042720" lon="49.1435020"><time>2021-08-14T09:00:02</time></trkpt><trkpt lat="55.8042780" lon="49.1435090"><time>2021-08-14T09:00:03</time></trkpt><trkpt lat="55.8042910" lon="49.1435180"><time>2021-08-14T09:00:04</time></trkpt><trkpt lat="55.8043060" lon="49.1435290"><time>2021-08-14T09:00:05</time></trkpt><trkpt lat="55.8043180" lon="49.1435450"><time>2021-08-14T09:00:06</time></trkpt><trkpt lat="55.8043290" lon="49.1435580"><time>2021-08-14T09:00:07</time></trkpt><trkpt lat="55.8043520" lon="49.1435710"><time>2021-08-14T09:00:08</time></trkpt><trkpt lat="55.8043610" lon="49.1435780"><time>2021-08-14T09:00:09</time></trkpt><trkpt lat="55.8043710" lon="49.1435840"><time>2021-08-14T09:00:10</time></trkpt><trkpt lat="55.8043860" lon="49.1435890"><time>2021-08-14T09:00:11</time></trkpt><trkpt lat="55.8044020" lon="49.1435950"><time>2021-08-14T09:00:12</time></trkpt><trkpt lat="55.8044160" lon="49.1436020"><time>2021-08-14T09:00:13</time></trkpt><trkpt lat="55.8044290" lon="49.1436100"><time>2021-08-14T09:00:15</time></trkpt><trkpt lat="55.8044420" lon="49.1436210"><time>2021-08-14T09:00:16</time></trkpt><trkpt lat="55.8044580" lon="49.1436260"><time>2021-08-14T09:00:17</time></trkpt><trkpt lat="55.8044870" lon="49.1436300"><time>2021-08-14T09:00:18</time></trkpt><trkpt lat="55.8044950" lon="49.1436310"><time>2021-08-14T09:00:19</time></trkpt><trkpt lat="55.8045120" lon="49.1436350"><time>2021-08-14T09:00:20</time></trkpt><trkpt lat="55.8045290" lon="49.1436510"><time>2021-08-14T09:00:21</time></trkpt><trkpt lat="55.8045440" lon="49.1436660"><time>2021-08-14T09:00:22</time></trkpt><trkpt lat="55.8045600" lon="49.1436810"><time>2021-08-14T09:00:23</time></trkpt><trkpt lat="55.8045740" lon="49.1436950"><time>2021-08-14T09:00:24</time></trkpt><trkpt lat="55.8045880" lon="49.1437080"><time>2021-08-14T09:00:25</time></trkpt><trkpt lat="55.8046010" lon="49.1437240"><time>2021-08-14T09:00:26</time></trkpt><trkpt lat="55.8046120" lon="49.1437440"><time>2021-08-14T09:00:27</time></trkpt><trkpt lat="55.8046280" lon="49.1437590"><time>2021-08-14T09:00:28</time></trkpt><trkpt lat="55.8046460" lon="49.1437620"><time>2021-08-14T09:00:29</time></trkpt><trkpt lat="55.8046600" lon="49.1437750"><time>2021-08-14T09:00:30</time></trkpt><trkpt lat="55.8046750" lon="49.1437830"><time>2021-08-14T09:00:31</time></trkpt><trkpt lat="55.8046900" lon="49.1437960"><time>2021-08-14T09:00:32</time></trkpt><trkpt lat="55.8047040" lon="49.1438080"><time>2021-08-14T09:00:33</time></trkpt><trkpt lat="55.8047180" lon="49.1438210"><time>2021-08-14T09:00:34</time></trkpt><trkpt lat="55.8047320" lon="49.1438330"><time>2021-08-14T09:00:35</time></trkpt><trkpt lat="55.8047470" lon="49.1438360"><time>2021-08-14T09:00:36</time></trkpt><trkpt lat="55.8047610" lon="49.1438460"><time>2021-08-14T09:00:37</time></trkpt><trkpt lat="55.8047770" lon="49.1438530"><time>2021-08-14T09:00:38</time></trkpt><trkpt lat="55.8047920" lon="49.1438590"><time>2021-08-14T09:00:39</time></trkpt><trkpt lat="55.8048080" lon="49.1438700"><time>2021-08-14T09:00:40</time></trkpt><trkpt lat="55.8048230" lon="49.1438760"><time>2021-08-14T09:00:41</time></trkpt><trkpt lat="55.8048370" lon="49.1438890"><time>2021-08-14T09:00:42</time></trkpt><trkpt lat="55.8048530" lon="49.1439000"><time>2021-08-14T09:00:43</time></trkpt><trkpt lat="55.8048670" lon="49.1439150"><time>2021-08-14T09:00:44</time></trkpt><trkpt lat="55.8048820" lon="49.1439240"><time>2021-08-14T09:00:45</time></trkpt><trkpt lat="55.8048980" lon="49.1439350"><time>2021-08-14T09:00:46</time></trkpt><trkpt lat="55.8049130" lon="49.1439450"><time>2021-08-14T09:00:47</time></trkpt><trkpt lat="55.8049280" lon="49.1439510"><time>2021-08-14T09:00:48</time></trkpt><trkpt lat="55.8049440" lon="49.1439650"><time>2021-08-14T09:00:49</time></trkpt><trkpt lat="55.8049580" lon="49.1439730"><time>2021-08-14T09:00:50</time></trkpt><trkpt lat="55.8049730" lon="49.1439870"><time>2021-08-14T09:00:51</time></trkpt><trkpt lat="55.8049860" lon="49.1440000"><time>2021-08-14T09:00:52</time></trkpt><trkpt lat="55.8050010" lon="49.1440120"><time>2021-08-14T09:00:53</time></trkpt><trkpt lat="55.8050140" lon="49.1440250"><time>2021-08-14T09:00:54</time></trkpt><trkpt lat="55.8050280" lon="49.1440380"><time>2021-08-14T09:00:55</time></trkpt><trkpt lat="55.8050410" lon="49.1440500"><time>2021-08-14T09:00:56</time></trkpt><trkpt lat="55.8050560" lon="49.1440600"><time>2021-08-14T09:00:57</time></trkpt><trkpt lat="55.8050690" lon="49.1440710"><time>2021-08-14T09:00:58</time></trkpt><trkpt lat="55.8050840" lon="49.1440760"><time>2021-08-14T09:00:59</time></trkpt><trkpt lat="55.8050980" lon="49.1440810"><time>2021-08-14T09:01:00</time></trkpt><trkpt lat="55.8051130" lon="49.1440880"><time>2021-08-14T09:01:01</time></trkpt><trkpt lat="55.8051330" lon="49.1441010"><time>2021-08-14T09:01:02</time></trkpt><trkpt lat="55.8051420" lon="49.1441050"><time>2021-08-14T09:01:03</time></trkpt><trkpt lat="55.8051500" lon="49.1441090"><time>2021-08-14T09:01:04</time></trkpt><trkpt lat="55.8051660" lon="49.1441170"><time>2021-08-14T09:01:05</time></trkpt><trkpt lat="55.8051800" lon="49.1441280"><time>2021-08-14T09:01:06</time></trkpt><trkpt lat="55.8051950" lon="49.1441370"><time>2021-08-14T09:01:07</time></trkpt><trkpt lat="55.8052090" lon="49.1441440"><time>2021-08-14T09:01:08</time></trkpt><trkpt lat="55.8052220" lon="49.1441560"><time>2021-08-14T09:01:09</time></trkpt><trkpt lat="55.8052360" lon="49.1441610"><time>2021-08-14T09:01:10</time></trkpt><trkpt lat="55.8052650" lon="49.1441820"><time>2021-08-14T09:01:11</time></trkpt><trkpt lat="55.8052790" lon="49.1441930"><time>2021-08-14T09:01:12</time></trkpt><trkpt lat="55.8052920" lon="49.1442050"><time>2021-08-14T09:01:13</time></trkpt><trkpt lat="55.8053070" lon="49.1442150"><time>2021-08-14T09:01:14</time></trkpt><trkpt lat="55.8053220" lon="49.1442240"><time>2021-08-14T09:01:15</time></trkpt><trkpt lat="55.8053360" lon="49.1442340"><time>2021-08-14T09:01:16</time></trkpt><trkpt lat="55.8053480" lon="49.1442470"><time>2021-08-14T09:01:17</time></trkpt><trkpt lat="55.8053690" lon="49.1442580"><time>2021-08-14T09:01:18</time></trkpt><trkpt lat="55.8053780" lon="49.1442620"><time>2021-08-14T09:01:19</time></trkpt><trkpt lat="55.8053860" lon="49.1442670"><time>2021-08-14T09:01:20</time></trkpt><trkpt lat="55.8053990" lon="49.1442750"><time>2021-08-14T09:01:21</time></trkpt><trkpt lat="55.8054120" lon="49.1442850"><time>2021-08-14T09:01:22</time></trkpt><trkpt lat="55.8054270" lon="49.1442950"><time>2021-08-14T09:01:23</time></trkpt><trkpt lat="55.8054410" lon="49.1443040"><time>2021-08-14T09:01:24</time></trkpt><trkpt lat="55.8054540" lon="49.1443180"><time>2021-08-14T09:01:25</time></trkpt><trkpt lat="55.8054670" lon="49.1443280"><time>2021-08-14T09:01:26</time></trkpt><trkpt lat="55.8054820" lon="49.1443400"><time>2021-08-14T09:01:27</time></trkpt><trkpt lat="55.8054960" lon="49.1443460"><time>2021-08-14T09:01:28</time></trkpt><trkpt lat="55.8055080" lon="49.1443620"><time>2021-08-14T09:01:29</time></trkpt><trkpt lat="55.8055210" lon="49.1443720"><time>2021-08-14T09:01:30</time></trkpt><trkpt lat="55.8055350" lon="49.1443810"><time>2021-08-14T09:01:31</time></trkpt><trkpt lat="55.8055500" lon="49.1443880"><time>2021-08-14T09:01:32</time></trkpt><trkpt lat="55.8055640" lon="49.1443950"><time>2021-08-14T09:01:33</time></trkpt><trkpt lat="55.8055780" lon="49.1444050"><time>2021-08-14T09:01:34</time></trkpt><trkpt lat="55.8055930" lon="49.1444150"><time>2021-08-14T09:01:35</time></trkpt><trkpt lat="55.8056060" lon="49.1444280"><time>2021-08-14T09:01:36</time></trkpt><trkpt lat="55.8056210" lon="49.1444360"><time>2021-08-14T09:01:37</time></trkpt><trkpt lat="55.8056320" lon="49.1444530"><time>2021-08-14T09:01:38</time></trkpt><trkpt lat="55.8056450" lon="49.1444650"><time>2021-08-14T09:01:39</time></trkpt><trkpt lat="55.8056590" lon="49.1444750"><time>2021-08-14T09:01:40</time></trkpt><trkpt lat="55.8056710" lon="49.1444900"><time>2021-08-14T09:01:41</time></trkpt><trkpt lat="55.8056850" lon="49.1444990"><time>2021-08-14T09:01:42</time></trkpt><trkpt lat="55.8056980" lon="49.1445120"><time>2021-08-14T09:01:43</time></trkpt><trkpt lat="55.8057120" lon="49.1445180"><time>2021-08-14T09:01:44</time></trkpt><trkpt lat="55.8057250" lon="49.1445290"><time>2021-08-14T09:01:45</time></trkpt><trkpt lat="55.8057390" lon="49.1445390"><time>2021-08-14T09:01:46</time></trkpt><trkpt lat="55.8057530" lon="49.1445530"><time>2021-08-14T09:01:47</time></trkpt><trkpt lat="55.8057670" lon="49.1445650"><time>2021-08-14T09:01:48</time></trkpt><trkpt lat="55.8057800" lon="49.1445780"><time>2021-08-14T09:01:49</time></trkpt><trkpt lat="55.8057920" lon="49.1445870"><time>2021-08-14T09:01:50</time></trkpt><trkpt lat="55.8058050" lon="49.1445970"><time>2021-08-14T09:01:51</time></trkpt><trkpt lat="55.8058160" lon="49.1446100"><time>2021-08-14T09:01:52</time></trkpt><trkpt lat="55.8058260" lon="49.1446180"><time>2021-08-14T09:01:53</time></trkpt><trkpt lat="55.8058330" lon="49.1446210"><time>2021-08-14T09:01:54</time></trkpt><trkpt lat="55.8058430" lon="49.1446220"><time>2021-08-14T09:01:55</time></trkpt><trkpt lat="55.8058610" lon="49.1446310"><time>2021-08-14T09:01:56</time></trkpt><trkpt lat="55.8058750" lon="49.1446490"><time>2021-08-14T09:01:57</time></trkpt><trkpt lat="55.8058930" lon="49.1446610"><time>2021-08-14T09:01:58</time></trkpt><trkpt lat="55.8059020" lon="49.1446680"><time>2021-08-14T09:01:59</time></trkpt><trkpt lat="55.8059100" lon="49.1446740"><time>2021-08-14T09:02:00</time></trkpt><trkpt lat="55.8059180" lon="49.1446730"><time>2021-08-14T09:02:01</time></trkpt><trkpt lat="55.8059300" lon="49.1446810"><time>2021-08-14T09:02:02</time></trkpt><trkpt lat="55.8059440" lon="49.1446940"><time>2021-08-14T09:02:03</time></trkpt><trkpt lat="55.8059570" lon="49.1447040"><time>2021-08-14T09:02:04</time></trkpt><trkpt lat="55.8059660" lon="49.1447130"><time>2021-08-14T09:02:05</time></trkpt><trkpt lat="55.8059750" lon="49.1447200"><time>2021-08-14T09:02:06</time></trkpt><trkpt lat="55.8060010" lon="49.1447460"><time>2021-08-14T09:02:07</time></trkpt><trkpt lat="55.8060080" lon="49.1447580"><time>2021-08-14T09:02:08</time></trkpt><trkpt lat="55.8060180" lon="49.1447810"><time>2021-08-14T09:02:09</time></trkpt><trkpt lat="55.8060250" lon="49.1448070"><time>2021-08-14T09:02:10</time></trkpt><trkpt lat="55.8060230" lon="49.1448580"><time>2021-08-14T09:02:11</time></trkpt><trkpt lat="55.8060220" lon="49.1448760"><time>2021-08-14T09:02:12</time></trkpt><trkpt lat="55.8060120" lon="49.1449250"><time>2021-08-14T09:02:13</time></trkpt><trkpt lat="55.8060100" lon="49.1449400"><time>2021-08-14T09:02:14</time></trkpt><trkpt lat="55.8060040" lon="49.1449670"><time>2021-08-14T09:02:15</time></trkpt><trkpt lat="55.8059990" lon="49.1449940"><time>2021-08-14T09:02:16</time></trkpt><trkpt lat="55.8059920" lon="49.1450210"><time>2021-08-14T09:02:17</time></trkpt><trkpt lat="55.8059880" lon="49.1450490"><time>2021-08-14T09:02:18</time></trkpt><trkpt lat="55.8059830" lon="49.1450760"><time>2021-08-14T09:02:19</time></trkpt><trkpt lat="55.8059790" lon="49.1451030"><time>2021-08-14T09:02:21</time></trkpt><trkpt lat="55.8059780" lon="49.1451330"><time>2021-08-14T09:02:22</time></trkpt><trkpt lat="55.8059690" lon="49.1451560"><time>2021-08-14T09:02:23</time></trkpt><trkpt lat="55.8059600" lon="49.1451780"><time>2021-08-14T09:02:24</time></trkpt><trkpt lat="55.8059570" lon="49.1452010"><time>2021-08-14T09:02:25</time></trkpt><trkpt lat="55.8059540" lon="49.1452240"><time>2021-08-14T09:02:26</time></trkpt><trkpt lat="55.8059450" lon="49.1452520"><time>2021-08-14T09:02:27</time></trkpt><trkpt lat="55.8059380" lon="49.1452830"><time>2021-08-14T09:02:28</time></trkpt><trkpt lat="55.8059280" lon="49.1453060"><time>2021-08-14T09:02:29</time></trkpt><trkpt lat="55.8059210" lon="49.1453330"><time>2021-08-14T09:02:30</time></trkpt><trkpt lat="55.8059120" lon="49.1453560"><time>2021-08-14T09:02:31</time></trkpt><trkpt lat="55.8059060" lon="49.1453810"><time>2021-08-14T09:02:32</time></trkpt><trkpt lat="55.8059000" lon="49.1454060"><time>2021-08-14T09:02:33</time></trkpt><trkpt lat="55.8058920" lon="49.1454280"><time>2021-08-14T09:02:34</time></trkpt><trkpt lat="55.8058850" lon="49.1454530"><time>2021-08-14T09:02:35</time></trkpt><trkpt lat="55.8058770" lon="49.1454790"><time>2021-08-14T09:02:36</time></trkpt><trkpt lat="55.8058690" lon="49.1455050"><time>2021-08-14T09:02:37</time></trkpt><trkpt lat="55.8058630" lon="49.1455290"><time>2021-08-14T09:02:38</time></trkpt><trkpt lat="55.8058530" lon="49.1455530"><time>2021-08-14T09:02:39</time></trkpt><trkpt lat="55.8058480" lon="49.1455780"><time>2021-08-14T09:02:40</time></trkpt><trkpt lat="55.8058410" lon="49.1456010"><time>2021-08-14T09:02:41</time></trkpt><trkpt lat="55.8058330" lon="49.1456240"><time>2021-08-14T09:02:42</time></trkpt><trkpt lat="55.8058240" lon="49.1456470"><time>2021-08-14T09:02:43</time></trkpt><trkpt lat="55.8058130" lon="49.1456680"><time>2021-08-14T09:02:44</time></trkpt><trkpt lat="55.8058100" lon="49.1456900"><time>2021-08-14T09:02:45</time></trkpt><trkpt lat="55.8058000" lon="49.1457260"><time>2021-08-14T09:02:46</time></trkpt><trkpt lat="55.8057960" lon="49.1457400"><time>2021-08-14T09:02:47</time></trkpt><trkpt lat="55.8057930" lon="49.1457540"><time>2021-08-14T09:02:48</time></trkpt><trkpt lat="55.8057870" lon="49.1457780"><time>2021-08-14T09:02:49</time></trkpt><trkpt lat="55.8057790" lon="49.1458130"><time>2021-08-14T09:02:50</time></trkpt><trkpt lat="55.8057730" lon="49.1458350"><time>2021-08-14T09:02:51</time></trkpt><trkpt lat="55.8057670" lon="49.1458560"><time>2021-08-14T09:02:52</time></trkpt><trkpt lat="55.8057600" lon="49.1458840"><time>2021-08-14T09:02:53</time></trkpt><trkpt lat="55.8057550" lon="49.1459040"><time>2021-08-14T09:02:54</time></trkpt><trkpt lat="55.8057520" lon="49.1459230"><time>2021-08-14T09:02:55</time></trkpt><trkpt lat="55.8057440" lon="49.1459490"><time>2021-08-14T09:02:56</time></trkpt><trkpt lat="55.8057380" lon="49.1459750"><time>2021-08-14T09:02:57</time></trkpt><trkpt lat="55.8057330" lon="49.1459990"><time>2021-08-14T09:02:58</time></trkpt><trkpt lat="55.8057310" lon="49.1460240"><time>2021-08-14T09:02:59</time></trkpt><trkpt lat="55.8057270" lon="49.1460470"><time>2021-08-14T09:03:00</time></trkpt><trkpt lat="55.8057240" lon="49.1460680"><time>2021-08-14T09:03:01</time></trkpt><trkpt lat="55.8057160" lon="49.1460930"><time>2021-08-14T09:03:02</time></trkpt><trkpt lat="55.8057120" lon="49.1461170"><time>2021-08-14T09:03:03</time></trkpt><trkpt lat="55.8057050" lon="49.1461420"><time>2021-08-14T09:03:04</time></trkpt><trkpt lat="55.8057050" lon="49.1461630"><time>2021-08-14T09:03:05</time></trkpt><trkpt lat="55.8057060" lon="49.1462040"><time>2021-08-14T09:03:06</time></trkpt><trkpt lat="55.8057040" lon="49.1462280"><time>2021-08-14T09:03:07</time></trkpt><trkpt lat="55.8056900" lon="49.1462590"><time>2021-08-14T09:03:08</time></trkpt><trkpt lat="55.8056710" lon="49.1462740"><time>2021-08-14T09:03:09</time></trkpt><trkpt lat="55.8056640" lon="49.1463000"><time>2021-08-14T09:03:10</time></trkpt><trkpt lat="55.8056630" lon="49.1463190"><time>2021-08-14T09:03:11</time></trkpt><trkpt lat="55.8056590" lon="49.1463520"><time>2021-08-14T09:03:12</time></trkpt><trkpt lat="55.8056440" lon="49.1463810"><time>2021-08-14T09:03:13</time></trkpt><trkpt lat="55.8056390" lon="49.1464000"><time>2021-08-14T09:03:14</time></trkpt><trkpt lat="55.8056250" lon="49.1464430"><time>2021-08-14T09:03:15</time></trkpt><trkpt lat="55.8056210" lon="49.1464630"><time>2021-08-14T09:03:16</time></trkpt><trkpt lat="55.8056100" lon="49.1464880"><time>2021-08-14T09:03:17</time></trkpt><trkpt lat="55.8056000" lon="49.1465090"><time>2021-08-14T09:03:18</time></trkpt><trkpt lat="55.8055920" lon="49.1465290"><time>2021-08-14T09:03:19</time></trkpt><trkpt lat="55.8055850" lon="49.1465530"><time>2021-08-14T09:03:20</time></trkpt><trkpt lat="55.8055740" lon="49.1465720"><time>2021-08-14T09:03:21</time></trkpt><trkpt lat="55.8055630" lon="49.1465950"><time>2021-08-14T09:03:22</time></trkpt><trkpt lat="55.8055580" lon="49.1466240"><time>2021-08-14T09:03:23</time></trkpt><trkpt lat="55.8055490" lon="49.1466440"><time>2021-08-14T09:03:24</time></trkpt><trkpt lat="55.8055410" lon="49.1466680"><time>2021-08-14T09:03:25</time></trkpt><trkpt lat="55.8055330" lon="49.1466930"><time>2021-08-14T09:03:26</time></trkpt><trkpt lat="55.8055250" lon="49.1467150"><time>2021-08-14T09:03:27</time></trkpt><trkpt lat="55.8055100" lon="49.1467580"><time>2021-08-14T09:03:28</time></trkpt><trkpt lat="55.8055010" lon="49.1467750"><time>2021-08-14T09:03:29</time></trkpt><trkpt lat="55.8054990" lon="49.1467880"><time>2021-08-14T09:03:30</time></trkpt><trkpt lat="55.8054880" lon="49.1468080"><time>2021-08-14T09:03:31</time></trkpt><trkpt lat="55.8054780" lon="49.1468320"><time>2021-08-14T09:03:32</time></trkpt><trkpt lat="55.8054690" lon="49.1468510"><time>2021-08-14T09:03:33</time></trkpt><trkpt lat="55.8054590" lon="49.1468700"><time>2021-08-14T09:03:34</time></trkpt><trkpt lat="55.8054500" lon="49.1468900"><time>2021-08-14T09:03:35</time></trkpt><trkpt lat="55.8054400" lon="49.1469060"><time>2021-08-14T09:03:36</time></trkpt><trkpt lat="55.8054320" lon="49.1469250"><time>2021-08-14T09:03:37</time></trkpt><trkpt lat="55.8054250" lon="49.1469500"><time>2021-08-14T09:03:38</time></trkpt><trkpt lat="55.8054130" lon="49.1469630"><time>2021-08-14T09:03:39</time></trkpt><trkpt lat="55.8054070" lon="49.1469620"><time>2021-08-14T09:03:40</time></trkpt><trkpt lat="55.8054030" lon="49.1469550"><time>2021-08-14T09:03:41</time></trkpt><trkpt lat="55.8054030" lon="49.1469520"><time>2021-08-14T09:03:42</time></trkpt><trkpt lat="55.8054030" lon="49.1469500"><time>2021-08-14T09:03:43</time></trkpt><trkpt lat="55.8054050" lon="49.1469440"><time>2021-08-14T09:03:44</time></trkpt><trkpt lat="55.8054010" lon="49.1469390"><time>2021-08-14T09:03:45</time></trkpt><trkpt lat="55.8053980" lon="49.1469330"><time>2021-08-14T09:03:46</time></trkpt><trkpt lat="55.8053990" lon="49.1469380"><time>2021-08-14T09:03:47</time></trkpt><trkpt lat="55.8053940" lon="49.1469340"><time>2021-08-14T09:03:48</time></trkpt><trkpt lat="55.8053910" lon="49.1469440"><time>2021-08-14T09:03:49</time></trkpt><trkpt lat="55.8053850" lon="49.1469610"><time>2021-08-14T09:03:50</time></trkpt><trkpt lat="55.8053770" lon="49.1469820"><time>2021-08-14T09:03:51</time></trkpt><trkpt lat="55.8053700" lon="49.1470040"><time>2021-08-14T09:03:52</time></trkpt><trkpt lat="55.8053610" lon="49.1470230"><time>2021-08-14T09:03:53</time></trkpt><trkpt lat="55.8053470" lon="49.1470550"><time>2021-08-14T09:03:54</time></trkpt><trkpt lat="55.8053400" lon="49.1470690"><time>2021-08-14T09:03:55</time></trkpt><trkpt lat="55.8053340" lon="49.1470830"><time>2021-08-14T09:03:56</time></trkpt><trkpt lat="55.8053210" lon="49.1471130"><time>2021-08-14T09:03:57</time></trkpt><trkpt lat="55.8053150" lon="49.1471250"><time>2021-08-14T09:03:58</time></trkpt><trkpt lat="55.8053090" lon="49.1471380"><time>2021-08-14T09:03:59</time></trkpt><trkpt lat="55.8052990" lon="49.1471630"><time>2021-08-14T09:04:00</time></trkpt><trkpt lat="55.8052930" lon="49.1471830"><time>2021-08-14T09:04:01</time></trkpt><trkpt lat="55.8052840" lon="49.1472070"><time>2021-08-14T09:04:02</time></trkpt><trkpt lat="55.8052790" lon="49.1472190"><time>2021-08-14T09:04:03</time></trkpt><trkpt lat="55.8052730" lon="49.1472310"><time>2021-08-14T09:04:04</time></trkpt><trkpt lat="55.8052640" lon="49.1472580"><time>2021-08-14T09:04:05</time></trkpt><trkpt lat="55.8052550" lon="49.1472830"><time>2021-08-14T09:04:06</time></trkpt><trkpt lat="55.8052470" lon="49.1473020"><time>2021-08-14T09:04:07</time></trkpt><trkpt lat="55.8052340" lon="49.1473200"><time>2021-08-14T09:04:08</time></trkpt><trkpt lat="55.8052260" lon="49.1473390"><time>2021-08-14T09:04:09</time></trkpt><trkpt lat="55.8052170" lon="49.1473590"><time>2021-08-14T09:04:10</time></trkpt><trkpt lat="55.8052080" lon="49.1473870"><time>2021-08-14T09:04:11</time></trkpt><trkpt lat="55.8052030" lon="49.1474040"><time>2021-08-14T09:04:12</time></trkpt><trkpt lat="55.8051990" lon="49.1474210"><time>2021-08-14T09:04:13</time></trkpt><trkpt lat="55.8051880" lon="49.1474420"><time>2021-08-14T09:04:14</time></trkpt><trkpt lat="55.8051780" lon="49.1474620"><time>2021-08-14T09:04:15</time></trkpt><trkpt lat="55.8051670" lon="49.1474820"><time>2021-08-14T09:04:16</time></trkpt><trkpt lat="55.8051560" lon="49.1475010"><time>2021-08-14T09:04:17</time></trkpt><trkpt lat="55.8051450" lon="49.1475200"><time>2021-08-14T09:04:18</time></trkpt><trkpt lat="55.8051340" lon="49.1475430"><time>2021-08-14T09:04:19</time></trkpt><trkpt lat="55.8051270" lon="49.1475690"><time>2021-08-14T09:04:20</time></trkpt><trkpt lat="55.8051200" lon="49.1475950"><time>2021-08-14T09:04:21</time></trkpt><trkpt lat="55.8051040" lon="49.1476120"><time>2021-08-14T09:04:22</time></trkpt><trkpt lat="55.8050920" lon="49.1476290"><time>2021-08-14T09:04:23</time></trkpt><trkpt lat="55.8050800" lon="49.1476480"><time>2021-08-14T09:04:24</time></trkpt><trkpt lat="55.8050680" lon="49.1476650"><time>2021-08-14T09:04:25</time></trkpt><trkpt lat="55.8050560" lon="49.1476820"><time>2021-08-14T09:04:27</time></trkpt><trkpt lat="55.8050420" lon="49.1476940"><time>2021-08-14T09:04:28</time></trkpt><trkpt lat="55.8050290" lon="49.1477070"><time>2021-08-14T09:04:29</time></trkpt><trkpt lat="55.8050130" lon="49.1477190"><time>2021-08-14T09:04:30</time></trkpt><trkpt lat="55.8049990" lon="49.1477350"><time>2021-08-14T09:04:31</time></trkpt><trkpt lat="55.8049870" lon="49.1477530"><time>2021-08-14T09:04:32</time></trkpt><trkpt lat="55.8049770" lon="49.1477720"><time>2021-08-14T09:04:33</time></trkpt><trkpt lat="55.8049660" lon="49.1477890"><time>2021-08-14T09:04:34</time></trkpt><trkpt lat="55.8049560" lon="49.1478080"><time>2021-08-14T09:04:35</time></trkpt><trkpt lat="55.8049430" lon="49.1478250"><time>2021-08-14T09:04:36</time></trkpt><trkpt lat="55.8049290" lon="49.1478400"><time>2021-08-14T09:04:37</time></trkpt><trkpt lat="55.8049190" lon="49.1478610"><time>2021-08-14T09:04:38</time></trkpt><trkpt lat="55.8049070" lon="49.1478800"><time>2021-08-14T09:04:39</time></trkpt><trkpt lat="55.8048940" lon="49.1478970"><time>2021-08-14T09:04:40</time></trkpt><trkpt lat="55.8048840" lon="49.1479180"><time>2021-08-14T09:04:41</time></trkpt><trkpt lat="55.8048730" lon="49.1479400"><time>2021-08-14T09:04:42</time></trkpt><trkpt lat="55.8048640" lon="49.1479640"><time>2021-08-14T09:04:43</time></trkpt><trkpt lat="55.8048540" lon="49.1479850"><time>2021-08-14T09:04:44</time></trkpt><trkpt lat="55.8048430" lon="49.1480030"><time>2021-08-14T09:04:45</time></trkpt><trkpt lat="55.8048340" lon="49.1480220"><time>2021-08-14T09:04:46</time></trkpt><trkpt lat="55.8048210" lon="49.1480380"><time>2021-08-14T09:04:47</time></trkpt><trkpt lat="55.8048120" lon="49.1480570"><time>2021-08-14T09:04:48</time></trkpt><trkpt lat="55.8048000" lon="49.1480760"><time>2021-08-14T09:04:49</time></trkpt><trkpt lat="55.8047920" lon="49.1480970"><time>2021-08-14T09:04:50</time></trkpt><trkpt lat="55.8047740" lon="49.1481210"><time>2021-08-14T09:04:51</time></trkpt><trkpt lat="55.8047670" lon="49.1481290"><time>2021-08-14T09:04:52</time></trkpt><trkpt lat="55.8047610" lon="49.1481370"><time>2021-08-14T09:04:53</time></trkpt><trkpt lat="55.8047430" lon="49.1481580"><time>2021-08-14T09:04:54</time></trkpt><trkpt lat="55.8047360" lon="49.1481670"><time>2021-08-14T09:04:55</time></trkpt><trkpt lat="55.8047300" lon="49.1481760"><time>2021-08-14T09:04:56</time></trkpt><trkpt lat="55.8047130" lon="49.1481980"><time>2021-08-14T09:04:57</time></trkpt><trkpt lat="55.8047050" lon="49.1482090"><time>2021-08-14T09:04:58</time></trkpt><trkpt lat="55.8046980" lon="49.1482190"><time>2021-08-14T09:04:59</time></trkpt><trkpt lat="55.8046900" lon="49.1482310"><time>2021-08-14T09:05:00</time></trkpt><trkpt lat="55.8046840" lon="49.1482430"><time>2021-08-14T09:05:01</time></trkpt><trkpt lat="55.8046730" lon="49.1482490"><time>2021-08-14T09:05:02</time></trkpt><trkpt lat="55.8046600" lon="49.1482600"><time>2021-08-14T09:05:03</time></trkpt><trkpt lat="55.8046470" lon="49.1482830"><time>2021-08-14T09:05:04</time></trkpt><trkpt lat="55.8046340" lon="49.1483030"><time>2021-08-14T09:05:05</time></trkpt><trkpt lat="55.8046200" lon="49.1483150"><time>2021-08-14T09:05:06</time></trkpt><trkpt lat="55.8046090" lon="49.1483280"><time>2021-08-14T09:05:07</time></trkpt><trkpt lat="55.8045970" lon="49.1483430"><time>2021-08-14T09:05:08</time></trkpt><trkpt lat="55.8045830" lon="49.1483500"><time>2021-08-14T09:05:09</time></trkpt><trkpt lat="55.8045670" lon="49.1483670"><time>2021-08-14T09:05:10</time></trkpt><trkpt lat="55.8045530" lon="49.1483800"><time>2021-08-14T09:05:11</time></trkpt><trkpt lat="55.8045360" lon="49.1484040"><time>2021-08-14T09:05:12</time></trkpt><trkpt lat="55.8045230" lon="49.1484250"><time>2021-08-14T09:05:13</time></trkpt><trkpt lat="55.8045120" lon="49.1484420"><time>2021-08-14T09:05:14</time></trkpt><trkpt lat="55.8045050" lon="49.1484620"><time>2021-08-14T09:05:15</time></trkpt><trkpt lat="55.8044930" lon="49.1484780"><time>2021-08-14T09:05:16</time></trkpt><trkpt lat="55.8044800" lon="49.1484900"><time>2021-08-14T09:05:17</time></trkpt><trkpt lat="55.8044650" lon="49.1485160"><time>2021-08-14T09:05:18</time></trkpt><trkpt lat="55.8044590" lon="49.1485270"><time>2021-08-14T09:05:19</time></trkpt><trkpt lat="55.8044520" lon="49.1485370"><time>2021-08-14T09:05:20</time></trkpt><trkpt lat="55.8044330" lon="49.1485560"><time>2021-08-14T09:05:21</time></trkpt><trkpt lat="55.8044250" lon="49.1485630"><time>2021-08-14T09:05:22</time></trkpt><trkpt lat="55.8044180" lon="49.1485700"><time>2021-08-14T09:05:23</time></trkpt><trkpt lat="55.8044130" lon="49.1485770"><time>2021-08-14T09:05:24</time></trkpt><trkpt lat="55.8044160" lon="49.1485720"><time>2021-08-14T09:05:25</time></trkpt><trkpt lat="55.8044220" lon="49.1485740"><time>2021-08-14T09:05:26</time></trkpt><trkpt lat="55.8044230" lon="49.1485670"><time>2021-08-14T09:05:27</time></trkpt><trkpt lat="55.8044230" lon="49.1485640"><time>2021-08-14T09:05:28</time></trkpt><trkpt lat="55.8044250" lon="49.1485640"><time>2021-08-14T09:05:29</time></trkpt><trkpt lat="55.8044250" lon="49.1485650"><time>2021-08-14T09:05:30</time></trkpt><trkpt lat="55.8044250" lon="49.1485560"><time>2021-08-14T09:05:31</time></trkpt><trkpt lat="55.8044220" lon="49.1485550"><time>2021-08-14T09:05:32</time></trkpt><trkpt lat="55.8044220" lon="49.1485540"><time>2021-08-14T09:05:33</time></trkpt><trkpt lat="55.8044240" lon="49.1485590"><time>2021-08-14T09:05:34</time></trkpt><trkpt lat="55.8044240" lon="49.1485670"><time>2021-08-14T09:05:35</time></trkpt><trkpt lat="55.8044230" lon="49.1485800"><time>2021-08-14T09:05:36</time></trkpt><trkpt lat="55.8044210" lon="49.1485820"><time>2021-08-14T09:05:37</time></trkpt><trkpt lat="55.8044130" lon="49.1485920"><time>2021-08-14T09:05:38</time></trkpt><trkpt lat="55.8044090" lon="49.1485930"><time>2021-08-14T09:05:39</time></trkpt><trkpt lat="55.8043980" lon="49.1486100"><time>2021-08-14T09:05:40</time></trkpt><trkpt lat="55.8043800" lon="49.1486390"><time>2021-08-14T09:05:41</time></trkpt><trkpt lat="55.8043720" lon="49.1486520"><time>2021-08-14T09:05:42</time></trkpt><trkpt lat="55.8043630" lon="49.1486650"><time>2021-08-14T09:05:43</time></trkpt><trkpt lat="55.8043530" lon="49.1486810"><time>2021-08-14T09:05:44</time></trkpt><trkpt lat="55.8043430" lon="49.1486950"><time>2021-08-14T09:05:45</time></trkpt><trkpt lat="55.8043360" lon="49.1486980"><time>2021-08-14T09:05:46</time></trkpt><trkpt lat="55.8043190" lon="49.1486990"><time>2021-08-14T09:05:47</time></trkpt><trkpt lat="55.8043100" lon="49.1487110"><time>2021-08-14T09:05:48</time></trkpt><trkpt lat="55.8043000" lon="49.1487360"><time>2021-08-14T09:05:49</time></trkpt><trkpt lat="55.8042890" lon="49.1487490"><time>2021-08-14T09:05:50</time></trkpt><trkpt lat="55.8042800" lon="49.1487690"><time>2021-08-14T09:05:51</time></trkpt><trkpt lat="55.8042730" lon="49.1487880"><time>2021-08-14T09:05:52</time></trkpt><trkpt lat="55.8042610" lon="49.1488050"><time>2021-08-14T09:05:53</time></trkpt><trkpt lat="55.8042510" lon="49.1488210"><time>2021-08-14T09:05:54</time></trkpt><trkpt lat="55.8042420" lon="49.1488410"><time>2021-08-14T09:05:55</time></trkpt><trkpt lat="55.8042340" lon="49.1488650"><time>2021-08-14T09:05:56</time></trkpt><trkpt lat="55.8042240" lon="49.1488760"><time>2021-08-14T09:05:57</time></trkpt><trkpt lat="55.8042140" lon="49.1488820"><time>2021-08-14T09:05:58</time></trkpt><trkpt lat="55.8042030" lon="49.1488950"><time>2021-08-14T09:05:59</time></trkpt><trkpt lat="55.8041860" lon="49.1489250"><time>2021-08-14T09:06:00</time></trkpt><trkpt lat="55.8041820" lon="49.1489400"><time>2021-08-14T09:06:01</time></trkpt><trkpt lat="55.8041780" lon="49.1489560"><time>2021-08-14T09:06:02</time></trkpt><trkpt lat="55.8041700" lon="49.1489740"><time>2021-08-14T09:06:03</time></trkpt><trkpt lat="55.8041590" lon="49.1489930"><time>2021-08-14T09:06:04</time></trkpt><trkpt lat="55.8041470" lon="49.1490150"><time>2021-08-14T09:06:05</time></trkpt><trkpt lat="55.8041350" lon="49.1490350"><time>2021-08-14T09:06:06</time></trkpt><trkpt lat="55.8041180" lon="49.1490590"><time>2021-08-14T09:06:07</time></trkpt><trkpt lat="55.8041110" lon="49.1490660"><time>2021-08-14T09:06:08</time></trkpt><trkpt lat="55.8041040" lon="49.1490730"><time>2021-08-14T09:06:09</time></trkpt><trkpt lat="55.8040980" lon="49.1490960"><time>2021-08-14T09:06:10</time></trkpt><trkpt lat="55.8040880" lon="49.1491150"><time>2021-08-14T09:06:11</time></trkpt><trkpt lat="55.8040780" lon="49.1491430"><time>2021-08-14T09:06:12</time></trkpt><trkpt lat="55.8040730" lon="49.1491570"><time>2021-08-14T09:06:13</time></trkpt><trkpt lat="55.8040690" lon="49.1491700"><time>2021-08-14T09:06:14</time></trkpt><trkpt lat="55.8040610" lon="49.1491800"><time>2021-08-14T09:06:15</time></trkpt><trkpt lat="55.8040550" lon="49.1491940"><time>2021-08-14T09:06:16</time></trkpt><trkpt lat="55.8040480" lon="49.1492030"><time>2021-08-14T09:06:17</time></trkpt><trkpt lat="55.8040380" lon="49.1492230"><time>2021-08-14T09:06:18</time></trkpt><trkpt lat="55.8040420" lon="49.1492500"><time>2021-08-14T09:06:19</time></trkpt><trkpt lat="55.8040520" lon="49.1492700"><time>2021-08-14T09:06:20</time></trkpt><trkpt lat="55.8040590" lon="49.1492880"><time>2021-08-14T09:06:21</time></trkpt><trkpt lat="55.8040650" lon="49.1493100"><time>2021-08-14T09:06:22</time></trkpt><trkpt lat="55.8040710" lon="49.1493350"><time>2021-08-14T09:06:23</time></trkpt><trkpt lat="55.8040840" lon="49.1493610"><time>2021-08-14T09:06:24</time></trkpt><trkpt lat="55.8040900" lon="49.1493720"><time>2021-08-14T09:06:25</time></trkpt><trkpt lat="55.8040970" lon="49.1493820"><time>2021-08-14T09:06:26</time></trkpt><trkpt lat="55.8041050" lon="49.1493920"><time>2021-08-14T09:06:27</time></trkpt><trkpt lat="55.8041180" lon="49.1494010"><time>2021-08-14T09:06:28</time></trkpt><trkpt lat="55.8041260" lon="49.1494030"><time>2021-08-14T09:06:29</time></trkpt><trkpt lat="55.8041350" lon="49.1494200"><time>2021-08-14T09:06:30</time></trkpt><trkpt lat="55.8041450" lon="49.1494460"><time>2021-08-14T09:06:31</time></trkpt><trkpt lat="55.8041510" lon="49.1494980"><time>2021-08-14T09:06:33</time></trkpt><trkpt lat="55.8041520" lon="49.1495130"><time>2021-08-14T09:06:34</time></trkpt><trkpt lat="55.8041610" lon="49.1495320"><time>2021-08-14T09:06:35</time></trkpt><trkpt lat="55.8041640" lon="49.1495560"><time>2021-08-14T09:06:36</time></trkpt><trkpt lat="55.8041700" lon="49.1495830"><time>2021-08-14T09:06:37</time></trkpt><trkpt lat="55.8041770" lon="49.1496090"><time>2021-08-14T09:06:38</time></trkpt><trkpt lat="55.8041840" lon="49.1496370"><time>2021-08-14T09:06:39</time></trkpt><trkpt lat="55.8041820" lon="49.1496660"><time>2021-08-14T09:06:40</time></trkpt><trkpt lat="55.8041890" lon="49.1496900"><time>2021-08-14T09:06:41</time></trkpt><trkpt lat="55.8041990" lon="49.1497160"><time>2021-08-14T09:06:42</time></trkpt><trkpt lat="55.8042040" lon="49.1497560"><time>2021-08-14T09:06:43</time></trkpt><trkpt lat="55.8042100" lon="49.1497710"><time>2021-08-14T09:06:44</time></trkpt><trkpt lat="55.8042160" lon="49.1497870"><time>2021-08-14T09:06:45</time></trkpt><trkpt lat="55.8042170" lon="49.1498110"><time>2021-08-14T09:06:46</time></trkpt><trkpt lat="55.8042170" lon="49.1498310"><time>2021-08-14T09:06:47</time></trkpt><trkpt lat="55.8042070" lon="49.1498490"><time>2021-08-14T09:06:48</time></trkpt><trkpt lat="55.8041790" lon="49.1498790"><time>2021-08-14T09:06:49</time></trkpt><trkpt lat="55.8041710" lon="49.1498860"><time>2021-08-14T09:06:50</time></trkpt><trkpt lat="55.8041530" lon="49.1498880"><time>2021-08-14T09:06:51</time></trkpt><trkpt lat="55.8041440" lon="49.1498940"><time>2021-08-14T09:06:52</time></trkpt><trkpt lat="55.8041350" lon="49.1499010"><time>2021-08-14T09:06:53</time></trkpt><trkpt lat="55.8041240" lon="49.1499170"><time>2021-08-14T09:06:54</time></trkpt><trkpt lat="55.8041150" lon="49.1499250"><time>2021-08-14T09:06:55</time></trkpt><trkpt lat="55.8041040" lon="49.1499280"><time>2021-08-14T09:06:56</time></trkpt><trkpt lat="55.8040930" lon="49.1499290"><time>2021-08-14T09:06:57</time></trkpt><trkpt lat="55.8040790" lon="49.1499350"><time>2021-08-14T09:06:58</time></trkpt><trkpt lat="55.8040750" lon="49.1499360"><time>2021-08-14T09:06:59</time></trkpt><trkpt lat="55.8040640" lon="49.1499480"><time>2021-08-14T09:07:00</time></trkpt><trkpt lat="55.8040540" lon="49.1499720"><time>2021-08-14T09:07:01</time></trkpt><trkpt lat="55.8040430" lon="49.1499910"><time>2021-08-14T09:07:02</time></trkpt><trkpt lat="55.8040360" lon="49.1499940"><time>2021-08-14T09:07:03</time></trkpt><trkpt lat="55.8040250" lon="49.1499930"><time>2021-08-14T09:07:04</time></trkpt><trkpt lat="55.8040170" lon="49.1499760"><time>2021-08-14T09:07:05</time></trkpt><trkpt lat="55.8040110" lon="49.1499720"><time>2021-08-14T09:07:06</time></trkpt><trkpt lat="55.8039980" lon="49.1499690"><time>2021-08-14T09:07:07</time></trkpt><trkpt lat="55.8039830" lon="49.1499710"><time>2021-08-14T09:07:08</time></trkpt><trkpt lat="55.8039670" lon="49.1499430"><time>2021-08-14T09:07:09</time></trkpt><trkpt lat="55.8039550" lon="49.1499300"><time>2021-08-14T09:07:10</time></trkpt><trkpt lat="55.8039450" lon="49.1499330"><time>2021-08-14T09:07:11</time></trkpt><trkpt lat="55.8039330" lon="49.1499440"><time>2021-08-14T09:07:12</time></trkpt><trkpt lat="55.8039190" lon="49.1499540"><time>2021-08-14T09:07:13</time></trkpt><trkpt lat="55.8039050" lon="49.1499660"><time>2021-08-14T09:07:14</time></trkpt><trkpt lat="55.8038900" lon="49.1499820"><time>2021-08-14T09:07:15</time></trkpt><trkpt lat="55.8038760" lon="49.1500000"><time>2021-08-14T09:07:16</time></trkpt><trkpt lat="55.8038640" lon="49.1500190"><time>2021-08-14T09:07:17</time></trkpt><trkpt lat="55.8038470" lon="49.1500300"><time>2021-08-14T09:07:18</time></trkpt><trkpt lat="55.8038360" lon="49.1500470"><time>2021-08-14T09:07:19</time></trkpt><trkpt lat="55.8038220" lon="49.1500600"><time>2021-08-14T09:07:20</time></trkpt><trkpt lat="55.8038100" lon="49.1500750"><time>2021-08-14T09:07:21</time></trkpt><trkpt lat="55.8037990" lon="49.1500920"><time>2021-08-14T09:07:22</time></trkpt><trkpt lat="55.8037830" lon="49.1501080"><time>2021-08-14T09:07:23</time></trkpt><trkpt lat="55.8037700" lon="49.1501210"><time>2021-08-14T09:07:24</time></trkpt><trkpt lat="55.8037560" lon="49.1501370"><time>2021-08-14T09:07:25</time></trkpt><trkpt lat="55.8037430" lon="49.1501560"><time>2021-08-14T09:07:26</time></trkpt><trkpt lat="55.8037310" lon="49.1501690"><time>2021-08-14T09:07:27</time></trkpt><trkpt lat="55.8037180" lon="49.1501830"><time>2021-08-14T09:07:28</time></trkpt><trkpt lat="55.8037070" lon="49.1501900"><time>2021-08-14T09:07:29</time></trkpt><trkpt lat="55.8036920" lon="49.1501990"><time>2021-08-14T09:07:30</time></trkpt><trkpt lat="55.8036770" lon="49.1502090"><time>2021-08-14T09:07:31</time></trkpt><trkpt lat="55.8036600" lon="49.1502230"><time>2021-08-14T09:07:32</time></trkpt><trkpt lat="55.8036450" lon="49.1502220"><time>2021-08-14T09:07:33</time></trkpt><trkpt lat="55.8036320" lon="49.1502430"><time>2021-08-14T09:07:34</time></trkpt><trkpt lat="55.8036210" lon="49.1502520"><time>2021-08-14T09:07:35</time></trkpt><trkpt lat="55.8036190" lon="49.1502530"><time>2021-08-14T09:07:36</time></trkpt><trkpt lat="55.8036170" lon="49.1502460"><time>2021-08-14T09:07:37</time></trkpt><trkpt lat="55.8036140" lon="49.1502410"><time>2021-08-14T09:07:38</time></trkpt><trkpt lat="55.8036080" lon="49.1502360"><time>2021-08-14T09:07:39</time></trkpt><trkpt lat="55.8036020" lon="49.1502310"><time>2021-08-14T09:07:40</time></trkpt><trkpt lat="55.8035950" lon="49.1502280"><time>2021-08-14T09:07:41</time></trkpt><trkpt lat="55.8035890" lon="49.1502370"><time>2021-08-14T09:07:42</time></trkpt><trkpt lat="55.8035740" lon="49.1502520"><time>2021-08-14T09:07:43</time></trkpt><trkpt lat="55.8035630" lon="49.1502500"><time>2021-08-14T09:07:44</time></trkpt><trkpt lat="55.8035560" lon="49.1502510"><time>2021-08-14T09:07:45</time></trkpt><trkpt lat="55.8035400" lon="49.1502570"><time>2021-08-14T09:07:46</time></trkpt><trkpt lat="55.8035240" lon="49.1502560"><time>2021-08-14T09:07:47</time></trkpt><trkpt lat="55.8035040" lon="49.1502640"><time>2021-08-14T09:07:48</time></trkpt><trkpt lat="55.8034830" lon="49.1502740"><time>2021-08-14T09:07:49</time></trkpt><trkpt lat="55.8034730" lon="49.1502740"><time>2021-08-14T09:07:50</time></trkpt><trkpt lat="55.8034640" lon="49.1502750"><time>2021-08-14T09:07:51</time></trkpt><trkpt lat="55.8034520" lon="49.1502760"><time>2021-08-14T09:07:52</time></trkpt><trkpt lat="55.8034340" lon="49.1502780"><time>2021-08-14T09:07:53</time></trkpt><trkpt lat="55.8034190" lon="49.1502830"><time>2021-08-14T09:07:54</time></trkpt><trkpt lat="55.8034040" lon="49.1502950"><time>2021-08-14T09:07:55</time></trkpt><trkpt lat="55.8033890" lon="49.1503040"><time>2021-08-14T09:07:56</time></trkpt><trkpt lat="55.8033750" lon="49.1503080"><time>2021-08-14T09:07:57</time></trkpt><trkpt lat="55.8033670" lon="49.1503190"><time>2021-08-14T09:07:58</time></trkpt><trkpt lat="55.8033560" lon="49.1503300"><time>2021-08-14T09:07:59</time></trkpt><trkpt lat="55.8033470" lon="49.1503400"><time>2021-08-14T09:08:00</time></trkpt><trkpt lat="55.8033270" lon="49.1503510"><time>2021-08-14T09:08:01</time></trkpt><trkpt lat="55.8033150" lon="49.1503640"><time>2021-08-14T09:08:02</time></trkpt><trkpt lat="55.8033020" lon="49.1503750"><time>2021-08-14T09:08:03</time></trkpt><trkpt lat="55.8032910" lon="49.1503920"><time>2021-08-14T09:08:04</time></trkpt><trkpt lat="55.8032770" lon="49.1504000"><time>2021-08-14T09:08:05</time></trkpt><trkpt lat="55.8032640" lon="49.1504190"><time>2021-08-14T09:08:06</time></trkpt><trkpt lat="55.8032420" lon="49.1504330"><time>2021-08-14T09:08:07</time></trkpt><trkpt lat="55.8032330" lon="49.1504370"><time>2021-08-14T09:08:08</time></trkpt><trkpt lat="55.8032240" lon="49.1504410"><time>2021-08-14T09:08:09</time></trkpt><trkpt lat="55.8032120" lon="49.1504600"><time>2021-08-14T09:08:10</time></trkpt><trkpt lat="55.8031930" lon="49.1504660"><time>2021-08-14T09:08:11</time></trkpt><trkpt lat="55.8031750" lon="49.1504820"><time>2021-08-14T09:08:12</time></trkpt><trkpt lat="55.8031670" lon="49.1504900"><time>2021-08-14T09:08:13</time></trkpt><trkpt lat="55.8031600" lon="49.1504980"><time>2021-08-14T09:08:14</time></trkpt><trkpt lat="55.8031480" lon="49.1505130"><time>2021-08-14T09:08:15</time></trkpt><trkpt lat="55.8031370" lon="49.1505300"><time>2021-08-14T09:08:16</time></trkpt><trkpt lat="55.8031220" lon="49.1505350"><time>2021-08-14T09:08:17</time></trkpt><trkpt lat="55.8031110" lon="49.1505530"><time>2021-08-14T09:08:18</time></trkpt><trkpt lat="55.8030910" lon="49.1505710"><time>2021-08-14T09:08:19</time></trkpt><trkpt lat="55.8030820" lon="49.1505800"><time>2021-08-14T09:08:20</time></trkpt><trkpt lat="55.8030740" lon="49.1505880"><time>2021-08-14T09:08:21</time></trkpt><trkpt lat="55.8030570" lon="49.1506090"><time>2021-08-14T09:08:22</time></trkpt><trkpt lat="55.8030490" lon="49.1506160"><time>2021-08-14T09:08:23</time></trkpt><trkpt lat="55.8030420" lon="49.1506240"><time>2021-08-14T09:08:24</time></trkpt><trkpt lat="55.8030230" lon="49.1506400"><time>2021-08-14T09:08:25</time></trkpt><trkpt lat="55.8030160" lon="49.1506490"><time>2021-08-14T09:08:26</time></trkpt><trkpt lat="55.8030080" lon="49.1506570"><time>2021-08-14T09:08:27</time></trkpt><trkpt lat="55.8029960" lon="49.1506670"><time>2021-08-14T09:08:28</time></trkpt><trkpt lat="55.8029810" lon="49.1506720"><time>2021-08-14T09:08:29</time></trkpt><trkpt lat="55.8029710" lon="49.1506850"><time>2021-08-14T09:08:30</time></trkpt><trkpt lat="55.8029580" lon="49.1506860"><time>2021-08-14T09:08:31</time></trkpt><trkpt lat="55.8029480" lon="49.1506970"><time>2021-08-14T09:08:32</time></trkpt><trkpt lat="55.8029380" lon="49.1506920"><time>2021-08-14T09:08:33</time></trkpt><trkpt lat="55.8029300" lon="49.1507050"><time>2021-08-14T09:08:34</time></trkpt><trkpt lat="55.8029220" lon="49.1507170"><time>2021-08-14T09:08:35</time></trkpt><trkpt lat="55.8029170" lon="49.1507320"><time>2021-08-14T09:08:36</time></trkpt><trkpt lat="55.8029130" lon="49.1507440"><time>2021-08-14T09:08:37</time></trkpt><trkpt lat="55.8028990" lon="49.1507600"><time>2021-08-14T09:08:39</time></trkpt><trkpt lat="55.8028840" lon="49.1507700"><time>2021-08-14T09:08:40</time></trkpt><trkpt lat="55.8028660" lon="49.1507840"><time>2021-08-14T09:08:41</time></trkpt><trkpt lat="55.8028540" lon="49.1507990"><time>2021-08-14T09:08:42</time></trkpt><trkpt lat="55.8028450" lon="49.1508180"><time>2021-08-14T09:08:43</time></trkpt><trkpt lat="55.8028340" lon="49.1508320"><time>2021-08-14T09:08:44</time></trkpt><trkpt lat="55.8028250" lon="49.1508420"><time>2021-08-14T09:08:45</time></trkpt><trkpt lat="55.8028140" lon="49.1508500"><time>2021-08-14T09:08:46</time></trkpt><trkpt lat="55.8028060" lon="49.1508680"><time>2021-08-14T09:08:47</time></trkpt><trkpt lat="55.8028000" lon="49.1508750"><time>2021-08-14T09:08:48</time></trkpt><trkpt lat="55.8027860" lon="49.1508860"><time>2021-08-14T09:08:49</time></trkpt><trkpt lat="55.8027830" lon="49.1508900"><time>2021-08-14T09:08:50</time></trkpt><trkpt lat="55.8027730" lon="49.1509010"><time>2021-08-14T09:08:51</time></trkpt><trkpt lat="55.8027650" lon="49.1509140"><time>2021-08-14T09:08:52</time></trkpt><trkpt lat="55.8027600" lon="49.1509210"><time>2021-08-14T09:08:53</time></trkpt><trkpt lat="55.8027440" lon="49.1509360"><time>2021-08-14T09:08:54</time></trkpt><trkpt lat="55.8027350" lon="49.1509400"><time>2021-08-14T09:08:55</time></trkpt><trkpt lat="55.8027250" lon="49.1509440"><time>2021-08-14T09:08:56</time></trkpt><trkpt lat="55.8027170" lon="49.1509440"><time>2021-08-14T09:08:57</time></trkpt><trkpt lat="55.8027090" lon="49.1509450"><time>2021-08-14T09:08:58</time></trkpt><trkpt lat="55.8027100" lon="49.1509500"><time>2021-08-14T09:08:59</time></trkpt><trkpt lat="55.8027010" lon="49.1509530"><time>2021-08-14T09:09:00</time></trkpt><trkpt lat="55.8026980" lon="49.1509580"><time>2021-08-14T09:09:01</time></trkpt><trkpt lat="55.8026800" lon="49.1509690"><time>2021-08-14T09:09:02</time></trkpt><trkpt lat="55.8026680" lon="49.1509820"><time>2021-08-14T09:09:03</time></trkpt><trkpt lat="55.8026530" lon="49.1510050"><time>2021-08-14T09:09:04</time></trkpt><trkpt lat="55.8026530" lon="49.1510100"><time>2021-08-14T09:09:05</time></trkpt><trkpt lat="55.8026490" lon="49.1510210"><time>2021-08-14T09:09:06</time></trkpt><trkpt lat="55.8026500" lon="49.1510210"><time>2021-08-14T09:09:07</time></trkpt><trkpt lat="55.8026560" lon="49.1510210"><time>2021-08-14T09:09:08</time></trkpt><trkpt lat="55.8026530" lon="49.1510290"><time>2021-08-14T09:09:09</time></trkpt><trkpt lat="55.8026520" lon="49.1510310"><time>2021-08-14T09:09:10</time></trkpt><trkpt lat="55.8026490" lon="49.1510250"><time>2021-08-14T09:09:11</time></trkpt><trkpt lat="55.8026510" lon="49.1510170"><time>2021-08-14T09:09:12</time></trkpt><trkpt lat="55.8026440" lon="49.1510110"><time>2021-08-14T09:09:13</time></trkpt><trkpt lat="55.8026360" lon="49.1510200"><time>2021-08-14T09:09:14</time></trkpt><trkpt lat="55.8026290" lon="49.1510310"><time>2021-08-14T09:09:15</time></trkpt><trkpt lat="55.8026190" lon="49.1510470"><time>2021-08-14T09:09:16</time></trkpt><trkpt lat="55.8026120" lon="49.1510600"><time>2021-08-14T09:09:17</time></trkpt><trkpt lat="55.8026070" lon="49.1510710"><time>2021-08-14T09:09:18</time></trkpt><trkpt lat="55.8025940" lon="49.1510840"><time>2021-08-14T09:09:19</time></trkpt><trkpt lat="55.8025880" lon="49.1510890"><time>2021-08-14T09:09:20</time></trkpt><trkpt lat="55.8025870" lon="49.1510920"><time>2021-08-14T09:09:21</time></trkpt><trkpt lat="55.8025860" lon="49.1510900"><time>2021-08-14T09:09:22</time></trkpt><trkpt lat="55.8025710" lon="49.1510870"><time>2021-08-14T09:09:23</time></trkpt><trkpt lat="55.8025740" lon="49.1510970"><time>2021-08-14T09:09:24</time></trkpt><trkpt lat="55.8025660" lon="49.1511050"><time>2021-08-14T09:09:25</time></trkpt><trkpt lat="55.8025630" lon="49.1511140"><time>2021-08-14T09:09:26</time></trkpt><trkpt lat="55.8025560" lon="49.1511250"><time>2021-08-14T09:09:27</time></trkpt><trkpt lat="55.8025530" lon="49.1511320"><time>2021-08-14T09:09:28</time></trkpt><trkpt lat="55.8025470" lon="49.1511390"><time>2021-08-14T09:09:29</time></trkpt><trkpt lat="55.8025400" lon="49.1511440"><time>2021-08-14T09:09:30</time></trkpt><trkpt lat="55.8025280" lon="49.1511550"><time>2021-08-14T09:09:31</time></trkpt><trkpt lat="55.8025200" lon="49.1511590"><time>2021-08-14T09:09:32</time></trkpt><trkpt lat="55.8025130" lon="49.1511640"><time>2021-08-14T09:09:33</time></trkpt><trkpt lat="55.8025050" lon="49.1511680"><time>2021-08-14T09:09:34</time></trkpt><trkpt lat="55.8024990" lon="49.1511710"><time>2021-08-14T09:09:35</time></trkpt><trkpt lat="55.8024940" lon="49.1511730"><time>2021-08-14T09:09:36</time></trkpt><trkpt lat="55.8024840" lon="49.1511760"><time>2021-08-14T09:09:37</time></trkpt><trkpt lat="55.8024800" lon="49.1511680"><time>2021-08-14T09:09:38</time></trkpt><trkpt lat="55.8024760" lon="49.1511730"><time>2021-08-14T09:09:39</time></trkpt><trkpt lat="55.8024640" lon="49.1511700"><time>2021-08-14T09:09:40</time></trkpt><trkpt lat="55.8024540" lon="49.1511540"><time>2021-08-14T09:09:41</time></trkpt><trkpt lat="55.8024470" lon="49.1511400"><time>2021-08-14T09:09:42</time></trkpt><trkpt lat="55.8024370" lon="49.1511310"><time>2021-08-14T09:09:43</time></trkpt><trkpt lat="55.8024270" lon="49.1511310"><time>2021-08-14T09:09:44</time></trkpt><trkpt lat="55.8024180" lon="49.1511340"><time>2021-08-14T09:09:45</time></trkpt><trkpt lat="55.8023960" lon="49.1511420"><time>2021-08-14T09:09:46</time></trkpt><trkpt lat="55.8023880" lon="49.1511480"><time>2021-08-14T09:09:47</time></trkpt><trkpt lat="55.8023800" lon="49.1511530"><time>2021-08-14T09:09:48</time></trkpt><trkpt lat="55.8023590" lon="49.1511690"><time>2021-08-14T09:09:49</time></trkpt><trkpt lat="55.8023510" lon="49.1511750"><time>2021-08-14T09:09:50</time></trkpt><trkpt lat="55.8023440" lon="49.1511820"><time>2021-08-14T09:09:51</time></trkpt><trkpt lat="55.8023320" lon="49.1511880"><time>2021-08-14T09:09:52</time></trkpt><trkpt lat="55.8023180" lon="49.1511980"><time>2021-08-14T09:09:53</time></trkpt><trkpt lat="55.8023090" lon="49.1512030"><time>2021-08-14T09:09:54</time></trkpt><trkpt lat="55.8022960" lon="49.1512100"><time>2021-08-14T09:09:55</time></trkpt><trkpt lat="55.8022880" lon="49.1512060"><time>2021-08-14T09:09:56</time></trkpt><trkpt lat="55.8022830" lon="49.1512060"><time>2021-08-14T09:09:57</time></trkpt><trkpt lat="55.8022790" lon="49.1512080"><time>2021-08-14T09:09:58</time></trkpt><trkpt lat="55.8022750" lon="49.1512100"><time>2021-08-14T09:09:59</time></trkpt><trkpt lat="55.8022790" lon="49.1512040"><time>2021-08-14T09:10:00</time></trkpt><trkpt lat="55.8022790" lon="49.1511950"><time>2021-08-14T09:10:01</time></trkpt><trkpt lat="55.8022770" lon="49.1511890"><time>2021-08-14T09:10:02</time></trkpt><trkpt lat="55.8022770" lon="49.1511880"><time>2021-08-14T09:10:03</time></trkpt><trkpt lat="55.8022750" lon="49.1511850"><time>2021-08-14T09:10:04</time></trkpt><trkpt lat="55.8022770" lon="49.1511810"><time>2021-08-14T09:10:05</time></trkpt><trkpt lat="55.8022780" lon="49.1511780"><time>2021-08-14T09:10:06</time></trkpt><trkpt lat="55.8022790" lon="49.1511730"><time>2021-08-14T09:10:07</time></trkpt><trkpt lat="55.8022790" lon="49.1511720"><time>2021-08-14T09:10:08</time></trkpt><trkpt lat="55.8022790" lon="49.1511710"><time>2021-08-14T09:10:09</time></trkpt><trkpt lat="55.8022810" lon="49.1511740"><time>2021-08-14T09:10:10</time></trkpt><trkpt lat="55.8022810" lon="49.1511750"><time>2021-08-14T09:10:11</time></trkpt><trkpt lat="55.8022820" lon="49.1511750"><time>2021-08-14T09:10:12</time></trkpt><trkpt lat="55.8022840" lon="49.1511730"><time>2021-08-14T09:10:13</time></trkpt><trkpt lat="55.8022890" lon="49.1511630"><time>2021-08-14T09:10:14</time></trkpt><trkpt lat="55.8022980" lon="49.1511520"><time>2021-08-14T09:10:15</time></trkpt><trkpt lat="55.8023250" lon="49.1511200"><time>2021-08-14T09:10:16</time></trkpt><trkpt lat="55.8023310" lon="49.1511170"><time>2021-08-14T09:10:17</time></trkpt><trkpt lat="55.8023500" lon="49.1510990"><time>2021-08-14T09:10:18</time></trkpt><trkpt lat="55.8023580" lon="49.1510960"><time>2021-08-14T09:10:19</time></trkpt><trkpt lat="55.8023650" lon="49.1510920"><time>2021-08-14T09:10:20</time></trkpt><trkpt lat="55.8023760" lon="49.1510860"><time>2021-08-14T09:10:21</time></trkpt><trkpt lat="55.8023920" lon="49.1510740"><time>2021-08-14T09:10:22</time></trkpt><trkpt lat="55.8024060" lon="49.1510710"><time>2021-08-14T09:10:23</time></trkpt><trkpt lat="55.8024190" lon="49.1510580"><time>2021-08-14T09:10:24</time></trkpt><trkpt lat="55.8024350" lon="49.1510480"><time>2021-08-14T09:10:25</time></trkpt><trkpt lat="55.8024510" lon="49.1510400"><time>2021-08-14T09:10:26</time></trkpt><trkpt lat="55.8024620" lon="49.1510310"><time>2021-08-14T09:10:27</time></trkpt><trkpt lat="55.8024770" lon="49.1510190"><time>2021-08-14T09:10:28</time></trkpt><trkpt lat="55.8024900" lon="49.1510070"><time>2021-08-14T09:10:29</time></trkpt><trkpt lat="55.8025040" lon="49.1509980"><time>2021-08-14T09:10:30</time></trkpt><trkpt lat="55.8025170" lon="49.1509890"><time>2021-08-14T09:10:31</time></trkpt><trkpt lat="55.8025300" lon="49.1509830"><time>2021-08-14T09:10:32</time></trkpt><trkpt lat="55.8025480" lon="49.1509720"><time>2021-08-14T09:10:33</time></trkpt><trkpt lat="55.8025640" lon="49.1509630"><time>2021-08-14T09:10:34</time></trkpt><trkpt lat="55.8025780" lon="49.1509500"><time>2021-08-14T09:10:35</time></trkpt><trkpt lat="55.8025930" lon="49.1509400"><time>2021-08-14T09:10:36</time></trkpt><trkpt lat="55.8026090" lon="49.1509290"><time>2021-08-14T09:10:37</time></trkpt><trkpt lat="55.8026220" lon="49.1509180"><time>2021-08-14T09:10:38</time></trkpt><trkpt lat="55.8026380" lon="49.1509070"><time>2021-08-14T09:10:39</time></trkpt><trkpt lat="55.8026540" lon="49.1508970"><time>2021-08-14T09:10:40</time></trkpt><trkpt lat="55.8026690" lon="49.1508850"><time>2021-08-14T09:10:41</time></trkpt><trkpt lat="55.8026820" lon="49.1508730"><time>2021-08-14T09:10:42</time></trkpt><trkpt lat="55.8026980" lon="49.1508680"><time>2021-08-14T09:10:43</time></trkpt><trkpt lat="55.8027130" lon="49.1508570"><time>2021-08-14T09:10:45</time></trkpt><trkpt lat="55.8027280" lon="49.1508500"><time>2021-08-14T09:10:46</time></trkpt><trkpt lat="55.8027430" lon="49.1508360"><time>2021-08-14T09:10:47</time></trkpt><trkpt lat="55.8027580" lon="49.1508260"><time>2021-08-14T09:10:48</time></trkpt><trkpt lat="55.8027720" lon="49.1508160"><time>2021-08-14T09:10:49</time></trkpt><trkpt lat="55.8027870" lon="49.1508010"><time>2021-08-14T09:10:50</time></trkpt><trkpt lat="55.8028020" lon="49.1507890"><time>2021-08-14T09:10:51</time></trkpt><trkpt lat="55.8028170" lon="49.1507790"><time>2021-08-14T09:10:52</time></trkpt><trkpt lat="55.8028330" lon="49.1507740"><time>2021-08-14T09:10:53</time></trkpt><trkpt lat="55.8028480" lon="49.1507680"><time>2021-08-14T09:10:54</time></trkpt><trkpt lat="55.8028630" lon="49.1507550"><time>2021-08-14T09:10:55</time></trkpt><trkpt lat="55.8028790" lon="49.1507460"><time>2021-08-14T09:10:56</time></trkpt><trkpt lat="55.8028940" lon="49.1507310"><time>2021-08-14T09:10:57</time></trkpt><trkpt lat="55.8029080" lon="49.1507150"><time>2021-08-14T09:10:58</time></trkpt><trkpt lat="55.8029220" lon="49.1507050"><time>2021-08-14T09:10:59</time></trkpt><trkpt lat="55.8029360" lon="49.1506960"><time>2021-08-14T09:11:00</time></trkpt><trkpt lat="55.8029510" lon="49.1506870"><time>2021-08-14T09:11:01</time></trkpt><trkpt lat="55.8029650" lon="49.1506790"><time>2021-08-14T09:11:02</time></trkpt><trkpt lat="55.8029780" lon="49.1506630"><time>2021-08-14T09:11:03</time></trkpt><trkpt lat="55.8030020" lon="49.1506380"><time>2021-08-14T09:11:04</time></trkpt><trkpt lat="55.8030100" lon="49.1506290"><time>2021-08-14T09:11:05</time></trkpt><trkpt lat="55.8030380" lon="49.1506120"><time>2021-08-14T09:11:06</time></trkpt><trkpt lat="55.8030470" lon="49.1506040"><time>2021-08-14T09:11:07</time></trkpt><trkpt lat="55.8030590" lon="49.1505900"><time>2021-08-14T09:11:08</time></trkpt><trkpt lat="55.8030720" lon="49.1505770"><time>2021-08-14T09:11:09</time></trkpt><trkpt lat="55.8030830" lon="49.1505600"><time>2021-08-14T09:11:10</time></trkpt><trkpt lat="55.8030990" lon="49.1505490"><time>2021-08-14T09:11:11</time></trkpt><trkpt lat="55.8031160" lon="49.1505380"><time>2021-08-14T09:11:12</time></trkpt><trkpt lat="55.8031340" lon="49.1505360"><time>2021-08-14T09:11:13</time></trkpt><trkpt lat="55.8031490" lon="49.1505260"><time>2021-08-14T09:11:14</time></trkpt><trkpt lat="55.8031630" lon="49.1505140"><time>2021-08-14T09:11:15</time></trkpt><trkpt lat="55.8031760" lon="49.1505000"><time>2021-08-14T09:11:16</time></trkpt><trkpt lat="55.8031880" lon="49.1504890"><time>2021-08-14T09:11:17</time></trkpt><trkpt lat="55.8032170" lon="49.1504690"><time>2021-08-14T09:11:18</time></trkpt><trkpt lat="55.8032240" lon="49.1504640"><time>2021-08-14T09:11:19</time></trkpt><trkpt lat="55.8032450" lon="49.1504510"><time>2021-08-14T09:11:20</time></trkpt><trkpt lat="55.8032540" lon="49.1504430"><time>2021-08-14T09:11:21</time></trkpt><trkpt lat="55.8032630" lon="49.1504350"><time>2021-08-14T09:11:22</time></trkpt><trkpt lat="55.8032910" lon="49.1504140"><time>2021-08-14T09:11:23</time></trkpt><trkpt lat="55.8032990" lon="49.1504050"><time>2021-08-14T09:11:24</time></trkpt><trkpt lat="55.8033190" lon="49.1503850"><time>2021-08-14T09:11:25</time></trkpt><trkpt lat="55.8033270" lon="49.1503770"><time>2021-08-14T09:11:26</time></trkpt><trkpt lat="55.8033350" lon="49.1503700"><time>2021-08-14T09:11:27</time></trkpt><trkpt lat="55.8033460" lon="49.1503610"><time>2021-08-14T09:11:28</time></trkpt><trkpt lat="55.8033670" lon="49.1503520"><time>2021-08-14T09:11:29</time></trkpt><trkpt lat="55.8033870" lon="49.1503340"><time>2021-08-14T09:11:30</time></trkpt><trkpt lat="55.8033950" lon="49.1503270"><time>2021-08-14T09:11:31</time></trkpt><trkpt lat="55.8034030" lon="49.1503200"><time>2021-08-14T09:11:32</time></trkpt><trkpt lat="55.8034180" lon="49.1503120"><time>2021-08-14T09:11:33</time></trkpt><trkpt lat="55.8034370" lon="49.1502990"><time>2021-08-14T09:11:34</time></trkpt><trkpt lat="55.8034670" lon="49.1502760"><time>2021-08-14T09:11:35</time></trkpt><trkpt lat="55.8034860" lon="49.1502590"><time>2021-08-14T09:11:36</time></trkpt><trkpt lat="55.8034950" lon="49.1502550"><time>2021-08-14T09:11:37</time></trkpt><trkpt lat="55.8035030" lon="49.1502500"><time>2021-08-14T09:11:38</time></trkpt><trkpt lat="55.8035330" lon="49.1502330"><time>2021-08-14T09:11:39</time></trkpt><trkpt lat="55.8035420" lon="49.1502270"><time>2021-08-14T09:11:40</time></trkpt><trkpt lat="55.8035560" lon="49.1502190"><time>2021-08-14T09:11:41</time></trkpt><trkpt lat="55.8035690" lon="49.1502060"><time>2021-08-14T09:11:42</time></trkpt><trkpt lat="55.8035920" lon="49.1501870"><time>2021-08-14T09:11:43</time></trkpt><trkpt lat="55.8036020" lon="49.1501790"><time>2021-08-14T09:11:44</time></trkpt><trkpt lat="55.8036200" lon="49.1501710"><time>2021-08-14T09:11:45</time></trkpt><trkpt lat="55.8036330" lon="49.1501560"><time>2021-08-14T09:11:46</time></trkpt><trkpt lat="55.8036480" lon="49.1501600"><time>2021-08-14T09:11:47</time></trkpt><trkpt lat="55.8036650" lon="49.1501570"><time>2021-08-14T09:11:48</time></trkpt><trkpt lat="55.8036890" lon="49.1501270"><time>2021-08-14T09:11:49</time></trkpt><trkpt lat="55.8036980" lon="49.1501210"><time>2021-08-14T09:11:50</time></trkpt><trkpt lat="55.8037120" lon="49.1501080"><time>2021-08-14T09:11:51</time></trkpt><trkpt lat="55.8037260" lon="49.1500990"><time>2021-08-14T09:11:52</time></trkpt><trkpt lat="55.8037400" lon="49.1500890"><time>2021-08-14T09:11:53</time></trkpt><trkpt lat="55.8037540" lon="49.1500780"><time>2021-08-14T09:11:54</time></trkpt><trkpt lat="55.8037780" lon="49.1500520"><time>2021-08-14T09:11:55</time></trkpt><trkpt lat="55.8037860" lon="49.1500430"><time>2021-08-14T09:11:56</time></trkpt><trkpt lat="55.8038010" lon="49.1500340"><time>2021-08-14T09:11:57</time></trkpt><trkpt lat="55.8038130" lon="49.1500210"><time>2021-08-14T09:11:58</time></trkpt><trkpt lat="55.8038270" lon="49.1500160"><time>2021-08-14T09:11:59</time></trkpt><trkpt lat="55.8038390" lon="49.1500040"><time>2021-08-14T09:12:00</time></trkpt><trkpt lat="55.8038560" lon="49.1499800"><time>2021-08-14T09:12:01</time></trkpt><trkpt lat="55.8038670" lon="49.1499660"><time>2021-08-14T09:12:02</time></trkpt><trkpt lat="55.8038800" lon="49.1499580"><time>2021-08-14T09:12:03</time></trkpt><trkpt lat="55.8038960" lon="49.1499500"><time>2021-08-14T09:12:04</time></trkpt><trkpt lat="55.8039100" lon="49.1499380"><time>2021-08-14T09:12:05</time></trkpt><trkpt lat="55.8039260" lon="49.1499240"><time>2021-08-14T09:12:06</time></trkpt><trkpt lat="55.8039410" lon="49.1499070"><time>2021-08-14T09:12:07</time></trkpt><trkpt lat="55.8039560" lon="49.1498960"><time>2021-08-14T09:12:08</time></trkpt><trkpt lat="55.8039690" lon="49.1498830"><time>2021-08-14T09:12:09</time></trkpt><trkpt lat="55.8039810" lon="49.1498670"><time>2021-08-14T09:12:10</time></trkpt><trkpt lat="55.8039990" lon="49.1498620"><time>2021-08-14T09:12:11</time></trkpt><trkpt lat="55.8040140" lon="49.1498450"><time>2021-08-14T09:12:12</time></trkpt><trkpt lat="55.8040300" lon="49.1498340"><time>2021-08-14T09:12:13</time></trkpt><trkpt lat="55.8040420" lon="49.1498170"><time>2021-08-14T09:12:14</time></trkpt><trkpt lat="55.8040570" lon="49.1498050"><time>2021-08-14T09:12:15</time></trkpt><trkpt lat="55.8040690" lon="49.1497990"><time>2021-08-14T09:12:16</time></trkpt><trkpt lat="55.8040840" lon="49.1497820"><time>2021-08-14T09:12:17</time></trkpt><trkpt lat="55.8040960" lon="49.1497640"><time>2021-08-14T09:12:18</time></trkpt><trkpt lat="55.8041120" lon="49.1497500"><time>2021-08-14T09:12:19</time></trkpt><trkpt lat="55.8041260" lon="49.1497440"><time>2021-08-14T09:12:20</time></trkpt><trkpt lat="55.8041340" lon="49.1497360"><time>2021-08-14T09:12:21</time></trkpt><trkpt lat="55.8041490" lon="49.1497180"><time>2021-08-14T09:12:22</time></trkpt><trkpt lat="55.8041630" lon="49.1497020"><time>2021-08-14T09:12:23</time></trkpt><trkpt lat="55.8041790" lon="49.1496830"><time>2021-08-14T09:12:24</time></trkpt><trkpt lat="55.8041950" lon="49.1496730"><time>2021-08-14T09:12:25</time></trkpt><trkpt lat="55.8042060" lon="49.1496600"><time>2021-08-14T09:12:26</time></trkpt><trkpt lat="55.8042180" lon="49.1496490"><time>2021-08-14T09:12:27</time></trkpt><trkpt lat="55.8042350" lon="49.1496370"><time>2021-08-14T09:12:28</time></trkpt><trkpt lat="55.8042560" lon="49.1496040"><time>2021-08-14T09:12:29</time></trkpt><trkpt lat="55.8042630" lon="49.1495920"><time>2021-08-14T09:12:30</time></trkpt><trkpt lat="55.8042760" lon="49.1495750"><time>2021-08-14T09:12:31</time></trkpt><trkpt lat="55.8042870" lon="49.1495640"><time>2021-08-14T09:12:32</time></trkpt><trkpt lat="55.8043030" lon="49.1495570"><time>2021-08-14T09:12:33</time></trkpt><trkpt lat="55.8043180" lon="49.1495400"><time>2021-08-14T09:12:34</time></trkpt><trkpt lat="55.8043330" lon="49.1495190"><time>2021-08-14T09:12:35</time></trkpt><trkpt lat="55.8043480" lon="49.1495100"><time>2021-08-14T09:12:36</time></trkpt><trkpt lat="55.8043610" lon="49.1494970"><time>2021-08-14T09:12:37</time></trkpt><trkpt lat="55.8043750" lon="49.1494880"><time>2021-08-14T09:12:38</time></trkpt><trkpt lat="55.8043860" lon="49.1494590"><time>2021-08-14T09:12:39</time></trkpt><trkpt lat="55.8044020" lon="49.1494470"><time>2021-08-14T09:12:40</time></trkpt><trkpt lat="55.8044140" lon="49.1494250"><time>2021-08-14T09:12:41</time></trkpt><trkpt lat="55.8044290" lon="49.1494130"><time>2021-08-14T09:12:42</time></trkpt><trkpt lat="55.8044460" lon="49.1493830"><time>2021-08-14T09:12:43</time></trkpt><trkpt lat="55.8044550" lon="49.1493730"><time>2021-08-14T09:12:44</time></trkpt><trkpt lat="55.8044640" lon="49.1493640"><time>2021-08-14T09:12:45</time></trkpt><trkpt lat="55.8044790" lon="49.1493460"><time>2021-08-14T09:12:46</time></trkpt><trkpt lat="55.8044930" lon="49.1493320"><time>2021-08-14T09:12:47</time></trkpt><trkpt lat="55.8045050" lon="49.1493160"><time>2021-08-14T09:12:48</time></trkpt><trkpt lat="55.8045180" lon="49.1493030"><time>2021-08-14T09:12:49</time></trkpt><trkpt lat="55.8045310" lon="49.1492860"><time>2021-08-14T09:12:51</time></trkpt><trkpt lat="55.8045430" lon="49.1492660"><time>2021-08-14T09:12:52</time></trkpt><trkpt lat="55.8045580" lon="49.1492510"><time>2021-08-14T09:12:53</time></trkpt><trkpt lat="55.8045710" lon="49.1492350"><time>2021-08-14T09:12:54</time></trkpt><trkpt lat="55.8045830" lon="49.1492180"><time>2021-08-14T09:12:55</time></trkpt><trkpt lat="55.8045940" lon="49.1491980"><time>2021-08-14T09:12:56</time></trkpt><trkpt lat="55.8046200" lon="49.1491810"><time>2021-08-14T09:12:57</time></trkpt><trkpt lat="55.8046280" lon="49.1491710"><time>2021-08-14T09:12:58</time></trkpt><trkpt lat="55.8046360" lon="49.1491520"><time>2021-08-14T09:12:59</time></trkpt><trkpt lat="55.8046440" lon="49.1491550"><time>2021-08-14T09:13:00</time></trkpt><trkpt lat="55.8046540" lon="49.1491360"><time>2021-08-14T09:13:01</time></trkpt><trkpt lat="55.8046780" lon="49.1491030"><time>2021-08-14T09:13:02</time></trkpt><trkpt lat="55.8046860" lon="49.1490890"><time>2021-08-14T09:13:03</time></trkpt><trkpt lat="55.8046980" lon="49.1490710"><time>2021-08-14T09:13:04</time></trkpt><trkpt lat="55.8047090" lon="49.1490550"><time>2021-08-14T09:13:05</time></trkpt><trkpt lat="55.8047220" lon="49.1490430"><time>2021-08-14T09:13:06</time></trkpt><trkpt lat="55.8047340" lon="49.1490130"><time>2021-08-14T09:13:07</time></trkpt><trkpt lat="55.8047490" lon="49.1489850"><time>2021-08-14T09:13:08</time></trkpt><trkpt lat="55.8047620" lon="49.1489770"><time>2021-08-14T09:13:09</time></trkpt><trkpt lat="55.8047760" lon="49.1489550"><time>2021-08-14T09:13:10</time></trkpt><trkpt lat="55.8047870" lon="49.1489450"><time>2021-08-14T09:13:11</time></trkpt><trkpt lat="55.8048090" lon="49.1489180"><time>2021-08-14T09:13:12</time></trkpt><trkpt lat="55.8048160" lon="49.1489040"><time>2021-08-14T09:13:13</time></trkpt><trkpt lat="55.8048290" lon="49.1488780"><time>2021-08-14T09:13:14</time></trkpt><trkpt lat="55.8048550" lon="49.1488520"><time>2021-08-14T09:13:15</time></trkpt><trkpt lat="55.8048670" lon="49.1488360"><time>2021-08-14T09:13:16</time></trkpt><trkpt lat="55.8048780" lon="49.1488240"><time>2021-08-14T09:13:17</time></trkpt><trkpt lat="55.8048870" lon="49.1488050"><time>2021-08-14T09:13:18</time></trkpt><trkpt lat="55.8048990" lon="49.1487780"><time>2021-08-14T09:13:19</time></trkpt><trkpt lat="55.8049100" lon="49.1487590"><time>2021-08-14T09:13:20</time></trkpt><trkpt lat="55.8049210" lon="49.1487470"><time>2021-08-14T09:13:21</time></trkpt><trkpt lat="55.8049290" lon="49.1487320"><time>2021-08-14T09:13:22</time></trkpt><trkpt lat="55.8049350" lon="49.1487160"><time>2021-08-14T09:13:23</time></trkpt><trkpt lat="55.8049560" lon="49.1486840"><time>2021-08-14T09:13:24</time></trkpt><trkpt lat="55.8049630" lon="49.1486740"><time>2021-08-14T09:13:25</time></trkpt><trkpt lat="55.8049720" lon="49.1486540"><time>2021-08-14T09:13:26</time></trkpt><trkpt lat="55.8049820" lon="49.1486340"><time>2021-08-14T09:13:27</time></trkpt><trkpt lat="55.8049950" lon="49.1486180"><time>2021-08-14T09:13:28</time></trkpt><trkpt lat="55.8050060" lon="49.1486020"><time>2021-08-14T09:13:29</time></trkpt><trkpt lat="55.8050210" lon="49.1485900"><time>2021-08-14T09:13:30</time></trkpt><trkpt lat="55.8050310" lon="49.1485630"><time>2021-08-14T09:13:31</time></trkpt><trkpt lat="55.8050420" lon="49.1485380"><time>2021-08-14T09:13:32</time></trkpt><trkpt lat="55.8050530" lon="49.1485170"><time>2021-08-14T09:13:33</time></trkpt><trkpt lat="55.8050640" lon="49.1484950"><time>2021-08-14T09:13:34</time></trkpt><trkpt lat="55.8050770" lon="49.1484830"><time>2021-08-14T09:13:35</time></trkpt><trkpt lat="55.8050900" lon="49.1484710"><time>2021-08-14T09:13:36</time></trkpt><trkpt lat="55.8051010" lon="49.1484540"><time>2021-08-14T09:13:37</time></trkpt><trkpt lat="55.8051120" lon="49.1484370"><time>2021-08-14T09:13:38</time></trkpt><trkpt lat="55.8051210" lon="49.1484100"><time>2021-08-14T09:13:39</time></trkpt><trkpt lat="55.8051340" lon="49.1483930"><time>2021-08-14T09:13:40</time></trkpt><trkpt lat="55.8051440" lon="49.1483720"><time>2021-08-14T09:13:41</time></trkpt><trkpt lat="55.8051540" lon="49.1483490"><time>2021-08-14T09:13:42</time></trkpt><trkpt lat="55.8051660" lon="49.1483360"><time>2021-08-14T09:13:43</time></trkpt><trkpt lat="55.8051750" lon="49.1483150"><time>2021-08-14T09:13:44</time></trkpt><trkpt lat="55.8051860" lon="49.1482900"><time>2021-08-14T09:13:45</time></trkpt><trkpt lat="55.8051980" lon="49.1482680"><time>2021-08-14T09:13:46</time></trkpt><trkpt lat="55.8052060" lon="49.1482460"><time>2021-08-14T09:13:47</time></trkpt><trkpt lat="55.8052190" lon="49.1482310"><time>2021-08-14T09:13:48</time></trkpt><trkpt lat="55.8052320" lon="49.1482150"><time>2021-08-14T09:13:49</time></trkpt><trkpt lat="55.8052440" lon="49.1481960"><time>2021-08-14T09:13:50</time></trkpt><trkpt lat="55.8052540" lon="49.1481720"><time>2021-08-14T09:13:51</time></trkpt><trkpt lat="55.8052660" lon="49.1481470"><time>2021-08-14T09:13:52</time></trkpt><trkpt lat="55.8052780" lon="49.1481270"><time>2021-08-14T09:13:53</time></trkpt><trkpt lat="55.8052920" lon="49.1481180"><time>2021-08-14T09:13:54</time></trkpt><trkpt lat="55.8052970" lon="49.1480900"><time>2021-08-14T09:13:55</time></trkpt><trkpt lat="55.8053060" lon="49.1480690"><time>2021-08-14T09:13:56</time></trkpt><trkpt lat="55.8053170" lon="49.1480490"><time>2021-08-14T09:13:57</time></trkpt><trkpt lat="55.8053270" lon="49.1480240"><time>2021-08-14T09:13:58</time></trkpt><trkpt lat="55.8053370" lon="49.1480000"><time>2021-08-14T09:13:59</time></trkpt><trkpt lat="55.8053540" lon="49.1479700"><time>2021-08-14T09:14:00</time></trkpt><trkpt lat="55.8053610" lon="49.1479610"><time>2021-08-14T09:14:01</time></trkpt><trkpt lat="55.8053690" lon="49.1479520"><time>2021-08-14T09:14:02</time></trkpt><trkpt lat="55.8053810" lon="49.1479270"><time>2021-08-14T09:14:03</time></trkpt><trkpt lat="55.8053900" lon="49.1479000"><time>2021-08-14T09:14:04</time></trkpt><trkpt lat="55.8054000" lon="49.1478680"><time>2021-08-14T09:14:05</time></trkpt><trkpt lat="55.8054090" lon="49.1478470"><time>2021-08-14T09:14:06</time></trkpt><trkpt lat="55.8054230" lon="49.1478180"><time>2021-08-14T09:14:07</time></trkpt><trkpt lat="55.8054300" lon="49.1478080"><time>2021-08-14T09:14:08</time></trkpt><trkpt lat="55.8054360" lon="49.1477970"><time>2021-08-14T09:14:09</time></trkpt><trkpt lat="55.8054470" lon="49.1477760"><time>2021-08-14T09:14:10</time></trkpt><trkpt lat="55.8054550" lon="49.1477500"><time>2021-08-14T09:14:11</time></trkpt><trkpt lat="55.8054610" lon="49.1477230"><time>2021-08-14T09:14:12</time></trkpt><trkpt lat="55.8054720" lon="49.1477040"><time>2021-08-14T09:14:13</time></trkpt><trkpt lat="55.8054840" lon="49.1476910"><time>2021-08-14T09:14:14</time></trkpt><trkpt lat="55.8054970" lon="49.1476770"><time>2021-08-14T09:14:15</time></trkpt><trkpt lat="55.8055070" lon="49.1476540"><time>2021-08-14T09:14:16</time></trkpt><trkpt lat="55.8055160" lon="49.1476280"><time>2021-08-14T09:14:17</time></trkpt><trkpt lat="55.8055250" lon="49.1476020"><time>2021-08-14T09:14:18</time></trkpt><trkpt lat="55.8055350" lon="49.1475790"><time>2021-08-14T09:14:19</time></trkpt><trkpt lat="55.8055450" lon="49.1475610"><time>2021-08-14T09:14:20</time></trkpt><trkpt lat="55.8055560" lon="49.1475420"><time>2021-08-14T09:14:21</time></trkpt><trkpt lat="55.8055640" lon="49.1475220"><time>2021-08-14T09:14:22</time></trkpt><trkpt lat="55.8055730" lon="49.1475000"><time>2021-08-14T09:14:23</time></trkpt><trkpt lat="55.8055800" lon="49.1474750"><time>2021-08-14T09:14:24</time></trkpt><trkpt lat="55.8055870" lon="49.1474510"><time>2021-08-14T09:14:25</time></trkpt><trkpt lat="55.8055970" lon="49.1474290"><time>2021-08-14T09:14:26</time></trkpt><trkpt lat="55.8056090" lon="49.1474120"><time>2021-08-14T09:14:27</time></trkpt><trkpt lat="55.8056170" lon="49.1473890"><time>2021-08-14T09:14:28</time></trkpt><trkpt lat="55.8056270" lon="49.1473670"><time>2021-08-14T09:14:29</time></trkpt><trkpt lat="55.8056310" lon="49.1473360"><time>2021-08-14T09:14:30</time></trkpt><trkpt lat="55.8056400" lon="49.1473130"><time>2021-08-14T09:14:31</time></trkpt><trkpt lat="55.8056520" lon="49.1472920"><time>2021-08-14T09:14:32</time></trkpt><trkpt lat="55.8056620" lon="49.1472740"><time>2021-08-14T09:14:33</time></trkpt><trkpt lat="55.8056680" lon="49.1472480"><time>2021-08-14T09:14:34</time></trkpt><trkpt lat="55.8056760" lon="49.1472240"><time>2021-08-14T09:14:35</time></trkpt><trkpt lat="55.8056830" lon="49.1471980"><time>2021-08-14T09:14:36</time></trkpt><trkpt lat="55.8056950" lon="49.1471780"><time>2021-08-14T09:14:37</time></trkpt><trkpt lat="55.8057050" lon="49.1471590"><time>2021-08-14T09:14:38</time></trkpt><trkpt lat="55.8057170" lon="49.1471380"><time>2021-08-14T09:14:39</time></trkpt><trkpt lat="55.8057240" lon="49.1471140"><time>2021-08-14T09:14:40</time></trkpt><trkpt lat="55.8057310" lon="49.1470860"><time>2021-08-14T09:14:41</time></trkpt><trkpt lat="55.8057380" lon="49.1470610"><time>2021-08-14T09:14:42</time></trkpt><trkpt lat="55.8057490" lon="49.1470410"><time>2021-08-14T09:14:43</time></trkpt><trkpt lat="55.8057640" lon="49.1470240"><time>2021-08-14T09:14:44</time></trkpt><trkpt lat="55.8057700" lon="49.1469970"><time>2021-08-14T09:14:45</time></trkpt><trkpt lat="55.8057810" lon="49.1469540"><time>2021-08-14T09:14:46</time></trkpt><trkpt lat="55.8057840" lon="49.1469380"><time>2021-08-14T09:14:47</time></trkpt><trkpt lat="55.8057970" lon="49.1469140"><time>2021-08-14T09:14:48</time></trkpt><trkpt lat="55.8057980" lon="49.1468930"><time>2021-08-14T09:14:49</time></trkpt><trkpt lat="55.8058090" lon="49.1468740"><time>2021-08-14T09:14:50</time></trkpt><trkpt lat="55.8058150" lon="49.1468510"><time>2021-08-14T09:14:51</time></trkpt><trkpt lat="55.8058260" lon="49.1468270"><time>2021-08-14T09:14:52</time></trkpt><trkpt lat="55.8058330" lon="49.1468000"><time>2021-08-14T09:14:53</time></trkpt><trkpt lat="55.8058460" lon="49.1467790"><time>2021-08-14T09:14:54</time></trkpt><trkpt lat="55.8058540" lon="49.1467540"><time>2021-08-14T09:14:55</time></trkpt><trkpt lat="55.8058640" lon="49.1467320"><time>2021-08-14T09:14:57</time></trkpt><trkpt lat="55.8058740" lon="49.1467100"><time>2021-08-14T09:14:58</time></trkpt><trkpt lat="55.8058790" lon="49.1466810"><time>2021-08-14T09:14:59</time></trkpt><trkpt lat="55.8058860" lon="49.1466510"><time>2021-08-14T09:15:00</time></trkpt><trkpt lat="55.8058960" lon="49.1466270"><time>2021-08-14T09:15:01</time></trkpt><trkpt lat="55.8059050" lon="49.1466040"><time>2021-08-14T09:15:02</time></trkpt><trkpt lat="55.8059130" lon="49.1465800"><time>2021-08-14T09:15:03</time></trkpt><trkpt lat="55.8059160" lon="49.1465510"><time>2021-08-14T09:15:04</time></trkpt><trkpt lat="55.8059260" lon="49.1465290"><time>2021-08-14T09:15:05</time></trkpt><trkpt lat="55.8059340" lon="49.1465020"><time>2021-08-14T09:15:06</time></trkpt><trkpt lat="55.8059430" lon="49.1464770"><time>2021-08-14T09:15:07</time></trkpt><trkpt lat="55.8059510" lon="49.1464550"><time>2021-08-14T09:15:08</time></trkpt><trkpt lat="55.8059590" lon="49.1464290"><time>2021-08-14T09:15:09</time></trkpt><trkpt lat="55.8059690" lon="49.1464100"><time>2021-08-14T09:15:10</time></trkpt><trkpt lat="55.8059770" lon="49.1463830"><time>2021-08-14T09:15:11</time></trkpt><trkpt lat="55.8059840" lon="49.1463550"><time>2021-08-14T09:15:12</time></trkpt><trkpt lat="55.8059910" lon="49.1463290"><time>2021-08-14T09:15:13</time></trkpt><trkpt lat="55.8060010" lon="49.1463090"><time>2021-08-14T09:15:14</time></trkpt><trkpt lat="55.8060080" lon="49.1462830"><time>2021-08-14T09:15:15</time></trkpt><trkpt lat="55.8060150" lon="49.1462600"><time>2021-08-14T09:15:16</time></trkpt><trkpt lat="55.8060250" lon="49.1462350"><time>2021-08-14T09:15:17</time></trkpt><trkpt lat="55.8060300" lon="49.1462070"><time>2021-08-14T09:15:18</time></trkpt><trkpt lat="55.8060320" lon="49.1461760"><time>2021-08-14T09:15:19</time></trkpt><trkpt lat="55.8060410" lon="49.1461540"><time>2021-08-14T09:15:20</time></trkpt><trkpt lat="55.8060530" lon="49.1461360"><time>2021-08-14T09:15:21</time></trkpt><trkpt lat="55.8060610" lon="49.1461130"><time>2021-08-14T09:15:22</time></trkpt><trkpt lat="55.8060630" lon="49.1460830"><time>2021-08-14T09:15:23</time></trkpt><trkpt lat="55.8060690" lon="49.1460540"><time>2021-08-14T09:15:24</time></trkpt><trkpt lat="55.8060730" lon="49.1460260"><time>2021-08-14T09:15:25</time></trkpt><trkpt lat="55.8060810" lon="49.1460040"><time>2021-08-14T09:15:26</time></trkpt><trkpt lat="55.8060900" lon="49.1459840"><time>2021-08-14T09:15:27</time></trkpt><trkpt lat="55.8060960" lon="49.1459600"><time>2021-08-14T09:15:28</time></trkpt><trkpt lat="55.8061010" lon="49.1459300"><time>2021-08-14T09:15:29</time></trkpt><trkpt lat="55.8061040" lon="49.1459000"><time>2021-08-14T09:15:30</time></trkpt><trkpt lat="55.8061070" lon="49.1458740"><time>2021-08-14T09:15:31</time></trkpt><trkpt lat="55.8061180" lon="49.1458540"><time>2021-08-14T09:15:32</time></trkpt><trkpt lat="55.8061260" lon="49.1458320"><time>2021-08-14T09:15:33</time></trkpt><trkpt lat="55.8061330" lon="49.1458060"><time>2021-08-14T09:15:34</time></trkpt><trkpt lat="55.8061390" lon="49.1457810"><time>2021-08-14T09:15:35</time></trkpt><trkpt lat="55.8061450" lon="49.1457560"><time>2021-08-14T09:15:36</time></trkpt><trkpt lat="55.8061520" lon="49.1457300"><time>2021-08-14T09:15:37</time></trkpt><trkpt lat="55.8061610" lon="49.1457110"><time>2021-08-14T09:15:38</time></trkpt><trkpt lat="55.8061710" lon="49.1456890"><time>2021-08-14T09:15:39</time></trkpt><trkpt lat="55.8061760" lon="49.1456640"><time>2021-08-14T09:15:40</time></trkpt><trkpt lat="55.8061850" lon="49.1456370"><time>2021-08-14T09:15:41</time></trkpt><trkpt lat="55.8061880" lon="49.1456050"><time>2021-08-14T09:15:42</time></trkpt><trkpt lat="55.8061890" lon="49.1455800"><time>2021-08-14T09:15:43</time></trkpt><trkpt lat="55.8061940" lon="49.1455530"><time>2021-08-14T09:15:44</time></trkpt><trkpt lat="55.8062020" lon="49.1455390"><time>2021-08-14T09:15:45</time></trkpt><trkpt lat="55.8062100" lon="49.1455130"><time>2021-08-14T09:15:46</time></trkpt><trkpt lat="55.8062160" lon="49.1454890"><time>2021-08-14T09:15:47</time></trkpt><trkpt lat="55.8062190" lon="49.1454560"><time>2021-08-14T09:15:48</time></trkpt><trkpt lat="55.8062210" lon="49.1454280"><time>2021-08-14T09:15:49</time></trkpt><trkpt lat="55.8062270" lon="49.1454010"><time>2021-08-14T09:15:50</time></trkpt><trkpt lat="55.8062360" lon="49.1453790"><time>2021-08-14T09:15:51</time></trkpt><trkpt lat="55.8062420" lon="49.1453580"><time>2021-08-14T09:15:52</time></trkpt><trkpt lat="55.8062490" lon="49.1453320"><time>2021-08-14T09:15:53</time></trkpt><trkpt lat="55.8062560" lon="49.1453060"><time>2021-08-14T09:15:54</time></trkpt><trkpt lat="55.8062610" lon="49.1452830"><time>2021-08-14T09:15:55</time></trkpt><trkpt lat="55.8062640" lon="49.1452470"><time>2021-08-14T09:15:56</time></trkpt><trkpt lat="55.8062690" lon="49.1452230"><time>2021-08-14T09:15:57</time></trkpt><trkpt lat="55.8062800" lon="49.1452020"><time>2021-08-14T09:15:58</time></trkpt><trkpt lat="55.8062890" lon="49.1451780"><time>2021-08-14T09:15:59</time></trkpt><trkpt lat="55.8062970" lon="49.1451510"><time>2021-08-14T09:16:00</time></trkpt><trkpt lat="55.8063120" lon="49.1450960"><time>2021-08-14T09:16:01</time></trkpt><trkpt lat="55.8063160" lon="49.1450690"><time>2021-08-14T09:16:02</time></trkpt><trkpt lat="55.8063270" lon="49.1450500"><time>2021-08-14T09:16:03</time></trkpt><trkpt lat="55.8063400" lon="49.1450290"><time>2021-08-14T09:16:04</time></trkpt><trkpt lat="55.8063510" lon="49.1450080"><time>2021-08-14T09:16:05</time></trkpt><trkpt lat="55.8063590" lon="49.1449870"><time>2021-08-14T09:16:06</time></trkpt><trkpt lat="55.8063620" lon="49.1449560"><time>2021-08-14T09:16:07</time></trkpt><trkpt lat="55.8063700" lon="49.1449290"><time>2021-08-14T09:16:08</time></trkpt><trkpt lat="55.8063770" lon="49.1449040"><time>2021-08-14T09:16:09</time></trkpt><trkpt lat="55.8063870" lon="49.1448850"><time>2021-08-14T09:16:10</time></trkpt><trkpt lat="55.8063920" lon="49.1448640"><time>2021-08-14T09:16:11</time></trkpt><trkpt lat="55.8064000" lon="49.1448390"><time>2021-08-14T09:16:12</time></trkpt><trkpt lat="55.8064050" lon="49.1448140"><time>2021-08-14T09:16:13</time></trkpt><trkpt lat="55.8064130" lon="49.1447800"><time>2021-08-14T09:16:14</time></trkpt><trkpt lat="55.8064170" lon="49.1447680"><time>2021-08-14T09:16:15</time></trkpt><trkpt lat="55.8064200" lon="49.1447550"><time>2021-08-14T09:16:16</time></trkpt><trkpt lat="55.8064200" lon="49.1447330"><time>2021-08-14T09:16:17</time></trkpt><trkpt lat="55.8064260" lon="49.1447060"><time>2021-08-14T09:16:18</time></trkpt><trkpt lat="55.8064380" lon="49.1446870"><time>2021-08-14T09:16:19</time></trkpt><trkpt lat="55.8064470" lon="49.1446680"><time>2021-08-14T09:16:20</time></trkpt><trkpt lat="55.8064570" lon="49.1446440"><time>2021-08-14T09:16:21</time></trkpt><trkpt lat="55.8064630" lon="49.1446140"><time>2021-08-14T09:16:22</time></trkpt><trkpt lat="55.8064680" lon="49.1445940"><time>2021-08-14T09:16:23</time></trkpt><trkpt lat="55.8064730" lon="49.1445670"><time>2021-08-14T09:16:24</time></trkpt><trkpt lat="55.8064800" lon="49.1445540"><time>2021-08-14T09:16:25</time></trkpt><trkpt lat="55.8064900" lon="49.1445200"><time>2021-08-14T09:16:26</time></trkpt><trkpt lat="55.8065030" lon="49.1444960"><time>2021-08-14T09:16:27</time></trkpt><trkpt lat="55.8065100" lon="49.1444700"><time>2021-08-14T09:16:28</time></trkpt><trkpt lat="55.8065100" lon="49.1444340"><time>2021-08-14T09:16:29</time></trkpt><trkpt lat="55.8065180" lon="49.1444100"><time>2021-08-14T09:16:30</time></trkpt><trkpt lat="55.8065230" lon="49.1443880"><time>2021-08-14T09:16:31</time></trkpt><trkpt lat="55.8065340" lon="49.1443700"><time>2021-08-14T09:16:32</time></trkpt><trkpt lat="55.8065420" lon="49.1443440"><time>2021-08-14T09:16:33</time></trkpt><trkpt lat="55.8065470" lon="49.1443160"><time>2021-08-14T09:16:34</time></trkpt><trkpt lat="55.8065500" lon="49.1442860"><time>2021-08-14T09:16:35</time></trkpt><trkpt lat="55.8065530" lon="49.1442580"><time>2021-08-14T09:16:36</time></trkpt><trkpt lat="55.8065610" lon="49.1442310"><time>2021-08-14T09:16:37</time></trkpt><trkpt lat="55.8065660" lon="49.1442070"><time>2021-08-14T09:16:38</time></trkpt><trkpt lat="55.8065750" lon="49.1441870"><time>2021-08-14T09:16:39</time></trkpt><trkpt lat="55.8065820" lon="49.1441620"><time>2021-08-14T09:16:40</time></trkpt><trkpt lat="55.8065860" lon="49.1441380"><time>2021-08-14T09:16:41</time></trkpt><trkpt lat="55.8065930" lon="49.1441110"><time>2021-08-14T09:16:42</time></trkpt><trkpt lat="55.8066020" lon="49.1440860"><time>2021-08-14T09:16:43</time></trkpt><trkpt lat="55.8066070" lon="49.1440610"><time>2021-08-14T09:16:44</time></trkpt><trkpt lat="55.8066170" lon="49.1440410"><time>2021-08-14T09:16:45</time></trkpt><trkpt lat="55.8066250" lon="49.1440180"><time>2021-08-14T09:16:46</time></trkpt><trkpt lat="55.8066350" lon="49.1439980"><time>2021-08-14T09:16:47</time></trkpt><trkpt lat="55.8066380" lon="49.1439710"><time>2021-08-14T09:16:48</time></trkpt><trkpt lat="55.8066410" lon="49.1439430"><time>2021-08-14T09:16:49</time></trkpt><trkpt lat="55.8066430" lon="49.1439190"><time>2021-08-14T09:16:50</time></trkpt><trkpt lat="55.8066520" lon="49.1438940"><time>2021-08-14T09:16:51</time></trkpt><trkpt lat="55.8066640" lon="49.1438760"><time>2021-08-14T09:16:52</time></trkpt><trkpt lat="55.8066730" lon="49.1438560"><time>2021-08-14T09:16:53</time></trkpt><trkpt lat="55.8066810" lon="49.1438340"><time>2021-08-14T09:16:54</time></trkpt><trkpt lat="55.8066910" lon="49.1438120"><time>2021-08-14T09:16:55</time></trkpt><trkpt lat="55.8066960" lon="49.1437870"><time>2021-08-14T09:16:56</time></trkpt><trkpt lat="55.8067020" lon="49.1437590"><time>2021-08-14T09:16:57</time></trkpt><trkpt lat="55.8067070" lon="49.1437340"><time>2021-08-14T09:16:58</time></trkpt><trkpt lat="55.8067140" lon="49.1436980"><time>2021-08-14T09:16:59</time></trkpt><trkpt lat="55.8067170" lon="49.1436840"><time>2021-08-14T09:17:00</time></trkpt><trkpt lat="55.8067200" lon="49.1436710"><time>2021-08-14T09:17:01</time></trkpt><trkpt lat="55.8067270" lon="49.1436460"><time>2021-08-14T09:17:03</time></trkpt><trkpt lat="55.8067320" lon="49.1436220"><time>2021-08-14T09:17:04</time></trkpt><trkpt lat="55.8067370" lon="49.1435970"><time>2021-08-14T09:17:05</time></trkpt><trkpt lat="55.8067420" lon="49.1435700"><time>2021-08-14T09:17:06</time></trkpt><trkpt lat="55.8067490" lon="49.1435440"><time>2021-08-14T09:17:07</time></trkpt><trkpt lat="55.8067540" lon="49.1435210"><time>2021-08-14T09:17:08</time></trkpt><trkpt lat="55.8067630" lon="49.1434840"><time>2021-08-14T09:17:09</time></trkpt><trkpt lat="55.8067680" lon="49.1434710"><time>2021-08-14T09:17:10</time></trkpt><trkpt lat="55.8067720" lon="49.1434570"><time>2021-08-14T09:17:11</time></trkpt><trkpt lat="55.8067770" lon="49.1434230"><time>2021-08-14T09:17:12</time></trkpt><trkpt lat="55.8067810" lon="49.1433960"><time>2021-08-14T09:17:13</time></trkpt><trkpt lat="55.8067890" lon="49.1433710"><time>2021-08-14T09:17:14</time></trkpt><trkpt lat="55.8067960" lon="49.1433490"><time>2021-08-14T09:17:15</time></trkpt><trkpt lat="55.8068040" lon="49.1433250"><time>2021-08-14T09:17:16</time></trkpt><trkpt lat="55.8068140" lon="49.1433070"><time>2021-08-14T09:17:17</time></trkpt><trkpt lat="55.8068200" lon="49.1432850"><time>2021-08-14T09:17:18</time></trkpt><trkpt lat="55.8068290" lon="49.1432650"><time>2021-08-14T09:17:19</time></trkpt><trkpt lat="55.8068340" lon="49.1432370"><time>2021-08-14T09:17:20</time></trkpt><trkpt lat="55.8068420" lon="49.1432140"><time>2021-08-14T09:17:21</time></trkpt><trkpt lat="55.8068490" lon="49.1431890"><time>2021-08-14T09:17:22</time></trkpt><trkpt lat="55.8068540" lon="49.1431670"><time>2021-08-14T09:17:23</time></trkpt><trkpt lat="55.8068690" lon="49.1431520"><time>2021-08-14T09:17:24</time></trkpt><trkpt lat="55.8068770" lon="49.1431300"><time>2021-08-14T09:17:25</time></trkpt><trkpt lat="55.8068810" lon="49.1431020"><time>2021-08-14T09:17:26</time></trkpt><trkpt lat="55.8068850" lon="49.1430740"><time>2021-08-14T09:17:27</time></trkpt><trkpt lat="55.8068920" lon="49.1430490"><time>2021-08-14T09:17:28</time></trkpt><trkpt lat="55.8068950" lon="49.1430240"><time>2021-08-14T09:17:29</time></trkpt><trkpt lat="55.8069000" lon="49.1430010"><time>2021-08-14T09:17:30</time></trkpt><trkpt lat="55.8069080" lon="49.1429790"><time>2021-08-14T09:17:31</time></trkpt><trkpt lat="55.8069140" lon="49.1429520"><time>2021-08-14T09:17:32</time></trkpt><trkpt lat="55.8069210" lon="49.1429290"><time>2021-08-14T09:17:33</time></trkpt><trkpt lat="55.8069290" lon="49.1429050"><time>2021-08-14T09:17:34</time></trkpt><trkpt lat="55.8069380" lon="49.1428820"><time>2021-08-14T09:17:35</time></trkpt><trkpt lat="55.8069400" lon="49.1428550"><time>2021-08-14T09:17:36</time></trkpt><trkpt lat="55.8069510" lon="49.1428350"><time>2021-08-14T09:17:37</time></trkpt><trkpt lat="55.8069540" lon="49.1428100"><time>2021-08-14T09:17:38</time></trkpt><trkpt lat="55.8069610" lon="49.1427840"><time>2021-08-14T09:17:39</time></trkpt><trkpt lat="55.8069680" lon="49.1427620"><time>2021-08-14T09:17:40</time></trkpt><trkpt lat="55.8069800" lon="49.1427040"><time>2021-08-14T09:17:41</time></trkpt><trkpt lat="55.8069870" lon="49.1426760"><time>2021-08-14T09:17:42</time></trkpt><trkpt lat="55.8069960" lon="49.1426540"><time>2021-08-14T09:17:43</time></trkpt><trkpt lat="55.8070010" lon="49.1426290"><time>2021-08-14T09:17:44</time></trkpt><trkpt lat="55.8070110" lon="49.1425900"><time>2021-08-14T09:17:45</time></trkpt><trkpt lat="55.8070150" lon="49.1425720"><time>2021-08-14T09:17:46</time></trkpt><trkpt lat="55.8070190" lon="49.1425530"><time>2021-08-14T09:17:47</time></trkpt><trkpt lat="55.8070270" lon="49.1425290"><time>2021-08-14T09:17:48</time></trkpt><trkpt lat="55.8070340" lon="49.1425030"><time>2021-08-14T09:17:49</time></trkpt><trkpt lat="55.8070350" lon="49.1424730"><time>2021-08-14T09:17:50</time></trkpt><trkpt lat="55.8070400" lon="49.1424490"><time>2021-08-14T09:17:51</time></trkpt><trkpt lat="55.8070500" lon="49.1424310"><time>2021-08-14T09:17:52</time></trkpt><trkpt lat="55.8070570" lon="49.1424100"><time>2021-08-14T09:17:53</time></trkpt><trkpt lat="55.8070630" lon="49.1423810"><time>2021-08-14T09:17:54</time></trkpt><trkpt lat="55.8070700" lon="49.1423560"><time>2021-08-14T09:17:55</time></trkpt><trkpt lat="55.8070780" lon="49.1423310"><time>2021-08-14T09:17:56</time></trkpt><trkpt lat="55.8070860" lon="49.1423090"><time>2021-08-14T09:17:57</time></trkpt><trkpt lat="55.8070950" lon="49.1422890"><time>2021-08-14T09:17:58</time></trkpt><trkpt lat="55.8070970" lon="49.1422650"><time>2021-08-14T09:17:59</time></trkpt><trkpt lat="55.8071020" lon="49.1422410"><time>2021-08-14T09:18:00</time></trkpt><trkpt lat="55.8071060" lon="49.1422170"><time>2021-08-14T09:18:01</time></trkpt><trkpt lat="55.8071130" lon="49.1421900"><time>2021-08-14T09:18:02</time></trkpt><trkpt lat="55.8071250" lon="49.1421690"><time>2021-08-14T09:18:03</time></trkpt><trkpt lat="55.8071320" lon="49.1421480"><time>2021-08-14T09:18:04</time></trkpt><trkpt lat="55.8071370" lon="49.1421260"><time>2021-08-14T09:18:05</time></trkpt><trkpt lat="55.8071480" lon="49.1420890"><time>2021-08-14T09:18:06</time></trkpt><trkpt lat="55.8071530" lon="49.1420730"><time>2021-08-14T09:18:07</time></trkpt><trkpt lat="55.8071580" lon="49.1420570"><time>2021-08-14T09:18:08</time></trkpt><trkpt lat="55.8071650" lon="49.1420300"><time>2021-08-14T09:18:09</time></trkpt><trkpt lat="55.8071750" lon="49.1420050"><time>2021-08-14T09:18:10</time></trkpt><trkpt lat="55.8071790" lon="49.1419780"><time>2021-08-14T09:18:11</time></trkpt><trkpt lat="55.8071860" lon="49.1419570"><time>2021-08-14T09:18:12</time></trkpt><trkpt lat="55.8071930" lon="49.1419270"><time>2021-08-14T09:18:13</time></trkpt><trkpt lat="55.8072010" lon="49.1419070"><time>2021-08-14T09:18:14</time></trkpt><trkpt lat="55.8072070" lon="49.1418780"><time>2021-08-14T09:18:15</time></trkpt><trkpt lat="55.8072140" lon="49.1418520"><time>2021-08-14T09:18:16</time></trkpt><trkpt lat="55.8072240" lon="49.1418290"><time>2021-08-14T09:18:17</time></trkpt><trkpt lat="55.8072290" lon="49.1418040"><time>2021-08-14T09:18:18</time></trkpt><trkpt lat="55.8072380" lon="49.1417830"><time>2021-08-14T09:18:19</time></trkpt><trkpt lat="55.8072410" lon="49.1417600"><time>2021-08-14T09:18:20</time></trkpt><trkpt lat="55.8072440" lon="49.1417380"><time>2021-08-14T09:18:21</time></trkpt><trkpt lat="55.8072530" lon="49.1417150"><time>2021-08-14T09:18:22</time></trkpt><trkpt lat="55.8072620" lon="49.1416930"><time>2021-08-14T09:18:23</time></trkpt><trkpt lat="55.8072680" lon="49.1416660"><time>2021-08-14T09:18:24</time></trkpt><trkpt lat="55.8072760" lon="49.1416440"><time>2021-08-14T09:18:25</time></trkpt><trkpt lat="55.8072820" lon="49.1416200"><time>2021-08-14T09:18:26</time></trkpt><trkpt lat="55.8072880" lon="49.1415950"><time>2021-08-14T09:18:27</time></trkpt><trkpt lat="55.8072950" lon="49.1415740"><time>2021-08-14T09:18:28</time></trkpt><trkpt lat="55.8073040" lon="49.1415540"><time>2021-08-14T09:18:29</time></trkpt><trkpt lat="55.8073110" lon="49.1415310"><time>2021-08-14T09:18:30</time></trkpt><trkpt lat="55.8073170" lon="49.1415060"><time>2021-08-14T09:18:31</time></trkpt><trkpt lat="55.8073240" lon="49.1414830"><time>2021-08-14T09:18:32</time></trkpt><trkpt lat="55.8073280" lon="49.1414570"><time>2021-08-14T09:18:33</time></trkpt><trkpt lat="55.8073360" lon="49.1414330"><time>2021-08-14T09:18:34</time></trkpt><trkpt lat="55.8073420" lon="49.1414100"><time>2021-08-14T09:18:35</time></trkpt><trkpt lat="55.8073460" lon="49.1413840"><time>2021-08-14T09:18:36</time></trkpt><trkpt lat="55.8073480" lon="49.1413560"><time>2021-08-14T09:18:37</time></trkpt><trkpt lat="55.8073560" lon="49.1413330"><time>2021-08-14T09:18:38</time></trkpt><trkpt lat="55.8073630" lon="49.1413100"><time>2021-08-14T09:18:39</time></trkpt><trkpt lat="55.8073690" lon="49.1412830"><time>2021-08-14T09:18:40</time></trkpt><trkpt lat="55.8073780" lon="49.1412610"><time>2021-08-14T09:18:41</time></trkpt><trkpt lat="55.8073880" lon="49.1412430"><time>2021-08-14T09:18:42</time></trkpt><trkpt lat="55.8073940" lon="49.1412200"><time>2021-08-14T09:18:43</time></trkpt><trkpt lat="55.8073990" lon="49.1411990"><time>2021-08-14T09:18:44</time></trkpt><trkpt lat="55.8074000" lon="49.1411820"><time>2021-08-14T09:18:45</time></trkpt><trkpt lat="55.8074010" lon="49.1411720"><time>2021-08-14T09:18:46</time></trkpt><trkpt lat="55.8073900" lon="49.1411910"><time>2021-08-14T09:18:47</time></trkpt><trkpt lat="55.8073860" lon="49.1411820"><time>2021-08-14T09:18:48</time></trkpt><trkpt lat="55.8073860" lon="49.1411900"><time>2021-08-14T09:18:49</time></trkpt><trkpt lat="55.8073920" lon="49.1411900"><time>2021-08-14T09:18:50</time></trkpt><trkpt lat="55.8073910" lon="49.1411970"><time>2021-08-14T09:18:51</time></trkpt><trkpt lat="55.8074000" lon="49.1412010"><time>2021-08-14T09:18:52</time></trkpt><trkpt lat="55.8073970" lon="49.1412070"><time>2021-08-14T09:18:53</time></trkpt><trkpt lat="55.8073970" lon="49.1412080"><time>2021-08-14T09:18:54</time></trkpt><trkpt lat="55.8074020" lon="49.1412170"><time>2021-08-14T09:18:55</time></trkpt><trkpt lat="55.8074020" lon="49.1412170"><time>2021-08-14T09:18:56</time></trkpt><trkpt lat="55.8074030" lon="49.1412150"><time>2021-08-14T09:18:57</time></trkpt><trkpt lat="55.8073990" lon="49.1412130"><time>2021-08-14T09:18:58</time></trkpt><trkpt lat="55.8074020" lon="49.1412170"><time>2021-08-14T09:18:59</time></trkpt><trkpt lat="55.8074060" lon="49.1412110"><time>2021-08-14T09:19:00</time></trkpt><trkpt lat="55.8074070" lon="49.1412150"><time>2021-08-14T09:19:01</time></trkpt><trkpt lat="55.8074070" lon="49.1412130"><time>2021-08-14T09:19:02</time></trkpt><trkpt lat="55.8074080" lon="49.1412150"><time>2021-08-14T09:19:03</time></trkpt><trkpt lat="55.8074080" lon="49.1412140"><time>2021-08-14T09:19:04</time></trkpt><trkpt lat="55.8074080" lon="49.1412130"><time>2021-08-14T09:19:05</time></trkpt><trkpt lat="55.8074100" lon="49.1412140"><time>2021-08-14T09:19:06</time></trkpt><trkpt lat="55.8074090" lon="49.1412090"><time>2021-08-14T09:19:07</time></trkpt><trkpt lat="55.8074170" lon="49.1412080"><time>2021-08-14T09:19:09</time></trkpt><trkpt lat="55.8074140" lon="49.1412110"><time>2021-08-14T09:19:10</time></trkpt><trkpt lat="55.8074200" lon="49.1412130"><time>2021-08-14T09:19:11</time></trkpt><trkpt lat="55.8074180" lon="49.1412160"><time>2021-08-14T09:19:12</time></trkpt><trkpt lat="55.8074230" lon="49.1412160"><time>2021-08-14T09:19:13</time></trkpt><trkpt lat="55.8074250" lon="49.1412130"><time>2021-08-14T09:19:14</time></trkpt><trkpt lat="55.8074240" lon="49.1412170"><time>2021-08-14T09:19:15</time></trkpt><trkpt lat="55.8074260" lon="49.1412130"><time>2021-08-14T09:19:16</time></trkpt><trkpt lat="55.8074280" lon="49.1412160"><time>2021-08-14T09:19:17</time></trkpt><trkpt lat="55.8074320" lon="49.1412150"><time>2021-08-14T09:19:18</time></trkpt><trkpt lat="55.8074370" lon="49.1412160"><time>2021-08-14T09:19:19</time></trkpt><trkpt lat="55.8074420" lon="49.1412200"><time>2021-08-14T09:19:20</time></trkpt><trkpt lat="55.8074450" lon="49.1412240"><time>2021-08-14T09:19:21</time></trkpt><trkpt lat="55.8074530" lon="49.1412130"><time>2021-08-14T09:19:22</time></trkpt><trkpt lat="55.8074770" lon="49.1412280"><time>2021-08-14T09:19:23</time></trkpt><trkpt lat="55.8074880" lon="49.1412330"><time>2021-08-14T09:19:24</time></trkpt><trkpt lat="55.8075040" lon="49.1412540"><time>2021-08-14T09:19:25</time></trkpt><trkpt lat="55.8075150" lon="49.1412550"><time>2021-08-14T09:19:26</time></trkpt><trkpt lat="55.8075290" lon="49.1412460"><time>2021-08-14T09:19:27</time></trkpt><trkpt lat="55.8075410" lon="49.1412360"><time>2021-08-14T09:19:28</time></trkpt><trkpt lat="55.8075570" lon="49.1412420"><time>2021-08-14T09:19:29</time></trkpt><trkpt lat="55.8075690" lon="49.1412470"><time>2021-08-14T09:19:30</time></trkpt><trkpt lat="55.8075810" lon="49.1412520"><time>2021-08-14T09:19:31</time></trkpt><trkpt lat="55.8075970" lon="49.1412490"><time>2021-08-14T09:19:32</time></trkpt><trkpt lat="55.8076120" lon="49.1412520"><time>2021-08-14T09:19:33</time></trkpt><trkpt lat="55.8076220" lon="49.1412600"><time>2021-08-14T09:19:34</time></trkpt><trkpt lat="55.8076330" lon="49.1412600"><time>2021-08-14T09:19:35</time></trkpt><trkpt lat="55.8076460" lon="49.1412640"><time>2021-08-14T09:19:36</time></trkpt><trkpt lat="55.8076630" lon="49.1412620"><time>2021-08-14T09:19:37</time></trkpt><trkpt lat="55.8076820" lon="49.1412680"><time>2021-08-14T09:19:38</time></trkpt><trkpt lat="55.8076920" lon="49.1412690"><time>2021-08-14T09:19:39</time></trkpt><trkpt lat="55.8077010" lon="49.1412690"><time>2021-08-14T09:19:40</time></trkpt><trkpt lat="55.8077130" lon="49.1412750"><time>2021-08-14T09:19:41</time></trkpt><trkpt lat="55.8077210" lon="49.1412830"><time>2021-08-14T09:19:42</time></trkpt><trkpt lat="55.8077280" lon="49.1412900"><time>2021-08-14T09:19:43</time></trkpt><trkpt lat="55.8077330" lon="49.1412940"><time>2021-08-14T09:19:44</time></trkpt><trkpt lat="55.8077360" lon="49.1412970"><time>2021-08-14T09:19:45</time></trkpt><trkpt lat="55.8077360" lon="49.1412980"><time>2021-08-14T09:19:46</time></trkpt><trkpt lat="55.8077340" lon="49.1413040"><time>2021-08-14T09:19:47</time></trkpt><trkpt lat="55.8077290" lon="49.1413180"><time>2021-08-14T09:19:48</time></trkpt><trkpt lat="55.8077240" lon="49.1413300"><time>2021-08-14T09:19:49</time></trkpt><trkpt lat="55.8077180" lon="49.1413470"><time>2021-08-14T09:19:50</time></trkpt><trkpt lat="55.8077130" lon="49.1413720"><time>2021-08-14T09:19:51</time></trkpt><trkpt lat="55.8077050" lon="49.1413910"><time>2021-08-14T09:19:52</time></trkpt><trkpt lat="55.8076980" lon="49.1414050"><time>2021-08-14T09:19:53</time></trkpt><trkpt lat="55.8076900" lon="49.1414160"><time>2021-08-14T09:19:54</time></trkpt><trkpt lat="55.8076890" lon="49.1414150"><time>2021-08-14T09:19:55</time></trkpt><trkpt lat="55.8076810" lon="49.1414270"><time>2021-08-14T09:19:56</time></trkpt><trkpt lat="55.8076830" lon="49.1414320"><time>2021-08-14T09:19:57</time></trkpt><trkpt lat="55.8076870" lon="49.1414400"><time>2021-08-14T09:19:58</time></trkpt><trkpt lat="55.8076870" lon="49.1414420"><time>2021-08-14T09:19:59</time></trkpt><trkpt lat="55.8076890" lon="49.1414440"><time>2021-08-14T09:20:00</time></trkpt><trkpt lat="55.8076920" lon="49.1414490"><time>2021-08-14T09:20:01</time></trkpt><trkpt lat="55.8077000" lon="49.1414550"><time>2021-08-14T09:20:02</time></trkpt><trkpt lat="55.8077040" lon="49.1414540"><time>2021-08-14T09:20:03</time></trkpt><trkpt lat="55.8077110" lon="49.1414570"><time>2021-08-14T09:20:04</time></trkpt><trkpt lat="55.8077150" lon="49.1414590"><time>2021-08-14T09:20:05</time></trkpt><trkpt lat="55.8077200" lon="49.1414620"><time>2021-08-14T09:20:06</time></trkpt><trkpt lat="55.8077240" lon="49.1414640"><time>2021-08-14T09:20:07</time></trkpt><trkpt lat="55.8077280" lon="49.1414660"><time>2021-08-14T09:20:08</time></trkpt><trkpt lat="55.8077320" lon="49.1414680"><time>2021-08-14T09:20:09</time></trkpt><trkpt lat="55.8077370" lon="49.1414710"><time>2021-08-14T09:20:10</time></trkpt><trkpt lat="55.8077410" lon="49.1414730"><time>2021-08-14T09:20:11</time></trkpt><trkpt lat="55.8077450" lon="49.1414750"><time>2021-08-14T09:20:12</time></trkpt><trkpt lat="55.8077680" lon="49.1414990"><time>2021-08-14T09:20:13</time></trkpt><trkpt lat="55.8077760" lon="49.1415070"><time>2021-08-14T09:20:14</time></trkpt><trkpt lat="55.8077750" lon="49.1414960"><time>2021-08-14T09:20:15</time></trkpt><trkpt lat="55.8077820" lon="49.1414820"><time>2021-08-14T09:20:16</time></trkpt><trkpt lat="55.8077890" lon="49.1414730"><time>2021-08-14T09:20:17</time></trkpt><trkpt lat="55.8077920" lon="49.1414630"><time>2021-08-14T09:20:18</time></trkpt><trkpt lat="55.8077960" lon="49.1414580"><time>2021-08-14T09:20:19</time></trkpt><trkpt lat="55.8078020" lon="49.1414580"><time>2021-08-14T09:20:20</time></trkpt><trkpt lat="55.8078090" lon="49.1414570"><time>2021-08-14T09:20:21</time></trkpt><trkpt lat="55.8078130" lon="49.1414570"><time>2021-08-14T09:20:22</time></trkpt><trkpt lat="55.8078140" lon="49.1414570"><time>2021-08-14T09:20:23</time></trkpt><trkpt lat="55.8078130" lon="49.1414570"><time>2021-08-14T09:20:24</time></trkpt><trkpt lat="55.8078220" lon="49.1414540"><time>2021-08-14T09:20:25</time></trkpt><trkpt lat="55.8078210" lon="49.1414530"><time>2021-08-14T09:20:26</time></trkpt><trkpt lat="55.8078220" lon="49.1414520"><time>2021-08-14T09:20:27</time></trkpt><trkpt lat="55.8078230" lon="49.1414530"><time>2021-08-14T09:20:28</time></trkpt><trkpt lat="55.8078230" lon="49.1414530"><time>2021-08-14T09:20:29</time></trkpt><trkpt lat="55.8078220" lon="49.1414510"><time>2021-08-14T09:20:30</time></trkpt><trkpt lat="55.8078210" lon="49.1414440"><time>2021-08-14T09:20:31</time></trkpt><trkpt lat="55.8078240" lon="49.1414550"><time>2021-08-14T09:20:32</time></trkpt><trkpt lat="55.8078240" lon="49.1414620"><time>2021-08-14T09:20:33</time></trkpt><trkpt lat="55.8078240" lon="49.1414500"><time>2021-08-14T09:20:34</time></trkpt><trkpt lat="55.8078250" lon="49.1414390"><time>2021-08-14T09:20:35</time></trkpt><trkpt lat="55.8078240" lon="49.1414340"><time>2021-08-14T09:20:36</time></trkpt><trkpt lat="55.8078260" lon="49.1414340"><time>2021-08-14T09:20:37</time></trkpt><trkpt lat="55.8078240" lon="49.1414240"><time>2021-08-14T09:20:38</time></trkpt><trkpt lat="55.8078300" lon="49.1414100"><time>2021-08-14T09:20:39</time></trkpt><trkpt lat="55.8078360" lon="49.1414070"><time>2021-08-14T09:20:40</time></trkpt><trkpt lat="55.8078360" lon="49.1414180"><time>2021-08-14T09:20:41</time></trkpt><trkpt lat="55.8078380" lon="49.1414190"><time>2021-08-14T09:20:42</time></trkpt><trkpt lat="55.8078400" lon="49.1414190"><time>2021-08-14T09:20:43</time></trkpt><trkpt lat="55.8078470" lon="49.1414510"><time>2021-08-14T09:20:44</time></trkpt><trkpt lat="55.8078470" lon="49.1414560"><time>2021-08-14T09:20:45</time></trkpt><trkpt lat="55.8078550" lon="49.1414350"><time>2021-08-14T09:20:46</time></trkpt><trkpt lat="55.8078540" lon="49.1414320"><time>2021-08-14T09:20:47</time></trkpt><trkpt lat="55.8078530" lon="49.1414490"><time>2021-08-14T09:20:48</time></trkpt><trkpt lat="55.8078520" lon="49.1414490"><time>2021-08-14T09:20:49</time></trkpt><trkpt lat="55.8078550" lon="49.1414660"><time>2021-08-14T09:20:50</time></trkpt><trkpt lat="55.8078600" lon="49.1414810"><time>2021-08-14T09:20:51</time></trkpt><trkpt lat="55.8078630" lon="49.1414930"><time>2021-08-14T09:20:52</time></trkpt><trkpt lat="55.8078750" lon="49.1415050"><time>2021-08-14T09:20:53</time></trkpt><trkpt lat="55.8078800" lon="49.1415120"><time>2021-08-14T09:20:54</time></trkpt><trkpt lat="55.8078870" lon="49.1415210"><time>2021-08-14T09:20:55</time></trkpt><trkpt lat="55.8079020" lon="49.1415300"><time>2021-08-14T09:20:56</time></trkpt><trkpt lat="55.8079110" lon="49.1415310"><time>2021-08-14T09:20:57</time></trkpt><trkpt lat="55.8079210" lon="49.1415320"><time>2021-08-14T09:20:58</time></trkpt><trkpt lat="55.8079300" lon="49.1415330"><time>2021-08-14T09:20:59</time></trkpt><trkpt lat="55.8079460" lon="49.1415290"><time>2021-08-14T09:21:00</time></trkpt><trkpt lat="55.8079610" lon="49.1415240"><time>2021-08-14T09:21:01</time></trkpt><trkpt lat="55.8079780" lon="49.1415370"><time>2021-08-14T09:21:02</time></trkpt><trkpt lat="55.8079830" lon="49.1415440"><time>2021-08-14T09:21:03</time></trkpt><trkpt lat="55.8079880" lon="49.1415510"><time>2021-08-14T09:21:04</time></trkpt><trkpt lat="55.8079930" lon="49.1415580"><time>2021-08-14T09:21:05</time></trkpt><trkpt lat="55.8080110" lon="49.1415760"><time>2021-08-14T09:21:06</time></trkpt><trkpt lat="55.8080190" lon="49.1415830"><time>2021-08-14T09:21:07</time></trkpt><trkpt lat="55.8080270" lon="49.1415900"><time>2021-08-14T09:21:08</time></trkpt><trkpt lat="55.8080390" lon="49.1416030"><time>2021-08-14T09:21:09</time></trkpt><trkpt lat="55.8080520" lon="49.1416130"><time>2021-08-14T09:21:10</time></trkpt><trkpt lat="55.8080670" lon="49.1416320"><time>2021-08-14T09:21:11</time></trkpt><trkpt lat="55.8080740" lon="49.1416450"><time>2021-08-14T09:21:12</time></trkpt><trkpt lat="55.8080800" lon="49.1416580"><time>2021-08-14T09:21:13</time></trkpt><trkpt lat="55.8080920" lon="49.1416690"><time>2021-08-14T09:21:15</time></trkpt><trkpt lat="55.8081060" lon="49.1416860"><time>2021-08-14T09:21:16</time></trkpt><trkpt lat="55.8081110" lon="49.1417000"><time>2021-08-14T09:21:17</time></trkpt><trkpt lat="55.8081230" lon="49.1417150"><time>2021-08-14T09:21:18</time></trkpt><trkpt lat="55.8081320" lon="49.1417230"><time>2021-08-14T09:21:19</time></trkpt><trkpt lat="55.8081380" lon="49.1417320"><time>2021-08-14T09:21:20</time></trkpt><trkpt lat="55.8081460" lon="49.1417410"><time>2021-08-14T09:21:21</time></trkpt><trkpt lat="55.8081590" lon="49.1417500"><time>2021-08-14T09:21:22</time></trkpt><trkpt lat="55.8081780" lon="49.1417580"><time>2021-08-14T09:21:23</time></trkpt><trkpt lat="55.8081880" lon="49.1417490"><time>2021-08-14T09:21:24</time></trkpt><trkpt lat="55.8082000" lon="49.1417420"><time>2021-08-14T09:21:25</time></trkpt><trkpt lat="55.8082160" lon="49.1417290"><time>2021-08-14T09:21:26</time></trkpt><trkpt lat="55.8082340" lon="49.1417100"><time>2021-08-14T09:21:27</time></trkpt><trkpt lat="55.8082410" lon="49.1417020"><time>2021-08-14T09:21:28</time></trkpt><trkpt lat="55.8082490" lon="49.1416950"><time>2021-08-14T09:21:29</time></trkpt><trkpt lat="55.8082650" lon="49.1416770"><time>2021-08-14T09:21:30</time></trkpt><trkpt lat="55.8082720" lon="49.1416670"><time>2021-08-14T09:21:31</time></trkpt><trkpt lat="55.8082800" lon="49.1416570"><time>2021-08-14T09:21:32</time></trkpt><trkpt lat="55.8082970" lon="49.1416460"><time>2021-08-14T09:21:33</time></trkpt><trkpt lat="55.8083060" lon="49.1416410"><time>2021-08-14T09:21:34</time></trkpt><trkpt lat="55.8083150" lon="49.1416370"><time>2021-08-14T09:21:35</time></trkpt><trkpt lat="55.8083280" lon="49.1416240"><time>2021-08-14T09:21:36</time></trkpt><trkpt lat="55.8083420" lon="49.1416110"><time>2021-08-14T09:21:37</time></trkpt><trkpt lat="55.8083560" lon="49.1416050"><time>2021-08-14T09:21:38</time></trkpt><trkpt lat="55.8083690" lon="49.1415950"><time>2021-08-14T09:21:39</time></trkpt><trkpt lat="55.8083850" lon="49.1415930"><time>2021-08-14T09:21:40</time></trkpt><trkpt lat="55.8083970" lon="49.1415940"><time>2021-08-14T09:21:41</time></trkpt><trkpt lat="55.8084120" lon="49.1415750"><time>2021-08-14T09:21:42</time></trkpt><trkpt lat="55.8084210" lon="49.1415630"><time>2021-08-14T09:21:43</time></trkpt><trkpt lat="55.8084360" lon="49.1415500"><time>2021-08-14T09:21:44</time></trkpt><trkpt lat="55.8084470" lon="49.1415410"><time>2021-08-14T09:21:45</time></trkpt><trkpt lat="55.8084610" lon="49.1415330"><time>2021-08-14T09:21:46</time></trkpt><trkpt lat="55.8084860" lon="49.1415130"><time>2021-08-14T09:21:47</time></trkpt><trkpt lat="55.8084990" lon="49.1415030"><time>2021-08-14T09:21:48</time></trkpt><trkpt lat="55.8085120" lon="49.1414890"><time>2021-08-14T09:21:49</time></trkpt><trkpt lat="55.8085260" lon="49.1414800"><time>2021-08-14T09:21:50</time></trkpt><trkpt lat="55.8085390" lon="49.1414660"><time>2021-08-14T09:21:51</time></trkpt><trkpt lat="55.8085520" lon="49.1414530"><time>2021-08-14T09:21:52</time></trkpt><trkpt lat="55.8085670" lon="49.1414470"><time>2021-08-14T09:21:53</time></trkpt><trkpt lat="55.8085790" lon="49.1414350"><time>2021-08-14T09:21:54</time></trkpt><trkpt lat="55.8085920" lon="49.1414250"><time>2021-08-14T09:21:55</time></trkpt><trkpt lat="55.8086050" lon="49.1414140"><time>2021-08-14T09:21:56</time></trkpt><trkpt lat="55.8086180" lon="49.1413990"><time>2021-08-14T09:21:57</time></trkpt><trkpt lat="55.8086340" lon="49.1414020"><time>2021-08-14T09:21:58</time></trkpt><trkpt lat="55.8086500" lon="49.1413970"><time>2021-08-14T09:21:59</time></trkpt><trkpt lat="55.8086640" lon="49.1413890"><time>2021-08-14T09:22:00</time></trkpt><trkpt lat="55.8086780" lon="49.1413720"><time>2021-08-14T09:22:01</time></trkpt><trkpt lat="55.8086910" lon="49.1413630"><time>2021-08-14T09:22:02</time></trkpt><trkpt lat="55.8087050" lon="49.1413560"><time>2021-08-14T09:22:03</time></trkpt><trkpt lat="55.8087210" lon="49.1413570"><time>2021-08-14T09:22:04</time></trkpt><trkpt lat="55.8087370" lon="49.1413460"><time>2021-08-14T09:22:05</time></trkpt><trkpt lat="55.8087500" lon="49.1413350"><time>2021-08-14T09:22:06</time></trkpt><trkpt lat="55.8087620" lon="49.1413340"><time>2021-08-14T09:22:07</time></trkpt><trkpt lat="55.8087660" lon="49.1413220"><time>2021-08-14T09:22:08</time></trkpt><trkpt lat="55.8087680" lon="49.1413250"><time>2021-08-14T09:22:09</time></trkpt><trkpt lat="55.8087770" lon="49.1413270"><time>2021-08-14T09:22:10</time></trkpt><trkpt lat="55.8087840" lon="49.1413340"><time>2021-08-14T09:22:11</time></trkpt><trkpt lat="55.8087890" lon="49.1413340"><time>2021-08-14T09:22:12</time></trkpt><trkpt lat="55.8087830" lon="49.1413310"><time>2021-08-14T09:22:13</time></trkpt><trkpt lat="55.8087790" lon="49.1413250"><time>2021-08-14T09:22:14</time></trkpt><trkpt lat="55.8087810" lon="49.1413240"><time>2021-08-14T09:22:15</time></trkpt><trkpt lat="55.8087800" lon="49.1413240"><time>2021-08-14T09:22:16</time></trkpt><trkpt lat="55.8087690" lon="49.1413150"><time>2021-08-14T09:22:17</time></trkpt><trkpt lat="55.8087710" lon="49.1413190"><time>2021-08-14T09:22:18</time></trkpt><trkpt lat="55.8087750" lon="49.1412980"><time>2021-08-14T09:22:19</time></trkpt><trkpt lat="55.8087800" lon="49.1412900"><time>2021-08-14T09:22:20</time></trkpt><trkpt lat="55.8087830" lon="49.1412770"><time>2021-08-14T09:22:21</time></trkpt><trkpt lat="55.8087930" lon="49.1412750"><time>2021-08-14T09:22:22</time></trkpt><trkpt lat="55.8088030" lon="49.1412680"><time>2021-08-14T09:22:23</time></trkpt><trkpt lat="55.8088170" lon="49.1412680"><time>2021-08-14T09:22:24</time></trkpt><trkpt lat="55.8088320" lon="49.1412650"><time>2021-08-14T09:22:25</time></trkpt><trkpt lat="55.8088450" lon="49.1412560"><time>2021-08-14T09:22:26</time></trkpt><trkpt lat="55.8088580" lon="49.1412480"><time>2021-08-14T09:22:27</time></trkpt><trkpt lat="55.8088720" lon="49.1412490"><time>2021-08-14T09:22:28</time></trkpt><trkpt lat="55.8088860" lon="49.1412470"><time>2021-08-14T09:22:29</time></trkpt><trkpt lat="55.8088990" lon="49.1412380"><time>2021-08-14T09:22:30</time></trkpt><trkpt lat="55.8089120" lon="49.1412330"><time>2021-08-14T09:22:31</time></trkpt><trkpt lat="55.8089270" lon="49.1412270"><time>2021-08-14T09:22:32</time></trkpt><trkpt lat="55.8089390" lon="49.1412200"><time>2021-08-14T09:22:33</time></trkpt><trkpt lat="55.8089490" lon="49.1412160"><time>2021-08-14T09:22:34</time></trkpt><trkpt lat="55.8089600" lon="49.1412020"><time>2021-08-14T09:22:35</time></trkpt><trkpt lat="55.8089750" lon="49.1412030"><time>2021-08-14T09:22:36</time></trkpt><trkpt lat="55.8089900" lon="49.1411990"><time>2021-08-14T09:22:37</time></trkpt><trkpt lat="55.8090040" lon="49.1411940"><time>2021-08-14T09:22:38</time></trkpt><trkpt lat="55.8090180" lon="49.1411850"><time>2021-08-14T09:22:39</time></trkpt><trkpt lat="55.8090340" lon="49.1411860"><time>2021-08-14T09:22:40</time></trkpt><trkpt lat="55.8090470" lon="49.1411730"><time>2021-08-14T09:22:41</time></trkpt><trkpt lat="55.8090630" lon="49.1411770"><time>2021-08-14T09:22:42</time></trkpt><trkpt lat="55.8090760" lon="49.1411750"><time>2021-08-14T09:22:43</time></trkpt><trkpt lat="55.8090900" lon="49.1411680"><time>2021-08-14T09:22:44</time></trkpt><trkpt lat="55.8091050" lon="49.1411580"><time>2021-08-14T09:22:45</time></trkpt><trkpt lat="55.8091190" lon="49.1411560"><time>2021-08-14T09:22:46</time></trkpt><trkpt lat="55.8091340" lon="49.1411550"><time>2021-08-14T09:22:47</time></trkpt><trkpt lat="55.8091500" lon="49.1411560"><time>2021-08-14T09:22:48</time></trkpt><trkpt lat="55.8091650" lon="49.1411510"><time>2021-08-14T09:22:49</time></trkpt><trkpt lat="55.8091800" lon="49.1411440"><time>2021-08-14T09:22:50</time></trkpt><trkpt lat="55.8091940" lon="49.1411370"><time>2021-08-14T09:22:51</time></trkpt><trkpt lat="55.8092080" lon="49.1411350"><time>2021-08-14T09:22:52</time></trkpt><trkpt lat="55.8092240" lon="49.1411340"><time>2021-08-14T09:22:53</time></trkpt><trkpt lat="55.8092400" lon="49.1411430"><time>2021-08-14T09:22:54</time></trkpt><trkpt lat="55.8092560" lon="49.1411510"><time>2021-08-14T09:22:55</time></trkpt><trkpt lat="55.8092710" lon="49.1411510"><time>2021-08-14T09:22:56</time></trkpt><trkpt lat="55.8092850" lon="49.1411530"><time>2021-08-14T09:22:57</time></trkpt><trkpt lat="55.8092990" lon="49.1411530"><time>2021-08-14T09:22:58</time></trkpt><trkpt lat="55.8093130" lon="49.1411540"><time>2021-08-14T09:22:59</time></trkpt><trkpt lat="55.8093270" lon="49.1411570"><time>2021-08-14T09:23:00</time></trkpt><trkpt lat="55.8093400" lon="49.1411670"><time>2021-08-14T09:23:01</time></trkpt><trkpt lat="55.8093550" lon="49.1411760"><time>2021-08-14T09:23:02</time></trkpt><trkpt lat="55.8093710" lon="49.1411860"><time>2021-08-14T09:23:03</time></trkpt><trkpt lat="55.8093850" lon="49.1411930"><time>2021-08-14T09:23:04</time></trkpt><trkpt lat="55.8093980" lon="49.1412010"><time>2021-08-14T09:23:05</time></trkpt><trkpt lat="55.8094110" lon="49.1412110"><time>2021-08-14T09:23:06</time></trkpt><trkpt lat="55.8094250" lon="49.1412160"><time>2021-08-14T09:23:07</time></trkpt><trkpt lat="55.8094400" lon="49.1412170"><time>2021-08-14T09:23:08</time></trkpt><trkpt lat="55.8094550" lon="49.1412200"><time>2021-08-14T09:23:09</time></trkpt><trkpt lat="55.8094670" lon="49.1412410"><time>2021-08-14T09:23:10</time></trkpt><trkpt lat="55.8094820" lon="49.1412510"><time>2021-08-14T09:23:11</time></trkpt><trkpt lat="55.8094960" lon="49.1412540"><time>2021-08-14T09:23:12</time></trkpt><trkpt lat="55.8095090" lon="49.1412630"><time>2021-08-14T09:23:13</time></trkpt><trkpt lat="55.8095240" lon="49.1412650"><time>2021-08-14T09:23:14</time></trkpt><trkpt lat="55.8095360" lon="49.1412760"><time>2021-08-14T09:23:15</time></trkpt><trkpt lat="55.8095490" lon="49.1412880"><time>2021-08-14T09:23:16</time></trkpt><trkpt lat="55.8095630" lon="49.1412970"><time>2021-08-14T09:23:17</time></trkpt><trkpt lat="55.8095750" lon="49.1413120"><time>2021-08-14T09:23:18</time></trkpt><trkpt lat="55.8095880" lon="49.1413270"><time>2021-08-14T09:23:19</time></trkpt><trkpt lat="55.8096000" lon="49.1413430"><time>2021-08-14T09:23:21</time></trkpt><trkpt lat="55.8096110" lon="49.1413560"><time>2021-08-14T09:23:22</time></trkpt><trkpt lat="55.8096210" lon="49.1413710"><time>2021-08-14T09:23:23</time></trkpt><trkpt lat="55.8096340" lon="49.1413800"><time>2021-08-14T09:23:24</time></trkpt><trkpt lat="55.8096550" lon="49.1413940"><time>2021-08-14T09:23:25</time></trkpt><trkpt lat="55.8096630" lon="49.1414030"><time>2021-08-14T09:23:26</time></trkpt><trkpt lat="55.8096700" lon="49.1414120"><time>2021-08-14T09:23:27</time></trkpt><trkpt lat="55.8096820" lon="49.1414270"><time>2021-08-14T09:23:28</time></trkpt><trkpt lat="55.8096950" lon="49.1414430"><time>2021-08-14T09:23:29</time></trkpt><trkpt lat="55.8097040" lon="49.1414600"><time>2021-08-14T09:23:30</time></trkpt><trkpt lat="55.8097140" lon="49.1414780"><time>2021-08-14T09:23:31</time></trkpt><trkpt lat="55.8097230" lon="49.1414960"><time>2021-08-14T09:23:32</time></trkpt><trkpt lat="55.8097330" lon="49.1415120"><time>2021-08-14T09:23:33</time></trkpt><trkpt lat="55.8097500" lon="49.1415370"><time>2021-08-14T09:23:34</time></trkpt><trkpt lat="55.8097560" lon="49.1415460"><time>2021-08-14T09:23:35</time></trkpt><trkpt lat="55.8097630" lon="49.1415550"><time>2021-08-14T09:23:36</time></trkpt><trkpt lat="55.8097740" lon="49.1415660"><time>2021-08-14T09:23:37</time></trkpt><trkpt lat="55.8097850" lon="49.1415720"><time>2021-08-14T09:23:38</time></trkpt><trkpt lat="55.8097910" lon="49.1415840"><time>2021-08-14T09:23:39</time></trkpt><trkpt lat="55.8097880" lon="49.1415750"><time>2021-08-14T09:23:40</time></trkpt><trkpt lat="55.8097810" lon="49.1415640"><time>2021-08-14T09:23:41</time></trkpt><trkpt lat="55.8097810" lon="49.1415650"><time>2021-08-14T09:23:42</time></trkpt><trkpt lat="55.8097880" lon="49.1415760"><time>2021-08-14T09:23:43</time></trkpt><trkpt lat="55.8097910" lon="49.1415900"><time>2021-08-14T09:23:44</time></trkpt><trkpt lat="55.8098090" lon="49.1415980"><time>2021-08-14T09:23:45</time></trkpt><trkpt lat="55.8098180" lon="49.1416170"><time>2021-08-14T09:23:46</time></trkpt><trkpt lat="55.8098260" lon="49.1416330"><time>2021-08-14T09:23:47</time></trkpt><trkpt lat="55.8098370" lon="49.1416440"><time>2021-08-14T09:23:48</time></trkpt><trkpt lat="55.8098440" lon="49.1416490"><time>2021-08-14T09:23:49</time></trkpt><trkpt lat="55.8098650" lon="49.1416910"><time>2021-08-14T09:23:50</time></trkpt><trkpt lat="55.8098910" lon="49.1417150"><time>2021-08-14T09:23:51</time></trkpt><trkpt lat="55.8099010" lon="49.1417240"><time>2021-08-14T09:23:52</time></trkpt><trkpt lat="55.8099110" lon="49.1417370"><time>2021-08-14T09:23:53</time></trkpt><trkpt lat="55.8099200" lon="49.1417570"><time>2021-08-14T09:23:54</time></trkpt><trkpt lat="55.8099260" lon="49.1417700"><time>2021-08-14T09:23:55</time></trkpt><trkpt lat="55.8099380" lon="49.1417820"><time>2021-08-14T09:23:56</time></trkpt><trkpt lat="55.8099460" lon="49.1417930"><time>2021-08-14T09:23:57</time></trkpt><trkpt lat="55.8099540" lon="49.1418070"><time>2021-08-14T09:23:58</time></trkpt><trkpt lat="55.8099670" lon="49.1418320"><time>2021-08-14T09:23:59</time></trkpt><trkpt lat="55.8099760" lon="49.1418490"><time>2021-08-14T09:24:00</time></trkpt><trkpt lat="55.8099930" lon="49.1418620"><time>2021-08-14T09:24:01</time></trkpt><trkpt lat="55.8100040" lon="49.1418860"><time>2021-08-14T09:24:02</time></trkpt><trkpt lat="55.8100160" lon="49.1419090"><time>2021-08-14T09:24:03</time></trkpt><trkpt lat="55.8100280" lon="49.1419260"><time>2021-08-14T09:24:04</time></trkpt><trkpt lat="55.8100380" lon="49.1419410"><time>2021-08-14T09:24:05</time></trkpt><trkpt lat="55.8100440" lon="49.1419600"><time>2021-08-14T09:24:06</time></trkpt><trkpt lat="55.8100530" lon="49.1419720"><time>2021-08-14T09:24:07</time></trkpt><trkpt lat="55.8100650" lon="49.1419860"><time>2021-08-14T09:24:08</time></trkpt><trkpt lat="55.8100760" lon="49.1420060"><time>2021-08-14T09:24:09</time></trkpt><trkpt lat="55.8100880" lon="49.1420230"><time>2021-08-14T09:24:10</time></trkpt><trkpt lat="55.8101000" lon="49.1420370"><time>2021-08-14T09:24:11</time></trkpt><trkpt lat="55.8101130" lon="49.1420480"><time>2021-08-14T09:24:12</time></trkpt><trkpt lat="55.8101270" lon="49.1420590"><time>2021-08-14T09:24:13</time></trkpt><trkpt lat="55.8101370" lon="49.1420770"><time>2021-08-14T09:24:14</time></trkpt><trkpt lat="55.8101490" lon="49.1420890"><time>2021-08-14T09:24:15</time></trkpt><trkpt lat="55.8101600" lon="49.1421070"><time>2021-08-14T09:24:16</time></trkpt><trkpt lat="55.8101730" lon="49.1421200"><time>2021-08-14T09:24:17</time></trkpt><trkpt lat="55.8101850" lon="49.1421380"><time>2021-08-14T09:24:18</time></trkpt><trkpt lat="55.8101960" lon="49.1421540"><time>2021-08-14T09:24:19</time></trkpt><trkpt lat="55.8102050" lon="49.1421720"><time>2021-08-14T09:24:20</time></trkpt><trkpt lat="55.8102160" lon="49.1421880"><time>2021-08-14T09:24:21</time></trkpt><trkpt lat="55.8102280" lon="49.1421990"><time>2021-08-14T09:24:22</time></trkpt><trkpt lat="55.8102420" lon="49.1422100"><time>2021-08-14T09:24:23</time></trkpt><trkpt lat="55.8102510" lon="49.1422280"><time>2021-08-14T09:24:24</time></trkpt><trkpt lat="55.8102630" lon="49.1422470"><time>2021-08-14T09:24:25</time></trkpt><trkpt lat="55.8102730" lon="49.1422660"><time>2021-08-14T09:24:26</time></trkpt><trkpt lat="55.8102820" lon="49.1422860"><time>2021-08-14T09:24:27</time></trkpt><trkpt lat="55.8102920" lon="49.1423050"><time>2021-08-14T09:24:28</time></trkpt><trkpt lat="55.8103040" lon="49.1423240"><time>2021-08-14T09:24:29</time></trkpt><trkpt lat="55.8103180" lon="49.1423370"><time>2021-08-14T09:24:30</time></trkpt><trkpt lat="55.8103250" lon="49.1423590"><time>2021-08-14T09:24:31</time></trkpt><trkpt lat="55.8103350" lon="49.1423780"><time>2021-08-14T09:24:32</time></trkpt><trkpt lat="55.8103440" lon="49.1424020"><time>2021-08-14T09:24:33</time></trkpt><trkpt lat="55.8103550" lon="49.1424240"><time>2021-08-14T09:24:34</time></trkpt><trkpt lat="55.8103620" lon="49.1424470"><time>2021-08-14T09:24:35</time></trkpt><trkpt lat="55.8103760" lon="49.1424610"><time>2021-08-14T09:24:36</time></trkpt><trkpt lat="55.8103870" lon="49.1424790"><time>2021-08-14T09:24:37</time></trkpt><trkpt lat="55.8103960" lon="49.1424970"><time>2021-08-14T09:24:38</time></trkpt><trkpt lat="55.8104050" lon="49.1425180"><time>2021-08-14T09:24:39</time></trkpt><trkpt lat="55.8104220" lon="49.1425280"><time>2021-08-14T09:24:40</time></trkpt><trkpt lat="55.8104300" lon="49.1425470"><time>2021-08-14T09:24:41</time></trkpt><trkpt lat="55.8104420" lon="49.1425650"><time>2021-08-14T09:24:42</time></trkpt><trkpt lat="55.8104480" lon="49.1425870"><time>2021-08-14T09:24:43</time></trkpt><trkpt lat="55.8104580" lon="49.1426070"><time>2021-08-14T09:24:44</time></trkpt><trkpt lat="55.8104660" lon="49.1426270"><time>2021-08-14T09:24:45</time></trkpt><trkpt lat="55.8104760" lon="49.1426470"><time>2021-08-14T09:24:46</time></trkpt><trkpt lat="55.8104850" lon="49.1426660"><time>2021-08-14T09:24:47</time></trkpt><trkpt lat="55.8104950" lon="49.1426840"><time>2021-08-14T09:24:48</time></trkpt><trkpt lat="55.8104980" lon="49.1427110"><time>2021-08-14T09:24:49</time></trkpt><trkpt lat="55.8105040" lon="49.1427360"><time>2021-08-14T09:24:50</time></trkpt><trkpt lat="55.8105150" lon="49.1427540"><time>2021-08-14T09:24:51</time></trkpt><trkpt lat="55.8105210" lon="49.1427780"><time>2021-08-14T09:24:52</time></trkpt><trkpt lat="55.8105390" lon="49.1427870"><time>2021-08-14T09:24:53</time></trkpt><trkpt lat="55.8105480" lon="49.1428070"><time>2021-08-14T09:24:54</time></trkpt><trkpt lat="55.8105580" lon="49.1428260"><time>2021-08-14T09:24:55</time></trkpt><trkpt lat="55.8105670" lon="49.1428480"><time>2021-08-14T09:24:56</time></trkpt><trkpt lat="55.8105770" lon="49.1428680"><time>2021-08-14T09:24:57</time></trkpt><trkpt lat="55.8105870" lon="49.1428870"><time>2021-08-14T09:24:58</time></trkpt><trkpt lat="55.8105950" lon="49.1429090"><time>2021-08-14T09:24:59</time></trkpt><trkpt lat="55.8106110" lon="49.1429210"><time>2021-08-14T09:25:00</time></trkpt><trkpt lat="55.8106240" lon="49.1429350"><time>2021-08-14T09:25:01</time></trkpt><trkpt lat="55.8106360" lon="49.1429510"><time>2021-08-14T09:25:02</time></trkpt><trkpt lat="55.8106480" lon="49.1429720"><time>2021-08-14T09:25:03</time></trkpt><trkpt lat="55.8106590" lon="49.1429940"><time>2021-08-14T09:25:04</time></trkpt><trkpt lat="55.8106690" lon="49.1430120"><time>2021-08-14T09:25:05</time></trkpt><trkpt lat="55.8106800" lon="49.1430280"><time>2021-08-14T09:25:06</time></trkpt><trkpt lat="55.8106920" lon="49.1430420"><time>2021-08-14T09:25:07</time></trkpt><trkpt lat="55.8107060" lon="49.1430570"><time>2021-08-14T09:25:08</time></trkpt><trkpt lat="55.8107180" lon="49.1430720"><time>2021-08-14T09:25:09</time></trkpt><trkpt lat="55.8107310" lon="49.1430860"><time>2021-08-14T09:25:10</time></trkpt><trkpt lat="55.8107420" lon="49.1431060"><time>2021-08-14T09:25:11</time></trkpt><trkpt lat="55.8107540" lon="49.1431240"><time>2021-08-14T09:25:12</time></trkpt><trkpt lat="55.8107650" lon="49.1431410"><time>2021-08-14T09:25:13</time></trkpt><trkpt lat="55.8107770" lon="49.1431610"><time>2021-08-14T09:25:14</time></trkpt><trkpt lat="55.8107920" lon="49.1431710"><time>2021-08-14T09:25:15</time></trkpt><trkpt lat="55.8108060" lon="49.1431850"><time>2021-08-14T09:25:16</time></trkpt><trkpt lat="55.8108150" lon="49.1432050"><time>2021-08-14T09:25:17</time></trkpt><trkpt lat="55.8108290" lon="49.1432190"><time>2021-08-14T09:25:18</time></trkpt><trkpt lat="55.8108390" lon="49.1432380"><time>2021-08-14T09:25:19</time></trkpt><trkpt lat="55.8108500" lon="49.1432540"><time>2021-08-14T09:25:20</time></trkpt><trkpt lat="55.8108610" lon="49.1432700"><time>2021-08-14T09:25:21</time></trkpt><trkpt lat="55.8108740" lon="49.1432830"><time>2021-08-14T09:25:22</time></trkpt><trkpt lat="55.8108880" lon="49.1432920"><time>2021-08-14T09:25:23</time></trkpt><trkpt lat="55.8109000" lon="49.1433100"><time>2021-08-14T09:25:24</time></trkpt><trkpt lat="55.8109100" lon="49.1433310"><time>2021-08-14T09:25:25</time></trkpt><trkpt lat="55.8109230" lon="49.1433490"><time>2021-08-14T09:25:27</time></trkpt><trkpt lat="55.8109350" lon="49.1433700"><time>2021-08-14T09:25:28</time></trkpt><trkpt lat="55.8109490" lon="49.1433810"><time>2021-08-14T09:25:29</time></trkpt><trkpt lat="55.8109600" lon="49.1434010"><time>2021-08-14T09:25:30</time></trkpt><trkpt lat="55.8109710" lon="49.1434130"><time>2021-08-14T09:25:31</time></trkpt><trkpt lat="55.8109850" lon="49.1434240"><time>2021-08-14T09:25:32</time></trkpt><trkpt lat="55.8109990" lon="49.1434320"><time>2021-08-14T09:25:33</time></trkpt><trkpt lat="55.8110110" lon="49.1434510"><time>2021-08-14T09:25:34</time></trkpt><trkpt lat="55.8110210" lon="49.1434730"><time>2021-08-14T09:25:35</time></trkpt><trkpt lat="55.8110340" lon="49.1434900"><time>2021-08-14T09:25:36</time></trkpt><trkpt lat="55.8110470" lon="49.1435020"><time>2021-08-14T09:25:37</time></trkpt><trkpt lat="55.8110610" lon="49.1435110"><time>2021-08-14T09:25:38</time></trkpt><trkpt lat="55.8110760" lon="49.1435150"><time>2021-08-14T09:25:39</time></trkpt><trkpt lat="55.8110880" lon="49.1435340"><time>2021-08-14T09:25:40</time></trkpt><trkpt lat="55.8111040" lon="49.1435430"><time>2021-08-14T09:25:41</time></trkpt><trkpt lat="55.8111160" lon="49.1435640"><time>2021-08-14T09:25:42</time></trkpt><trkpt lat="55.8111270" lon="49.1435840"><time>2021-08-14T09:25:43</time></trkpt><trkpt lat="55.8111400" lon="49.1436000"><time>2021-08-14T09:25:44</time></trkpt><trkpt lat="55.8111540" lon="49.1436120"><time>2021-08-14T09:25:45</time></trkpt><trkpt lat="55.8111680" lon="49.1436240"><time>2021-08-14T09:25:46</time></trkpt><trkpt lat="55.8111850" lon="49.1436280"><time>2021-08-14T09:25:47</time></trkpt><trkpt lat="55.8111980" lon="49.1436420"><time>2021-08-14T09:25:48</time></trkpt><trkpt lat="55.8112110" lon="49.1436610"><time>2021-08-14T09:25:49</time></trkpt><trkpt lat="55.8112230" lon="49.1436810"><time>2021-08-14T09:25:50</time></trkpt><trkpt lat="55.8112390" lon="49.1436860"><time>2021-08-14T09:25:51</time></trkpt><trkpt lat="55.8112530" lon="49.1436980"><time>2021-08-14T09:25:52</time></trkpt><trkpt lat="55.8112660" lon="49.1437100"><time>2021-08-14T09:25:53</time></trkpt><trkpt lat="55.8112810" lon="49.1437150"><time>2021-08-14T09:25:54</time></trkpt><trkpt lat="55.8112940" lon="49.1437220"><time>2021-08-14T09:25:55</time></trkpt><trkpt lat="55.8113110" lon="49.1437290"><time>2021-08-14T09:25:56</time></trkpt><trkpt lat="55.8113200" lon="49.1437370"><time>2021-08-14T09:25:57</time></trkpt><trkpt lat="55.8113380" lon="49.1437580"><time>2021-08-14T09:25:58</time></trkpt><trkpt lat="55.8113460" lon="49.1437800"><time>2021-08-14T09:25:59</time></trkpt><trkpt lat="55.8113580" lon="49.1437910"><time>2021-08-14T09:26:00</time></trkpt><trkpt lat="55.8113710" lon="49.1437960"><time>2021-08-14T09:26:01</time></trkpt><trkpt lat="55.8113840" lon="49.1438020"><time>2021-08-14T09:26:02</time></trkpt><trkpt lat="55.8114050" lon="49.1438200"><time>2021-08-14T09:26:03</time></trkpt><trkpt lat="55.8114130" lon="49.1438260"><time>2021-08-14T09:26:04</time></trkpt><trkpt lat="55.8114220" lon="49.1438320"><time>2021-08-14T09:26:05</time></trkpt><trkpt lat="55.8114360" lon="49.1438440"><time>2021-08-14T09:26:06</time></trkpt><trkpt lat="55.8114480" lon="49.1438580"><time>2021-08-14T09:26:07</time></trkpt><trkpt lat="55.8114600" lon="49.1438730"><time>2021-08-14T09:26:08</time></trkpt><trkpt lat="55.8114730" lon="49.1438840"><time>2021-08-14T09:26:09</time></trkpt><trkpt lat="55.8114890" lon="49.1438870"><time>2021-08-14T09:26:10</time></trkpt><trkpt lat="55.8115020" lon="49.1438930"><time>2021-08-14T09:26:11</time></trkpt><trkpt lat="55.8115150" lon="49.1439010"><time>2021-08-14T09:26:12</time></trkpt><trkpt lat="55.8115290" lon="49.1439120"><time>2021-08-14T09:26:13</time></trkpt><trkpt lat="55.8115430" lon="49.1439240"><time>2021-08-14T09:26:14</time></trkpt><trkpt lat="55.8115580" lon="49.1439360"><time>2021-08-14T09:26:15</time></trkpt><trkpt lat="55.8115680" lon="49.1439550"><time>2021-08-14T09:26:16</time></trkpt><trkpt lat="55.8115830" lon="49.1439630"><time>2021-08-14T09:26:17</time></trkpt><trkpt lat="55.8115970" lon="49.1439730"><time>2021-08-14T09:26:18</time></trkpt><trkpt lat="55.8116110" lon="49.1439810"><time>2021-08-14T09:26:19</time></trkpt><trkpt lat="55.8116230" lon="49.1439940"><time>2021-08-14T09:26:20</time></trkpt><trkpt lat="55.8116370" lon="49.1440060"><time>2021-08-14T09:26:21</time></trkpt><trkpt lat="55.8116510" lon="49.1440150"><time>2021-08-14T09:26:22</time></trkpt><trkpt lat="55.8116620" lon="49.1440340"><time>2021-08-14T09:26:23</time></trkpt><trkpt lat="55.8116730" lon="49.1440530"><time>2021-08-14T09:26:24</time></trkpt><trkpt lat="55.8116850" lon="49.1440660"><time>2021-08-14T09:26:25</time></trkpt><trkpt lat="55.8117120" lon="49.1440820"><time>2021-08-14T09:26:26</time></trkpt><trkpt lat="55.8117260" lon="49.1440900"><time>2021-08-14T09:26:27</time></trkpt><trkpt lat="55.8117400" lon="49.1440990"><time>2021-08-14T09:26:28</time></trkpt><trkpt lat="55.8117530" lon="49.1441070"><time>2021-08-14T09:26:29</time></trkpt><trkpt lat="55.8117680" lon="49.1441130"><time>2021-08-14T09:26:30</time></trkpt><trkpt lat="55.8117820" lon="49.1441190"><time>2021-08-14T09:26:31</time></trkpt><trkpt lat="55.8117950" lon="49.1441280"><time>2021-08-14T09:26:32</time></trkpt><trkpt lat="55.8118110" lon="49.1441320"><time>2021-08-14T09:26:33</time></trkpt><trkpt lat="55.8118210" lon="49.1441440"><time>2021-08-14T09:26:34</time></trkpt><trkpt lat="55.8118360" lon="49.1441510"><time>2021-08-14T09:26:35</time></trkpt><trkpt lat="55.8118480" lon="49.1441610"><time>2021-08-14T09:26:36</time></trkpt><trkpt lat="55.8118630" lon="49.1441630"><time>2021-08-14T09:26:37</time></trkpt><trkpt lat="55.8118760" lon="49.1441700"><time>2021-08-14T09:26:38</time></trkpt><trkpt lat="55.8118900" lon="49.1441790"><time>2021-08-14T09:26:39</time></trkpt><trkpt lat="55.8119050" lon="49.1441850"><time>2021-08-14T09:26:40</time></trkpt><trkpt lat="55.8119160" lon="49.1442050"><time>2021-08-14T09:26:41</time></trkpt><trkpt lat="55.8119280" lon="49.1442160"><time>2021-08-14T09:26:42</time></trkpt><trkpt lat="55.8119380" lon="49.1442330"><time>2021-08-14T09:26:43</time></trkpt><trkpt lat="55.8119550" lon="49.1442340"><time>2021-08-14T09:26:44</time></trkpt><trkpt lat="55.8119730" lon="49.1442560"><time>2021-08-14T09:26:45</time></trkpt><trkpt lat="55.8119820" lon="49.1442640"><time>2021-08-14T09:26:46</time></trkpt><trkpt lat="55.8119900" lon="49.1442720"><time>2021-08-14T09:26:47</time></trkpt><trkpt lat="55.8120010" lon="49.1442850"><time>2021-08-14T09:26:48</time></trkpt><trkpt lat="55.8120120" lon="49.1443020"><time>2021-08-14T09:26:49</time></trkpt><trkpt lat="55.8120200" lon="49.1443240"><time>2021-08-14T09:26:50</time></trkpt><trkpt lat="55.8120310" lon="49.1443420"><time>2021-08-14T09:26:51</time></trkpt><trkpt lat="55.8120390" lon="49.1443620"><time>2021-08-14T09:26:52</time></trkpt><trkpt lat="55.8120450" lon="49.1443850"><time>2021-08-14T09:26:53</time></trkpt><trkpt lat="55.8120550" lon="49.1444040"><time>2021-08-14T09:26:54</time></trkpt><trkpt lat="55.8120680" lon="49.1444190"><time>2021-08-14T09:26:55</time></trkpt><trkpt lat="55.8120780" lon="49.1444370"><time>2021-08-14T09:26:56</time></trkpt><trkpt lat="55.8120880" lon="49.1444560"><time>2021-08-14T09:26:57</time></trkpt><trkpt lat="55.8121040" lon="49.1444840"><time>2021-08-14T09:26:58</time></trkpt><trkpt lat="55.8121090" lon="49.1444990"><time>2021-08-14T09:26:59</time></trkpt><trkpt lat="55.8121140" lon="49.1445130"><time>2021-08-14T09:27:00</time></trkpt><trkpt lat="55.8121200" lon="49.1445350"><time>2021-08-14T09:27:01</time></trkpt><trkpt lat="55.8121300" lon="49.1445560"><time>2021-08-14T09:27:02</time></trkpt><trkpt lat="55.8121390" lon="49.1445730"><time>2021-08-14T09:27:03</time></trkpt><trkpt lat="55.8121520" lon="49.1445850"><time>2021-08-14T09:27:04</time></trkpt><trkpt lat="55.8121660" lon="49.1446020"><time>2021-08-14T09:27:05</time></trkpt><trkpt lat="55.8121800" lon="49.1446170"><time>2021-08-14T09:27:06</time></trkpt><trkpt lat="55.8121930" lon="49.1446300"><time>2021-08-14T09:27:07</time></trkpt><trkpt lat="55.8122030" lon="49.1446490"><time>2021-08-14T09:27:08</time></trkpt><trkpt lat="55.8122120" lon="49.1446680"><time>2021-08-14T09:27:09</time></trkpt><trkpt lat="55.8122180" lon="49.1446940"><time>2021-08-14T09:27:10</time></trkpt><trkpt lat="55.8122280" lon="49.1447140"><time>2021-08-14T09:27:11</time></trkpt><trkpt lat="55.8122400" lon="49.1447300"><time>2021-08-14T09:27:12</time></trkpt><trkpt lat="55.8122570" lon="49.1447540"><time>2021-08-14T09:27:13</time></trkpt><trkpt lat="55.8122630" lon="49.1447640"><time>2021-08-14T09:27:14</time></trkpt><trkpt lat="55.8122690" lon="49.1447750"><time>2021-08-14T09:27:15</time></trkpt><trkpt lat="55.8122810" lon="49.1447880"><time>2021-08-14T09:27:16</time></trkpt><trkpt lat="55.8122900" lon="49.1448060"><time>2021-08-14T09:27:17</time></trkpt><trkpt lat="55.8123020" lon="49.1448190"><time>2021-08-14T09:27:18</time></trkpt><trkpt lat="55.8123110" lon="49.1448350"><time>2021-08-14T09:27:19</time></trkpt><trkpt lat="55.8123270" lon="49.1448440"><time>2021-08-14T09:27:20</time></trkpt><trkpt lat="55.8123410" lon="49.1448530"><time>2021-08-14T09:27:21</time></trkpt><trkpt lat="55.8123550" lon="49.1448600"><time>2021-08-14T09:27:22</time></trkpt><trkpt lat="55.8123700" lon="49.1448620"><time>2021-08-14T09:27:23</time></trkpt><trkpt lat="55.8123880" lon="49.1448460"><time>2021-08-14T09:27:24</time></trkpt><trkpt lat="55.8123980" lon="49.1448370"><time>2021-08-14T09:27:25</time></trkpt><trkpt lat="55.8123990" lon="49.1448260"><time>2021-08-14T09:27:26</time></trkpt><trkpt lat="55.8123880" lon="49.1448390"><time>2021-08-14T09:27:27</time></trkpt><trkpt lat="55.8123870" lon="49.1448380"><time>2021-08-14T09:27:28</time></trkpt><trkpt lat="55.8123910" lon="49.1448480"><time>2021-08-14T09:27:29</time></trkpt><trkpt lat="55.8123920" lon="49.1448370"><time>2021-08-14T09:27:30</time></trkpt><trkpt lat="55.8123920" lon="49.1448330"><time>2021-08-14T09:27:31</time></trkpt><trkpt lat="55.8123910" lon="49.1448340"><time>2021-08-14T09:27:33</time></trkpt><trkpt lat="55.8123900" lon="49.1448310"><time>2021-08-14T09:27:34</time></trkpt><trkpt lat="55.8123910" lon="49.1448290"><time>2021-08-14T09:27:35</time></trkpt><trkpt lat="55.8123920" lon="49.1448280"><time>2021-08-14T09:27:36</time></trkpt><trkpt lat="55.8123920" lon="49.1448260"><time>2021-08-14T09:27:37</time></trkpt><trkpt lat="55.8123900" lon="49.1448270"><time>2021-08-14T09:27:38</time></trkpt><trkpt lat="55.8123900" lon="49.1448330"><time>2021-08-14T09:27:39</time></trkpt><trkpt lat="55.8123920" lon="49.1448300"><time>2021-08-14T09:27:40</time></trkpt><trkpt lat="55.8123920" lon="49.1448290"><time>2021-08-14T09:27:41</time></trkpt><trkpt lat="55.8123960" lon="49.1448310"><time>2021-08-14T09:27:42</time></trkpt><trkpt lat="55.8123960" lon="49.1448300"><time>2021-08-14T09:27:43</time></trkpt><trkpt lat="55.8123930" lon="49.1448240"><time>2021-08-14T09:27:44</time></trkpt><trkpt lat="55.8123930" lon="49.1448250"><time>2021-08-14T09:27:45</time></trkpt><trkpt lat="55.8123940" lon="49.1448250"><time>2021-08-14T09:27:46</time></trkpt><trkpt lat="55.8123930" lon="49.1448250"><time>2021-08-14T09:27:47</time></trkpt><trkpt lat="55.8123940" lon="49.1448260"><time>2021-08-14T09:27:48</time></trkpt><trkpt lat="55.8123910" lon="49.1448260"><time>2021-08-14T09:27:49</time></trkpt><trkpt lat="55.8123930" lon="49.1448320"><time>2021-08-14T09:27:50</time></trkpt><trkpt lat="55.8123910" lon="49.1448250"><time>2021-08-14T09:27:51</time></trkpt><trkpt lat="55.8123830" lon="49.1448280"><time>2021-08-14T09:27:52</time></trkpt><trkpt lat="55.8123790" lon="49.1448390"><time>2021-08-14T09:27:53</time></trkpt><trkpt lat="55.8123660" lon="49.1448630"><time>2021-08-14T09:27:54</time></trkpt><trkpt lat="55.8123670" lon="49.1448940"><time>2021-08-14T09:27:55</time></trkpt><trkpt lat="55.8123680" lon="49.1449140"><time>2021-08-14T09:27:56</time></trkpt><trkpt lat="55.8123720" lon="49.1449340"><time>2021-08-14T09:27:57</time></trkpt><trkpt lat="55.8123830" lon="49.1449620"><time>2021-08-14T09:27:58</time></trkpt><trkpt lat="55.8123910" lon="49.1449730"><time>2021-08-14T09:27:59</time></trkpt><trkpt lat="55.8124050" lon="49.1450020"><time>2021-08-14T09:28:00</time></trkpt><trkpt lat="55.8124200" lon="49.1450090"><time>2021-08-14T09:28:01</time></trkpt><trkpt lat="55.8124340" lon="49.1450290"><time>2021-08-14T09:28:02</time></trkpt><trkpt lat="55.8124530" lon="49.1450600"><time>2021-08-14T09:28:03</time></trkpt><trkpt lat="55.8124590" lon="49.1450750"><time>2021-08-14T09:28:04</time></trkpt><trkpt lat="55.8124690" lon="49.1450890"><time>2021-08-14T09:28:05</time></trkpt><trkpt lat="55.8124760" lon="49.1450970"><time>2021-08-14T09:28:06</time></trkpt><trkpt lat="55.8124870" lon="49.1451130"><time>2021-08-14T09:28:07</time></trkpt><trkpt lat="55.8125110" lon="49.1451440"><time>2021-08-14T09:28:08</time></trkpt><trkpt lat="55.8125180" lon="49.1451540"><time>2021-08-14T09:28:09</time></trkpt><trkpt lat="55.8125310" lon="49.1451610"><time>2021-08-14T09:28:10</time></trkpt><trkpt lat="55.8125450" lon="49.1451700"><time>2021-08-14T09:28:11</time></trkpt><trkpt lat="55.8125550" lon="49.1451880"><time>2021-08-14T09:28:12</time></trkpt><trkpt lat="55.8125700" lon="49.1451970"><time>2021-08-14T09:28:13</time></trkpt><trkpt lat="55.8125830" lon="49.1452120"><time>2021-08-14T09:28:14</time></trkpt><trkpt lat="55.8125930" lon="49.1452330"><time>2021-08-14T09:28:15</time></trkpt><trkpt lat="55.8126040" lon="49.1452490"><time>2021-08-14T09:28:16</time></trkpt><trkpt lat="55.8126180" lon="49.1452570"><time>2021-08-14T09:28:17</time></trkpt><trkpt lat="55.8126330" lon="49.1452640"><time>2021-08-14T09:28:18</time></trkpt><trkpt lat="55.8126480" lon="49.1452890"><time>2021-08-14T09:28:19</time></trkpt><trkpt lat="55.8126630" lon="49.1453030"><time>2021-08-14T09:28:20</time></trkpt><trkpt lat="55.8126760" lon="49.1453250"><time>2021-08-14T09:28:21</time></trkpt><trkpt lat="55.8126880" lon="49.1453410"><time>2021-08-14T09:28:22</time></trkpt><trkpt lat="55.8127000" lon="49.1453570"><time>2021-08-14T09:28:23</time></trkpt><trkpt lat="55.8127120" lon="49.1453710"><time>2021-08-14T09:28:24</time></trkpt><trkpt lat="55.8127260" lon="49.1453800"><time>2021-08-14T09:28:25</time></trkpt><trkpt lat="55.8127390" lon="49.1453950"><time>2021-08-14T09:28:26</time></trkpt><trkpt lat="55.8127510" lon="49.1454150"><time>2021-08-14T09:28:27</time></trkpt><trkpt lat="55.8127620" lon="49.1454340"><time>2021-08-14T09:28:28</time></trkpt><trkpt lat="55.8127740" lon="49.1454520"><time>2021-08-14T09:28:29</time></trkpt><trkpt lat="55.8127840" lon="49.1454710"><time>2021-08-14T09:28:30</time></trkpt><trkpt lat="55.8128090" lon="49.1455000"><time>2021-08-14T09:28:31</time></trkpt><trkpt lat="55.8128220" lon="49.1455120"><time>2021-08-14T09:28:32</time></trkpt><trkpt lat="55.8128340" lon="49.1455300"><time>2021-08-14T09:28:33</time></trkpt><trkpt lat="55.8128450" lon="49.1455510"><time>2021-08-14T09:28:34</time></trkpt><trkpt lat="55.8128580" lon="49.1455660"><time>2021-08-14T09:28:35</time></trkpt><trkpt lat="55.8128710" lon="49.1455830"><time>2021-08-14T09:28:36</time></trkpt><trkpt lat="55.8128840" lon="49.1455980"><time>2021-08-14T09:28:37</time></trkpt><trkpt lat="55.8128980" lon="49.1456120"><time>2021-08-14T09:28:38</time></trkpt><trkpt lat="55.8129090" lon="49.1456300"><time>2021-08-14T09:28:39</time></trkpt><trkpt lat="55.8129190" lon="49.1456520"><time>2021-08-14T09:28:40</time></trkpt><trkpt lat="55.8129330" lon="49.1456660"><time>2021-08-14T09:28:41</time></trkpt><trkpt lat="55.8129430" lon="49.1456870"><time>2021-08-14T09:28:42</time></trkpt><trkpt lat="55.8129540" lon="49.1457050"><time>2021-08-14T09:28:43</time></trkpt><trkpt lat="55.8129660" lon="49.1457210"><time>2021-08-14T09:28:44</time></trkpt><trkpt lat="55.8129760" lon="49.1457360"><time>2021-08-14T09:28:45</time></trkpt><trkpt lat="55.8129850" lon="49.1457570"><time>2021-08-14T09:28:46</time></trkpt><trkpt lat="55.8129940" lon="49.1457770"><time>2021-08-14T09:28:47</time></trkpt><trkpt lat="55.8130050" lon="49.1457950"><time>2021-08-14T09:28:48</time></trkpt><trkpt lat="55.8130160" lon="49.1458150"><time>2021-08-14T09:28:49</time></trkpt><trkpt lat="55.8130280" lon="49.1458310"><time>2021-08-14T09:28:50</time></trkpt><trkpt lat="55.8130370" lon="49.1458500"><time>2021-08-14T09:28:51</time></trkpt><trkpt lat="55.8130480" lon="49.1458700"><time>2021-08-14T09:28:52</time></trkpt><trkpt lat="55.8130570" lon="49.1458900"><time>2021-08-14T09:28:53</time></trkpt><trkpt lat="55.8130680" lon="49.1459100"><time>2021-08-14T09:28:54</time></trkpt><trkpt lat="55.8130800" lon="49.1459250"><time>2021-08-14T09:28:55</time></trkpt><trkpt lat="55.8130900" lon="49.1459450"><time>2021-08-14T09:28:56</time></trkpt><trkpt lat="55.8131000" lon="49.1459660"><time>2021-08-14T09:28:57</time></trkpt><trkpt lat="55.8131110" lon="49.1459860"><time>2021-08-14T09:28:58</time></trkpt><trkpt lat="55.8131180" lon="49.1460080"><time>2021-08-14T09:28:59</time></trkpt><trkpt lat="55.8131260" lon="49.1460320"><time>2021-08-14T09:29:00</time></trkpt><trkpt lat="55.8131340" lon="49.1460560"><time>2021-08-14T09:29:01</time></trkpt><trkpt lat="55.8131440" lon="49.1460760"><time>2021-08-14T09:29:02</time></trkpt><trkpt lat="55.8131520" lon="49.1460980"><time>2021-08-14T09:29:03</time></trkpt><trkpt lat="55.8131590" lon="49.1461210"><time>2021-08-14T09:29:04</time></trkpt><trkpt lat="55.8131630" lon="49.1461460"><time>2021-08-14T09:29:05</time></trkpt><trkpt lat="55.8131690" lon="49.1461710"><time>2021-08-14T09:29:06</time></trkpt><trkpt lat="55.8131740" lon="49.1461950"><time>2021-08-14T09:29:07</time></trkpt><trkpt lat="55.8131810" lon="49.1462180"><time>2021-08-14T09:29:08</time></trkpt><trkpt lat="55.8131860" lon="49.1462420"><time>2021-08-14T09:29:09</time></trkpt><trkpt lat="55.8131900" lon="49.1462670"><time>2021-08-14T09:29:10</time></trkpt><trkpt lat="55.8131980" lon="49.1462910"><time>2021-08-14T09:29:11</time></trkpt><trkpt lat="55.8132040" lon="49.1463140"><time>2021-08-14T09:29:12</time></trkpt><trkpt lat="55.8132100" lon="49.1463400"><time>2021-08-14T09:29:13</time></trkpt><trkpt lat="55.8132160" lon="49.1463650"><time>2021-08-14T09:29:14</time></trkpt><trkpt lat="55.8132190" lon="49.1463910"><time>2021-08-14T09:29:15</time></trkpt><trkpt lat="55.8132210" lon="49.1464180"><time>2021-08-14T09:29:16</time></trkpt><trkpt lat="55.8132260" lon="49.1464430"><time>2021-08-14T09:29:17</time></trkpt><trkpt lat="55.8132340" lon="49.1464660"><time>2021-08-14T09:29:18</time></trkpt><trkpt lat="55.8132400" lon="49.1464900"><time>2021-08-14T09:29:19</time></trkpt><trkpt lat="55.8132450" lon="49.1465160"><time>2021-08-14T09:29:20</time></trkpt><trkpt lat="55.8132500" lon="49.1465420"><time>2021-08-14T09:29:21</time></trkpt><trkpt lat="55.8132540" lon="49.1465660"><time>2021-08-14T09:29:22</time></trkpt><trkpt lat="55.8132570" lon="49.1465920"><time>2021-08-14T09:29:23</time></trkpt><trkpt lat="55.8132640" lon="49.1466140"><time>2021-08-14T09:29:24</time></trkpt><trkpt lat="55.8132650" lon="49.1466410"><time>2021-08-14T09:29:25</time></trkpt><trkpt lat="55.8132690" lon="49.1466670"><time>2021-08-14T09:29:26</time></trkpt><trkpt lat="55.8132710" lon="49.1466920"><time>2021-08-14T09:29:27</time></trkpt><trkpt lat="55.8132700" lon="49.1467200"><time>2021-08-14T09:29:28</time></trkpt><trkpt lat="55.8132710" lon="49.1467460"><time>2021-08-14T09:29:29</time></trkpt><trkpt lat="55.8132760" lon="49.1467720"><time>2021-08-14T09:29:30</time></trkpt><trkpt lat="55.8132780" lon="49.1467970"><time>2021-08-14T09:29:31</time></trkpt><trkpt lat="55.8132790" lon="49.1468240"><time>2021-08-14T09:29:32</time></trkpt><trkpt lat="55.8132840" lon="49.1468490"><time>2021-08-14T09:29:33</time></trkpt><trkpt lat="55.8132920" lon="49.1468720"><time>2021-08-14T09:29:34</time></trkpt><trkpt lat="55.8132960" lon="49.1468960"><time>2021-08-14T09:29:35</time></trkpt><trkpt lat="55.8132980" lon="49.1469210"><time>2021-08-14T09:29:36</time></trkpt><trkpt lat="55.8133040" lon="49.1469460"><time>2021-08-14T09:29:37</time></trkpt><trkpt lat="55.8133050" lon="49.1469730"><time>2021-08-14T09:29:39</time></trkpt><trkpt lat="55.8133070" lon="49.1469990"><time>2021-08-14T09:29:40</time></trkpt><trkpt lat="55.8133100" lon="49.1470250"><time>2021-08-14T09:29:41</time></trkpt><trkpt lat="55.8133120" lon="49.1470520"><time>2021-08-14T09:29:42</time></trkpt><trkpt lat="55.8133120" lon="49.1470790"><time>2021-08-14T09:29:43</time></trkpt><trkpt lat="55.8133120" lon="49.1471050"><time>2021-08-14T09:29:44</time></trkpt><trkpt lat="55.8133140" lon="49.1471320"><time>2021-08-14T09:29:45</time></trkpt><trkpt lat="55.8133170" lon="49.1471580"><time>2021-08-14T09:29:46</time></trkpt><trkpt lat="55.8133220" lon="49.1471820"><time>2021-08-14T09:29:47</time></trkpt><trkpt lat="55.8133280" lon="49.1472060"><time>2021-08-14T09:29:48</time></trkpt><trkpt lat="55.8133350" lon="49.1472310"><time>2021-08-14T09:29:49</time></trkpt><trkpt lat="55.8133420" lon="49.1472550"><time>2021-08-14T09:29:50</time></trkpt><trkpt lat="55.8133460" lon="49.1472800"><time>2021-08-14T09:29:51</time></trkpt><trkpt lat="55.8133510" lon="49.1473050"><time>2021-08-14T09:29:52</time></trkpt><trkpt lat="55.8133560" lon="49.1473300"><time>2021-08-14T09:29:53</time></trkpt><trkpt lat="55.8133560" lon="49.1473570"><time>2021-08-14T09:29:54</time></trkpt><trkpt lat="55.8133610" lon="49.1473830"><time>2021-08-14T09:29:55</time></trkpt><trkpt lat="55.8133650" lon="49.1474090"><time>2021-08-14T09:29:56</time></trkpt><trkpt lat="55.8133690" lon="49.1474350"><time>2021-08-14T09:29:57</time></trkpt><trkpt lat="55.8133710" lon="49.1474600"><time>2021-08-14T09:29:58</time></trkpt><trkpt lat="55.8133760" lon="49.1474840"><time>2021-08-14T09:29:59</time></trkpt><trkpt lat="55.8133820" lon="49.1475090"><time>2021-08-14T09:30:00</time></trkpt><trkpt lat="55.8133850" lon="49.1475350"><time>2021-08-14T09:30:01</time></trkpt><trkpt lat="55.8133900" lon="49.1475600"><time>2021-08-14T09:30:02</time></trkpt><trkpt lat="55.8133950" lon="49.1475840"><time>2021-08-14T09:30:03</time></trkpt><trkpt lat="55.8133970" lon="49.1476100"><time>2021-08-14T09:30:04</time></trkpt><trkpt lat="55.8134010" lon="49.1476360"><time>2021-08-14T09:30:05</time></trkpt><trkpt lat="55.8134050" lon="49.1476610"><time>2021-08-14T09:30:06</time></trkpt><trkpt lat="55.8134120" lon="49.1476850"><time>2021-08-14T09:30:07</time></trkpt><trkpt lat="55.8134180" lon="49.1477080"><time>2021-08-14T09:30:08</time></trkpt><trkpt lat="55.8134250" lon="49.1477310"><time>2021-08-14T09:30:09</time></trkpt><trkpt lat="55.8134270" lon="49.1477580"><time>2021-08-14T09:30:10</time></trkpt><trkpt lat="55.8134300" lon="49.1477840"><time>2021-08-14T09:30:11</time></trkpt><trkpt lat="55.8134320" lon="49.1478110"><time>2021-08-14T09:30:12</time></trkpt><trkpt lat="55.8134350" lon="49.1478360"><time>2021-08-14T09:30:13</time></trkpt><trkpt lat="55.8134450" lon="49.1478580"><time>2021-08-14T09:30:14</time></trkpt><trkpt lat="55.8134470" lon="49.1478860"><time>2021-08-14T09:30:15</time></trkpt><trkpt lat="55.8134480" lon="49.1479150"><time>2021-08-14T09:30:16</time></trkpt><trkpt lat="55.8134520" lon="49.1479400"><time>2021-08-14T09:30:17</time></trkpt><trkpt lat="55.8134580" lon="49.1479640"><time>2021-08-14T09:30:18</time></trkpt><trkpt lat="55.8134640" lon="49.1479880"><time>2021-08-14T09:30:19</time></trkpt><trkpt lat="55.8134730" lon="49.1480100"><time>2021-08-14T09:30:20</time></trkpt><trkpt lat="55.8134790" lon="49.1480330"><time>2021-08-14T09:30:21</time></trkpt><trkpt lat="55.8134860" lon="49.1480560"><time>2021-08-14T09:30:22</time></trkpt><trkpt lat="55.8134920" lon="49.1480800"><time>2021-08-14T09:30:23</time></trkpt><trkpt lat="55.8135030" lon="49.1480990"><time>2021-08-14T09:30:24</time></trkpt><trkpt lat="55.8135120" lon="49.1481200"><time>2021-08-14T09:30:25</time></trkpt><trkpt lat="55.8135230" lon="49.1481380"><time>2021-08-14T09:30:26</time></trkpt><trkpt lat="55.8135320" lon="49.1481590"><time>2021-08-14T09:30:27</time></trkpt><trkpt lat="55.8135410" lon="49.1481790"><time>2021-08-14T09:30:28</time></trkpt><trkpt lat="55.8135520" lon="49.1481960"><time>2021-08-14T09:30:29</time></trkpt><trkpt lat="55.8135640" lon="49.1482120"><time>2021-08-14T09:30:30</time></trkpt><trkpt lat="55.8135850" lon="49.1482500"><time>2021-08-14T09:30:31</time></trkpt><trkpt lat="55.8135970" lon="49.1482640"><time>2021-08-14T09:30:32</time></trkpt><trkpt lat="55.8136060" lon="49.1482830"><time>2021-08-14T09:30:33</time></trkpt><trkpt lat="55.8136170" lon="49.1482990"><time>2021-08-14T09:30:34</time></trkpt><trkpt lat="55.8136300" lon="49.1483130"><time>2021-08-14T09:30:35</time></trkpt><trkpt lat="55.8136420" lon="49.1483250"><time>2021-08-14T09:30:36</time></trkpt><trkpt lat="55.8136560" lon="49.1483360"><time>2021-08-14T09:30:37</time></trkpt><trkpt lat="55.8136670" lon="49.1483530"><time>2021-08-14T09:30:38</time></trkpt><trkpt lat="55.8136800" lon="49.1483680"><time>2021-08-14T09:30:39</time></trkpt><trkpt lat="55.8136920" lon="49.1483790"><time>2021-08-14T09:30:40</time></trkpt><trkpt lat="55.8137060" lon="49.1483910"><time>2021-08-14T09:30:41</time></trkpt><trkpt lat="55.8137190" lon="49.1484020"><time>2021-08-14T09:30:42</time></trkpt><trkpt lat="55.8137310" lon="49.1484150"><time>2021-08-14T09:30:43</time></trkpt><trkpt lat="55.8137450" lon="49.1484270"><time>2021-08-14T09:30:44</time></trkpt><trkpt lat="55.8137590" lon="49.1484380"><time>2021-08-14T09:30:45</time></trkpt><trkpt lat="55.8137710" lon="49.1484490"><time>2021-08-14T09:30:46</time></trkpt><trkpt lat="55.8137840" lon="49.1484590"><time>2021-08-14T09:30:47</time></trkpt><trkpt lat="55.8137980" lon="49.1484660"><time>2021-08-14T09:30:48</time></trkpt><trkpt lat="55.8138140" lon="49.1484700"><time>2021-08-14T09:30:49</time></trkpt><trkpt lat="55.8138270" lon="49.1484760"><time>2021-08-14T09:30:50</time></trkpt><trkpt lat="55.8138410" lon="49.1484770"><time>2021-08-14T09:30:51</time></trkpt><trkpt lat="55.8138540" lon="49.1484870"><time>2021-08-14T09:30:52</time></trkpt><trkpt lat="55.8138680" lon="49.1484960"><time>2021-08-14T09:30:53</time></trkpt><trkpt lat="55.8138820" lon="49.1485020"><time>2021-08-14T09:30:54</time></trkpt><trkpt lat="55.8138940" lon="49.1485100"><time>2021-08-14T09:30:55</time></trkpt><trkpt lat="55.8139080" lon="49.1485130"><time>2021-08-14T09:30:56</time></trkpt><trkpt lat="55.8139220" lon="49.1485230"><time>2021-08-14T09:30:57</time></trkpt><trkpt lat="55.8139360" lon="49.1485320"><time>2021-08-14T09:30:58</time></trkpt><trkpt lat="55.8139490" lon="49.1485390"><time>2021-08-14T09:30:59</time></trkpt><trkpt lat="55.8139620" lon="49.1485480"><time>2021-08-14T09:31:00</time></trkpt><trkpt lat="55.8139740" lon="49.1485610"><time>2021-08-14T09:31:01</time></trkpt><trkpt lat="55.8139880" lon="49.1485670"><time>2021-08-14T09:31:02</time></trkpt><trkpt lat="55.8140020" lon="49.1485750"><time>2021-08-14T09:31:03</time></trkpt><trkpt lat="55.8140160" lon="49.1485880"><time>2021-08-14T09:31:04</time></trkpt><trkpt lat="55.8140300" lon="49.1485950"><time>2021-08-14T09:31:05</time></trkpt><trkpt lat="55.8140440" lon="49.1486040"><time>2021-08-14T09:31:06</time></trkpt><trkpt lat="55.8140590" lon="49.1486070"><time>2021-08-14T09:31:07</time></trkpt><trkpt lat="55.8140730" lon="49.1486180"><time>2021-08-14T09:31:08</time></trkpt><trkpt lat="55.8140880" lon="49.1486240"><time>2021-08-14T09:31:09</time></trkpt><trkpt lat="55.8141030" lon="49.1486280"><time>2021-08-14T09:31:10</time></trkpt><trkpt lat="55.8141180" lon="49.1486370"><time>2021-08-14T09:31:11</time></trkpt><trkpt lat="55.8141320" lon="49.1486420"><time>2021-08-14T09:31:12</time></trkpt><trkpt lat="55.8141450" lon="49.1486500"><time>2021-08-14T09:31:13</time></trkpt><trkpt lat="55.8141580" lon="49.1486640"><time>2021-08-14T09:31:14</time></trkpt><trkpt lat="55.8141740" lon="49.1486740"><time>2021-08-14T09:31:15</time></trkpt><trkpt lat="55.8141890" lon="49.1486770"><time>2021-08-14T09:31:16</time></trkpt><trkpt lat="55.8142020" lon="49.1486840"><time>2021-08-14T09:31:17</time></trkpt><trkpt lat="55.8142170" lon="49.1486890"><time>2021-08-14T09:31:18</time></trkpt><trkpt lat="55.8142310" lon="49.1486970"><time>2021-08-14T09:31:19</time></trkpt><trkpt lat="55.8142450" lon="49.1487030"><time>2021-08-14T09:31:20</time></trkpt><trkpt lat="55.8142600" lon="49.1487080"><time>2021-08-14T09:31:21</time></trkpt><trkpt lat="55.8142740" lon="49.1487140"><time>2021-08-14T09:31:22</time></trkpt><trkpt lat="55.8142880" lon="49.1487220"><time>2021-08-14T09:31:23</time></trkpt><trkpt lat="55.8143030" lon="49.1487310"><time>2021-08-14T09:31:24</time></trkpt><trkpt lat="55.8143170" lon="49.1487370"><time>2021-08-14T09:31:25</time></trkpt><trkpt lat="55.8143310" lon="49.1487480"><time>2021-08-14T09:31:26</time></trkpt><trkpt lat="55.8143460" lon="49.1487560"><time>2021-08-14T09:31:27</time></trkpt><trkpt lat="55.8143610" lon="49.1487640"><time>2021-08-14T09:31:28</time></trkpt><trkpt lat="55.8143750" lon="49.1487690"><time>2021-08-14T09:31:29</time></trkpt><trkpt lat="55.8143890" lon="49.1487780"><time>2021-08-14T09:31:30</time></trkpt><trkpt lat="55.8144050" lon="49.1487820"><time>2021-08-14T09:31:31</time></trkpt><trkpt lat="55.8144190" lon="49.1487880"><time>2021-08-14T09:31:32</time></trkpt><trkpt lat="55.8144330" lon="49.1487970"><time>2021-08-14T09:31:33</time></trkpt><trkpt lat="55.8144480" lon="49.1488050"><time>2021-08-14T09:31:34</time></trkpt><trkpt lat="55.8144620" lon="49.1488150"><time>2021-08-14T09:31:35</time></trkpt><trkpt lat="55.8144750" lon="49.1488270"><time>2021-08-14T09:31:36</time></trkpt><trkpt lat="55.8144900" lon="49.1488410"><time>2021-08-14T09:31:37</time></trkpt><trkpt lat="55.8145040" lon="49.1488480"><time>2021-08-14T09:31:38</time></trkpt><trkpt lat="55.8145180" lon="49.1488580"><time>2021-08-14T09:31:39</time></trkpt><trkpt lat="55.8145320" lon="49.1488670"><time>2021-08-14T09:31:40</time></trkpt><trkpt lat="55.8145480" lon="49.1488720"><time>2021-08-14T09:31:41</time></trkpt><trkpt lat="55.8145610" lon="49.1488850"><time>2021-08-14T09:31:42</time></trkpt><trkpt lat="55.8145760" lon="49.1488970"><time>2021-08-14T09:31:43</time></trkpt><trkpt lat="55.8145890" lon="49.1489050"><time>2021-08-14T09:31:45</time></trkpt><trkpt lat="55.8146040" lon="49.1489120"><time>2021-08-14T09:31:46</time></trkpt><trkpt lat="55.8146190" lon="49.1489200"><time>2021-08-14T09:31:47</time></trkpt><trkpt lat="55.8146340" lon="49.1489280"><time>2021-08-14T09:31:48</time></trkpt><trkpt lat="55.8146480" lon="49.1489370"><time>2021-08-14T09:31:49</time></trkpt><trkpt lat="55.8146620" lon="49.1489450"><time>2021-08-14T09:31:50</time></trkpt><trkpt lat="55.8146770" lon="49.1489530"><time>2021-08-14T09:31:51</time></trkpt><trkpt lat="55.8146920" lon="49.1489570"><time>2021-08-14T09:31:52</time></trkpt><trkpt lat="55.8147050" lon="49.1489740"><time>2021-08-14T09:31:53</time></trkpt><trkpt lat="55.8147180" lon="49.1489850"><time>2021-08-14T09:31:54</time></trkpt><trkpt lat="55.8147320" lon="49.1489960"><time>2021-08-14T09:31:55</time></trkpt><trkpt lat="55.8147450" lon="49.1490080"><time>2021-08-14T09:31:56</time></trkpt><trkpt lat="55.8147580" lon="49.1490250"><time>2021-08-14T09:31:57</time></trkpt><trkpt lat="55.8147710" lon="49.1490390"><time>2021-08-14T09:31:58</time></trkpt><trkpt lat="55.8147820" lon="49.1490520"><time>2021-08-14T09:31:59</time></trkpt><trkpt lat="55.8147970" lon="49.1490640"><time>2021-08-14T09:32:00</time></trkpt><trkpt lat="55.8148100" lon="49.1490760"><time>2021-08-14T09:32:01</time></trkpt><trkpt lat="55.8148220" lon="49.1490920"><time>2021-08-14T09:32:02</time></trkpt><trkpt lat="55.8148370" lon="49.1491020"><time>2021-08-14T09:32:03</time></trkpt><trkpt lat="55.8148500" lon="49.1491090"><time>2021-08-14T09:32:04</time></trkpt><trkpt lat="55.8148630" lon="49.1491190"><time>2021-08-14T09:32:05</time></trkpt><trkpt lat="55.8148760" lon="49.1491300"><time>2021-08-14T09:32:06</time></trkpt><trkpt lat="55.8148900" lon="49.1491380"><time>2021-08-14T09:32:07</time></trkpt><trkpt lat="55.8149040" lon="49.1491480"><time>2021-08-14T09:32:08</time></trkpt><trkpt lat="55.8149170" lon="49.1491580"><time>2021-08-14T09:32:09</time></trkpt><trkpt lat="55.8149300" lon="49.1491740"><time>2021-08-14T09:32:10</time></trkpt><trkpt lat="55.8149420" lon="49.1491870"><time>2021-08-14T09:32:11</time></trkpt><trkpt lat="55.8149560" lon="49.1492000"><time>2021-08-14T09:32:12</time></trkpt><trkpt lat="55.8149700" lon="49.1492080"><time>2021-08-14T09:32:13</time></trkpt><trkpt lat="55.8149830" lon="49.1492160"><time>2021-08-14T09:32:14</time></trkpt><trkpt lat="55.8149980" lon="49.1492200"><time>2021-08-14T09:32:15</time></trkpt><trkpt lat="55.8150110" lon="49.1492380"><time>2021-08-14T09:32:16</time></trkpt><trkpt lat="55.8150240" lon="49.1492490"><time>2021-08-14T09:32:17</time></trkpt><trkpt lat="55.8150360" lon="49.1492680"><time>2021-08-14T09:32:18</time></trkpt><trkpt lat="55.8150480" lon="49.1492810"><time>2021-08-14T09:32:19</time></trkpt><trkpt lat="55.8150600" lon="49.1492960"><time>2021-08-14T09:32:20</time></trkpt><trkpt lat="55.8150720" lon="49.1493110"><time>2021-08-14T09:32:21</time></trkpt><trkpt lat="55.8150840" lon="49.1493290"><time>2021-08-14T09:32:22</time></trkpt><trkpt lat="55.8150980" lon="49.1493400"><time>2021-08-14T09:32:23</time></trkpt><trkpt lat="55.8151110" lon="49.1493520"><time>2021-08-14T09:32:24</time></trkpt><trkpt lat="55.8151230" lon="49.1493670"><time>2021-08-14T09:32:25</time></trkpt><trkpt lat="55.8151340" lon="49.1493860"><time>2021-08-14T09:32:26</time></trkpt><trkpt lat="55.8151490" lon="49.1493970"><time>2021-08-14T09:32:27</time></trkpt><trkpt lat="55.8151630" lon="49.1494100"><time>2021-08-14T09:32:28</time></trkpt><trkpt lat="55.8151780" lon="49.1494160"><time>2021-08-14T09:32:29</time></trkpt><trkpt lat="55.8151890" lon="49.1494370"><time>2021-08-14T09:32:30</time></trkpt><trkpt lat="55.8152010" lon="49.1494510"><time>2021-08-14T09:32:31</time></trkpt><trkpt lat="55.8152130" lon="49.1494650"><time>2021-08-14T09:32:32</time></trkpt><trkpt lat="55.8152270" lon="49.1494730"><time>2021-08-14T09:32:33</time></trkpt><trkpt lat="55.8152410" lon="49.1494810"><time>2021-08-14T09:32:34</time></trkpt><trkpt lat="55.8152670" lon="49.1495030"><time>2021-08-14T09:32:35</time></trkpt><trkpt lat="55.8152790" lon="49.1495190"><time>2021-08-14T09:32:36</time></trkpt><trkpt lat="55.8152910" lon="49.1495320"><time>2021-08-14T09:32:37</time></trkpt><trkpt lat="55.8153050" lon="49.1495430"><time>2021-08-14T09:32:38</time></trkpt><trkpt lat="55.8153180" lon="49.1495560"><time>2021-08-14T09:32:39</time></trkpt><trkpt lat="55.8153320" lon="49.1495650"><time>2021-08-14T09:32:40</time></trkpt><trkpt lat="55.8153450" lon="49.1495770"><time>2021-08-14T09:32:41</time></trkpt><trkpt lat="55.8153570" lon="49.1495930"><time>2021-08-14T09:32:42</time></trkpt><trkpt lat="55.8153690" lon="49.1496090"><time>2021-08-14T09:32:43</time></trkpt><trkpt lat="55.8153820" lon="49.1496180"><time>2021-08-14T09:32:44</time></trkpt><trkpt lat="55.8153920" lon="49.1496370"><time>2021-08-14T09:32:45</time></trkpt><trkpt lat="55.8154020" lon="49.1496560"><time>2021-08-14T09:32:46</time></trkpt><trkpt lat="55.8154150" lon="49.1496680"><time>2021-08-14T09:32:47</time></trkpt><trkpt lat="55.8154240" lon="49.1496890"><time>2021-08-14T09:32:48</time></trkpt><trkpt lat="55.8154370" lon="49.1497010"><time>2021-08-14T09:32:49</time></trkpt><trkpt lat="55.8154480" lon="49.1497190"><time>2021-08-14T09:32:50</time></trkpt><trkpt lat="55.8154590" lon="49.1497380"><time>2021-08-14T09:32:51</time></trkpt><trkpt lat="55.8154700" lon="49.1497550"><time>2021-08-14T09:32:52</time></trkpt><trkpt lat="55.8154810" lon="49.1497690"><time>2021-08-14T09:32:53</time></trkpt><trkpt lat="55.8154910" lon="49.1497880"><time>2021-08-14T09:32:54</time></trkpt><trkpt lat="55.8155000" lon="49.1498070"><time>2021-08-14T09:32:55</time></trkpt><trkpt lat="55.8155090" lon="49.1498280"><time>2021-08-14T09:32:56</time></trkpt><trkpt lat="55.8155200" lon="49.1498460"><time>2021-08-14T09:32:57</time></trkpt><trkpt lat="55.8155320" lon="49.1498600"><time>2021-08-14T09:32:58</time></trkpt><trkpt lat="55.8155410" lon="49.1498820"><time>2021-08-14T09:32:59</time></trkpt><trkpt lat="55.8155520" lon="49.1498990"><time>2021-08-14T09:33:00</time></trkpt><trkpt lat="55.8155600" lon="49.1499210"><time>2021-08-14T09:33:01</time></trkpt><trkpt lat="55.8155700" lon="49.1499400"><time>2021-08-14T09:33:02</time></trkpt><trkpt lat="55.8155780" lon="49.1499630"><time>2021-08-14T09:33:03</time></trkpt><trkpt lat="55.8155860" lon="49.1499850"><time>2021-08-14T09:33:04</time></trkpt><trkpt lat="55.8155990" lon="49.1500000"><time>2021-08-14T09:33:05</time></trkpt><trkpt lat="55.8156100" lon="49.1500210"><time>2021-08-14T09:33:06</time></trkpt><trkpt lat="55.8156190" lon="49.1500400"><time>2021-08-14T09:33:07</time></trkpt><trkpt lat="55.8156320" lon="49.1500550"><time>2021-08-14T09:33:08</time></trkpt><trkpt lat="55.8156420" lon="49.1500730"><time>2021-08-14T09:33:09</time></trkpt><trkpt lat="55.8156570" lon="49.1500830"><time>2021-08-14T09:33:10</time></trkpt><trkpt lat="55.8156700" lon="49.1500970"><time>2021-08-14T09:33:11</time></trkpt><trkpt lat="55.8156830" lon="49.1501080"><time>2021-08-14T09:33:12</time></trkpt><trkpt lat="55.8156950" lon="49.1501270"><time>2021-08-14T09:33:13</time></trkpt><trkpt lat="55.8157040" lon="49.1501500"><time>2021-08-14T09:33:14</time></trkpt><trkpt lat="55.8157170" lon="49.1501670"><time>2021-08-14T09:33:15</time></trkpt><trkpt lat="55.8157260" lon="49.1501870"><time>2021-08-14T09:33:16</time></trkpt><trkpt lat="55.8157440" lon="49.1502110"><time>2021-08-14T09:33:17</time></trkpt><trkpt lat="55.8157490" lon="49.1502230"><time>2021-08-14T09:33:18</time></trkpt><trkpt lat="55.8157550" lon="49.1502340"><time>2021-08-14T09:33:19</time></trkpt><trkpt lat="55.8157670" lon="49.1502470"><time>2021-08-14T09:33:20</time></trkpt><trkpt lat="55.8157800" lon="49.1502580"><time>2021-08-14T09:33:21</time></trkpt><trkpt lat="55.8157880" lon="49.1502780"><time>2021-08-14T09:33:22</time></trkpt><trkpt lat="55.8157980" lon="49.1502980"><time>2021-08-14T09:33:23</time></trkpt><trkpt lat="55.8158050" lon="49.1503220"><time>2021-08-14T09:33:24</time></trkpt><trkpt lat="55.8158140" lon="49.1503400"><time>2021-08-14T09:33:25</time></trkpt><trkpt lat="55.8158300" lon="49.1503630"><time>2021-08-14T09:33:26</time></trkpt><trkpt lat="55.8158360" lon="49.1503740"><time>2021-08-14T09:33:27</time></trkpt><trkpt lat="55.8158430" lon="49.1503840"><time>2021-08-14T09:33:28</time></trkpt><trkpt lat="55.8158510" lon="49.1504030"><time>2021-08-14T09:33:29</time></trkpt><trkpt lat="55.8158640" lon="49.1504140"><time>2021-08-14T09:33:30</time></trkpt><trkpt lat="55.8158720" lon="49.1504390"><time>2021-08-14T09:33:31</time></trkpt><trkpt lat="55.8158810" lon="49.1504610"><time>2021-08-14T09:33:32</time></trkpt><trkpt lat="55.8158920" lon="49.1504800"><time>2021-08-14T09:33:33</time></trkpt><trkpt lat="55.8159060" lon="49.1504920"><time>2021-08-14T09:33:34</time></trkpt><trkpt lat="55.8159150" lon="49.1505100"><time>2021-08-14T09:33:35</time></trkpt><trkpt lat="55.8159300" lon="49.1505200"><time>2021-08-14T09:33:36</time></trkpt><trkpt lat="55.8159380" lon="49.1505400"><time>2021-08-14T09:33:37</time></trkpt><trkpt lat="55.8159550" lon="49.1505490"><time>2021-08-14T09:33:38</time></trkpt><trkpt lat="55.8159660" lon="49.1505660"><time>2021-08-14T09:33:39</time></trkpt><trkpt lat="55.8159790" lon="49.1505820"><time>2021-08-14T09:33:40</time></trkpt><trkpt lat="55.8159900" lon="49.1505990"><time>2021-08-14T09:33:41</time></trkpt><trkpt lat="55.8160030" lon="49.1506140"><time>2021-08-14T09:33:42</time></trkpt><trkpt lat="55.8160190" lon="49.1506400"><time>2021-08-14T09:33:43</time></trkpt><trkpt lat="55.8160250" lon="49.1506510"><time>2021-08-14T09:33:44</time></trkpt><trkpt lat="55.8160310" lon="49.1506610"><time>2021-08-14T09:33:45</time></trkpt><trkpt lat="55.8160480" lon="49.1506650"><time>2021-08-14T09:33:46</time></trkpt><trkpt lat="55.8160590" lon="49.1506830"><time>2021-08-14T09:33:47</time></trkpt><trkpt lat="55.8160710" lon="49.1507010"><time>2021-08-14T09:33:48</time></trkpt><trkpt lat="55.8160820" lon="49.1507150"><time>2021-08-14T09:33:49</time></trkpt><trkpt lat="55.8160930" lon="49.1507340"><time>2021-08-14T09:33:51</time></trkpt><trkpt lat="55.8161030" lon="49.1507510"><time>2021-08-14T09:33:52</time></trkpt><trkpt lat="55.8161170" lon="49.1507810"><time>2021-08-14T09:33:53</time></trkpt><trkpt lat="55.8161220" lon="49.1507970"><time>2021-08-14T09:33:54</time></trkpt><trkpt lat="55.8161260" lon="49.1508130"><time>2021-08-14T09:33:55</time></trkpt><trkpt lat="55.8161390" lon="49.1508280"><time>2021-08-14T09:33:56</time></trkpt><trkpt lat="55.8161510" lon="49.1508490"><time>2021-08-14T09:33:57</time></trkpt><trkpt lat="55.8161630" lon="49.1508670"><time>2021-08-14T09:33:58</time></trkpt><trkpt lat="55.8161740" lon="49.1508880"><time>2021-08-14T09:33:59</time></trkpt><trkpt lat="55.8161850" lon="49.1509050"><time>2021-08-14T09:34:00</time></trkpt><trkpt lat="55.8161950" lon="49.1509240"><time>2021-08-14T09:34:01</time></trkpt><trkpt lat="55.8162070" lon="49.1509470"><time>2021-08-14T09:34:02</time></trkpt><trkpt lat="55.8162200" lon="49.1509620"><time>2021-08-14T09:34:03</time></trkpt><trkpt lat="55.8162360" lon="49.1509740"><time>2021-08-14T09:34:04</time></trkpt><trkpt lat="55.8162460" lon="49.1509940"><time>2021-08-14T09:34:05</time></trkpt><trkpt lat="55.8162560" lon="49.1510170"><time>2021-08-14T09:34:06</time></trkpt><trkpt lat="55.8162650" lon="49.1510380"><time>2021-08-14T09:34:07</time></trkpt><trkpt lat="55.8162750" lon="49.1510570"><time>2021-08-14T09:34:08</time></trkpt><trkpt lat="55.8162800" lon="49.1510760"><time>2021-08-14T09:34:09</time></trkpt><trkpt lat="55.8162800" lon="49.1510830"><time>2021-08-14T09:34:10</time></trkpt><trkpt lat="55.8162770" lon="49.1510710"><time>2021-08-14T09:34:11</time></trkpt><trkpt lat="55.8162840" lon="49.1510830"><time>2021-08-14T09:34:12</time></trkpt><trkpt lat="55.8162870" lon="49.1510930"><time>2021-08-14T09:34:13</time></trkpt><trkpt lat="55.8162910" lon="49.1510940"><time>2021-08-14T09:34:14</time></trkpt><trkpt lat="55.8162910" lon="49.1510920"><time>2021-08-14T09:34:15</time></trkpt><trkpt lat="55.8162930" lon="49.1510940"><time>2021-08-14T09:34:16</time></trkpt><trkpt lat="55.8162930" lon="49.1510970"><time>2021-08-14T09:34:17</time></trkpt><trkpt lat="55.8162930" lon="49.1510920"><time>2021-08-14T09:34:18</time></trkpt><trkpt lat="55.8162920" lon="49.1510880"><time>2021-08-14T09:34:19</time></trkpt><trkpt lat="55.8162940" lon="49.1510850"><time>2021-08-14T09:34:20</time></trkpt><trkpt lat="55.8162910" lon="49.1510850"><time>2021-08-14T09:34:21</time></trkpt><trkpt lat="55.8162970" lon="49.1510820"><time>2021-08-14T09:34:22</time></trkpt><trkpt lat="55.8162980" lon="49.1510700"><time>2021-08-14T09:34:23</time></trkpt><trkpt lat="55.8163000" lon="49.1510580"><time>2021-08-14T09:34:24</time></trkpt><trkpt lat="55.8163040" lon="49.1510490"><time>2021-08-14T09:34:25</time></trkpt><trkpt lat="55.8163050" lon="49.1510580"><time>2021-08-14T09:34:26</time></trkpt><trkpt lat="55.8163160" lon="49.1510760"><time>2021-08-14T09:34:27</time></trkpt><trkpt lat="55.8163240" lon="49.1510970"><time>2021-08-14T09:34:28</time></trkpt><trkpt lat="55.8163330" lon="49.1511160"><time>2021-08-14T09:34:29</time></trkpt><trkpt lat="55.8163440" lon="49.1511300"><time>2021-08-14T09:34:30</time></trkpt><trkpt lat="55.8163570" lon="49.1511500"><time>2021-08-14T09:34:31</time></trkpt><trkpt lat="55.8163670" lon="49.1511740"><time>2021-08-14T09:34:32</time></trkpt><trkpt lat="55.8163760" lon="49.1511890"><time>2021-08-14T09:34:33</time></trkpt><trkpt lat="55.8163870" lon="49.1512100"><time>2021-08-14T09:34:34</time></trkpt><trkpt lat="55.8163990" lon="49.1512290"><time>2021-08-14T09:34:35</time></trkpt><trkpt lat="55.8164070" lon="49.1512460"><time>2021-08-14T09:34:36</time></trkpt><trkpt lat="55.8164160" lon="49.1512610"><time>2021-08-14T09:34:37</time></trkpt><trkpt lat="55.8164260" lon="49.1512840"><time>2021-08-14T09:34:38</time></trkpt><trkpt lat="55.8164300" lon="49.1513070"><time>2021-08-14T09:34:39</time></trkpt><trkpt lat="55.8164410" lon="49.1513260"><time>2021-08-14T09:34:40</time></trkpt><trkpt lat="55.8164480" lon="49.1513470"><time>2021-08-14T09:34:41</time></trkpt><trkpt lat="55.8164560" lon="49.1513670"><time>2021-08-14T09:34:42</time></trkpt><trkpt lat="55.8164590" lon="49.1513920"><time>2021-08-14T09:34:43</time></trkpt><trkpt lat="55.8164630" lon="49.1514110"><time>2021-08-14T09:34:44</time></trkpt><trkpt lat="55.8164670" lon="49.1514210"><time>2021-08-14T09:34:45</time></trkpt><trkpt lat="55.8164820" lon="49.1514610"><time>2021-08-14T09:34:46</time></trkpt><trkpt lat="55.8164890" lon="49.1514810"><time>2021-08-14T09:34:47</time></trkpt><trkpt lat="55.8164960" lon="49.1515010"><time>2021-08-14T09:34:48</time></trkpt><trkpt lat="55.8164990" lon="49.1515260"><time>2021-08-14T09:34:49</time></trkpt><trkpt lat="55.8165160" lon="49.1515510"><time>2021-08-14T09:34:50</time></trkpt><trkpt lat="55.8165240" lon="49.1515610"><time>2021-08-14T09:34:51</time></trkpt><trkpt lat="55.8165310" lon="49.1515840"><time>2021-08-14T09:34:52</time></trkpt><trkpt lat="55.8165350" lon="49.1516080"><time>2021-08-14T09:34:53</time></trkpt><trkpt lat="55.8165420" lon="49.1516240"><time>2021-08-14T09:34:54</time></trkpt><trkpt lat="55.8165500" lon="49.1516500"><time>2021-08-14T09:34:55</time></trkpt><trkpt lat="55.8165580" lon="49.1516660"><time>2021-08-14T09:34:56</time></trkpt><trkpt lat="55.8165620" lon="49.1516860"><time>2021-08-14T09:34:57</time></trkpt><trkpt lat="55.8165690" lon="49.1516990"><time>2021-08-14T09:34:58</time></trkpt><trkpt lat="55.8165840" lon="49.1517160"><time>2021-08-14T09:34:59</time></trkpt><trkpt lat="55.8165940" lon="49.1517340"><time>2021-08-14T09:35:00</time></trkpt><trkpt lat="55.8166040" lon="49.1517550"><time>2021-08-14T09:35:01</time></trkpt><trkpt lat="55.8166110" lon="49.1517760"><time>2021-08-14T09:35:02</time></trkpt><trkpt lat="55.8166190" lon="49.1517960"><time>2021-08-14T09:35:03</time></trkpt><trkpt lat="55.8166280" lon="49.1518250"><time>2021-08-14T09:35:04</time></trkpt><trkpt lat="55.8166350" lon="49.1518440"><time>2021-08-14T09:35:05</time></trkpt><trkpt lat="55.8166420" lon="49.1518710"><time>2021-08-14T09:35:06</time></trkpt><trkpt lat="55.8166510" lon="49.1518910"><time>2021-08-14T09:35:07</time></trkpt><trkpt lat="55.8166630" lon="49.1519120"><time>2021-08-14T09:35:08</time></trkpt><trkpt lat="55.8166790" lon="49.1519430"><time>2021-08-14T09:35:09</time></trkpt><trkpt lat="55.8166870" lon="49.1519550"><time>2021-08-14T09:35:10</time></trkpt><trkpt lat="55.8166940" lon="49.1519670"><time>2021-08-14T09:35:11</time></trkpt><trkpt lat="55.8167100" lon="49.1519920"><time>2021-08-14T09:35:12</time></trkpt><trkpt lat="55.8167170" lon="49.1520030"><time>2021-08-14T09:35:13</time></trkpt><trkpt lat="55.8167240" lon="49.1520150"><time>2021-08-14T09:35:14</time></trkpt><trkpt lat="55.8167390" lon="49.1520400"><time>2021-08-14T09:35:15</time></trkpt><trkpt lat="55.8167460" lon="49.1520590"><time>2021-08-14T09:35:16</time></trkpt><trkpt lat="55.8167560" lon="49.1520790"><time>2021-08-14T09:35:17</time></trkpt><trkpt lat="55.8167650" lon="49.1520960"><time>2021-08-14T09:35:18</time></trkpt><trkpt lat="55.8167750" lon="49.1521140"><time>2021-08-14T09:35:19</time></trkpt><trkpt lat="55.8167840" lon="49.1521340"><time>2021-08-14T09:35:20</time></trkpt><trkpt lat="55.8167930" lon="49.1521540"><time>2021-08-14T09:35:21</time></trkpt><trkpt lat="55.8168020" lon="49.1521750"><time>2021-08-14T09:35:22</time></trkpt><trkpt lat="55.8168130" lon="49.1521940"><time>2021-08-14T09:35:23</time></trkpt><trkpt lat="55.8168230" lon="49.1522160"><time>2021-08-14T09:35:24</time></trkpt><trkpt lat="55.8168290" lon="49.1522400"><time>2021-08-14T09:35:25</time></trkpt><trkpt lat="55.8168380" lon="49.1522580"><time>2021-08-14T09:35:26</time></trkpt><trkpt lat="55.8168460" lon="49.1522780"><time>2021-08-14T09:35:27</time></trkpt><trkpt lat="55.8168550" lon="49.1522960"><time>2021-08-14T09:35:28</time></trkpt><trkpt lat="55.8168640" lon="49.1523150"><time>2021-08-14T09:35:29</time></trkpt><trkpt lat="55.8168760" lon="49.1523450"><time>2021-08-14T09:35:30</time></trkpt><trkpt lat="55.8168910" lon="49.1523740"><time>2021-08-14T09:35:31</time></trkpt><trkpt lat="55.8168970" lon="49.1523860"><time>2021-08-14T09:35:32</time></trkpt><trkpt lat="55.8169040" lon="49.1523980"><time>2021-08-14T09:35:33</time></trkpt><trkpt lat="55.8169140" lon="49.1524150"><time>2021-08-14T09:35:34</time></trkpt><trkpt lat="55.8169260" lon="49.1524330"><time>2021-08-14T09:35:35</time></trkpt><trkpt lat="55.8169360" lon="49.1524520"><time>2021-08-14T09:35:36</time></trkpt><trkpt lat="55.8169470" lon="49.1524730"><time>2021-08-14T09:35:37</time></trkpt><trkpt lat="55.8169590" lon="49.1524870"><time>2021-08-14T09:35:38</time></trkpt><trkpt lat="55.8169710" lon="49.1525050"><time>2021-08-14T09:35:39</time></trkpt><trkpt lat="55.8169800" lon="49.1525280"><time>2021-08-14T09:35:40</time></trkpt><trkpt lat="55.8169900" lon="49.1525470"><time>2021-08-14T09:35:41</time></trkpt><trkpt lat="55.8169980" lon="49.1525680"><time>2021-08-14T09:35:42</time></trkpt><trkpt lat="55.8170110" lon="49.1525840"><time>2021-08-14T09:35:43</time></trkpt><trkpt lat="55.8170180" lon="49.1526060"><time>2021-08-14T09:35:44</time></trkpt><trkpt lat="55.8170290" lon="49.1526250"><time>2021-08-14T09:35:45</time></trkpt><trkpt lat="55.8170390" lon="49.1526440"><time>2021-08-14T09:35:46</time></trkpt><trkpt lat="55.8170510" lon="49.1526620"><time>2021-08-14T09:35:47</time></trkpt><trkpt lat="55.8170580" lon="49.1526830"><time>2021-08-14T09:35:48</time></trkpt><trkpt lat="55.8170710" lon="49.1526980"><time>2021-08-14T09:35:49</time></trkpt><trkpt lat="55.8170820" lon="49.1527160"><time>2021-08-14T09:35:50</time></trkpt><trkpt lat="55.8170940" lon="49.1527310"><time>2021-08-14T09:35:51</time></trkpt><trkpt lat="55.8171030" lon="49.1527510"><time>2021-08-14T09:35:52</time></trkpt><trkpt lat="55.8171140" lon="49.1527670"><time>2021-08-14T09:35:53</time></trkpt><trkpt lat="55.8171260" lon="49.1527800"><time>2021-08-14T09:35:54</time></trkpt><trkpt lat="55.8171380" lon="49.1527960"><time>2021-08-14T09:35:55</time></trkpt><trkpt lat="55.8171460" lon="49.1528200"><time>2021-08-14T09:35:57</time></trkpt><trkpt lat="55.8171630" lon="49.1528280"><time>2021-08-14T09:35:58</time></trkpt><trkpt lat="55.8171720" lon="49.1528500"><time>2021-08-14T09:35:59</time></trkpt><trkpt lat="55.8171840" lon="49.1528630"><time>2021-08-14T09:36:00</time></trkpt><trkpt lat="55.8171950" lon="49.1528770"><time>2021-08-14T09:36:01</time></trkpt><trkpt lat="55.8172060" lon="49.1528940"><time>2021-08-14T09:36:02</time></trkpt><trkpt lat="55.8172180" lon="49.1529080"><time>2021-08-14T09:36:03</time></trkpt><trkpt lat="55.8172310" lon="49.1529200"><time>2021-08-14T09:36:04</time></trkpt><trkpt lat="55.8172430" lon="49.1529330"><time>2021-08-14T09:36:05</time></trkpt><trkpt lat="55.8172550" lon="49.1529470"><time>2021-08-14T09:36:06</time></trkpt><trkpt lat="55.8172670" lon="49.1529620"><time>2021-08-14T09:36:07</time></trkpt><trkpt lat="55.8172810" lon="49.1529730"><time>2021-08-14T09:36:08</time></trkpt><trkpt lat="55.8172930" lon="49.1529890"><time>2021-08-14T09:36:09</time></trkpt><trkpt lat="55.8173050" lon="49.1530010"><time>2021-08-14T09:36:10</time></trkpt><trkpt lat="55.8173170" lon="49.1530160"><time>2021-08-14T09:36:11</time></trkpt><trkpt lat="55.8173290" lon="49.1530280"><time>2021-08-14T09:36:12</time></trkpt><trkpt lat="55.8173410" lon="49.1530470"><time>2021-08-14T09:36:13</time></trkpt><trkpt lat="55.8173520" lon="49.1530640"><time>2021-08-14T09:36:14</time></trkpt><trkpt lat="55.8173620" lon="49.1530820"><time>2021-08-14T09:36:15</time></trkpt><trkpt lat="55.8173740" lon="49.1531000"><time>2021-08-14T09:36:16</time></trkpt><trkpt lat="55.8173850" lon="49.1531160"><time>2021-08-14T09:36:17</time></trkpt><trkpt lat="55.8173950" lon="49.1531380"><time>2021-08-14T09:36:18</time></trkpt><trkpt lat="55.8174070" lon="49.1531540"><time>2021-08-14T09:36:19</time></trkpt><trkpt lat="55.8174160" lon="49.1531760"><time>2021-08-14T09:36:20</time></trkpt><trkpt lat="55.8174230" lon="49.1531980"><time>2021-08-14T09:36:21</time></trkpt><trkpt lat="55.8174330" lon="49.1532190"><time>2021-08-14T09:36:22</time></trkpt><trkpt lat="55.8174400" lon="49.1532420"><time>2021-08-14T09:36:23</time></trkpt><trkpt lat="55.8174490" lon="49.1532630"><time>2021-08-14T09:36:24</time></trkpt><trkpt lat="55.8174560" lon="49.1532870"><time>2021-08-14T09:36:25</time></trkpt><trkpt lat="55.8174640" lon="49.1533070"><time>2021-08-14T09:36:26</time></trkpt><trkpt lat="55.8174760" lon="49.1533240"><time>2021-08-14T09:36:27</time></trkpt><trkpt lat="55.8174880" lon="49.1533370"><time>2021-08-14T09:36:28</time></trkpt><trkpt lat="55.8175020" lon="49.1533480"><time>2021-08-14T09:36:29</time></trkpt><trkpt lat="55.8175160" lon="49.1533610"><time>2021-08-14T09:36:30</time></trkpt><trkpt lat="55.8175270" lon="49.1533750"><time>2021-08-14T09:36:31</time></trkpt><trkpt lat="55.8175350" lon="49.1533980"><time>2021-08-14T09:36:32</time></trkpt><trkpt lat="55.8175450" lon="49.1534150"><time>2021-08-14T09:36:33</time></trkpt><trkpt lat="55.8175560" lon="49.1534350"><time>2021-08-14T09:36:34</time></trkpt><trkpt lat="55.8175670" lon="49.1534500"><time>2021-08-14T09:36:35</time></trkpt><trkpt lat="55.8175810" lon="49.1534620"><time>2021-08-14T09:36:36</time></trkpt><trkpt lat="55.8175910" lon="49.1534800"><time>2021-08-14T09:36:37</time></trkpt><trkpt lat="55.8176020" lon="49.1534960"><time>2021-08-14T09:36:38</time></trkpt><trkpt lat="55.8176120" lon="49.1535120"><time>2021-08-14T09:36:39</time></trkpt><trkpt lat="55.8176220" lon="49.1535310"><time>2021-08-14T09:36:40</time></trkpt><trkpt lat="55.8176320" lon="49.1535470"><time>2021-08-14T09:36:41</time></trkpt><trkpt lat="55.8176440" lon="49.1535640"><time>2021-08-14T09:36:42</time></trkpt><trkpt lat="55.8176530" lon="49.1535870"><time>2021-08-14T09:36:43</time></trkpt><trkpt lat="55.8176650" lon="49.1536030"><time>2021-08-14T09:36:44</time></trkpt><trkpt lat="55.8176770" lon="49.1536190"><time>2021-08-14T09:36:45</time></trkpt><trkpt lat="55.8176850" lon="49.1536410"><time>2021-08-14T09:36:46</time></trkpt><trkpt lat="55.8177090" lon="49.1536710"><time>2021-08-14T09:36:47</time></trkpt><trkpt lat="55.8177200" lon="49.1536870"><time>2021-08-14T09:36:48</time></trkpt><trkpt lat="55.8177310" lon="49.1537040"><time>2021-08-14T09:36:49</time></trkpt><trkpt lat="55.8177410" lon="49.1537210"><time>2021-08-14T09:36:50</time></trkpt><trkpt lat="55.8177500" lon="49.1537420"><time>2021-08-14T09:36:51</time></trkpt><trkpt lat="55.8177620" lon="49.1537560"><time>2021-08-14T09:36:52</time></trkpt><trkpt lat="55.8177710" lon="49.1537770"><time>2021-08-14T09:36:53</time></trkpt><trkpt lat="55.8177830" lon="49.1537930"><time>2021-08-14T09:36:54</time></trkpt><trkpt lat="55.8177950" lon="49.1538080"><time>2021-08-14T09:36:55</time></trkpt><trkpt lat="55.8178070" lon="49.1538210"><time>2021-08-14T09:36:56</time></trkpt><trkpt lat="55.8178180" lon="49.1538410"><time>2021-08-14T09:36:57</time></trkpt><trkpt lat="55.8178290" lon="49.1538580"><time>2021-08-14T09:36:58</time></trkpt><trkpt lat="55.8178410" lon="49.1538740"><time>2021-08-14T09:36:59</time></trkpt><trkpt lat="55.8178480" lon="49.1538970"><time>2021-08-14T09:37:00</time></trkpt><trkpt lat="55.8178610" lon="49.1539130"><time>2021-08-14T09:37:01</time></trkpt><trkpt lat="55.8178700" lon="49.1539310"><time>2021-08-14T09:37:02</time></trkpt><trkpt lat="55.8178800" lon="49.1539510"><time>2021-08-14T09:37:03</time></trkpt><trkpt lat="55.8178890" lon="49.1539720"><time>2021-08-14T09:37:04</time></trkpt><trkpt lat="55.8178990" lon="49.1539910"><time>2021-08-14T09:37:05</time></trkpt><trkpt lat="55.8179100" lon="49.1540100"><time>2021-08-14T09:37:06</time></trkpt><trkpt lat="55.8179190" lon="49.1540310"><time>2021-08-14T09:37:07</time></trkpt><trkpt lat="55.8179300" lon="49.1540480"><time>2021-08-14T09:37:08</time></trkpt><trkpt lat="55.8179380" lon="49.1540700"><time>2021-08-14T09:37:09</time></trkpt><trkpt lat="55.8179470" lon="49.1540900"><time>2021-08-14T09:37:10</time></trkpt><trkpt lat="55.8179570" lon="49.1541060"><time>2021-08-14T09:37:11</time></trkpt><trkpt lat="55.8179670" lon="49.1541250"><time>2021-08-14T09:37:12</time></trkpt><trkpt lat="55.8179720" lon="49.1541510"><time>2021-08-14T09:37:13</time></trkpt><trkpt lat="55.8179760" lon="49.1541770"><time>2021-08-14T09:37:14</time></trkpt><trkpt lat="55.8179790" lon="49.1542020"><time>2021-08-14T09:37:15</time></trkpt><trkpt lat="55.8179860" lon="49.1542250"><time>2021-08-14T09:37:16</time></trkpt><trkpt lat="55.8179910" lon="49.1542490"><time>2021-08-14T09:37:17</time></trkpt><trkpt lat="55.8179990" lon="49.1542710"><time>2021-08-14T09:37:18</time></trkpt><trkpt lat="55.8180060" lon="49.1542930"><time>2021-08-14T09:37:19</time></trkpt><trkpt lat="55.8180140" lon="49.1543150"><time>2021-08-14T09:37:20</time></trkpt><trkpt lat="55.8180200" lon="49.1543390"><time>2021-08-14T09:37:21</time></trkpt><trkpt lat="55.8180250" lon="49.1543640"><time>2021-08-14T09:37:22</time></trkpt><trkpt lat="55.8180310" lon="49.1543860"><time>2021-08-14T09:37:23</time></trkpt><trkpt lat="55.8180400" lon="49.1544240"><time>2021-08-14T09:37:24</time></trkpt><trkpt lat="55.8180420" lon="49.1544390"><time>2021-08-14T09:37:25</time></trkpt><trkpt lat="55.8180450" lon="49.1544530"><time>2021-08-14T09:37:26</time></trkpt><trkpt lat="55.8180490" lon="49.1544920"><time>2021-08-14T09:37:27</time></trkpt><trkpt lat="55.8180540" lon="49.1545050"><time>2021-08-14T09:37:28</time></trkpt><trkpt lat="55.8180580" lon="49.1545190"><time>2021-08-14T09:37:29</time></trkpt><trkpt lat="55.8180670" lon="49.1545380"><time>2021-08-14T09:37:30</time></trkpt><trkpt lat="55.8180720" lon="49.1545610"><time>2021-08-14T09:37:31</time></trkpt><trkpt lat="55.8180780" lon="49.1545850"><time>2021-08-14T09:37:32</time></trkpt><trkpt lat="55.8180830" lon="49.1546070"><time>2021-08-14T09:37:33</time></trkpt><trkpt lat="55.8180870" lon="49.1546310"><time>2021-08-14T09:37:34</time></trkpt><trkpt lat="55.8180960" lon="49.1546510"><time>2021-08-14T09:37:35</time></trkpt><trkpt lat="55.8181020" lon="49.1546730"><time>2021-08-14T09:37:36</time></trkpt><trkpt lat="55.8181040" lon="49.1546970"><time>2021-08-14T09:37:37</time></trkpt><trkpt lat="55.8181100" lon="49.1547200"><time>2021-08-14T09:37:38</time></trkpt><trkpt lat="55.8181130" lon="49.1547430"><time>2021-08-14T09:37:39</time></trkpt><trkpt lat="55.8181160" lon="49.1547820"><time>2021-08-14T09:37:40</time></trkpt><trkpt lat="55.8181170" lon="49.1547970"><time>2021-08-14T09:37:41</time></trkpt><trkpt lat="55.8181170" lon="49.1548130"><time>2021-08-14T09:37:42</time></trkpt><trkpt lat="55.8181150" lon="49.1548390"><time>2021-08-14T09:37:43</time></trkpt><trkpt lat="55.8181080" lon="49.1548610"><time>2021-08-14T09:37:44</time></trkpt><trkpt lat="55.8181020" lon="49.1548830"><time>2021-08-14T09:37:45</time></trkpt><trkpt lat="55.8180940" lon="49.1549020"><time>2021-08-14T09:37:46</time></trkpt><trkpt lat="55.8180860" lon="49.1549400"><time>2021-08-14T09:37:47</time></trkpt><trkpt lat="55.8180850" lon="49.1549550"><time>2021-08-14T09:37:48</time></trkpt><trkpt lat="55.8180830" lon="49.1549710"><time>2021-08-14T09:37:49</time></trkpt><trkpt lat="55.8180800" lon="49.1549950"><time>2021-08-14T09:37:50</time></trkpt><trkpt lat="55.8180820" lon="49.1550190"><time>2021-08-14T09:37:51</time></trkpt><trkpt lat="55.8180820" lon="49.1550440"><time>2021-08-14T09:37:52</time></trkpt><trkpt lat="55.8180840" lon="49.1550700"><time>2021-08-14T09:37:53</time></trkpt><trkpt lat="55.8180860" lon="49.1550960"><time>2021-08-14T09:37:54</time></trkpt><trkpt lat="55.8180890" lon="49.1551180"><time>2021-08-14T09:37:55</time></trkpt><trkpt lat="55.8180920" lon="49.1551430"><time>2021-08-14T09:37:56</time></trkpt><trkpt lat="55.8180950" lon="49.1551660"><time>2021-08-14T09:37:57</time></trkpt><trkpt lat="55.8180980" lon="49.1551890"><time>2021-08-14T09:37:58</time></trkpt><trkpt lat="55.8181080" lon="49.1552110"><time>2021-08-14T09:37:59</time></trkpt><trkpt lat="55.8181110" lon="49.1552350"><time>2021-08-14T09:38:00</time></trkpt><trkpt lat="55.8181150" lon="49.1552590"><time>2021-08-14T09:38:01</time></trkpt><trkpt lat="55.8181230" lon="49.1552970"><time>2021-08-14T09:38:03</time></trkpt><trkpt lat="55.8181250" lon="49.1553120"><time>2021-08-14T09:38:04</time></trkpt><trkpt lat="55.8181280" lon="49.1553270"><time>2021-08-14T09:38:05</time></trkpt><trkpt lat="55.8181300" lon="49.1553510"><time>2021-08-14T09:38:06</time></trkpt><trkpt lat="55.8181350" lon="49.1553750"><time>2021-08-14T09:38:07</time></trkpt><trkpt lat="55.8181370" lon="49.1554010"><time>2021-08-14T09:38:08</time></trkpt><trkpt lat="55.8181410" lon="49.1554250"><time>2021-08-14T09:38:09</time></trkpt><trkpt lat="55.8181510" lon="49.1554610"><time>2021-08-14T09:38:10</time></trkpt><trkpt lat="55.8181520" lon="49.1554770"><time>2021-08-14T09:38:11</time></trkpt><trkpt lat="55.8181540" lon="49.1554930"><time>2021-08-14T09:38:12</time></trkpt><trkpt lat="55.8181630" lon="49.1555290"><time>2021-08-14T09:38:13</time></trkpt><trkpt lat="55.8181670" lon="49.1555440"><time>2021-08-14T09:38:14</time></trkpt><trkpt lat="55.8181700" lon="49.1555600"><time>2021-08-14T09:38:15</time></trkpt><trkpt lat="55.8181660" lon="49.1555830"><time>2021-08-14T09:38:16</time></trkpt><trkpt lat="55.8181680" lon="49.1556090"><time>2021-08-14T09:38:17</time></trkpt><trkpt lat="55.8181700" lon="49.1556320"><time>2021-08-14T09:38:18</time></trkpt><trkpt lat="55.8181740" lon="49.1556580"><time>2021-08-14T09:38:19</time></trkpt><trkpt lat="55.8181810" lon="49.1556810"><time>2021-08-14T09:38:20</time></trkpt><trkpt lat="55.8181810" lon="49.1557060"><time>2021-08-14T09:38:21</time></trkpt><trkpt lat="55.8181790" lon="49.1557330"><time>2021-08-14T09:38:22</time></trkpt><trkpt lat="55.8181780" lon="49.1557580"><time>2021-08-14T09:38:23</time></trkpt><trkpt lat="55.8181830" lon="49.1557810"><time>2021-08-14T09:38:24</time></trkpt><trkpt lat="55.8181890" lon="49.1558040"><time>2021-08-14T09:38:25</time></trkpt><trkpt lat="55.8181870" lon="49.1558280"><time>2021-08-14T09:38:26</time></trkpt><trkpt lat="55.8181850" lon="49.1558520"><time>2021-08-14T09:38:27</time></trkpt><trkpt lat="55.8181860" lon="49.1559120"><time>2021-08-14T09:38:28</time></trkpt><trkpt lat="55.8181890" lon="49.1559250"><time>2021-08-14T09:38:29</time></trkpt><trkpt lat="55.8181970" lon="49.1559620"><time>2021-08-14T09:38:30</time></trkpt><trkpt lat="55.8182010" lon="49.1559720"><time>2021-08-14T09:38:31</time></trkpt><trkpt lat="55.8182060" lon="49.1559830"><time>2021-08-14T09:38:32</time></trkpt><trkpt lat="55.8182270" lon="49.1560090"><time>2021-08-14T09:38:33</time></trkpt><trkpt lat="55.8182360" lon="49.1560180"><time>2021-08-14T09:38:34</time></trkpt><trkpt lat="55.8182440" lon="49.1560280"><time>2021-08-14T09:38:35</time></trkpt><trkpt lat="55.8182550" lon="49.1560350"><time>2021-08-14T09:38:36</time></trkpt><trkpt lat="55.8182670" lon="49.1560440"><time>2021-08-14T09:38:37</time></trkpt><trkpt lat="55.8182780" lon="49.1560500"><time>2021-08-14T09:38:38</time></trkpt><trkpt lat="55.8182940" lon="49.1560590"><time>2021-08-14T09:38:39</time></trkpt><trkpt lat="55.8183060" lon="49.1560590"><time>2021-08-14T09:38:40</time></trkpt><trkpt lat="55.8183210" lon="49.1560530"><time>2021-08-14T09:38:41</time></trkpt><trkpt lat="55.8183360" lon="49.1560410"><time>2021-08-14T09:38:42</time></trkpt><trkpt lat="55.8183500" lon="49.1560330"><time>2021-08-14T09:38:43</time></trkpt><trkpt lat="55.8183620" lon="49.1560160"><time>2021-08-14T09:38:44</time></trkpt><trkpt lat="55.8183720" lon="49.1559980"><time>2021-08-14T09:38:45</time></trkpt><trkpt lat="55.8183770" lon="49.1559750"><time>2021-08-14T09:38:46</time></trkpt><trkpt lat="55.8183780" lon="49.1559530"><time>2021-08-14T09:38:47</time></trkpt><trkpt lat="55.8183820" lon="49.1559350"><time>2021-08-14T09:38:48</time></trkpt><trkpt lat="55.8183850" lon="49.1559140"><time>2021-08-14T09:38:49</time></trkpt><trkpt lat="55.8183890" lon="49.1559000"><time>2021-08-14T09:38:50</time></trkpt><trkpt lat="55.8183930" lon="49.1558780"><time>2021-08-14T09:38:51</time></trkpt><trkpt lat="55.8183930" lon="49.1558560"><time>2021-08-14T09:38:52</time></trkpt><trkpt lat="55.8183910" lon="49.1558280"><time>2021-08-14T09:38:53</time></trkpt><trkpt lat="55.8183950" lon="49.1558240"><time>2021-08-14T09:38:54</time></trkpt><trkpt lat="55.8183960" lon="49.1558190"><time>2021-08-14T09:38:55</time></trkpt><trkpt lat="55.8184060" lon="49.1558000"><time>2021-08-14T09:38:56</time></trkpt><trkpt lat="55.8184170" lon="49.1557810"><time>2021-08-14T09:38:57</time></trkpt><trkpt lat="55.8184260" lon="49.1557660"><time>2021-08-14T09:38:58</time></trkpt><trkpt lat="55.8184440" lon="49.1557470"><time>2021-08-14T09:38:59</time></trkpt><trkpt lat="55.8184520" lon="49.1557410"><time>2021-08-14T09:39:00</time></trkpt><trkpt lat="55.8184600" lon="49.1557350"><time>2021-08-14T09:39:01</time></trkpt><trkpt lat="55.8184840" lon="49.1557320"><time>2021-08-14T09:39:02</time></trkpt><trkpt lat="55.8184930" lon="49.1557350"><time>2021-08-14T09:39:03</time></trkpt><trkpt lat="55.8185020" lon="49.1557370"><time>2021-08-14T09:39:04</time></trkpt><trkpt lat="55.8185160" lon="49.1557340"><time>2021-08-14T09:39:05</time></trkpt><trkpt lat="55.8185350" lon="49.1557340"><time>2021-08-14T09:39:06</time></trkpt><trkpt lat="55.8185510" lon="49.1557320"><time>2021-08-14T09:39:07</time></trkpt><trkpt lat="55.8185660" lon="49.1557300"><time>2021-08-14T09:39:08</time></trkpt><trkpt lat="55.8185810" lon="49.1557310"><time>2021-08-14T09:39:09</time></trkpt><trkpt lat="55.8185940" lon="49.1557360"><time>2021-08-14T09:39:10</time></trkpt><trkpt lat="55.8186050" lon="49.1557420"><time>2021-08-14T09:39:11</time></trkpt><trkpt lat="55.8186230" lon="49.1557510"><time>2021-08-14T09:39:12</time></trkpt><trkpt lat="55.8186330" lon="49.1557620"><time>2021-08-14T09:39:13</time></trkpt><trkpt lat="55.8186440" lon="49.1557780"><time>2021-08-14T09:39:14</time></trkpt><trkpt lat="55.8186520" lon="49.1557900"><time>2021-08-14T09:39:15</time></trkpt><trkpt lat="55.8186590" lon="49.1558090"><time>2021-08-14T09:39:16</time></trkpt><trkpt lat="55.8186600" lon="49.1558240"><time>2021-08-14T09:39:17</time></trkpt><trkpt lat="55.8186580" lon="49.1558470"><time>2021-08-14T09:39:18</time></trkpt><trkpt lat="55.8186600" lon="49.1558740"><time>2021-08-14T09:39:19</time></trkpt><trkpt lat="55.8186600" lon="49.1559060"><time>2021-08-14T09:39:20</time></trkpt><trkpt lat="55.8186560" lon="49.1559310"><time>2021-08-14T09:39:21</time></trkpt><trkpt lat="55.8186520" lon="49.1559520"><time>2021-08-14T09:39:22</time></trkpt><trkpt lat="55.8186510" lon="49.1559810"><time>2021-08-14T09:39:23</time></trkpt><trkpt lat="55.8186500" lon="49.1560050"><time>2021-08-14T09:39:24</time></trkpt><trkpt lat="55.8186520" lon="49.1560270"><time>2021-08-14T09:39:25</time></trkpt><trkpt lat="55.8186510" lon="49.1560570"><time>2021-08-14T09:39:26</time></trkpt><trkpt lat="55.8186440" lon="49.1560830"><time>2021-08-14T09:39:27</time></trkpt><trkpt lat="55.8186450" lon="49.1561130"><time>2021-08-14T09:39:28</time></trkpt><trkpt lat="55.8186440" lon="49.1561400"><time>2021-08-14T09:39:29</time></trkpt><trkpt lat="55.8186420" lon="49.1561650"><time>2021-08-14T09:39:30</time></trkpt><trkpt lat="55.8186420" lon="49.1561890"><time>2021-08-14T09:39:31</time></trkpt><trkpt lat="55.8186430" lon="49.1562130"><time>2021-08-14T09:39:32</time></trkpt><trkpt lat="55.8186430" lon="49.1562370"><time>2021-08-14T09:39:33</time></trkpt><trkpt lat="55.8186420" lon="49.1562650"><time>2021-08-14T09:39:34</time></trkpt><trkpt lat="55.8186390" lon="49.1562880"><time>2021-08-14T09:39:35</time></trkpt><trkpt lat="55.8186390" lon="49.1563150"><time>2021-08-14T09:39:36</time></trkpt><trkpt lat="55.8186390" lon="49.1563400"><time>2021-08-14T09:39:37</time></trkpt><trkpt lat="55.8186400" lon="49.1563640"><time>2021-08-14T09:39:38</time></trkpt><trkpt lat="55.8186430" lon="49.1563930"><time>2021-08-14T09:39:39</time></trkpt><trkpt lat="55.8186400" lon="49.1564150"><time>2021-08-14T09:39:40</time></trkpt><trkpt lat="55.8186400" lon="49.1564410"><time>2021-08-14T09:39:41</time></trkpt><trkpt lat="55.8186380" lon="49.1564680"><time>2021-08-14T09:39:42</time></trkpt><trkpt lat="55.8186350" lon="49.1564900"><time>2021-08-14T09:39:43</time></trkpt><trkpt lat="55.8186320" lon="49.1565170"><time>2021-08-14T09:39:44</time></trkpt><trkpt lat="55.8186310" lon="49.1565400"><time>2021-08-14T09:39:45</time></trkpt><trkpt lat="55.8186260" lon="49.1565670"><time>2021-08-14T09:39:46</time></trkpt><trkpt lat="55.8186270" lon="49.1566050"><time>2021-08-14T09:39:47</time></trkpt><trkpt lat="55.8186250" lon="49.1566200"><time>2021-08-14T09:39:48</time></trkpt><trkpt lat="55.8186230" lon="49.1566350"><time>2021-08-14T09:39:49</time></trkpt><trkpt lat="55.8186260" lon="49.1566520"><time>2021-08-14T09:39:50</time></trkpt><trkpt lat="55.8186240" lon="49.1566720"><time>2021-08-14T09:39:51</time></trkpt><trkpt lat="55.8186230" lon="49.1566900"><time>2021-08-14T09:39:52</time></trkpt><trkpt lat="55.8186220" lon="49.1567250"><time>2021-08-14T09:39:53</time></trkpt><trkpt lat="55.8186190" lon="49.1567490"><time>2021-08-14T09:39:54</time></trkpt><trkpt lat="55.8186180" lon="49.1567740"><time>2021-08-14T09:39:55</time></trkpt><trkpt lat="55.8186150" lon="49.1567980"><time>2021-08-14T09:39:56</time></trkpt><trkpt lat="55.8186120" lon="49.1568370"><time>2021-08-14T09:39:57</time></trkpt><trkpt lat="55.8186110" lon="49.1568520"><time>2021-08-14T09:39:58</time></trkpt><trkpt lat="55.8186090" lon="49.1568670"><time>2021-08-14T09:39:59</time></trkpt><trkpt lat="55.8186100" lon="49.1568870"><time>2021-08-14T09:40:00</time></trkpt><trkpt lat="55.8186090" lon="49.1569050"><time>2021-08-14T09:40:01</time></trkpt><trkpt lat="55.8186040" lon="49.1569210"><time>2021-08-14T09:40:02</time></trkpt><trkpt lat="55.8186070" lon="49.1569470"><time>2021-08-14T09:40:03</time></trkpt><trkpt lat="55.8186090" lon="49.1569510"><time>2021-08-14T09:40:04</time></trkpt><trkpt lat="55.8186100" lon="49.1569490"><time>2021-08-14T09:40:05</time></trkpt><trkpt lat="55.8186100" lon="49.1569510"><time>2021-08-14T09:40:06</time></trkpt><trkpt lat="55.8186090" lon="49.1569550"><time>2021-08-14T09:40:07</time></trkpt><trkpt lat="55.8186080" lon="49.1569580"><time>2021-08-14T09:40:09</time></trkpt><trkpt lat="55.8186090" lon="49.1569550"><time>2021-08-14T09:40:10</time></trkpt><trkpt lat="55.8186110" lon="49.1569520"><time>2021-08-14T09:40:11</time></trkpt><trkpt lat="55.8186110" lon="49.1569510"><time>2021-08-14T09:40:12</time></trkpt><trkpt lat="55.8186100" lon="49.1569510"><time>2021-08-14T09:40:13</time></trkpt><trkpt lat="55.8186110" lon="49.1569480"><time>2021-08-14T09:40:14</time></trkpt><trkpt lat="55.8186100" lon="49.1569430"><time>2021-08-14T09:40:15</time></trkpt><trkpt lat="55.8186080" lon="49.1569390"><time>2021-08-14T09:40:16</time></trkpt><trkpt lat="55.8186080" lon="49.1569400"><time>2021-08-14T09:40:17</time></trkpt><trkpt lat="55.8186040" lon="49.1569270"><time>2021-08-14T09:40:18</time></trkpt><trkpt lat="55.8186040" lon="49.1569280"><time>2021-08-14T09:40:19</time></trkpt><trkpt lat="55.8185970" lon="49.1569200"><time>2021-08-14T09:40:20</time></trkpt><trkpt lat="55.8185970" lon="49.1569210"><time>2021-08-14T09:40:21</time></trkpt><trkpt lat="55.8185980" lon="49.1569240"><time>2021-08-14T09:40:22</time></trkpt><trkpt lat="55.8185960" lon="49.1569280"><time>2021-08-14T09:40:23</time></trkpt><trkpt lat="55.8185990" lon="49.1569520"><time>2021-08-14T09:40:24</time></trkpt><trkpt lat="55.8186040" lon="49.1569760"><time>2021-08-14T09:40:25</time></trkpt><trkpt lat="55.8186060" lon="49.1570000"><time>2021-08-14T09:40:26</time></trkpt><trkpt lat="55.8186090" lon="49.1570250"><time>2021-08-14T09:40:27</time></trkpt><trkpt lat="55.8186110" lon="49.1570500"><time>2021-08-14T09:40:28</time></trkpt><trkpt lat="55.8186100" lon="49.1570760"><time>2021-08-14T09:40:29</time></trkpt><trkpt lat="55.8186150" lon="49.1571100"><time>2021-08-14T09:40:30</time></trkpt><trkpt lat="55.8186160" lon="49.1571290"><time>2021-08-14T09:40:31</time></trkpt><trkpt lat="55.8186160" lon="49.1571470"><time>2021-08-14T09:40:32</time></trkpt><trkpt lat="55.8186180" lon="49.1571740"><time>2021-08-14T09:40:33</time></trkpt><trkpt lat="55.8186190" lon="49.1571950"><time>2021-08-14T09:40:34</time></trkpt><trkpt lat="55.8186200" lon="49.1572240"><time>2021-08-14T09:40:35</time></trkpt><trkpt lat="55.8186180" lon="49.1572470"><time>2021-08-14T09:40:36</time></trkpt><trkpt lat="55.8186190" lon="49.1572660"><time>2021-08-14T09:40:37</time></trkpt><trkpt lat="55.8186210" lon="49.1573010"><time>2021-08-14T09:40:38</time></trkpt><trkpt lat="55.8186250" lon="49.1573180"><time>2021-08-14T09:40:39</time></trkpt><trkpt lat="55.8186260" lon="49.1573100"><time>2021-08-14T09:40:40</time></trkpt><trkpt lat="55.8186320" lon="49.1573070"><time>2021-08-14T09:40:41</time></trkpt><trkpt lat="55.8186350" lon="49.1573040"><time>2021-08-14T09:40:42</time></trkpt><trkpt lat="55.8186390" lon="49.1572990"><time>2021-08-14T09:40:43</time></trkpt><trkpt lat="55.8186390" lon="49.1572960"><time>2021-08-14T09:40:44</time></trkpt><trkpt lat="55.8186420" lon="49.1572890"><time>2021-08-14T09:40:45</time></trkpt><trkpt lat="55.8186460" lon="49.1572860"><time>2021-08-14T09:40:46</time></trkpt><trkpt lat="55.8186470" lon="49.1572850"><time>2021-08-14T09:40:47</time></trkpt><trkpt lat="55.8186440" lon="49.1573080"><time>2021-08-14T09:40:48</time></trkpt><trkpt lat="55.8186380" lon="49.1573260"><time>2021-08-14T09:40:49</time></trkpt><trkpt lat="55.8186370" lon="49.1573210"><time>2021-08-14T09:40:50</time></trkpt><trkpt lat="55.8186370" lon="49.1573230"><time>2021-08-14T09:40:51</time></trkpt><trkpt lat="55.8186380" lon="49.1573300"><time>2021-08-14T09:40:52</time></trkpt><trkpt lat="55.8186390" lon="49.1573390"><time>2021-08-14T09:40:53</time></trkpt><trkpt lat="55.8186400" lon="49.1573600"><time>2021-08-14T09:40:54</time></trkpt><trkpt lat="55.8186420" lon="49.1573770"><time>2021-08-14T09:40:55</time></trkpt><trkpt lat="55.8186430" lon="49.1573970"><time>2021-08-14T09:40:56</time></trkpt><trkpt lat="55.8186430" lon="49.1574170"><time>2021-08-14T09:40:57</time></trkpt><trkpt lat="55.8186430" lon="49.1574320"><time>2021-08-14T09:40:58</time></trkpt><trkpt lat="55.8186450" lon="49.1574590"><time>2021-08-14T09:40:59</time></trkpt><trkpt lat="55.8186420" lon="49.1574770"><time>2021-08-14T09:41:00</time></trkpt><trkpt lat="55.8186390" lon="49.1574900"><time>2021-08-14T09:41:01</time></trkpt><trkpt lat="55.8186380" lon="49.1575110"><time>2021-08-14T09:41:02</time></trkpt><trkpt lat="55.8186400" lon="49.1575500"><time>2021-08-14T09:41:03</time></trkpt><trkpt lat="55.8186400" lon="49.1575660"><time>2021-08-14T09:41:04</time></trkpt><trkpt lat="55.8186400" lon="49.1575820"><time>2021-08-14T09:41:05</time></trkpt><trkpt lat="55.8186350" lon="49.1575980"><time>2021-08-14T09:41:06</time></trkpt><trkpt lat="55.8186340" lon="49.1576180"><time>2021-08-14T09:41:07</time></trkpt><trkpt lat="55.8186330" lon="49.1576390"><time>2021-08-14T09:41:08</time></trkpt><trkpt lat="55.8186370" lon="49.1576640"><time>2021-08-14T09:41:09</time></trkpt><trkpt lat="55.8186330" lon="49.1576900"><time>2021-08-14T09:41:10</time></trkpt><trkpt lat="55.8186330" lon="49.1577100"><time>2021-08-14T09:41:11</time></trkpt><trkpt lat="55.8186320" lon="49.1577320"><time>2021-08-14T09:41:12</time></trkpt><trkpt lat="55.8186270" lon="49.1577500"><time>2021-08-14T09:41:13</time></trkpt><trkpt lat="55.8186250" lon="49.1577750"><time>2021-08-14T09:41:14</time></trkpt><trkpt lat="55.8186250" lon="49.1577990"><time>2021-08-14T09:41:15</time></trkpt><trkpt lat="55.8186190" lon="49.1578260"><time>2021-08-14T09:41:16</time></trkpt><trkpt lat="55.8186160" lon="49.1578410"><time>2021-08-14T09:41:17</time></trkpt><trkpt lat="55.8186150" lon="49.1578600"><time>2021-08-14T09:41:18</time></trkpt><trkpt lat="55.8186130" lon="49.1578810"><time>2021-08-14T09:41:19</time></trkpt><trkpt lat="55.8186120" lon="49.1579100"><time>2021-08-14T09:41:20</time></trkpt><trkpt lat="55.8186100" lon="49.1579460"><time>2021-08-14T09:41:21</time></trkpt><trkpt lat="55.8186110" lon="49.1579660"><time>2021-08-14T09:41:22</time></trkpt><trkpt lat="55.8186110" lon="49.1579850"><time>2021-08-14T09:41:23</time></trkpt><trkpt lat="55.8186120" lon="49.1580060"><time>2021-08-14T09:41:24</time></trkpt><trkpt lat="55.8186120" lon="49.1580360"><time>2021-08-14T09:41:25</time></trkpt><trkpt lat="55.8186150" lon="49.1580570"><time>2021-08-14T09:41:26</time></trkpt><trkpt lat="55.8186150" lon="49.1580870"><time>2021-08-14T09:41:27</time></trkpt><trkpt lat="55.8186160" lon="49.1581070"><time>2021-08-14T09:41:28</time></trkpt><trkpt lat="55.8186130" lon="49.1581350"><time>2021-08-14T09:41:29</time></trkpt><trkpt lat="55.8186140" lon="49.1581650"><time>2021-08-14T09:41:30</time></trkpt><trkpt lat="55.8186130" lon="49.1581860"><time>2021-08-14T09:41:31</time></trkpt><trkpt lat="55.8186110" lon="49.1582250"><time>2021-08-14T09:41:32</time></trkpt><trkpt lat="55.8186100" lon="49.1582410"><time>2021-08-14T09:41:33</time></trkpt><trkpt lat="55.8186080" lon="49.1582560"><time>2021-08-14T09:41:34</time></trkpt><trkpt lat="55.8186060" lon="49.1582950"><time>2021-08-14T09:41:35</time></trkpt><trkpt lat="55.8186050" lon="49.1583110"><time>2021-08-14T09:41:36</time></trkpt><trkpt lat="55.8186030" lon="49.1583260"><time>2021-08-14T09:41:37</time></trkpt><trkpt lat="55.8186040" lon="49.1583490"><time>2021-08-14T09:41:38</time></trkpt><trkpt lat="55.8186030" lon="49.1583760"><time>2021-08-14T09:41:39</time></trkpt><trkpt lat="55.8186050" lon="49.1584020"><time>2021-08-14T09:41:40</time></trkpt><trkpt lat="55.8186050" lon="49.1584290"><time>2021-08-14T09:41:41</time></trkpt><trkpt lat="55.8186050" lon="49.1584520"><time>2021-08-14T09:41:42</time></trkpt><trkpt lat="55.8186040" lon="49.1584860"><time>2021-08-14T09:41:43</time></trkpt><trkpt lat="55.8186050" lon="49.1585050"><time>2021-08-14T09:41:44</time></trkpt><trkpt lat="55.8186050" lon="49.1585340"><time>2021-08-14T09:41:45</time></trkpt><trkpt lat="55.8186030" lon="49.1585570"><time>2021-08-14T09:41:46</time></trkpt><trkpt lat="55.8186040" lon="49.1585830"><time>2021-08-14T09:41:47</time></trkpt><trkpt lat="55.8186050" lon="49.1586100"><time>2021-08-14T09:41:48</time></trkpt><trkpt lat="55.8186050" lon="49.1586370"><time>2021-08-14T09:41:49</time></trkpt><trkpt lat="55.8186060" lon="49.1586640"><time>2021-08-14T09:41:50</time></trkpt><trkpt lat="55.8186080" lon="49.1586880"><time>2021-08-14T09:41:51</time></trkpt><trkpt lat="55.8186070" lon="49.1587170"><time>2021-08-14T09:41:52</time></trkpt><trkpt lat="55.8186050" lon="49.1587410"><time>2021-08-14T09:41:53</time></trkpt><trkpt lat="55.8186030" lon="49.1587660"><time>2021-08-14T09:41:54</time></trkpt><trkpt lat="55.8186000" lon="49.1587930"><time>2021-08-14T09:41:55</time></trkpt><trkpt lat="55.8186040" lon="49.1588170"><time>2021-08-14T09:41:56</time></trkpt><trkpt lat="55.8186060" lon="49.1588400"><time>2021-08-14T09:41:57</time></trkpt><trkpt lat="55.8186060" lon="49.1588650"><time>2021-08-14T09:41:58</time></trkpt><trkpt lat="55.8186100" lon="49.1588990"><time>2021-08-14T09:41:59</time></trkpt><trkpt lat="55.8186050" lon="49.1589180"><time>2021-08-14T09:42:00</time></trkpt><trkpt lat="55.8186020" lon="49.1589450"><time>2021-08-14T09:42:01</time></trkpt><trkpt lat="55.8186000" lon="49.1589710"><time>2021-08-14T09:42:02</time></trkpt><trkpt lat="55.8186040" lon="49.1589980"><time>2021-08-14T09:42:03</time></trkpt><trkpt lat="55.8186050" lon="49.1590250"><time>2021-08-14T09:42:04</time></trkpt><trkpt lat="55.8186060" lon="49.1590510"><time>2021-08-14T09:42:05</time></trkpt><trkpt lat="55.8186070" lon="49.1590760"><time>2021-08-14T09:42:06</time></trkpt><trkpt lat="55.8186060" lon="49.1591010"><time>2021-08-14T09:42:07</time></trkpt><trkpt lat="55.8186070" lon="49.1591250"><time>2021-08-14T09:42:08</time></trkpt><trkpt lat="55.8186080" lon="49.1591490"><time>2021-08-14T09:42:09</time></trkpt><trkpt lat="55.8186090" lon="49.1591750"><time>2021-08-14T09:42:10</time></trkpt><trkpt lat="55.8186100" lon="49.1592000"><time>2021-08-14T09:42:11</time></trkpt><trkpt lat="55.8186090" lon="49.1592250"><time>2021-08-14T09:42:12</time></trkpt><trkpt lat="55.8186050" lon="49.1592470"><time>2021-08-14T09:42:13</time></trkpt><trkpt lat="55.8186060" lon="49.1592720"><time>2021-08-14T09:42:15</time></trkpt><trkpt lat="55.8186070" lon="49.1593110"><time>2021-08-14T09:42:16</time></trkpt><trkpt lat="55.8186080" lon="49.1593290"><time>2021-08-14T09:42:17</time></trkpt><trkpt lat="55.8186100" lon="49.1593460"><time>2021-08-14T09:42:18</time></trkpt><trkpt lat="55.8186090" lon="49.1593720"><time>2021-08-14T09:42:19</time></trkpt><trkpt lat="55.8186090" lon="49.1593990"><time>2021-08-14T09:42:20</time></trkpt><trkpt lat="55.8186060" lon="49.1594250"><time>2021-08-14T09:42:21</time></trkpt><trkpt lat="55.8186080" lon="49.1594760"><time>2021-08-14T09:42:22</time></trkpt><trkpt lat="55.8186050" lon="49.1595010"><time>2021-08-14T09:42:23</time></trkpt><trkpt lat="55.8186060" lon="49.1595270"><time>2021-08-14T09:42:25</time></trkpt><trkpt lat="55.8186080" lon="49.1595520"><time>2021-08-14T09:42:26</time></trkpt><trkpt lat="55.8186080" lon="49.1595780"><time>2021-08-14T09:42:27</time></trkpt><trkpt lat="55.8186080" lon="49.1596030"><time>2021-08-14T09:42:28</time></trkpt><trkpt lat="55.8186070" lon="49.1596270"><time>2021-08-14T09:42:29</time></trkpt><trkpt lat="55.8186040" lon="49.1596530"><time>2021-08-14T09:42:30</time></trkpt><trkpt lat="55.8186030" lon="49.1596780"><time>2021-08-14T09:42:31</time></trkpt><trkpt lat="55.8186050" lon="49.1597020"><time>2021-08-14T09:42:32</time></trkpt><trkpt lat="55.8186020" lon="49.1597270"><time>2021-08-14T09:42:33</time></trkpt><trkpt lat="55.8186020" lon="49.1597530"><time>2021-08-14T09:42:34</time></trkpt><trkpt lat="55.8186010" lon="49.1597770"><time>2021-08-14T09:42:35</time></trkpt><trkpt lat="55.8185990" lon="49.1598020"><time>2021-08-14T09:42:36</time></trkpt><trkpt lat="55.8186000" lon="49.1598270"><time>2021-08-14T09:42:37</time></trkpt><trkpt lat="55.8186000" lon="49.1598510"><time>2021-08-14T09:42:38</time></trkpt><trkpt lat="55.8185990" lon="49.1598910"><time>2021-08-14T09:42:39</time></trkpt><trkpt lat="55.8185980" lon="49.1599060"><time>2021-08-14T09:42:40</time></trkpt><trkpt lat="55.8185970" lon="49.1599210"><time>2021-08-14T09:42:41</time></trkpt><trkpt lat="55.8185950" lon="49.1599430"><time>2021-08-14T09:42:42</time></trkpt><trkpt lat="55.8185940" lon="49.1599650"><time>2021-08-14T09:42:43</time></trkpt><trkpt lat="55.8185920" lon="49.1599820"><time>2021-08-14T09:42:44</time></trkpt><trkpt lat="55.8185900" lon="49.1600020"><time>2021-08-14T09:42:45</time></trkpt><trkpt lat="55.8185890" lon="49.1600300"><time>2021-08-14T09:42:46</time></trkpt><trkpt lat="55.8185880" lon="49.1600570"><time>2021-08-14T09:42:47</time></trkpt><trkpt lat="55.8185830" lon="49.1600820"><time>2021-08-14T09:42:48</time></trkpt><trkpt lat="55.8185860" lon="49.1601100"><time>2021-08-14T09:42:49</time></trkpt><trkpt lat="55.8185880" lon="49.1601370"><time>2021-08-14T09:42:50</time></trkpt><trkpt lat="55.8185920" lon="49.1601660"><time>2021-08-14T09:42:51</time></trkpt><trkpt lat="55.8185940" lon="49.1601930"><time>2021-08-14T09:42:52</time></trkpt><trkpt lat="55.8185920" lon="49.1602210"><time>2021-08-14T09:42:53</time></trkpt><trkpt lat="55.8185960" lon="49.1602470"><time>2021-08-14T09:42:54</time></trkpt><trkpt lat="55.8185960" lon="49.1602740"><time>2021-08-14T09:42:55</time></trkpt><trkpt lat="55.8185960" lon="49.1602990"><time>2021-08-14T09:42:56</time></trkpt><trkpt lat="55.8185970" lon="49.1603220"><time>2021-08-14T09:42:57</time></trkpt><trkpt lat="55.8185960" lon="49.1603480"><time>2021-08-14T09:42:58</time></trkpt><trkpt lat="55.8185970" lon="49.1603730"><time>2021-08-14T09:42:59</time></trkpt><trkpt lat="55.8185950" lon="49.1603980"><time>2021-08-14T09:43:00</time></trkpt><trkpt lat="55.8185920" lon="49.1604240"><time>2021-08-14T09:43:01</time></trkpt><trkpt lat="55.8185930" lon="49.1604480"><time>2021-08-14T09:43:02</time></trkpt><trkpt lat="55.8185920" lon="49.1604730"><time>2021-08-14T09:43:03</time></trkpt><trkpt lat="55.8185930" lon="49.1604960"><time>2021-08-14T09:43:04</time></trkpt><trkpt lat="55.8185940" lon="49.1605220"><time>2021-08-14T09:43:05</time></trkpt><trkpt lat="55.8185950" lon="49.1605480"><time>2021-08-14T09:43:06</time></trkpt><trkpt lat="55.8185950" lon="49.1605740"><time>2021-08-14T09:43:07</time></trkpt><trkpt lat="55.8185910" lon="49.1605980"><time>2021-08-14T09:43:08</time></trkpt><trkpt lat="55.8185920" lon="49.1606480"><time>2021-08-14T09:43:09</time></trkpt><trkpt lat="55.8185920" lon="49.1606890"><time>2021-08-14T09:43:10</time></trkpt><trkpt lat="55.8185920" lon="49.1607060"><time>2021-08-14T09:43:11</time></trkpt><trkpt lat="55.8185920" lon="49.1607220"><time>2021-08-14T09:43:12</time></trkpt><trkpt lat="55.8185910" lon="49.1607470"><time>2021-08-14T09:43:13</time></trkpt><trkpt lat="55.8185900" lon="49.1607710"><time>2021-08-14T09:43:14</time></trkpt><trkpt lat="55.8185900" lon="49.1607960"><time>2021-08-14T09:43:15</time></trkpt><trkpt lat="55.8185890" lon="49.1608230"><time>2021-08-14T09:43:16</time></trkpt><trkpt lat="55.8185910" lon="49.1608500"><time>2021-08-14T09:43:17</time></trkpt><trkpt lat="55.8185890" lon="49.1608770"><time>2021-08-14T09:43:18</time></trkpt><trkpt lat="55.8185900" lon="49.1608960"><time>2021-08-14T09:43:19</time></trkpt><trkpt lat="55.8185950" lon="49.1609130"><time>2021-08-14T09:43:20</time></trkpt><trkpt lat="55.8185940" lon="49.1609410"><time>2021-08-14T09:43:21</time></trkpt><trkpt lat="55.8185950" lon="49.1609820"><time>2021-08-14T09:43:22</time></trkpt><trkpt lat="55.8185960" lon="49.1609960"><time>2021-08-14T09:43:23</time></trkpt><trkpt lat="55.8185960" lon="49.1610100"><time>2021-08-14T09:43:24</time></trkpt><trkpt lat="55.8186060" lon="49.1610640"><time>2021-08-14T09:43:25</time></trkpt><trkpt lat="55.8186100" lon="49.1610840"><time>2021-08-14T09:43:26</time></trkpt><trkpt lat="55.8186150" lon="49.1611310"><time>2021-08-14T09:43:27</time></trkpt><trkpt lat="55.8186180" lon="49.1611480"><time>2021-08-14T09:43:28</time></trkpt><trkpt lat="55.8186180" lon="49.1611760"><time>2021-08-14T09:43:29</time></trkpt><trkpt lat="55.8186210" lon="49.1611960"><time>2021-08-14T09:43:30</time></trkpt><trkpt lat="55.8186200" lon="49.1612200"><time>2021-08-14T09:43:31</time></trkpt><trkpt lat="55.8186260" lon="49.1612470"><time>2021-08-14T09:43:32</time></trkpt><trkpt lat="55.8186280" lon="49.1612820"><time>2021-08-14T09:43:33</time></trkpt><trkpt lat="55.8186280" lon="49.1612970"><time>2021-08-14T09:43:34</time></trkpt><trkpt lat="55.8186280" lon="49.1613120"><time>2021-08-14T09:43:35</time></trkpt><trkpt lat="55.8186290" lon="49.1613520"><time>2021-08-14T09:43:36</time></trkpt><trkpt lat="55.8186290" lon="49.1613690"><time>2021-08-14T09:43:37</time></trkpt><trkpt lat="55.8186300" lon="49.1613870"><time>2021-08-14T09:43:38</time></trkpt><trkpt lat="55.8186300" lon="49.1614220"><time>2021-08-14T09:43:39</time></trkpt><trkpt lat="55.8186300" lon="49.1614370"><time>2021-08-14T09:43:40</time></trkpt><trkpt lat="55.8186300" lon="49.1614530"><time>2021-08-14T09:43:41</time></trkpt><trkpt lat="55.8186360" lon="49.1614770"><time>2021-08-14T09:43:42</time></trkpt><trkpt lat="55.8186370" lon="49.1615030"><time>2021-08-14T09:43:43</time></trkpt><trkpt lat="55.8186380" lon="49.1615410"><time>2021-08-14T09:43:44</time></trkpt><trkpt lat="55.8186390" lon="49.1615570"><time>2021-08-14T09:43:45</time></trkpt><trkpt lat="55.8186410" lon="49.1615730"><time>2021-08-14T09:43:46</time></trkpt><trkpt lat="55.8186410" lon="49.1615960"><time>2021-08-14T09:43:47</time></trkpt><trkpt lat="55.8186460" lon="49.1616200"><time>2021-08-14T09:43:48</time></trkpt><trkpt lat="55.8186470" lon="49.1616590"><time>2021-08-14T09:43:49</time></trkpt><trkpt lat="55.8186470" lon="49.1616750"><time>2021-08-14T09:43:50</time></trkpt><trkpt lat="55.8186460" lon="49.1616900"><time>2021-08-14T09:43:51</time></trkpt><trkpt lat="55.8186530" lon="49.1617280"><time>2021-08-14T09:43:52</time></trkpt><trkpt lat="55.8186550" lon="49.1617460"><time>2021-08-14T09:43:53</time></trkpt><trkpt lat="55.8186570" lon="49.1617630"><time>2021-08-14T09:43:54</time></trkpt><trkpt lat="55.8186600" lon="49.1617890"><time>2021-08-14T09:43:55</time></trkpt><trkpt lat="55.8186600" lon="49.1618150"><time>2021-08-14T09:43:56</time></trkpt><trkpt lat="55.8186630" lon="49.1618390"><time>2021-08-14T09:43:57</time></trkpt><trkpt lat="55.8186600" lon="49.1618510"><time>2021-08-14T09:43:58</time></trkpt><trkpt lat="55.8186590" lon="49.1618340"><time>2021-08-14T09:43:59</time></trkpt><trkpt lat="55.8186580" lon="49.1618330"><time>2021-08-14T09:44:00</time></trkpt><trkpt lat="55.8186540" lon="49.1618110"><time>2021-08-14T09:44:01</time></trkpt><trkpt lat="55.8186540" lon="49.1618060"><time>2021-08-14T09:44:02</time></trkpt><trkpt lat="55.8186530" lon="49.1618070"><time>2021-08-14T09:44:03</time></trkpt><trkpt lat="55.8186510" lon="49.1618040"><time>2021-08-14T09:44:04</time></trkpt><trkpt lat="55.8186520" lon="49.1618030"><time>2021-08-14T09:44:05</time></trkpt><trkpt lat="55.8186500" lon="49.1618220"><time>2021-08-14T09:44:06</time></trkpt><trkpt lat="55.8186560" lon="49.1618440"><time>2021-08-14T09:44:07</time></trkpt><trkpt lat="55.8186610" lon="49.1618700"><time>2021-08-14T09:44:08</time></trkpt><trkpt lat="55.8186650" lon="49.1618950"><time>2021-08-14T09:44:09</time></trkpt><trkpt lat="55.8186690" lon="49.1619170"><time>2021-08-14T09:44:10</time></trkpt><trkpt lat="55.8186710" lon="49.1619400"><time>2021-08-14T09:44:11</time></trkpt><trkpt lat="55.8186730" lon="49.1619650"><time>2021-08-14T09:44:12</time></trkpt><trkpt lat="55.8186770" lon="49.1619820"><time>2021-08-14T09:44:13</time></trkpt><trkpt lat="55.8186810" lon="49.1619960"><time>2021-08-14T09:44:14</time></trkpt><trkpt lat="55.8186830" lon="49.1620210"><time>2021-08-14T09:44:15</time></trkpt><trkpt lat="55.8186850" lon="49.1620380"><time>2021-08-14T09:44:16</time></trkpt><trkpt lat="55.8186890" lon="49.1620610"><time>2021-08-14T09:44:17</time></trkpt><trkpt lat="55.8186920" lon="49.1620820"><time>2021-08-14T09:44:18</time></trkpt><trkpt lat="55.8186950" lon="49.1621090"><time>2021-08-14T09:44:19</time></trkpt><trkpt lat="55.8186990" lon="49.1621310"><time>2021-08-14T09:44:21</time></trkpt><trkpt lat="55.8187080" lon="49.1621530"><time>2021-08-14T09:44:22</time></trkpt><trkpt lat="55.8187110" lon="49.1621770"><time>2021-08-14T09:44:23</time></trkpt><trkpt lat="55.8187160" lon="49.1622020"><time>2021-08-14T09:44:24</time></trkpt><trkpt lat="55.8187190" lon="49.1622250"><time>2021-08-14T09:44:25</time></trkpt><trkpt lat="55.8187240" lon="49.1622470"><time>2021-08-14T09:44:26</time></trkpt><trkpt lat="55.8187290" lon="49.1622720"><time>2021-08-14T09:44:27</time></trkpt><trkpt lat="55.8187340" lon="49.1622960"><time>2021-08-14T09:44:28</time></trkpt><trkpt lat="55.8187410" lon="49.1623180"><time>2021-08-14T09:44:29</time></trkpt><trkpt lat="55.8187440" lon="49.1623430"><time>2021-08-14T09:44:30</time></trkpt><trkpt lat="55.8187480" lon="49.1623640"><time>2021-08-14T09:44:31</time></trkpt><trkpt lat="55.8187530" lon="49.1623880"><time>2021-08-14T09:44:32</time></trkpt><trkpt lat="55.8187590" lon="49.1624130"><time>2021-08-14T09:44:33</time></trkpt><trkpt lat="55.8187660" lon="49.1624360"><time>2021-08-14T09:44:34</time></trkpt><trkpt lat="55.8187750" lon="49.1624580"><time>2021-08-14T09:44:35</time></trkpt><trkpt lat="55.8187820" lon="49.1624800"><time>2021-08-14T09:44:36</time></trkpt><trkpt lat="55.8187880" lon="49.1625030"><time>2021-08-14T09:44:37</time></trkpt><trkpt lat="55.8187940" lon="49.1625270"><time>2021-08-14T09:44:38</time></trkpt><trkpt lat="55.8188000" lon="49.1625480"><time>2021-08-14T09:44:39</time></trkpt><trkpt lat="55.8188050" lon="49.1625720"><time>2021-08-14T09:44:40</time></trkpt><trkpt lat="55.8188120" lon="49.1625940"><time>2021-08-14T09:44:41</time></trkpt><trkpt lat="55.8188230" lon="49.1626290"><time>2021-08-14T09:44:42</time></trkpt><trkpt lat="55.8188250" lon="49.1626450"><time>2021-08-14T09:44:43</time></trkpt><trkpt lat="55.8188280" lon="49.1626600"><time>2021-08-14T09:44:44</time></trkpt><trkpt lat="55.8188350" lon="49.1626830"><time>2021-08-14T09:44:45</time></trkpt><trkpt lat="55.8188400" lon="49.1627080"><time>2021-08-14T09:44:46</time></trkpt><trkpt lat="55.8188500" lon="49.1627300"><time>2021-08-14T09:44:47</time></trkpt><trkpt lat="55.8188540" lon="49.1627550"><time>2021-08-14T09:44:48</time></trkpt><trkpt lat="55.8188570" lon="49.1627790"><time>2021-08-14T09:44:49</time></trkpt><trkpt lat="55.8188620" lon="49.1628020"><time>2021-08-14T09:44:50</time></trkpt><trkpt lat="55.8188690" lon="49.1628250"><time>2021-08-14T09:44:51</time></trkpt><trkpt lat="55.8188760" lon="49.1628480"><time>2021-08-14T09:44:52</time></trkpt><trkpt lat="55.8188820" lon="49.1628710"><time>2021-08-14T09:44:53</time></trkpt><trkpt lat="55.8188890" lon="49.1628950"><time>2021-08-14T09:44:54</time></trkpt><trkpt lat="55.8188950" lon="49.1629170"><time>2021-08-14T09:44:55</time></trkpt><trkpt lat="55.8189020" lon="49.1629380"><time>2021-08-14T09:44:56</time></trkpt><trkpt lat="55.8189090" lon="49.1629750"><time>2021-08-14T09:44:57</time></trkpt><trkpt lat="55.8189140" lon="49.1629910"><time>2021-08-14T09:44:58</time></trkpt><trkpt lat="55.8189180" lon="49.1630080"><time>2021-08-14T09:44:59</time></trkpt><trkpt lat="55.8189290" lon="49.1630410"><time>2021-08-14T09:45:00</time></trkpt><trkpt lat="55.8189330" lon="49.1630550"><time>2021-08-14T09:45:01</time></trkpt><trkpt lat="55.8189370" lon="49.1630700"><time>2021-08-14T09:45:02</time></trkpt><trkpt lat="55.8189470" lon="49.1630900"><time>2021-08-14T09:45:03</time></trkpt><trkpt lat="55.8189550" lon="49.1631110"><time>2021-08-14T09:45:04</time></trkpt><trkpt lat="55.8189640" lon="49.1631330"><time>2021-08-14T09:45:05</time></trkpt><trkpt lat="55.8189740" lon="49.1631540"><time>2021-08-14T09:45:06</time></trkpt><trkpt lat="55.8189820" lon="49.1631760"><time>2021-08-14T09:45:07</time></trkpt><trkpt lat="55.8189890" lon="49.1632000"><time>2021-08-14T09:45:08</time></trkpt><trkpt lat="55.8189990" lon="49.1632190"><time>2021-08-14T09:45:09</time></trkpt><trkpt lat="55.8190060" lon="49.1632400"><time>2021-08-14T09:45:10</time></trkpt><trkpt lat="55.8190190" lon="49.1632590"><time>2021-08-14T09:45:11</time></trkpt><trkpt lat="55.8190250" lon="49.1632810"><time>2021-08-14T09:45:12</time></trkpt><trkpt lat="55.8190360" lon="49.1633270"><time>2021-08-14T09:45:13</time></trkpt><trkpt lat="55.8190440" lon="49.1633460"><time>2021-08-14T09:45:14</time></trkpt><trkpt lat="55.8190520" lon="49.1633670"><time>2021-08-14T09:45:15</time></trkpt><trkpt lat="55.8190570" lon="49.1633900"><time>2021-08-14T09:45:16</time></trkpt><trkpt lat="55.8190650" lon="49.1634100"><time>2021-08-14T09:45:17</time></trkpt><trkpt lat="55.8190730" lon="49.1634300"><time>2021-08-14T09:45:18</time></trkpt><trkpt lat="55.8190790" lon="49.1634520"><time>2021-08-14T09:45:19</time></trkpt><trkpt lat="55.8190900" lon="49.1634690"><time>2021-08-14T09:45:20</time></trkpt><trkpt lat="55.8190980" lon="49.1634900"><time>2021-08-14T09:45:21</time></trkpt><trkpt lat="55.8191050" lon="49.1635100"><time>2021-08-14T09:45:22</time></trkpt><trkpt lat="55.8191150" lon="49.1635300"><time>2021-08-14T09:45:23</time></trkpt><trkpt lat="55.8191220" lon="49.1635520"><time>2021-08-14T09:45:24</time></trkpt><trkpt lat="55.8191300" lon="49.1635730"><time>2021-08-14T09:45:25</time></trkpt><trkpt lat="55.8191410" lon="49.1636080"><time>2021-08-14T09:45:26</time></trkpt><trkpt lat="55.8191470" lon="49.1636210"><time>2021-08-14T09:45:27</time></trkpt><trkpt lat="55.8191530" lon="49.1636330"><time>2021-08-14T09:45:28</time></trkpt><trkpt lat="55.8191620" lon="49.1636520"><time>2021-08-14T09:45:29</time></trkpt><trkpt lat="55.8191710" lon="49.1636690"><time>2021-08-14T09:45:30</time></trkpt><trkpt lat="55.8191810" lon="49.1636880"><time>2021-08-14T09:45:31</time></trkpt><trkpt lat="55.8191910" lon="49.1637050"><time>2021-08-14T09:45:32</time></trkpt><trkpt lat="55.8192000" lon="49.1637260"><time>2021-08-14T09:45:33</time></trkpt><trkpt lat="55.8192080" lon="49.1637450"><time>2021-08-14T09:45:34</time></trkpt><trkpt lat="55.8192180" lon="49.1637650"><time>2021-08-14T09:45:35</time></trkpt><trkpt lat="55.8192280" lon="49.1637830"><time>2021-08-14T09:45:36</time></trkpt><trkpt lat="55.8192370" lon="49.1638020"><time>2021-08-14T09:45:37</time></trkpt><trkpt lat="55.8192460" lon="49.1638220"><time>2021-08-14T09:45:38</time></trkpt><trkpt lat="55.8192580" lon="49.1638340"><time>2021-08-14T09:45:39</time></trkpt><trkpt lat="55.8192670" lon="49.1638520"><time>2021-08-14T09:45:40</time></trkpt><trkpt lat="55.8192730" lon="49.1638680"><time>2021-08-14T09:45:41</time></trkpt><trkpt lat="55.8192850" lon="49.1638900"><time>2021-08-14T09:45:42</time></trkpt><trkpt lat="55.8193030" lon="49.1639150"><time>2021-08-14T09:45:43</time></trkpt><trkpt lat="55.8193110" lon="49.1639250"><time>2021-08-14T09:45:44</time></trkpt><trkpt lat="55.8193190" lon="49.1639340"><time>2021-08-14T09:45:45</time></trkpt><trkpt lat="55.8193280" lon="49.1639510"><time>2021-08-14T09:45:46</time></trkpt><trkpt lat="55.8193380" lon="49.1639700"><time>2021-08-14T09:45:47</time></trkpt><trkpt lat="55.8193470" lon="49.1639890"><time>2021-08-14T09:45:48</time></trkpt><trkpt lat="55.8193560" lon="49.1640080"><time>2021-08-14T09:45:49</time></trkpt><trkpt lat="55.8193660" lon="49.1640250"><time>2021-08-14T09:45:50</time></trkpt><trkpt lat="55.8193690" lon="49.1640260"><time>2021-08-14T09:45:51</time></trkpt><trkpt lat="55.8193710" lon="49.1640260"><time>2021-08-14T09:45:52</time></trkpt><trkpt lat="55.8193740" lon="49.1640270"><time>2021-08-14T09:45:53</time></trkpt><trkpt lat="55.8193760" lon="49.1640270"><time>2021-08-14T09:45:54</time></trkpt><trkpt lat="55.8193790" lon="49.1640280"><time>2021-08-14T09:45:55</time></trkpt><trkpt lat="55.8193810" lon="49.1640280"><time>2021-08-14T09:45:56</time></trkpt><trkpt lat="55.8193830" lon="49.1640290"><time>2021-08-14T09:45:57</time></trkpt><trkpt lat="55.8193860" lon="49.1640290"><time>2021-08-14T09:45:58</time></trkpt><trkpt lat="55.8193880" lon="49.1640300"><time>2021-08-14T09:45:59</time></trkpt><trkpt lat="55.8193910" lon="49.1640300"><time>2021-08-14T09:46:00</time></trkpt><trkpt lat="55.8193930" lon="49.1640310"><time>2021-08-14T09:46:01</time></trkpt><trkpt lat="55.8193960" lon="49.1640310"><time>2021-08-14T09:46:02</time></trkpt><trkpt lat="55.8193980" lon="49.1640320"><time>2021-08-14T09:46:03</time></trkpt><trkpt lat="55.8194080" lon="49.1640490"><time>2021-08-14T09:46:04</time></trkpt><trkpt lat="55.8194160" lon="49.1640620"><time>2021-08-14T09:46:05</time></trkpt><trkpt lat="55.8194220" lon="49.1640790"><time>2021-08-14T09:46:06</time></trkpt><trkpt lat="55.8194360" lon="49.1641070"><time>2021-08-14T09:46:07</time></trkpt><trkpt lat="55.8194420" lon="49.1641170"><time>2021-08-14T09:46:08</time></trkpt><trkpt lat="55.8194480" lon="49.1641280"><time>2021-08-14T09:46:09</time></trkpt><trkpt lat="55.8194570" lon="49.1641490"><time>2021-08-14T09:46:10</time></trkpt><trkpt lat="55.8194680" lon="49.1641580"><time>2021-08-14T09:46:11</time></trkpt><trkpt lat="55.8194820" lon="49.1641860"><time>2021-08-14T09:46:12</time></trkpt><trkpt lat="55.8194890" lon="49.1641960"><time>2021-08-14T09:46:13</time></trkpt><trkpt lat="55.8194960" lon="49.1642060"><time>2021-08-14T09:46:14</time></trkpt><trkpt lat="55.8195030" lon="49.1642210"><time>2021-08-14T09:46:15</time></trkpt><trkpt lat="55.8195150" lon="49.1642440"><time>2021-08-14T09:46:16</time></trkpt><trkpt lat="55.8195280" lon="49.1642540"><time>2021-08-14T09:46:17</time></trkpt><trkpt lat="55.8195400" lon="49.1642680"><time>2021-08-14T09:46:18</time></trkpt><trkpt lat="55.8195490" lon="49.1642860"><time>2021-08-14T09:46:19</time></trkpt><trkpt lat="55.8195600" lon="49.1643020"><time>2021-08-14T09:46:20</time></trkpt><trkpt lat="55.8195760" lon="49.1643290"><time>2021-08-14T09:46:21</time></trkpt><trkpt lat="55.8195840" lon="49.1643400"><time>2021-08-14T09:46:22</time></trkpt><trkpt lat="55.8195920" lon="49.1643510"><time>2021-08-14T09:46:23</time></trkpt><trkpt lat="55.8196020" lon="49.1643630"><time>2021-08-14T09:46:24</time></trkpt><trkpt lat="55.8196150" lon="49.1643750"><time>2021-08-14T09:46:25</time></trkpt><trkpt lat="55.8196240" lon="49.1643930"><time>2021-08-14T09:46:27</time></trkpt><trkpt lat="55.8196390" lon="49.1644060"><time>2021-08-14T09:46:28</time></trkpt><trkpt lat="55.8196510" lon="49.1644180"><time>2021-08-14T09:46:29</time></trkpt><trkpt lat="55.8196620" lon="49.1644320"><time>2021-08-14T09:46:30</time></trkpt><trkpt lat="55.8196740" lon="49.1644460"><time>2021-08-14T09:46:31</time></trkpt><trkpt lat="55.8196850" lon="49.1644640"><time>2021-08-14T09:46:32</time></trkpt><trkpt lat="55.8196950" lon="49.1644780"><time>2021-08-14T09:46:33</time></trkpt><trkpt lat="55.8197080" lon="49.1644910"><time>2021-08-14T09:46:34</time></trkpt><trkpt lat="55.8197290" lon="49.1645190"><time>2021-08-14T09:46:35</time></trkpt><trkpt lat="55.8197520" lon="49.1645460"><time>2021-08-14T09:46:37</time></trkpt><trkpt lat="55.8197730" lon="49.1645630"><time>2021-08-14T09:46:39</time></trkpt><trkpt lat="55.8197790" lon="49.1645780"><time>2021-08-14T09:46:41</time></trkpt><trkpt lat="55.8197960" lon="49.1645980"><time>2021-08-14T09:46:42</time></trkpt><trkpt lat="55.8198050" lon="49.1646070"><time>2021-08-14T09:46:43</time></trkpt><trkpt lat="55.8198160" lon="49.1646200"><time>2021-08-14T09:46:44</time></trkpt><trkpt lat="55.8198270" lon="49.1646330"><time>2021-08-14T09:46:45</time></trkpt><trkpt lat="55.8198360" lon="49.1646410"><time>2021-08-14T09:46:46</time></trkpt><trkpt lat="55.8198550" lon="49.1646590"><time>2021-08-14T09:46:47</time></trkpt><trkpt lat="55.8198630" lon="49.1646650"><time>2021-08-14T09:46:48</time></trkpt><trkpt lat="55.8198700" lon="49.1646710"><time>2021-08-14T09:46:49</time></trkpt><trkpt lat="55.8198880" lon="49.1646860"><time>2021-08-14T09:46:50</time></trkpt><trkpt lat="55.8198960" lon="49.1646950"><time>2021-08-14T09:46:51</time></trkpt><trkpt lat="55.8199040" lon="49.1647030"><time>2021-08-14T09:46:52</time></trkpt><trkpt lat="55.8199180" lon="49.1647220"><time>2021-08-14T09:46:53</time></trkpt><trkpt lat="55.8199280" lon="49.1647290"><time>2021-08-14T09:46:54</time></trkpt><trkpt lat="55.8199380" lon="49.1647360"><time>2021-08-14T09:46:55</time></trkpt><trkpt lat="55.8199580" lon="49.1647530"><time>2021-08-14T09:46:56</time></trkpt><trkpt lat="55.8199660" lon="49.1647620"><time>2021-08-14T09:46:57</time></trkpt><trkpt lat="55.8199750" lon="49.1647700"><time>2021-08-14T09:46:58</time></trkpt><trkpt lat="55.8199950" lon="49.1647890"><time>2021-08-14T09:46:59</time></trkpt><trkpt lat="55.8200030" lon="49.1647980"><time>2021-08-14T09:47:00</time></trkpt><trkpt lat="55.8200120" lon="49.1648070"><time>2021-08-14T09:47:01</time></trkpt><trkpt lat="55.8200230" lon="49.1648200"><time>2021-08-14T09:47:02</time></trkpt><trkpt lat="55.8200290" lon="49.1648280"><time>2021-08-14T09:47:03</time></trkpt><trkpt lat="55.8200410" lon="49.1648370"><time>2021-08-14T09:47:04</time></trkpt><trkpt lat="55.8200600" lon="49.1648500"><time>2021-08-14T09:47:05</time></trkpt><trkpt lat="55.8200680" lon="49.1648560"><time>2021-08-14T09:47:06</time></trkpt><trkpt lat="55.8200750" lon="49.1648620"><time>2021-08-14T09:47:07</time></trkpt><trkpt lat="55.8200830" lon="49.1648650"><time>2021-08-14T09:47:08</time></trkpt><trkpt lat="55.8200950" lon="49.1648780"><time>2021-08-14T09:47:09</time></trkpt><trkpt lat="55.8201080" lon="49.1648890"><time>2021-08-14T09:47:10</time></trkpt><trkpt lat="55.8201200" lon="49.1648980"><time>2021-08-14T09:47:11</time></trkpt><trkpt lat="55.8201340" lon="49.1649080"><time>2021-08-14T09:47:12</time></trkpt><trkpt lat="55.8201520" lon="49.1649150"><time>2021-08-14T09:47:13</time></trkpt><trkpt lat="55.8201640" lon="49.1649190"><time>2021-08-14T09:47:14</time></trkpt><trkpt lat="55.8201850" lon="49.1649270"><time>2021-08-14T09:47:15</time></trkpt><trkpt lat="55.8201940" lon="49.1649330"><time>2021-08-14T09:47:16</time></trkpt><trkpt lat="55.8202030" lon="49.1649380"><time>2021-08-14T09:47:17</time></trkpt><trkpt lat="55.8202120" lon="49.1649390"><time>2021-08-14T09:47:18</time></trkpt><trkpt lat="55.8202260" lon="49.1649500"><time>2021-08-14T09:47:19</time></trkpt><trkpt lat="55.8202370" lon="49.1649540"><time>2021-08-14T09:47:20</time></trkpt><trkpt lat="55.8202470" lon="49.1649560"><time>2021-08-14T09:47:21</time></trkpt><trkpt lat="55.8202580" lon="49.1649640"><time>2021-08-14T09:47:22</time></trkpt><trkpt lat="55.8202720" lon="49.1649640"><time>2021-08-14T09:47:23</time></trkpt><trkpt lat="55.8202770" lon="49.1649660"><time>2021-08-14T09:47:24</time></trkpt><trkpt lat="55.8202900" lon="49.1649710"><time>2021-08-14T09:47:25</time></trkpt><trkpt lat="55.8203180" lon="49.1649900"><time>2021-08-14T09:47:26</time></trkpt><trkpt lat="55.8203320" lon="49.1649960"><time>2021-08-14T09:47:27</time></trkpt><trkpt lat="55.8203440" lon="49.1650030"><time>2021-08-14T09:47:28</time></trkpt><trkpt lat="55.8203620" lon="49.1650040"><time>2021-08-14T09:47:29</time></trkpt><trkpt lat="55.8203820" lon="49.1650150"><time>2021-08-14T09:47:30</time></trkpt><trkpt lat="55.8203910" lon="49.1650230"><time>2021-08-14T09:47:31</time></trkpt><trkpt lat="55.8204000" lon="49.1650300"><time>2021-08-14T09:47:32</time></trkpt><trkpt lat="55.8204230" lon="49.1650330"><time>2021-08-14T09:47:33</time></trkpt><trkpt lat="55.8204310" lon="49.1650360"><time>2021-08-14T09:47:34</time></trkpt><trkpt lat="55.8204400" lon="49.1650400"><time>2021-08-14T09:47:35</time></trkpt><trkpt lat="55.8204530" lon="49.1650430"><time>2021-08-14T09:47:36</time></trkpt><trkpt lat="55.8204680" lon="49.1650520"><time>2021-08-14T09:47:37</time></trkpt><trkpt lat="55.8204890" lon="49.1650680"><time>2021-08-14T09:47:38</time></trkpt><trkpt lat="55.8204970" lon="49.1650740"><time>2021-08-14T09:47:39</time></trkpt><trkpt lat="55.8205050" lon="49.1650790"><time>2021-08-14T09:47:40</time></trkpt><trkpt lat="55.8205190" lon="49.1650900"><time>2021-08-14T09:47:41</time></trkpt><trkpt lat="55.8205310" lon="49.1650940"><time>2021-08-14T09:47:42</time></trkpt><trkpt lat="55.8205450" lon="49.1650960"><time>2021-08-14T09:47:43</time></trkpt><trkpt lat="55.8205590" lon="49.1651040"><time>2021-08-14T09:47:44</time></trkpt><trkpt lat="55.8205800" lon="49.1651080"><time>2021-08-14T09:47:45</time></trkpt><trkpt lat="55.8205900" lon="49.1651110"><time>2021-08-14T09:47:46</time></trkpt><trkpt lat="55.8205990" lon="49.1651130"><time>2021-08-14T09:47:47</time></trkpt><trkpt lat="55.8206200" lon="49.1651120"><time>2021-08-14T09:47:48</time></trkpt><trkpt lat="55.8206310" lon="49.1651190"><time>2021-08-14T09:47:49</time></trkpt><trkpt lat="55.8206450" lon="49.1651250"><time>2021-08-14T09:47:50</time></trkpt><trkpt lat="55.8206590" lon="49.1651290"><time>2021-08-14T09:47:51</time></trkpt><trkpt lat="55.8206700" lon="49.1651380"><time>2021-08-14T09:47:52</time></trkpt><trkpt lat="55.8206870" lon="49.1651410"><time>2021-08-14T09:47:53</time></trkpt><trkpt lat="55.8207010" lon="49.1651420"><time>2021-08-14T09:47:54</time></trkpt><trkpt lat="55.8207140" lon="49.1651430"><time>2021-08-14T09:47:55</time></trkpt><trkpt lat="55.8207290" lon="49.1651470"><time>2021-08-14T09:47:56</time></trkpt><trkpt lat="55.8207420" lon="49.1651420"><time>2021-08-14T09:47:57</time></trkpt><trkpt lat="55.8207550" lon="49.1651480"><time>2021-08-14T09:47:58</time></trkpt><trkpt lat="55.8207700" lon="49.1651490"><time>2021-08-14T09:47:59</time></trkpt><trkpt lat="55.8207850" lon="49.1651480"><time>2021-08-14T09:48:00</time></trkpt><trkpt lat="55.8208000" lon="49.1651500"><time>2021-08-14T09:48:01</time></trkpt><trkpt lat="55.8208210" lon="49.1651390"><time>2021-08-14T09:48:02</time></trkpt><trkpt lat="55.8208270" lon="49.1651330"><time>2021-08-14T09:48:03</time></trkpt><trkpt lat="55.8208340" lon="49.1651270"><time>2021-08-14T09:48:04</time></trkpt><trkpt lat="55.8208380" lon="49.1651150"><time>2021-08-14T09:48:05</time></trkpt><trkpt lat="55.8208520" lon="49.1651000"><time>2021-08-14T09:48:06</time></trkpt><trkpt lat="55.8208620" lon="49.1650910"><time>2021-08-14T09:48:07</time></trkpt><trkpt lat="55.8208630" lon="49.1650820"><time>2021-08-14T09:48:08</time></trkpt><trkpt lat="55.8208780" lon="49.1650750"><time>2021-08-14T09:48:09</time></trkpt><trkpt lat="55.8208900" lon="49.1650610"><time>2021-08-14T09:48:10</time></trkpt><trkpt lat="55.8209100" lon="49.1650520"><time>2021-08-14T09:48:11</time></trkpt><trkpt lat="55.8209190" lon="49.1650480"><time>2021-08-14T09:48:12</time></trkpt><trkpt lat="55.8209290" lon="49.1650450"><time>2021-08-14T09:48:13</time></trkpt><trkpt lat="55.8209470" lon="49.1650400"><time>2021-08-14T09:48:14</time></trkpt><trkpt lat="55.8209600" lon="49.1650380"><time>2021-08-14T09:48:15</time></trkpt><trkpt lat="55.8209750" lon="49.1650360"><time>2021-08-14T09:48:16</time></trkpt><trkpt lat="55.8209900" lon="49.1650330"><time>2021-08-14T09:48:17</time></trkpt><trkpt lat="55.8210030" lon="49.1650290"><time>2021-08-14T09:48:18</time></trkpt><trkpt lat="55.8210170" lon="49.1650260"><time>2021-08-14T09:48:19</time></trkpt><trkpt lat="55.8210330" lon="49.1650150"><time>2021-08-14T09:48:20</time></trkpt><trkpt lat="55.8210440" lon="49.1650080"><time>2021-08-14T09:48:21</time></trkpt><trkpt lat="55.8210630" lon="49.1650000"><time>2021-08-14T09:48:22</time></trkpt><trkpt lat="55.8210720" lon="49.1649950"><time>2021-08-14T09:48:23</time></trkpt><trkpt lat="55.8210800" lon="49.1649910"><time>2021-08-14T09:48:24</time></trkpt><trkpt lat="55.8210890" lon="49.1649810"><time>2021-08-14T09:48:25</time></trkpt><trkpt lat="55.8211050" lon="49.1649790"><time>2021-08-14T09:48:26</time></trkpt><trkpt lat="55.8211140" lon="49.1649800"><time>2021-08-14T09:48:27</time></trkpt><trkpt lat="55.8211110" lon="49.1649830"><time>2021-08-14T09:48:28</time></trkpt><trkpt lat="55.8211100" lon="49.1649820"><time>2021-08-14T09:48:29</time></trkpt><trkpt lat="55.8211090" lon="49.1649820"><time>2021-08-14T09:48:30</time></trkpt><trkpt lat="55.8211210" lon="49.1649740"><time>2021-08-14T09:48:31</time></trkpt><trkpt lat="55.8211330" lon="49.1649700"><time>2021-08-14T09:48:33</time></trkpt><trkpt lat="55.8211470" lon="49.1649650"><time>2021-08-14T09:48:34</time></trkpt><trkpt lat="55.8211550" lon="49.1649550"><time>2021-08-14T09:48:35</time></trkpt><trkpt lat="55.8211670" lon="49.1649410"><time>2021-08-14T09:48:36</time></trkpt><trkpt lat="55.8211750" lon="49.1649280"><time>2021-08-14T09:48:37</time></trkpt><trkpt lat="55.8211860" lon="49.1649150"><time>2021-08-14T09:48:38</time></trkpt><trkpt lat="55.8211960" lon="49.1649100"><time>2021-08-14T09:48:39</time></trkpt><trkpt lat="55.8212050" lon="49.1649030"><time>2021-08-14T09:48:40</time></trkpt><trkpt lat="55.8212190" lon="49.1648890"><time>2021-08-14T09:48:41</time></trkpt><trkpt lat="55.8212340" lon="49.1648800"><time>2021-08-14T09:48:42</time></trkpt><trkpt lat="55.8212400" lon="49.1648580"><time>2021-08-14T09:48:43</time></trkpt><trkpt lat="55.8212460" lon="49.1648380"><time>2021-08-14T09:48:44</time></trkpt><trkpt lat="55.8212500" lon="49.1648220"><time>2021-08-14T09:48:45</time></trkpt><trkpt lat="55.8212600" lon="49.1648100"><time>2021-08-14T09:48:46</time></trkpt><trkpt lat="55.8212650" lon="49.1648030"><time>2021-08-14T09:48:47</time></trkpt><trkpt lat="55.8212750" lon="49.1647970"><time>2021-08-14T09:48:48</time></trkpt><trkpt lat="55.8212940" lon="49.1647940"><time>2021-08-14T09:48:49</time></trkpt><trkpt lat="55.8213110" lon="49.1647940"><time>2021-08-14T09:48:50</time></trkpt><trkpt lat="55.8213220" lon="49.1647980"><time>2021-08-14T09:48:51</time></trkpt><trkpt lat="55.8213420" lon="49.1647960"><time>2021-08-14T09:48:52</time></trkpt><trkpt lat="55.8213600" lon="49.1647950"><time>2021-08-14T09:48:53</time></trkpt><trkpt lat="55.8213740" lon="49.1647970"><time>2021-08-14T09:48:54</time></trkpt><trkpt lat="55.8213860" lon="49.1648000"><time>2021-08-14T09:48:55</time></trkpt><trkpt lat="55.8214050" lon="49.1648000"><time>2021-08-14T09:48:56</time></trkpt><trkpt lat="55.8214170" lon="49.1647960"><time>2021-08-14T09:48:57</time></trkpt><trkpt lat="55.8214410" lon="49.1648000"><time>2021-08-14T09:48:58</time></trkpt><trkpt lat="55.8214550" lon="49.1648050"><time>2021-08-14T09:48:59</time></trkpt><trkpt lat="55.8214730" lon="49.1648000"><time>2021-08-14T09:49:00</time></trkpt><trkpt lat="55.8214880" lon="49.1647930"><time>2021-08-14T09:49:01</time></trkpt><trkpt lat="55.8215040" lon="49.1647860"><time>2021-08-14T09:49:02</time></trkpt><trkpt lat="55.8215270" lon="49.1647790"><time>2021-08-14T09:49:03</time></trkpt><trkpt lat="55.8215350" lon="49.1647740"><time>2021-08-14T09:49:04</time></trkpt><trkpt lat="55.8215440" lon="49.1647700"><time>2021-08-14T09:49:05</time></trkpt><trkpt lat="55.8215590" lon="49.1647650"><time>2021-08-14T09:49:06</time></trkpt><trkpt lat="55.8215940" lon="49.1647520"><time>2021-08-14T09:49:07</time></trkpt><trkpt lat="55.8216060" lon="49.1647540"><time>2021-08-14T09:49:08</time></trkpt><trkpt lat="55.8216190" lon="49.1647600"><time>2021-08-14T09:49:09</time></trkpt><trkpt lat="55.8216360" lon="49.1647490"><time>2021-08-14T09:49:10</time></trkpt><trkpt lat="55.8216500" lon="49.1647380"><time>2021-08-14T09:49:11</time></trkpt><trkpt lat="55.8216620" lon="49.1647260"><time>2021-08-14T09:49:12</time></trkpt><trkpt lat="55.8216770" lon="49.1647200"><time>2021-08-14T09:49:13</time></trkpt><trkpt lat="55.8216920" lon="49.1647070"><time>2021-08-14T09:49:14</time></trkpt><trkpt lat="55.8217030" lon="49.1646910"><time>2021-08-14T09:49:15</time></trkpt><trkpt lat="55.8217160" lon="49.1646820"><time>2021-08-14T09:49:16</time></trkpt><trkpt lat="55.8217270" lon="49.1646660"><time>2021-08-14T09:49:17</time></trkpt><trkpt lat="55.8217390" lon="49.1646510"><time>2021-08-14T09:49:18</time></trkpt><trkpt lat="55.8217510" lon="49.1646400"><time>2021-08-14T09:49:19</time></trkpt><trkpt lat="55.8217630" lon="49.1646260"><time>2021-08-14T09:49:20</time></trkpt><trkpt lat="55.8217850" lon="49.1646110"><time>2021-08-14T09:49:21</time></trkpt><trkpt lat="55.8217930" lon="49.1646030"><time>2021-08-14T09:49:22</time></trkpt><trkpt lat="55.8218020" lon="49.1645960"><time>2021-08-14T09:49:23</time></trkpt><trkpt lat="55.8218180" lon="49.1645850"><time>2021-08-14T09:49:24</time></trkpt><trkpt lat="55.8218300" lon="49.1645800"><time>2021-08-14T09:49:25</time></trkpt><trkpt lat="55.8218430" lon="49.1645690"><time>2021-08-14T09:49:26</time></trkpt><trkpt lat="55.8218550" lon="49.1645570"><time>2021-08-14T09:49:27</time></trkpt><trkpt lat="55.8218650" lon="49.1645400"><time>2021-08-14T09:49:28</time></trkpt><trkpt lat="55.8218790" lon="49.1645290"><time>2021-08-14T09:49:29</time></trkpt><trkpt lat="55.8218910" lon="49.1645180"><time>2021-08-14T09:49:30</time></trkpt><trkpt lat="55.8219030" lon="49.1645010"><time>2021-08-14T09:49:31</time></trkpt><trkpt lat="55.8219150" lon="49.1644890"><time>2021-08-14T09:49:32</time></trkpt><trkpt lat="55.8219280" lon="49.1644790"><time>2021-08-14T09:49:33</time></trkpt><trkpt lat="55.8219420" lon="49.1644690"><time>2021-08-14T09:49:34</time></trkpt><trkpt lat="55.8219570" lon="49.1644560"><time>2021-08-14T09:49:35</time></trkpt><trkpt lat="55.8219710" lon="49.1644480"><time>2021-08-14T09:49:36</time></trkpt><trkpt lat="55.8219850" lon="49.1644350"><time>2021-08-14T09:49:37</time></trkpt><trkpt lat="55.8219990" lon="49.1644210"><time>2021-08-14T09:49:38</time></trkpt><trkpt lat="55.8220140" lon="49.1644090"><time>2021-08-14T09:49:39</time></trkpt><trkpt lat="55.8220290" lon="49.1644010"><time>2021-08-14T09:49:40</time></trkpt><trkpt lat="55.8220420" lon="49.1643870"><time>2021-08-14T09:49:41</time></trkpt><trkpt lat="55.8220560" lon="49.1643750"><time>2021-08-14T09:49:42</time></trkpt><trkpt lat="55.8220690" lon="49.1643610"><time>2021-08-14T09:49:43</time></trkpt><trkpt lat="55.8220830" lon="49.1643480"><time>2021-08-14T09:49:44</time></trkpt><trkpt lat="55.8220980" lon="49.1643390"><time>2021-08-14T09:49:45</time></trkpt><trkpt lat="55.8221120" lon="49.1643280"><time>2021-08-14T09:49:46</time></trkpt><trkpt lat="55.8221260" lon="49.1643170"><time>2021-08-14T09:49:47</time></trkpt><trkpt lat="55.8221400" lon="49.1643060"><time>2021-08-14T09:49:48</time></trkpt><trkpt lat="55.8221520" lon="49.1642920"><time>2021-08-14T09:49:49</time></trkpt><trkpt lat="55.8221620" lon="49.1642730"><time>2021-08-14T09:49:50</time></trkpt><trkpt lat="55.8221760" lon="49.1642600"><time>2021-08-14T09:49:51</time></trkpt><trkpt lat="55.8221900" lon="49.1642480"><time>2021-08-14T09:49:52</time></trkpt><trkpt lat="55.8222030" lon="49.1642350"><time>2021-08-14T09:49:53</time></trkpt><trkpt lat="55.8222160" lon="49.1642210"><time>2021-08-14T09:49:54</time></trkpt><trkpt lat="55.8222290" lon="49.1642080"><time>2021-08-14T09:49:55</time></trkpt><trkpt lat="55.8222420" lon="49.1641980"><time>2021-08-14T09:49:56</time></trkpt><trkpt lat="55.8222530" lon="49.1641770"><time>2021-08-14T09:49:57</time></trkpt><trkpt lat="55.8222650" lon="49.1641610"><time>2021-08-14T09:49:58</time></trkpt><trkpt lat="55.8222760" lon="49.1641410"><time>2021-08-14T09:49:59</time></trkpt><trkpt lat="55.8222890" lon="49.1641230"><time>2021-08-14T09:50:00</time></trkpt><trkpt lat="55.8223010" lon="49.1641080"><time>2021-08-14T09:50:01</time></trkpt><trkpt lat="55.8223160" lon="49.1640870"><time>2021-08-14T09:50:02</time></trkpt><trkpt lat="55.8223250" lon="49.1640750"><time>2021-08-14T09:50:03</time></trkpt><trkpt lat="55.8223330" lon="49.1640630"><time>2021-08-14T09:50:04</time></trkpt><trkpt lat="55.8223450" lon="49.1640470"><time>2021-08-14T09:50:05</time></trkpt><trkpt lat="55.8223570" lon="49.1640370"><time>2021-08-14T09:50:06</time></trkpt><trkpt lat="55.8223720" lon="49.1640220"><time>2021-08-14T09:50:07</time></trkpt><trkpt lat="55.8223830" lon="49.1640050"><time>2021-08-14T09:50:08</time></trkpt><trkpt lat="55.8223960" lon="49.1639940"><time>2021-08-14T09:50:09</time></trkpt><trkpt lat="55.8224080" lon="49.1639810"><time>2021-08-14T09:50:10</time></trkpt><trkpt lat="55.8224200" lon="49.1639670"><time>2021-08-14T09:50:11</time></trkpt><trkpt lat="55.8224320" lon="49.1639520"><time>2021-08-14T09:50:12</time></trkpt><trkpt lat="55.8224420" lon="49.1639350"><time>2021-08-14T09:50:13</time></trkpt><trkpt lat="55.8224570" lon="49.1639220"><time>2021-08-14T09:50:14</time></trkpt><trkpt lat="55.8224730" lon="49.1638940"><time>2021-08-14T09:50:15</time></trkpt><trkpt lat="55.8224810" lon="49.1638860"><time>2021-08-14T09:50:16</time></trkpt><trkpt lat="55.8224880" lon="49.1638780"><time>2021-08-14T09:50:17</time></trkpt><trkpt lat="55.8224960" lon="49.1638550"><time>2021-08-14T09:50:18</time></trkpt><trkpt lat="55.8225050" lon="49.1638350"><time>2021-08-14T09:50:19</time></trkpt><trkpt lat="55.8225100" lon="49.1638150"><time>2021-08-14T09:50:20</time></trkpt><trkpt lat="55.8225150" lon="49.1638030"><time>2021-08-14T09:50:21</time></trkpt><trkpt lat="55.8225250" lon="49.1637860"><time>2021-08-14T09:50:22</time></trkpt><trkpt lat="55.8225330" lon="49.1637610"><time>2021-08-14T09:50:23</time></trkpt><trkpt lat="55.8225400" lon="49.1637390"><time>2021-08-14T09:50:24</time></trkpt><trkpt lat="55.8225470" lon="49.1637160"><time>2021-08-14T09:50:25</time></trkpt><trkpt lat="55.8225560" lon="49.1636910"><time>2021-08-14T09:50:26</time></trkpt><trkpt lat="55.8225550" lon="49.1636640"><time>2021-08-14T09:50:27</time></trkpt><trkpt lat="55.8225540" lon="49.1636420"><time>2021-08-14T09:50:28</time></trkpt><trkpt lat="55.8225560" lon="49.1636240"><time>2021-08-14T09:50:29</time></trkpt><trkpt lat="55.8225630" lon="49.1636110"><time>2021-08-14T09:50:30</time></trkpt><trkpt lat="55.8225570" lon="49.1635810"><time>2021-08-14T09:50:31</time></trkpt><trkpt lat="55.8225660" lon="49.1635530"><time>2021-08-14T09:50:32</time></trkpt><trkpt lat="55.8225690" lon="49.1635290"><time>2021-08-14T09:50:33</time></trkpt><trkpt lat="55.8225790" lon="49.1634960"><time>2021-08-14T09:50:34</time></trkpt><trkpt lat="55.8225830" lon="49.1634800"><time>2021-08-14T09:50:35</time></trkpt><trkpt lat="55.8225880" lon="49.1634640"><time>2021-08-14T09:50:36</time></trkpt><trkpt lat="55.8225860" lon="49.1634540"><time>2021-08-14T09:50:37</time></trkpt><trkpt lat="55.8225880" lon="49.1634450"><time>2021-08-14T09:50:39</time></trkpt><trkpt lat="55.8225940" lon="49.1634200"><time>2021-08-14T09:50:40</time></trkpt><trkpt lat="55.8225980" lon="49.1634090"><time>2021-08-14T09:50:41</time></trkpt><trkpt lat="55.8226030" lon="49.1633820"><time>2021-08-14T09:50:42</time></trkpt><trkpt lat="55.8226050" lon="49.1633630"><time>2021-08-14T09:50:43</time></trkpt><trkpt lat="55.8226070" lon="49.1633440"><time>2021-08-14T09:50:44</time></trkpt><trkpt lat="55.8226160" lon="49.1633100"><time>2021-08-14T09:50:45</time></trkpt><trkpt lat="55.8226180" lon="49.1632940"><time>2021-08-14T09:50:46</time></trkpt><trkpt lat="55.8226210" lon="49.1632770"><time>2021-08-14T09:50:47</time></trkpt><trkpt lat="55.8226230" lon="49.1632610"><time>2021-08-14T09:50:48</time></trkpt><trkpt lat="55.8226280" lon="49.1632390"><time>2021-08-14T09:50:49</time></trkpt><trkpt lat="55.8226330" lon="49.1632100"><time>2021-08-14T09:50:50</time></trkpt><trkpt lat="55.8226380" lon="49.1631600"><time>2021-08-14T09:50:51</time></trkpt><trkpt lat="55.8226400" lon="49.1631410"><time>2021-08-14T09:50:52</time></trkpt><trkpt lat="55.8226430" lon="49.1631170"><time>2021-08-14T09:50:53</time></trkpt><trkpt lat="55.8226440" lon="49.1630860"><time>2021-08-14T09:50:54</time></trkpt><trkpt lat="55.8226520" lon="49.1630370"><time>2021-08-14T09:50:55</time></trkpt><trkpt lat="55.8226560" lon="49.1630190"><time>2021-08-14T09:50:56</time></trkpt><trkpt lat="55.8226590" lon="49.1629890"><time>2021-08-14T09:50:57</time></trkpt><trkpt lat="55.8226620" lon="49.1629580"><time>2021-08-14T09:50:58</time></trkpt><trkpt lat="55.8226850" lon="49.1629210"><time>2021-08-14T09:50:59</time></trkpt><trkpt lat="55.8226930" lon="49.1629080"><time>2021-08-14T09:51:00</time></trkpt><trkpt lat="55.8227030" lon="49.1628820"><time>2021-08-14T09:51:01</time></trkpt><trkpt lat="55.8227160" lon="49.1628630"><time>2021-08-14T09:51:02</time></trkpt><trkpt lat="55.8227350" lon="49.1628280"><time>2021-08-14T09:51:03</time></trkpt><trkpt lat="55.8227430" lon="49.1628180"><time>2021-08-14T09:51:04</time></trkpt><trkpt lat="55.8227610" lon="49.1627800"><time>2021-08-14T09:51:05</time></trkpt><trkpt lat="55.8227650" lon="49.1627670"><time>2021-08-14T09:51:06</time></trkpt><trkpt lat="55.8227710" lon="49.1627410"><time>2021-08-14T09:51:07</time></trkpt><trkpt lat="55.8227760" lon="49.1627190"><time>2021-08-14T09:51:08</time></trkpt><trkpt lat="55.8227810" lon="49.1626950"><time>2021-08-14T09:51:09</time></trkpt><trkpt lat="55.8227930" lon="49.1626760"><time>2021-08-14T09:51:10</time></trkpt><trkpt lat="55.8228020" lon="49.1626560"><time>2021-08-14T09:51:11</time></trkpt><trkpt lat="55.8228130" lon="49.1626390"><time>2021-08-14T09:51:12</time></trkpt><trkpt lat="55.8228160" lon="49.1626110"><time>2021-08-14T09:51:13</time></trkpt><trkpt lat="55.8228240" lon="49.1625910"><time>2021-08-14T09:51:14</time></trkpt><trkpt lat="55.8228310" lon="49.1625670"><time>2021-08-14T09:51:15</time></trkpt><trkpt lat="55.8228380" lon="49.1625460"><time>2021-08-14T09:51:16</time></trkpt><trkpt lat="55.8228480" lon="49.1625260"><time>2021-08-14T09:51:17</time></trkpt><trkpt lat="55.8228540" lon="49.1625030"><time>2021-08-14T09:51:18</time></trkpt><trkpt lat="55.8228610" lon="49.1624780"><time>2021-08-14T09:51:19</time></trkpt><trkpt lat="55.8228700" lon="49.1624550"><time>2021-08-14T09:51:20</time></trkpt><trkpt lat="55.8228880" lon="49.1624190"><time>2021-08-14T09:51:21</time></trkpt><trkpt lat="55.8228940" lon="49.1624060"><time>2021-08-14T09:51:22</time></trkpt><trkpt lat="55.8229010" lon="49.1623770"><time>2021-08-14T09:51:23</time></trkpt><trkpt lat="55.8229110" lon="49.1623550"><time>2021-08-14T09:51:24</time></trkpt><trkpt lat="55.8229170" lon="49.1623300"><time>2021-08-14T09:51:25</time></trkpt><trkpt lat="55.8229250" lon="49.1623060"><time>2021-08-14T09:51:26</time></trkpt><trkpt lat="55.8229340" lon="49.1622800"><time>2021-08-14T09:51:27</time></trkpt><trkpt lat="55.8229460" lon="49.1622570"><time>2021-08-14T09:51:28</time></trkpt><trkpt lat="55.8229580" lon="49.1622390"><time>2021-08-14T09:51:29</time></trkpt><trkpt lat="55.8229650" lon="49.1622160"><time>2021-08-14T09:51:30</time></trkpt><trkpt lat="55.8229690" lon="49.1621890"><time>2021-08-14T09:51:31</time></trkpt><trkpt lat="55.8229750" lon="49.1621680"><time>2021-08-14T09:51:32</time></trkpt><trkpt lat="55.8229790" lon="49.1621420"><time>2021-08-14T09:51:33</time></trkpt><trkpt lat="55.8229850" lon="49.1621220"><time>2021-08-14T09:51:34</time></trkpt><trkpt lat="55.8229950" lon="49.1621000"><time>2021-08-14T09:51:35</time></trkpt><trkpt lat="55.8230040" lon="49.1620790"><time>2021-08-14T09:51:36</time></trkpt><trkpt lat="55.8230130" lon="49.1620570"><time>2021-08-14T09:51:37</time></trkpt><trkpt lat="55.8230220" lon="49.1620390"><time>2021-08-14T09:51:38</time></trkpt><trkpt lat="55.8230250" lon="49.1620100"><time>2021-08-14T09:51:39</time></trkpt><trkpt lat="55.8230290" lon="49.1619860"><time>2021-08-14T09:51:40</time></trkpt><trkpt lat="55.8230380" lon="49.1619660"><time>2021-08-14T09:51:41</time></trkpt><trkpt lat="55.8230490" lon="49.1619470"><time>2021-08-14T09:51:42</time></trkpt><trkpt lat="55.8230590" lon="49.1619220"><time>2021-08-14T09:51:43</time></trkpt><trkpt lat="55.8230700" lon="49.1619020"><time>2021-08-14T09:51:44</time></trkpt><trkpt lat="55.8230850" lon="49.1618550"><time>2021-08-14T09:51:45</time></trkpt><trkpt lat="55.8230900" lon="49.1618300"><time>2021-08-14T09:51:46</time></trkpt><trkpt lat="55.8230930" lon="49.1618040"><time>2021-08-14T09:51:47</time></trkpt><trkpt lat="55.8231000" lon="49.1617850"><time>2021-08-14T09:51:48</time></trkpt><trkpt lat="55.8231090" lon="49.1617650"><time>2021-08-14T09:51:49</time></trkpt><trkpt lat="55.8231210" lon="49.1617490"><time>2021-08-14T09:51:50</time></trkpt><trkpt lat="55.8231330" lon="49.1617340"><time>2021-08-14T09:51:51</time></trkpt><trkpt lat="55.8231450" lon="49.1617200"><time>2021-08-14T09:51:52</time></trkpt><trkpt lat="55.8231520" lon="49.1616950"><time>2021-08-14T09:51:53</time></trkpt><trkpt lat="55.8231600" lon="49.1616740"><time>2021-08-14T09:51:54</time></trkpt><trkpt lat="55.8231670" lon="49.1616520"><time>2021-08-14T09:51:55</time></trkpt><trkpt lat="55.8231810" lon="49.1616350"><time>2021-08-14T09:51:56</time></trkpt><trkpt lat="55.8231880" lon="49.1616100"><time>2021-08-14T09:51:57</time></trkpt><trkpt lat="55.8231940" lon="49.1615840"><time>2021-08-14T09:51:58</time></trkpt><trkpt lat="55.8232000" lon="49.1615620"><time>2021-08-14T09:51:59</time></trkpt><trkpt lat="55.8232060" lon="49.1615380"><time>2021-08-14T09:52:00</time></trkpt><trkpt lat="55.8232160" lon="49.1615180"><time>2021-08-14T09:52:01</time></trkpt><trkpt lat="55.8232190" lon="49.1614910"><time>2021-08-14T09:52:02</time></trkpt><trkpt lat="55.8232260" lon="49.1614680"><time>2021-08-14T09:52:03</time></trkpt><trkpt lat="55.8232290" lon="49.1614400"><time>2021-08-14T09:52:04</time></trkpt><trkpt lat="55.8232280" lon="49.1614120"><time>2021-08-14T09:52:05</time></trkpt><trkpt lat="55.8232290" lon="49.1613840"><time>2021-08-14T09:52:06</time></trkpt><trkpt lat="55.8232280" lon="49.1613570"><time>2021-08-14T09:52:07</time></trkpt><trkpt lat="55.8232290" lon="49.1613330"><time>2021-08-14T09:52:08</time></trkpt><trkpt lat="55.8232330" lon="49.1613070"><time>2021-08-14T09:52:09</time></trkpt><trkpt lat="55.8232420" lon="49.1612830"><time>2021-08-14T09:52:10</time></trkpt><trkpt lat="55.8232440" lon="49.1612590"><time>2021-08-14T09:52:11</time></trkpt><trkpt lat="55.8232480" lon="49.1612350"><time>2021-08-14T09:52:12</time></trkpt><trkpt lat="55.8232490" lon="49.1612090"><time>2021-08-14T09:52:13</time></trkpt><trkpt lat="55.8232490" lon="49.1611850"><time>2021-08-14T09:52:14</time></trkpt><trkpt lat="55.8232480" lon="49.1611580"><time>2021-08-14T09:52:15</time></trkpt><trkpt lat="55.8232430" lon="49.1611330"><time>2021-08-14T09:52:16</time></trkpt><trkpt lat="55.8232420" lon="49.1611100"><time>2021-08-14T09:52:17</time></trkpt><trkpt lat="55.8232380" lon="49.1610880"><time>2021-08-14T09:52:18</time></trkpt><trkpt lat="55.8232220" lon="49.1610720"><time>2021-08-14T09:52:19</time></trkpt><trkpt lat="55.8232110" lon="49.1610630"><time>2021-08-14T09:52:20</time></trkpt><trkpt lat="55.8232060" lon="49.1610510"><time>2021-08-14T09:52:21</time></trkpt><trkpt lat="55.8232140" lon="49.1610550"><time>2021-08-14T09:52:22</time></trkpt><trkpt lat="55.8232160" lon="49.1610440"><time>2021-08-14T09:52:23</time></trkpt><trkpt lat="55.8232150" lon="49.1610300"><time>2021-08-14T09:52:24</time></trkpt><trkpt lat="55.8232160" lon="49.1610170"><time>2021-08-14T09:52:25</time></trkpt><trkpt lat="55.8232190" lon="49.1609950"><time>2021-08-14T09:52:26</time></trkpt><trkpt lat="55.8232240" lon="49.1610010"><time>2021-08-14T09:52:27</time></trkpt><trkpt lat="55.8232130" lon="49.1609690"><time>2021-08-14T09:52:28</time></trkpt><trkpt lat="55.8232050" lon="49.1609690"><time>2021-08-14T09:52:29</time></trkpt><trkpt lat="55.8232030" lon="49.1609740"><time>2021-08-14T09:52:30</time></trkpt><trkpt lat="55.8232050" lon="49.1609750"><time>2021-08-14T09:52:31</time></trkpt><trkpt lat="55.8232000" lon="49.1609750"><time>2021-08-14T09:52:32</time></trkpt><trkpt lat="55.8231960" lon="49.1609790"><time>2021-08-14T09:52:33</time></trkpt><trkpt lat="55.8231910" lon="49.1609750"><time>2021-08-14T09:52:34</time></trkpt><trkpt lat="55.8231910" lon="49.1609730"><time>2021-08-14T09:52:35</time></trkpt><trkpt lat="55.8231960" lon="49.1609790"><time>2021-08-14T09:52:36</time></trkpt><trkpt lat="55.8232130" lon="49.1609840"><time>2021-08-14T09:52:37</time></trkpt><trkpt lat="55.8232120" lon="49.1609780"><time>2021-08-14T09:52:38</time></trkpt><trkpt lat="55.8232130" lon="49.1609710"><time>2021-08-14T09:52:39</time></trkpt><trkpt lat="55.8232130" lon="49.1609710"><time>2021-08-14T09:52:40</time></trkpt><trkpt lat="55.8232120" lon="49.1609720"><time>2021-08-14T09:52:41</time></trkpt><trkpt lat="55.8232130" lon="49.1609850"><time>2021-08-14T09:52:42</time></trkpt><trkpt lat="55.8232130" lon="49.1609980"><time>2021-08-14T09:52:43</time></trkpt><trkpt lat="55.8232150" lon="49.1610020"><time>2021-08-14T09:52:45</time></trkpt><trkpt lat="55.8232150" lon="49.1610070"><time>2021-08-14T09:52:46</time></trkpt><trkpt lat="55.8232180" lon="49.1610080"><time>2021-08-14T09:52:47</time></trkpt><trkpt lat="55.8232140" lon="49.1610090"><time>2021-08-14T09:52:48</time></trkpt><trkpt lat="55.8232180" lon="49.1610060"><time>2021-08-14T09:52:49</time></trkpt><trkpt lat="55.8232160" lon="49.1610080"><time>2021-08-14T09:52:50</time></trkpt><trkpt lat="55.8232180" lon="49.1610070"><time>2021-08-14T09:52:51</time></trkpt><trkpt lat="55.8232140" lon="49.1610050"><time>2021-08-14T09:52:52</time></trkpt><trkpt lat="55.8232110" lon="49.1610050"><time>2021-08-14T09:52:53</time></trkpt><trkpt lat="55.8232090" lon="49.1610050"><time>2021-08-14T09:52:54</time></trkpt><trkpt lat="55.8232100" lon="49.1610120"><time>2021-08-14T09:52:55</time></trkpt><trkpt lat="55.8232090" lon="49.1610110"><time>2021-08-14T09:52:56</time></trkpt><trkpt lat="55.8232110" lon="49.1610010"><time>2021-08-14T09:52:57</time></trkpt><trkpt lat="55.8232140" lon="49.1609970"><time>2021-08-14T09:52:58</time></trkpt><trkpt lat="55.8232150" lon="49.1610000"><time>2021-08-14T09:52:59</time></trkpt></trkseg></trk></gpx>